
Distance (Route):
Temperature : 16.6°C
Humidity : 78.7%
Pressure : 979.3hPa| Receiver | Frames | First received | Last received |
|---|---|---|---|
| DM0DOS-11 | 757 | 2026-08-31 11:44:48 | 2026-08-31 14:02:57 |
| BIOWL1-15 | 713 | 2026-08-31 11:42:55 | 2026-08-31 14:02:59 |
| DL1XH-west | 374 | 2026-08-31 12:14:28 | 2026-08-31 13:31:01 |
| GOEST3-10 | 201 | 2026-08-31 12:29:38 | 2026-08-31 13:26:57 |
| DL1XH-15 | 140 | 2026-08-31 12:33:46 | 2026-08-31 13:25:22 |
| DO1YAY-16 | 101 | 2026-08-31 11:50:14 | 2026-08-31 14:05:47 |
| AA1-15 | 92 | 2026-08-31 12:54:30 | 2026-08-31 13:17:20 |
| BIOWL9-15 | 79 | 2026-08-31 11:46:06 | 2026-08-31 14:02:44 |
| DJ2KF-10 | 78 | 2026-08-31 12:08:17 | 2026-08-31 13:56:36 |
| HTAHTA | 59 | 2026-08-31 11:52:52 | 2026-08-31 13:47:46 |
| WPPR-10 | 52 | 2026-08-31 12:15:15 | 2026-08-31 14:03:26 |
| DL4BBY-15 | 50 | 2026-08-31 12:11:28 | 2026-08-31 13:34:18 |
| DJ2DS-15 | 48 | 2026-08-31 11:54:34 | 2026-08-31 13:49:53 |
| DD1CC9-15 | 42 | 2026-08-31 13:05:27 | 2026-08-31 13:55:37 |
| WEDDY | 41 | 2026-08-31 11:49:26 | 2026-08-31 13:42:10 |
| DD1CC1-15 | 39 | 2026-08-31 13:04:25 | 2026-08-31 13:56:25 |
| DD1CC8 | 37 | 2026-08-31 12:33:55 | 2026-08-31 13:42:19 |
| DL8DAS-14 | 35 | 2026-08-31 12:08:56 | 2026-08-31 13:47:44 |
| MET0W-2 | 33 | 2026-08-31 12:52:58 | 2026-08-31 13:44:13 |
| DD1CC3-15 | 29 | 2026-08-31 13:06:46 | 2026-08-31 13:58:34 |
| DB0UT-7 | 21 | 2026-08-31 11:56:28 | 2026-08-31 14:00:56 |
| BIOWL7-15 | 21 | 2026-08-31 12:06:02 | 2026-08-31 13:59:55 |
| DL1ZP-14 | 15 | 2026-08-31 12:21:33 | 2026-08-31 13:29:23 |
| DB0ND-19 | 12 | 2026-08-31 12:13:13 | 2026-08-31 13:51:02 |
| DJ3KS | 11 | 2026-08-31 12:11:39 | 2026-08-31 13:56:19 |
| BUE01 | 11 | 2026-08-31 12:39:44 | 2026-08-31 13:09:45 |
| SONCRA | 11 | 2026-08-31 12:52:01 | 2026-08-31 13:19:58 |
| DL8DAS-15 | 8 | 2026-08-31 12:37:48 | 2026-08-31 13:48:55 |
| DO3DL | 4 | 2026-08-31 13:03:49 | 2026-08-31 13:04:35 |
| DL1CLM-18 | 2 | 2026-08-31 12:23:44 | 2026-08-31 12:52:36 |
| Receiver | Date | Latitude | Longitude | Direction | Speed | Altitude | Climb | Temperature | Humidity | Pressure | Voltage | Killtimer | Uptime | BKT | XDATA |
|---|---|---|---|---|---|---|---|---|---|---|---|---|---|---|---|
| DO1YAY-16 | 2026-08-31 14:05:47 | 51.09006 | 6.16914 | 43° | 29km/h | 317m | -4.5m/s | 16.6°C | 78.7% | 979.3hPa | 2.7V | 00:00:00 | 00:00:00 | 00:00:00 | |
| DO1YAY-16 | 2026-08-31 14:05:16 | 51.08896 | 6.16487 | 92° | 46km/h | 424m | -3.2m/s | 15.6°C | 83.0% | 967.2hPa | 2.7V | 00:00:00 | 00:00:00 | 00:00:00 | |
| DO1YAY-16 | 2026-08-31 14:04:45 | 51.08742 | 6.15893 | 52° | 42km/h | 575m | -4.6m/s | 14.1°C | 89.3% | 950.0hPa | 2.7V | 00:00:00 | 00:00:00 | 00:00:00 | |
| DO1YAY-16 | 2026-08-31 14:04:14 | 51.08628 | 6.15371 | 63° | 62km/h | 692m | -3.5m/s | 13.3°C | 89.0% | 937.1hPa | 2.7V | 00:00:00 | 00:00:00 | 00:00:00 | |
| DO1YAY-16 | 2026-08-31 14:03:43 | 51.08501 | 6.14603 | 88° | 55km/h | 825m | -4.2m/s | 12.3°C | 90.1% | 922.0hPa | 2.7V | 00:00:00 | 00:00:00 | 00:00:00 | |
| WPPR-10 | 2026-08-31 14:03:26 | 51.08419 | 6.13996 | 83° | 47km/h | 928m | -4.0m/s | 11.6°C | 89.4% | 910.9hPa | 2.7V | 00:00:00 | 00:00:00 | 00:00:00 | |
| BIOWL1-15 | 2026-08-31 14:02:59 | 51.08371 | 6.13528 | 82° | 47km/h | 1010m | -4.4m/s | 11.1°C | 92.9% | 902hPa | 2.7V | 07:43:27 | 03:32:26 | 00:00:00 | i |
| BIOWL1-15 | 2026-08-31 14:02:58 | 51.08367 | 6.13508 | 68° | 55km/h | 1014m | -4.7m/s | 11°C | 93% | 901.6hPa | 2.7V | 07:43:27 | 03:32:25 | 00:00:00 | i |
| DM0DOS-11 | 2026-08-31 14:02:57 | 51.08357 | 6.13396 | 96° | 66km/h | 1032m | -4.5m/s | 10.9°C | 89.5% | 899.6hPa | 2.7V | 07:42:45 | 03:32:21 | 00:00:00 | i |
| BIOWL1-15 | 2026-08-31 14:02:56 | 51.08362 | 6.13485 | 71° | 69km/h | 1019m | -4.6m/s | 11°C | 92.9% | 900.9hPa | 2.6V | 07:43:27 | 03:32:24 | 00:00:00 | i |
| BIOWL1-15 | 2026-08-31 14:02:52 | 51.08357 | 6.13396 | 97° | 66km/h | 1032m | -4.5m/s | 10.9°C | 93.3% | 899.6hPa | 2.7V | 07:43:27 | 03:32:21 | 00:00:00 | i |
| BIOWL1-15 | 2026-08-31 14:02:52 | 51.08358 | 6.13372 | 92° | 53km/h | 1036m | -4.4m/s | 10.9°C | 93.3% | 899.1hPa | 2.7V | 07:43:27 | 03:32:20 | 00:00:00 | i |
| DM0DOS-11 | 2026-08-31 14:02:50 | 51.08348 | 6.13304 | 75° | 73km/h | 1049m | -4.2m/s | 10.8°C | 89.8% | 897.8hPa | 2.7V | 07:42:49 | 03:32:17 | 00:00:00 | i |
| BIOWL1-15 | 2026-08-31 14:02:48 | 51.08345 | 6.13274 | 86° | 78km/h | 1054m | -4.1m/s | 10.8°C | 93.4% | 897.3hPa | 2.7V | 07:43:27 | 03:32:16 | 00:00:00 | i |
| DM0DOS-11 | 2026-08-31 14:02:45 | 51.08338 | 6.13114 | 86° | 82km/h | 1082m | -4.4m/s | 10.7°C | 89.4% | 894.4hPa | 2.7V | 07:42:56 | 03:32:10 | 00:00:00 | i |
| BIOWL9-15 | 2026-08-31 14:02:44 | 51.08347 | 6.13217 | 97° | 58km/h | 1063m | -5.2m/s | 10.7°C | 90.4% | 896.4hPa | 2.7V | 00:00:00 | 00:00:00 | 00:00:00 | i |
| BIOWL1-15 | 2026-08-31 14:02:44 | 51.08347 | 6.13217 | 97° | 60km/h | 1063m | -5.2m/s | 10.7°C | 93.1% | 896.4hPa | 2.6V | 07:43:27 | 03:32:14 | 00:00:00 | i |
| BIOWL1-15 | 2026-08-31 14:02:42 | 51.08345 | 6.13172 | 76° | 62km/h | 1073m | -4.6m/s | 10.8°C | 92.6% | 895.2hPa | 2.7V | 07:43:27 | 03:32:12 | 00:00:00 | i |
| BIOWL1-15 | 2026-08-31 14:02:41 | 51.08341 | 6.13145 | 77° | 75km/h | 1077m | -4.7m/s | 10.7°C | 92.4% | 894.7hPa | 2.7V | 07:43:27 | 03:32:11 | 00:00:00 | i |
| BIOWL1-15 | 2026-08-31 14:02:40 | 51.08338 | 6.13114 | 86° | 82km/h | 1082m | -4.4m/s | 10.7°C | 93.1% | 894.4hPa | 2.7V | 07:43:27 | 03:32:10 | 00:00:00 | i |
| BIOWL1-15 | 2026-08-31 14:02:39 | 51.08339 | 6.13082 | 96° | 77km/h | 1086m | -4.5m/s | 10.6°C | 93.5% | 893.8hPa | 2.7V | 07:43:27 | 03:32:09 | 00:00:00 | i |
| DM0DOS-11 | 2026-08-31 14:02:39 | 51.08341 | 6.13054 | 99° | 64km/h | 1091m | -4.6m/s | 10.5°C | 90.4% | 893.3hPa | 2.7V | 07:42:58 | 03:32:08 | 00:00:00 | i |
| DM0DOS-11 | 2026-08-31 14:02:39 | 51.08341 | 6.13006 | 80° | 62km/h | 1101m | -4.9m/s | 10.4°C | 91.4% | 892.2hPa | 2.7V | 07:43:00 | 03:32:06 | 00:00:00 | i |
| DM0DOS-11 | 2026-08-31 14:02:39 | 51.08336 | 6.12947 | 87° | 84km/h | 1109m | -4.6m/s | 10.3°C | 92.4% | 891.3hPa | 2.7V | 07:43:02 | 03:32:04 | 00:00:00 | i |
| BIOWL1-15 | 2026-08-31 14:02:37 | 51.08342 | 6.13030 | 90° | 57km/h | 1095m | -5.1m/s | 10.4°C | 94.6% | 892.9hPa | 2.7V | 07:43:27 | 03:32:07 | 00:00:00 | i |
| BIOWL1-15 | 2026-08-31 14:02:35 | 51.08336 | 6.12947 | 88° | 84km/h | 1109m | -4.6m/s | 10.3°C | 95.6% | 891.3hPa | 2.7V | 07:43:27 | 03:32:04 | 00:00:00 | i |
| BIOWL1-15 | 2026-08-31 14:02:35 | 51.08337 | 6.12914 | 97° | 82km/h | 1114m | -4.7m/s | 10.2°C | 95.5% | 890.8hPa | 2.7V | 07:43:27 | 03:32:03 | 00:00:00 | i |
| DM0DOS-11 | 2026-08-31 14:02:33 | 51.08338 | 6.12779 | 86° | 82km/h | 1138m | -4.7m/s | 10.6°C | 83.7% | 888.2hPa | 2.7V | 07:43:08 | 03:31:58 | 00:00:00 | i |
| BIOWL1-15 | 2026-08-31 14:02:32 | 51.08342 | 6.12836 | 83° | 58km/h | 1128m | -4.9m/s | 10.7°C | 88.5% | 889.3hPa | 2.7V | 07:43:27 | 03:32:00 | 00:00:00 | i |
| BIOWL1-15 | 2026-08-31 14:02:31 | 51.08340 | 6.12810 | 80° | 71km/h | 1133m | -5m/s | 10.7°C | 88.2% | 888.9hPa | 2.7V | 07:43:27 | 03:31:59 | 00:00:00 | i |
| DM0DOS-11 | 2026-08-31 14:02:28 | 51.08341 | 6.12715 | 102° | 73km/h | 1147m | -4.6m/s | 10.6°C | 83.8% | 887.2hPa | 2.6V | 07:43:10 | 03:31:56 | 00:00:00 | i |
| DM0DOS-11 | 2026-08-31 14:02:28 | 51.08345 | 6.12666 | 86° | 58km/h | 1156m | -4.7m/s | 10.5°C | 83.6% | 886.4hPa | 2.7V | 07:43:12 | 03:31:54 | 00:00:00 | i |
| BIOWL1-15 | 2026-08-31 14:02:27 | 51.08341 | 6.12715 | 102° | 73km/h | 1147m | -4.6m/s | 10.6°C | 88% | 887.3hPa | 2.6V | 07:43:27 | 03:31:56 | 00:00:00 | i |
| BIOWL1-15 | 2026-08-31 14:02:27 | 51.08344 | 6.12689 | 99° | 60km/h | 1152m | -4.4m/s | 10.6°C | 87.7% | 886.7hPa | 2.7V | 07:43:27 | 03:31:55 | 00:00:00 | i |
| BIOWL1-15 | 2026-08-31 14:02:23 | 51.08348 | 6.12521 | 98° | 57km/h | 1177m | -4.1m/s | 10.3°C | 88.9% | 884hPa | 2.7V | 07:43:27 | 03:31:49 | 00:00:00 | i |
| DM0DOS-11 | 2026-08-31 14:02:23 | 51.08341 | 6.12609 | 87° | 82km/h | 1164m | -4.3m/s | 10.4°C | 84% | 885.3hPa | 2.7V | 07:43:14 | 03:31:52 | 00:00:00 | i |
| DM0DOS-11 | 2026-08-31 14:02:23 | 51.08345 | 6.12547 | 102° | 71km/h | 1173m | -4.1m/s | 10.4°C | 84.5% | 884.5hPa | 2.7V | 07:43:16 | 03:31:50 | 00:00:00 | i |
| BIOWL1-15 | 2026-08-31 14:02:17 | 51.08344 | 6.12441 | 86° | 82km/h | 1190m | -4.5m/s | 10.2°C | 89.4% | 882.7hPa | 2.7V | 07:43:27 | 03:31:46 | 00:00:00 | i |
| DM0DOS-11 | 2026-08-31 14:02:17 | 51.08344 | 6.12441 | 86° | 82km/h | 1190m | -4.5m/s | 10.2°C | 84.1% | 882.7hPa | 2.7V | 07:43:20 | 03:31:46 | 00:00:00 | i |
| DM0DOS-11 | 2026-08-31 14:02:17 | 51.08353 | 6.12326 | 88° | 57km/h | 1207m | -4m/s | 10°C | 85.9% | 880.9hPa | 2.7V | 07:43:24 | 03:31:42 | 00:00:00 | i |
| BIOWL1-15 | 2026-08-31 14:02:17 | 51.08344 | 6.12408 | 96° | 84km/h | 1195m | -4.3m/s | 10.2°C | 89.6% | 882.2hPa | 2.7V | 07:43:27 | 03:31:45 | 00:00:00 | i |
| BIOWL1-15 | 2026-08-31 14:02:14 | 51.08348 | 6.12377 | 103° | 75km/h | 1199m | -4.1m/s | 10.1°C | 89.7% | 881.8hPa | 2.7V | 07:43:27 | 03:31:44 | 00:00:00 | i |
| BIOWL1-15 | 2026-08-31 14:02:12 | 51.08352 | 6.12068 | 91° | 86km/h | 1247m | -4.7m/s | 9.7°C | 90.3% | 876.8hPa | 2.7V | 07:44:18 | 03:31:33 | 00:00:00 | i |
| DM0DOS-11 | 2026-08-31 14:02:11 | 51.08356 | 6.12155 | 91° | 58km/h | 1233m | -4.4m/s | 9.7°C | 87.5% | 878.1hPa | 2.7V | 07:43:30 | 03:31:36 | 00:00:00 | i |
| BIOWL1-15 | 2026-08-31 14:02:04 | 51.08354 | 6.12035 | 100° | 82km/h | 1251m | -4.5m/s | 9.8°C | 88.2% | 876.2hPa | 2.7V | 07:44:18 | 03:31:32 | 00:00:00 | i |
| BIOWL1-15 | 2026-08-31 14:02:01 | 51.08362 | 6.11954 | 87° | 64km/h | 1265m | -4.6m/s | 9.8°C | 86.8% | 874.9hPa | 2.7V | 07:44:18 | 03:31:29 | 00:00:00 | i |
| DM0DOS-11 | 2026-08-31 14:02:00 | 51.08362 | 6.11954 | 87° | 64km/h | 1265m | -4.6m/s | 9.8°C | 83.2% | 874.9hPa | 2.7V | 07:43:37 | 03:31:29 | 00:00:00 | i |
| DM0DOS-11 | 2026-08-31 14:02:00 | 51.08361 | 6.11893 | 93° | 86km/h | 1273m | -4.5m/s | 9.8°C | 83.5% | 873.9hPa | 2.7V | 07:43:39 | 03:31:27 | 00:00:00 | i |
| BIOWL1-15 | 2026-08-31 14:02:00 | 51.08361 | 6.11926 | 86° | 78km/h | 1269m | -4.2m/s | 9.8°C | 87.2% | 874.3hPa | 2.7V | 07:44:18 | 03:31:28 | 00:00:00 | i |
| BIOWL1-15 | 2026-08-31 14:01:56 | 51.08369 | 6.11830 | 106° | 69km/h | 1283m | -4.7m/s | 9.6°C | 88.5% | 872.9hPa | 2.7V | 07:44:18 | 03:31:25 | 00:00:00 | i |
| BIOWL1-15 | 2026-08-31 14:01:56 | 51.08372 | 6.11805 | 98° | 58km/h | 1288m | -4.8m/s | 9.6°C | 89% | 872.4hPa | 2.7V | 07:44:18 | 03:31:24 | 00:00:00 | i |
| DM0DOS-11 | 2026-08-31 14:01:54 | 51.08369 | 6.11722 | 88° | 86km/h | 1302m | -4.7m/s | 9.5°C | 84% | 870.9hPa | 2.7V | 07:43:45 | 03:31:21 | 00:00:00 | i |
| BIOWL1-15 | 2026-08-31 14:01:52 | 51.08371 | 6.11754 | 83° | 75km/h | 1297m | -4.8m/s | 9.5°C | 88.5% | 871.4hPa | 2.6V | 07:44:18 | 03:31:22 | 00:00:00 | i |
| BIOWL1-15 | 2026-08-31 14:01:51 | 51.08369 | 6.11722 | 88° | 86km/h | 1302m | -4.7m/s | 9.5°C | 88% | 870.9hPa | 2.7V | 07:44:18 | 03:31:21 | 00:00:00 | i |
| BIOWL1-15 | 2026-08-31 14:01:49 | 51.08373 | 6.11655 | 102° | 77km/h | 1311m | -4.4m/s | 9.7°C | 84.6% | 870hPa | 2.7V | 07:44:18 | 03:31:19 | 00:00:00 | i |
| DM0DOS-11 | 2026-08-31 14:01:48 | 51.08378 | 6.11603 | 87° | 60km/h | 1320m | -3.8m/s | 9.6°C | 80.5% | 869hPa | 2.7V | 07:43:49 | 03:31:17 | 00:00:00 | i |
| DM0DOS-11 | 2026-08-31 14:01:48 | 51.08376 | 6.11479 | 100° | 77km/h | 1337m | -4.4m/s | 9.3°C | 82.8% | 867.3hPa | 2.7V | 07:43:53 | 03:31:13 | 00:00:00 | i |
| BIOWL1-15 | 2026-08-31 14:01:47 | 51.08378 | 6.11603 | 87° | 60km/h | 1320m | -3.8m/s | 9.6°C | 85.2% | 869hPa | 2.7V | 07:44:18 | 03:31:17 | 00:00:00 | i |
| BIOWL1-15 | 2026-08-31 14:01:46 | 51.08376 | 6.11577 | 80° | 71km/h | 1324m | -4.2m/s | 9.5°C | 86.1% | 868.6hPa | 2.7V | 07:44:18 | 03:31:16 | 00:00:00 | i |
| BIOWL1-15 | 2026-08-31 14:01:45 | 51.08373 | 6.11546 | 85° | 84km/h | 1328m | -4.3m/s | 9.4°C | 86.7% | 868hPa | 2.7V | 07:44:18 | 03:31:15 | 00:00:00 | i |
| BIOWL1-15 | 2026-08-31 14:01:43 | 51.08376 | 6.11372 | 83° | 80km/h | 1354m | -4.3m/s | 9.5°C | 82.5% | 865.5hPa | 2.7V | 07:44:18 | 03:31:09 | 00:00:00 | i |
| DM0DOS-11 | 2026-08-31 14:01:42 | 51.08380 | 6.11427 | 88° | 58km/h | 1345m | -4.2m/s | 9.4°C | 81.5% | 866.2hPa | 2.7V | 07:43:55 | 03:31:11 | 00:00:00 | i |
| BIOWL1-15 | 2026-08-31 14:01:37 | 51.08377 | 6.11307 | 99° | 78km/h | 1363m | -4.7m/s | 9.5°C | 82.2% | 864.5hPa | 2.7V | 07:44:18 | 03:31:07 | 00:00:00 | i |
| DM0DOS-11 | 2026-08-31 14:01:36 | 51.08381 | 6.11253 | 88° | 60km/h | 1372m | -4.2m/s | 9.4°C | 78.2% | 863.5hPa | 2.7V | 07:44:01 | 03:31:05 | 00:00:00 | i |
| DM0DOS-11 | 2026-08-31 14:01:36 | 51.08377 | 6.11136 | 99° | 73km/h | 1389m | -4.1m/s | 9.2°C | 79% | 861.8hPa | 2.7V | 07:44:05 | 03:31:01 | 00:00:00 | i |
| BIOWL1-15 | 2026-08-31 14:01:36 | 51.08379 | 6.11278 | 99° | 66km/h | 1368m | -4.6m/s | 9.5°C | 80.8% | 864hPa | 2.6V | 07:44:18 | 03:31:06 | 00:00:00 | i |
| BIOWL1-15 | 2026-08-31 14:01:34 | 51.08376 | 6.11199 | 83° | 78km/h | 1380m | -4.4m/s | 9.3°C | 82% | 862.6hPa | 2.7V | 07:44:18 | 03:31:03 | 00:00:00 | i |
| BIOWL1-15 | 2026-08-31 14:01:34 | 51.08375 | 6.11166 | 93° | 82km/h | 1385m | -4.2m/s | 9.3°C | 81.5% | 862.3hPa | 2.7V | 07:44:18 | 03:31:02 | 00:00:00 | i |
| BIOWL1-15 | 2026-08-31 14:01:30 | 51.08380 | 6.11110 | 96° | 58km/h | 1393m | -4.2m/s | 9.1°C | 83.2% | 861.4hPa | 2.7V | 07:44:18 | 03:31:00 | 00:00:00 | i |
| DM0DOS-11 | 2026-08-31 14:01:30 | 51.08377 | 6.10966 | 100° | 71km/h | 1416m | -4.7m/s | 9.1°C | 77.4% | 858.9hPa | 2.7V | 07:44:11 | 03:30:55 | 00:00:00 | i |
| BIOWL1-15 | 2026-08-31 14:01:29 | 51.08380 | 6.11086 | 83° | 58km/h | 1398m | -4.5m/s | 9.2°C | 82.7% | 861hPa | 2.7V | 07:44:18 | 03:30:59 | 00:00:00 | i |
| BIOWL1-15 | 2026-08-31 14:01:28 | 51.08379 | 6.10917 | 82° | 60km/h | 1426m | -4.9m/s | 9°C | 82% | 858hPa | 2.7V | 07:44:18 | 03:30:53 | 00:00:00 | i |
| BIOWL1-15 | 2026-08-31 14:01:27 | 51.08376 | 6.10891 | 78° | 73km/h | 1430m | -4.9m/s | 8.9°C | 82.5% | 857.5hPa | 2.7V | 07:44:18 | 03:30:52 | 00:00:00 | i |
| BIOWL1-15 | 2026-08-31 14:01:25 | 51.08373 | 6.10860 | 85° | 84km/h | 1435m | -4.7m/s | 8.9°C | 82.2% | 857hPa | 2.7V | 07:44:18 | 03:30:51 | 00:00:00 | i |
| DM0DOS-11 | 2026-08-31 14:01:24 | 51.08379 | 6.10917 | 82° | 60km/h | 1426m | -4.9m/s | 9°C | 77.7% | 858hPa | 2.7V | 07:44:13 | 03:30:53 | 00:00:00 | i |
| DM0DOS-11 | 2026-08-31 14:01:24 | 51.08373 | 6.10860 | 84° | 84km/h | 1435m | -4.7m/s | 8.9°C | 77.8% | 857hPa | 2.7V | 07:44:15 | 03:30:51 | 00:00:00 | i |
| BIOWL1-15 | 2026-08-31 14:01:19 | 51.08381 | 6.10741 | 89° | 60km/h | 1454m | -4.3m/s | 8.9°C | 79.9% | 855hPa | 2.7V | 07:45:09 | 03:30:47 | 00:00:00 | i |
| DM0DOS-11 | 2026-08-31 14:01:18 | 51.08377 | 6.10683 | 85° | 82km/h | 1463m | -4.6m/s | 9°C | 74% | 854.1hPa | 2.7V | 07:44:21 | 03:30:45 | 00:00:00 | i |
| DM0DOS-11 | 2026-08-31 14:01:18 | 51.08380 | 6.10617 | 101° | 77km/h | 1472m | -4.3m/s | 9.1°C | 72.8% | 853.2hPa | 2.7V | 07:44:23 | 03:30:43 | 00:00:00 | i |
| BIOWL1-15 | 2026-08-31 14:01:15 | 51.08377 | 6.10650 | 94° | 86km/h | 1468m | -4.5m/s | 9.2°C | 77.7% | 853.6hPa | 2.7V | 07:45:09 | 03:30:44 | 00:00:00 | i |
| BIOWL1-15 | 2026-08-31 14:01:15 | 51.08380 | 6.10617 | 101° | 77km/h | 1472m | -4.4m/s | 9.1°C | 78.6% | 853.2hPa | 2.7V | 07:45:09 | 03:30:43 | 00:00:00 | i |
| DM0DOS-11 | 2026-08-31 14:01:12 | 51.08380 | 6.10507 | 85° | 86km/h | 1489m | -4.3m/s | 9°C | 70.3% | 851.4hPa | 2.7V | 07:44:27 | 03:30:39 | 00:00:00 | i |
| DM0DOS-11 | 2026-08-31 14:01:12 | 51.08382 | 6.10440 | 100° | 78km/h | 1498m | -4.4m/s | 9°C | 68.5% | 850.4hPa | 2.7V | 07:44:29 | 03:30:37 | 00:00:00 | i |
| BIOWL1-15 | 2026-08-31 14:01:11 | 51.08384 | 6.10565 | 88° | 60km/h | 1481m | -4.5m/s | 9.1°C | 76.3% | 852.2hPa | 2.7V | 07:45:09 | 03:30:41 | 00:00:00 | i |
| BIOWL1-15 | 2026-08-31 14:01:10 | 51.08382 | 6.10538 | 81° | 71km/h | 1485m | -4.3m/s | 9°C | 78.3% | 851.8hPa | 2.7V | 07:45:09 | 03:30:40 | 00:00:00 | i |
| BIOWL1-15 | 2026-08-31 14:01:08 | 51.08385 | 6.10411 | 99° | 66km/h | 1503m | -4.4m/s | 9°C | 74.6% | 849.9hPa | 2.7V | 07:45:09 | 03:30:36 | 00:00:00 | i |
| DO1YAY-16 | 2026-08-31 14:01:08 | 51.08382 | 6.10440 | 100° | 77km/h | 1498m | -4.4m/s | 9.0°C | 68.8% | 850.4hPa | 2.7V | 00:00:00 | 00:00:00 | 00:00:00 | i |
| DM0DOS-11 | 2026-08-31 14:01:07 | 51.08382 | 6.10293 | 94° | 86km/h | 1520m | -3.9m/s | 8.9°C | 68% | 848.3hPa | 2.7V | 07:44:34 | 03:30:32 | 00:00:00 | i |
| BIOWL1-15 | 2026-08-31 14:01:04 | 51.08384 | 6.10359 | 80° | 73km/h | 1512m | -4.6m/s | 9°C | 73.9% | 849.1hPa | 2.7V | 07:45:09 | 03:30:34 | 00:00:00 | i |
| BIOWL1-15 | 2026-08-31 14:01:03 | 51.08382 | 6.10327 | 85° | 84km/h | 1516m | -4.2m/s | 8.9°C | 73.2% | 848.7hPa | 2.7V | 07:45:09 | 03:30:33 | 00:00:00 | i |
| DM0DOS-11 | 2026-08-31 14:01:01 | 51.08387 | 6.10181 | 80° | 73km/h | 1535m | -3.1m/s | 8.8°C | 68.2% | 846.6hPa | 2.7V | 07:44:38 | 03:30:28 | 00:00:00 | |
| BIOWL1-15 | 2026-08-31 14:01:01 | 51.08384 | 6.10261 | 102° | 77km/h | 1524m | -3.5m/s | 8.8°C | 73% | 847.8hPa | 2.7V | 07:45:09 | 03:30:31 | 00:00:00 | |
| BIOWL1-15 | 2026-08-31 14:01:00 | 51.08388 | 6.10234 | 99° | 64km/h | 1527m | -4.1m/s | 8.7°C | 76.6% | 847.5hPa | 2.7V | 07:45:09 | 03:30:30 | 00:00:00 | i |
| BIOWL1-15 | 2026-08-31 14:00:58 | 51.08387 | 6.10181 | 81° | 75km/h | 1535m | -3.2m/s | 8.8°C | 72.8% | 846.6hPa | 2.7V | 07:45:09 | 03:30:28 | 00:00:00 | |
| BIOWL1-15 | 2026-08-31 14:00:56 | 51.08383 | 6.10116 | 90° | 84km/h | 1543m | -4.3m/s | 8.6°C | 74.8% | 846hPa | 2.7V | 07:45:09 | 03:30:26 | 00:00:00 | i |
| DB0UT-7 | 2026-08-31 14:00:56 | 51.08383 | 6.10116 | 90° | 75km/h | 1543m | -4.2m/s | 8.5°C | 70.4% | 846.0hPa | 2.7V | 00:00:00 | 00:00:00 | 00:00:00 | i |
| DM0DOS-11 | 2026-08-31 14:00:55 | 51.08385 | 6.10056 | 96° | 64km/h | 1550m | -3.9m/s | 8.5°C | 74.3% | 845.2hPa | 2.7V | 07:44:42 | 03:30:24 | 00:00:00 | i |
| DM0DOS-11 | 2026-08-31 14:00:55 | 51.08389 | 6.10007 | 90° | 60km/h | 1559m | -4.8m/s | 8.5°C | 69.2% | 844.3hPa | 2.7V | 07:44:44 | 03:30:22 | 00:00:00 | i |
| BIOWL1-15 | 2026-08-31 14:00:55 | 51.08384 | 6.10084 | 95° | 75km/h | 1546m | -3.2m/s | 8.5°C | 79.6% | 845.5hPa | 2.7V | 07:45:09 | 03:30:25 | 00:00:00 | i |
| BIOWL1-15 | 2026-08-31 14:00:54 | 51.08386 | 6.10056 | 97° | 64km/h | 1550m | -3.9m/s | 8.5°C | 80% | 845.2hPa | 2.7V | 07:45:09 | 03:30:24 | 00:00:00 | i |
| BIOWL1-15 | 2026-08-31 14:00:52 | 51.08388 | 6.10007 | 90° | 60km/h | 1559m | -4.8m/s | 8.5°C | 75.8% | 844.3hPa | 2.7V | 07:45:09 | 03:30:22 | 00:00:00 | i |
| BIOWL1-15 | 2026-08-31 14:00:50 | 51.08385 | 6.09953 | 83° | 78km/h | 1568m | -4.2m/s | 8.5°C | 75.9% | 843.4hPa | 2.6V | 07:45:09 | 03:30:20 | 00:00:00 | i |
| BIOWL1-15 | 2026-08-31 14:00:49 | 51.08383 | 6.09920 | 87° | 86km/h | 1572m | -4.6m/s | 8.5°C | 76.6% | 843hPa | 2.7V | 07:45:09 | 03:30:19 | 00:00:00 | i |
| DM0DOS-11 | 2026-08-31 14:00:49 | 51.08388 | 6.09820 | 99° | 77km/h | 1588m | -5.3m/s | 8.2°C | 71.4% | 841.2hPa | 2.7V | 07:44:50 | 03:30:16 | 00:00:00 | i |
| BIOWL1-15 | 2026-08-31 14:00:48 | 51.08390 | 6.09792 | 96° | 66km/h | 1593m | -4.9m/s | 8.2°C | 77.2% | 840.7hPa | 2.7V | 07:45:09 | 03:30:15 | 00:00:00 | i |
| BIOWL1-15 | 2026-08-31 14:00:44 | 51.08390 | 6.09766 | 85° | 64km/h | 1598m | -4.4m/s | 8°C | 79.3% | 840.1hPa | 2.7V | 07:45:09 | 03:30:14 | 00:00:00 | i |
| DM0DOS-11 | 2026-08-31 14:00:43 | 51.08385 | 6.09709 | 80° | 78km/h | 1608m | -5.1m/s | 8°C | 75.5% | 839.3hPa | 2.7V | 07:44:54 | 03:30:12 | 00:00:00 | i |
| DM0DOS-11 | 2026-08-31 14:00:43 | 51.08384 | 6.09645 | 97° | 78km/h | 1617m | -4.7m/s | 8.1°C | 70.3% | 838.1hPa | 2.7V | 07:44:56 | 03:30:10 | 00:00:00 | i |
| DM0DOS-11 | 2026-08-31 14:00:43 | 51.08389 | 6.09523 | 81° | 77km/h | 1637m | -5.2m/s | 8°C | 69.9% | 836.4hPa | 2.6V | 07:45:00 | 03:30:06 | 00:00:00 | i |
| BIOWL1-15 | 2026-08-31 14:00:43 | 51.08388 | 6.09739 | 80° | 71km/h | 1603m | -4.7m/s | 8°C | 76.5% | 839.7hPa | 2.6V | 07:45:09 | 03:30:13 | 00:00:00 | i |
| BIOWL1-15 | 2026-08-31 14:00:41 | 51.08384 | 6.09645 | 97° | 78km/h | 1617m | -4.7m/s | 8.1°C | 75.2% | 838.1hPa | 2.7V | 07:45:09 | 03:30:10 | 00:00:00 | i |
| BIOWL1-15 | 2026-08-31 14:00:41 | 51.08387 | 6.09614 | 100° | 77km/h | 1622m | -5.5m/s | 8°C | 74.2% | 837.8hPa | 2.7V | 07:45:09 | 03:30:09 | 00:00:00 | i |
| BIOWL9-15 | 2026-08-31 14:00:40 | 51.08387 | 6.09614 | 99° | 75km/h | 1622m | -5.5m/s | 8.0°C | 70.2% | 837.8hPa | 2.7V | 00:00:00 | 00:00:00 | 00:00:00 | |
| DM0DOS-11 | 2026-08-31 14:00:37 | 51.08386 | 6.09493 | 77° | 77km/h | 1642m | -5m/s | 7.9°C | 70.2% | 835.7hPa | 2.7V | 07:45:01 | 03:30:05 | 00:00:00 | i |
| DM0DOS-11 | 2026-08-31 14:00:37 | 51.08378 | 6.09431 | 80° | 78km/h | 1652m | -5.2m/s | 8°C | 65.4% | 834.8hPa | 2.7V | 07:45:03 | 03:30:03 | 00:00:00 | i |
| DM0DOS-11 | 2026-08-31 14:00:37 | 51.08376 | 6.09366 | 94° | 80km/h | 1661m | -3.8m/s | 8°C | 64.2% | 833.9hPa | 2.7V | 07:45:05 | 03:30:01 | 00:00:00 | i |
| BIOWL1-15 | 2026-08-31 14:00:37 | 51.08391 | 6.09553 | 89° | 75km/h | 1633m | -4.1m/s | 8.1°C | 73.4% | 836.5hPa | 2.6V | 07:45:09 | 03:30:07 | 00:00:00 | i |
| BIOWL1-15 | 2026-08-31 14:00:36 | 51.08386 | 6.09493 | 78° | 77km/h | 1642m | -5m/s | 7.9°C | 74.7% | 835.7hPa | 2.7V | 07:45:09 | 03:30:05 | 00:00:00 | i |
| BIOWL1-15 | 2026-08-31 14:00:34 | 51.08382 | 6.09462 | 77° | 78km/h | 1647m | -5.1m/s | 7.9°C | 74.2% | 835.5hPa | 2.7V | 07:45:09 | 03:30:04 | 00:00:00 | i |
| BIOWL1-15 | 2026-08-31 14:00:32 | 51.08375 | 6.09399 | 87° | 82km/h | 1657m | -4.3m/s | 8°C | 68.5% | 834.3hPa | 2.7V | 07:45:09 | 03:30:02 | 00:00:00 | i |
| BIOWL1-15 | 2026-08-31 14:00:31 | 51.08376 | 6.09366 | 94° | 80km/h | 1661m | -3.8m/s | 8°C | 69.6% | 833.9hPa | 2.7V | 07:45:09 | 03:30:01 | 00:00:00 | i |
| DM0DOS-11 | 2026-08-31 14:00:30 | 51.08379 | 6.09304 | 94° | 75km/h | 1671m | -5.2m/s | 7.8°C | 65.6% | 832.9hPa | 2.6V | 07:45:07 | 03:29:59 | 00:00:00 | i |
| DM0DOS-11 | 2026-08-31 14:00:30 | 51.08378 | 6.09248 | 79° | 69km/h | 1681m | -4.5m/s | 7.8°C | 65% | 832hPa | 2.6V | 07:45:09 | 03:29:57 | 00:00:00 | i |
| BIOWL1-15 | 2026-08-31 14:00:29 | 51.08379 | 6.09304 | 94° | 75km/h | 1671m | -5.2m/s | 7.8°C | 70.6% | 832.9hPa | 2.6V | 07:45:09 | 03:29:59 | 00:00:00 | i |
| BIOWL1-15 | 2026-08-31 14:00:28 | 51.08380 | 6.09276 | 88° | 68km/h | 1676m | -4.7m/s | 7.8°C | 74.5% | 832.4hPa | 2.7V | 07:45:09 | 03:29:58 | 00:00:00 | i |
| BIOWL1-15 | 2026-08-31 14:00:27 | 51.08378 | 6.09248 | 80° | 69km/h | 1681m | -4.5m/s | 7.8°C | 70.2% | 832hPa | 2.6V | 07:45:09 | 03:29:57 | 00:00:00 | i |
| BIOWL1-15 | 2026-08-31 14:00:25 | 51.08374 | 6.09065 | 85° | 64km/h | 1711m | -5.1m/s | 7.7°C | 69.6% | 828.9hPa | 2.7V | 07:46:00 | 03:29:51 | 00:00:00 | i |
| BIOWL1-15 | 2026-08-31 14:00:24 | 51.08372 | 6.09039 | 79° | 68km/h | 1716m | -5m/s | 7.7°C | 69.7% | 828.5hPa | 2.7V | 07:46:00 | 03:29:50 | 00:00:00 | i |
| WPPR-10 | 2026-08-31 14:00:20 | 51.08368 | 6.09011 | 76° | 73km/h | 1721m | -5.3m/s | 7.7°C | 64.3% | 828.0hPa | 2.7V | 00:00:00 | 00:00:00 | 00:00:00 | |
| DM0DOS-11 | 2026-08-31 14:00:19 | 51.08361 | 6.08947 | 85° | 86km/h | 1732m | -5.3m/s | 7.6°C | 64% | 826.9hPa | 2.7V | 07:45:19 | 03:29:47 | 00:00:00 | i |
| DM0DOS-11 | 2026-08-31 14:00:19 | 51.08366 | 6.08850 | 98° | 69km/h | 1747m | -5.7m/s | 7.4°C | 64.2% | 825.3hPa | 2.7V | 07:45:22 | 03:29:44 | 00:00:00 | i |
| BIOWL1-15 | 2026-08-31 14:00:18 | 51.08364 | 6.08980 | 80° | 80km/h | 1726m | -6.1m/s | 7.6°C | 69.7% | 827.4hPa | 2.7V | 07:46:00 | 03:29:48 | 00:00:00 | i |
| BIOWL1-15 | 2026-08-31 14:00:16 | 51.08358 | 6.08706 | 88° | 88km/h | 1775m | -5.2m/s | 7.3°C | 70.8% | 822.4hPa | 2.6V | 07:46:00 | 03:29:39 | 00:00:00 | i |
| BIOWL1-15 | 2026-08-31 14:00:15 | 51.08359 | 6.08672 | 94° | 84km/h | 1780m | -5.3m/s | 7.3°C | 70.8% | 821.9hPa | 2.7V | 07:46:00 | 03:29:38 | 00:00:00 | |
| DM0DOS-11 | 2026-08-31 14:00:13 | 51.08367 | 6.08798 | 80° | 62km/h | 1758m | -5.3m/s | 7.3°C | 64.6% | 824.2hPa | 2.7V | 07:45:24 | 03:29:42 | 00:00:00 | i |
| DM0DOS-11 | 2026-08-31 14:00:13 | 51.08360 | 6.08741 | 81° | 84km/h | 1769m | -5.6m/s | 7.3°C | 63.9% | 823hPa | 2.7V | 07:45:26 | 03:29:40 | 00:00:00 | i |
| BIOWL1-15 | 2026-08-31 14:00:13 | 51.08361 | 6.08640 | 97° | 75km/h | 1786m | -5.4m/s | 7.2°C | 70.3% | 821.4hPa | 2.7V | 07:46:00 | 03:29:37 | 00:00:00 | i |
| BIOWL1-15 | 2026-08-31 14:00:10 | 51.08363 | 6.08611 | 95° | 68km/h | 1791m | -5.3m/s | 7.2°C | 70.7% | 820.9hPa | 2.7V | 07:46:00 | 03:29:36 | 00:00:00 | i |
| BIOWL9-15 | 2026-08-31 14:00:09 | 51.08358 | 6.08706 | 88° | 88km/h | 1775m | -5.2m/s | 7.3°C | 64.1% | 822.4hPa | 2.7V | 00:00:00 | 00:00:00 | 00:00:00 | |
| DM0DOS-11 | 2026-08-31 14:00:08 | 51.08363 | 6.08611 | 95° | 68km/h | 1791m | -5.3m/s | 7.2°C | 64.3% | 820.9hPa | 2.7V | 07:45:30 | 03:29:36 | 00:00:00 | i |
| BIOWL1-15 | 2026-08-31 14:00:05 | 51.08363 | 6.08585 | 89° | 64km/h | 1796m | -5.6m/s | 7.2°C | 70.6% | 820.4hPa | 2.7V | 07:46:00 | 03:29:35 | 00:00:00 | i |
| BIOWL1-15 | 2026-08-31 14:00:04 | 51.08359 | 6.08531 | 79° | 77km/h | 1807m | -5.6m/s | 7.1°C | 69.1% | 819.1hPa | 2.7V | 07:46:00 | 03:29:33 | 00:00:00 | i |
| BIOWL1-15 | 2026-08-31 14:00:03 | 51.08356 | 6.08499 | 84° | 84km/h | 1813m | -4.7m/s | 7.1°C | 67.6% | 818.6hPa | 2.6V | 07:46:00 | 03:29:32 | 00:00:00 | i |
| DM0DOS-11 | 2026-08-31 14:00:03 | 51.08356 | 6.08499 | 83° | 84km/h | 1813m | -4.7m/s | 7.1°C | 63.1% | 818.6hPa | 2.6V | 07:45:34 | 03:29:32 | 00:00:00 | i |
| DM0DOS-11 | 2026-08-31 14:00:03 | 51.08355 | 6.08428 | 94° | 88km/h | 1822m | -5.5m/s | 7.1°C | 64% | 817.5hPa | 2.7V | 07:45:36 | 03:29:30 | 00:00:00 | i |
| BIOWL1-15 | 2026-08-31 14:00:00 | 51.08343 | 6.08214 | 85° | 84km/h | 1860m | -4.8m/s | 6.8°C | 70.9% | 814hPa | 2.7V | 07:46:00 | 03:29:23 | 00:00:00 | i |
| BIOWL1-15 | 2026-08-31 13:59:58 | 51.08343 | 6.08180 | 93° | 84km/h | 1864m | -4.2m/s | 6.7°C | 71.8% | 813.5hPa | 2.6V | 07:46:00 | 03:29:22 | 00:00:00 | i |
| DB0UT-7 | 2026-08-31 13:59:56 | 51.08353 | 6.08303 | 80° | 73km/h | 1844m | -5.5m/s | 6.8°C | 64.8% | 815.6hPa | 2.6V | 00:00:00 | 00:00:00 | 00:00:00 | |
| BIOWL7-15 | 2026-08-31 13:59:55 | 51.08353 | 6.08303 | 81° | 68km/h | 1844m | -5.5m/s | 6.9°C | 64.9% | 815.7hPa | 2.6V | 00:00:00 | 00:00:00 | 00:00:00 | |
| DM0DOS-11 | 2026-08-31 13:59:53 | 51.08347 | 6.08117 | 98° | 75km/h | 1874m | -5.7m/s | 6.6°C | 65.8% | 812.5hPa | 2.6V | 07:45:46 | 03:29:20 | 00:00:00 | i |
| DM0DOS-11 | 2026-08-31 13:59:53 | 51.08350 | 6.08062 | 89° | 62km/h | 1885m | -5.3m/s | 6.5°C | 66.7% | 811.5hPa | 2.6V | 07:45:48 | 03:29:18 | 00:00:00 | i |
| BIOWL1-15 | 2026-08-31 13:59:53 | 51.08344 | 6.08147 | 97° | 80km/h | 1869m | -5m/s | 6.7°C | 72.2% | 813.1hPa | 2.6V | 07:46:00 | 03:29:21 | 00:00:00 | i |
| BIOWL1-15 | 2026-08-31 13:59:49 | 51.08350 | 6.08062 | 89° | 62km/h | 1886m | -5.3m/s | 6.5°C | 71.9% | 811.5hPa | 2.6V | 07:46:00 | 03:29:18 | 00:00:00 | i |
| BIOWL1-15 | 2026-08-31 13:59:49 | 51.08349 | 6.08037 | 79° | 64km/h | 1891m | -5m/s | 6.5°C | 72.7% | 810.9hPa | 2.6V | 07:46:00 | 03:29:17 | 00:00:00 | i |
| WPPR-10 | 2026-08-31 13:59:48 | 51.08350 | 6.08062 | 89° | 60km/h | 1885m | -5.3m/s | 6.5°C | 66.8% | 811.5hPa | 2.6V | 00:00:00 | 00:00:00 | 00:00:00 | |
| DM0DOS-11 | 2026-08-31 13:59:47 | 51.08338 | 6.07945 | 86° | 84km/h | 1907m | -5.2m/s | 6.4°C | 67.8% | 809.4hPa | 2.6V | 07:45:52 | 03:29:14 | 00:00:00 | i |
| BIOWL1-15 | 2026-08-31 13:59:45 | 51.08340 | 6.07978 | 80° | 82km/h | 1901m | -5.6m/s | 6.4°C | 72.7% | 809.9hPa | 2.6V | 07:46:00 | 03:29:15 | 00:00:00 | i |
| BIOWL1-15 | 2026-08-31 13:59:43 | 51.08339 | 6.07882 | 96° | 73km/h | 1917m | -5.3m/s | 6.3°C | 73.4% | 808.4hPa | 2.6V | 07:46:00 | 03:29:12 | 00:00:00 | i |
| BIOWL1-15 | 2026-08-31 13:59:43 | 51.08341 | 6.07854 | 95° | 66km/h | 1922m | -5.6m/s | 6.3°C | 73% | 807.8hPa | 2.7V | 07:46:00 | 03:29:11 | 00:00:00 | i |
| DM0DOS-11 | 2026-08-31 13:59:41 | 51.08341 | 6.07828 | 88° | 60km/h | 1927m | -5.3m/s | 6.3°C | 66.4% | 807.3hPa | 2.7V | 07:45:56 | 03:29:10 | 00:00:00 | i |
| DM0DOS-11 | 2026-08-31 13:59:41 | 51.08335 | 6.07778 | 73° | 71km/h | 1937m | -4.7m/s | 6.2°C | 67.5% | 806.3hPa | 2.6V | 07:45:58 | 03:29:08 | 00:00:00 | i |
| DM0DOS-11 | 2026-08-31 13:59:41 | 51.08325 | 6.07717 | 76° | 84km/h | 1947m | -5.6m/s | 6.2°C | 66.4% | 805.4hPa | 2.6V | 07:46:00 | 03:29:06 | 00:00:00 | i |
| BIOWL1-15 | 2026-08-31 13:59:40 | 51.08341 | 6.07828 | 89° | 60km/h | 1927m | -5.3m/s | 6.3°C | 71.9% | 807.3hPa | 2.7V | 07:46:00 | 03:29:10 | 00:00:00 | i |
| BIOWL1-15 | 2026-08-31 13:59:38 | 51.08336 | 6.07778 | 73° | 71km/h | 1937m | -4.7m/s | 6.2°C | 73.3% | 806.3hPa | 2.6V | 07:46:00 | 03:29:08 | 00:00:00 | i |
| BIOWL1-15 | 2026-08-31 13:59:36 | 51.08325 | 6.07717 | 77° | 84km/h | 1947m | -5.6m/s | 6.1°C | 72.4% | 805.4hPa | 2.6V | 07:46:00 | 03:29:06 | 00:00:00 | i |
| DB0UT-7 | 2026-08-31 13:59:36 | 51.08325 | 6.07717 | 77° | 75km/h | 1947m | -5.6m/s | 6.1°C | 66.4% | 805.4hPa | 2.6V | 00:00:00 | 00:00:00 | 00:00:00 | i |
| DM0DOS-11 | 2026-08-31 13:59:35 | 51.08320 | 6.07650 | 90° | 82km/h | 1958m | -4.9m/s | 6.1°C | 64.5% | 804.3hPa | 2.6V | 07:46:02 | 03:29:04 | 00:00:00 | i |
| DM0DOS-11 | 2026-08-31 13:59:35 | 51.08316 | 6.07545 | 73° | 66km/h | 1978m | -4.8m/s | 5.9°C | 63.3% | 802.4hPa | 2.6V | 07:46:06 | 03:29:00 | 00:00:00 | i |
| BIOWL1-15 | 2026-08-31 13:59:35 | 51.08320 | 6.07569 | 80° | 58km/h | 1973m | -5.2m/s | 6°C | 69.4% | 802.8hPa | 2.6V | 07:46:51 | 03:29:01 | 00:00:00 | i |
| BIOWL1-15 | 2026-08-31 13:59:34 | 51.08317 | 6.07545 | 73° | 66km/h | 1978m | -4.8m/s | 5.9°C | 69.4% | 802.4hPa | 2.6V | 07:46:51 | 03:29:00 | 00:00:00 | i |
| BIOWL1-15 | 2026-08-31 13:59:28 | 51.08300 | 6.07422 | 89° | 80km/h | 1998m | -5.1m/s | 5.8°C | 71% | 800.3hPa | 2.6V | 07:46:51 | 03:28:56 | 00:00:00 | i |
| DM0DOS-11 | 2026-08-31 13:59:28 | 51.08306 | 6.07487 | 76° | 82km/h | 1988m | -5.5m/s | 5.9°C | 63.7% | 801.5hPa | 2.6V | 07:46:08 | 03:28:58 | 00:00:00 | i |
| DM0DOS-11 | 2026-08-31 13:59:28 | 51.08300 | 6.07422 | 88° | 80km/h | 1998m | -5.1m/s | 5.8°C | 64% | 800.3hPa | 2.6V | 07:46:10 | 03:28:56 | 00:00:00 | i |
| DM0DOS-11 | 2026-08-31 13:59:28 | 51.08298 | 6.07338 | 78° | 62km/h | 2013m | -4.5m/s | 5.6°C | 64.6% | 798.8hPa | 2.6V | 07:46:13 | 03:28:53 | 00:00:00 | i |
| DB0UT-7 | 2026-08-31 13:59:26 | 51.08300 | 6.07421 | 89° | 71km/h | 1998m | -5.0m/s | 5.7°C | 64.0% | 800.3hPa | 2.6V | 00:00:00 | 03:28:56 | 00:00:00 | |
| DM0DOS-11 | 2026-08-31 13:59:23 | 51.08276 | 6.07201 | 86° | 84km/h | 2036m | -4.5m/s | 5.4°C | 65.2% | 796.6hPa | 2.7V | 07:46:18 | 03:28:48 | 00:00:00 | i |
| BIOWL1-15 | 2026-08-31 13:59:18 | 51.08274 | 6.07138 | 86° | 73km/h | 2046m | -5.3m/s | 5.3°C | 71% | 795.5hPa | 2.6V | 07:46:51 | 03:28:46 | 00:00:00 | i |
| WPPR-10 | 2026-08-31 13:59:17 | 51.08275 | 6.07169 | 88° | 78km/h | 2041m | -5.8m/s | 5.3°C | 65.7% | 795.8hPa | 2.6V | 00:00:00 | 00:00:00 | 00:00:00 | |
| DM0DOS-11 | 2026-08-31 13:59:13 | 51.08262 | 6.07059 | 72° | 69km/h | 2061m | -5.3m/s | 5.2°C | 65.9% | 794.1hPa | 2.6V | 07:46:23 | 03:28:43 | 00:00:00 | i |
| DM0DOS-11 | 2026-08-31 13:59:13 | 51.08251 | 6.06910 | 88° | 60km/h | 2085m | -5m/s | 4.9°C | 67% | 791.7hPa | 2.6V | 07:46:28 | 03:28:38 | 00:00:00 | i |
| DM0DOS-11 | 2026-08-31 13:59:07 | 51.08239 | 6.06772 | 79° | 84km/h | 2111m | -5.7m/s | 4.7°C | 67.9% | 789.2hPa | 2.6V | 07:46:33 | 03:28:33 | 00:00:00 | i |
| BIOWL1-15 | 2026-08-31 13:59:06 | 51.08249 | 6.06862 | 84° | 62km/h | 2097m | -5.6m/s | 4.9°C | 70% | 790.6hPa | 2.6V | 07:46:51 | 03:28:36 | 00:00:00 | i |
| DB0UT-7 | 2026-08-31 13:59:06 | 51.08249 | 6.06862 | 84° | 73km/h | 2097m | -5.5m/s | 4.8°C | 67.3% | 790.6hPa | 2.6V | 00:00:00 | 00:00:00 | 00:00:00 | i |
| BIOWL7-15 | 2026-08-31 13:59:05 | 51.08249 | 6.06862 | 85° | 62km/h | 2097m | -5.6m/s | 4.9°C | 67.4% | 790.6hPa | 2.6V | 00:00:00 | 00:00:00 | 00:00:00 | |
| DO1YAY-16 | 2026-08-31 13:59:03 | 51.08239 | 6.06772 | 79° | 84km/h | 2111m | -5.7m/s | 4.7°C | 68.0% | 789.2hPa | 2.6V | 00:00:00 | 00:00:00 | 00:00:00 | |
| DM0DOS-11 | 2026-08-31 13:58:58 | 51.08215 | 6.06476 | 93° | 73km/h | 2163m | -4.8m/s | 4.2°C | 71% | 784.2hPa | 2.6V | 07:46:43 | 03:28:23 | 00:00:00 | i |
| BIOWL1-15 | 2026-08-31 13:58:55 | 51.08217 | 6.06541 | 81° | 84km/h | 2152m | -5.4m/s | 4.3°C | 78.2% | 785.3hPa | 2.6V | 07:46:51 | 03:28:25 | 00:00:00 | i |
| DM0DOS-11 | 2026-08-31 13:58:53 | 51.08206 | 6.06344 | 77° | 82km/h | 2189m | -5.5m/s | 4°C | 73.2% | 781.5hPa | 2.6V | 07:46:48 | 03:28:18 | 00:00:00 | i |
| DM0DOS-11 | 2026-08-31 13:58:48 | 51.08202 | 6.06185 | 89° | 68km/h | 2216m | -5.6m/s | 3.9°C | 74.2% | 778.9hPa | 2.6V | 07:46:53 | 03:28:13 | 00:00:00 | i |
| WPPR-10 | 2026-08-31 13:58:46 | 51.08200 | 6.06276 | 87° | 84km/h | 2200m | -5.3m/s | 4.0°C | 73.8% | 780.6hPa | 2.6V | 00:00:00 | 00:00:00 | 00:00:00 | |
| BIOWL1-15 | 2026-08-31 13:58:44 | 51.08200 | 6.06157 | 82° | 69km/h | 2221m | -4.7m/s | 3.9°C | 79.1% | 778.4hPa | 2.6V | 07:47:42 | 03:28:12 | 00:00:00 | i |
| DM0DOS-11 | 2026-08-31 13:58:43 | 51.08183 | 6.06033 | 74° | 73km/h | 2241m | -5.2m/s | 3.6°C | 75.3% | 776.6hPa | 2.6V | 07:46:58 | 03:28:08 | 00:00:00 | i |
| DM0DOS-11 | 2026-08-31 13:58:38 | 51.08167 | 6.05898 | 81° | 84km/h | 2266m | -5.1m/s | 3.4°C | 76.3% | 774.3hPa | 2.6V | 07:47:03 | 03:28:03 | 00:00:00 | i |
| BIOWL9-15 | 2026-08-31 13:58:36 | 51.08173 | 6.05957 | 82° | 62km/h | 2256m | -5.7m/s | 3.5°C | 75.5% | 775.2hPa | 2.6V | 00:00:00 | 00:00:00 | 00:00:00 | |
| DD1CC3-15 | 2026-08-31 13:58:34 | 51.08173 | 6.05957 | 83° | 64km/h | 2257m | -5.7m/s | 3.5°C | 75.4% | 775.2hPa | 2.6V | 00:00:00 | 00:00:00 | 00:00:00 | |
| DM0DOS-11 | 2026-08-31 13:58:33 | 51.08156 | 6.05741 | 76° | 62km/h | 2293m | -4.8m/s | 3.2°C | 76.2% | 771.6hPa | 2.6V | 07:47:08 | 03:27:58 | 00:00:00 | i |
| BIOWL1-15 | 2026-08-31 13:58:31 | 51.08159 | 6.05767 | 87° | 68km/h | 2288m | -5m/s | 3.2°C | 81.4% | 772.2hPa | 2.6V | 07:47:42 | 03:27:59 | 00:00:00 | i |
| DM0DOS-11 | 2026-08-31 13:58:28 | 51.08135 | 6.05598 | 88° | 73km/h | 2319m | -5.2m/s | 3.1°C | 74.5% | 769.3hPa | 2.6V | 07:47:13 | 03:27:53 | 00:00:00 | i |
| DM0DOS-11 | 2026-08-31 13:58:23 | 51.08113 | 6.05413 | 68° | 71km/h | 2350m | -5.6m/s | 2.8°C | 74.3% | 766.2hPa | 2.6V | 07:47:19 | 03:27:47 | 00:00:00 | i |
| BIOWL1-15 | 2026-08-31 13:58:20 | 51.08130 | 6.05504 | 79° | 84km/h | 2335m | -5.2m/s | 3°C | 78.9% | 767.7hPa | 2.6V | 07:47:42 | 03:27:50 | 00:00:00 | i |
| DM0DOS-11 | 2026-08-31 13:58:17 | 51.08097 | 6.05281 | 85° | 84km/h | 2379m | -5.4m/s | 2.5°C | 75.3% | 763.6hPa | 2.6V | 07:47:24 | 03:27:42 | 00:00:00 | i |
| BIOWL1-15 | 2026-08-31 13:58:17 | 51.08088 | 6.05216 | 69° | 77km/h | 2389m | -5.3m/s | 2.5°C | 81% | 762.6hPa | 2.6V | 07:47:42 | 03:27:40 | 00:00:00 | i |
| BIOWL7-15 | 2026-08-31 13:58:16 | 51.08113 | 6.05413 | 69° | 71km/h | 2350m | -5.6m/s | 2.8°C | 74.3% | 766.2hPa | 2.6V | 00:00:00 | 00:00:00 | 00:00:00 | |
| WPPR-10 | 2026-08-31 13:58:15 | 51.08102 | 6.05364 | 75° | 60km/h | 2362m | -6.1m/s | 2.7°C | 74.5% | 765.2hPa | 2.6V | 00:00:00 | 00:00:00 | 00:00:00 | |
| DM0DOS-11 | 2026-08-31 13:58:07 | 51.08075 | 6.05079 | 83° | 84km/h | 2416m | -5.6m/s | 2.2°C | 76% | 760.1hPa | 2.6V | 07:47:31 | 03:27:35 | 00:00:00 | |
| DB0UT-7 | 2026-08-31 13:58:06 | 51.08076 | 6.05111 | 91° | 77km/h | 2411m | -5.5m/s | 2.2°C | 75.8% | 760.6hPa | 2.6V | 07:47:00 | 03:27:36 | 00:00:00 | |
| BIOWL9-15 | 2026-08-31 13:58:05 | 51.08071 | 6.05046 | 74° | 84km/h | 2422m | -5.3m/s | 2.2°C | 76.6% | 759.5hPa | 2.6V | 00:00:00 | 00:00:00 | 00:00:00 | |
| DM0DOS-11 | 2026-08-31 13:58:02 | 51.08049 | 6.04845 | 79° | 89km/h | 2460m | -5.7m/s | 1.9°C | 81.9% | 756.1hPa | 2.6V | 07:47:39 | 03:27:27 | 00:00:00 | i |
| BIOWL1-15 | 2026-08-31 13:57:59 | 51.08049 | 6.04845 | 80° | 89km/h | 2460m | -5.7m/s | 1.9°C | 86.4% | 756.1hPa | 2.6V | 07:47:42 | 03:27:27 | 00:00:00 | i |
| DD1CC3-15 | 2026-08-31 13:57:58 | 51.08053 | 6.04912 | 89° | 78km/h | 2449m | -5.1m/s | 1.9°C | 79.9% | 757.1hPa | 2.6V | 00:00:00 | 00:00:00 | 00:00:00 | |
| DM0DOS-11 | 2026-08-31 13:57:52 | 51.08005 | 6.04535 | 74° | 89km/h | 2514m | -6m/s | 1.7°C | 83% | 751.1hPa | 2.6V | 07:47:49 | 03:27:17 | 00:00:00 | i |
| BIOWL1-15 | 2026-08-31 13:57:48 | 51.08010 | 6.04571 | 79° | 91km/h | 2508m | -5.9m/s | 1.7°C | 88.4% | 751.6hPa | 2.6V | 07:48:33 | 03:27:18 | 00:00:00 | i |
| DM0DOS-11 | 2026-08-31 13:57:47 | 51.07988 | 6.04391 | 87° | 86km/h | 2539m | -5.3m/s | 1.7°C | 82.5% | 748.5hPa | 2.6V | 07:47:54 | 03:27:12 | 00:00:00 | i |
| WPPR-10 | 2026-08-31 13:57:44 | 51.07989 | 6.04450 | 83° | 64km/h | 2529m | -4.9m/s | 1.7°C | 82.3% | 749.6hPa | 2.6V | 00:00:00 | 00:00:00 | 00:00:00 | |
| DM0DOS-11 | 2026-08-31 13:57:42 | 51.07961 | 6.04206 | 89° | 71km/h | 2570m | -4.9m/s | 1.5°C | 82.5% | 745.7hPa | 2.6V | 07:48:00 | 03:27:06 | 00:00:00 | i |
| BIOWL1-15 | 2026-08-31 13:57:38 | 51.07961 | 6.04206 | 89° | 71km/h | 2570m | -4.9m/s | 1.5°C | 87.2% | 745.7hPa | 2.6V | 07:48:33 | 03:27:06 | 00:00:00 | i |
| DM0DOS-11 | 2026-08-31 13:57:37 | 51.07942 | 6.04046 | 72° | 66km/h | 2595m | -4.8m/s | 1.4°C | 84.7% | 743.4hPa | 2.6V | 07:48:05 | 03:27:01 | 00:00:00 | i |
| BIOWL7-15 | 2026-08-31 13:57:35 | 51.07961 | 6.04206 | 90° | 71km/h | 2570m | -4.9m/s | 1.5°C | 82.4% | 745.7hPa | 2.6V | 00:00:00 | 00:00:00 | 00:00:00 | |
| BIOWL9-15 | 2026-08-31 13:57:34 | 51.07954 | 6.04105 | 74° | 88km/h | 2586m | -5.1m/s | 1.4°C | 83.8% | 744.3hPa | 2.6V | 00:00:00 | 00:00:00 | 00:00:00 | |
| DM0DOS-11 | 2026-08-31 13:57:31 | 51.07931 | 6.03895 | 75° | 89km/h | 2621m | -5.1m/s | 1.2°C | 86.4% | 740.9hPa | 2.6V | 07:48:10 | 03:26:56 | 00:00:00 | i |
| DO1YAY-16 | 2026-08-31 13:57:30 | 51.07938 | 6.04021 | 81° | 62km/h | 2600m | -5.1m/s | 1.3°C | 84.9% | 742.9hPa | 2.6V | 00:00:00 | 00:00:00 | 00:00:00 | |
| DM0DOS-11 | 2026-08-31 13:57:26 | 51.07910 | 6.03749 | 88° | 80km/h | 2647m | -5.3m/s | 1°C | 87% | 738.7hPa | 2.6V | 07:48:15 | 03:26:51 | 00:00:00 | i |
| BIOWL1-15 | 2026-08-31 13:57:25 | 51.07913 | 6.03806 | 78° | 64km/h | 2637m | -5m/s | 1.1°C | 90.9% | 739.6hPa | 2.6V | 07:48:33 | 03:26:53 | 00:00:00 | i |
| DM0DOS-11 | 2026-08-31 13:57:21 | 51.07882 | 6.03567 | 71° | 64km/h | 2679m | -5.6m/s | 0.7°C | 88.2% | 735.9hPa | 2.6V | 07:48:21 | 03:26:45 | 00:00:00 | i |
| DM0DOS-11 | 2026-08-31 13:57:16 | 51.07867 | 6.03415 | 69° | 82km/h | 2704m | -4.9m/s | 0.5°C | 88.9% | 733.5hPa | 2.6V | 07:48:26 | 03:26:40 | 00:00:00 | i |
| BIOWL1-15 | 2026-08-31 13:57:12 | 51.07876 | 6.03483 | 86° | 86km/h | 2694m | -4.9m/s | 0.6°C | 92.1% | 734.4hPa | 2.5V | 07:48:33 | 03:26:42 | 00:00:00 | i |
| DM0DOS-11 | 2026-08-31 13:57:10 | 51.07849 | 6.03273 | 84° | 91km/h | 2729m | -4.8m/s | 0.3°C | 91.8% | 731.2hPa | 2.6V | 07:48:31 | 03:26:35 | 00:00:00 | |
| DB0UT-7 | 2026-08-31 13:57:06 | 51.07851 | 6.03307 | 89° | 78km/h | 2724m | -4.8m/s | 0.3°C | 90.6% | 731.6hPa | 2.6V | 00:00:00 | 00:00:00 | 00:00:00 | |
| DM0DOS-11 | 2026-08-31 13:57:05 | 51.07824 | 6.03086 | 89° | 82km/h | 2760m | -5.3m/s | 0.1°C | 93.3% | 728.4hPa | 2.6V | 07:48:37 | 03:26:29 | 00:00:00 | i |
| BIOWL1-15 | 2026-08-31 13:57:01 | 51.07827 | 6.03144 | 77° | 66km/h | 2750m | -4.8m/s | 0.3°C | 95.5% | 729.3hPa | 2.6V | 07:49:24 | 03:26:31 | 00:00:00 | i |
| DM0DOS-11 | 2026-08-31 13:56:59 | 51.07801 | 6.02930 | 81° | 62km/h | 2786m | -5.5m/s | 0°C | 93.5% | 726hPa | 2.5V | 07:48:42 | 03:26:24 | 00:00:00 | |
| DO1YAY-16 | 2026-08-31 13:56:59 | 51.07824 | 6.03086 | 89° | 82km/h | 2760m | -5.3m/s | 0.1°C | 93.1% | 728.4hPa | 2.6V | 00:00:00 | 00:00:00 | 00:00:00 | |
| DM0DOS-11 | 2026-08-31 13:56:54 | 51.07784 | 6.02772 | 67° | 75km/h | 2813m | -5.3m/s | -0.1°C | 93.6% | 723.5hPa | 2.6V | 07:48:47 | 03:26:19 | 00:00:00 | i |
| BIOWL1-15 | 2026-08-31 13:56:50 | 51.07774 | 6.02695 | 91° | 71km/h | 2829m | -5.6m/s | -0.3°C | 96.9% | 722.1hPa | 2.6V | 07:49:24 | 03:26:16 | 00:00:00 | i |
| DM0DOS-11 | 2026-08-31 13:56:47 | 51.07772 | 6.02628 | 81° | 91km/h | 2840m | -5.6m/s | -0.2°C | 93.4% | 721.1hPa | 2.5V | 07:48:52 | 03:26:14 | 00:00:00 | i |
| DB0UT-7 | 2026-08-31 13:56:46 | 51.07773 | 6.02695 | 91° | 78km/h | 2830m | -5.6m/s | -0.3°C | 94.5% | 722.0hPa | 2.6V | 00:00:00 | 03:26:16 | 00:00:00 | |
| DD1CC3-15 | 2026-08-31 13:56:44 | 51.07773 | 6.02664 | 90° | 84km/h | 2835m | -5.4m/s | -0.3°C | 94.0% | 721.6hPa | 2.6V | 07:49:00 | 00:00:00 | 00:00:00 | |
| DM0DOS-11 | 2026-08-31 13:56:42 | 51.07749 | 6.02412 | 82° | 93km/h | 2876m | -5.4m/s | -0.3°C | 88.4% | 717.9hPa | 2.6V | 07:48:59 | 03:26:07 | 00:00:00 | i |
| BIOWL1-15 | 2026-08-31 13:56:37 | 51.07739 | 6.02344 | 71° | 77km/h | 2886m | -4.7m/s | -0.3°C | 92.6% | 716.9hPa | 2.6V | 07:49:24 | 03:26:05 | 00:00:00 | i |
| DJ2KF-10 | 2026-08-31 13:56:36 | 51.07745 | 6.02376 | 76° | 89km/h | 2882m | -5.2m/s | -0.2°C | 88.4% | 717.2hPa | 2.6V | 00:00:00 | 03:26:06 | 00:00:00 | |
| DM0DOS-11 | 2026-08-31 13:56:32 | 51.07711 | 6.02098 | 78° | 64km/h | 2926m | -5.2m/s | -0.4°C | 85.3% | 713.4hPa | 2.6V | 07:49:09 | 03:25:57 | 00:00:00 | i |
| BIOWL9-15 | 2026-08-31 13:56:31 | 51.07732 | 6.02226 | 85° | 91km/h | 2906m | -5.0m/s | -0.3°C | 85.1% | 715.2hPa | 2.5V | 00:00:00 | 00:00:00 | 00:00:00 | |
| DO1YAY-16 | 2026-08-31 13:56:28 | 51.07716 | 6.02124 | 70° | 71km/h | 2921m | -5.0m/s | -0.4°C | 85.0% | 713.9hPa | 2.5V | 00:00:00 | 00:00:00 | 00:00:00 | |
| DM0DOS-11 | 2026-08-31 13:56:27 | 51.07700 | 6.01935 | 72° | 82km/h | 2950m | -4.8m/s | -0.6°C | 85.6% | 711.3hPa | 2.5V | 07:49:14 | 03:25:52 | 00:00:00 | i |
| BIOWL1-15 | 2026-08-31 13:56:27 | 51.07711 | 6.02098 | 79° | 64km/h | 2926m | -5.2m/s | -0.4°C | 89.7% | 713.4hPa | 2.6V | 07:49:24 | 03:25:57 | 00:00:00 | i |
| DB0UT-7 | 2026-08-31 13:56:26 | 51.07710 | 6.02071 | 90° | 82km/h | 2931m | -4.9m/s | -0.4°C | 85.0% | 713.0hPa | 2.6V | 00:00:00 | 00:00:00 | 00:00:00 | |
| DD1CC1-15 | 2026-08-31 13:56:25 | 51.07710 | 6.02071 | 91° | 69km/h | 2931m | -5.0m/s | -0.4°C | 84.8% | 713.0hPa | 2.5V | 00:00:00 | 00:00:00 | 00:00:00 | |
| DM0DOS-11 | 2026-08-31 13:56:22 | 51.07689 | 6.01784 | 81° | 91km/h | 2974m | -4.7m/s | -0.8°C | 86% | 709.2hPa | 2.5V | 07:49:19 | 03:25:47 | 00:00:00 | i |
| BIOWL1-15 | 2026-08-31 13:56:20 | 51.07684 | 6.01749 | 74° | 86km/h | 2979m | -4.6m/s | -0.8°C | 90.3% | 708.7hPa | 2.6V | 07:49:24 | 03:25:46 | 00:00:00 | i |
| DJ3KS | 2026-08-31 13:56:19 | 51.07691 | 6.01880 | 86° | 64km/h | 2960m | -5.1m/s | -0.7°C | 86.2% | 710.5hPa | 2.6V | 00:00:00 | 00:00:00 | 00:00:00 | |
| DD1CC3-15 | 2026-08-31 13:56:18 | 51.07691 | 6.01852 | 92° | 73km/h | 2965m | -4.9m/s | -0.8°C | 86.5% | 710.0hPa | 2.6V | 07:49:00 | 00:00:00 | 00:00:00 | |
| DM0DOS-11 | 2026-08-31 13:56:16 | 51.07669 | 6.01604 | 89° | 82km/h | 3003m | -4.8m/s | -1°C | 87.4% | 706.6hPa | 2.6V | 07:49:25 | 03:25:41 | 00:00:00 | i |
| DJ2KF-10 | 2026-08-31 13:56:16 | 51.07684 | 6.01749 | 74° | 91km/h | 2979m | -4.6m/s | -0.8°C | 86.2% | 708.7hPa | 2.6V | 00:00:00 | 03:25:46 | 00:00:00 | i |
| DM0DOS-11 | 2026-08-31 13:56:11 | 51.07652 | 6.01427 | 70° | 77km/h | 3028m | -4.6m/s | -1.1°C | 88.3% | 704.4hPa | 2.6V | 07:49:30 | 03:25:36 | 00:00:00 | i |
| BIOWL7-15 | 2026-08-31 13:56:10 | 51.07669 | 6.01603 | 91° | 82km/h | 3003m | -4.8m/s | -1.0°C | 87.1% | 706.6hPa | 2.7V | 00:00:00 | 00:00:00 | 00:00:00 | |
| DM0DOS-11 | 2026-08-31 13:56:06 | 51.07643 | 6.01272 | 81° | 95km/h | 3053m | -4.9m/s | -1.4°C | 89.2% | 702.1hPa | 2.7V | 07:49:35 | 03:25:31 | 00:00:00 | i |
| BIOWL1-15 | 2026-08-31 13:56:05 | 51.07647 | 6.01399 | 78° | 66km/h | 3033m | -4.6m/s | -1.2°C | 93.3% | 703.9hPa | 2.6V | 07:50:15 | 03:25:35 | 00:00:00 | i |
| DM0DOS-11 | 2026-08-31 13:56:01 | 51.07623 | 6.01117 | 91° | 82km/h | 3077m | -5m/s | -1.6°C | 90.1% | 700.1hPa | 2.5V | 07:49:40 | 03:25:26 | 00:00:00 | i |
| BIOWL1-15 | 2026-08-31 13:55:54 | 51.07609 | 6.00977 | 73° | 75km/h | 3097m | -4.8m/s | -1.7°C | 93.1% | 698.2hPa | 2.6V | 07:50:15 | 03:25:22 | 00:00:00 | i |
| DM0DOS-11 | 2026-08-31 13:55:51 | 51.07594 | 6.00780 | 72° | 86km/h | 3127m | -5.5m/s | -2°C | 91.2% | 695.7hPa | 2.6V | 07:49:50 | 03:25:16 | 00:00:00 | i |
| DJ2KF-10 | 2026-08-31 13:55:48 | 51.07604 | 6.00853 | 86° | 91km/h | 3117m | -4.9m/s | -1.9°C | 90.0% | 696.6hPa | 2.6V | 00:00:00 | 03:25:18 | 00:00:00 | |
| DM0DOS-11 | 2026-08-31 13:55:46 | 51.07583 | 6.00631 | 88° | 93km/h | 3152m | -5.3m/s | -2.3°C | 91.9% | 693.5hPa | 2.6V | 07:49:55 | 03:25:11 | 00:00:00 | i |
| BIOWL1-15 | 2026-08-31 13:55:41 | 51.07564 | 6.00441 | 92° | 86km/h | 3182m | -4.9m/s | -2.6°C | 96.9% | 690.8hPa | 2.6V | 07:50:15 | 03:25:05 | 00:00:00 | i |
| DM0DOS-11 | 2026-08-31 13:55:41 | 51.07563 | 6.00473 | 90° | 73km/h | 3178m | -5m/s | -2.5°C | 93.5% | 691.2hPa | 2.6V | 07:50:00 | 03:25:06 | 00:00:00 | i |
| WPPR-10 | 2026-08-31 13:55:40 | 51.07581 | 6.00593 | 80° | 93km/h | 3157m | -5.1m/s | -2.3°C | 91.4% | 693.0hPa | 2.5V | 00:00:00 | 00:00:00 | 00:00:00 | |
| DD1CC9-15 | 2026-08-31 13:55:37 | 51.07569 | 6.00528 | 72° | 73km/h | 3167m | -5.3m/s | -2.4°C | 91.5% | 692.2hPa | 2.5V | 07:50:00 | 00:00:00 | 00:00:00 | |
| DM0DOS-11 | 2026-08-31 13:55:36 | 51.07547 | 6.00300 | 70° | 77km/h | 3202m | -5.3m/s | -2.7°C | 92.9% | 689.2hPa | 2.5V | 07:50:05 | 03:25:01 | 00:00:00 | i |
| DB0UT-7 | 2026-08-31 13:55:36 | 51.07564 | 6.00473 | 91° | 84km/h | 3178m | -4.9m/s | -2.5°C | 93.5% | 691.1hPa | 2.6V | 00:00:00 | 00:00:00 | 00:00:00 | i |
| DD1CC3-15 | 2026-08-31 13:55:34 | 51.07564 | 6.00441 | 93° | 86km/h | 3182m | -4.9m/s | -2.6°C | 93.7% | 690.8hPa | 2.6V | 00:00:00 | 00:00:00 | 00:00:00 | |
| DM0DOS-11 | 2026-08-31 13:55:31 | 51.07535 | 6.00139 | 77° | 99km/h | 3227m | -4.9m/s | -2.8°C | 93.2% | 686.9hPa | 2.6V | 07:50:10 | 03:24:56 | 00:00:00 | i |
| BIOWL1-15 | 2026-08-31 13:55:28 | 51.07539 | 6.00213 | 91° | 84km/h | 3217m | -5.1m/s | -2.8°C | 97.2% | 687.8hPa | 2.6V | 07:50:15 | 03:24:58 | 00:00:00 | i |
| DM0DOS-11 | 2026-08-31 13:55:26 | 51.07508 | 5.99982 | 89° | 80km/h | 3253m | -4.9m/s | -3°C | 93.7% | 684.8hPa | 2.6V | 07:50:15 | 03:24:51 | 00:00:00 | i |
| BIOWL1-15 | 2026-08-31 13:55:24 | 51.07497 | 5.99872 | 70° | 93km/h | 3267m | -4.4m/s | -3.1°C | 96.6% | 683.5hPa | 2.6V | 07:51:06 | 03:24:48 | 00:00:00 | i |
| DM0DOS-11 | 2026-08-31 13:55:21 | 51.07483 | 5.99811 | 72° | 71km/h | 3277m | -5.4m/s | -3.2°C | 94.3% | 682.7hPa | 2.5V | 07:50:20 | 03:24:46 | 00:00:00 | i |
| DJ2KF-10 | 2026-08-31 13:55:18 | 51.07497 | 5.99872 | 70° | 89km/h | 3267m | -4.4m/s | -3.0°C | 94.2% | 683.4hPa | 2.6V | 00:00:00 | 03:24:48 | 00:00:00 | |
| DD1CC9-15 | 2026-08-31 13:55:16 | 51.07489 | 5.99840 | 68° | 80km/h | 3272m | -5.1m/s | -3.1°C | 93.9% | 683.1hPa | 2.6V | 07:51:00 | 00:00:00 | 00:00:00 | |
| DM0DOS-11 | 2026-08-31 13:55:11 | 51.07449 | 5.99489 | 88° | 88km/h | 3326m | -4.9m/s | -3.4°C | 91.7% | 678.5hPa | 2.6V | 07:50:30 | 03:24:36 | 00:00:00 | i |
| BIOWL1-15 | 2026-08-31 13:55:07 | 51.07427 | 5.99353 | 71° | 71km/h | 3344m | -4.9m/s | -3.4°C | 93% | 676.9hPa | 2.6V | 07:51:06 | 03:24:32 | 00:00:00 | |
| DB0UT-7 | 2026-08-31 13:55:06 | 51.07449 | 5.99489 | 89° | 78km/h | 3326m | -4.8m/s | -3.4°C | 91.7% | 678.5hPa | 2.6V | 07:50:00 | 03:24:36 | 00:00:00 | |
| BIOWL9-15 | 2026-08-31 13:54:58 | 51.07420 | 5.99230 | 82° | 91km/h | 3362m | -4.9m/s | -3.5°C | 87.8% | 675.3hPa | 2.6V | 00:00:00 | 00:00:00 | 00:00:00 | |
| DM0DOS-11 | 2026-08-31 13:54:57 | 51.07402 | 5.99134 | 69° | 68km/h | 3376m | -4.9m/s | -3.6°C | 89.6% | 674.2hPa | 2.6V | 07:50:41 | 03:24:25 | 00:00:00 | i |
| BIOWL1-15 | 2026-08-31 13:54:55 | 51.07402 | 5.99134 | 70° | 68km/h | 3377m | -4.9m/s | -3.6°C | 92.3% | 674.2hPa | 2.6V | 07:51:06 | 03:24:25 | 00:00:00 | i |
| DD1CC3-15 | 2026-08-31 13:54:51 | 51.07397 | 5.99050 | 91° | 86km/h | 3391m | -4.5m/s | -3.6°C | 85.4% | 672.8hPa | 2.6V | 00:00:00 | 00:00:00 | 00:00:00 | |
| DM0DOS-11 | 2026-08-31 13:54:50 | 51.07370 | 5.98833 | 90° | 80km/h | 3424m | -4.7m/s | -3.7°C | 84% | 670.1hPa | 2.6V | 07:50:51 | 03:24:15 | 00:00:00 | i |
| DD1CC1-15 | 2026-08-31 13:54:49 | 51.07391 | 5.98977 | 77° | 93km/h | 3400m | -4.9m/s | -3.6°C | 85.3% | 672.1hPa | 2.6V | 07:51:00 | 00:00:00 | 00:00:00 | |
| DJ2KF-10 | 2026-08-31 13:54:46 | 51.07371 | 5.98863 | 90° | 82km/h | 3419m | -4.7m/s | -3.5°C | 82.4% | 670.4hPa | 2.6V | 00:00:00 | 03:24:16 | 00:00:00 | |
| DM0DOS-11 | 2026-08-31 13:54:45 | 51.07348 | 5.98677 | 77° | 58km/h | 3449m | -5m/s | -3.6°C | 78.5% | 667.9hPa | 2.5V | 07:50:56 | 03:24:10 | 00:00:00 | i |
| BIOWL1-15 | 2026-08-31 13:54:44 | 51.07370 | 5.98799 | 84° | 91km/h | 3428m | -5m/s | -3.6°C | 86.1% | 669.6hPa | 2.6V | 07:51:06 | 03:24:14 | 00:00:00 | i |
| DM0DOS-11 | 2026-08-31 13:54:40 | 51.07341 | 5.98526 | 73° | 84km/h | 3474m | -5m/s | -3.9°C | 81% | 665.8hPa | 2.6V | 07:51:01 | 03:24:05 | 00:00:00 | i |
| BIOWL1-15 | 2026-08-31 13:54:38 | 51.07334 | 5.98496 | 69° | 73km/h | 3479m | -4.8m/s | -3.9°C | 86.1% | 665.4hPa | 2.6V | 07:51:06 | 03:24:04 | 00:00:00 | i |
| DB0UT-7 | 2026-08-31 13:54:36 | 51.07345 | 5.98560 | 83° | 75km/h | 3469m | -4.9m/s | -3.8°C | 80.2% | 666.3hPa | 2.6V | 00:00:00 | 00:00:00 | 00:00:00 | |
| DM0DOS-11 | 2026-08-31 13:54:35 | 51.07327 | 5.98394 | 91° | 80km/h | 3499m | -5m/s | -4.2°C | 82.6% | 663.6hPa | 2.6V | 07:51:06 | 03:24:00 | 00:00:00 | i |
| DM0DOS-11 | 2026-08-31 13:54:30 | 51.07306 | 5.98246 | 82° | 58km/h | 3524m | -5m/s | -4.4°C | 84% | 661.7hPa | 2.5V | 07:51:11 | 03:23:55 | 00:00:00 | i |
| DD1CC1-15 | 2026-08-31 13:54:29 | 51.07327 | 5.98394 | 92° | 80km/h | 3499m | -5.1m/s | -4.2°C | 82.2% | 663.7hPa | 2.6V | 07:51:00 | 00:00:00 | 00:00:00 | |
| BIOWL9-15 | 2026-08-31 13:54:27 | 51.07315 | 5.98295 | 68° | 75km/h | 3513m | -5.1m/s | -4.2°C | 83.0% | 662.5hPa | 2.6V | 00:00:00 | 00:00:00 | 00:00:00 | |
| DM0DOS-11 | 2026-08-31 13:54:25 | 51.07296 | 5.98094 | 69° | 75km/h | 3548m | -4.8m/s | -4.6°C | 85.1% | 659.5hPa | 2.6V | 07:51:16 | 03:23:50 | 00:00:00 | i |
| BIOWL1-15 | 2026-08-31 13:54:25 | 51.07306 | 5.98192 | 93° | 80km/h | 3534m | -5m/s | -4.5°C | 88.7% | 660.8hPa | 2.6V | 07:51:57 | 03:23:53 | 00:00:00 | i |
| DO1YAY-16 | 2026-08-31 13:54:24 | 51.07305 | 5.98221 | 93° | 66km/h | 3529m | -4.7m/s | -4.4°C | 84.0% | 661.2hPa | 2.6V | 00:00:00 | 00:00:00 | 00:00:00 | |
| DM0DOS-11 | 2026-08-31 13:54:20 | 51.07286 | 5.97950 | 79° | 89km/h | 3572m | -5.1m/s | -4.8°C | 86.3% | 657.6hPa | 2.6V | 07:51:21 | 03:23:45 | 00:00:00 | i |
| DJ3KS | 2026-08-31 13:54:17 | 51.07288 | 5.98044 | 88° | 60km/h | 3558m | -4.7m/s | -4.7°C | 85.2% | 658.7hPa | 2.5V | 00:00:00 | 00:00:00 | 00:00:00 | |
| DD1CC3-15 | 2026-08-31 13:54:16 | 51.07288 | 5.98017 | 94° | 73km/h | 3563m | -4.8m/s | -4.8°C | 86.2% | 658.3hPa | 2.5V | 00:00:00 | 00:00:00 | 00:00:00 | |
| DM0DOS-11 | 2026-08-31 13:54:15 | 51.07267 | 5.97813 | 92° | 69km/h | 3597m | -5m/s | -5°C | 86.5% | 655.5hPa | 2.5V | 07:51:26 | 03:23:40 | 00:00:00 | i |
| BIOWL1-15 | 2026-08-31 13:54:12 | 51.07270 | 5.97862 | 75° | 58km/h | 3587m | -4.9m/s | -4.9°C | 89.6% | 656.3hPa | 2.6V | 07:51:57 | 03:23:42 | 00:00:00 | i |
| WPPR-10 | 2026-08-31 13:54:07 | 51.07261 | 5.97716 | 72° | 78km/h | 3611m | -4.9m/s | -5.1°C | 85.8% | 654.2hPa | 2.6V | 00:00:00 | 00:00:00 | 00:00:00 | |
| DM0DOS-11 | 2026-08-31 13:54:05 | 51.07251 | 5.97663 | 81° | 60km/h | 3621m | -4.9m/s | -5.2°C | 86.2% | 653.4hPa | 2.6V | 07:51:31 | 03:23:35 | 00:00:00 | i |
| DM0DOS-11 | 2026-08-31 13:54:05 | 51.07238 | 5.97510 | 72° | 68km/h | 3644m | -4.6m/s | -5.3°C | 87% | 651.4hPa | 2.6V | 07:51:36 | 03:23:30 | 00:00:00 | i |
| BIOWL1-15 | 2026-08-31 13:54:01 | 51.07236 | 5.97398 | 88° | 89km/h | 3663m | -4.9m/s | -5.5°C | 90.5% | 650hPa | 2.6V | 07:51:57 | 03:23:26 | 00:00:00 | |
| DM0DOS-11 | 2026-08-31 13:54:00 | 51.07233 | 5.97362 | 80° | 91km/h | 3668m | -4.9m/s | -5.5°C | 87.7% | 649.6hPa | 2.6V | 07:51:41 | 03:23:25 | 00:00:00 | i |
| BIOWL9-15 | 2026-08-31 13:53:56 | 51.07236 | 5.97398 | 88° | 89km/h | 3663m | -4.9m/s | -5.5°C | 87.4% | 650.0hPa | 2.6V | 00:00:00 | 00:00:00 | 00:00:00 | |
| DM0DOS-11 | 2026-08-31 13:53:55 | 51.07219 | 5.97217 | 93° | 82km/h | 3692m | -4.6m/s | -5.7°C | 84% | 647.5hPa | 2.6V | 07:51:46 | 03:23:20 | 00:00:00 | i |
| DO1YAY-16 | 2026-08-31 13:53:53 | 51.07219 | 5.97273 | 81° | 60km/h | 3683m | -4.9m/s | -5.6°C | 85.4% | 648.4hPa | 2.5V | 00:00:00 | 00:00:00 | 00:00:00 | |
| DM0DOS-11 | 2026-08-31 13:53:50 | 51.07202 | 5.97065 | 86° | 60km/h | 3715m | -4.7m/s | -5.8°C | 85.6% | 645.7hPa | 2.5V | 07:51:51 | 03:23:15 | 00:00:00 | i |
| BIOWL1-15 | 2026-08-31 13:53:50 | 51.07216 | 5.97148 | 77° | 88km/h | 3701m | -4.7m/s | -5.7°C | 85.6% | 646.9hPa | 2.6V | 07:51:57 | 03:23:18 | 00:00:00 | i |
| DD1CC1-15 | 2026-08-31 13:53:47 | 51.07215 | 5.97148 | 77° | 88km/h | 3701m | -4.7m/s | -5.7°C | 82.7% | 646.9hPa | 2.6V | 07:51:00 | 00:00:00 | 00:00:00 | |
| DM0DOS-11 | 2026-08-31 13:53:45 | 51.07196 | 5.96904 | 71° | 80km/h | 3740m | -4.8m/s | -6°C | 87.3% | 643.5hPa | 2.6V | 07:51:56 | 03:23:10 | 00:00:00 | i |
| DM0DOS-11 | 2026-08-31 13:53:40 | 51.07185 | 5.96758 | 82° | 91km/h | 3763m | -5m/s | -6.2°C | 88.4% | 641.8hPa | 2.6V | 07:52:01 | 03:23:05 | 00:00:00 | i |
| BIOWL1-15 | 2026-08-31 13:53:37 | 51.07186 | 5.96824 | 92° | 71km/h | 3754m | -4.6m/s | -6.1°C | 89.9% | 642.4hPa | 2.5V | 07:52:48 | 03:23:07 | 00:00:00 | i |
| DB0UT-7 | 2026-08-31 13:53:36 | 51.07186 | 5.96793 | 91° | 78km/h | 3758m | -4.7m/s | -6.1°C | 88.6% | 642.1hPa | 2.6V | 00:00:00 | 00:00:00 | 00:00:00 | |
| DM0DOS-11 | 2026-08-31 13:53:35 | 51.07163 | 5.96611 | 90° | 69km/h | 3788m | -4.9m/s | -6.2°C | 83.1% | 639.8hPa | 2.5V | 07:52:06 | 03:23:00 | 00:00:00 | i |
| DD1CC9-15 | 2026-08-31 13:53:32 | 51.07174 | 5.96690 | 70° | 78km/h | 3773m | -5.0m/s | -6.2°C | 86.1% | 640.9hPa | 2.5V | 07:52:00 | 00:00:00 | 00:00:00 | |
| DM0DOS-11 | 2026-08-31 13:53:30 | 51.07136 | 5.96429 | 78° | 60km/h | 3817m | -5.1m/s | -6°C | 71.8% | 637.5hPa | 2.5V | 07:52:12 | 03:22:54 | 00:00:00 | i |
| BIOWL1-15 | 2026-08-31 13:53:27 | 51.07156 | 5.96510 | 72° | 89km/h | 3802m | -4.9m/s | -6.1°C | 83% | 638.6hPa | 2.6V | 07:52:48 | 03:22:57 | 00:00:00 | i |
| DD1CC1-15 | 2026-08-31 13:53:26 | 51.07156 | 5.96510 | 73° | 89km/h | 3802m | -4.9m/s | -6.1°C | 79.3% | 638.6hPa | 2.6V | 07:52:00 | 00:00:00 | 00:00:00 | |
| BIOWL9-15 | 2026-08-31 13:53:25 | 51.07141 | 5.96453 | 67° | 64km/h | 3812m | -5.0m/s | -6.0°C | 72.8% | 637.9hPa | 2.6V | 00:00:00 | 00:00:00 | 00:00:00 | i |
| DM0DOS-11 | 2026-08-31 13:53:24 | 51.07120 | 5.96271 | 67° | 78km/h | 3841m | -4.7m/s | -6.1°C | 72.1% | 635.4hPa | 2.6V | 07:52:17 | 03:22:49 | 00:00:00 | |
| BIOWL1-15 | 2026-08-31 13:53:21 | 51.07110 | 5.96220 | 82° | 60km/h | 3850m | -4.8m/s | -6.2°C | 73.7% | 634.8hPa | 2.5V | 07:52:48 | 03:22:47 | 00:00:00 | i |
| DJ2KF-10 | 2026-08-31 13:53:21 | 51.07132 | 5.96339 | 83° | 78km/h | 3832m | -4.8m/s | -6.1°C | 71.6% | 636.2hPa | 2.6V | 07:52:00 | 03:22:51 | 00:00:00 | i |
| DM0DOS-11 | 2026-08-31 13:53:17 | 51.07107 | 5.96131 | 83° | 91km/h | 3865m | -5.2m/s | -6.2°C | 66.4% | 633.5hPa | 2.6V | 07:52:22 | 03:22:44 | 00:00:00 | i |
| DD1CC9-15 | 2026-08-31 13:53:11 | 51.07096 | 5.96061 | 70° | 84km/h | 3876m | -5.2m/s | -6.3°C | 65.5% | 632.7hPa | 2.5V | 07:52:00 | 00:00:00 | 00:00:00 | |
| DM0DOS-11 | 2026-08-31 13:53:09 | 51.07083 | 5.95982 | 89° | 68km/h | 3890m | -4.5m/s | -6.5°C | 67.8% | 631.4hPa | 2.5V | 07:52:27 | 03:22:39 | 00:00:00 | i |
| DM0DOS-11 | 2026-08-31 13:53:09 | 51.07064 | 5.95822 | 70° | 68km/h | 3913m | -4.9m/s | -6.7°C | 68.4% | 629.5hPa | 2.6V | 07:52:32 | 03:22:34 | 00:00:00 | i |
| BIOWL1-15 | 2026-08-31 13:53:06 | 51.07078 | 5.95882 | 75° | 91km/h | 3904m | -4.7m/s | -6.6°C | 71.2% | 630.3hPa | 2.6V | 07:52:48 | 03:22:36 | 00:00:00 | i |
| DB0UT-7 | 2026-08-31 13:53:06 | 51.07077 | 5.95882 | 75° | 77km/h | 3904m | -4.7m/s | -6.5°C | 68.3% | 630.3hPa | 2.6V | 00:00:00 | 03:22:36 | 00:00:00 | i |
| WPPR-10 | 2026-08-31 13:53:05 | 51.07071 | 5.95850 | 69° | 80km/h | 3908m | -5.1m/s | -6.6°C | 67.9% | 629.9hPa | 2.6V | 00:00:00 | 00:00:00 | 00:00:00 | |
| DM0DOS-11 | 2026-08-31 13:53:04 | 51.07057 | 5.95673 | 75° | 89km/h | 3937m | -4.8m/s | -6.9°C | 67.5% | 627.6hPa | 2.6V | 07:52:37 | 03:22:29 | 00:00:00 | i |
| BIOWL7-15 | 2026-08-31 13:53:02 | 51.07060 | 5.95797 | 84° | 58km/h | 3918m | -4.1m/s | -6.7°C | 68.5% | 629.1hPa | 2.6V | 00:00:00 | 00:00:00 | 00:00:00 | |
| DM0DOS-11 | 2026-08-31 13:52:59 | 51.07038 | 5.95534 | 90° | 80km/h | 3962m | -5.1m/s | -6.9°C | 63.4% | 625.6hPa | 2.6V | 07:52:42 | 03:22:24 | 00:00:00 | i |
| BIOWL1-15 | 2026-08-31 13:52:55 | 51.07038 | 5.95564 | 91° | 68km/h | 3957m | -4.8m/s | -6.9°C | 66.7% | 625.9hPa | 2.5V | 07:52:48 | 03:22:25 | 00:00:00 | i |
| DM0DOS-11 | 2026-08-31 13:52:54 | 51.07013 | 5.95380 | 78° | 60km/h | 3986m | -5m/s | -6.7°C | 57% | 623.7hPa | 2.5V | 07:52:47 | 03:22:19 | 00:00:00 | i |
| DJ2KF-10 | 2026-08-31 13:52:51 | 51.07025 | 5.95432 | 67° | 77km/h | 3976m | -4.9m/s | -6.8°C | 62.4% | 624.5hPa | 2.6V | 00:00:00 | 03:22:21 | 00:00:00 | |
| DD1CC9-15 | 2026-08-31 13:52:50 | 51.07025 | 5.95432 | 68° | 82km/h | 3976m | -4.9m/s | -6.9°C | 61.9% | 624.5hPa | 2.6V | 07:52:00 | 00:00:00 | 00:00:00 | |
| DM0DOS-11 | 2026-08-31 13:52:49 | 51.06998 | 5.95222 | 67° | 78km/h | 4010m | -4.7m/s | -6.6°C | 48.5% | 621.8hPa | 2.6V | 07:52:52 | 03:22:14 | 00:00:00 | i |
| BIOWL1-15 | 2026-08-31 13:52:44 | 51.06998 | 5.95222 | 67° | 78km/h | 4010m | -4.7m/s | -6.6°C | 54.2% | 621.8hPa | 2.6V | 07:53:39 | 03:22:14 | 00:00:00 | i |
| DM0DOS-11 | 2026-08-31 13:52:39 | 51.06958 | 5.94936 | 89° | 66km/h | 4060m | -5.1m/s | -7.1°C | 48.4% | 617.8hPa | 2.6V | 07:53:02 | 03:22:04 | 00:00:00 | i |
| DB0UT-7 | 2026-08-31 13:52:36 | 51.06964 | 5.94985 | 69° | 77km/h | 4050m | -5.0m/s | -6.9°C | 47.7% | 618.5hPa | 2.5V | 00:00:00 | 00:00:00 | 00:00:00 | |
| DM0DOS-11 | 2026-08-31 13:52:34 | 51.06941 | 5.94774 | 69° | 69km/h | 4085m | -5m/s | -7.2°C | 42.7% | 615.8hPa | 2.5V | 07:53:07 | 03:21:59 | 00:00:00 | i |
| BIOWL1-15 | 2026-08-31 13:52:33 | 51.06954 | 5.94836 | 77° | 91km/h | 4075m | -5.1m/s | -7.2°C | 51% | 616.6hPa | 2.6V | 07:53:39 | 03:22:01 | 00:00:00 | i |
| DD1CC9-15 | 2026-08-31 13:52:30 | 51.06954 | 5.94836 | 77° | 91km/h | 4075m | -5.1m/s | -7.2°C | 45.8% | 616.7hPa | 2.6V | 07:53:00 | 00:00:00 | 00:00:00 | |
| DM0DOS-11 | 2026-08-31 13:52:29 | 51.06929 | 5.94621 | 72° | 89km/h | 4110m | -5m/s | -7.4°C | 42.4% | 613.8hPa | 2.6V | 07:53:12 | 03:21:54 | 00:00:00 | i |
| DD1CC3-15 | 2026-08-31 13:52:25 | 51.06935 | 5.94692 | 91° | 84km/h | 4100m | -5.0m/s | -7.3°C | 42.1% | 614.6hPa | 2.6V | 00:00:00 | 00:00:00 | 00:00:00 | |
| DM0DOS-11 | 2026-08-31 13:52:24 | 51.06913 | 5.94479 | 90° | 88km/h | 4136m | -5.1m/s | -7.7°C | 42.9% | 611.8hPa | 2.6V | 07:53:17 | 03:21:49 | 00:00:00 | i |
| BIOWL1-15 | 2026-08-31 13:52:23 | 51.06922 | 5.94589 | 69° | 77km/h | 4115m | -5.1m/s | -7.4°C | 47.6% | 613.5hPa | 2.5V | 07:53:39 | 03:21:53 | 00:00:00 | i |
| DJ2KF-10 | 2026-08-31 13:52:21 | 51.06912 | 5.94538 | 85° | 78km/h | 4125m | -5.4m/s | -7.5°C | 42.7% | 612.6hPa | 2.6V | 00:00:00 | 03:21:51 | 00:00:00 | |
| DO1YAY-16 | 2026-08-31 13:52:20 | 51.06913 | 5.94479 | 90° | 86km/h | 4136m | -5.1m/s | -7.7°C | 42.4% | 611.8hPa | 2.6V | 00:00:00 | 00:00:00 | 00:00:00 | |
| DM0DOS-11 | 2026-08-31 13:52:19 | 51.06890 | 5.94320 | 83° | 60km/h | 4162m | -5.2m/s | -7.8°C | 43.3% | 609.8hPa | 2.6V | 07:53:22 | 03:21:44 | 00:00:00 | i |
| DM0DOS-11 | 2026-08-31 13:52:14 | 51.06880 | 5.94156 | 70° | 86km/h | 4189m | -5.6m/s | -8.1°C | 43.5% | 607.8hPa | 2.5V | 07:53:27 | 03:21:39 | 00:00:00 | i |
| BIOWL1-15 | 2026-08-31 13:52:12 | 51.06886 | 5.94191 | 77° | 93km/h | 4184m | -5.6m/s | -8°C | 48.2% | 608.2hPa | 2.5V | 07:53:39 | 03:21:40 | 00:00:00 | i |
| DD1CC9-15 | 2026-08-31 13:52:10 | 51.06890 | 5.94228 | 86° | 93km/h | 4179m | -5.4m/s | -8.0°C | 43.0% | 608.6hPa | 2.5V | 07:53:00 | 00:00:00 | 00:00:00 | |
| DM0DOS-11 | 2026-08-31 13:52:09 | 51.06863 | 5.94013 | 84° | 91km/h | 4216m | -5.4m/s | -8.2°C | 45.7% | 605.5hPa | 2.5V | 07:53:32 | 03:21:34 | 00:00:00 | i |
| DB0UT-7 | 2026-08-31 13:52:06 | 51.06865 | 5.94076 | 88° | 78km/h | 4206m | -5.4m/s | -8.1°C | 43.0% | 606.2hPa | 2.6V | 00:00:00 | 03:21:36 | 00:00:00 | |
| DM0DOS-11 | 2026-08-31 13:52:04 | 51.06840 | 5.93865 | 90° | 71km/h | 4243m | -5.6m/s | -8.4°C | 47.4% | 603.5hPa | 2.6V | 07:53:37 | 03:21:29 | 00:00:00 | i |
| BIOWL1-15 | 2026-08-31 13:51:59 | 51.06840 | 5.93865 | 91° | 71km/h | 4243m | -5.6m/s | -8.4°C | 51.6% | 603.5hPa | 2.6V | 07:53:39 | 03:21:29 | 00:00:00 | i |
| DM0DOS-11 | 2026-08-31 13:51:54 | 51.06808 | 5.93539 | 72° | 93km/h | 4298m | -5.6m/s | -8.7°C | 45.9% | 599.3hPa | 2.6V | 07:53:47 | 03:21:19 | 00:00:00 | i |
| BIOWL1-15 | 2026-08-31 13:51:49 | 51.06808 | 5.93539 | 73° | 93km/h | 4298m | -5.6m/s | -8.7°C | 50.4% | 599.3hPa | 2.6V | 07:54:30 | 03:21:19 | 00:00:00 | i |
| DO1YAY-16 | 2026-08-31 13:51:49 | 51.06800 | 5.93506 | 67° | 80km/h | 4304m | -5.7m/s | -8.7°C | 45.5% | 598.8hPa | 2.5V | 00:00:00 | 00:00:00 | 00:00:00 | i |
| DM0DOS-11 | 2026-08-31 13:51:44 | 51.06766 | 5.93239 | 82° | 58km/h | 4354m | -5.6m/s | -9°C | 47.9% | 594.9hPa | 2.5V | 07:53:57 | 03:21:09 | 00:00:00 | i |
| DD1CC3-15 | 2026-08-31 13:51:43 | 51.06788 | 5.93394 | 91° | 84km/h | 4326m | -5.6m/s | -9.0°C | 46.1% | 597.1hPa | 2.6V | 00:00:00 | 00:00:00 | 00:00:00 | |
| DD1CC1-15 | 2026-08-31 13:51:42 | 51.06787 | 5.93359 | 85° | 93km/h | 4332m | -5.9m/s | -9.0°C | 46.2% | 596.6hPa | 2.6V | 07:54:00 | 00:00:00 | 00:00:00 | |
| DM0DOS-11 | 2026-08-31 13:51:39 | 51.06756 | 5.93082 | 69° | 86km/h | 4383m | -5.5m/s | -9°C | 42.2% | 592.7hPa | 2.6V | 07:54:02 | 03:21:04 | 00:00:00 | i |
| BIOWL1-15 | 2026-08-31 13:51:38 | 51.06765 | 5.93215 | 91° | 66km/h | 4360m | -6.1m/s | -9°C | 51.1% | 594.5hPa | 2.5V | 07:54:30 | 03:21:08 | 00:00:00 | i |
| DB0UT-7 | 2026-08-31 13:51:36 | 51.06765 | 5.93153 | 87° | 82km/h | 4372m | -5.7m/s | -9.0°C | 41.6% | 593.4hPa | 2.6V | 00:00:00 | 00:00:00 | 00:00:00 | |
| DM0DOS-11 | 2026-08-31 13:51:34 | 51.06740 | 5.92936 | 87° | 93km/h | 4411m | -5.7m/s | -9.1°C | 41.6% | 590.5hPa | 2.6V | 07:54:07 | 03:20:59 | 00:00:00 | i |
| BIOWL1-15 | 2026-08-31 13:51:28 | 51.06738 | 5.92898 | 80° | 97km/h | 4417m | -5.9m/s | -9.1°C | 45.3% | 590.1hPa | 2.6V | 07:54:30 | 03:20:58 | 00:00:00 | i |
| DM0DOS-11 | 2026-08-31 13:51:28 | 51.06717 | 5.92775 | 87° | 68km/h | 4440m | -5.8m/s | -9.3°C | 44.7% | 588.2hPa | 2.6V | 07:54:12 | 03:20:54 | 00:00:00 | i |
| DD1CC3-15 | 2026-08-31 13:51:27 | 51.06717 | 5.92745 | 93° | 80km/h | 4446m | -5.7m/s | -9.4°C | 45.5% | 587.9hPa | 2.6V | 00:00:00 | 00:00:00 | 00:00:00 | |
| DM0DOS-11 | 2026-08-31 13:51:22 | 51.06693 | 5.92551 | 89° | 69km/h | 4480m | -5.5m/s | -9.6°C | 47.2% | 585.3hPa | 2.6V | 07:54:19 | 03:20:47 | 00:00:00 | i |
| BIOWL1-15 | 2026-08-31 13:51:18 | 51.06678 | 5.92376 | 70° | 78km/h | 4509m | -5.6m/s | -9.8°C | 53.4% | 583hPa | 2.6V | 07:54:30 | 03:20:42 | 00:00:00 | i |
| DO1YAY-16 | 2026-08-31 13:51:18 | 51.06693 | 5.92551 | 89° | 69km/h | 4480m | -5.6m/s | -9.6°C | 46.6% | 585.3hPa | 2.6V | 00:00:00 | 00:00:00 | 00:00:00 | i |
| DM0DOS-11 | 2026-08-31 13:51:16 | 51.06673 | 5.92348 | 76° | 66km/h | 4514m | -5.3m/s | -9.8°C | 48.2% | 582.6hPa | 2.6V | 07:54:25 | 03:20:41 | 00:00:00 | i |
| DM0DOS-11 | 2026-08-31 13:51:11 | 51.06664 | 5.92185 | 74° | 97km/h | 4543m | -6.1m/s | -10°C | 48.3% | 580.5hPa | 2.6V | 07:54:30 | 03:20:36 | 00:00:00 | i |
| DD1CC9-15 | 2026-08-31 13:51:08 | 51.06670 | 5.92293 | 93° | 77km/h | 4526m | -6.0m/s | -10.0°C | 47.8% | 581.8hPa | 2.5V | 07:54:00 | 00:00:00 | 00:00:00 | |
| DM0DOS-11 | 2026-08-31 13:51:06 | 51.06644 | 5.92034 | 90° | 88km/h | 4572m | -6.2m/s | -10.3°C | 48% | 578.2hPa | 2.5V | 07:54:35 | 03:20:31 | 00:00:00 | |
| BIOWL1-15 | 2026-08-31 13:51:03 | 51.06645 | 5.92094 | 81° | 66km/h | 4561m | -5.6m/s | -10.1°C | 52.9% | 579.1hPa | 2.6V | 07:55:21 | 03:20:33 | 00:00:00 | i |
| DB0ND-19 | 2026-08-31 13:51:02 | 51.06591 | 5.91544 | 85° | 97km/h | 4662m | -6.3m/s | 0°C | -1.0% | -1.0hPa | 2.5V | 00:00:00 | 00:00:00 | 00:00:00 | |
| DM0DOS-11 | 2026-08-31 13:51:01 | 51.06619 | 5.91869 | 78° | 66km/h | 4602m | -6.3m/s | -10.5°C | 48.6% | 576hPa | 2.5V | 07:54:40 | 03:20:26 | 00:00:00 | i |
| BIOWL1-15 | 2026-08-31 13:50:53 | 51.06616 | 5.91773 | 83° | 99km/h | 4620m | -5.6m/s | -10.7°C | 53.7% | 574.6hPa | 2.6V | 07:55:21 | 03:20:23 | 00:00:00 | i |
| BIOWL9-15 | 2026-08-31 13:50:50 | 51.06596 | 5.91670 | 71° | 71km/h | 4638m | -5.9m/s | -10.8°C | 48.3% | 573.3hPa | 2.5V | 00:00:00 | 00:00:00 | 00:00:00 | |
| DM0DOS-11 | 2026-08-31 13:50:49 | 51.06581 | 5.91468 | 70° | 91km/h | 4674m | -6.4m/s | -11.1°C | 49.9% | 570.7hPa | 2.5V | 07:54:52 | 03:20:14 | 00:00:00 | i |
| DO1YAY-16 | 2026-08-31 13:50:46 | 51.06591 | 5.91544 | 85° | 97km/h | 4662m | -6.3m/s | -11.1°C | 49.0% | 571.5hPa | 2.6V | 00:00:00 | 00:00:00 | 00:00:00 | |
| DM0DOS-11 | 2026-08-31 13:50:44 | 51.06565 | 5.91311 | 83° | 99km/h | 4705m | -6.1m/s | -11.5°C | 50.2% | 568.4hPa | 2.6V | 07:54:57 | 03:20:09 | 00:00:00 | i |
| BIOWL1-15 | 2026-08-31 13:50:43 | 51.06574 | 5.91437 | 70° | 77km/h | 4681m | -6.1m/s | -11.2°C | 54.6% | 570.1hPa | 2.5V | 07:55:21 | 03:20:13 | 00:00:00 | i |
| DD1CC1-15 | 2026-08-31 13:50:41 | 51.06569 | 5.91409 | 79° | 68km/h | 4687m | -6.0m/s | -11.3°C | 49.3% | 569.7hPa | 2.6V | 07:55:00 | 00:00:00 | 00:00:00 | |
| BIOWL7-15 | 2026-08-31 13:50:39 | 51.06566 | 5.91348 | 91° | 88km/h | 4699m | -6.3m/s | -11.5°C | 49.6% | 568.8hPa | 2.6V | 00:00:00 | 00:00:00 | 00:00:00 | |
| DM0DOS-11 | 2026-08-31 13:50:33 | 51.06514 | 5.90953 | 76° | 64km/h | 4773m | -6.7m/s | -11.9°C | 48.2% | 563.3hPa | 2.6V | 07:55:08 | 03:19:58 | 00:00:00 | i |
| BIOWL1-15 | 2026-08-31 13:50:33 | 51.06539 | 5.91117 | 91° | 86km/h | 4742m | -6.6m/s | -11.8°C | 53.9% | 565.6hPa | 2.5V | 07:55:21 | 03:20:03 | 00:00:00 | i |
| WPPR-10 | 2026-08-31 13:50:30 | 51.06519 | 5.90978 | 67° | 69km/h | 4767m | -5.9m/s | -11.9°C | 47.9% | 563.9hPa | 2.6V | 00:00:00 | 00:00:00 | 00:00:00 | |
| DM0DOS-11 | 2026-08-31 13:50:28 | 51.06496 | 5.90788 | 66° | 86km/h | 4805m | -6.4m/s | -12.1°C | 47.7% | 561.1hPa | 2.6V | 07:55:13 | 03:19:53 | 00:00:00 | i |
| DM0DOS-11 | 2026-08-31 13:50:23 | 51.06477 | 5.90636 | 81° | 99km/h | 4836m | -6.4m/s | -12.4°C | 47.7% | 558.6hPa | 2.6V | 07:55:18 | 03:19:48 | 00:00:00 | i |
| BIOWL1-15 | 2026-08-31 13:50:22 | 51.06477 | 5.90636 | 82° | 99km/h | 4836m | -6.4m/s | -12.4°C | 51.6% | 558.6hPa | 2.6V | 07:55:21 | 03:19:48 | 00:00:00 | i |
| DJ2KF-10 | 2026-08-31 13:50:21 | 51.06482 | 5.90732 | 76° | 82km/h | 4818m | -6.6m/s | -12.2°C | 47.5% | 560.0hPa | 2.6V | 00:00:00 | 03:19:51 | 00:00:00 | |
| DD1CC1-15 | 2026-08-31 13:50:20 | 51.06483 | 5.90732 | 77° | 66km/h | 4818m | -6.6m/s | -12.3°C | 46.8% | 560.1hPa | 2.6V | 07:55:00 | 00:00:00 | 00:00:00 | |
| BIOWL9-15 | 2026-08-31 13:50:19 | 51.06479 | 5.90673 | 88° | 86km/h | 4830m | -6.1m/s | -12.4°C | 47.2% | 559.2hPa | 2.6V | 00:00:00 | 00:00:00 | 00:00:00 | |
| DM0DOS-11 | 2026-08-31 13:50:17 | 51.06449 | 5.90478 | 89° | 71km/h | 4868m | -6.1m/s | -12.5°C | 45.4% | 556.4hPa | 2.6V | 07:55:23 | 03:19:43 | 00:00:00 | i |
| BIOWL1-15 | 2026-08-31 13:50:12 | 51.06445 | 5.90373 | 77° | 97km/h | 4888m | -6.5m/s | -12.7°C | 49.9% | 554.9hPa | 2.5V | 07:56:12 | 03:19:40 | 00:00:00 | i |
| DM0DOS-11 | 2026-08-31 13:50:08 | 51.06430 | 5.90305 | 66° | 77km/h | 4901m | -6.8m/s | -12.8°C | 45.6% | 554hPa | 2.6V | 07:55:28 | 03:19:38 | 00:00:00 | i |
| DD1CC9-15 | 2026-08-31 13:50:07 | 51.06430 | 5.90305 | 68° | 77km/h | 4901m | -6.8m/s | -12.8°C | 44.9% | 554.0hPa | 2.5V | 07:56:00 | 00:00:00 | 00:00:00 | |
| DB0UT-7 | 2026-08-31 13:50:06 | 51.06420 | 5.90252 | 85° | 75km/h | 4914m | -6.4m/s | 0°C | 0% | 0hPa | 2.5V | 00:00:00 | 03:19:36 | 00:00:00 | |
| DM0DOS-11 | 2026-08-31 13:50:03 | 51.06390 | 5.89999 | 90° | 84km/h | 4965m | -6.5m/s | -13.1°C | 30.9% | 549.2hPa | 2.5V | 07:55:38 | 03:19:28 | 00:00:00 | i |
| BIOWL1-15 | 2026-08-31 13:50:00 | 51.06393 | 5.90056 | 74° | 64km/h | 4952m | -6.7m/s | -13°C | 37.4% | 550.2hPa | 2.6V | 07:56:12 | 03:19:30 | 00:00:00 | i |
| WPPR-10 | 2026-08-31 13:49:59 | 51.06390 | 5.89999 | 90° | 82km/h | 4965m | -6.5m/s | -13.1°C | 30.2% | 549.2hPa | 2.5V | 00:00:00 | 00:00:00 | 00:00:00 | |
| DM0DOS-11 | 2026-08-31 13:49:58 | 51.06364 | 5.89832 | 75° | 64km/h | 4998m | -6.5m/s | -13.3°C | 26.6% | 546.9hPa | 2.5V | 07:55:43 | 03:19:23 | 00:00:00 | i |
| DJ2DS-15 | 2026-08-31 13:49:53 | 51.06362 | 5.89805 | 87° | 68km/h | 5005m | -6.4m/s | -13.3°C | 29.2% | 546.6hPa | 2.5V | 00:00:00 | 00:00:00 | 00:00:00 | |
| DM0DOS-11 | 2026-08-31 13:49:52 | 51.06341 | 5.89635 | 67° | 73km/h | 5037m | -6.8m/s | -13.6°C | 40.9% | 544.1hPa | 2.5V | 07:55:49 | 03:19:17 | 00:00:00 | i |
| BIOWL1-15 | 2026-08-31 13:49:49 | 51.06341 | 5.89635 | 67° | 73km/h | 5037m | -6.8m/s | -13.6°C | 45.4% | 544.1hPa | 2.5V | 07:56:12 | 03:19:17 | 00:00:00 | i |
| BIOWL9-15 | 2026-08-31 13:49:48 | 51.06349 | 5.89665 | 68° | 88km/h | 5030m | -6.5m/s | -13.5°C | 38.9% | 544.6hPa | 2.6V | 00:00:00 | 00:00:00 | 00:00:00 | |
| DO1YAY-16 | 2026-08-31 13:49:44 | 51.06333 | 5.89552 | 89° | 84km/h | 5056m | -6.4m/s | -13.8°C | 41.4% | 542.7hPa | 2.6V | 00:00:00 | 00:00:00 | 00:00:00 | |
| DM0DOS-11 | 2026-08-31 13:49:42 | 51.06309 | 5.89332 | 87° | 91km/h | 5102m | -6.5m/s | -14.2°C | 42.3% | 539.4hPa | 2.6V | 07:55:59 | 03:19:07 | 00:00:00 | i |
| BIOWL1-15 | 2026-08-31 13:49:36 | 51.06306 | 5.89295 | 79° | 97km/h | 5108m | -6.6m/s | -14.2°C | 44.9% | 539hPa | 2.5V | 07:56:12 | 03:19:06 | 00:00:00 | i |
| DM0DOS-11 | 2026-08-31 13:49:28 | 51.06264 | 5.89012 | 68° | 69km/h | 5168m | -6.8m/s | -14.3°C | 33.5% | 534.8hPa | 2.6V | 07:56:09 | 03:18:57 | 00:00:00 | i |
| BIOWL1-15 | 2026-08-31 13:49:26 | 51.06259 | 5.88929 | 92° | 86km/h | 5187m | -6.4m/s | -14.5°C | 35.3% | 533.4hPa | 2.5V | 07:56:12 | 03:18:54 | 00:00:00 | i |
| DM0DOS-11 | 2026-08-31 13:49:22 | 51.06242 | 5.88710 | 88° | 91km/h | 5233m | -6.2m/s | -14.7°C | 29.7% | 530.2hPa | 2.6V | 07:56:19 | 03:18:47 | 00:00:00 | i |
| BIOWL1-15 | 2026-08-31 13:49:13 | 51.06221 | 5.88581 | 76° | 64km/h | 5259m | -6.9m/s | -14.9°C | 33.3% | 528.4hPa | 2.5V | 07:57:03 | 03:18:43 | 00:00:00 | i |
| BIOWL1-15 | 2026-08-31 13:49:02 | 51.06202 | 5.88238 | 79° | 93km/h | 5331m | -6.9m/s | -15.4°C | 32% | 523.4hPa | 2.5V | 07:57:03 | 03:18:32 | 00:00:00 | i |
| WPPR-10 | 2026-08-31 13:48:56 | 51.06189 | 5.88057 | 88° | 93km/h | 5371m | -6.7m/s | -15.8°C | 27.3% | 520.6hPa | 2.5V | 00:00:00 | 00:00:00 | 00:00:00 | |
| DL8DAS-15 | 2026-08-31 13:48:55 | 51.06189 | 5.88057 | 90° | 93km/h | 5371m | -6.7m/s | -15.8°C | 27.3% | 520.6hPa | 2.5V | 00:00:00 | 00:00:00 | 00:00:00 | |
| DM0DOS-11 | 2026-08-31 13:48:52 | 51.06162 | 5.87765 | 72° | 84km/h | 5430m | -6.8m/s | -16.3°C | 28.2% | 516.5hPa | 2.5V | 07:56:49 | 03:18:17 | 00:00:00 | i |
| BIOWL1-15 | 2026-08-31 13:48:51 | 51.06170 | 5.87904 | 92° | 68km/h | 5404m | -6.5m/s | -16.1°C | 32.2% | 518.2hPa | 2.6V | 07:57:03 | 03:18:21 | 00:00:00 | i |
| BIOWL9-15 | 2026-08-31 13:48:46 | 51.06153 | 5.87709 | 85° | 62km/h | 5443m | -6.6m/s | -16.4°C | 27.3% | 515.5hPa | 2.6V | 00:00:00 | 00:00:00 | 00:00:00 | |
| DD1CC9-15 | 2026-08-31 13:48:45 | 51.06156 | 5.87735 | 75° | 69km/h | 5437m | -6.8m/s | -16.4°C | 27.3% | 516.0hPa | 2.6V | 07:57:00 | 00:00:00 | 00:00:00 | |
| DM0DOS-11 | 2026-08-31 13:48:42 | 51.06143 | 5.87459 | 97° | 75km/h | 5496m | -6.5m/s | -16.9°C | 28.9% | 512hPa | 2.6V | 07:56:59 | 03:18:07 | 00:00:00 | i |
| BIOWL1-15 | 2026-08-31 13:48:41 | 51.06154 | 5.87575 | 80° | 93km/h | 5470m | -6.8m/s | -16.6°C | 32.3% | 513.7hPa | 2.5V | 07:57:03 | 03:18:11 | 00:00:00 | i |
| BIOWL1-15 | 2026-08-31 13:48:30 | 51.06134 | 5.87239 | 99° | 78km/h | 5541m | -6.4m/s | -17.3°C | 34.6% | 508.9hPa | 2.6V | 07:57:54 | 03:18:00 | 00:00:00 | i |
| BIOWL1-15 | 2026-08-31 13:48:20 | 51.06125 | 5.86911 | 75° | 80km/h | 5604m | -6.8m/s | -17.8°C | 38.6% | 504.8hPa | 2.6V | 07:57:54 | 03:17:50 | 00:00:00 | i |
| BIOWL1-15 | 2026-08-31 13:48:12 | 51.06120 | 5.86608 | 103° | 77km/h | 5669m | -6.8m/s | -18.3°C | 39.6% | 500.3hPa | 2.5V | 07:57:54 | 03:17:40 | 00:00:00 | i |
| DO1YAY-16 | 2026-08-31 13:48:11 | 51.06117 | 5.86636 | 96° | 62km/h | 5662m | -6.5m/s | -18.2°C | 35.9% | 500.8hPa | 2.5V | 00:00:00 | 00:00:00 | 00:00:00 | |
| DM0DOS-11 | 2026-08-31 13:48:07 | 51.06121 | 5.86468 | 77° | 77km/h | 5695m | -6.6m/s | -18.5°C | 35.8% | 498.6hPa | 2.5V | 07:57:30 | 03:17:36 | 00:00:00 | i |
| BIOWL1-15 | 2026-08-31 13:48:00 | 51.06126 | 5.86279 | 84° | 93km/h | 5734m | -6.7m/s | -18.9°C | 41.5% | 495.9hPa | 2.5V | 07:57:54 | 03:17:30 | 00:00:00 | i |
| DD1CC3-15 | 2026-08-31 13:47:59 | 51.06125 | 5.86279 | 85° | 93km/h | 5735m | -6.7m/s | -18.9°C | 37.2% | 495.9hPa | 2.5V | 07:57:00 | 00:00:00 | 00:00:00 | |
| DM0DOS-11 | 2026-08-31 13:47:57 | 51.06132 | 5.86129 | 102° | 89km/h | 5768m | -6.9m/s | -19.3°C | 44.8% | 493.8hPa | 2.5V | 07:57:41 | 03:17:25 | 00:00:00 | i |
| BIOWL1-15 | 2026-08-31 13:47:50 | 51.06140 | 5.85907 | 101° | 91km/h | 5814m | -6.5m/s | -19.8°C | 48.9% | 490.7hPa | 2.6V | 07:57:54 | 03:17:18 | 00:00:00 | i |
| DM0DOS-11 | 2026-08-31 13:47:47 | 51.06139 | 5.85802 | 83° | 69km/h | 5833m | -6.6m/s | -19.9°C | 52.5% | 489.3hPa | 2.5V | 07:57:51 | 03:17:15 | 00:00:00 | i |
| HTAHTA | 2026-08-31 13:47:46 | 51.06139 | 5.85802 | 83° | 69km/h | 5833m | -6.6m/s | -19.9°C | 51.2% | 489.3hPa | 2.6V | 00:00:00 | 00:00:00 | 00:00:00 | |
| DL8DAS-14 | 2026-08-31 13:47:44 | 51.06139 | 5.85775 | 96° | 62km/h | 5840m | -6.3m/s | -19.9°C | 51.6% | 489.0hPa | 2.6V | 00:00:00 | 00:00:00 | 00:00:00 | |
| BIOWL1-15 | 2026-08-31 13:47:38 | 51.06149 | 5.85580 | 87° | 66km/h | 5879m | -6.7m/s | -20.2°C | 55.5% | 486.4hPa | 2.6V | 07:58:45 | 03:17:08 | 00:00:00 | i |
| DM0DOS-11 | 2026-08-31 13:47:38 | 51.06160 | 5.85493 | 102° | 95km/h | 5899m | -6.2m/s | -20.4°C | 52.6% | 485.1hPa | 2.5V | 07:58:01 | 03:17:05 | 00:00:00 | i |
| BIOWL1-15 | 2026-08-31 13:47:27 | 51.06178 | 5.85139 | 86° | 88km/h | 5963m | -6.4m/s | -20.8°C | 49.6% | 480.8hPa | 2.5V | 07:58:45 | 03:16:55 | 00:00:00 | i |
| DM0DOS-11 | 2026-08-31 13:47:27 | 51.06178 | 5.85139 | 85° | 88km/h | 5963m | -6.4m/s | -20.8°C | 47% | 480.8hPa | 2.5V | 07:58:11 | 03:16:55 | 00:00:00 | i |
| WPPR-10 | 2026-08-31 13:47:23 | 51.06179 | 5.85078 | 102° | 68km/h | 5976m | -6.1m/s | -20.9°C | 45.7% | 480.2hPa | 2.5V | 00:00:00 | 00:00:00 | 00:00:00 | |
| DJ2KF-10 | 2026-08-31 13:47:21 | 51.06190 | 5.85014 | 104° | 88km/h | 5989m | -6.4m/s | -21.0°C | 47.5% | 479.2hPa | 2.5V | 00:00:00 | 03:16:51 | 00:00:00 | |
| DD1CC3-15 | 2026-08-31 13:47:18 | 51.06195 | 5.84935 | 88° | 95km/h | 6001m | -6.0m/s | -21.1°C | 46.0% | 478.5hPa | 2.5V | 07:58:00 | 00:00:00 | 00:00:00 | |
| DM0DOS-11 | 2026-08-31 13:47:17 | 51.06199 | 5.84812 | 108° | 84km/h | 6027m | -6.2m/s | -21.4°C | 47.2% | 476.8hPa | 2.5V | 07:58:21 | 03:16:45 | 00:00:00 | i |
| BIOWL1-15 | 2026-08-31 13:47:16 | 51.06206 | 5.84777 | 104° | 99km/h | 6033m | -6.1m/s | -21.5°C | 49.5% | 476.4hPa | 2.6V | 07:58:45 | 03:16:44 | 00:00:00 | i |
| HTAHTA | 2026-08-31 13:47:15 | 51.06199 | 5.84812 | 108° | 84km/h | 6027m | -6.2m/s | -21.4°C | 45.9% | 476.8hPa | 2.5V | 00:00:00 | 00:00:00 | 00:00:00 | |
| BIOWL9-15 | 2026-08-31 13:47:13 | 51.06211 | 5.84697 | 89° | 93km/h | 6046m | -6.5m/s | -21.5°C | 44.3% | 475.6hPa | 2.5V | 00:00:00 | 00:00:00 | 00:00:00 | |
| DO1YAY-16 | 2026-08-31 13:47:09 | 51.06214 | 5.84605 | 107° | 73km/h | 6064m | -6.1m/s | -21.6°C | 42.1% | 474.4hPa | 2.5V | 00:00:00 | 00:00:00 | 00:00:00 | |
| DM0DOS-11 | 2026-08-31 13:47:07 | 51.06231 | 5.84460 | 87° | 93km/h | 6090m | -6.2m/s | -21.8°C | 43.4% | 472.6hPa | 2.5V | 07:58:31 | 03:16:35 | 00:00:00 | i |
| BIOWL1-15 | 2026-08-31 13:47:05 | 51.06231 | 5.84460 | 88° | 93km/h | 6090m | -6.2m/s | -21.8°C | 46.2% | 472.6hPa | 2.5V | 07:58:45 | 03:16:35 | 00:00:00 | i |
| DD1CC9-15 | 2026-08-31 13:47:02 | 51.06230 | 5.84396 | 96° | 68km/h | 6102m | -6.6m/s | -21.8°C | 42.8% | 471.9hPa | 2.6V | 07:58:00 | 00:00:00 | 00:00:00 | |
| DM0DOS-11 | 2026-08-31 13:47:00 | 51.06252 | 5.84122 | 106° | 82km/h | 6152m | -6.2m/s | -22.2°C | 50.9% | 468.7hPa | 2.6V | 07:58:41 | 03:16:25 | 00:00:00 | i |
| BIOWL1-15 | 2026-08-31 13:46:54 | 51.06264 | 5.84005 | 89° | 102km/h | 6171m | -6.2m/s | -22.3°C | 53.8% | 467.5hPa | 2.6V | 07:58:45 | 03:16:22 | 00:00:00 | |
| DJ2DS-15 | 2026-08-31 13:46:53 | 51.06264 | 5.84005 | 88° | 102km/h | 6171m | -6.2m/s | -22.3°C | 49.4% | 467.5hPa | 2.6V | 00:00:00 | 00:00:00 | 00:00:00 | |
| DJ2KF-10 | 2026-08-31 13:46:51 | 51.06263 | 5.83967 | 85° | 93km/h | 6177m | -6.2m/s | -22.4°C | 50.6% | 467.0hPa | 2.6V | 00:00:00 | 03:16:21 | 00:00:00 | |
| DM0DOS-11 | 2026-08-31 13:46:47 | 51.06277 | 5.83751 | 88° | 108km/h | 6215m | -6.6m/s | -22.7°C | 47.9% | 464.7hPa | 2.6V | 07:58:51 | 03:16:15 | 00:00:00 | i |
| BIOWL1-15 | 2026-08-31 13:46:42 | 51.06275 | 5.83644 | 99° | 78km/h | 6234m | -6.2m/s | -22.8°C | 48.9% | 463.4hPa | 2.5V | 07:59:36 | 03:16:12 | 00:00:00 | i |
| DD1CC9-15 | 2026-08-31 13:46:41 | 51.06275 | 5.83644 | 100° | 78km/h | 6234m | -6.2m/s | -22.8°C | 43.9% | 463.4hPa | 2.5V | 07:59:00 | 00:00:00 | 00:00:00 | |
| DO1YAY-16 | 2026-08-31 13:46:38 | 51.06288 | 5.83486 | 86° | 104km/h | 6259m | -6.5m/s | -23.0°C | 47.1% | 461.9hPa | 2.5V | 00:00:00 | 00:00:00 | 00:00:00 | |
| DM0DOS-11 | 2026-08-31 13:46:37 | 51.06286 | 5.83383 | 100° | 78km/h | 6278m | -6.2m/s | -23.2°C | 49.9% | 460.6hPa | 2.5V | 07:59:01 | 03:16:05 | 00:00:00 | i |
| BIOWL1-15 | 2026-08-31 13:46:34 | 51.06298 | 5.83266 | 91° | 110km/h | 6297m | -6.4m/s | -23.3°C | 53.6% | 459.6hPa | 2.6V | 07:59:36 | 03:16:02 | 00:00:00 | i |
| DJ3KS | 2026-08-31 13:46:30 | 51.06297 | 5.83224 | 86° | 100km/h | 6304m | -6.4m/s | -23.4°C | 49.7% | 459.1hPa | 2.6V | 00:00:00 | 00:00:00 | 00:00:00 | |
| DL8DAS-15 | 2026-08-31 13:46:29 | 51.06295 | 5.83188 | 86° | 84km/h | 6310m | -6.1m/s | -23.4°C | 49.6% | 458.7hPa | 2.6V | 00:00:00 | 00:00:00 | 00:00:00 | |
| DM0DOS-11 | 2026-08-31 13:46:27 | 51.06307 | 5.83002 | 85° | 104km/h | 6341m | -6.3m/s | -23.7°C | 52.1% | 456.8hPa | 2.6V | 07:59:11 | 03:15:55 | 00:00:00 | i |
| BIOWL1-15 | 2026-08-31 13:46:21 | 51.06306 | 5.82865 | 102° | 89km/h | 6367m | -5.9m/s | -24°C | 55.4% | 455.1hPa | 2.5V | 07:59:36 | 03:15:51 | 00:00:00 | i |
| BIOWL1-15 | 2026-08-31 13:46:12 | 51.06315 | 5.82448 | 83° | 80km/h | 6436m | -6.6m/s | -24.5°C | 57.6% | 450.9hPa | 2.6V | 07:59:36 | 03:15:40 | 00:00:00 | i |
| BIOWL9-15 | 2026-08-31 13:46:11 | 51.06315 | 5.82448 | 83° | 80km/h | 6436m | -6.6m/s | -24.5°C | 52.5% | 450.9hPa | 2.6V | 00:00:00 | 00:00:00 | 00:00:00 | |
| DM0DOS-11 | 2026-08-31 13:46:07 | 51.06326 | 5.82265 | 86° | 108km/h | 6468m | -6.4m/s | -24.8°C | 53.3% | 448.9hPa | 2.6V | 07:59:31 | 03:15:35 | 00:00:00 | i |
| BIOWL1-15 | 2026-08-31 13:45:59 | 51.06329 | 5.82050 | 93° | 110km/h | 6506m | -6.2m/s | -25°C | 54.6% | 446.6hPa | 2.5V | 08:00:27 | 03:15:29 | 00:00:00 | i |
| DM0DOS-11 | 2026-08-31 13:45:56 | 51.06323 | 5.81904 | 97° | 75km/h | 6531m | -6.5m/s | -25.2°C | 50.8% | 445.1hPa | 2.6V | 07:59:41 | 03:15:25 | 00:00:00 | i |
| BIOWL1-15 | 2026-08-31 13:45:50 | 51.06326 | 5.81652 | 98° | 77km/h | 6575m | -6.2m/s | -25.6°C | 54.4% | 442.3hPa | 2.5V | 08:00:27 | 03:15:18 | 00:00:00 | i |
| DM0DOS-11 | 2026-08-31 13:45:47 | 51.06335 | 5.81537 | 89° | 106km/h | 6594m | -6.8m/s | -25.8°C | 51.6% | 441.2hPa | 2.6V | 07:59:51 | 03:15:15 | 00:00:00 | i |
| HTAHTA | 2026-08-31 13:45:42 | 51.06333 | 5.81402 | 102° | 80km/h | 6619m | -6.8m/s | -26.1°C | 50.5% | 439.7hPa | 2.6V | 00:00:00 | 00:00:00 | 00:00:00 | |
| DJ2DS-15 | 2026-08-31 13:45:41 | 51.06338 | 5.81367 | 102° | 95km/h | 6626m | -6.5m/s | -26.2°C | 50.8% | 439.3hPa | 2.6V | 00:00:00 | 00:00:00 | 00:00:00 | |
| BIOWL9-15 | 2026-08-31 13:45:40 | 51.06342 | 5.81327 | 95° | 106km/h | 6632m | -6.4m/s | -26.2°C | 51.2% | 438.8hPa | 2.6V | 00:00:00 | 00:00:00 | 00:00:00 | |
| BIOWL7-15 | 2026-08-31 13:45:38 | 51.06342 | 5.81327 | 96° | 106km/h | 6632m | -6.4m/s | -26.2°C | 51.2% | 438.8hPa | 2.6V | 00:00:00 | 00:00:00 | 00:00:00 | |
| DM0DOS-11 | 2026-08-31 13:45:37 | 51.06337 | 5.81181 | 94° | 73km/h | 6658m | -6.2m/s | -26.4°C | 53.7% | 437.2hPa | 2.6V | 08:00:01 | 03:15:05 | 00:00:00 | i |
| BIOWL1-15 | 2026-08-31 13:45:37 | 51.06336 | 5.81181 | 94° | 73km/h | 6658m | -6.2m/s | -26.4°C | 57.4% | 437.3hPa | 2.6V | 08:00:27 | 03:15:05 | 00:00:00 | i |
| DO1YAY-16 | 2026-08-31 13:45:36 | 51.06337 | 5.81211 | 82° | 77km/h | 6652m | -6.6m/s | -26.3°C | 51.5% | 437.7hPa | 2.6V | 00:00:00 | 00:00:00 | 00:00:00 | |
| DD1CC3-15 | 2026-08-31 13:45:35 | 51.06337 | 5.81211 | 84° | 78km/h | 6652m | -6.6m/s | -26.3°C | 51.5% | 437.7hPa | 2.6V | 08:00:00 | 00:00:00 | 00:00:00 | |
| DD1CC1-15 | 2026-08-31 13:45:32 | 51.06345 | 5.81114 | 102° | 99km/h | 6670m | -6.7m/s | -26.6°C | 52.3% | 436.5hPa | 2.6V | 08:00:00 | 00:00:00 | 00:00:00 | |
| DM0DOS-11 | 2026-08-31 13:45:28 | 51.06352 | 5.80823 | 91° | 106km/h | 6722m | -6.6m/s | -27°C | 56.3% | 433.4hPa | 2.6V | 08:00:11 | 03:14:55 | 00:00:00 | i |
| BIOWL1-15 | 2026-08-31 13:45:27 | 51.06345 | 5.80900 | 102° | 84km/h | 6709m | -6.7m/s | -26.9°C | 59% | 434.2hPa | 2.6V | 08:00:27 | 03:14:57 | 00:00:00 | |
| DJ2KF-10 | 2026-08-31 13:45:21 | 51.06346 | 5.80683 | 99° | 88km/h | 6748m | -6.3m/s | -27.2°C | 56.8% | 431.8hPa | 2.6V | 00:00:00 | 03:14:51 | 00:00:00 | |
| WPPR-10 | 2026-08-31 13:45:19 | 51.06354 | 5.80614 | 98° | 99km/h | 6761m | -6.8m/s | -27.5°C | 55.4% | 431.0hPa | 2.6V | 00:00:00 | 00:00:00 | 00:00:00 | |
| DD1CC9-15 | 2026-08-31 13:45:18 | 51.06354 | 5.80614 | 99° | 100km/h | 6761m | -6.8m/s | -27.4°C | 55.4% | 431.0hPa | 2.6V | 08:00:00 | 00:00:00 | 00:00:00 | |
| DM0DOS-11 | 2026-08-31 13:45:17 | 51.06348 | 5.80467 | 87° | 71km/h | 6787m | -6.9m/s | -27.6°C | 57.6% | 429.5hPa | 2.6V | 08:00:21 | 03:14:45 | 00:00:00 | i |
| BIOWL1-15 | 2026-08-31 13:45:16 | 51.06349 | 5.80438 | 99° | 73km/h | 6794m | -6.6m/s | -27.7°C | 60.3% | 429.1hPa | 2.6V | 08:00:27 | 03:14:44 | 00:00:00 | i |
| DD1CC3-15 | 2026-08-31 13:45:13 | 51.06349 | 5.80438 | 100° | 73km/h | 6794m | -6.6m/s | -27.7°C | 55.3% | 429.1hPa | 2.5V | 08:00:00 | 00:00:00 | 00:00:00 | |
| DD1CC1-15 | 2026-08-31 13:45:12 | 51.06353 | 5.80406 | 104° | 89km/h | 6800m | -6.6m/s | -27.8°C | 55.6% | 428.8hPa | 2.5V | 08:00:00 | 00:00:00 | 00:00:00 | |
| HTAHTA | 2026-08-31 13:45:11 | 51.06357 | 5.80287 | 81° | 97km/h | 6820m | -6.5m/s | -27.9°C | 53.4% | 427.6hPa | 2.5V | 00:00:00 | 00:00:00 | 00:00:00 | |
| BIOWL9-15 | 2026-08-31 13:45:09 | 51.06351 | 5.80221 | 88° | 71km/h | 6833m | -6.7m/s | -28.1°C | 53.1% | 426.7hPa | 2.5V | 00:00:00 | 00:00:00 | 00:00:00 | |
| DM0DOS-11 | 2026-08-31 13:45:07 | 51.06362 | 5.80121 | 98° | 102km/h | 6852m | -6.2m/s | -28.3°C | 52.9% | 425.7hPa | 2.5V | 08:00:31 | 03:14:35 | 00:00:00 | |
| BIOWL1-15 | 2026-08-31 13:45:06 | 51.06364 | 5.80080 | 92° | 106km/h | 6858m | -6.7m/s | -28.3°C | 52.9% | 425.2hPa | 2.5V | 08:01:18 | 03:14:34 | 00:00:00 | i |
| BIOWL1-15 | 2026-08-31 13:44:58 | 51.06374 | 5.79802 | 85° | 93km/h | 6911m | -6.9m/s | -28.6°C | 30% | 422.2hPa | 2.6V | 08:01:18 | 03:14:26 | 00:00:00 | i |
| DM0DOS-11 | 2026-08-31 13:44:57 | 51.06371 | 5.79768 | 83° | 77km/h | 6918m | -6.5m/s | -28.6°C | 25.8% | 421.8hPa | 2.5V | 08:00:41 | 03:14:25 | 00:00:00 | i |
| WPPR-10 | 2026-08-31 13:44:48 | 51.06382 | 5.79529 | 81° | 73km/h | 6964m | -6.9m/s | -28.8°C | 21.4% | 419.1hPa | 2.6V | 00:00:00 | 00:00:00 | 00:00:00 | |
| DM0DOS-11 | 2026-08-31 13:44:47 | 51.06389 | 5.79439 | 102° | 91km/h | 6984m | -6.8m/s | -29°C | 22.1% | 417.9hPa | 2.6V | 08:00:51 | 03:14:15 | 00:00:00 | i |
| BIOWL1-15 | 2026-08-31 13:44:46 | 51.06384 | 5.79472 | 104° | 77km/h | 6977m | -6.5m/s | -29°C | 25.6% | 418.2hPa | 2.5V | 08:01:18 | 03:14:16 | 00:00:00 | i |
| BIOWL7-15 | 2026-08-31 13:44:44 | 51.06389 | 5.79439 | 104° | 91km/h | 6984m | -6.8m/s | -29.0°C | 20.8% | 417.9hPa | 2.5V | 00:00:00 | 00:00:00 | 00:00:00 | |
| HTAHTA | 2026-08-31 13:44:40 | 51.06395 | 5.79237 | 105° | 84km/h | 7024m | -6.8m/s | -29.3°C | 22.3% | 415.5hPa | 2.5V | 00:00:00 | 00:00:00 | 00:00:00 | |
| DL8DAS-14 | 2026-08-31 13:44:38 | 51.06400 | 5.79202 | 100° | 97km/h | 7031m | -7.2m/s | -29.4°C | 22.6% | 415.1hPa | 2.5V | 00:00:00 | 00:00:00 | 00:00:00 | |
| DM0DOS-11 | 2026-08-31 13:44:37 | 51.06398 | 5.79092 | 82° | 73km/h | 7051m | -6.7m/s | -29.4°C | 24.7% | 413.9hPa | 2.5V | 08:01:01 | 03:14:05 | 00:00:00 | i |
| BIOWL1-15 | 2026-08-31 13:44:36 | 51.06401 | 5.79125 | 83° | 89km/h | 7045m | -6.7m/s | -29.4°C | 28.2% | 414.3hPa | 2.5V | 08:01:18 | 03:14:06 | 00:00:00 | i |
| DD1CC1-15 | 2026-08-31 13:44:31 | 51.06406 | 5.79006 | 105° | 89km/h | 7072m | -6.7m/s | -29.7°C | 24.0% | 412.8hPa | 2.5V | 08:01:00 | 00:00:00 | 00:00:00 | |
| DJ2DS-15 | 2026-08-31 13:44:29 | 51.06407 | 5.78863 | 84° | 68km/h | 7098m | -6.8m/s | -29.9°C | 24.7% | 411.2hPa | 2.5V | 00:00:00 | 00:00:00 | 00:00:00 | |
| DM0DOS-11 | 2026-08-31 13:44:27 | 51.06417 | 5.78777 | 104° | 89km/h | 7119m | -6.9m/s | -30.1°C | 27.5% | 410.1hPa | 2.5V | 08:01:11 | 03:13:55 | 00:00:00 | |
| BIOWL1-15 | 2026-08-31 13:44:25 | 51.06417 | 5.78777 | 105° | 91km/h | 7119m | -6.9m/s | -30.1°C | 31.3% | 410.1hPa | 2.5V | 08:01:18 | 03:13:55 | 00:00:00 | i |
| BIOWL1-15 | 2026-08-31 13:44:19 | 51.06428 | 5.78436 | 81° | 77km/h | 7186m | -6.9m/s | -30.5°C | 28.5% | 406.2hPa | 2.5V | 08:02:09 | 03:13:45 | 00:00:00 | i |
| DM0DOS-11 | 2026-08-31 13:44:17 | 51.06429 | 5.78436 | 81° | 77km/h | 7186m | -6.9m/s | -30.5°C | 24.6% | 406.1hPa | 2.5V | 08:01:21 | 03:13:45 | 00:00:00 | i |
| DD1CC9-15 | 2026-08-31 13:44:16 | 51.06432 | 5.78507 | 93° | 100km/h | 7173m | -6.7m/s | -30.5°C | 23.6% | 406.9hPa | 2.6V | 08:02:00 | 00:00:00 | 00:00:00 | |
| MET0W-2 | 2026-08-31 13:44:13 | 51.06434 | 5.78350 | 105° | 86km/h | 7206m | -7.0m/s | -30.8°C | 22.7% | 405.0hPa | 2.6V | 00:00:00 | 00:00:00 | 00:00:00 | |
| DD1CC1-15 | 2026-08-31 13:44:10 | 51.06439 | 5.78313 | 99° | 99km/h | 7213m | -6.7m/s | -30.8°C | 22.9% | 404.6hPa | 2.6V | 08:02:00 | 00:00:00 | 00:00:00 | |
| HTAHTA | 2026-08-31 13:44:09 | 51.06436 | 5.78208 | 85° | 68km/h | 7234m | -7.1m/s | -30.9°C | 22.2% | 403.4hPa | 2.6V | 00:00:00 | 00:00:00 | 00:00:00 | |
| DM0DOS-11 | 2026-08-31 13:44:07 | 51.06446 | 5.78121 | 103° | 91km/h | 7254m | -6.9m/s | -31.2°C | 24.2% | 402.2hPa | 2.6V | 08:01:31 | 03:13:35 | 00:00:00 | i |
| BIOWL1-15 | 2026-08-31 13:44:04 | 51.06450 | 5.78084 | 93° | 97km/h | 7261m | -6.3m/s | -31.2°C | 27.8% | 402hPa | 2.5V | 08:02:09 | 03:13:34 | 00:00:00 | i |
| DO1YAY-16 | 2026-08-31 13:44:03 | 51.06447 | 5.78014 | 82° | 73km/h | 7274m | -7.2m/s | -31.3°C | 22.7% | 401.2hPa | 2.6V | 00:00:00 | 00:00:00 | 00:00:00 | |
| DM0DOS-11 | 2026-08-31 13:43:57 | 51.06458 | 5.77788 | 86° | 68km/h | 7322m | -6.8m/s | -31.7°C | 25.1% | 398.5hPa | 2.6V | 08:01:41 | 03:13:25 | 00:00:00 | i |
| BIOWL1-15 | 2026-08-31 13:43:53 | 51.06464 | 5.77735 | 110° | 77km/h | 7335m | -7m/s | -31.9°C | 29.3% | 397.7hPa | 2.5V | 08:02:09 | 03:13:23 | 00:00:00 | i |
| DJ2DS-15 | 2026-08-31 13:43:53 | 51.06471 | 5.77703 | 105° | 91km/h | 7342m | -6.8m/s | -32.0°C | 24.1% | 397.3hPa | 2.5V | 00:00:00 | 00:00:00 | 00:00:00 | i |
| DJ2KF-10 | 2026-08-31 13:43:51 | 51.06475 | 5.77665 | 97° | 82km/h | 7349m | -6.7m/s | -32.0°C | 25.9% | 396.9hPa | 2.5V | 08:01:00 | 03:13:21 | 00:00:00 | |
| DD1CC1-15 | 2026-08-31 13:43:49 | 51.06476 | 5.77627 | 89° | 95km/h | 7356m | -6.9m/s | -32.1°C | 24.2% | 396.6hPa | 2.6V | 08:02:00 | 00:00:00 | 00:00:00 | |
| DM0DOS-11 | 2026-08-31 13:43:47 | 51.06489 | 5.77474 | 103° | 97km/h | 7390m | -7m/s | -32.4°C | 25.9% | 394.2hPa | 2.6V | 08:01:51 | 03:13:15 | 00:00:00 | i |
| BIOWL1-15 | 2026-08-31 13:43:42 | 51.06492 | 5.77368 | 87° | 69km/h | 7411m | -7m/s | -32.5°C | 29.5% | 393.5hPa | 2.5V | 08:02:09 | 03:13:12 | 00:00:00 | i |
| BIOWL7-15 | 2026-08-31 13:43:41 | 51.06492 | 5.77368 | 88° | 69km/h | 7411m | -7.0m/s | -32.5°C | 24.0% | 393.5hPa | 2.5V | 08:02:00 | 00:00:00 | 00:00:00 | |
| DM0DOS-11 | 2026-08-31 13:43:37 | 51.06511 | 5.77143 | 90° | 64km/h | 7459m | -6.8m/s | -32.9°C | 25.3% | 390.9hPa | 2.5V | 08:02:01 | 03:13:05 | 00:00:00 | i |
| BIOWL1-15 | 2026-08-31 13:43:32 | 51.06526 | 5.77055 | 106° | 97km/h | 7480m | -6.9m/s | -33.2°C | 28.9% | 389.6hPa | 2.5V | 08:02:09 | 03:13:02 | 00:00:00 | i |
| DO1YAY-16 | 2026-08-31 13:43:32 | 51.06531 | 5.77017 | 96° | 99km/h | 7487m | -7.0m/s | -33.2°C | 23.8% | 389.2hPa | 2.5V | 00:00:00 | 00:00:00 | 00:00:00 | i |
| DD1CC1-15 | 2026-08-31 13:43:28 | 51.06530 | 5.76944 | 85° | 78km/h | 7501m | -7.0m/s | -33.3°C | 23.7% | 388.5hPa | 2.5V | 08:02:00 | 00:00:00 | 00:00:00 | |
| DM0DOS-11 | 2026-08-31 13:43:27 | 51.06544 | 5.76827 | 104° | 95km/h | 7528m | -6.8m/s | -33.6°C | 26.2% | 386.9hPa | 2.5V | 08:02:11 | 03:12:55 | 00:00:00 | i |
| BIOWL1-15 | 2026-08-31 13:43:21 | 51.06548 | 5.76693 | 98° | 62km/h | 7556m | -6.9m/s | -33.8°C | 30.2% | 385.4hPa | 2.5V | 08:03:00 | 03:12:51 | 00:00:00 | i |
| DJ2KF-10 | 2026-08-31 13:43:21 | 51.06548 | 5.76693 | 98° | 82km/h | 7556m | -6.8m/s | -33.7°C | 26.4% | 385.4hPa | 2.6V | 00:00:00 | 03:12:51 | 00:00:00 | i |
| BIOWL7-15 | 2026-08-31 13:43:20 | 51.06548 | 5.76693 | 99° | 62km/h | 7556m | -6.9m/s | -33.8°C | 24.6% | 385.4hPa | 2.6V | 00:00:00 | 00:00:00 | 00:00:00 | |
| DM0DOS-11 | 2026-08-31 13:43:17 | 51.06565 | 5.76496 | 87° | 68km/h | 7597m | -7.4m/s | -34.1°C | 26.5% | 383.2hPa | 2.6V | 08:02:21 | 03:12:45 | 00:00:00 | i |
| BIOWL1-15 | 2026-08-31 13:43:10 | 51.06582 | 5.76271 | 91° | 66km/h | 7646m | -6.9m/s | -34.5°C | 30.4% | 380.5hPa | 2.6V | 08:03:00 | 03:12:38 | 00:00:00 | i |
| DM0DOS-11 | 2026-08-31 13:43:07 | 51.06596 | 5.76180 | 101° | 99km/h | 7667m | -6.9m/s | -34.7°C | 25.4% | 379.3hPa | 2.5V | 08:02:31 | 03:12:35 | 00:00:00 | i |
| BIOWL1-15 | 2026-08-31 13:42:59 | 51.06617 | 5.75909 | 92° | 99km/h | 7722m | -7m/s | -35.1°C | 28.2% | 376.2hPa | 2.5V | 08:03:00 | 03:12:27 | 00:00:00 | i |
| DM0DOS-11 | 2026-08-31 13:42:57 | 51.06615 | 5.75839 | 86° | 75km/h | 7737m | -7.4m/s | -35.2°C | 24.7% | 375.5hPa | 2.5V | 08:02:41 | 03:12:25 | 00:00:00 | i |
| BIOWL1-15 | 2026-08-31 13:42:48 | 51.06644 | 5.75553 | 110° | 86km/h | 7799m | -7.1m/s | -35.8°C | 28.1% | 372.2hPa | 2.5V | 08:03:00 | 03:12:16 | 00:00:00 | i |
| DM0DOS-11 | 2026-08-31 13:42:47 | 51.06651 | 5.75518 | 103° | 99km/h | 7806m | -7.2m/s | -35.9°C | 25.1% | 371.8hPa | 2.6V | 08:02:51 | 03:12:15 | 00:00:00 | i |
| DJ2DS-15 | 2026-08-31 13:42:40 | 51.06657 | 5.75352 | 108° | 73km/h | 7842m | -7.0m/s | -36.2°C | 23.9% | 369.9hPa | 2.5V | 00:00:00 | 00:00:00 | 00:00:00 | |
| MET0W-2 | 2026-08-31 13:42:39 | 51.06664 | 5.75320 | 108° | 91km/h | 7849m | -6.9m/s | -36.3°C | 24.2% | 369.5hPa | 2.5V | 00:00:00 | 00:00:00 | 00:00:00 | |
| DM0DOS-11 | 2026-08-31 13:42:37 | 51.06672 | 5.75174 | 89° | 69km/h | 7876m | -7.3m/s | -36.5°C | 26% | 368.1hPa | 2.5V | 08:03:01 | 03:12:05 | 00:00:00 | i |
| BIOWL1-15 | 2026-08-31 13:42:35 | 51.06671 | 5.75174 | 89° | 69km/h | 7876m | -7.3m/s | -36.5°C | 29.8% | 368.1hPa | 2.5V | 08:03:51 | 03:12:05 | 00:00:00 | i |
| DD1CC9-15 | 2026-08-31 13:42:34 | 51.06671 | 5.75173 | 90° | 71km/h | 7876m | -7.3m/s | -36.5°C | 24.0% | 368.1hPa | 2.5V | 08:03:00 | 00:00:00 | 00:00:00 | |
| BIOWL9-15 | 2026-08-31 13:42:33 | 51.06678 | 5.75118 | 109° | 78km/h | 7891m | -6.8m/s | -36.6°C | 24.4% | 367.3hPa | 2.5V | 00:00:00 | 00:00:00 | 00:00:00 | |
| DO1YAY-16 | 2026-08-31 13:42:30 | 51.06694 | 5.74969 | 86° | 82km/h | 7918m | -7.0m/s | -36.8°C | 24.5% | 365.8hPa | 2.5V | 00:00:00 | 00:00:00 | 00:00:00 | |
| BIOWL7-15 | 2026-08-31 13:42:28 | 51.06693 | 5.74969 | 88° | 82km/h | 7918m | -7.0m/s | -36.8°C | 24.5% | 365.8hPa | 2.5V | 00:00:00 | 00:00:00 | 00:00:00 | |
| DM0DOS-11 | 2026-08-31 13:42:27 | 51.06711 | 5.74848 | 106° | 100km/h | 7946m | -6.8m/s | -37.2°C | 27.1% | 364.3hPa | 2.5V | 08:03:11 | 03:11:55 | 00:00:00 | i |
| BIOWL1-15 | 2026-08-31 13:42:24 | 51.06716 | 5.74808 | 97° | 104km/h | 7953m | -7.2m/s | -37.2°C | 30.2% | 364hPa | 2.6V | 08:03:51 | 03:11:54 | 00:00:00 | i |
| DJ2KF-10 | 2026-08-31 13:42:21 | 51.06719 | 5.74707 | 100° | 84km/h | 7974m | -6.8m/s | -37.3°C | 26.1% | 362.9hPa | 2.5V | 00:00:00 | 03:11:51 | 00:00:00 | |
| DD1CC8 | 2026-08-31 13:42:19 | 51.06737 | 5.74617 | 104° | 97km/h | 7995m | -6.6m/s | -37.6°C | 23.9% | 361.7hPa | 2.5V | 00:00:00 | 00:00:00 | 00:00:00 | |
| DM0DOS-11 | 2026-08-31 13:42:17 | 51.06740 | 5.74506 | 85° | 77km/h | 8016m | -7.7m/s | -37.6°C | 24.7% | 360.8hPa | 2.5V | 08:03:21 | 03:11:45 | 00:00:00 | i |
| BIOWL1-15 | 2026-08-31 13:42:15 | 51.06758 | 5.74239 | 97° | 64km/h | 8072m | -7.5m/s | -37.9°C | 27% | 357.7hPa | 2.6V | 08:03:51 | 03:11:37 | 00:00:00 | i |
| DD1CC9-15 | 2026-08-31 13:42:13 | 51.06740 | 5.74477 | 97° | 69km/h | 8023m | -7.0m/s | -37.6°C | 22.1% | 360.3hPa | 2.5V | 08:03:00 | 00:00:00 | 00:00:00 | |
| WEDDY | 2026-08-31 13:42:10 | 51.06757 | 5.74378 | 101° | 104km/h | 8043m | -7.3m/s | -37.8°C | 22.2% | 359.3hPa | 2.5V | 00:00:00 | 00:00:00 | 00:00:00 | |
| MET0W-2 | 2026-08-31 13:42:08 | 51.06758 | 5.74267 | 85° | 71km/h | 8064m | -7.2m/s | -37.9°C | 21.6% | 358.2hPa | 2.5V | 00:00:00 | 00:00:00 | 00:00:00 | |
| DM0DOS-11 | 2026-08-31 13:42:07 | 51.06768 | 5.74182 | 108° | 89km/h | 8086m | -6.8m/s | -38.1°C | 23.9% | 357hPa | 2.5V | 08:03:31 | 03:11:35 | 00:00:00 | i |
| BIOWL1-15 | 2026-08-31 13:42:03 | 51.06777 | 5.74105 | 91° | 99km/h | 8100m | -7.4m/s | -38.1°C | 26.9% | 356.3hPa | 2.6V | 08:03:51 | 03:11:33 | 00:00:00 | i |
| BIOWL9-15 | 2026-08-31 13:42:02 | 51.06776 | 5.74068 | 84° | 86km/h | 8107m | -7.1m/s | -38.2°C | 21.7% | 355.9hPa | 2.6V | 00:00:00 | 00:00:00 | 00:00:00 | |
| DO1YAY-16 | 2026-08-31 13:41:59 | 51.06787 | 5.73950 | 105° | 93km/h | 8135m | -6.9m/s | -38.5°C | 21.8% | 354.4hPa | 2.6V | 00:00:00 | 00:00:00 | 00:00:00 | |
| DM0DOS-11 | 2026-08-31 13:41:57 | 51.06790 | 5.73838 | 83° | 80km/h | 8156m | -7.8m/s | -38.6°C | 24.1% | 353.4hPa | 2.6V | 08:03:41 | 03:11:25 | 00:00:00 | i |
| BIOWL1-15 | 2026-08-31 13:41:49 | 51.06804 | 5.73591 | 97° | 58km/h | 8213m | -7.5m/s | -39°C | 27.8% | 350.6hPa | 2.6V | 08:03:51 | 03:11:17 | 00:00:00 | i |
| DD1CC8 | 2026-08-31 13:41:48 | 51.06804 | 5.73591 | 97° | 58km/h | 8213m | -7.5m/s | -39.0°C | 22.2% | 350.6hPa | 2.5V | 00:00:00 | 00:00:00 | 00:00:00 | |
| DM0DOS-11 | 2026-08-31 13:41:47 | 51.06813 | 5.73536 | 107° | 86km/h | 8227m | -6.9m/s | -39.2°C | 25.2% | 349.8hPa | 2.5V | 08:03:51 | 03:11:15 | 00:00:00 | i |
| BIOWL1-15 | 2026-08-31 13:41:37 | 51.06838 | 5.73286 | 92° | 91km/h | 8282m | -6.7m/s | -39.7°C | 29.1% | 346.9hPa | 2.5V | 08:04:42 | 03:11:07 | 00:00:00 | i |
| DM0DOS-11 | 2026-08-31 13:41:37 | 51.06835 | 5.73224 | 83° | 62km/h | 8296m | -7.3m/s | -39.8°C | 26.1% | 346.3hPa | 2.6V | 08:04:01 | 03:11:05 | 00:00:00 | i |
| HTAHTA | 2026-08-31 13:41:33 | 51.06846 | 5.73149 | 109° | 82km/h | 8316m | -6.8m/s | -40.1°C | 24.4% | 345.3hPa | 2.6V | 00:00:00 | 00:00:00 | 00:00:00 | |
| DL8DAS-14 | 2026-08-31 13:41:32 | 51.06851 | 5.73115 | 98° | 89km/h | 8323m | -7.2m/s | -40.1°C | 24.8% | 344.8hPa | 2.6V | 00:00:00 | 00:00:00 | 00:00:00 | |
| BIOWL9-15 | 2026-08-31 13:41:31 | 51.06851 | 5.73115 | 98° | 89km/h | 8323m | -7.2m/s | -40.1°C | 24.8% | 344.8hPa | 2.6V | 00:00:00 | 00:00:00 | 00:00:00 | |
| DJ2DS-15 | 2026-08-31 13:41:28 | 51.06849 | 5.73022 | 87° | 57km/h | 8344m | -7.1m/s | -40.2°C | 24.7% | 343.8hPa | 2.6V | 00:00:00 | 00:00:00 | 00:00:00 | |
| DM0DOS-11 | 2026-08-31 13:41:27 | 51.06862 | 5.72945 | 106° | 88km/h | 8365m | -6.6m/s | -40.5°C | 28.4% | 342.8hPa | 2.6V | 08:04:11 | 03:10:55 | 00:00:00 | i |
| BIOWL1-15 | 2026-08-31 13:41:26 | 51.06882 | 5.72672 | 82° | 77km/h | 8426m | -6.8m/s | -40.9°C | 32.3% | 339.7hPa | 2.5V | 08:04:42 | 03:10:46 | 00:00:00 | i |
| DD1CC1-15 | 2026-08-31 13:41:25 | 51.06856 | 5.72975 | 113° | 73km/h | 8358m | -6.7m/s | -40.4°C | 25.6% | 343.1hPa | 2.6V | 08:04:00 | 00:00:00 | 00:00:00 | |
| DJ2KF-10 | 2026-08-31 13:41:21 | 51.06864 | 5.72822 | 97° | 73km/h | 8391m | -6.6m/s | -40.6°C | 28.0% | 341.5hPa | 2.6V | 00:00:00 | 03:10:51 | 00:00:00 | |
| DM0DOS-11 | 2026-08-31 13:41:17 | 51.06880 | 5.72645 | 85° | 60km/h | 8433m | -7.2m/s | -40.8°C | 29.3% | 339.3hPa | 2.6V | 08:04:21 | 03:10:45 | 00:00:00 | i |
| BIOWL1-15 | 2026-08-31 13:41:13 | 51.06898 | 5.72537 | 100° | 93km/h | 8461m | -7m/s | -41°C | 34.3% | 337.9hPa | 2.5V | 08:04:42 | 03:10:41 | 00:00:00 | i |
| DD1CC9-15 | 2026-08-31 13:41:10 | 51.06898 | 5.72537 | 101° | 93km/h | 8461m | -7.0m/s | -41.0°C | 28.9% | 337.9hPa | 2.6V | 08:04:00 | 00:00:00 | 00:00:00 | |
| DM0DOS-11 | 2026-08-31 13:41:07 | 51.06914 | 5.72262 | 82° | 69km/h | 8524m | -7.2m/s | -41.5°C | 31.9% | 334.8hPa | 2.6V | 08:04:34 | 03:10:32 | 00:00:00 | |
| BIOWL1-15 | 2026-08-31 13:41:00 | 51.06942 | 5.71987 | 110° | 80km/h | 8594m | -7.3m/s | -42°C | 42.9% | 331.4hPa | 2.5V | 08:05:33 | 03:10:22 | 00:00:00 | i |
| BIOWL9-15 | 2026-08-31 13:41:00 | 51.06916 | 5.72215 | 109° | 58km/h | 8538m | -6.7m/s | -41.6°C | 29.9% | 334.2hPa | 2.5V | 00:00:00 | 00:00:00 | 00:00:00 | i |
| DM0DOS-11 | 2026-08-31 13:40:57 | 51.06942 | 5.71987 | 109° | 80km/h | 8594m | -7.3m/s | -42°C | 39.9% | 331.4hPa | 2.5V | 08:04:44 | 03:10:22 | 00:00:00 | i |
| BIOWL1-15 | 2026-08-31 13:40:51 | 51.06948 | 5.71887 | 83° | 71km/h | 8615m | -7.1m/s | -42.1°C | 47.8% | 330.4hPa | 2.6V | 08:05:33 | 03:10:19 | 00:00:00 | i |
| DJ2KF-10 | 2026-08-31 13:40:51 | 51.06947 | 5.71954 | 101° | 73km/h | 8601m | -6.7m/s | -42.0°C | 41.6% | 331.0hPa | 2.5V | 00:00:00 | 03:10:21 | 00:00:00 | i |
| DD1CC9-15 | 2026-08-31 13:40:50 | 51.06947 | 5.71954 | 101° | 89km/h | 8601m | -6.7m/s | -42.0°C | 38.4% | 331.1hPa | 2.6V | 08:05:00 | 00:00:00 | 00:00:00 | |
| DM0DOS-11 | 2026-08-31 13:40:46 | 51.06966 | 5.71665 | 98° | 53km/h | 8671m | -6.8m/s | -42.6°C | 55.2% | 327.7hPa | 2.6V | 08:04:55 | 03:10:11 | 00:00:00 | i |
| DD1CC8 | 2026-08-31 13:40:45 | 51.06961 | 5.71787 | 108° | 86km/h | 8643m | -6.8m/s | -42.4°C | 47.4% | 329.1hPa | 2.5V | 00:00:00 | 00:00:00 | 00:00:00 | |
| BIOWL1-15 | 2026-08-31 13:40:38 | 51.06985 | 5.71587 | 105° | 89km/h | 8692m | -7m/s | -42.8°C | 61.2% | 326.6hPa | 2.5V | 08:05:33 | 03:10:08 | 00:00:00 | i |
| BIOWL7-15 | 2026-08-31 13:40:37 | 51.06985 | 5.71587 | 106° | 89km/h | 8692m | -7.0m/s | -42.8°C | 54.9% | 326.6hPa | 2.6V | 00:00:00 | 00:00:00 | 00:00:00 | |
| BIOWL1-15 | 2026-08-31 13:40:28 | 51.07044 | 5.71076 | 117° | 75km/h | 8818m | -7.3m/s | -43.8°C | 60.7% | 320.6hPa | 2.6V | 08:05:33 | 03:09:50 | 00:00:00 | i |
| DD1CC3-15 | 2026-08-31 13:40:28 | 51.07016 | 5.71275 | 117° | 68km/h | 8769m | -7.1m/s | -43.3°C | 57.9% | 323.0hPa | 2.6V | 08:05:00 | 00:00:00 | 00:00:00 | i |
| DM0DOS-11 | 2026-08-31 13:40:25 | 51.07044 | 5.71076 | 117° | 75km/h | 8818m | -7.3m/s | -43.8°C | 56.9% | 320.6hPa | 2.6V | 08:05:16 | 03:09:50 | 00:00:00 | i |
| DD1CC1-15 | 2026-08-31 13:40:23 | 51.07033 | 5.71177 | 92° | 84km/h | 8790m | -7.4m/s | -43.5°C | 56.2% | 322.0hPa | 2.6V | 08:05:00 | 00:00:00 | 00:00:00 | |
| DJ2KF-10 | 2026-08-31 13:40:21 | 51.07037 | 5.71100 | 115° | 75km/h | 8811m | -6.9m/s | -43.6°C | 57.4% | 320.9hPa | 2.6V | 00:00:00 | 03:09:51 | 00:00:00 | |
| DJ2DS-15 | 2026-08-31 13:40:16 | 51.07059 | 5.70948 | 88° | 62km/h | 8847m | -7.8m/s | -43.9°C | 47.4% | 319.2hPa | 2.6V | 00:00:00 | 00:00:00 | 00:00:00 | |
| DM0DOS-11 | 2026-08-31 13:40:15 | 51.07084 | 5.70776 | 87° | 75km/h | 8895m | -8.5m/s | -44.4°C | 51.4% | 316.9hPa | 2.6V | 08:05:26 | 03:09:40 | 00:00:00 | i |
| BIOWL1-15 | 2026-08-31 13:40:14 | 51.07065 | 5.70904 | 118° | 64km/h | 8863m | -8.2m/s | -44.1°C | 54.6% | 318.5hPa | 2.6V | 08:05:33 | 03:09:44 | 00:00:00 | i |
| BIOWL1-15 | 2026-08-31 13:40:05 | 51.07115 | 5.70579 | 88° | 69km/h | 8949m | -7.9m/s | -44.8°C | 52.8% | 314.4hPa | 2.6V | 08:05:33 | 03:09:33 | 00:00:00 | i |
| DM0DOS-11 | 2026-08-31 13:40:05 | 51.07129 | 5.70507 | 117° | 78km/h | 8973m | -8.1m/s | -45.1°C | 47.4% | 313.3hPa | 2.5V | 08:05:36 | 03:09:30 | 00:00:00 | i |
| MET0W-2 | 2026-08-31 13:40:04 | 51.07115 | 5.70610 | 93° | 84km/h | 8941m | -7.5m/s | -44.8°C | 45.9% | 314.7hPa | 2.6V | 00:00:00 | 00:00:00 | 00:00:00 | |
| DD1CC1-15 | 2026-08-31 13:40:02 | 51.07115 | 5.70579 | 89° | 69km/h | 8949m | -7.9m/s | -44.8°C | 45.3% | 314.4hPa | 2.6V | 08:05:00 | 00:00:00 | 00:00:00 | |
| HTAHTA | 2026-08-31 13:40:00 | 51.07129 | 5.70507 | 117° | 78km/h | 8973m | -8.1m/s | -45.2°C | 43.5% | 313.3hPa | 2.6V | 00:00:00 | 00:00:00 | 00:00:00 | |
| BIOWL9-15 | 2026-08-31 13:39:58 | 51.07144 | 5.70405 | 89° | 80km/h | 8996m | -7.2m/s | -45.3°C | 41.9% | 312.2hPa | 2.6V | 00:00:00 | 00:00:00 | 00:00:00 | |
| DM0DOS-11 | 2026-08-31 13:39:55 | 51.07173 | 5.70191 | 89° | 73km/h | 9047m | -6.9m/s | -45.7°C | 36.2% | 309.7hPa | 2.6V | 08:05:46 | 03:09:20 | 00:00:00 | i |
| BIOWL1-15 | 2026-08-31 13:39:53 | 51.07162 | 5.70297 | 112° | 93km/h | 9025m | -7.2m/s | -45.7°C | 45.1% | 310.9hPa | 2.5V | 08:06:24 | 03:09:23 | 00:00:00 | i |
| DJ2KF-10 | 2026-08-31 13:39:51 | 51.07172 | 5.70224 | 94° | 82km/h | 9040m | -7.7m/s | -45.6°C | 37.7% | 310.1hPa | 2.5V | 00:00:00 | 03:09:21 | 00:00:00 | |
| DD1CC9-15 | 2026-08-31 13:39:47 | 51.07178 | 5.70141 | 115° | 66km/h | 9062m | -7.8m/s | -45.9°C | 31.1% | 309.1hPa | 2.5V | 08:06:00 | 00:00:00 | 00:00:00 | |
| DM0DOS-11 | 2026-08-31 13:39:45 | 51.07211 | 5.69895 | 109° | 89km/h | 9122m | -7.5m/s | -46.4°C | 34.2% | 306.3hPa | 2.5V | 08:05:56 | 03:09:10 | 00:00:00 | i |
| BIOWL1-15 | 2026-08-31 13:39:44 | 51.07199 | 5.69950 | 103° | 58km/h | 9107m | -7.6m/s | -46.2°C | 35.7% | 307.1hPa | 2.5V | 08:06:24 | 03:09:12 | 00:00:00 | i |
| DD1CC8 | 2026-08-31 13:39:43 | 51.07197 | 5.69975 | 88° | 64km/h | 9100m | -7.5m/s | -46.1°C | 29.4% | 307.4hPa | 2.6V | 00:00:00 | 00:00:00 | 00:00:00 | |
| DD1CC1-15 | 2026-08-31 13:39:42 | 51.07197 | 5.69975 | 89° | 66km/h | 9100m | -7.5m/s | -46.1°C | 29.4% | 307.4hPa | 2.6V | 08:06:00 | 00:00:00 | 00:00:00 | |
| DJ2DS-15 | 2026-08-31 13:39:40 | 51.07211 | 5.69895 | 109° | 89km/h | 9123m | -7.6m/s | -46.4°C | 30.6% | 306.3hPa | 2.6V | 00:00:00 | 00:00:00 | 00:00:00 | |
| DM0DOS-11 | 2026-08-31 13:39:35 | 51.07227 | 5.69557 | 84° | 73km/h | 9196m | -7.5m/s | -46.4°C | 34% | 302.9hPa | 2.6V | 08:06:06 | 03:09:00 | 00:00:00 | i |
| BIOWL1-15 | 2026-08-31 13:39:34 | 51.07231 | 5.69628 | 91° | 102km/h | 9181m | -7.4m/s | -46.4°C | 37% | 303.6hPa | 2.5V | 08:06:24 | 03:09:02 | 00:00:00 | i |
| MET0W-2 | 2026-08-31 13:39:33 | 51.07228 | 5.69668 | 101° | 99km/h | 9174m | -7.4m/s | -46.5°C | 31.1% | 303.9hPa | 2.5V | 00:00:00 | 00:00:00 | 00:00:00 | |
| BIOWL9-15 | 2026-08-31 13:39:27 | 51.07238 | 5.69463 | 103° | 100km/h | 9218m | -7.6m/s | -46.4°C | 30.0% | 301.9hPa | 2.5V | 00:00:00 | 00:00:00 | 00:00:00 | |
| DM0DOS-11 | 2026-08-31 13:39:24 | 51.07247 | 5.69165 | 90° | 113km/h | 9276m | -7.2m/s | -46.6°C | 33.2% | 299.3hPa | 2.5V | 08:06:17 | 03:08:49 | 00:00:00 | i |
| BIOWL1-15 | 2026-08-31 13:39:23 | 51.07240 | 5.69246 | 104° | 89km/h | 9262m | -7.5m/s | -46.6°C | 35.6% | 299.9hPa | 2.5V | 08:06:24 | 03:08:51 | 00:00:00 | i |
| BIOWL1-15 | 2026-08-31 13:39:10 | 51.07246 | 5.68817 | 85° | 78km/h | 9341m | -7.3m/s | -47°C | 32.4% | 296.4hPa | 2.5V | 08:07:15 | 03:08:40 | 00:00:00 | i |
| DM0DOS-11 | 2026-08-31 13:39:09 | 51.07246 | 5.68787 | 97° | 75km/h | 9349m | -7.5m/s | -47°C | 30.1% | 296hPa | 2.6V | 08:06:27 | 03:08:39 | 00:00:00 | i |
| DD1CC9-15 | 2026-08-31 13:39:06 | 51.07256 | 5.68717 | 103° | 106km/h | 9363m | -6.8m/s | -47.2°C | 26.8% | 295.4hPa | 2.5V | 08:07:00 | 00:00:00 | 00:00:00 | |
| DM0DOS-11 | 2026-08-31 13:39:04 | 51.07276 | 5.68408 | 90° | 106km/h | 9420m | -7.2m/s | -47.1°C | 26.3% | 292.9hPa | 2.5V | 08:06:37 | 03:08:29 | 00:00:00 | i |
| BIOWL1-15 | 2026-08-31 13:39:03 | 51.07276 | 5.68408 | 91° | 106km/h | 9420m | -7.2m/s | -47.1°C | 27.4% | 292.9hPa | 2.5V | 08:07:15 | 03:08:29 | 00:00:00 | i |
| MET0W-2 | 2026-08-31 13:39:02 | 51.07261 | 5.68528 | 107° | 82km/h | 9399m | -6.8m/s | -47.2°C | 24.3% | 293.8hPa | 2.5V | 00:00:00 | 00:00:00 | 00:00:00 | |
| DD1CC1-15 | 2026-08-31 13:39:01 | 51.07261 | 5.68528 | 108° | 82km/h | 9399m | -6.8m/s | -47.2°C | 24.3% | 293.8hPa | 2.5V | 08:07:00 | 00:00:00 | 00:00:00 | |
| BIOWL9-15 | 2026-08-31 13:38:56 | 51.07276 | 5.68309 | 103° | 71km/h | 9442m | -7.6m/s | -47.1°C | 21.2% | 291.9hPa | 2.5V | 00:00:00 | 00:00:00 | 00:00:00 | |
| DM0DOS-11 | 2026-08-31 13:38:54 | 51.07296 | 5.68066 | 108° | 84km/h | 9493m | -7m/s | -46.5°C | 18.7% | 289.6hPa | 2.5V | 08:06:47 | 03:08:19 | 00:00:00 | i |
| BIOWL1-15 | 2026-08-31 13:38:49 | 51.07295 | 5.68066 | 109° | 84km/h | 9493m | -7m/s | -46.5°C | 19.8% | 289.6hPa | 2.5V | 08:07:15 | 03:08:19 | 00:00:00 | i |
| DM0DOS-11 | 2026-08-31 13:38:44 | 51.07337 | 5.67681 | 89° | 100km/h | 9566m | -7.4m/s | -46.3°C | 15.7% | 286.5hPa | 2.5V | 08:06:57 | 03:08:09 | 00:00:00 | i |
| BIOWL1-15 | 2026-08-31 13:38:38 | 51.07344 | 5.67585 | 114° | 80km/h | 9588m | -7.3m/s | -45.9°C | 15.9% | 285.5hPa | 2.6V | 08:07:15 | 03:08:06 | 00:00:00 | i |
| DM0DOS-11 | 2026-08-31 13:38:34 | 51.07380 | 5.67339 | 116° | 84km/h | 9640m | -7m/s | -46°C | 14.5% | 283.3hPa | 2.5V | 08:07:07 | 03:07:59 | 00:00:00 | i |
| BIOWL1-15 | 2026-08-31 13:38:28 | 51.07389 | 5.67305 | 112° | 100km/h | 9648m | -8m/s | -46°C | 15.8% | 283hPa | 2.5V | 08:07:15 | 03:07:58 | 00:00:00 | i |
| BIOWL9-15 | 2026-08-31 13:38:25 | 51.07401 | 5.67190 | 88° | 77km/h | 9670m | -7.0m/s | -46.0°C | 11.7% | 282.0hPa | 2.5V | 00:00:00 | 00:00:00 | 00:00:00 | |
| DM0DOS-11 | 2026-08-31 13:38:24 | 51.07428 | 5.66999 | 87° | 84km/h | 9716m | -7.6m/s | -46.1°C | 13.8% | 280.1hPa | 2.5V | 08:07:17 | 03:07:49 | 00:00:00 | i |
| BIOWL1-15 | 2026-08-31 13:38:18 | 51.07427 | 5.66969 | 88° | 64km/h | 9723m | -7.4m/s | -46.2°C | 15.1% | 279.8hPa | 2.5V | 08:08:57 | 03:07:48 | 00:00:00 | i |
| DM0DOS-11 | 2026-08-31 13:38:14 | 51.07454 | 5.66718 | 110° | 69km/h | 9791m | -7.9m/s | -46.4°C | 13.1% | 276.9hPa | 2.6V | 08:07:27 | 03:07:39 | 00:00:00 | i |
| BIOWL1-15 | 2026-08-31 13:38:06 | 51.07455 | 5.66573 | 97° | 49km/h | 9829m | -7.6m/s | -46.6°C | 14% | 275.3hPa | 2.5V | 08:08:57 | 03:07:34 | 00:00:00 | i |
| DD1CC9-15 | 2026-08-31 13:38:04 | 51.07455 | 5.66594 | 78° | 57km/h | 9822m | -8.2m/s | -46.5°C | 10.5% | 275.7hPa | 2.5V | 08:08:00 | 00:00:00 | 00:00:00 | |
| DD1CC3-15 | 2026-08-31 13:38:02 | 51.07458 | 5.66551 | 113° | 64km/h | 9837m | -7.6m/s | -46.7°C | 10.4% | 275.1hPa | 2.5V | 08:08:00 | 00:00:00 | 00:00:00 | |
| DM0DOS-11 | 2026-08-31 13:38:01 | 51.07458 | 5.66426 | 69° | 66km/h | 9869m | -8.2m/s | -46.8°C | 12.4% | 273.7hPa | 2.5V | 08:07:37 | 03:07:29 | 00:00:00 | i |
| MET0W-2 | 2026-08-31 13:38:00 | 51.07454 | 5.66404 | 79° | 49km/h | 9877m | -8.3m/s | -46.8°C | 9.9% | 273.4hPa | 2.6V | 00:00:00 | 00:00:00 | 00:00:00 | |
| HTAHTA | 2026-08-31 13:37:56 | 51.07462 | 5.66327 | 95° | 88km/h | 9901m | -8.5m/s | -47.1°C | 10.0% | 272.4hPa | 2.6V | 00:00:00 | 00:00:00 | 00:00:00 | i |
| BIOWL1-15 | 2026-08-31 13:37:56 | 51.07462 | 5.66292 | 83° | 89km/h | 9909m | -8m/s | -47.1°C | 12.9% | 272.1hPa | 2.6V | 08:08:57 | 03:07:24 | 00:00:00 | i |
| BIOWL9-15 | 2026-08-31 13:37:54 | 51.07462 | 5.66292 | 82° | 89km/h | 9909m | -8.0m/s | -47.1°C | 9.9% | 272.1hPa | 2.6V | 00:00:00 | 00:00:00 | 00:00:00 | |
| DM0DOS-11 | 2026-08-31 13:37:52 | 51.07457 | 5.66121 | 83° | 95km/h | 9957m | -7.3m/s | -47.4°C | 11.9% | 270.1hPa | 2.6V | 08:07:48 | 03:07:18 | 00:00:00 | i |
| BIOWL1-15 | 2026-08-31 13:37:46 | 51.07446 | 5.66056 | 70° | 68km/h | 9972m | -8.5m/s | -47.5°C | 11.6% | 269.5hPa | 2.5V | 08:08:57 | 03:07:16 | 00:00:00 | i |
| DD1CC9-15 | 2026-08-31 13:37:44 | 51.07442 | 5.66032 | 85° | 55km/h | 9981m | -8.0m/s | -47.5°C | 8.9% | 269.1hPa | 2.5V | 08:08:00 | 00:00:00 | 00:00:00 | |
| DM0DOS-11 | 2026-08-31 13:37:41 | 51.07441 | 5.65817 | 101° | 64km/h | 10037m | -8m/s | -47.5°C | 10.5% | 266.8hPa | 2.5V | 08:07:58 | 03:07:08 | 00:00:00 | i |
| BIOWL1-15 | 2026-08-31 13:37:36 | 51.07450 | 5.65753 | 98° | 99km/h | 10053m | -8.3m/s | -47.5°C | 9.7% | 266.1hPa | 2.5V | 08:08:57 | 03:07:06 | 00:00:00 | i |
| WPPR-10 | 2026-08-31 13:37:33 | 51.07444 | 5.65647 | 75° | 64km/h | 10078m | -7.8m/s | -47.5°C | 7.1% | 265.2hPa | 2.6V | 00:00:00 | 00:00:00 | 00:00:00 | |
| WEDDY | 2026-08-31 13:37:30 | 51.07445 | 5.65599 | 108° | 68km/h | 10094m | -8.3m/s | -47.4°C | 6.8% | 264.5hPa | 2.6V | 08:08:00 | 00:00:00 | 00:00:00 | |
| DM0DOS-11 | 2026-08-31 13:37:29 | 51.07452 | 5.65496 | 81° | 88km/h | 10118m | -8.3m/s | -47.2°C | 8.6% | 263.6hPa | 2.6V | 08:08:08 | 03:06:58 | 00:00:00 | i |
| BIOWL1-15 | 2026-08-31 13:37:25 | 51.07449 | 5.65419 | 109° | 62km/h | 10143m | -8.3m/s | -47°C | 7.2% | 262.6hPa | 2.5V | 08:08:57 | 03:06:55 | 00:00:00 | i |
| BIOWL9-15 | 2026-08-31 13:37:23 | 51.07458 | 5.65319 | 82° | 93km/h | 10168m | -7.9m/s | -46.7°C | 5.7% | 261.6hPa | 2.6V | 00:00:00 | 00:00:00 | 00:00:00 | |
| DM0DOS-11 | 2026-08-31 13:37:22 | 51.07452 | 5.65208 | 105° | 77km/h | 10201m | -8.2m/s | -46.5°C | 7.2% | 260.3hPa | 2.6V | 08:08:18 | 03:06:48 | 00:00:00 | i |
| BIOWL1-15 | 2026-08-31 13:37:14 | 51.07448 | 5.65071 | 71° | 66km/h | 10234m | -8.2m/s | -46.3°C | 5.8% | 259hPa | 2.6V | 08:08:57 | 03:06:44 | 00:00:00 | i |
| DM0DOS-11 | 2026-08-31 13:37:11 | 51.07443 | 5.64896 | 67° | 77km/h | 10285m | -8.4m/s | -46.4°C | 6.4% | 257.1hPa | 2.6V | 08:08:28 | 03:06:38 | 00:00:00 | i |
| BIOWL1-15 | 2026-08-31 13:37:04 | 51.07438 | 5.64794 | 93° | 88km/h | 10318m | -8m/s | -46.8°C | 5.1% | 255.7hPa | 2.5V | 08:08:57 | 03:06:34 | 00:00:00 | i |
| DD1CC9-15 | 2026-08-31 13:37:03 | 51.07438 | 5.64794 | 94° | 88km/h | 10318m | -8.0m/s | -46.8°C | 4.4% | 255.7hPa | 2.6V | 08:08:00 | 00:00:00 | 00:00:00 | |
| DD1CC3-15 | 2026-08-31 13:37:00 | 51.07424 | 5.64695 | 68° | 66km/h | 10343m | -8.2m/s | -46.7°C | 4.1% | 254.8hPa | 2.6V | 00:00:00 | 00:00:00 | 00:00:00 | |
| DM0DOS-11 | 2026-08-31 13:36:58 | 51.07424 | 5.64583 | 85° | 99km/h | 10377m | -8.3m/s | -46.8°C | 5.9% | 253.5hPa | 2.6V | 08:08:39 | 03:06:27 | 00:00:00 | i |
| BIOWL1-15 | 2026-08-31 13:36:53 | 51.07404 | 5.64466 | 95° | 57km/h | 10411m | -8.4m/s | -46.5°C | 3.9% | 252.2hPa | 2.6V | 08:08:57 | 03:06:23 | 00:00:00 | i |
| BIOWL9-15 | 2026-08-31 13:36:52 | 51.07408 | 5.64406 | 92° | 91km/h | 10428m | -8.5m/s | -46.7°C | 3.8% | 251.6hPa | 2.6V | 00:00:00 | 00:00:00 | 00:00:00 | |
| DM0DOS-11 | 2026-08-31 13:36:51 | 51.07391 | 5.64287 | 86° | 53km/h | 10463m | -8.5m/s | -46.5°C | 5.8% | 250.3hPa | 2.6V | 08:08:49 | 03:06:17 | 00:00:00 | i |
| DO1YAY-16 | 2026-08-31 13:36:48 | 51.07394 | 5.64309 | 68° | 60km/h | 10454m | -9.1m/s | -46.5°C | 3.8% | 250.6hPa | 2.5V | 00:00:00 | 00:00:00 | 00:00:00 | |
| BIOWL1-15 | 2026-08-31 13:36:43 | 51.07389 | 5.64157 | 72° | 91km/h | 10497m | -8.6m/s | -46.4°C | 5.2% | 249hPa | 2.5V | 08:08:57 | 03:06:13 | 00:00:00 | i |
| BIOWL1-15 | 2026-08-31 13:36:32 | 51.07367 | 5.63842 | 95° | 86km/h | 10592m | -8.8m/s | -46.1°C | 5.4% | 245.4hPa | 2.6V | 08:09:48 | 03:06:02 | 00:00:00 | i |
| BIOWL1-15 | 2026-08-31 13:36:23 | 51.07322 | 5.63524 | 80° | 55km/h | 10686m | -9.1m/s | -46.5°C | 4.5% | 241.9hPa | 2.6V | 08:09:48 | 03:05:51 | 00:00:00 | i |
| BIOWL1-15 | 2026-08-31 13:36:11 | 51.07290 | 5.63212 | 75° | 97km/h | 10773m | -8.7m/s | -46.3°C | 3.2% | 238.8hPa | 2.6V | 08:09:48 | 03:05:41 | 00:00:00 | i |
| BIOWL1-15 | 2026-08-31 13:36:00 | 51.07256 | 5.62887 | 98° | 86km/h | 10869m | -8.1m/s | -45.9°C | 1.9% | 235.4hPa | 2.6V | 08:09:48 | 03:05:30 | 00:00:00 | i |
| WPPR-10 | 2026-08-31 13:36:00 | 51.07249 | 5.62778 | 73° | 77km/h | 10895m | -9.2m/s | -45.7°C | 2.4% | 234.4hPa | 2.6V | 00:00:00 | 00:00:00 | 00:00:00 | i |
| MET0W-2 | 2026-08-31 13:35:56 | 51.07246 | 5.62726 | 102° | 64km/h | 10912m | -8.1m/s | -45.7°C | 2.4% | 233.9hPa | 2.6V | 00:00:00 | 00:00:00 | 00:00:00 | |
| HTAHTA | 2026-08-31 13:35:52 | 51.07245 | 5.62517 | 104° | 75km/h | 10974m | -8.9m/s | -45.4°C | 2.5% | 231.7hPa | 2.6V | 00:00:00 | 00:00:00 | 00:00:00 | |
| DM0DOS-11 | 2026-08-31 13:35:51 | 51.07242 | 5.62566 | 77° | 58km/h | 10956m | -9.3m/s | -45.3°C | 4.2% | 232.3hPa | 2.6V | 08:09:46 | 03:05:20 | 00:00:00 | i |
| BIOWL1-15 | 2026-08-31 13:35:50 | 51.07242 | 5.62566 | 78° | 58km/h | 10956m | -9.3m/s | -45.3°C | 2.1% | 232.3hPa | 2.6V | 08:09:48 | 03:05:20 | 00:00:00 | i |
| BIOWL9-15 | 2026-08-31 13:35:50 | 51.07242 | 5.62543 | 97° | 57km/h | 10965m | -9.0m/s | -45.3°C | 2.5% | 232.1hPa | 2.6V | 00:00:00 | 00:00:00 | 00:00:00 | i |
| DO1YAY-16 | 2026-08-31 13:35:46 | 51.07246 | 5.62408 | 75° | 88km/h | 11001m | -8.8m/s | -45.5°C | 2.5% | 230.8hPa | 2.6V | 00:00:00 | 00:00:00 | 00:00:00 | |
| BIOWL1-15 | 2026-08-31 13:35:40 | 51.07247 | 5.62262 | 95° | 100km/h | 11046m | -9.3m/s | -45.9°C | 1.5% | 229.3hPa | 2.6V | 08:10:39 | 03:05:10 | 00:00:00 | i |
| DM0DOS-11 | 2026-08-31 13:35:37 | 51.07243 | 5.62071 | 95° | 97km/h | 11100m | -9.1m/s | -45.7°C | 3.2% | 227.3hPa | 2.6V | 08:10:02 | 03:05:04 | 00:00:00 | i |
| BIOWL1-15 | 2026-08-31 13:35:29 | 51.07234 | 5.61916 | 104° | 75km/h | 11145m | -9.1m/s | -45.2°C | 0.1% | 225.8hPa | 2.6V | 08:10:39 | 03:04:59 | 00:00:00 | i |
| DJ2DS-15 | 2026-08-31 13:35:28 | 51.07239 | 5.61844 | 85° | 99km/h | 11164m | -9.2m/s | -45.1°C | 1.2% | 225.2hPa | 2.6V | 00:00:00 | 00:00:00 | 00:00:00 | |
| DM0DOS-11 | 2026-08-31 13:35:25 | 51.07224 | 5.61750 | 78° | 57km/h | 11191m | -9m/s | -44.8°C | 2.6% | 224.3hPa | 2.6V | 08:10:12 | 03:04:54 | 00:00:00 | i |
| BIOWL1-15 | 2026-08-31 13:35:16 | 51.07206 | 5.61514 | 96° | 75km/h | 11265m | -9.2m/s | -45.2°C | 0% | 221.8hPa | 2.5V | 08:10:39 | 03:04:46 | 00:00:00 | i |
| DM0DOS-11 | 2026-08-31 13:35:15 | 51.07205 | 5.61443 | 79° | 95km/h | 11283m | -9.6m/s | -44.8°C | 2.6% | 221.2hPa | 2.6V | 08:10:22 | 03:04:44 | 00:00:00 | i |
| BIOWL1-15 | 2026-08-31 13:35:06 | 51.07177 | 5.61214 | 62° | 68km/h | 11357m | -9.3m/s | -44.9°C | 0% | 218.8hPa | 2.5V | 08:10:39 | 03:04:36 | 00:00:00 | i |
| DM0DOS-11 | 2026-08-31 13:35:05 | 51.07172 | 5.61116 | 88° | 88km/h | 11394m | -9.3m/s | -45.2°C | 2.6% | 217.6hPa | 2.6V | 08:10:34 | 03:04:32 | 00:00:00 | i |
| BIOWL1-15 | 2026-08-31 13:34:56 | 51.07152 | 5.60950 | 93° | 86km/h | 11450m | -9.1m/s | -45.4°C | 0% | 215.7hPa | 2.6V | 08:11:30 | 03:04:26 | 00:00:00 | i |
| DM0DOS-11 | 2026-08-31 13:34:55 | 51.07131 | 5.60821 | 71° | 58km/h | 11487m | -9.4m/s | -45.4°C | 2.7% | 214.5hPa | 2.6V | 08:10:44 | 03:04:22 | 00:00:00 | i |
| BIOWL1-15 | 2026-08-31 13:34:45 | 51.07111 | 5.60610 | 82° | 57km/h | 11553m | -9.7m/s | -46°C | 0% | 212.4hPa | 2.6V | 08:11:30 | 03:04:15 | 00:00:00 | |
| DO1YAY-16 | 2026-08-31 13:34:44 | 51.07114 | 5.60554 | 96° | 88km/h | 11572m | -9.5m/s | -46.2°C | 1.2% | 211.8hPa | 2.6V | 00:00:00 | 00:00:00 | 00:00:00 | |
| WEDDY | 2026-08-31 13:34:42 | 51.07114 | 5.60553 | 97° | 89km/h | 11572m | -9.5m/s | -46.2°C | 1.2% | 211.8hPa | 2.6V | 08:11:00 | 00:00:00 | 00:00:00 | |
| DD1CC9-15 | 2026-08-31 13:34:40 | 51.07110 | 5.60476 | 76° | 99km/h | 11591m | -9.2m/s | -46.1°C | 1.2% | 211.2hPa | 2.6V | 08:11:00 | 00:00:00 | 00:00:00 | |
| DM0DOS-11 | 2026-08-31 13:34:35 | 51.07079 | 5.60190 | 80° | 60km/h | 11677m | -9.6m/s | -46.1°C | 2.8% | 208.5hPa | 2.6V | 08:11:04 | 03:04:02 | 00:00:00 | i |
| BIOWL1-15 | 2026-08-31 13:34:34 | 51.07062 | 5.59994 | 70° | 62km/h | 11734m | -9.9m/s | -46°C | 0% | 206.7hPa | 2.5V | 08:11:30 | 03:03:56 | 00:00:00 | i |
| DD1CC3-15 | 2026-08-31 13:34:34 | 51.07097 | 5.60283 | 80° | 102km/h | 11648m | -9.7m/s | -46.0°C | 1.2% | 209.4hPa | 2.5V | 08:11:00 | 00:00:00 | 00:00:00 | i |
| DD1CC8 | 2026-08-31 13:34:33 | 51.07084 | 5.60215 | 67° | 71km/h | 11667m | -9.7m/s | -46.1°C | 1.2% | 208.8hPa | 2.5V | 00:00:00 | 00:00:00 | 00:00:00 | |
| WPPR-10 | 2026-08-31 13:34:27 | 51.07059 | 5.59970 | 87° | 60km/h | 11744m | -9.9m/s | -46.0°C | 1.1% | 206.4hPa | 2.5V | 00:00:00 | 00:00:00 | 00:00:00 | |
| DM0DOS-11 | 2026-08-31 13:34:25 | 51.07057 | 5.59867 | 78° | 102km/h | 11773m | -9.5m/s | -46.2°C | 2.7% | 205.5hPa | 2.5V | 08:11:14 | 03:03:52 | 00:00:00 | i |
| BIOWL1-15 | 2026-08-31 13:34:22 | 51.07042 | 5.59798 | 66° | 75km/h | 11791m | -9.6m/s | -46.2°C | 0% | 204.9hPa | 2.6V | 08:11:30 | 03:03:50 | 00:00:00 | i |
| WEDDY | 2026-08-31 13:34:21 | 51.07057 | 5.59867 | 80° | 102km/h | 11773m | -9.5m/s | -46.2°C | 1.1% | 205.5hPa | 2.6V | 08:11:00 | 00:00:00 | 00:00:00 | |
| DJ2KF-10 | 2026-08-31 13:34:20 | 51.07042 | 5.59797 | 66° | 82km/h | 11791m | -9.6m/s | -46.1°C | 2.7% | 204.9hPa | 2.6V | 00:00:00 | 03:03:50 | 00:00:00 | |
| DD1CC9-15 | 2026-08-31 13:34:19 | 51.07042 | 5.59797 | 67° | 75km/h | 11791m | -9.6m/s | -46.2°C | 1.0% | 204.9hPa | 2.6V | 08:11:00 | 00:00:00 | 00:00:00 | |
| DL4BBY-15 | 2026-08-31 13:34:18 | 51.07034 | 5.59746 | 93° | 75km/h | 11811m | -9.6m/s | -46.0°C | 0% | 0hPa | 2.6V | 00:00:00 | 00:00:00 | 00:00:00 | |
| DM0DOS-11 | 2026-08-31 13:34:17 | 51.07014 | 5.59551 | 87° | 58km/h | 11870m | -10.2m/s | -45.6°C | 2.5% | 202.6hPa | 2.6V | 08:11:24 | 03:03:42 | 00:00:00 | i |
| BIOWL1-15 | 2026-08-31 13:34:11 | 51.07015 | 5.59451 | 81° | 104km/h | 11899m | -9.7m/s | -45.5°C | 0% | 201.7hPa | 2.5V | 08:11:30 | 03:03:39 | 00:00:00 | i |
| DM0DOS-11 | 2026-08-31 13:34:07 | 51.06992 | 5.59222 | 73° | 99km/h | 11967m | -9.7m/s | -45.8°C | 2.5% | 199.6hPa | 2.6V | 08:11:34 | 03:03:32 | 00:00:00 | i |
| BIOWL1-15 | 2026-08-31 13:34:00 | 51.06977 | 5.59161 | 73° | 62km/h | 11987m | -9.7m/s | -46°C | 0% | 199hPa | 2.5V | 08:12:21 | 03:03:30 | 00:00:00 | i |
| DD1CC9-15 | 2026-08-31 13:33:58 | 51.06975 | 5.59136 | 93° | 62km/h | 11996m | -10.1m/s | -46.0°C | 1.0% | 198.7hPa | 2.5V | 08:12:00 | 00:00:00 | 00:00:00 | |
| DM0DOS-11 | 2026-08-31 13:33:57 | 51.06966 | 5.58908 | 100° | 78km/h | 12065m | -9.6m/s | -46°C | 2.6% | 196.6hPa | 2.5V | 08:11:44 | 03:03:22 | 00:00:00 | i |
| BIOWL1-15 | 2026-08-31 13:33:52 | 51.06970 | 5.58831 | 86° | 108km/h | 12084m | -9.9m/s | -46.1°C | 0% | 196.1hPa | 2.5V | 08:12:21 | 03:03:20 | 00:00:00 | i |
| MET0W-2 | 2026-08-31 13:33:52 | 51.06969 | 5.58873 | 96° | 99km/h | 12074m | -9.9m/s | -46.2°C | 0.9% | 196.4hPa | 2.6V | 00:00:00 | 00:00:00 | 00:00:00 | i |
| BIOWL9-15 | 2026-08-31 13:33:46 | 51.06961 | 5.58670 | 103° | 91km/h | 12134m | -10.1m/s | -46.2°C | 0.9% | 194.7hPa | 2.6V | 00:00:00 | 00:00:00 | 00:00:00 | |
| DL4BBY-15 | 2026-08-31 13:33:45 | 51.06961 | 5.58670 | 104° | 77km/h | 12134m | -10.0m/s | -45.9°C | 0% | 0hPa | 2.6V | 00:00:00 | 00:00:00 | 00:00:00 | |
| DM0DOS-11 | 2026-08-31 13:33:43 | 51.06956 | 5.58520 | 79° | 69km/h | 12174m | -9.9m/s | -46°C | 2.5% | 193.5hPa | 2.6V | 08:11:55 | 03:03:11 | 00:00:00 | i |
| BIOWL1-15 | 2026-08-31 13:33:39 | 51.06959 | 5.58464 | 106° | 82km/h | 12194m | -10m/s | -46.1°C | 0% | 192.9hPa | 2.5V | 08:12:21 | 03:03:09 | 00:00:00 | i |
| DD1CC9-15 | 2026-08-31 13:33:37 | 51.06964 | 5.58429 | 101° | 100km/h | 12204m | -10.0m/s | -46.1°C | 1.0% | 192.6hPa | 2.5V | 08:12:00 | 00:00:00 | 00:00:00 | |
| DM0DOS-11 | 2026-08-31 13:33:32 | 51.06966 | 5.58197 | 95° | 100km/h | 12274m | -9.7m/s | -46.3°C | 2.6% | 190.6hPa | 2.5V | 08:12:05 | 03:03:01 | 00:00:00 | i |
| BIOWL1-15 | 2026-08-31 13:33:28 | 51.06957 | 5.58067 | 96° | 60km/h | 12315m | -10.2m/s | -46.4°C | 0% | 189.4hPa | 2.6V | 08:12:21 | 03:02:57 | 00:00:00 | i |
| DM0DOS-11 | 2026-08-31 13:33:26 | 51.06955 | 5.57872 | 89° | 57km/h | 12375m | -9.8m/s | -46.2°C | 2.5% | 187.6hPa | 2.6V | 08:12:15 | 03:02:51 | 00:00:00 | i |
| BIOWL1-15 | 2026-08-31 13:33:18 | 51.06961 | 5.57745 | 77° | 93km/h | 12416m | -10m/s | -46.2°C | 0% | 186.6hPa | 2.5V | 08:12:21 | 03:02:47 | 00:00:00 | i |
| DD1CC9-15 | 2026-08-31 13:33:16 | 51.06961 | 5.57745 | 78° | 93km/h | 12416m | -10.0m/s | -46.2°C | 0.9% | 186.6hPa | 2.6V | 08:12:00 | 00:00:00 | 00:00:00 | |
| DM0DOS-11 | 2026-08-31 13:33:15 | 51.06949 | 5.57570 | 77° | 97km/h | 12477m | -10.2m/s | -46.4°C | 2.6% | 184.9hPa | 2.6V | 08:12:25 | 03:02:41 | 00:00:00 | |
| BIOWL1-15 | 2026-08-31 13:33:08 | 51.06929 | 5.57486 | 78° | 53km/h | 12507m | -10.2m/s | -46.4°C | 0% | 184hPa | 2.5V | 08:13:12 | 03:02:38 | 00:00:00 | i |
| DM0DOS-11 | 2026-08-31 13:33:05 | 51.06903 | 5.57282 | 90° | 55km/h | 12578m | -10.1m/s | -46.8°C | 2.6% | 182.1hPa | 2.6V | 08:12:35 | 03:02:31 | 00:00:00 | i |
| BIOWL1-15 | 2026-08-31 13:32:57 | 51.06892 | 5.57154 | 63° | 82km/h | 12619m | -10.4m/s | -46.7°C | 0% | 180.9hPa | 2.5V | 08:13:12 | 03:02:27 | 00:00:00 | i |
| BIOWL1-15 | 2026-08-31 13:32:50 | 51.06856 | 5.56819 | 85° | 108km/h | 12731m | -10.4m/s | -46.9°C | 0% | 177.9hPa | 2.6V | 08:13:12 | 03:02:16 | 00:00:00 | i |
| MET0W-2 | 2026-08-31 13:32:50 | 51.06857 | 5.56918 | 74° | 62km/h | 12701m | -10.6m/s | -46.9°C | 0.9% | 178.7hPa | 2.5V | 00:00:00 | 00:00:00 | 00:00:00 | i |
| HTAHTA | 2026-08-31 13:32:45 | 51.06844 | 5.56742 | 67° | 84km/h | 12752m | -10.6m/s | -46.9°C | 0.9% | 177.3hPa | 2.5V | 00:00:00 | 00:00:00 | 00:00:00 | |
| DL8DAS-14 | 2026-08-31 13:32:44 | 51.06844 | 5.56742 | 67° | 84km/h | 12752m | -10.6m/s | -46.9°C | 0.9% | 177.3hPa | 2.5V | 00:00:00 | 00:00:00 | 00:00:00 | |
| BIOWL9-15 | 2026-08-31 13:32:43 | 51.06838 | 5.56714 | 77° | 64km/h | 12763m | -10.2m/s | -46.9°C | 0.9% | 177.0hPa | 2.5V | 00:00:00 | 00:00:00 | 00:00:00 | |
| DM0DOS-11 | 2026-08-31 13:32:42 | 51.06840 | 5.56655 | 98° | 91km/h | 12783m | -10.3m/s | -47°C | 2.7% | 176.5hPa | 2.5V | 08:12:55 | 03:02:11 | 00:00:00 | i |
| DO1YAY-16 | 2026-08-31 13:32:40 | 51.06839 | 5.56574 | 78° | 104km/h | 12804m | -10.5m/s | -46.9°C | 0.9% | 176.0hPa | 2.5V | 00:00:00 | 00:00:00 | 00:00:00 | |
| DL4BBY-15 | 2026-08-31 13:32:36 | 51.06826 | 5.56483 | 95° | 80km/h | 12835m | -10.2m/s | -46.7°C | 0% | 0hPa | 2.5V | 00:00:00 | 00:00:00 | 00:00:00 | |
| DM0DOS-11 | 2026-08-31 13:32:35 | 51.06820 | 5.56316 | 68° | 66km/h | 12887m | -10.4m/s | -47°C | 2.6% | 173.8hPa | 2.5V | 08:13:05 | 03:02:01 | 00:00:00 | i |
| BIOWL1-15 | 2026-08-31 13:32:35 | 51.06828 | 5.56455 | 102° | 78km/h | 12845m | -10.6m/s | -47°C | 0% | 174.9hPa | 2.5V | 08:13:12 | 03:02:05 | 00:00:00 | i |
| DD1CC9-15 | 2026-08-31 13:32:34 | 51.06828 | 5.56455 | 103° | 78km/h | 12845m | -10.6m/s | -47.0°C | 0.9% | 174.9hPa | 2.5V | 08:13:00 | 00:00:00 | 00:00:00 | |
| DD1CC1-15 | 2026-08-31 13:32:32 | 51.06831 | 5.56382 | 84° | 99km/h | 12866m | -10.6m/s | -46.9°C | 0.9% | 174.3hPa | 2.5V | 08:13:00 | 00:00:00 | 00:00:00 | |
| DD1CC3-15 | 2026-08-31 13:32:30 | 51.06819 | 5.56316 | 70° | 66km/h | 12887m | -10.5m/s | -47.0°C | 0.9% | 173.8hPa | 2.5V | 08:13:00 | 00:00:00 | 00:00:00 | |
| DD1CC8 | 2026-08-31 13:32:29 | 51.06819 | 5.56242 | 97° | 82km/h | 12918m | -10.7m/s | -47.2°C | 0.9% | 172.9hPa | 2.5V | 00:00:00 | 00:00:00 | 00:00:00 | |
| DJ2DS-15 | 2026-08-31 13:32:27 | 51.06820 | 5.56207 | 85° | 95km/h | 12929m | -10.5m/s | -47.1°C | 0.9% | 172.7hPa | 2.5V | 00:00:00 | 00:00:00 | 00:00:00 | |
| DM0DOS-11 | 2026-08-31 13:32:25 | 51.06795 | 5.56030 | 88° | 93km/h | 12992m | -10.6m/s | -47°C | 2.6% | 171.1hPa | 2.5V | 08:13:15 | 03:01:51 | 00:00:00 | i |
| BIOWL1-15 | 2026-08-31 13:32:25 | 51.06795 | 5.56030 | 89° | 93km/h | 12992m | -10.6m/s | -47°C | 0% | 171.1hPa | 2.5V | 08:14:03 | 03:01:51 | 00:00:00 | i |
| BIOWL7-15 | 2026-08-31 13:32:22 | 51.06794 | 5.56063 | 95° | 71km/h | 12981m | -10.4m/s | -47.0°C | 0.9% | 171.3hPa | 2.6V | 00:00:00 | 00:00:00 | 00:00:00 | |
| DJ2KF-10 | 2026-08-31 13:32:20 | 51.06792 | 5.55992 | 78° | 78km/h | 13002m | -10.5m/s | -47.0°C | 2.7% | 170.8hPa | 2.6V | 00:00:00 | 03:01:50 | 00:00:00 | |
| MET0W-2 | 2026-08-31 13:32:18 | 51.06775 | 5.55923 | 60° | 75km/h | 13023m | -10.7m/s | -47.0°C | 0.9% | 170.2hPa | 2.6V | 00:00:00 | 00:00:00 | 00:00:00 | |
| DM0DOS-11 | 2026-08-31 13:32:15 | 51.06742 | 5.55702 | 70° | 62km/h | 13097m | -10.2m/s | -47.2°C | 2.7% | 168.3hPa | 2.6V | 08:13:25 | 03:01:41 | 00:00:00 | i |
| BIOWL1-15 | 2026-08-31 13:32:11 | 51.06742 | 5.55702 | 70° | 62km/h | 13097m | -10.2m/s | -47.3°C | 0% | 168.3hPa | 2.6V | 08:14:03 | 03:01:41 | 00:00:00 | i |
| DD1CC1-15 | 2026-08-31 13:32:11 | 51.06749 | 5.55729 | 64° | 84km/h | 13087m | -10.6m/s | -47.2°C | 0.9% | 168.6hPa | 2.6V | 08:14:00 | 00:00:00 | 00:00:00 | i |
| DO1YAY-16 | 2026-08-31 13:32:09 | 51.06740 | 5.55612 | 83° | 97km/h | 13129m | -11.1m/s | -47.4°C | 0.9% | 167.6hPa | 2.6V | 00:00:00 | 00:00:00 | 00:00:00 | |
| DL4BBY-15 | 2026-08-31 13:32:06 | 51.06726 | 5.55544 | 60° | 73km/h | 13151m | -10.4m/s | -47.0°C | 0% | 0hPa | 2.6V | 00:00:00 | 00:00:00 | 00:00:00 | |
| DM0DOS-11 | 2026-08-31 13:32:05 | 51.06711 | 5.55405 | 71° | 97km/h | 13204m | -10.8m/s | -46.9°C | 2.6% | 165.7hPa | 2.6V | 08:13:35 | 03:01:31 | 00:00:00 | i |
| BIOWL1-15 | 2026-08-31 13:32:00 | 51.06687 | 5.55326 | 81° | 51km/h | 13237m | -10.3m/s | -46.9°C | 0% | 164.8hPa | 2.6V | 08:14:03 | 03:01:28 | 00:00:00 | i |
| DD1CC8 | 2026-08-31 13:31:58 | 51.06687 | 5.55302 | 96° | 68km/h | 13247m | -10.9m/s | -46.9°C | 0.8% | 164.6hPa | 2.5V | 00:00:00 | 00:00:00 | 00:00:00 | |
| DM0DOS-11 | 2026-08-31 13:31:55 | 51.06660 | 5.55128 | 93° | 68km/h | 13312m | -10.4m/s | -47.1°C | 2.7% | 162.9hPa | 2.5V | 08:13:45 | 03:01:21 | 00:00:00 | i |
| BIOWL1-15 | 2026-08-31 13:31:50 | 51.06661 | 5.55096 | 90° | 89km/h | 13323m | -11m/s | -47.2°C | 0% | 162.7hPa | 2.5V | 08:14:03 | 03:01:20 | 00:00:00 | i |
| MET0W-2 | 2026-08-31 13:31:47 | 51.06641 | 5.54993 | 59° | 69km/h | 13355m | -11.1m/s | -47.0°C | 0.8% | 161.9hPa | 2.5V | 00:00:00 | 00:00:00 | 00:00:00 | |
| BIOWL1-15 | 2026-08-31 13:31:39 | 51.06617 | 5.54768 | 99° | 58km/h | 13442m | -10.9m/s | -47.3°C | 0% | 159.8hPa | 2.5V | 08:14:03 | 03:01:09 | 00:00:00 | i |
| DO1YAY-16 | 2026-08-31 13:31:38 | 51.06622 | 5.54705 | 88° | 95km/h | 13465m | -11.0m/s | -47.4°C | 0.9% | 159.3hPa | 2.6V | 00:00:00 | 00:00:00 | 00:00:00 | |
| DM0DOS-11 | 2026-08-31 13:31:36 | 51.06606 | 5.54536 | 90° | 89km/h | 13531m | -11.2m/s | -47.4°C | 2.7% | 157.6hPa | 2.6V | 08:14:05 | 03:01:01 | 00:00:00 | i |
| BIOWL1-15 | 2026-08-31 13:31:29 | 51.06584 | 5.54369 | 87° | 89km/h | 13597m | -10.8m/s | -47.8°C | 0% | 156.1hPa | 2.6V | 08:14:54 | 03:00:55 | 00:00:00 | i |
| DD1CC3-15 | 2026-08-31 13:31:28 | 51.06595 | 5.54468 | 64° | 78km/h | 13553m | -11.0m/s | -47.4°C | 1.0% | 157.2hPa | 2.6V | 00:00:00 | 00:00:00 | 00:00:00 | |
| DD1CC8 | 2026-08-31 13:31:27 | 51.06583 | 5.54401 | 95° | 68km/h | 13586m | -11.1m/s | -47.8°C | 0.9% | 156.4hPa | 2.6V | 00:00:00 | 00:00:00 | 00:00:00 | |
| DM0DOS-11 | 2026-08-31 13:31:26 | 51.06556 | 5.54258 | 77° | 46km/h | 13641m | -11.1m/s | -47.9°C | 2.8% | 155.1hPa | 2.6V | 08:14:15 | 03:00:51 | 00:00:00 | i |
| BIOWL1-15 | 2026-08-31 13:31:22 | 51.06551 | 5.54174 | 73° | 91km/h | 13674m | -11.1m/s | -48.1°C | 0% | 154.3hPa | 2.5V | 08:14:54 | 03:00:48 | 00:00:00 | i |
| WPPR-10 | 2026-08-31 13:31:21 | 51.06555 | 5.54237 | 94° | 60km/h | 13652m | -11.3m/s | -48.0°C | 1.0% | 154.8hPa | 2.6V | 00:00:00 | 00:00:00 | 00:00:00 | |
| DJ2KF-10 | 2026-08-31 13:31:20 | 51.06555 | 5.54237 | 95° | 69km/h | 13652m | -11.2m/s | -47.9°C | 2.8% | 154.7hPa | 2.6V | 00:00:00 | 03:00:50 | 00:00:00 | |
| WEDDY | 2026-08-31 13:31:17 | 51.06551 | 5.54174 | 74° | 91km/h | 13674m | -11.1m/s | -48.1°C | 1.0% | 154.3hPa | 2.6V | 00:00:00 | 00:00:00 | 00:00:00 | |
| MET0W-2 | 2026-08-31 13:31:16 | 51.06534 | 5.54118 | 55° | 58km/h | 13696m | -11.2m/s | -48.1°C | 1.0% | 153.8hPa | 2.6V | 00:00:00 | 00:00:00 | 00:00:00 | |
| DM0DOS-11 | 2026-08-31 13:31:15 | 51.06514 | 5.53981 | 59° | 82km/h | 13753m | -11.5m/s | -48.3°C | 2.9% | 152.5hPa | 2.6V | 08:14:25 | 03:00:41 | 00:00:00 | i |
| BIOWL1-15 | 2026-08-31 13:31:07 | 51.06500 | 5.53888 | 91° | 82km/h | 13798m | -11.2m/s | -48.5°C | 0% | 151.4hPa | 2.5V | 08:14:54 | 03:00:37 | 00:00:00 | i |
| DM0DOS-11 | 2026-08-31 13:31:06 | 51.06480 | 5.53730 | 93° | 82km/h | 13865m | -11.6m/s | -48.6°C | 3% | 149.9hPa | 2.5V | 08:14:35 | 03:00:31 | 00:00:00 | i |
| DL1XH-west | 2026-08-31 13:31:01 | 51.06481 | 5.53730 | 94° | 82km/h | 13865m | -11.6m/s | -48.6°C | 0% | 149.9hPa | 2.5V | 08:17:27 | 03:00:31 | 00:00:00 | i |
| BIOWL1-15 | 2026-08-31 13:30:57 | 51.06461 | 5.53624 | 84° | 42km/h | 13911m | -11.3m/s | -48.6°C | 0% | 148.8hPa | 2.5V | 08:14:54 | 03:00:27 | 00:00:00 | i |
| DM0DOS-11 | 2026-08-31 13:30:55 | 51.06445 | 5.53472 | 80° | 40km/h | 13979m | -11.4m/s | -48.9°C | 2.9% | 147.3hPa | 2.6V | 08:14:45 | 03:00:21 | 00:00:00 | i |
| DL1XH-west | 2026-08-31 13:30:50 | 51.06446 | 5.53453 | 100° | 57km/h | 13990m | -11.7m/s | -49°C | 0% | 147hPa | 2.6V | 08:17:27 | 03:00:20 | 00:00:00 | i |
| BIOWL1-15 | 2026-08-31 13:30:46 | 51.06428 | 5.53340 | 52° | 58km/h | 14036m | -11.5m/s | -48.8°C | 0% | 146hPa | 2.5V | 08:14:54 | 03:00:16 | 00:00:00 | i |
| MET0W-2 | 2026-08-31 13:30:45 | 51.06421 | 5.53323 | 69° | 40km/h | 14048m | -11.9m/s | -48.8°C | 0.9% | 145.7hPa | 2.5V | 00:00:00 | 00:00:00 | 00:00:00 | |
| BIOWL1-15 | 2026-08-31 13:30:38 | 51.06394 | 5.53101 | 82° | 84km/h | 14152m | -11.7m/s | -48.6°C | 0% | 143.5hPa | 2.5V | 08:15:45 | 03:00:06 | 00:00:00 | i |
| DL1XH-west | 2026-08-31 13:30:38 | 51.06392 | 5.53156 | 99° | 49km/h | 14129m | -11.5m/s | -48.6°C | 0% | 143.9hPa | 2.6V | 08:17:27 | 03:00:08 | 00:00:00 | i |
| DM0DOS-11 | 2026-08-31 13:30:35 | 51.06380 | 5.52996 | 101° | 66km/h | 14210m | -11.8m/s | -48.7°C | 2.9% | 142.2hPa | 2.5V | 08:15:05 | 03:00:01 | 00:00:00 | i |
| DL1XH-west | 2026-08-31 13:30:25 | 51.06367 | 5.52869 | 101° | 64km/h | 14280m | -11.5m/s | -48.8°C | 0% | 140.7hPa | 2.5V | 08:17:27 | 02:59:55 | 00:00:00 | i |
| DM0DOS-11 | 2026-08-31 13:30:25 | 51.06348 | 5.52775 | 59° | 35km/h | 14327m | -12.1m/s | -48.7°C | 2.8% | 139.7hPa | 2.5V | 08:15:15 | 02:59:51 | 00:00:00 | i |
| BIOWL1-15 | 2026-08-31 13:30:15 | 51.06327 | 5.52626 | 99° | 42km/h | 14409m | -12m/s | -49.1°C | 0% | 138hPa | 2.5V | 08:15:45 | 02:59:44 | 00:00:00 | i |
| MET0W-2 | 2026-08-31 13:30:14 | 51.06327 | 5.52626 | 98° | 42km/h | 14409m | -12.0m/s | -49.1°C | 0.8% | 138.0hPa | 2.6V | 00:00:00 | 00:00:00 | 00:00:00 | |
| DM0DOS-11 | 2026-08-31 13:30:13 | 51.06325 | 5.52542 | 69° | 84km/h | 14443m | -11.5m/s | -49.3°C | 3% | 137.3hPa | 2.6V | 08:15:25 | 02:59:41 | 00:00:00 | i |
| DL1XH-west | 2026-08-31 13:30:13 | 51.06329 | 5.52605 | 99° | 68km/h | 14420m | -11.4m/s | -49.3°C | 0% | 137.7hPa | 2.6V | 08:17:27 | 02:59:43 | 00:00:00 | i |
| HTAHTA | 2026-08-31 13:30:10 | 51.06317 | 5.52514 | 57° | 68km/h | 14455m | -11.8m/s | -49.4°C | 0.9% | 137.0hPa | 2.6V | 00:00:00 | 00:00:00 | 00:00:00 | |
| BIOWL9-15 | 2026-08-31 13:30:08 | 51.06307 | 5.52477 | 90° | 46km/h | 14478m | -11.6m/s | -49.5°C | 0.8% | 136.5hPa | 2.6V | 00:00:00 | 00:00:00 | 00:00:00 | |
| DM0DOS-11 | 2026-08-31 13:30:06 | 51.06289 | 5.52261 | 88° | 89km/h | 14570m | -11.2m/s | -49.7°C | 3.1% | 134.6hPa | 2.6V | 08:15:36 | 02:59:30 | 00:00:00 | i |
| DL1XH-west | 2026-08-31 13:30:02 | 51.06288 | 5.52293 | 99° | 71km/h | 14559m | -11.9m/s | -49.7°C | 0% | 134.8hPa | 2.6V | 08:17:27 | 02:59:31 | 00:00:00 | i |
| BIOWL1-15 | 2026-08-31 13:29:55 | 51.06270 | 5.52055 | 75° | 93km/h | 14651m | -11.7m/s | -49°C | 0% | 133hPa | 2.5V | 08:15:45 | 02:59:23 | 00:00:00 | i |
| DM0DOS-11 | 2026-08-31 13:29:55 | 51.06252 | 5.51982 | 89° | 44km/h | 14686m | -11.6m/s | -48.8°C | 2.8% | 132.2hPa | 2.6V | 08:15:46 | 02:59:20 | 00:00:00 | i |
| DL1XH-west | 2026-08-31 13:29:49 | 51.06253 | 5.51960 | 100° | 66km/h | 14697m | -11.7m/s | -48.8°C | 0% | 132hPa | 2.5V | 08:17:27 | 02:59:19 | 00:00:00 | i |
| BIOWL1-15 | 2026-08-31 13:29:42 | 51.06226 | 5.51724 | 60° | 71km/h | 14804m | -11.9m/s | -49.2°C | 0% | 129.8hPa | 2.6V | 08:16:36 | 02:59:10 | 00:00:00 | i |
| DD1CC3-15 | 2026-08-31 13:29:42 | 51.06234 | 5.51811 | 103° | 57km/h | 14768m | -11.8m/s | -49.0°C | 0.9% | 130.6hPa | 2.6V | 00:00:00 | 00:00:00 | 00:00:00 | i |
| DM0DOS-11 | 2026-08-31 13:29:40 | 51.06218 | 5.51703 | 55° | 49km/h | 14815m | -11.7m/s | -49.1°C | 2.8% | 129.7hPa | 2.6V | 08:15:57 | 02:59:09 | 00:00:00 | i |
| BIOWL1-15 | 2026-08-31 13:29:34 | 51.06189 | 5.51545 | 76° | 37km/h | 14899m | -11.9m/s | -49.4°C | 0% | 128hPa | 2.5V | 08:16:36 | 02:59:02 | 00:00:00 | i |
| DO1YAY-16 | 2026-08-31 13:29:33 | 51.06194 | 5.51560 | 49° | 49km/h | 14887m | -11.7m/s | -49.3°C | 0.8% | 128.2hPa | 2.6V | 00:00:00 | 00:00:00 | 00:00:00 | |
| DM0DOS-11 | 2026-08-31 13:29:30 | 51.06183 | 5.51469 | 67° | 82km/h | 14935m | -12.2m/s | -49.7°C | 3% | 127.3hPa | 2.6V | 08:16:07 | 02:58:59 | 00:00:00 | i |
| DL1XH-west | 2026-08-31 13:29:30 | 51.06188 | 5.51500 | 85° | 77km/h | 14922m | -12.2m/s | -49.7°C | 0% | 127.6hPa | 2.5V | 08:17:27 | 02:59:00 | 00:00:00 | i |
| DJ2DS-15 | 2026-08-31 13:29:27 | 51.06165 | 5.51425 | 47° | 44km/h | 14958m | -11.8m/s | -49.9°C | 0.9% | 126.8hPa | 2.6V | 00:00:00 | 00:00:00 | 00:00:00 | |
| DD1CC1-15 | 2026-08-31 13:29:26 | 51.06165 | 5.51425 | 49° | 46km/h | 14958m | -11.8m/s | -49.9°C | 0.9% | 126.8hPa | 2.6V | 08:16:00 | 00:00:00 | 00:00:00 | |
| DL1ZP-14 | 2026-08-31 13:29:23 | 51.06140 | 5.51313 | 46° | 66km/h | 15018m | -12.1m/s | -50.0°C | 0.9% | 125.7hPa | 2.6V | 00:00:00 | 00:00:00 | 00:00:00 | |
| DD1CC8 | 2026-08-31 13:29:22 | 51.06140 | 5.51313 | 46° | 66km/h | 15018m | -12.1m/s | -50.0°C | 0.9% | 125.7hPa | 2.5V | 00:00:00 | 00:00:00 | 00:00:00 | |
| DM0DOS-11 | 2026-08-31 13:29:21 | 51.06126 | 5.51264 | 92° | 60km/h | 15055m | -12m/s | -50.2°C | 3.1% | 125hPa | 2.5V | 08:16:17 | 02:58:49 | 00:00:00 | i |
| BIOWL1-15 | 2026-08-31 13:29:21 | 51.06126 | 5.51264 | 93° | 60km/h | 15055m | -12m/s | -50.3°C | 0% | 125hPa | 2.5V | 08:16:36 | 02:58:49 | 00:00:00 | i |
| DL1XH-west | 2026-08-31 13:29:12 | 51.06097 | 5.51095 | 83° | 77km/h | 15140m | -12.5m/s | -49.8°C | 0% | 123.3hPa | 2.6V | 08:17:27 | 02:58:42 | 00:00:00 | i |
| BIOWL1-15 | 2026-08-31 13:29:09 | 51.06057 | 5.50917 | 44° | 58km/h | 15239m | -12.8m/s | -49.6°C | 0% | 121.6hPa | 2.5V | 08:16:36 | 02:58:34 | 00:00:00 | i |
| DL1XH-west | 2026-08-31 13:29:01 | 51.06045 | 5.50873 | 91° | 58km/h | 15277m | -12.7m/s | -50°C | 0% | 120.8hPa | 2.5V | 08:17:27 | 02:58:31 | 00:00:00 | i |
| DM0DOS-11 | 2026-08-31 13:29:00 | 51.06012 | 5.50775 | 88° | 38km/h | 15339m | -12.1m/s | -49.6°C | 2.9% | 119.7hPa | 2.5V | 08:16:40 | 02:58:26 | 00:00:00 | i |
| BIOWL1-15 | 2026-08-31 13:28:59 | 51.06035 | 5.50820 | 55° | 75km/h | 15301m | -11.8m/s | -49.9°C | 0% | 120.4hPa | 2.6V | 08:17:27 | 02:58:29 | 00:00:00 | i |
| DL1XH-west | 2026-08-31 13:28:51 | 51.05979 | 5.50663 | 49° | 40km/h | 15401m | -13.1m/s | -49.8°C | 0% | 118.5hPa | 2.6V | 08:17:27 | 02:58:21 | 00:00:00 | i |
| BIOWL1-15 | 2026-08-31 13:28:48 | 51.05967 | 5.50593 | 68° | 89km/h | 15439m | -12.1m/s | -49.9°C | 0% | 117.8hPa | 2.6V | 08:17:27 | 02:58:18 | 00:00:00 | i |
| WPPR-10 | 2026-08-31 13:28:45 | 51.05927 | 5.50506 | 76° | 55km/h | 15490m | -12.7m/s | -49.9°C | 0.8% | 117.0hPa | 2.6V | 00:00:00 | 00:00:00 | 00:00:00 | |
| DL1XH-west | 2026-08-31 13:28:38 | 51.05879 | 5.50357 | 83° | 58km/h | 15567m | -12.4m/s | -49.8°C | 0% | 115.6hPa | 2.6V | 08:17:27 | 02:58:08 | 00:00:00 | i |
| BIOWL1-15 | 2026-08-31 13:28:37 | 51.05848 | 5.50248 | 45° | 53km/h | 15618m | -12.9m/s | -49.7°C | 0% | 114.7hPa | 2.5V | 08:17:27 | 02:58:04 | 00:00:00 | i |
| HTAHTA | 2026-08-31 13:28:37 | 51.05870 | 5.50296 | 65° | 88km/h | 15592m | -13.4m/s | -49.8°C | 0.8% | 115.1hPa | 2.6V | 00:00:00 | 00:00:00 | 00:00:00 | i |
| DM0DOS-11 | 2026-08-31 13:28:35 | 51.05841 | 5.50216 | 94° | 55km/h | 15644m | -12.4m/s | -49.8°C | 3% | 114.2hPa | 2.6V | 08:17:04 | 02:58:02 | 00:00:00 | i |
| DL1XH-west | 2026-08-31 13:28:28 | 51.05819 | 5.50114 | 56° | 40km/h | 15695m | -12.8m/s | -49.8°C | 0% | 113.3hPa | 2.6V | 08:17:27 | 02:57:58 | 00:00:00 | i |
| BIOWL1-15 | 2026-08-31 13:28:26 | 51.05819 | 5.50082 | 105° | 60km/h | 15720m | -13m/s | -50°C | 0% | 112.9hPa | 2.5V | 08:17:27 | 02:57:56 | 00:00:00 | i |
| DM0DOS-11 | 2026-08-31 13:28:25 | 51.05807 | 5.49959 | 99° | 62km/h | 15797m | -12.7m/s | -49.4°C | 2.9% | 111.6hPa | 2.5V | 08:17:16 | 02:57:50 | 00:00:00 | i |
| DL1XH-west | 2026-08-31 13:28:17 | 51.05792 | 5.49884 | 47° | 51km/h | 15836m | -12.6m/s | -49.3°C | 0% | 110.9hPa | 2.6V | 08:17:27 | 02:57:47 | 00:00:00 | i |
| BIOWL1-15 | 2026-08-31 13:28:13 | 51.05788 | 5.49814 | 80° | 73km/h | 15887m | -12.6m/s | -49.3°C | 0% | 110.1hPa | 2.6V | 08:17:27 | 02:57:43 | 00:00:00 | i |
| DM0DOS-11 | 2026-08-31 13:28:10 | 51.05771 | 5.49744 | 106° | 46km/h | 15938m | -12.8m/s | -49.1°C | 2.8% | 109.2hPa | 2.5V | 08:17:27 | 02:57:39 | 00:00:00 | i |
| DL1XH-west | 2026-08-31 13:28:07 | 51.05773 | 5.49694 | 76° | 71km/h | 15965m | -13.5m/s | -48.9°C | 0% | 108.8hPa | 2.6V | 08:18:18 | 02:57:37 | 00:00:00 | i |
| BIOWL1-15 | 2026-08-31 13:28:03 | 51.05759 | 5.49587 | 71° | 66km/h | 16042m | -13.1m/s | -48.9°C | 0% | 107.5hPa | 2.5V | 08:18:18 | 02:57:31 | 00:00:00 | i |
| DM0DOS-11 | 2026-08-31 13:28:02 | 51.05746 | 5.49555 | 45° | 26km/h | 16068m | -13.1m/s | -49°C | 2.7% | 107.1hPa | 2.6V | 08:17:37 | 02:57:29 | 00:00:00 | i |
| DL1XH-west | 2026-08-31 13:27:57 | 51.05750 | 5.49513 | 89° | 62km/h | 16108m | -13.4m/s | -49.4°C | 0% | 106.4hPa | 2.5V | 08:18:18 | 02:57:26 | 00:00:00 | i |
| BIOWL1-15 | 2026-08-31 13:27:50 | 51.05735 | 5.49421 | 82° | 60km/h | 16186m | -13.6m/s | -49.9°C | 0% | 105.1hPa | 2.5V | 08:18:18 | 02:57:20 | 00:00:00 | i |
| DL1XH-west | 2026-08-31 13:27:45 | 51.05716 | 5.49357 | 96° | 47km/h | 16253m | -13m/s | -50.3°C | 0% | 104.1hPa | 2.5V | 08:18:18 | 02:57:15 | 00:00:00 | i |
| DD1CC1-15 | 2026-08-31 13:27:44 | 51.05716 | 5.49357 | 97° | 47km/h | 16253m | -13.0m/s | -50.3°C | 0.8% | 104.1hPa | 2.5V | 08:18:00 | 00:00:00 | 00:00:00 | |
| DM0DOS-11 | 2026-08-31 13:27:40 | 51.05689 | 5.49283 | 87° | 42km/h | 16331m | -13.7m/s | -51°C | 3.2% | 102.8hPa | 2.5V | 08:17:57 | 02:57:09 | 00:00:00 | i |
| BIOWL1-15 | 2026-08-31 13:27:40 | 51.05689 | 5.49295 | 101° | 20km/h | 16317m | -13.4m/s | -50.8°C | 0% | 103.1hPa | 2.6V | 08:18:18 | 02:57:10 | 00:00:00 | i |
| DL1XH-west | 2026-08-31 13:27:33 | 51.05653 | 5.49218 | 84° | 42km/h | 16410m | -13.1m/s | -51.3°C | 0% | 101.6hPa | 2.6V | 08:18:18 | 02:57:03 | 00:00:00 | i |
| DM0DOS-11 | 2026-08-31 13:27:30 | 51.05622 | 5.49161 | 29° | 24km/h | 16462m | -13.2m/s | -51.3°C | 3.1% | 100.8hPa | 2.5V | 08:18:07 | 02:56:59 | 00:00:00 | i |
| BIOWL1-15 | 2026-08-31 13:27:30 | 51.05630 | 5.49167 | 27° | 46km/h | 16449m | -13.5m/s | -51.3°C | 0% | 101hPa | 2.5V | 08:18:18 | 02:57:00 | 00:00:00 | i |
| DL1XH-west | 2026-08-31 13:27:22 | 51.05593 | 5.49057 | 98° | 35km/h | 16552m | -13.1m/s | -51.3°C | 0% | 99.4hPa | 2.6V | 08:18:18 | 02:56:52 | 00:00:00 | i |
| BIOWL1-15 | 2026-08-31 13:27:20 | 51.05585 | 5.48993 | 51° | 58km/h | 16592m | -13.1m/s | -51°C | 0% | 98.8hPa | 2.5V | 08:18:18 | 02:56:49 | 00:00:00 | i |
| DM0DOS-11 | 2026-08-31 13:27:20 | 51.05576 | 5.48980 | 37° | 38km/h | 16605m | -13.8m/s | -51.1°C | 3.1% | 98.6hPa | 2.5V | 08:18:18 | 02:56:48 | 00:00:00 | i |
| DL1XH-west | 2026-08-31 13:27:11 | 51.05556 | 5.48884 | 63° | 13km/h | 16697m | -13.1m/s | -51.3°C | 0% | 97.2hPa | 2.6V | 08:20:00 | 02:56:41 | 00:00:00 | i |
| BIOWL1-15 | 2026-08-31 13:27:09 | 51.05552 | 5.48823 | 49° | 49km/h | 16751m | -13m/s | -51.4°C | 0% | 96.4hPa | 2.6V | 08:19:09 | 02:56:37 | 00:00:00 | i |
| DL1XH-west | 2026-08-31 13:27:01 | 51.05533 | 5.48753 | 45° | 51km/h | 16831m | -13.2m/s | -51.9°C | 0% | 95.2hPa | 2.6V | 08:20:00 | 02:56:31 | 00:00:00 | i |
| BIOWL1-15 | 2026-08-31 13:26:59 | 51.05518 | 5.48738 | 37° | 16km/h | 16858m | -13.9m/s | -52.1°C | 0% | 94.8hPa | 2.6V | 08:19:09 | 02:56:29 | 00:00:00 | i |
| DO1YAY-16 | 2026-08-31 13:26:58 | 51.05517 | 5.48730 | 93° | 26km/h | 16872m | -13.9m/s | -52.2°C | 0.9% | 94.6hPa | 2.5V | 00:00:00 | 00:00:00 | 00:00:00 | |
| GOEST3-10 | 2026-08-31 13:26:57 | 51.05516 | 5.48715 | 84° | 49km/h | 16886m | -13.1m/s | -52.3°C | 3.5% | 94.4hPa | 2.5V | 00:00:00 | 02:56:27 | 00:00:00 | |
| DM0DOS-11 | 2026-08-31 13:26:50 | 51.05454 | 5.48541 | 95° | 49km/h | 17035m | -13.6m/s | -51.7°C | 3.4% | 92.2hPa | 2.5V | 08:18:50 | 02:56:16 | 00:00:00 | |
| DL1XH-west | 2026-08-31 13:26:50 | 51.05476 | 5.48598 | 60° | 69km/h | 16979m | -14m/s | -51.7°C | 0% | 93.1hPa | 2.6V | 08:20:00 | 02:56:20 | 00:00:00 | |
| BIOWL1-15 | 2026-08-31 13:26:48 | 51.05458 | 5.48566 | 38° | 35km/h | 17007m | -14.1m/s | -51.6°C | 0% | 92.7hPa | 2.6V | 08:19:09 | 02:56:18 | 00:00:00 | i |
| DD1CC8 | 2026-08-31 13:26:47 | 51.05454 | 5.48556 | 85° | 27km/h | 17021m | -14.0m/s | -51.6°C | 0.9% | 92.5hPa | 2.5V | 00:00:00 | 00:00:00 | 00:00:00 | |
| DL1XH-west | 2026-08-31 13:26:40 | 51.05435 | 5.48420 | 100° | 60km/h | 17118m | -14.4m/s | -51.6°C | 0% | 91.1hPa | 2.5V | 08:20:00 | 02:56:10 | 00:00:00 | |
| DM0DOS-11 | 2026-08-31 13:26:39 | 51.05416 | 5.48334 | 55° | 29km/h | 17173m | -13.9m/s | -51.1°C | 3.2% | 90.4hPa | 2.5V | 08:19:00 | 02:56:06 | 00:00:00 | i |
| BIOWL1-15 | 2026-08-31 13:26:38 | 51.05430 | 5.48367 | 65° | 69km/h | 17146m | -13.8m/s | -51°C | 0% | 90.8hPa | 2.6V | 08:19:09 | 02:56:08 | 00:00:00 | i |
| BIOWL1-15 | 2026-08-31 13:26:30 | 51.05383 | 5.48194 | 85° | 60km/h | 17286m | -13.9m/s | -51.1°C | 0% | 88.8hPa | 2.6V | 08:19:09 | 02:55:58 | 00:00:00 | i |
| DM0DOS-11 | 2026-08-31 13:26:29 | 51.05370 | 5.48143 | 50° | 71km/h | 17313m | -13.9m/s | -50.7°C | 3.3% | 88.4hPa | 2.6V | 08:19:10 | 02:55:56 | 00:00:00 | i |
| DL1XH-west | 2026-08-31 13:26:29 | 51.05384 | 5.48213 | 86° | 38km/h | 17271m | -14.3m/s | -51°C | 0% | 89hPa | 2.5V | 08:20:00 | 02:55:59 | 00:00:00 | i |
| BIOWL1-15 | 2026-08-31 13:26:21 | 51.05322 | 5.47991 | 100° | 42km/h | 17442m | -14.7m/s | -49.8°C | 0% | 86.7hPa | 2.6V | 08:20:00 | 02:55:47 | 00:00:00 | i |
| DM0DOS-11 | 2026-08-31 13:26:20 | 51.05322 | 5.47971 | 81° | 60km/h | 17457m | -15.2m/s | -49.7°C | 2.9% | 86.5hPa | 2.6V | 08:19:20 | 02:55:46 | 00:00:00 | i |
| DL1XH-west | 2026-08-31 13:26:18 | 51.05321 | 5.48004 | 74° | 24km/h | 17427m | -14m/s | -50°C | 0% | 86.9hPa | 2.5V | 08:20:00 | 02:55:48 | 00:00:00 | i |
| GOEST3-10 | 2026-08-31 13:26:16 | 51.05321 | 5.47971 | 82° | 38km/h | 17457m | -15.1m/s | -49.6°C | 2.9% | 86.4hPa | 2.6V | 00:00:00 | 02:55:46 | 00:00:00 | |
| GOEST3-10 | 2026-08-31 13:26:11 | 51.05296 | 5.47910 | 93° | 31km/h | 17529m | -14.6m/s | -49.7°C | 3.0% | 85.4hPa | 2.6V | 00:00:00 | 00:00:00 | 00:00:00 | |
| DM0DOS-11 | 2026-08-31 13:26:08 | 51.05268 | 5.47855 | 90° | 22km/h | 17599m | -14.3m/s | -49.5°C | 2.8% | 84.6hPa | 2.6V | 08:19:30 | 02:55:36 | 00:00:00 | i |
| DL1XH-west | 2026-08-31 13:26:08 | 51.05277 | 5.47864 | 19° | 40km/h | 17571m | -14.1m/s | -49.4°C | 0% | 85hPa | 2.5V | 08:20:00 | 02:55:38 | 00:00:00 | i |
| BIOWL1-15 | 2026-08-31 13:26:06 | 51.05268 | 5.47855 | 90° | 22km/h | 17599m | -14.3m/s | -49.5°C | 0% | 84.6hPa | 2.6V | 08:20:00 | 02:55:36 | 00:00:00 | i |
| GOEST3-10 | 2026-08-31 13:26:05 | 51.05267 | 5.47842 | 80° | 44km/h | 17614m | -14.2m/s | -49.5°C | 2.9% | 84.4hPa | 2.6V | 00:00:00 | 02:55:35 | 00:00:00 | |
| WEDDY | 2026-08-31 13:26:04 | 51.05267 | 5.47842 | 80° | 44km/h | 17614m | -14.3m/s | -49.6°C | 0.7% | 84.4hPa | 2.6V | 08:20:00 | 00:00:00 | 00:00:00 | |
| HTAHTA | 2026-08-31 13:26:02 | 51.05238 | 5.47796 | 55° | 16km/h | 17670m | -14.4m/s | -49.9°C | 0.7% | 83.7hPa | 2.6V | 00:00:00 | 00:00:00 | 00:00:00 | |
| GOEST3-10 | 2026-08-31 13:26:00 | 51.05236 | 5.47787 | 84° | 35km/h | 17685m | -14.4m/s | -50.0°C | 3.0% | 83.5hPa | 2.6V | 00:00:00 | 00:00:00 | 00:00:00 | |
| DD1CC1-15 | 2026-08-31 13:25:59 | 51.05236 | 5.47786 | 85° | 35km/h | 17685m | -14.4m/s | -50.0°C | 0.7% | 83.5hPa | 2.6V | 08:20:00 | 00:00:00 | 00:00:00 | |
| DM0DOS-11 | 2026-08-31 13:25:58 | 51.05199 | 5.47729 | 77° | 35km/h | 17771m | -14.5m/s | -49.9°C | 2.9% | 82.5hPa | 2.6V | 08:19:42 | 02:55:24 | 00:00:00 | i |
| BIOWL1-15 | 2026-08-31 13:25:57 | 51.05201 | 5.47738 | 67° | 13km/h | 17756m | -14.3m/s | -49.7°C | 0% | 82.6hPa | 2.6V | 08:20:00 | 02:55:25 | 00:00:00 | i |
| DL1XH-west | 2026-08-31 13:25:57 | 51.05213 | 5.47743 | 17° | 47km/h | 17728m | -14.2m/s | -49.7°C | 0% | 83hPa | 2.5V | 08:20:00 | 02:55:27 | 00:00:00 | i |
| DL1XH-west | 2026-08-31 13:25:46 | 51.05143 | 5.47652 | 19° | 51km/h | 17885m | -14.3m/s | -49.9°C | 0% | 81hPa | 2.5V | 08:20:00 | 02:55:16 | 00:00:00 | i |
| BIOWL1-15 | 2026-08-31 13:25:45 | 51.05133 | 5.47648 | 6° | 31km/h | 17899m | -14.7m/s | -50°C | 0% | 80.8hPa | 2.5V | 08:20:00 | 02:55:15 | 00:00:00 | i |
| DD1CC9-15 | 2026-08-31 13:25:44 | 51.05133 | 5.47648 | 7° | 31km/h | 17900m | -14.7m/s | -50.0°C | 0.8% | 80.8hPa | 2.5V | 08:20:00 | 00:00:00 | 00:00:00 | |
| GOEST3-10 | 2026-08-31 13:25:43 | 51.05125 | 5.47635 | 73° | 38km/h | 17929m | -14.2m/s | -50.3°C | 3.0% | 80.4hPa | 2.5V | 00:00:00 | 02:55:13 | 00:00:00 | |
| DM0DOS-11 | 2026-08-31 13:25:39 | 51.05055 | 5.47534 | 5° | 31km/h | 18059m | -14.6m/s | -50.1°C | 2.9% | 78.9hPa | 2.5V | 08:20:02 | 02:55:04 | 00:00:00 | i |
| DL1XH-west | 2026-08-31 13:25:36 | 51.05076 | 5.47552 | 47° | 58km/h | 18030m | -14.8m/s | -50.2°C | 0% | 79.2hPa | 2.5V | 08:20:00 | 02:55:06 | 00:00:00 | i |
| BIOWL1-15 | 2026-08-31 13:25:34 | 51.05008 | 5.47481 | 7° | 27km/h | 18146m | -14.7m/s | -50.3°C | 0% | 77.8hPa | 2.5V | 08:20:51 | 02:54:58 | 00:00:00 | i |
| GOEST3-10 | 2026-08-31 13:25:32 | 51.05047 | 5.47522 | 70° | 29km/h | 18088m | -14.4m/s | -50.0°C | 3.0% | 78.4hPa | 2.6V | 08:20:00 | 02:55:02 | 00:00:00 | |
| HTAHTA | 2026-08-31 13:25:31 | 51.05041 | 5.47507 | 53° | 55km/h | 18103m | -14.5m/s | -50.0°C | 0.7% | 78.3hPa | 2.6V | 00:00:00 | 00:00:00 | 00:00:00 | |
| DL8DAS-14 | 2026-08-31 13:25:30 | 51.05017 | 5.47484 | 11° | 47km/h | 18132m | -14.4m/s | -50.2°C | 0.7% | 78.0hPa | 2.6V | 00:00:00 | 00:00:00 | 00:00:00 | |
| BIOWL9-15 | 2026-08-31 13:25:29 | 51.05008 | 5.47481 | 6° | 27km/h | 18146m | -14.7m/s | -50.3°C | 0.7% | 77.8hPa | 2.6V | 00:00:00 | 00:00:00 | 00:00:00 | |
| DM0DOS-11 | 2026-08-31 13:25:28 | 51.04980 | 5.47438 | 21° | 51km/h | 18204m | -14.9m/s | -50.2°C | 3% | 77.1hPa | 2.6V | 08:20:12 | 02:54:54 | 00:00:00 | i |
| DL1XH-west | 2026-08-31 13:25:26 | 51.04999 | 5.47465 | 63° | 44km/h | 18175m | -14.4m/s | -50.6°C | 0% | 77.5hPa | 2.6V | 08:20:51 | 02:54:56 | 00:00:00 | i |
| GOEST3-10 | 2026-08-31 13:25:26 | 51.04999 | 5.47465 | 64° | 27km/h | 18175m | -14.3m/s | -50.6°C | 3.1% | 77.5hPa | 2.5V | 00:00:00 | 00:00:00 | 00:00:00 | i |
| DO1YAY-16 | 2026-08-31 13:25:25 | 51.04991 | 5.47450 | 43° | 55km/h | 18190m | -14.8m/s | -50.4°C | 0.8% | 77.3hPa | 2.5V | 00:00:00 | 00:00:00 | 00:00:00 | |
| DD1CC9-15 | 2026-08-31 13:25:23 | 51.04980 | 5.47438 | 23° | 51km/h | 18204m | -14.9m/s | -50.3°C | 0.8% | 77.1hPa | 2.5V | 08:20:00 | 00:00:00 | 00:00:00 | |
| DL1XH-15 | 2026-08-31 13:25:22 | 51.04941 | 5.47389 | 10° | 40km/h | 18293m | -15.2m/s | -50.4°C | 2.9% | 76.1hPa | 2.5V | 08:20:18 | 02:54:48 | 00:00:00 | i |
| BIOWL1-15 | 2026-08-31 13:25:20 | 51.04960 | 5.47411 | 60° | 49km/h | 18263m | -15.1m/s | -50.2°C | 0% | 76.5hPa | 2.6V | 08:20:51 | 02:54:50 | 00:00:00 | i |
| GOEST3-10 | 2026-08-31 13:25:20 | 51.04960 | 5.47411 | 61° | 27km/h | 18263m | -15.1m/s | -50.1°C | 2.9% | 76.4hPa | 2.6V | 00:00:00 | 02:54:50 | 00:00:00 | i |
| DM0DOS-11 | 2026-08-31 13:25:19 | 51.04926 | 5.47358 | 51° | 49km/h | 18353m | -14.8m/s | -50.7°C | 3% | 75.4hPa | 2.6V | 08:20:22 | 02:54:44 | 00:00:00 | i |
| DL1XH-west | 2026-08-31 13:25:15 | 51.04931 | 5.47373 | 77° | 38km/h | 18338m | -15.4m/s | -50.8°C | 0% | 75.5hPa | 2.6V | 08:20:51 | 02:54:45 | 00:00:00 | i |
| GOEST3-10 | 2026-08-31 13:25:15 | 51.04931 | 5.47373 | 78° | 24km/h | 18338m | -15.4m/s | -50.8°C | 3.1% | 75.5hPa | 2.6V | 00:00:00 | 00:00:00 | 00:00:00 | i |
| DD1CC8 | 2026-08-31 13:25:14 | 51.04926 | 5.47358 | 51° | 47km/h | 18353m | -14.8m/s | -50.7°C | 0.7% | 75.4hPa | 2.6V | 00:00:00 | 00:00:00 | 00:00:00 | |
| GOEST3-10 | 2026-08-31 13:25:10 | 51.04902 | 5.47334 | 83° | 26km/h | 18412m | -15.2m/s | -50.8°C | 3.0% | 74.7hPa | 2.6V | 00:00:00 | 02:54:40 | 00:00:00 | i |
| BIOWL1-15 | 2026-08-31 13:25:10 | 51.04902 | 5.47335 | 82° | 31km/h | 18412m | -15.2m/s | -50.8°C | 0% | 74.8hPa | 2.6V | 08:20:51 | 02:54:40 | 00:00:00 | i |
| DM0DOS-11 | 2026-08-31 13:25:09 | 51.04861 | 5.47284 | 61° | 44km/h | 18502m | -15.1m/s | -51.4°C | 3.2% | 73.7hPa | 2.6V | 08:20:32 | 02:54:34 | 00:00:00 | i |
| DL1XH-15 | 2026-08-31 13:25:07 | 51.04878 | 5.47300 | 7° | 46km/h | 18457m | -14.9m/s | -51°C | 3% | 74.2hPa | 2.5V | 08:20:29 | 02:54:37 | 00:00:00 | i |
| DL1XH-west | 2026-08-31 13:25:04 | 51.04861 | 5.47284 | 61° | 44km/h | 18503m | -15.1m/s | -51.4°C | 0% | 73.7hPa | 2.6V | 08:20:51 | 02:54:34 | 00:00:00 | i |
| BIOWL1-15 | 2026-08-31 13:25:00 | 51.04820 | 5.47248 | 23° | 24km/h | 18563m | -14.9m/s | -51.5°C | 0% | 73hPa | 2.5V | 08:20:51 | 02:54:30 | 00:00:00 | i |
| HTAHTA | 2026-08-31 13:25:00 | 51.04815 | 5.47240 | 61° | 35km/h | 18578m | -14.5m/s | -51.6°C | 0.8% | 72.8hPa | 2.5V | 00:00:00 | 00:00:00 | 00:00:00 | i |
| GOEST3-10 | 2026-08-31 13:24:59 | 51.04815 | 5.47240 | 62° | 37km/h | 18578m | -14.5m/s | -51.6°C | 3.2% | 72.8hPa | 2.5V | 00:00:00 | 02:54:29 | 00:00:00 | |
| DM0DOS-11 | 2026-08-31 13:24:58 | 51.04770 | 5.47186 | 66° | 31km/h | 18653m | -15m/s | -51.8°C | 3.2% | 72hPa | 2.5V | 08:20:42 | 02:54:24 | 00:00:00 | i |
| GOEST3-10 | 2026-08-31 13:24:54 | 51.04770 | 5.47186 | 67° | 26km/h | 18653m | -15.0m/s | -51.7°C | 3.2% | 72.0hPa | 2.6V | 00:00:00 | 00:00:00 | 00:00:00 | |
| DL1XH-15 | 2026-08-31 13:24:52 | 51.04735 | 5.47132 | 14° | 33km/h | 18715m | -15.4m/s | -51.7°C | 3.2% | 71.3hPa | 2.6V | 08:20:46 | 02:54:20 | 00:00:00 | i |
| DL1XH-west | 2026-08-31 13:24:52 | 51.04757 | 5.47152 | 46° | 62km/h | 18683m | -15.7m/s | -51.7°C | 0% | 71.7hPa | 2.6V | 08:20:51 | 02:54:22 | 00:00:00 | i |
| BIOWL1-15 | 2026-08-31 13:24:50 | 51.04735 | 5.47132 | 14° | 33km/h | 18715m | -15.4m/s | -51.7°C | 0% | 71.3hPa | 2.6V | 08:20:51 | 02:54:20 | 00:00:00 | i |
| DJ2KF-10 | 2026-08-31 13:24:49 | 51.04730 | 5.47127 | 57° | 44km/h | 18730m | -15.3m/s | -51.8°C | 3.2% | 71.1hPa | 2.6V | 00:00:00 | 02:54:19 | 00:00:00 | |
| GOEST3-10 | 2026-08-31 13:24:48 | 51.04727 | 5.47115 | 80° | 33km/h | 18746m | -15.2m/s | -51.9°C | 3.3% | 70.9hPa | 2.6V | 00:00:00 | 02:54:18 | 00:00:00 | |
| DM0DOS-11 | 2026-08-31 13:24:47 | 51.04696 | 5.47058 | 46° | 22km/h | 18807m | -15.7m/s | -52.3°C | 3.4% | 70.3hPa | 2.6V | 08:20:52 | 02:54:14 | 00:00:00 | i |
| BIOWL1-15 | 2026-08-31 13:24:42 | 51.04677 | 5.46987 | 40° | 55km/h | 18869m | -16m/s | -52.2°C | 0% | 69.7hPa | 2.5V | 08:21:42 | 02:54:10 | 00:00:00 | i |
| DL1XH-west | 2026-08-31 13:24:41 | 51.04686 | 5.47005 | 58° | 68km/h | 18853m | -15.6m/s | -52.2°C | 0% | 69.8hPa | 2.5V | 08:21:42 | 02:54:11 | 00:00:00 | i |
| DJ2DS-15 | 2026-08-31 13:24:39 | 51.04666 | 5.46966 | 90° | 27km/h | 18901m | -16.1m/s | -52.4°C | 0.9% | 69.3hPa | 2.6V | 00:00:00 | 00:00:00 | 00:00:00 | |
| DD1CC1-15 | 2026-08-31 13:24:37 | 51.04666 | 5.46966 | 91° | 29km/h | 18902m | -16.1m/s | -52.4°C | 0.9% | 69.3hPa | 2.6V | 08:21:00 | 00:00:00 | 00:00:00 | |
| DM0DOS-11 | 2026-08-31 13:24:36 | 51.04647 | 5.46884 | 40° | 49km/h | 18964m | -15.6m/s | -52.2°C | 3.4% | 68.6hPa | 2.6V | 08:21:02 | 02:54:04 | 00:00:00 | i |
| GOEST3-10 | 2026-08-31 13:24:36 | 51.04664 | 5.46926 | 76° | 47km/h | 18933m | -15.4m/s | -52.4°C | 3.5% | 68.9hPa | 2.6V | 00:00:00 | 02:54:06 | 00:00:00 | i |
| DL1XH-15 | 2026-08-31 13:24:33 | 51.04615 | 5.46783 | 39° | 31km/h | 19059m | -15.7m/s | -51.8°C | 3.3% | 67.6hPa | 2.6V | 08:21:08 | 02:53:58 | 00:00:00 | i |
| DL1XH-west | 2026-08-31 13:24:31 | 51.04637 | 5.46839 | 82° | 64km/h | 19011m | -15.9m/s | -52.2°C | 0% | 68.2hPa | 2.6V | 08:21:42 | 02:54:01 | 00:00:00 | i |
| BIOWL1-15 | 2026-08-31 13:24:30 | 51.04632 | 5.46814 | 63° | 69km/h | 19027m | -16.5m/s | -52°C | 0% | 68hPa | 2.5V | 08:21:42 | 02:54:00 | 00:00:00 | |
| DM0DOS-11 | 2026-08-31 13:24:29 | 51.04605 | 5.46722 | 50° | 53km/h | 19123m | -16m/s | -51.6°C | 3.2% | 67hPa | 2.5V | 08:21:12 | 02:53:54 | 00:00:00 | i |
| DL1XH-west | 2026-08-31 13:24:20 | 51.04595 | 5.46687 | 94° | 40km/h | 19187m | -15.8m/s | -51.9°C | 0% | 66.3hPa | 2.6V | 08:21:42 | 02:53:50 | 00:00:00 | i |
| BIOWL1-15 | 2026-08-31 13:24:19 | 51.04583 | 5.46652 | 20° | 11km/h | 19235m | -15.9m/s | -51.9°C | 0% | 65.8hPa | 2.5V | 08:21:42 | 02:53:47 | 00:00:00 | i |
| DJ2KF-10 | 2026-08-31 13:24:19 | 51.04593 | 5.46670 | 68° | 35km/h | 19203m | -16.4m/s | -51.7°C | 3.3% | 66.1hPa | 2.6V | 00:00:00 | 02:53:49 | 00:00:00 | i |
| DD1CC1-15 | 2026-08-31 13:24:17 | 51.04587 | 5.46657 | 40° | 35km/h | 19219m | -16.2m/s | -51.8°C | 0.8% | 66.0hPa | 2.6V | 08:21:00 | 00:00:00 | 00:00:00 | |
| DM0DOS-11 | 2026-08-31 13:24:16 | 51.04587 | 5.46625 | 81° | 46km/h | 19283m | -16.2m/s | -51.9°C | 3.3% | 65.3hPa | 2.6V | 08:21:22 | 02:53:44 | 00:00:00 | i |
| DL1XH-west | 2026-08-31 13:24:09 | 51.04576 | 5.46579 | 88° | 46km/h | 19364m | -16.2m/s | -51.8°C | 0% | 64.5hPa | 2.5V | 08:21:42 | 02:53:39 | 00:00:00 | i |
| DL1XH-west | 2026-08-31 13:23:59 | 51.04545 | 5.46451 | 105° | 40km/h | 19526m | -15.7m/s | -52.4°C | 0% | 62.9hPa | 2.5V | 08:21:42 | 02:53:29 | 00:00:00 | i |
| BIOWL1-15 | 2026-08-31 13:23:59 | 51.04542 | 5.46411 | 63° | 55km/h | 19558m | -16.2m/s | -52.3°C | 0% | 62.6hPa | 2.5V | 08:21:42 | 02:53:27 | 00:00:00 | i |
| HTAHTA | 2026-08-31 13:23:58 | 51.04542 | 5.46411 | 63° | 53km/h | 19558m | -16.2m/s | -52.3°C | 0.8% | 62.6hPa | 2.6V | 00:00:00 | 00:00:00 | 00:00:00 | |
| DM0DOS-11 | 2026-08-31 13:23:56 | 51.04537 | 5.46364 | 103° | 53km/h | 19623m | -16.6m/s | -52.6°C | 3.6% | 62hPa | 2.6V | 08:21:43 | 02:53:23 | 00:00:00 | i |
| BIOWL1-15 | 2026-08-31 13:23:49 | 51.04538 | 5.46283 | 98° | 49km/h | 19722m | -16.8m/s | -52.4°C | 0.1% | 61hPa | 2.6V | 08:22:33 | 02:53:17 | 00:00:00 | i |
| DL1XH-west | 2026-08-31 13:23:48 | 51.04535 | 5.46300 | 123° | 42km/h | 19705m | -16.1m/s | -52.5°C | 0.1% | 61.2hPa | 2.6V | 18:12:15 | 02:53:18 | 00:00:00 | i |
| DL1XH-west | 2026-08-31 13:23:38 | 51.04556 | 5.46216 | 180° | 26km/h | 19872m | -16.9m/s | -51.9°C | 0% | 0hPa | 2.6V | 18:12:15 | 02:53:08 | 00:00:00 | |
| BIOWL1-15 | 2026-08-31 13:23:36 | 51.04566 | 5.46201 | 97° | 33km/h | 19906m | -16.5m/s | -51.9°C | 0.1% | 59.3hPa | 2.5V | 08:22:33 | 02:53:06 | 00:00:00 | i |
| DL1XH-15 | 2026-08-31 13:23:35 | 51.04561 | 5.46188 | 343° | 13km/h | 19938m | -16.7m/s | -51.7°C | 3.2% | 59hPa | 2.5V | 08:22:02 | 02:53:04 | 00:00:00 | i |
| DM0DOS-11 | 2026-08-31 13:23:35 | 51.04561 | 5.46190 | 230° | 13km/h | 19955m | -16.9m/s | -51.8°C | 3.2% | 58.9hPa | 2.6V | 08:22:03 | 02:53:03 | 00:00:00 | i |
| DL1XH-west | 2026-08-31 13:23:27 | 51.04555 | 5.46177 | 201° | 13km/h | 20057m | -16.8m/s | -51.9°C | 0% | 0hPa | 2.5V | 18:12:15 | 02:52:57 | 00:00:00 | i |
| HTAHTA | 2026-08-31 13:23:27 | 51.04558 | 5.46165 | 65° | 29km/h | 20090m | -16.3m/s | -52.1°C | 0.8% | 57.6hPa | 2.6V | 00:00:00 | 00:00:00 | 00:00:00 | i |
| DL1XH-15 | 2026-08-31 13:23:25 | 51.04547 | 5.46158 | 329° | 20km/h | 20123m | -17.1m/s | -52.2°C | 3.3% | 57.3hPa | 2.6V | 08:22:13 | 02:52:53 | 00:00:00 | i |
| BIOWL1-15 | 2026-08-31 13:23:25 | 51.04558 | 5.46165 | 66° | 29km/h | 20090m | -16.3m/s | -52.1°C | 0% | 57.6hPa | 2.6V | 08:22:33 | 02:52:55 | 00:00:00 | i |
| BIOWL9-15 | 2026-08-31 13:23:25 | 51.04553 | 5.46158 | 18° | 29km/h | 20106m | -16.4m/s | -52.1°C | 0.8% | 57.5hPa | 2.5V | 00:00:00 | 00:00:00 | 00:00:00 | i |
| DO1YAY-16 | 2026-08-31 13:23:21 | 51.04548 | 5.46152 | 76° | 27km/h | 20175m | -17.8m/s | -52.4°C | 0.8% | 56.9hPa | 2.5V | 00:00:00 | 00:00:00 | 00:00:00 | |
| DJ2KF-10 | 2026-08-31 13:23:19 | 51.04544 | 5.46143 | 33° | 24km/h | 20192m | -17.6m/s | -52.3°C | 3.4% | 56.7hPa | 2.5V | 00:00:00 | 02:52:49 | 00:00:00 | |
| DD1CC9-15 | 2026-08-31 13:23:18 | 51.04544 | 5.46143 | 33° | 29km/h | 20192m | -17.6m/s | -52.4°C | 0.9% | 56.8hPa | 2.5V | 08:22:00 | 00:00:00 | 00:00:00 | |
| DM0DOS-11 | 2026-08-31 13:23:16 | 51.04525 | 5.46127 | 344° | 37km/h | 20297m | -17.5m/s | -52.2°C | 3.4% | 55.9hPa | 2.5V | 08:22:23 | 02:52:43 | 00:00:00 | i |
| DL1XH-west | 2026-08-31 13:23:16 | 51.04537 | 5.46145 | 146° | 16km/h | 20244m | -17.9m/s | -52.4°C | 0.1% | 0hPa | 2.6V | 18:12:15 | 02:52:46 | 00:00:00 | i |
| BIOWL1-15 | 2026-08-31 13:23:15 | 51.04538 | 5.46138 | 78° | 29km/h | 20262m | -17.8m/s | -52.3°C | 0.1% | 56.1hPa | 2.5V | 08:22:33 | 02:52:45 | 00:00:00 | i |
| DD1CC8 | 2026-08-31 13:23:10 | 51.04497 | 5.46127 | 319° | 27km/h | 20401m | -17.3m/s | -52.3°C | 0.8% | 55.0hPa | 2.6V | 00:00:00 | 00:00:00 | 00:00:00 | |
| DM0DOS-11 | 2026-08-31 13:23:06 | 51.04486 | 5.46110 | 22° | 38km/h | 20470m | -17.9m/s | -52.1°C | 3.4% | 54.3hPa | 2.6V | 08:22:33 | 02:52:33 | 00:00:00 | i |
| BIOWL1-15 | 2026-08-31 13:23:05 | 51.04495 | 5.46129 | 98° | 20km/h | 20435m | -17.3m/s | -52.6°C | 0.1% | 54.7hPa | 2.6V | 08:22:33 | 02:52:35 | 00:00:00 | i |
| DL1XH-west | 2026-08-31 13:23:02 | 51.04479 | 5.46108 | 342° | 26km/h | 20488m | -18.2m/s | 0°C | 0% | 0hPa | 2.6V | 18:12:15 | 02:52:32 | 00:00:00 | i |
| MET0W-2 | 2026-08-31 13:22:59 | 51.04473 | 5.46081 | 358° | 18km/h | 20579m | -17.7m/s | -52.0°C | 0.8% | 53.4hPa | 2.5V | 00:00:00 | 00:00:00 | 00:00:00 | |
| DD1CC9-15 | 2026-08-31 13:22:57 | 51.04478 | 5.46086 | 49° | 33km/h | 20561m | -18.8m/s | -52.0°C | 0.8% | 53.7hPa | 2.5V | 08:23:00 | 00:00:00 | 00:00:00 | |
| DM0DOS-11 | 2026-08-31 13:22:56 | 51.04482 | 5.46069 | 73° | 27km/h | 20650m | -17.7m/s | -51.7°C | 3.3% | 52.8hPa | 2.5V | 08:22:43 | 02:52:23 | 00:00:00 | i |
| BIOWL1-15 | 2026-08-31 13:22:54 | 51.04480 | 5.46080 | 124° | 31km/h | 20632m | -18.5m/s | -51.8°C | 0% | 53hPa | 2.5V | 08:23:24 | 02:52:24 | 00:00:00 | |
| DL1XH-west | 2026-08-31 13:22:52 | 51.04475 | 5.46067 | 289° | 20km/h | 20685m | -17.5m/s | 0°C | 0% | 0hPa | 2.6V | 18:12:15 | 02:52:21 | 00:00:00 | i |
| DO1YAY-16 | 2026-08-31 13:22:50 | 51.04481 | 5.46075 | 156° | 24km/h | 20720m | -17.6m/s | -52.0°C | 0.8% | 52.3hPa | 2.6V | 00:00:00 | 00:00:00 | 00:00:00 | |
| DJ2KF-10 | 2026-08-31 13:22:49 | 51.04481 | 5.46075 | 157° | 24km/h | 20720m | -17.6m/s | -52.0°C | 3.3% | 52.3hPa | 2.6V | 00:00:00 | 02:52:19 | 00:00:00 | |
| DM0DOS-11 | 2026-08-31 13:22:46 | 51.04482 | 5.46077 | 110° | 20km/h | 20825m | -18.2m/s | -52.5°C | 3.5% | 51.4hPa | 2.6V | 08:22:53 | 02:52:13 | 00:00:00 | i |
| BIOWL1-15 | 2026-08-31 13:22:43 | 51.04482 | 5.46077 | 111° | 20km/h | 20825m | -18.3m/s | -52.5°C | 0.1% | 51.4hPa | 2.6V | 08:23:24 | 02:52:13 | 00:00:00 | i |
| DD1CC8 | 2026-08-31 13:22:39 | 51.04479 | 5.46079 | 115° | 24km/h | 20916m | -17.7m/s | -52.4°C | 0.8% | 50.8hPa | 2.5V | 00:00:00 | 00:00:00 | 00:00:00 | |
| DM0DOS-11 | 2026-08-31 13:22:37 | 51.04475 | 5.46066 | 118° | 26km/h | 21007m | -18.7m/s | -52.6°C | 3.5% | 50hPa | 2.5V | 08:23:03 | 02:52:03 | 00:00:00 | i |
| DL1XH-west | 2026-08-31 13:22:36 | 51.04474 | 5.46065 | 4° | 24km/h | 20953m | -18.6m/s | 0°C | 0% | 0hPa | 2.6V | 18:12:15 | 02:52:06 | 00:00:00 | i |
| BIOWL1-15 | 2026-08-31 13:22:32 | 51.04476 | 5.46057 | 62° | 24km/h | 21025m | -18.4m/s | -52.5°C | 0.1% | 49.9hPa | 2.5V | 08:23:24 | 02:52:02 | 00:00:00 | i |
| GOEST3-10 | 2026-08-31 13:22:28 | 51.04473 | 5.46061 | 113° | 15km/h | 21099m | -19.1m/s | -52.8°C | 3.6% | 49.3hPa | 2.6V | 00:00:00 | 00:00:00 | 00:00:00 | |
| DM0DOS-11 | 2026-08-31 13:22:27 | 51.04462 | 5.46057 | 82° | 20km/h | 21192m | -18.5m/s | -52.6°C | 3.6% | 48.6hPa | 2.6V | 08:23:13 | 02:51:53 | 00:00:00 | i |
| DL1XH-west | 2026-08-31 13:22:26 | 51.04466 | 5.46051 | 350° | 27km/h | 21136m | -18.4m/s | 0°C | 0% | 0hPa | 2.5V | 18:12:15 | 02:51:56 | 00:00:00 | i |
| BIOWL1-15 | 2026-08-31 13:22:21 | 51.04439 | 5.46053 | 296° | 5km/h | 21266m | -18.9m/s | -53°C | 0.3% | 48.1hPa | 2.5V | 08:23:24 | 02:51:49 | 00:00:00 | i |
| DJ2DS-15 | 2026-08-31 13:22:20 | 51.04439 | 5.46053 | 296° | 4km/h | 21266m | -18.9m/s | -53.0°C | 0.9% | 48.1hPa | 2.6V | 00:00:00 | 00:00:00 | 00:00:00 | |
| DJ2KF-10 | 2026-08-31 13:22:19 | 51.04439 | 5.46053 | 297° | 24km/h | 21266m | -18.8m/s | -52.9°C | 3.7% | 48.0hPa | 2.6V | 00:00:00 | 02:51:49 | 00:00:00 | |
| DL1XH-15 | 2026-08-31 13:22:18 | 51.04417 | 5.46034 | 336° | 22km/h | 21341m | -18.6m/s | -52.4°C | 3.6% | 47.5hPa | 2.6V | 08:23:21 | 02:51:45 | 00:00:00 | i |
| DM0DOS-11 | 2026-08-31 13:22:18 | 51.04414 | 5.46028 | 80° | 31km/h | 21378m | -19.4m/s | -52.3°C | 3.7% | 47.2hPa | 2.5V | 08:23:23 | 02:51:43 | 00:00:00 | i |
| DL1XH-west | 2026-08-31 13:22:15 | 51.04417 | 5.46034 | 336° | 22km/h | 21341m | -18.6m/s | 0°C | 0% | 0hPa | 2.6V | 18:12:15 | 02:51:45 | 00:00:00 | i |
| BIOWL1-15 | 2026-08-31 13:22:09 | 51.04394 | 5.46010 | 146° | 7km/h | 21455m | -19.3m/s | -51.7°C | 0.1% | 46.7hPa | 2.6V | 08:24:15 | 02:51:39 | 00:00:00 | i |
| DL1XH-15 | 2026-08-31 13:22:08 | 51.04376 | 5.45984 | 330° | 22km/h | 21533m | -19.3m/s | -51.3°C | 3.4% | 46.1hPa | 2.5V | 08:23:31 | 02:51:35 | 00:00:00 | i |
| DD1CC8 | 2026-08-31 13:22:08 | 51.04391 | 5.45991 | 49° | 40km/h | 21494m | -19.3m/s | -51.6°C | 0.8% | 46.3hPa | 2.6V | 00:00:00 | 00:00:00 | 00:00:00 | i |
| DM0DOS-11 | 2026-08-31 13:22:07 | 51.04375 | 5.45983 | 95° | 22km/h | 21572m | -19.5m/s | -51°C | 3.3% | 45.8hPa | 2.6V | 08:23:33 | 02:51:33 | 00:00:00 | i |
| DL1XH-west | 2026-08-31 13:22:05 | 51.04376 | 5.45984 | 330° | 24km/h | 21533m | -19.3m/s | 0°C | 0% | 0hPa | 2.5V | 18:12:15 | 02:51:35 | 00:00:00 | i |
| GOEST3-10 | 2026-08-31 13:22:05 | 51.04376 | 5.45984 | 331° | 22km/h | 21533m | -19.3m/s | -51.2°C | 3.4% | 46.1hPa | 2.5V | 00:00:00 | 02:51:35 | 00:00:00 | i |
| WPPR-10 | 2026-08-31 13:22:01 | 51.04358 | 5.45969 | 205° | 7km/h | 21651m | -19.5m/s | -50.6°C | 0.7% | 45.3hPa | 2.5V | 00:00:00 | 00:00:00 | 00:00:00 | |
| GOEST3-10 | 2026-08-31 13:21:59 | 51.04358 | 5.45969 | 206° | 15km/h | 21651m | -19.4m/s | -50.6°C | 3.1% | 45.3hPa | 2.5V | 00:00:00 | 00:00:00 | 00:00:00 | |
| DL1XH-15 | 2026-08-31 13:21:58 | 51.04352 | 5.45945 | 315° | 18km/h | 21729m | -19.5m/s | -50.1°C | 2.9% | 44.8hPa | 2.6V | 08:23:41 | 02:51:25 | 00:00:00 | i |
| DM0DOS-11 | 2026-08-31 13:21:57 | 51.04355 | 5.45951 | 141° | 16km/h | 21770m | -20.6m/s | -49.9°C | 2.9% | 44.5hPa | 2.5V | 08:23:43 | 02:51:23 | 00:00:00 | i |
| DL1XH-west | 2026-08-31 13:21:54 | 51.04352 | 5.45951 | 228° | 16km/h | 21749m | -20m/s | 0°C | 0% | 0hPa | 2.5V | 18:12:15 | 02:51:24 | 00:00:00 | i |
| HTAHTA | 2026-08-31 13:21:54 | 51.04355 | 5.45951 | 141° | 16km/h | 21770m | -20.6m/s | -49.9°C | 0.7% | 44.5hPa | 2.6V | 00:00:00 | 00:00:00 | 00:00:00 | i |
| DL8DAS-14 | 2026-08-31 13:21:52 | 51.04355 | 5.45945 | 66° | 22km/h | 21790m | -20.3m/s | -49.9°C | 0.6% | 44.4hPa | 2.6V | 00:00:00 | 00:00:00 | 00:00:00 | |
| BIOWL9-15 | 2026-08-31 13:21:51 | 51.04350 | 5.45940 | 6° | 27km/h | 21810m | -19.7m/s | -50.0°C | 0.7% | 44.2hPa | 2.6V | 00:00:00 | 00:00:00 | 00:00:00 | |
| DJ2KF-10 | 2026-08-31 13:21:49 | 51.04342 | 5.45951 | 265° | 27km/h | 21850m | -20.1m/s | -50.1°C | 2.9% | 43.9hPa | 2.6V | 00:00:00 | 02:51:19 | 00:00:00 | |
| DM0DOS-11 | 2026-08-31 13:21:48 | 51.04326 | 5.45966 | 109° | 5km/h | 21971m | -20.6m/s | -50.6°C | 3.1% | 43.1hPa | 2.6V | 08:23:53 | 02:51:13 | 00:00:00 | i |
| BIOWL1-15 | 2026-08-31 13:21:45 | 51.04329 | 5.45954 | 318° | 35km/h | 21930m | -20.3m/s | -50.3°C | 0% | 43.4hPa | 2.6V | 08:24:15 | 02:51:15 | 00:00:00 | i |
| DL1XH-west | 2026-08-31 13:21:43 | 51.04326 | 5.45966 | 110° | 5km/h | 21971m | -20.6m/s | 0°C | 0% | 0hPa | 2.6V | 18:12:15 | 02:51:13 | 00:00:00 | i |
| DL1XH-15 | 2026-08-31 13:21:38 | 51.04277 | 5.45961 | 338° | 44km/h | 22135m | -20.4m/s | -51.2°C | 3.2% | 42hPa | 2.5V | 08:24:01 | 02:51:05 | 00:00:00 | |
| GOEST3-10 | 2026-08-31 13:21:38 | 51.04299 | 5.45970 | 78° | 7km/h | 22074m | -20.7m/s | -51.1°C | 3.2% | 42.4hPa | 2.6V | 00:00:00 | 00:00:00 | 00:00:00 | |
| DM0DOS-11 | 2026-08-31 13:21:37 | 51.04266 | 5.45971 | 23° | 11km/h | 22177m | -21m/s | -51.4°C | 3.3% | 41.7hPa | 2.6V | 08:24:03 | 02:51:03 | 00:00:00 | i |
| BIOWL1-15 | 2026-08-31 13:21:35 | 51.04277 | 5.45961 | 338° | 44km/h | 22135m | -20.4m/s | -51.2°C | 0% | 42.1hPa | 2.5V | 08:24:15 | 02:51:05 | 00:00:00 | i |
| DL1XH-west | 2026-08-31 13:21:29 | 51.04230 | 5.45962 | 335° | 26km/h | 22260m | -21m/s | 0°C | 0% | 0hPa | 2.5V | 18:12:15 | 02:50:59 | 00:00:00 | i |
| DM0DOS-11 | 2026-08-31 13:21:27 | 51.04200 | 5.45934 | 106° | 15km/h | 22384m | -21.1m/s | -51.2°C | 3.2% | 40.5hPa | 2.5V | 08:24:13 | 02:50:53 | 00:00:00 | i |
| BIOWL1-15 | 2026-08-31 13:21:24 | 51.04200 | 5.45934 | 106° | 15km/h | 22384m | -21.1m/s | -51.2°C | 0% | 40.5hPa | 2.5V | 08:24:15 | 02:50:53 | 00:00:00 | i |
| DL1XH-15 | 2026-08-31 13:21:24 | 51.04185 | 5.45901 | 215° | 2km/h | 22468m | -20.8m/s | -51.3°C | 3.2% | 40hPa | 2.6V | 08:24:17 | 02:50:49 | 00:00:00 | i |
| HTAHTA | 2026-08-31 13:21:23 | 51.04199 | 5.45924 | 81° | 37km/h | 22405m | -20.7m/s | -51.2°C | 0.7% | 40.4hPa | 2.5V | 00:00:00 | 00:00:00 | 00:00:00 | |
| GOEST3-10 | 2026-08-31 13:21:22 | 51.04199 | 5.45923 | 82° | 18km/h | 22405m | -20.7m/s | -51.2°C | 3.2% | 40.3hPa | 2.5V | 00:00:00 | 02:50:52 | 00:00:00 | |
| DL8DAS-14 | 2026-08-31 13:21:21 | 51.04195 | 5.45910 | 47° | 42km/h | 22426m | -21.1m/s | -51.2°C | 0.7% | 40.3hPa | 2.5V | 00:00:00 | 00:00:00 | 00:00:00 | |
| BIOWL9-15 | 2026-08-31 13:21:20 | 51.04188 | 5.45902 | 14° | 26km/h | 22447m | -21.0m/s | -51.3°C | 0.7% | 40.0hPa | 2.5V | 00:00:00 | 00:00:00 | 00:00:00 | |
| DL4BBY-15 | 2026-08-31 13:21:19 | 51.04185 | 5.45901 | 216° | 24km/h | 22469m | -20.7m/s | -51.1°C | 0% | 0hPa | 2.5V | 00:00:00 | 00:00:00 | 00:00:00 | |
| DM0DOS-11 | 2026-08-31 13:21:17 | 51.04190 | 5.45861 | 162° | 27km/h | 22594m | -21.4m/s | -51.2°C | 3.2% | 39.1hPa | 2.5V | 08:24:23 | 02:50:43 | 00:00:00 | i |
| DL1XH-west | 2026-08-31 13:21:14 | 51.04186 | 5.45861 | 218° | 9km/h | 22573m | -20.7m/s | 0°C | 0% | 0hPa | 2.6V | 18:12:15 | 02:50:44 | 00:00:00 | i |
| BIOWL1-15 | 2026-08-31 13:21:14 | 51.04195 | 5.45837 | 237° | 15km/h | 22680m | -21.4m/s | -51.3°C | 0% | 38.7hPa | 2.6V | 08:25:57 | 02:50:39 | 00:00:00 | i |
| DD1CC9-15 | 2026-08-31 13:21:13 | 51.04186 | 5.45861 | 219° | 9km/h | 22573m | -20.7m/s | -51.2°C | 0.8% | 39.3hPa | 2.6V | 08:25:00 | 00:00:00 | 00:00:00 | |
| DD1CC1-15 | 2026-08-31 13:21:12 | 51.04190 | 5.45861 | 163° | 27km/h | 22594m | -21.4m/s | -51.3°C | 0.7% | 39.1hPa | 2.6V | 08:25:00 | 00:00:00 | 00:00:00 | |
| DD1CC3-15 | 2026-08-31 13:21:11 | 51.04197 | 5.45853 | 125° | 35km/h | 22616m | -21.3m/s | -51.3°C | 0.7% | 39.1hPa | 2.6V | 00:00:00 | 00:00:00 | 00:00:00 | |
| GOEST3-10 | 2026-08-31 13:21:08 | 51.04200 | 5.45839 | 179° | 31km/h | 22701m | -21.0m/s | -51.3°C | 3.2% | 38.5hPa | 2.6V | 00:00:00 | 02:50:38 | 00:00:00 | i |
| DM0DOS-11 | 2026-08-31 13:21:07 | 51.04210 | 5.45832 | 196° | 26km/h | 22808m | -22.3m/s | -51.6°C | 3.2% | 37.9hPa | 2.6V | 08:24:33 | 02:50:33 | 00:00:00 | |
| BIOWL1-15 | 2026-08-31 13:21:03 | 51.04215 | 5.45830 | 135° | 24km/h | 22830m | -22.2m/s | -51.7°C | 0% | 37.8hPa | 2.6V | 08:25:57 | 02:50:32 | 00:00:00 | |
| DL1XH-west | 2026-08-31 13:20:59 | 51.04208 | 5.45825 | 286° | 22km/h | 22895m | -22.1m/s | 0°C | 0% | 0hPa | 2.6V | 18:12:15 | 02:50:29 | 00:00:00 | i |
| BIOWL1-15 | 2026-08-31 13:20:51 | 51.04196 | 5.45815 | 55° | 35km/h | 23070m | -22m/s | -52.4°C | 0.1% | 36.5hPa | 2.6V | 08:25:57 | 02:50:21 | 00:00:00 | i |
| DL1XH-west | 2026-08-31 13:20:49 | 51.04182 | 5.45810 | 325° | 24km/h | 23115m | -22.6m/s | 0°C | 0% | 0hPa | 2.5V | 18:12:15 | 02:50:19 | 00:00:00 | i |
| BIOWL1-15 | 2026-08-31 13:20:41 | 51.04187 | 5.45781 | 101° | 15km/h | 23634m | -23.1m/s | -52.6°C | 0.1% | 33.4hPa | 2.6V | 08:25:57 | 02:49:56 | 00:00:00 | i |
| DL1XH-west | 2026-08-31 13:20:39 | 51.04182 | 5.45775 | 159° | 26km/h | 23383m | -22.8m/s | 0°C | 0% | 0hPa | 2.6V | 18:12:15 | 02:50:07 | 00:00:00 | i |
| DM0DOS-11 | 2026-08-31 13:20:39 | 51.04184 | 5.45771 | 180° | 20km/h | 23496m | -23.3m/s | -51.9°C | 3.2% | 34.1hPa | 2.6V | 08:25:04 | 02:50:02 | 00:00:00 | i |
| DL1XH-west | 2026-08-31 13:20:28 | 51.04184 | 5.45783 | 184° | 22km/h | 23611m | -23m/s | 0°C | 0% | 0hPa | 2.6V | 18:12:15 | 02:49:57 | 00:00:00 | i |
| GOEST3-10 | 2026-08-31 13:20:26 | 51.04187 | 5.45780 | 101° | 16km/h | 23634m | -23.1m/s | -52.5°C | 3.5% | 33.3hPa | 2.6V | 00:00:00 | 00:00:00 | 00:00:00 | |
| DM0DOS-11 | 2026-08-31 13:20:25 | 51.04182 | 5.45799 | 194° | 18km/h | 23727m | -23.5m/s | -53°C | 3.6% | 32.9hPa | 2.6V | 08:25:14 | 02:49:52 | 00:00:00 | i |
| BIOWL1-15 | 2026-08-31 13:20:23 | 51.04179 | 5.45792 | 257° | 27km/h | 23703m | -23.6m/s | -52.8°C | 0.2% | 33hPa | 2.5V | 08:25:57 | 02:49:53 | 00:00:00 | i |
| GOEST3-10 | 2026-08-31 13:20:21 | 51.04184 | 5.45796 | 89° | 13km/h | 23750m | -22.9m/s | -53.0°C | 3.7% | 32.7hPa | 2.6V | 00:00:00 | 02:49:51 | 00:00:00 | |
| HTAHTA | 2026-08-31 13:20:20 | 51.04181 | 5.45792 | 15° | 26km/h | 23773m | -23.1m/s | -52.9°C | 0.8% | 32.6hPa | 2.6V | 00:00:00 | 00:00:00 | 00:00:00 | |
| DL4BBY-15 | 2026-08-31 13:20:19 | 51.04174 | 5.45793 | 328° | 26km/h | 23797m | -23.4m/s | -52.5°C | 0% | 0hPa | 2.6V | 00:00:00 | 00:00:00 | 00:00:00 | |
| BIOWL9-15 | 2026-08-31 13:20:18 | 51.04170 | 5.45802 | 279° | 24km/h | 23820m | -23.6m/s | -52.7°C | 0.8% | 32.4hPa | 2.6V | 00:00:00 | 00:00:00 | 00:00:00 | |
| DM0DOS-11 | 2026-08-31 13:20:17 | 51.04150 | 5.45788 | 73° | 31km/h | 23985m | -23.9m/s | -52.5°C | 3.6% | 31.6hPa | 2.6V | 08:25:25 | 02:49:41 | 00:00:00 | i |
| DL1XH-west | 2026-08-31 13:20:17 | 51.04171 | 5.45807 | 186° | 9km/h | 23843m | -23.4m/s | 0°C | 0% | 0hPa | 2.6V | 18:12:15 | 02:49:47 | 00:00:00 | i |
| GOEST3-10 | 2026-08-31 13:20:16 | 51.04171 | 5.45803 | 70° | 16km/h | 23867m | -23.0m/s | -52.6°C | 3.6% | 32.1hPa | 2.6V | 00:00:00 | 00:00:00 | 00:00:00 | |
| DO1YAY-16 | 2026-08-31 13:20:14 | 51.04157 | 5.45793 | 352° | 33km/h | 23913m | -24.1m/s | -52.3°C | 0.8% | 31.9hPa | 2.6V | 00:00:00 | 00:00:00 | 00:00:00 | |
| DD1CC1-15 | 2026-08-31 13:20:12 | 51.04151 | 5.45796 | 125° | 13km/h | 23962m | -23.4m/s | -52.5°C | 0.8% | 31.7hPa | 2.6V | 08:25:00 | 00:00:00 | 00:00:00 | i |
| BIOWL1-15 | 2026-08-31 13:20:12 | 51.04138 | 5.45776 | 345° | 29km/h | 24033m | -23.9m/s | -52.2°C | 0.1% | 31.4hPa | 2.5V | 08:25:57 | 02:49:39 | 00:00:00 | i |
| DD1CC3-15 | 2026-08-31 13:20:08 | 51.04138 | 5.45775 | 346° | 29km/h | 24033m | -23.9m/s | -52.2°C | 0.8% | 31.4hPa | 2.6V | 00:00:00 | 00:00:00 | 00:00:00 | |
| DM0DOS-11 | 2026-08-31 13:20:05 | 51.04130 | 5.45764 | 98° | 26km/h | 24223m | -23.9m/s | -51.9°C | 3.4% | 30.5hPa | 2.6V | 08:25:35 | 02:49:31 | 00:00:00 | i |
| BIOWL1-15 | 2026-08-31 13:20:01 | 51.04130 | 5.45764 | 98° | 26km/h | 24223m | -23.9m/s | -51.9°C | 0.1% | 30.5hPa | 2.6V | 08:25:57 | 02:49:31 | 00:00:00 | i |
| SONCRA | 2026-08-31 13:19:58 | 51.04118 | 5.45762 | 155° | 9km/h | 24320m | -24.6m/s | -51.9°C | 0.7% | 30.0hPa | 2.6V | 00:00:00 | 00:00:00 | 00:00:00 | |
| DM0DOS-11 | 2026-08-31 13:19:57 | 51.04095 | 5.45745 | 73° | 29km/h | 24468m | -25m/s | -51.5°C | 3.5% | 29.3hPa | 2.6V | 08:25:45 | 02:49:21 | 00:00:00 | i |
| BIOWL1-15 | 2026-08-31 13:19:50 | 51.04077 | 5.45735 | 302° | 15km/h | 24542m | -24.9m/s | -51.6°C | 0.1% | 29hPa | 2.5V | 08:25:57 | 02:49:18 | 00:00:00 | i |
| HTAHTA | 2026-08-31 13:19:49 | 51.04082 | 5.45732 | 351° | 31km/h | 24517m | -25.0m/s | -51.5°C | 0.8% | 29.1hPa | 2.6V | 00:00:00 | 00:00:00 | 00:00:00 | |
| DL8DAS-14 | 2026-08-31 13:19:48 | 51.04077 | 5.45735 | 301° | 15km/h | 24542m | -24.9m/s | -51.6°C | 0.8% | 29.0hPa | 2.6V | 00:00:00 | 00:00:00 | 00:00:00 | |
| BIOWL9-15 | 2026-08-31 13:19:47 | 51.04078 | 5.45737 | 155° | 13km/h | 24567m | -24.7m/s | -51.6°C | 0.8% | 28.9hPa | 2.6V | 00:00:00 | 00:00:00 | 00:00:00 | |
| DM0DOS-11 | 2026-08-31 13:19:46 | 51.04063 | 5.45720 | 27° | 31km/h | 24743m | -25.2m/s | -50.8°C | 3.3% | 28.1hPa | 2.6V | 08:25:56 | 02:49:10 | 00:00:00 | i |
| BIOWL1-15 | 2026-08-31 13:19:39 | 51.04050 | 5.45729 | 287° | 29km/h | 24793m | -24.8m/s | -50.7°C | 0.1% | 27.9hPa | 2.6V | 08:26:48 | 02:49:08 | 00:00:00 | i |
| BIOWL7-15 | 2026-08-31 13:19:38 | 51.04055 | 5.45720 | 336° | 35km/h | 24768m | -25.1m/s | -50.8°C | 0.7% | 28.0hPa | 2.6V | 08:25:00 | 00:00:00 | 00:00:00 | |
| GOEST3-10 | 2026-08-31 13:19:36 | 51.04051 | 5.45738 | 82° | 9km/h | 24844m | -25.5m/s | -50.7°C | 3.4% | 27.6hPa | 2.6V | 00:00:00 | 00:00:00 | 00:00:00 | |
| DM0DOS-11 | 2026-08-31 13:19:35 | 51.04023 | 5.45761 | 7° | 40km/h | 24998m | -25.6m/s | -49.7°C | 3.1% | 27hPa | 2.6V | 08:26:06 | 02:49:00 | 00:00:00 | i |
| BIOWL1-15 | 2026-08-31 13:19:29 | 51.04011 | 5.45764 | 338° | 53km/h | 25024m | -26.4m/s | -49.6°C | 0% | 26.9hPa | 2.5V | 08:26:48 | 02:48:59 | 00:00:00 | i |
| GOEST3-10 | 2026-08-31 13:19:26 | 51.03994 | 5.45784 | 36° | 22km/h | 25103m | -25.4m/s | -49.6°C | 3.2% | 26.5hPa | 2.6V | 00:00:00 | 00:00:00 | 00:00:00 | |
| DM0DOS-11 | 2026-08-31 13:19:21 | 51.03955 | 5.45775 | 36° | 40km/h | 25261m | -26.7m/s | -48.6°C | 2.8% | 26hPa | 2.6V | 08:26:16 | 02:48:50 | 00:00:00 | i |
| BIOWL1-15 | 2026-08-31 13:19:18 | 51.03941 | 5.45767 | 95° | 31km/h | 25368m | -26.5m/s | -49°C | 0% | 25.5hPa | 2.6V | 08:26:48 | 02:48:46 | 00:00:00 | i |
| DL8DAS-14 | 2026-08-31 13:19:17 | 51.03940 | 5.45774 | 154° | 11km/h | 25342m | -26.1m/s | -48.9°C | 0.6% | 25.6hPa | 2.6V | 00:00:00 | 00:00:00 | 00:00:00 | |
| GOEST3-10 | 2026-08-31 13:19:16 | 51.03941 | 5.45767 | 96° | 31km/h | 25368m | -26.5m/s | -48.9°C | 2.9% | 25.5hPa | 2.6V | 08:26:00 | 00:00:00 | 00:00:00 | |
| DM0DOS-11 | 2026-08-31 13:19:15 | 51.03942 | 5.45739 | 64° | 24km/h | 25529m | -27.1m/s | -48.8°C | 2.9% | 24.9hPa | 2.6V | 08:26:26 | 02:48:40 | 00:00:00 | i |
| BIOWL1-15 | 2026-08-31 13:19:07 | 51.03945 | 5.45745 | 179° | 35km/h | 25611m | -26.9m/s | -48.9°C | 0% | 24.6hPa | 2.6V | 08:26:48 | 02:48:37 | 00:00:00 | i |
| DD1CC3-15 | 2026-08-31 13:19:06 | 51.03945 | 5.45745 | 180° | 35km/h | 25611m | -26.9m/s | -48.9°C | 0.6% | 24.6hPa | 2.6V | 08:26:00 | 00:00:00 | 00:00:00 | |
| DM0DOS-11 | 2026-08-31 13:19:05 | 51.03965 | 5.45734 | 38° | 20km/h | 25803m | -27.6m/s | -49.1°C | 3% | 23.9hPa | 2.6V | 08:26:36 | 02:48:30 | 00:00:00 | i |
| BIOWL1-15 | 2026-08-31 13:18:56 | 51.03967 | 5.45748 | 179° | 26km/h | 26028m | -28.4m/s | -49.3°C | 0% | 23.1hPa | 2.6V | 08:26:48 | 02:48:22 | 00:00:00 | i |
| WPPR-10 | 2026-08-31 13:18:55 | 51.03962 | 5.45744 | 241° | 26km/h | 26000m | -27.9m/s | -49.2°C | 0.6% | 23.2hPa | 2.6V | 00:00:00 | 00:00:00 | 00:00:00 | |
| DM0DOS-11 | 2026-08-31 13:18:51 | 51.03970 | 5.45739 | 19° | 20km/h | 26084m | -28.3m/s | -49.1°C | 3.1% | 22.9hPa | 2.6V | 08:26:46 | 02:48:20 | 00:00:00 | i |
| BIOWL1-15 | 2026-08-31 13:18:46 | 51.03972 | 5.45754 | 98° | 16km/h | 26199m | -28.8m/s | -49.1°C | 0% | 22.5hPa | 2.6V | 08:27:39 | 02:48:16 | 00:00:00 | i |
| DM0DOS-11 | 2026-08-31 13:18:45 | 51.03963 | 5.45767 | 9° | 26km/h | 26373m | -29.4m/s | -47.8°C | 2.8% | 21.9hPa | 2.6V | 08:26:56 | 02:48:10 | 00:00:00 | i |
| BIOWL1-15 | 2026-08-31 13:18:36 | 51.03963 | 5.45771 | 85° | 27km/h | 26491m | -29.4m/s | -48°C | 0% | 21.5hPa | 2.6V | 08:27:39 | 02:48:06 | 00:00:00 | i |
| BIOWL1-15 | 2026-08-31 13:18:26 | 51.03978 | 5.45762 | 97° | 18km/h | 26789m | -30.1m/s | -47.9°C | 0% | 20.6hPa | 2.6V | 08:27:39 | 02:47:56 | 00:00:00 | |
| WPPR-10 | 2026-08-31 13:18:24 | 51.03975 | 5.45765 | 262° | 26km/h | 26849m | -30.1m/s | -48.1°C | 0.5% | 20.4hPa | 2.6V | 00:00:00 | 00:00:00 | 00:00:00 | |
| DL8DAS-15 | 2026-08-31 13:18:22 | 51.03979 | 5.45773 | 210° | 33km/h | 26879m | -30.6m/s | -48.3°C | 0.6% | 20.3hPa | 2.6V | 00:00:00 | 00:00:00 | 00:00:00 | |
| DM0DOS-11 | 2026-08-31 13:18:21 | 51.03987 | 5.45768 | 325° | 16km/h | 26970m | -30.4m/s | -48.1°C | 2.7% | 20hPa | 2.6V | 08:27:16 | 02:47:50 | 00:00:00 | i |
| BIOWL1-15 | 2026-08-31 13:18:16 | 51.03989 | 5.45798 | 268° | 37km/h | 27154m | -30.6m/s | -48.8°C | 0% | 19.4hPa | 2.5V | 08:27:39 | 02:47:44 | 00:00:00 | i |
| DM0DOS-11 | 2026-08-31 13:18:15 | 51.03986 | 5.45817 | 313° | 38km/h | 27278m | -31.2m/s | -48.9°C | 3% | 19.1hPa | 2.6V | 08:27:26 | 02:47:40 | 00:00:00 | i |
| BIOWL9-15 | 2026-08-31 13:18:14 | 51.03989 | 5.45798 | 267° | 37km/h | 27154m | -30.6m/s | -48.8°C | 0.6% | 19.4hPa | 2.7V | 00:00:00 | 00:00:00 | 00:00:00 | |
| DO1YAY-16 | 2026-08-31 13:18:10 | 51.03986 | 5.45817 | 313° | 38km/h | 27278m | -31.2m/s | -48.9°C | 0.6% | 19.1hPa | 2.7V | 00:00:00 | 00:00:00 | 00:00:00 | |
| DD1CC9-15 | 2026-08-31 13:18:09 | 51.03986 | 5.45817 | 315° | 38km/h | 27278m | -31.2m/s | -48.9°C | 0.7% | 19.1hPa | 2.7V | 08:27:00 | 00:00:00 | 00:00:00 | |
| DD1CC1-15 | 2026-08-31 13:18:08 | 51.03982 | 5.45830 | 274° | 38km/h | 27309m | -31.5m/s | -49.0°C | 0.6% | 19.0hPa | 2.7V | 00:00:00 | 00:00:00 | 00:00:00 | |
| DJ2DS-15 | 2026-08-31 13:18:07 | 51.03984 | 5.45843 | 45° | 9km/h | 27372m | -31.3m/s | -49.1°C | 0.6% | 18.8hPa | 2.7V | 00:00:00 | 00:00:00 | 00:00:00 | |
| DM0DOS-11 | 2026-08-31 13:18:05 | 51.03949 | 5.45863 | 324° | 38km/h | 27593m | -32.2m/s | -48.6°C | 3% | 18.2hPa | 2.7V | 08:27:36 | 02:47:30 | 00:00:00 | i |
| BIOWL1-15 | 2026-08-31 13:18:03 | 51.03964 | 5.45863 | 45° | 22km/h | 27530m | -31.6m/s | -48.9°C | 0% | 18.4hPa | 2.6V | 08:27:39 | 02:47:32 | 00:00:00 | i |
| DD1CC8 | 2026-08-31 13:17:59 | 51.03944 | 5.45872 | 281° | 20km/h | 27626m | -32.1m/s | -48.5°C | 0.6% | 18.1hPa | 2.6V | 00:00:00 | 00:00:00 | 00:00:00 | |
| DD1CC3-15 | 2026-08-31 13:17:58 | 51.03944 | 5.45872 | 283° | 22km/h | 27626m | -32.1m/s | -48.5°C | 0.6% | 18.1hPa | 2.6V | 00:00:00 | 00:00:00 | 00:00:00 | |
| DM0DOS-11 | 2026-08-31 13:17:54 | 51.03911 | 5.45866 | 299° | 22km/h | 27916m | -32.8m/s | -48°C | 2.8% | 17.3hPa | 2.6V | 08:27:46 | 02:47:20 | 00:00:00 | |
| BIOWL1-15 | 2026-08-31 13:17:53 | 51.03916 | 5.45862 | 359° | 33km/h | 27883m | -33m/s | -48°C | 0% | 17.4hPa | 2.6V | 08:28:30 | 02:47:21 | 00:00:00 | i |
| WPPR-10 | 2026-08-31 13:17:53 | 51.03911 | 5.45866 | 299° | 22km/h | 27916m | -32.8m/s | -48.0°C | 0.6% | 17.3hPa | 2.5V | 00:00:00 | 00:00:00 | 00:00:00 | i |
| MET0W-2 | 2026-08-31 13:17:49 | 51.03915 | 5.45867 | 114° | 22km/h | 27982m | -32.8m/s | -48.1°C | 0.6% | 17.1hPa | 2.5V | 00:00:00 | 00:00:00 | 00:00:00 | |
| BIOWL1-15 | 2026-08-31 13:17:45 | 51.03912 | 5.45862 | 95° | 24km/h | 28146m | -33.3m/s | -47.8°C | 0% | 16.7hPa | 2.5V | 08:28:30 | 02:47:13 | 00:00:00 | i |
| DM0DOS-11 | 2026-08-31 13:17:45 | 51.03900 | 5.45859 | 265° | 16km/h | 28247m | -33.9m/s | -47.7°C | 2.8% | 16.5hPa | 2.6V | 08:27:56 | 02:47:10 | 00:00:00 | i |
| HTAHTA | 2026-08-31 13:17:45 | 51.03907 | 5.45862 | 263° | 20km/h | 28080m | -33.1m/s | -47.8°C | 0.6% | 16.9hPa | 2.5V | 00:00:00 | 00:00:00 | 00:00:00 | i |
| GOEST3-10 | 2026-08-31 13:17:44 | 51.03910 | 5.45866 | 181° | 20km/h | 28114m | -33.3m/s | -47.7°C | 2.8% | 16.7hPa | 2.5V | 00:00:00 | 02:47:14 | 00:00:00 | |
| BIOWL9-15 | 2026-08-31 13:17:43 | 51.03912 | 5.45862 | 94° | 22km/h | 28147m | -33.3m/s | -47.8°C | 0.6% | 16.7hPa | 2.6V | 00:00:00 | 00:00:00 | 00:00:00 | |
| GOEST3-10 | 2026-08-31 13:17:39 | 51.03902 | 5.45860 | 153° | 16km/h | 28281m | -33.6m/s | -47.7°C | 2.8% | 16.3hPa | 2.6V | 00:00:00 | 00:00:00 | 00:00:00 | |
| BIOWL7-15 | 2026-08-31 13:17:38 | 51.03902 | 5.45860 | 154° | 16km/h | 28281m | -33.6m/s | -47.7°C | 0.6% | 16.4hPa | 2.6V | 00:00:00 | 00:00:00 | 00:00:00 | |
| DD1CC3-15 | 2026-08-31 13:17:37 | 51.03903 | 5.45854 | 80° | 26km/h | 28315m | -33.7m/s | -47.6°C | 0.6% | 16.2hPa | 2.6V | 08:28:00 | 00:00:00 | 00:00:00 | |
| DM0DOS-11 | 2026-08-31 13:17:35 | 51.03878 | 5.45845 | 193° | 7km/h | 28586m | -33.5m/s | -47.9°C | 2.9% | 15.6hPa | 2.6V | 08:28:06 | 02:47:00 | 00:00:00 | i |
| BIOWL1-15 | 2026-08-31 13:17:32 | 51.03877 | 5.45845 | 193° | 7km/h | 28586m | -33.5m/s | -47.9°C | 0% | 15.6hPa | 2.6V | 08:28:30 | 02:47:00 | 00:00:00 | i |
| DJ2DS-15 | 2026-08-31 13:17:31 | 51.03879 | 5.45841 | 320° | 24km/h | 28553m | -34.2m/s | -47.9°C | 0.5% | 15.7hPa | 2.5V | 00:00:00 | 00:00:00 | 00:00:00 | |
| GOEST3-10 | 2026-08-31 13:17:29 | 51.03879 | 5.45840 | 93° | 24km/h | 28620m | -33.9m/s | -47.9°C | 2.9% | 15.5hPa | 2.5V | 00:00:00 | 00:00:00 | 00:00:00 | |
| DD1CC1-15 | 2026-08-31 13:17:27 | 51.03876 | 5.45830 | 45° | 33km/h | 28654m | -34.3m/s | -47.9°C | 0.6% | 15.5hPa | 2.6V | 08:28:00 | 00:00:00 | 00:00:00 | |
| DM0DOS-11 | 2026-08-31 13:17:25 | 51.03859 | 5.45832 | 148° | 11km/h | 28929m | -35.1m/s | -48.4°C | 3.2% | 14.8hPa | 2.6V | 08:28:16 | 02:46:50 | 00:00:00 | i |
| AA1-15 | 2026-08-31 13:17:20 | 51.03859 | 5.45832 | 148° | 11km/h | 28929m | -35.2m/s | -48.4°C | 0% | 14.8hPa | 2.6V | 08:28:30 | 02:46:50 | 00:00:00 | i |
| BIOWL1-15 | 2026-08-31 13:17:19 | 51.03859 | 5.45828 | 52° | 22km/h | 28964m | -34.5m/s | -48°C | 0% | 14.7hPa | 2.5V | 08:28:30 | 02:46:49 | 00:00:00 | i |
| DL4BBY-15 | 2026-08-31 13:17:19 | 51.03859 | 5.45828 | 52° | 24km/h | 28965m | -34.4m/s | -47.8°C | 0% | 0hPa | 2.6V | 00:00:00 | 00:00:00 | 00:00:00 | i |
| MET0W-2 | 2026-08-31 13:17:18 | 51.03846 | 5.45828 | 319° | 29km/h | 29034m | -35.3m/s | -47.2°C | 0.6% | 14.6hPa | 2.6V | 00:00:00 | 00:00:00 | 00:00:00 | |
| DD1CC3-15 | 2026-08-31 13:17:16 | 51.03846 | 5.45828 | 320° | 29km/h | 29034m | -35.3m/s | -47.2°C | 0.6% | 14.6hPa | 2.6V | 08:28:00 | 00:00:00 | 00:00:00 | |
| DM0DOS-11 | 2026-08-31 13:17:15 | 51.03820 | 5.45825 | 86° | 20km/h | 29284m | -36m/s | -46.5°C | 2.9% | 14.1hPa | 2.6V | 08:28:26 | 02:46:40 | 00:00:00 | i |
| AA1-15 | 2026-08-31 13:17:10 | 51.03820 | 5.45825 | 87° | 20km/h | 29284m | -36m/s | -46.5°C | 0% | 14.1hPa | 2.6V | 08:28:30 | 02:46:40 | 00:00:00 | i |
| GOEST3-10 | 2026-08-31 13:17:10 | 51.03820 | 5.45825 | 87° | 11km/h | 29284m | -35.9m/s | -46.5°C | 2.9% | 14.0hPa | 2.6V | 08:28:00 | 02:46:40 | 00:00:00 | i |
| DO1YAY-16 | 2026-08-31 13:17:08 | 51.03809 | 5.45810 | 8° | 38km/h | 29356m | -36.0m/s | -46.1°C | 0.5% | 13.9hPa | 2.6V | 00:00:00 | 00:00:00 | 00:00:00 | |
| DD1CC1-15 | 2026-08-31 13:17:07 | 51.03809 | 5.45810 | 10° | 38km/h | 29356m | -36.0m/s | -46.1°C | 0.5% | 13.9hPa | 2.6V | 08:28:00 | 00:00:00 | 00:00:00 | |
| GOEST3-10 | 2026-08-31 13:17:05 | 51.03797 | 5.45811 | 77° | 20km/h | 29466m | -37.4m/s | -45.7°C | 2.7% | 13.6hPa | 2.6V | 00:00:00 | 00:00:00 | 00:00:00 | |
| DM0DOS-11 | 2026-08-31 13:17:00 | 51.03778 | 5.45786 | 74° | 37km/h | 29658m | -38.3m/s | -45.6°C | 2.8% | 13.3hPa | 2.6V | 08:28:36 | 02:46:30 | 00:00:00 | i |
| AA1-15 | 2026-08-31 13:17:00 | 51.03778 | 5.45786 | 74° | 37km/h | 29658m | -38.3m/s | -45.6°C | 0% | 13.3hPa | 2.6V | 08:29:21 | 02:46:30 | 00:00:00 | i |
| DD1CC8 | 2026-08-31 13:16:57 | 51.03761 | 5.45770 | 328° | 2km/h | 29773m | -38.7m/s | -45.3°C | 0.5% | 13.1hPa | 2.6V | 00:00:00 | 00:00:00 | 00:00:00 | |
| GOEST3-10 | 2026-08-31 13:16:56 | 51.03762 | 5.45765 | 103° | 22km/h | 29812m | -39.0m/s | -45.2°C | 2.7% | 12.9hPa | 2.6V | 00:00:00 | 02:46:26 | 00:00:00 | |
| DM0DOS-11 | 2026-08-31 13:16:55 | 51.03743 | 5.45720 | 57° | 42km/h | 30042m | -37.2m/s | -43.6°C | 2.4% | 12.5hPa | 2.6V | 08:28:46 | 02:46:20 | 00:00:00 | i |
| BIOWL1-15 | 2026-08-31 13:16:51 | 51.03737 | 5.45709 | 32° | 37km/h | 30079m | -37.2m/s | -43.7°C | 0% | 12.3hPa | 2.5V | 08:29:21 | 02:46:19 | 00:00:00 | i |
| AA1-15 | 2026-08-31 13:16:48 | 51.03731 | 5.45704 | 23° | 16km/h | 30116m | -36.6m/s | -43.8°C | 0% | 12.4hPa | 2.5V | 08:29:21 | 02:46:18 | 00:00:00 | i |
| DJ2KF-10 | 2026-08-31 13:16:48 | 51.03731 | 5.45704 | 23° | 26km/h | 30116m | -36.6m/s | -43.7°C | 2.4% | 12.3hPa | 2.5V | 08:28:00 | 02:46:18 | 00:00:00 | i |
| DD1CC9-15 | 2026-08-31 13:16:47 | 51.03731 | 5.45704 | 23° | 16km/h | 30116m | -36.6m/s | -43.8°C | 0.5% | 12.4hPa | 2.6V | 08:29:00 | 00:00:00 | 00:00:00 | |
| DD1CC1-15 | 2026-08-31 13:16:46 | 51.03729 | 5.45700 | 85° | 15km/h | 30153m | -37.2m/s | -43.8°C | 0.4% | 12.3hPa | 2.6V | 08:29:00 | 00:00:00 | 00:00:00 | |
| DM0DOS-11 | 2026-08-31 13:16:45 | 51.03715 | 5.45626 | 110° | 18km/h | 30426m | -37.9m/s | -43.8°C | 2.5% | 11.8hPa | 2.6V | 08:28:56 | 02:46:10 | 00:00:00 | i |
| DL1XH-15 | 2026-08-31 13:16:45 | 51.03725 | 5.45681 | 95° | 24km/h | 30268m | -39.5m/s | -43.8°C | 2.5% | 12.1hPa | 2.5V | 08:28:52 | 02:46:14 | 00:00:00 | i |
| AA1-15 | 2026-08-31 13:16:38 | 51.03725 | 5.45602 | 113° | 47km/h | 30503m | -39.3m/s | -43.8°C | 0% | 11.7hPa | 2.5V | 08:29:21 | 02:46:08 | 00:00:00 | i |
| DO1YAY-16 | 2026-08-31 13:16:37 | 51.03728 | 5.45586 | 91° | 38km/h | 30542m | -38.3m/s | -43.7°C | 0.5% | 11.6hPa | 2.6V | 00:00:00 | 00:00:00 | 00:00:00 | |
| DM0DOS-11 | 2026-08-31 13:16:35 | 51.03736 | 5.45530 | 83° | 22km/h | 30823m | -40.3m/s | -42.1°C | 2.2% | 11.1hPa | 2.6V | 08:29:06 | 02:46:00 | 00:00:00 | i |
| DL1XH-west | 2026-08-31 13:16:31 | 51.03734 | 5.45540 | 123° | 37km/h | 30783m | -40.7m/s | -42.6°C | 0% | 11.2hPa | 2.6V | 08:29:21 | 02:46:01 | 00:00:00 | i |
| BIOWL1-15 | 2026-08-31 13:16:29 | 51.03735 | 5.45526 | 346° | 9km/h | 30863m | -39.3m/s | -41.8°C | 0% | 11hPa | 2.5V | 08:29:21 | 02:45:59 | 00:00:00 | i |
| AA1-15 | 2026-08-31 13:16:27 | 51.03737 | 5.45532 | 185° | 13km/h | 30944m | -41.6m/s | -41.3°C | 0% | 10.8hPa | 2.6V | 08:29:21 | 02:45:57 | 00:00:00 | i |
| DD1CC8 | 2026-08-31 13:16:26 | 51.03741 | 5.45531 | 166° | 20km/h | 30986m | -42.4m/s | -41.6°C | 0.4% | 10.7hPa | 2.6V | 00:00:00 | 00:00:00 | 00:00:00 | |
| DM0DOS-11 | 2026-08-31 13:16:25 | 51.03754 | 5.45500 | 128° | 38km/h | 31237m | -40.3m/s | -41.8°C | 2.5% | 10.4hPa | 2.6V | 08:29:16 | 02:45:50 | 00:00:00 | i |
| GOEST3-10 | 2026-08-31 13:16:25 | 51.03747 | 5.45525 | 141° | 33km/h | 31028m | -42.2m/s | -41.9°C | 2.3% | 10.7hPa | 2.6V | 00:00:00 | 00:00:00 | 00:00:00 | i |
| DL1XH-15 | 2026-08-31 13:16:20 | 51.03759 | 5.45456 | 296° | 4km/h | 31449m | -43.6m/s | -41°C | 2.3% | 10.1hPa | 2.6V | 08:29:21 | 02:45:45 | 00:00:00 | i |
| AA1-15 | 2026-08-31 13:16:16 | 51.03760 | 5.45459 | 65° | 18km/h | 31405m | -42.9m/s | -41.2°C | 0% | 10.2hPa | 2.6V | 08:29:21 | 02:45:46 | 00:00:00 | i |
| DL1XH-west | 2026-08-31 13:16:15 | 51.03759 | 5.45456 | 296° | 4km/h | 31449m | -43.6m/s | -41.1°C | 0% | 10.1hPa | 2.6V | 08:29:21 | 02:45:45 | 00:00:00 | i |
| DM0DOS-11 | 2026-08-31 13:16:14 | 51.03764 | 5.45435 | 164° | 22km/h | 31710m | -42m/s | -39.2°C | 2% | 9.7hPa | 2.5V | 08:30:00 | 02:45:39 | 00:00:00 | i |
| AA1-15 | 2026-08-31 13:16:05 | 51.03771 | 5.45402 | 53° | 26km/h | 31882m | -45m/s | -38°C | 0% | 9.3hPa | 2.6V | 18:12:15 | 02:45:35 | 00:00:00 | i |
| DM0DOS-11 | 2026-08-31 13:16:04 | 51.03754 | 5.45378 | 345° | 26km/h | 32149m | -44.2m/s | -37.6°C | 1.8% | 9hPa | 2.5V | 08:30:00 | 02:45:29 | 00:00:00 | i |
| DL1XH-west | 2026-08-31 13:16:02 | 51.03767 | 5.45387 | 73° | 31km/h | 32062m | -44.1m/s | -37.9°C | 0% | 9.1hPa | 2.6V | 18:12:15 | 02:45:31 | 00:00:00 | i |
| BIOWL1-15 | 2026-08-31 13:15:54 | 51.03742 | 5.45365 | 31° | 35km/h | 32377m | -44.8m/s | -37.9°C | 0% | 8.8hPa | 2.5V | 18:12:15 | 02:45:24 | 00:00:00 | i |
| DL1XH-west | 2026-08-31 13:15:51 | 51.03720 | 5.45371 | 348° | 11km/h | 32515m | -45.4m/s | -37.5°C | 0% | 8.7hPa | 2.6V | 18:12:15 | 02:45:21 | 00:00:00 | i |
| DM0DOS-11 | 2026-08-31 13:15:49 | 51.03714 | 5.45358 | 52° | 27km/h | 32606m | -46m/s | -37.2°C | 1.8% | 8.5hPa | 2.5V | 08:30:00 | 02:45:19 | 00:00:00 | i |
| WPPR-10 | 2026-08-31 13:15:49 | 51.03703 | 5.45344 | 28° | 29km/h | 32700m | -47.9m/s | -36.9°C | 0.2% | 8.4hPa | 2.6V | 00:00:00 | 00:00:00 | 00:00:00 | i |
| BIOWL1-15 | 2026-08-31 13:15:44 | 51.03690 | 5.45309 | 21° | 27km/h | 32942m | -49m/s | -36.6°C | 0% | 8.1hPa | 2.6V | 18:12:15 | 02:45:12 | 00:00:00 | i |
| DM0DOS-11 | 2026-08-31 13:15:44 | 51.03691 | 5.45296 | 103° | 37km/h | 33087m | -48.6m/s | -36.7°C | 1.7% | 7.9hPa | 2.5V | 08:30:00 | 02:45:09 | 00:00:00 | i |
| AA1-15 | 2026-08-31 13:15:41 | 51.03687 | 5.45307 | 324° | 4km/h | 32990m | -47.9m/s | -36.6°C | 0% | 8.1hPa | 2.6V | 18:12:15 | 02:45:11 | 00:00:00 | i |
| HTAHTA | 2026-08-31 13:15:41 | 51.03687 | 5.45307 | 324° | 4km/h | 32990m | -47.9m/s | -36.6°C | 0.2% | 8.1hPa | 2.5V | 00:00:00 | 00:00:00 | 00:00:00 | i |
| DL8DAS-14 | 2026-08-31 13:15:40 | 51.03688 | 5.45305 | 137° | 18km/h | 33038m | -48.5m/s | -36.6°C | 0.3% | 8.1hPa | 2.5V | 00:00:00 | 00:00:00 | 00:00:00 | |
| GOEST3-10 | 2026-08-31 13:15:39 | 51.03691 | 5.45296 | 104° | 26km/h | 33087m | -48.6m/s | -36.6°C | 1.7% | 7.8hPa | 2.5V | 00:00:00 | 02:45:09 | 00:00:00 | i |
| DL1XH-west | 2026-08-31 13:15:39 | 51.03691 | 5.45296 | 104° | 37km/h | 33087m | -48.6m/s | -36.7°C | 0% | 7.9hPa | 2.5V | 18:12:15 | 02:45:09 | 00:00:00 | i |
| DO1YAY-16 | 2026-08-31 13:15:35 | 51.03674 | 5.45259 | 14° | 15km/h | 33282m | -49.1m/s | -36.4°C | 0.3% | 7.6hPa | 2.5V | 00:00:00 | 00:00:00 | 00:00:00 | i |
| DM0DOS-11 | 2026-08-31 13:15:34 | 51.03653 | 5.45222 | 343° | 27km/h | 33583m | -50.2m/s | -37.1°C | 1.8% | 7.3hPa | 2.5V | 08:30:00 | 02:44:59 | 00:00:00 | i |
| BIOWL1-15 | 2026-08-31 13:15:34 | 51.03669 | 5.45243 | 80° | 26km/h | 33433m | -50.2m/s | -37°C | 0% | 7.5hPa | 2.6V | 18:12:15 | 02:45:02 | 00:00:00 | i |
| AA1-15 | 2026-08-31 13:15:31 | 51.03666 | 5.45232 | 58° | 35km/h | 33483m | -50.1m/s | -37.2°C | 0% | 7.5hPa | 2.6V | 18:12:15 | 02:45:01 | 00:00:00 | i |
| DL1XH-west | 2026-08-31 13:15:28 | 51.03649 | 5.45225 | 295° | 11km/h | 33633m | -50.4m/s | -37.1°C | 0% | 7.3hPa | 2.5V | 18:12:15 | 02:44:58 | 00:00:00 | i |
| BIOWL7-15 | 2026-08-31 13:15:27 | 51.03649 | 5.45225 | 296° | 11km/h | 33634m | -50.4m/s | -37.1°C | 0.3% | 7.3hPa | 2.5V | 00:00:00 | 00:00:00 | 00:00:00 | |
| DM0DOS-11 | 2026-08-31 13:15:24 | 51.03650 | 5.45201 | 113° | 26km/h | 34106m | -55.7m/s | -36.1°C | 1.6% | 6.7hPa | 2.5V | 08:30:00 | 02:44:49 | 00:00:00 | i |
| BIOWL1-15 | 2026-08-31 13:15:21 | 51.03643 | 5.45181 | 27° | 42km/h | 34214m | -51.6m/s | -35.9°C | 0% | 6.6hPa | 2.6V | 18:12:15 | 02:44:47 | 00:00:00 | i |
| AA1-15 | 2026-08-31 13:15:20 | 51.03646 | 5.45207 | 166° | 22km/h | 34051m | -54.5m/s | -36.2°C | 0% | 6.7hPa | 2.6V | 18:12:15 | 02:44:50 | 00:00:00 | i |
| DL1XH-west | 2026-08-31 13:15:18 | 51.03650 | 5.45191 | 66° | 31km/h | 34161m | -54.6m/s | -36.1°C | 0% | 6.8hPa | 2.5V | 18:12:15 | 02:44:48 | 00:00:00 | i |
| WPPR-10 | 2026-08-31 13:15:18 | 51.03619 | 5.45177 | 352° | 51km/h | 34319m | -52.4m/s | -35.5°C | 0.2% | 6.5hPa | 2.5V | 00:00:00 | 00:00:00 | 00:00:00 | i |
| DM0DOS-11 | 2026-08-31 13:15:14 | 51.03572 | 5.45176 | 359° | 42km/h | 34591m | -30.1m/s | -35.8°C | 1.7% | 6.2hPa | 2.5V | 08:30:00 | 02:44:39 | 00:00:00 | i |
| AA1-15 | 2026-08-31 13:15:10 | 51.03582 | 5.45177 | 6° | 33km/h | 34557m | -39.2m/s | -35.7°C | 0% | 6.3hPa | 2.6V | 18:12:15 | 02:44:40 | 00:00:00 | i |
| DL8DAS-14 | 2026-08-31 13:15:09 | 51.03562 | 5.45177 | 352° | 42km/h | 34617m | -20.0m/s | -35.9°C | 0.2% | 6.2hPa | 2.5V | 00:00:00 | 00:00:00 | 00:00:00 | |
| BIOWL9-15 | 2026-08-31 13:15:08 | 51.03552 | 5.45180 | 344° | 31km/h | 34631m | -7.6m/s | -35.8°C | 0.2% | 6.2hPa | 2.5V | 00:00:00 | 00:00:00 | 00:00:00 | |
| DJ2DS-15 | 2026-08-31 13:15:07 | 51.03538 | 5.45184 | 9° | 24km/h | 34632m | 5.2m/s | -35.7°C | 0.2% | 6.2hPa | 2.5V | 00:00:00 | 00:00:00 | 00:00:00 | i |
| DL1XH-west | 2026-08-31 13:15:07 | 51.03552 | 5.45180 | 345° | 33km/h | 34630m | -7.6m/s | -35.8°C | 0% | 6.2hPa | 2.6V | 18:12:15 | 02:44:37 | 00:00:00 | i |
| GOEST3-10 | 2026-08-31 13:15:05 | 51.03538 | 5.45184 | 10° | 35km/h | 34632m | 5.2m/s | -35.6°C | 1.6% | 6.2hPa | 2.5V | 00:00:00 | 02:44:35 | 00:00:00 | |
| DM0DOS-11 | 2026-08-31 13:15:04 | 51.03534 | 5.45124 | 2° | 15km/h | 34592m | 8.1m/s | -35.8°C | 1.6% | 6.3hPa | 2.5V | 08:30:00 | 02:44:29 | 00:00:00 | i |
| DL1XH-15 | 2026-08-31 13:15:04 | 51.03535 | 5.45127 | 89° | 13km/h | 34598m | 4.9m/s | -35.8°C | 1.6% | 6.2hPa | 2.6V | 08:30:00 | 02:44:30 | 00:00:00 | i |
| AA1-15 | 2026-08-31 13:14:57 | 51.03520 | 5.45130 | 345° | 40km/h | 34576m | 6.3m/s | -35.7°C | 0% | 6.3hPa | 2.6V | 18:12:15 | 02:44:27 | 00:00:00 | i |
| BIOWL1-15 | 2026-08-31 13:14:56 | 51.03518 | 5.45091 | 71° | 13km/h | 34533m | 5.4m/s | -36.1°C | 0% | 6.3hPa | 2.6V | 18:12:15 | 02:44:20 | 00:00:00 | i |
| DL1XH-west | 2026-08-31 13:14:56 | 51.03511 | 5.45132 | 358° | 33km/h | 34571m | 4m/s | -35.7°C | 0% | 6.3hPa | 2.6V | 18:12:15 | 02:44:26 | 00:00:00 | i |
| GOEST3-10 | 2026-08-31 13:14:55 | 51.03505 | 5.45130 | 33° | 26km/h | 34566m | 5.3m/s | -35.8°C | 1.6% | 6.3hPa | 2.6V | 00:00:00 | 02:44:25 | 00:00:00 | |
| DL1XH-15 | 2026-08-31 13:14:54 | 51.03518 | 5.45091 | 70° | 13km/h | 34533m | 5.3m/s | -36.1°C | 1.7% | 6.3hPa | 2.6V | 08:30:00 | 02:44:20 | 00:00:00 | i |
| DM0DOS-11 | 2026-08-31 13:14:54 | 51.03514 | 5.45087 | 25° | 27km/h | 34527m | 8.5m/s | -36.1°C | 1.7% | 6.3hPa | 2.5V | 08:30:00 | 02:44:19 | 00:00:00 | i |
| DL1XH-west | 2026-08-31 13:14:46 | 51.03483 | 5.45067 | 31° | 42km/h | 34505m | 3.7m/s | -35.9°C | 0% | 6.3hPa | 2.6V | 18:12:15 | 02:44:16 | 00:00:00 | i |
| GOEST3-10 | 2026-08-31 13:14:45 | 51.03477 | 5.45059 | 49° | 18km/h | 34501m | 5.1m/s | -35.9°C | 1.7% | 6.3hPa | 2.6V | 00:00:00 | 02:44:15 | 00:00:00 | |
| DL1XH-15 | 2026-08-31 13:14:44 | 51.03488 | 5.45055 | 37° | 9km/h | 34468m | 4.9m/s | -36.4°C | 1.7% | 6.4hPa | 2.6V | 08:30:00 | 02:44:10 | 00:00:00 | i |
| BIOWL1-15 | 2026-08-31 13:14:41 | 51.03488 | 5.45055 | 206° | 11km/h | 34472m | 3.8m/s | -36.3°C | 0% | 6.4hPa | 2.6V | 18:12:15 | 02:44:11 | 00:00:00 | i |
| DM0DOS-11 | 2026-08-31 13:14:40 | 51.03484 | 5.45050 | 40° | 29km/h | 34461m | 8.2m/s | -36.4°C | 1.7% | 6.4hPa | 2.5V | 08:30:00 | 02:44:09 | 00:00:00 | i |
| AA1-15 | 2026-08-31 13:14:36 | 51.03461 | 5.45006 | 56° | 47km/h | 34439m | 4.1m/s | -36°C | 0% | 6.4hPa | 2.6V | 18:12:15 | 02:44:06 | 00:00:00 | i |
| DL1XH-west | 2026-08-31 13:14:35 | 51.03455 | 5.44993 | 61° | 27km/h | 34434m | 5.1m/s | -36°C | 0% | 6.4hPa | 2.6V | 18:12:15 | 02:44:05 | 00:00:00 | i |
| GOEST3-10 | 2026-08-31 13:14:35 | 51.03455 | 5.44993 | 61° | 18km/h | 34434m | 5.0m/s | -35.9°C | 1.7% | 6.4hPa | 2.5V | 00:00:00 | 02:44:05 | 00:00:00 | i |
| DM0DOS-11 | 2026-08-31 13:14:30 | 51.03446 | 5.45001 | 51° | 27km/h | 34394m | 7.8m/s | -36.1°C | 1.7% | 6.4hPa | 2.5V | 08:30:00 | 02:43:59 | 00:00:00 | i |
| BIOWL1-15 | 2026-08-31 13:14:30 | 51.03450 | 5.45005 | 9° | 15km/h | 34401m | 4.9m/s | -36.1°C | 0% | 6.5hPa | 2.6V | 18:12:15 | 02:44:00 | 00:00:00 | i |
| DL1XH-west | 2026-08-31 13:14:25 | 51.03437 | 5.44945 | 79° | 15km/h | 34368m | 5.3m/s | -36.3°C | 0% | 6.5hPa | 2.6V | 18:12:15 | 02:43:55 | 00:00:00 | i |
| GOEST3-10 | 2026-08-31 13:14:25 | 51.03437 | 5.44945 | 80° | 29km/h | 34368m | 5.3m/s | -36.3°C | 1.7% | 6.4hPa | 2.5V | 00:00:00 | 02:43:55 | 00:00:00 | i |
| DD1CC1-15 | 2026-08-31 13:14:23 | 51.03436 | 5.44944 | 320° | 9km/h | 34362m | 7.9m/s | -36.4°C | 0.3% | 6.5hPa | 2.5V | 00:00:00 | 00:00:00 | 00:00:00 | |
| DD1CC8 | 2026-08-31 13:14:22 | 51.03427 | 5.44961 | 312° | 40km/h | 34346m | 5.6m/s | -36.5°C | 0.2% | 6.5hPa | 2.5V | 00:00:00 | 00:00:00 | 00:00:00 | |
| DL1XH-15 | 2026-08-31 13:14:21 | 51.03417 | 5.44936 | 145° | 20km/h | 34307m | 3.3m/s | -36.8°C | 1.7% | 6.5hPa | 2.5V | 08:30:00 | 02:43:46 | 00:00:00 | |
| DM0DOS-11 | 2026-08-31 13:14:20 | 51.03409 | 5.44968 | 63° | 24km/h | 34330m | 9.1m/s | -36.7°C | 1.7% | 6.5hPa | 2.6V | 08:30:00 | 02:43:49 | 00:00:00 | i |
| BIOWL1-15 | 2026-08-31 13:14:17 | 51.03413 | 5.44944 | 126° | 37km/h | 34312m | 6.3m/s | -36.8°C | 0% | 6.5hPa | 2.5V | 18:12:15 | 02:43:47 | 00:00:00 | i |
| DL1XH-west | 2026-08-31 13:14:15 | 51.03417 | 5.44940 | 320° | 27km/h | 34296m | 8.6m/s | -36.9°C | 0% | 6.5hPa | 2.6V | 18:12:15 | 02:43:44 | 00:00:00 | i |
| DM0DOS-11 | 2026-08-31 13:14:14 | 51.03374 | 5.44946 | 101° | 18km/h | 34264m | 10m/s | -36.9°C | 1.7% | 6.6hPa | 2.6V | 08:30:00 | 02:43:39 | 00:00:00 | i |
| DL1XH-15 | 2026-08-31 13:14:11 | 51.03396 | 5.44942 | 211° | 33km/h | 34239m | 3.4m/s | -37°C | 1.7% | 6.6hPa | 2.5V | 08:30:00 | 02:43:36 | 00:00:00 | i |
| BIOWL1-15 | 2026-08-31 13:14:11 | 51.03396 | 5.44942 | 212° | 33km/h | 34239m | 3.4m/s | -37°C | 0% | 6.6hPa | 2.5V | 18:12:15 | 02:43:36 | 00:00:00 | i |
| GOEST3-10 | 2026-08-31 13:14:10 | 51.03376 | 5.44952 | 37° | 29km/h | 34273m | 6.2m/s | -36.7°C | 1.7% | 6.5hPa | 2.6V | 00:00:00 | 00:00:00 | 00:00:00 | |
| HTAHTA | 2026-08-31 13:14:08 | 51.03396 | 5.44942 | 211° | 33km/h | 34240m | 3.4m/s | -37.0°C | 0.2% | 6.6hPa | 2.6V | 00:00:00 | 00:00:00 | 00:00:00 | |
| DL8DAS-14 | 2026-08-31 13:14:07 | 51.03396 | 5.44942 | 211° | 33km/h | 34240m | 3.4m/s | -37.0°C | 0.2% | 6.6hPa | 2.6V | 00:00:00 | 00:00:00 | 00:00:00 | |
| BIOWL9-15 | 2026-08-31 13:14:06 | 51.03400 | 5.44949 | 259° | 18km/h | 34236m | 4.1m/s | -37.0°C | 0.3% | 6.6hPa | 2.6V | 00:00:00 | 00:00:00 | 00:00:00 | |
| GOEST3-10 | 2026-08-31 13:14:05 | 51.03400 | 5.44949 | 260° | 27km/h | 34236m | 4.0m/s | -37.0°C | 1.7% | 6.5hPa | 2.6V | 00:00:00 | 02:43:35 | 00:00:00 | |
| DM0DOS-11 | 2026-08-31 13:14:04 | 51.03367 | 5.44931 | 138° | 13km/h | 34197m | 8.5m/s | -36.9°C | 1.8% | 6.6hPa | 2.6V | 08:30:00 | 02:43:29 | 00:00:00 | i |
| DL1XH-west | 2026-08-31 13:14:04 | 51.03398 | 5.44956 | 326° | 22km/h | 34230m | 7.3m/s | -37°C | 0% | 6.6hPa | 2.6V | 18:12:15 | 02:43:34 | 00:00:00 | i |
| DO1YAY-16 | 2026-08-31 13:14:02 | 51.03381 | 5.44954 | 21° | 47km/h | 34214m | 6.8m/s | -36.9°C | 0.3% | 6.6hPa | 2.5V | 00:00:00 | 00:00:00 | 00:00:00 | |
| DL1XH-15 | 2026-08-31 13:14:01 | 51.03386 | 5.44947 | 226° | 35km/h | 34174m | 2.9m/s | -36.9°C | 1.7% | 6.7hPa | 2.5V | 08:30:00 | 02:43:26 | 00:00:00 | i |
| DJ2DS-15 | 2026-08-31 13:13:55 | 51.03391 | 5.44957 | 22° | 2km/h | 34167m | 6.9m/s | -36.8°C | 0.3% | 6.7hPa | 2.5V | 00:00:00 | 00:00:00 | 00:00:00 | |
| DM0DOS-11 | 2026-08-31 13:13:54 | 51.03378 | 5.44912 | 129° | 4km/h | 34131m | 6.2m/s | -36.9°C | 1.7% | 6.7hPa | 2.5V | 08:30:00 | 02:43:19 | 00:00:00 | i |
| DL1XH-west | 2026-08-31 13:13:54 | 51.03391 | 5.44957 | 23° | 4km/h | 34166m | 6.9m/s | -36.8°C | 0% | 6.7hPa | 2.5V | 18:12:15 | 02:43:24 | 00:00:00 | i |
| BIOWL1-15 | 2026-08-31 13:13:53 | 51.03377 | 5.44912 | 130° | 4km/h | 34131m | 6.2m/s | -36.9°C | 0% | 6.7hPa | 2.5V | 18:12:15 | 02:43:19 | 00:00:00 | i |
| AA1-15 | 2026-08-31 13:13:52 | 51.03385 | 5.44942 | 62° | 40km/h | 34148m | 9.3m/s | -36.7°C | 0% | 6.7hPa | 2.6V | 18:12:15 | 02:43:22 | 00:00:00 | i |
| DD1CC8 | 2026-08-31 13:13:51 | 51.03378 | 5.44917 | 73° | 22km/h | 34136m | 3.9m/s | -36.6°C | 0.2% | 6.7hPa | 2.5V | 00:00:00 | 00:00:00 | 00:00:00 | |
| SONCRA | 2026-08-31 13:13:45 | 51.03387 | 5.44942 | 239° | 11km/h | 34105m | 4.8m/s | -37.1°C | 0.3% | 6.7hPa | 2.5V | 00:00:00 | 00:00:00 | 00:00:00 | |
| DM0DOS-11 | 2026-08-31 13:13:44 | 51.03392 | 5.44888 | 137° | 5km/h | 34063m | 7.2m/s | -37.3°C | 1.7% | 6.8hPa | 2.5V | 08:30:00 | 02:43:09 | 00:00:00 | i |
| DL1XH-west | 2026-08-31 13:13:42 | 51.03389 | 5.44921 | 93° | 42km/h | 34081m | 7.9m/s | -37.1°C | 0% | 6.7hPa | 2.6V | 18:12:15 | 02:43:12 | 00:00:00 | i |
| BIOWL1-15 | 2026-08-31 13:13:41 | 51.03390 | 5.44905 | 96° | 38km/h | 34075m | 4.9m/s | -37.1°C | 0% | 6.7hPa | 2.6V | 18:12:15 | 02:43:11 | 00:00:00 | i |
| DL1XH-15 | 2026-08-31 13:13:41 | 51.03391 | 5.44893 | 102° | 22km/h | 34069m | 5m/s | -37.1°C | 1.7% | 6.8hPa | 2.5V | 08:30:00 | 02:43:10 | 00:00:00 | i |
| MET0W-2 | 2026-08-31 13:13:40 | 51.03391 | 5.44893 | 102° | 22km/h | 34070m | 5.0m/s | -37.1°C | 0.3% | 6.8hPa | 2.6V | 00:00:00 | 00:00:00 | 00:00:00 | |
| GOEST3-10 | 2026-08-31 13:13:39 | 51.03392 | 5.44888 | 138° | 13km/h | 34064m | 7.1m/s | -37.2°C | 1.7% | 6.7hPa | 2.6V | 00:00:00 | 00:00:00 | 00:00:00 | |
| HTAHTA | 2026-08-31 13:13:37 | 51.03391 | 5.44911 | 290° | 4km/h | 34036m | 5.9m/s | -37.2°C | 0.3% | 6.8hPa | 2.6V | 00:00:00 | 00:00:00 | 00:00:00 | |
| DL8DAS-14 | 2026-08-31 13:13:36 | 51.03391 | 5.44911 | 290° | 4km/h | 34036m | 5.9m/s | -37.2°C | 0.3% | 6.8hPa | 2.6V | 00:00:00 | 00:00:00 | 00:00:00 | |
| DL1XH-15 | 2026-08-31 13:13:35 | 51.03408 | 5.44872 | 132° | 24km/h | 34000m | 5.2m/s | -37°C | 1.7% | 6.8hPa | 2.6V | 08:30:00 | 02:43:00 | 00:00:00 | i |
| DL1XH-west | 2026-08-31 13:13:32 | 51.03398 | 5.44892 | 127° | 37km/h | 34013m | 7.8m/s | -37.1°C | 0% | 6.8hPa | 2.5V | 18:12:15 | 02:43:02 | 00:00:00 | |
| BIOWL1-15 | 2026-08-31 13:13:30 | 51.03412 | 5.44864 | 49° | 7km/h | 33989m | 6.1m/s | -37.2°C | 0% | 6.9hPa | 2.5V | 18:12:15 | 02:42:58 | 00:00:00 | i |
| AA1-15 | 2026-08-31 13:13:30 | 51.03409 | 5.44872 | 133° | 24km/h | 34000m | 5.2m/s | -37°C | 0% | 6.8hPa | 2.6V | 18:12:15 | 02:43:00 | 00:00:00 | i |
| GOEST3-10 | 2026-08-31 13:13:29 | 51.03411 | 5.44867 | 123° | 11km/h | 33995m | 5.8m/s | -37.1°C | 1.7% | 6.8hPa | 2.6V | 00:00:00 | 00:00:00 | 00:00:00 | |
| DL1XH-15 | 2026-08-31 13:13:25 | 51.03450 | 5.44836 | 180° | 18km/h | 33944m | 5m/s | -37.4°C | 1.8% | 6.9hPa | 2.6V | 08:30:00 | 02:42:50 | 00:00:00 | i |
| DM0DOS-11 | 2026-08-31 13:13:25 | 51.03452 | 5.44834 | 99° | 11km/h | 33938m | 6.7m/s | -37.4°C | 1.8% | 6.9hPa | 2.6V | 08:30:00 | 02:42:49 | 00:00:00 | i |
| DL1XH-west | 2026-08-31 13:13:21 | 51.03443 | 5.44835 | 183° | 35km/h | 33949m | 4.8m/s | -37.4°C | 0% | 6.9hPa | 2.6V | 18:12:15 | 02:42:51 | 00:00:00 | i |
| AA1-15 | 2026-08-31 13:13:19 | 51.03452 | 5.44834 | 99° | 11km/h | 33938m | 6.7m/s | -37.4°C | 0% | 6.9hPa | 2.6V | 18:12:15 | 02:42:49 | 00:00:00 | i |
| BIOWL1-15 | 2026-08-31 13:13:17 | 51.03449 | 5.44742 | 142° | 24km/h | 33901m | 7.6m/s | -37.5°C | 0% | 6.9hPa | 2.6V | 18:12:15 | 02:42:43 | 00:00:00 | i |
| GOEST3-10 | 2026-08-31 13:13:14 | 51.03445 | 5.44752 | 112° | 24km/h | 33907m | 4.2m/s | -37.3°C | 1.8% | 6.9hPa | 2.6V | 00:00:00 | 02:42:44 | 00:00:00 | |
| DM0DOS-11 | 2026-08-31 13:13:13 | 51.03458 | 5.44748 | 83° | 26km/h | 33869m | 7m/s | -37.6°C | 1.8% | 7hPa | 2.6V | 08:30:00 | 02:42:38 | 00:00:00 | i |
| DL1XH-west | 2026-08-31 13:13:10 | 51.03459 | 5.44753 | 266° | 15km/h | 33878m | 3.9m/s | -37.6°C | 0% | 7hPa | 2.5V | 18:12:15 | 02:42:40 | 00:00:00 | i |
| AA1-15 | 2026-08-31 13:13:05 | 51.03464 | 5.44697 | 113° | 47km/h | 33847m | 4.8m/s | -37.5°C | 0% | 7hPa | 2.5V | 18:12:15 | 02:42:35 | 00:00:00 | i |
| DL1XH-15 | 2026-08-31 13:13:05 | 51.03468 | 5.44683 | 121° | 31km/h | 33842m | 4.9m/s | -37.5°C | 1.8% | 7hPa | 2.7V | 08:30:00 | 02:42:34 | 00:00:00 | i |
| DL8DAS-14 | 2026-08-31 13:13:05 | 51.03468 | 5.44683 | 121° | 29km/h | 33842m | 4.9m/s | -37.5°C | 0.3% | 7.0hPa | 2.6V | 00:00:00 | 00:00:00 | 00:00:00 | i |
| BIOWL9-15 | 2026-08-31 13:13:04 | 51.03471 | 5.44676 | 124° | 9km/h | 33836m | 7.2m/s | -37.6°C | 0.3% | 7.0hPa | 2.6V | 00:00:00 | 00:00:00 | 00:00:00 | |
| DM0DOS-11 | 2026-08-31 13:13:01 | 51.03475 | 5.44641 | 146° | 46km/h | 33793m | 6.4m/s | -37.7°C | 1.8% | 7.1hPa | 2.6V | 08:30:00 | 02:42:26 | 00:00:00 | i |
| DL1XH-west | 2026-08-31 13:13:00 | 51.03464 | 5.44677 | 14° | 16km/h | 33816m | 3.8m/s | -37.5°C | 0% | 7hPa | 2.5V | 18:12:15 | 02:42:30 | 00:00:00 | i |
| AA1-15 | 2026-08-31 13:12:54 | 51.03489 | 5.44630 | 158° | 15km/h | 33783m | 4.4m/s | -37.7°C | 0% | 7hPa | 2.5V | 18:12:15 | 02:42:24 | 00:00:00 | i |
| GOEST3-10 | 2026-08-31 13:12:54 | 51.03489 | 5.44630 | 158° | 29km/h | 33783m | 4.4m/s | -37.6°C | 1.8% | 7.0hPa | 2.5V | 00:00:00 | 02:42:24 | 00:00:00 | i |
| DM0DOS-11 | 2026-08-31 13:12:51 | 51.03459 | 5.44568 | 213° | 16km/h | 33729m | 8.8m/s | -37.8°C | 1.9% | 7.1hPa | 2.5V | 08:30:00 | 02:42:16 | 00:00:00 | i |
| DL1XH-west | 2026-08-31 13:12:49 | 51.03459 | 5.44588 | 61° | 44km/h | 33748m | 3.3m/s | -37.5°C | 0% | 7.1hPa | 2.6V | 18:12:15 | 02:42:19 | 00:00:00 | i |
| BIOWL1-15 | 2026-08-31 13:12:46 | 51.03459 | 5.44568 | 213° | 16km/h | 33729m | 8.8m/s | -37.8°C | 0% | 7.1hPa | 2.5V | 18:12:15 | 02:42:16 | 00:00:00 | i |
| DL1XH-15 | 2026-08-31 13:12:44 | 51.03461 | 5.44581 | 305° | 15km/h | 33716m | 3.8m/s | -37.9°C | 1.9% | 7.1hPa | 2.6V | 08:30:00 | 02:42:14 | 00:00:00 | i |
| AA1-15 | 2026-08-31 13:12:43 | 51.03458 | 5.44582 | 18° | 22km/h | 33712m | 5.3m/s | -37.9°C | 0% | 7.1hPa | 2.6V | 18:12:15 | 02:42:13 | 00:00:00 | i |
| DJ2DS-15 | 2026-08-31 13:12:43 | 51.03452 | 5.44575 | 46° | 37km/h | 33705m | 8.8m/s | -38.0°C | 0.3% | 7.2hPa | 2.5V | 00:00:00 | 00:00:00 | 00:00:00 | i |
| WPPR-10 | 2026-08-31 13:12:42 | 51.03437 | 5.44520 | 79° | 40km/h | 33684m | 3.2m/s | -37.7°C | 0.3% | 7.2hPa | 2.5V | 00:00:00 | 00:00:00 | 00:00:00 | |
| DM0DOS-11 | 2026-08-31 13:12:41 | 51.03430 | 5.44510 | 312° | 31km/h | 33663m | 9.2m/s | -37.6°C | 1.9% | 7.2hPa | 2.5V | 08:30:00 | 02:42:06 | 00:00:00 | i |
| DD1CC9-15 | 2026-08-31 13:12:40 | 51.03445 | 5.44560 | 64° | 55km/h | 33696m | 9.4m/s | -37.9°C | 0.3% | 7.2hPa | 2.5V | 00:00:00 | 00:00:00 | 00:00:00 | |
| DL1XH-15 | 2026-08-31 13:12:39 | 51.03415 | 5.44527 | 347° | 35km/h | 33652m | 3.1m/s | -37.4°C | 1.8% | 7.2hPa | 2.5V | 08:30:00 | 02:42:04 | 00:00:00 | i |
| DL1XH-west | 2026-08-31 13:12:38 | 51.03436 | 5.44508 | 73° | 18km/h | 33679m | 5.1m/s | -37.7°C | 0% | 7.2hPa | 2.6V | 18:12:15 | 02:42:08 | 00:00:00 | i |
| BIOWL1-15 | 2026-08-31 13:12:35 | 51.03423 | 5.44520 | 322° | 40km/h | 33656m | 5.5m/s | -37.5°C | 0% | 7.2hPa | 2.5V | 18:12:15 | 02:42:05 | 00:00:00 | i |
| AA1-15 | 2026-08-31 13:12:33 | 51.03407 | 5.44526 | 25° | 31km/h | 33647m | 5.5m/s | -37.3°C | 0% | 7.2hPa | 2.6V | 18:12:15 | 02:42:03 | 00:00:00 | i |
| BIOWL9-15 | 2026-08-31 13:12:33 | 51.03400 | 5.44471 | 87° | 27km/h | 33618m | 3.7m/s | -37.6°C | 0.3% | 7.2hPa | 2.6V | 00:00:00 | 00:00:00 | 00:00:00 | i |
| DM0DOS-11 | 2026-08-31 13:12:31 | 51.03382 | 5.44465 | 345° | 53km/h | 33597m | 8.3m/s | -37.5°C | 1.8% | 7.2hPa | 2.6V | 08:30:00 | 02:41:56 | 00:00:00 | i |
| DL1XH-west | 2026-08-31 13:12:26 | 51.03382 | 5.44465 | 345° | 53km/h | 33597m | 8.3m/s | -37.6°C | 0% | 7.3hPa | 2.6V | 18:12:15 | 02:41:56 | 00:00:00 | i |
| BIOWL1-15 | 2026-08-31 13:12:26 | 51.03355 | 5.44471 | 6° | 46km/h | 33586m | 4.1m/s | -37.5°C | 0% | 7.3hPa | 2.5V | 18:12:15 | 02:41:54 | 00:00:00 | i |
| AA1-15 | 2026-08-31 13:12:22 | 51.03342 | 5.44457 | 79° | 27km/h | 33572m | 10.4m/s | -37.7°C | 0% | 7.3hPa | 2.5V | 18:12:15 | 02:41:52 | 00:00:00 | i |
| DL1XH-15 | 2026-08-31 13:12:20 | 51.03349 | 5.44436 | 132° | 27km/h | 33556m | 4.3m/s | -37.7°C | 1.8% | 7.3hPa | 2.6V | 08:30:00 | 02:41:50 | 00:00:00 | i |
| GOEST3-10 | 2026-08-31 13:12:20 | 51.03348 | 5.44436 | 133° | 18km/h | 33556m | 4.3m/s | -37.6°C | 1.8% | 7.3hPa | 2.6V | 00:00:00 | 02:41:50 | 00:00:00 | i |
| DL4BBY-15 | 2026-08-31 13:12:19 | 51.03351 | 5.44430 | 102° | 29km/h | 33552m | 3.9m/s | -37.3°C | 0% | 0hPa | 2.6V | 00:00:00 | 00:00:00 | 00:00:00 | |
| DD1CC8 | 2026-08-31 13:12:18 | 51.03328 | 5.44426 | 5° | 60km/h | 33528m | 8.6m/s | -37.6°C | 0.3% | 7.3hPa | 2.6V | 00:00:00 | 00:00:00 | 00:00:00 | |
| DM0DOS-11 | 2026-08-31 13:12:15 | 51.03301 | 5.44415 | 29° | 44km/h | 33517m | 3.7m/s | -37.3°C | 1.8% | 7.3hPa | 2.6V | 08:30:00 | 02:41:44 | 00:00:00 | i |
| DL1XH-west | 2026-08-31 13:12:15 | 51.03313 | 5.44422 | 15° | 60km/h | 33521m | 4.3m/s | -37.4°C | 0% | 7.3hPa | 2.6V | 18:12:15 | 02:41:45 | 00:00:00 | i |
| AA1-15 | 2026-08-31 13:12:11 | 51.03296 | 5.44395 | 164° | 22km/h | 33495m | 8.5m/s | -37.7°C | 0% | 7.4hPa | 2.5V | 18:12:15 | 02:41:41 | 00:00:00 | i |
| BIOWL1-15 | 2026-08-31 13:12:10 | 51.03304 | 5.44394 | 182° | 2km/h | 33483m | 4.3m/s | -37.8°C | 0% | 7.4hPa | 2.6V | 18:12:15 | 02:41:39 | 00:00:00 | i |
| DL1XH-15 | 2026-08-31 13:12:10 | 51.03301 | 5.44394 | 181° | 20km/h | 33488m | 4.9m/s | -37.8°C | 1.8% | 7.4hPa | 2.5V | 08:30:00 | 02:41:40 | 00:00:00 | i |
| GOEST3-10 | 2026-08-31 13:12:10 | 51.03301 | 5.44394 | 182° | 24km/h | 33488m | 4.9m/s | -37.7°C | 1.8% | 7.4hPa | 2.5V | 00:00:00 | 02:41:40 | 08:30:00 | i |
| DJ2DS-15 | 2026-08-31 13:12:07 | 51.03284 | 5.44380 | 28° | 55km/h | 33461m | 7.1m/s | -37.4°C | 0.3% | 7.4hPa | 2.6V | 00:00:00 | 00:00:00 | 00:00:00 | |
| DL1XH-15 | 2026-08-31 13:12:05 | 51.03260 | 5.44363 | 274° | 13km/h | 33424m | 4.8m/s | -37.4°C | 1.8% | 7.4hPa | 2.6V | 08:30:00 | 02:41:30 | 00:00:00 | i |
| DM0DOS-11 | 2026-08-31 13:12:05 | 51.03263 | 5.44360 | 35° | 33km/h | 33451m | 4.5m/s | -37.3°C | 1.8% | 7.4hPa | 2.5V | 08:30:00 | 02:41:34 | 00:00:00 | i |
| DL1XH-west | 2026-08-31 13:12:05 | 51.03272 | 5.44369 | 33° | 51km/h | 33455m | 4m/s | -37.3°C | 0% | 7.4hPa | 2.5V | 18:12:15 | 02:41:35 | 00:00:00 | i |
| AA1-15 | 2026-08-31 13:12:00 | 51.03260 | 5.44363 | 274° | 13km/h | 33424m | 4.8m/s | -37.4°C | 0% | 7.4hPa | 2.6V | 18:12:15 | 02:41:30 | 00:00:00 | i |
| BIOWL1-15 | 2026-08-31 13:11:56 | 51.03235 | 5.44338 | 48° | 57km/h | 33397m | 5.3m/s | -37.3°C | 0% | 7.5hPa | 2.6V | 18:12:15 | 02:41:26 | 00:00:00 | i |
| DL1XH-west | 2026-08-31 13:11:55 | 51.03227 | 5.44323 | 53° | 42km/h | 33392m | 3.8m/s | -37.2°C | 0% | 7.5hPa | 2.6V | 18:12:15 | 02:41:25 | 00:00:00 | i |
| AA1-15 | 2026-08-31 13:11:49 | 51.03207 | 5.44339 | 11° | 20km/h | 33355m | 5.5m/s | -37.2°C | 0% | 7.5hPa | 2.6V | 18:12:15 | 02:41:19 | 00:00:00 | i |
| BIOWL1-15 | 2026-08-31 13:11:46 | 51.03195 | 5.44300 | 85° | 51km/h | 33332m | 5.7m/s | -37.1°C | 0% | 7.6hPa | 2.5V | 18:12:15 | 02:41:16 | 00:00:00 | i |
| DM0DOS-11 | 2026-08-31 13:11:46 | 51.03194 | 5.44273 | 71° | 15km/h | 33322m | 5.6m/s | -37.1°C | 1.8% | 7.6hPa | 2.5V | 08:30:00 | 02:41:14 | 00:00:00 | i |
| DL1XH-west | 2026-08-31 13:11:45 | 51.03194 | 5.44283 | 88° | 35km/h | 33327m | 3.8m/s | -37°C | 0% | 7.5hPa | 2.5V | 18:12:15 | 02:41:15 | 00:00:00 | i |
| AA1-15 | 2026-08-31 13:11:38 | 51.03158 | 5.44280 | 73° | 31km/h | 33281m | 9.5m/s | -37°C | 0% | 7.6hPa | 2.6V | 18:12:15 | 02:41:08 | 00:00:00 | i |
| BIOWL1-15 | 2026-08-31 13:11:35 | 51.03166 | 5.44244 | 123° | 20km/h | 33260m | 4.1m/s | -36.9°C | 0% | 7.6hPa | 2.6V | 18:12:15 | 02:41:05 | 00:00:00 | i |
| DM0DOS-11 | 2026-08-31 13:11:35 | 51.03167 | 5.44240 | 27° | 7km/h | 33255m | 6.4m/s | -37°C | 1.7% | 7.6hPa | 2.5V | 08:30:00 | 02:41:04 | 00:00:00 | i |
| DL1XH-west | 2026-08-31 13:11:34 | 51.03167 | 5.44240 | 27° | 7km/h | 33255m | 6.4m/s | -37°C | 0% | 7.6hPa | 2.5V | 18:12:15 | 02:41:04 | 00:00:00 | i |
| HTAHTA | 2026-08-31 13:11:33 | 51.03153 | 5.44242 | 354° | 47km/h | 33238m | 7.9m/s | -37.0°C | 0.3% | 7.7hPa | 2.6V | 00:00:00 | 00:00:00 | 00:00:00 | |
| DL8DAS-14 | 2026-08-31 13:11:31 | 51.03141 | 5.44242 | 6° | 49km/h | 33232m | 4.7m/s | -36.9°C | 0.3% | 7.7hPa | 2.6V | 00:00:00 | 00:00:00 | 00:00:00 | |
| DL1XH-15 | 2026-08-31 13:11:30 | 51.03134 | 5.44211 | 179° | 20km/h | 33198m | 4.5m/s | -37.1°C | 1.8% | 7.7hPa | 2.6V | 08:30:00 | 02:40:56 | 00:00:00 | |
| AA1-15 | 2026-08-31 13:11:27 | 51.03128 | 5.44213 | 155° | 29km/h | 33204m | 7.2m/s | -37.2°C | 0% | 7.7hPa | 2.6V | 18:12:15 | 02:40:57 | 00:00:00 | i |
| DO1YAY-16 | 2026-08-31 13:11:27 | 51.03128 | 5.44213 | 154° | 27km/h | 33204m | 7.2m/s | -37.2°C | 0.3% | 7.7hPa | 2.6V | 00:00:00 | 00:00:00 | 00:00:00 | i |
| DM0DOS-11 | 2026-08-31 13:11:25 | 51.03133 | 5.44213 | 358° | 22km/h | 33187m | 7.6m/s | -37.2°C | 1.8% | 7.7hPa | 2.6V | 08:30:00 | 02:40:54 | 00:00:00 | i |
| DL1XH-west | 2026-08-31 13:11:23 | 51.03125 | 5.44211 | 14° | 44km/h | 33179m | 9.2m/s | -37.2°C | 0% | 7.7hPa | 2.5V | 18:12:15 | 02:40:53 | 00:00:00 | i |
| BIOWL1-15 | 2026-08-31 13:11:22 | 51.03097 | 5.44175 | 67° | 38km/h | 33160m | 5.4m/s | -37.1°C | 0% | 7.8hPa | 2.6V | 18:12:15 | 02:40:50 | 00:00:00 | i |
| AA1-15 | 2026-08-31 13:11:17 | 51.03102 | 5.44167 | 294° | 16km/h | 33134m | 4.2m/s | -37.2°C | 0% | 7.8hPa | 2.6V | 18:12:15 | 02:40:46 | 00:00:00 | i |
| DD1CC1-15 | 2026-08-31 13:11:17 | 51.03101 | 5.44161 | 233° | 18km/h | 33139m | 5.3m/s | -37.1°C | 0.3% | 7.8hPa | 2.6V | 00:00:00 | 00:00:00 | 00:00:00 | i |
| DD1CC8 | 2026-08-31 13:11:16 | 51.03098 | 5.44169 | 358° | 22km/h | 33128m | 6.5m/s | -37.1°C | 0.3% | 7.8hPa | 2.6V | 00:00:00 | 00:00:00 | 00:00:00 | |
| DM0DOS-11 | 2026-08-31 13:11:15 | 51.03072 | 5.44113 | 85° | 44km/h | 33101m | 4m/s | -37°C | 1.8% | 7.8hPa | 2.6V | 08:30:00 | 02:40:41 | 00:00:00 | i |
| DL1XH-west | 2026-08-31 13:11:12 | 51.03071 | 5.44113 | 85° | 44km/h | 33101m | 4m/s | -37°C | 0% | 7.8hPa | 2.6V | 18:12:15 | 02:40:41 | 00:00:00 | i |
| BIOWL1-15 | 2026-08-31 13:11:07 | 51.03069 | 5.44112 | 317° | 37km/h | 33071m | 5m/s | -37.2°C | 0% | 7.8hPa | 2.5V | 18:12:15 | 02:40:37 | 00:00:00 | i |
| AA1-15 | 2026-08-31 13:11:06 | 51.03061 | 5.44118 | 353° | 37km/h | 33066m | 4.6m/s | -37.2°C | 0% | 7.9hPa | 2.5V | 18:12:15 | 02:40:36 | 00:00:00 | i |
| MET0W-2 | 2026-08-31 13:11:05 | 51.03052 | 5.44115 | 29° | 40km/h | 33060m | 7.4m/s | -37.2°C | 0.3% | 7.8hPa | 2.5V | 00:00:00 | 00:00:00 | 00:00:00 | |
| DL1XH-15 | 2026-08-31 13:11:04 | 51.03041 | 5.44050 | 102° | 22km/h | 33032m | 4.8m/s | -37.1°C | 1.7% | 7.9hPa | 2.5V | 08:30:00 | 02:40:31 | 00:00:00 | i |
| DL1XH-west | 2026-08-31 13:11:00 | 51.03041 | 5.44045 | 17° | 5km/h | 33026m | 7.9m/s | -37.3°C | 0% | 7.9hPa | 2.5V | 18:12:15 | 02:40:30 | 00:00:00 | i |
| BIOWL9-15 | 2026-08-31 13:11:00 | 51.03030 | 5.44055 | 333° | 44km/h | 33009m | 7.1m/s | -37.3°C | 0.3% | 7.9hPa | 2.6V | 00:00:00 | 00:00:00 | 00:00:00 | i |
| DL8DAS-15 | 2026-08-31 13:10:59 | 51.03041 | 5.44045 | 18° | 5km/h | 33026m | 7.9m/s | -37.3°C | 0.3% | 7.9hPa | 2.6V | 00:00:00 | 00:00:00 | 00:00:00 | |
| GOEST3-10 | 2026-08-31 13:10:57 | 51.03020 | 5.44060 | 353° | 38km/h | 33003m | 3.6m/s | -37.1°C | 1.8% | 7.9hPa | 2.6V | 00:00:00 | 02:40:27 | 00:00:00 | |
| DL1XH-15 | 2026-08-31 13:10:56 | 51.03011 | 5.44001 | 91° | 13km/h | 32963m | 5.9m/s | -37.1°C | 1.8% | 8hPa | 2.6V | 08:30:00 | 02:40:21 | 00:00:00 | i |
| DO1YAY-16 | 2026-08-31 13:10:56 | 51.03004 | 5.44051 | 58° | 31km/h | 32993m | 7.8m/s | -37.1°C | 0.3% | 8.0hPa | 2.6V | 00:00:00 | 00:00:00 | 00:00:00 | i |
| DM0DOS-11 | 2026-08-31 13:10:53 | 51.02990 | 5.44001 | 356° | 47km/h | 32942m | 3.5m/s | -37.1°C | 1.7% | 8hPa | 2.6V | 08:30:00 | 02:40:18 | 00:00:00 | i |
| AA1-15 | 2026-08-31 13:10:53 | 51.03005 | 5.44022 | 114° | 42km/h | 32975m | 7.7m/s | -37°C | 0% | 8hPa | 2.5V | 18:12:15 | 02:40:23 | 00:00:00 | i |
| BIOWL1-15 | 2026-08-31 13:10:52 | 51.03009 | 5.44009 | 118° | 31km/h | 32968m | 5.1m/s | -37.1°C | 0% | 8hPa | 2.5V | 18:12:15 | 02:40:22 | 00:00:00 | i |
| DL1XH-west | 2026-08-31 13:10:49 | 51.03001 | 5.43999 | 352° | 38km/h | 32947m | 7.9m/s | -37.2°C | 0% | 8hPa | 2.6V | 18:12:15 | 02:40:19 | 00:00:00 | i |
| DD1CC8 | 2026-08-31 13:10:45 | 51.02972 | 5.43970 | 117° | 44km/h | 32914m | 10.4m/s | -37.2°C | 0.3% | 8.0hPa | 2.6V | 00:00:00 | 00:00:00 | 00:00:00 | |
| GOEST3-10 | 2026-08-31 13:10:42 | 51.02982 | 5.43939 | 104° | 38km/h | 32902m | 3.2m/s | -37.1°C | 1.7% | 8.0hPa | 2.6V | 00:00:00 | 00:00:00 | 00:00:00 | i |
| BIOWL1-15 | 2026-08-31 13:10:42 | 51.02982 | 5.43939 | 104° | 33km/h | 32902m | 3.2m/s | -37.2°C | 0% | 8.1hPa | 2.6V | 18:12:15 | 02:40:12 | 00:00:00 | i |
| DL1XH-15 | 2026-08-31 13:10:41 | 51.02932 | 5.43903 | 49° | 29km/h | 32862m | 6.9m/s | -37.4°C | 1.8% | 8.1hPa | 2.6V | 08:30:00 | 02:40:06 | 00:00:00 | i |
| DL1XH-west | 2026-08-31 13:10:38 | 51.02951 | 5.43915 | 7° | 57km/h | 32871m | 4.7m/s | -37.3°C | 0% | 8.1hPa | 2.5V | 18:12:15 | 02:40:08 | 00:00:00 | i |
| WPPR-10 | 2026-08-31 13:10:38 | 51.02951 | 5.43915 | 7° | 55km/h | 32872m | 4.7m/s | -37.3°C | 0.3% | 8.1hPa | 2.6V | 00:00:00 | 00:00:00 | 00:00:00 | i |
| GOEST3-10 | 2026-08-31 13:10:37 | 51.02939 | 5.43910 | 20° | 35km/h | 32867m | 3.7m/s | -37.2°C | 1.8% | 8.1hPa | 2.6V | 00:00:00 | 02:40:07 | 08:30:00 | |
| DD1CC9-15 | 2026-08-31 13:10:36 | 51.02939 | 5.43910 | 21° | 42km/h | 32867m | 3.8m/s | -37.2°C | 0.3% | 8.1hPa | 2.6V | 00:00:00 | 00:00:00 | 00:00:00 | |
| DD1CC1-15 | 2026-08-31 13:10:35 | 51.02932 | 5.43903 | 50° | 29km/h | 32862m | 6.9m/s | -37.4°C | 0.3% | 8.1hPa | 2.6V | 00:00:00 | 00:00:00 | 00:00:00 | |
| MET0W-2 | 2026-08-31 13:10:34 | 51.02937 | 5.43868 | 120° | 37km/h | 32839m | 4.1m/s | -37.5°C | 0.3% | 8.1hPa | 2.6V | 00:00:00 | 00:00:00 | 00:00:00 | |
| DM0DOS-11 | 2026-08-31 13:10:33 | 51.02906 | 5.43832 | 11° | 51km/h | 32805m | 4.5m/s | -37.4°C | 1.7% | 8.2hPa | 2.6V | 08:30:00 | 02:39:58 | 00:00:00 | i |
| DL1XH-west | 2026-08-31 13:10:28 | 51.02906 | 5.43832 | 11° | 51km/h | 32805m | 4.5m/s | -37.4°C | 0% | 8.2hPa | 2.6V | 18:12:15 | 02:39:58 | 00:00:00 | i |
| BIOWL1-15 | 2026-08-31 13:10:24 | 51.02893 | 5.43793 | 39° | 16km/h | 32767m | 6.8m/s | -37.8°C | 0% | 8.2hPa | 2.6V | 18:12:15 | 02:39:52 | 00:00:00 | i |
| DM0DOS-11 | 2026-08-31 13:10:23 | 51.02850 | 5.43786 | 7° | 38km/h | 32739m | 4.1m/s | -38°C | 1.8% | 8.2hPa | 2.5V | 08:30:00 | 02:39:48 | 00:00:00 | i |
| DL1XH-west | 2026-08-31 13:10:18 | 51.02850 | 5.43786 | 7° | 38km/h | 32739m | 4.1m/s | -38°C | 0% | 8.2hPa | 2.5V | 18:12:15 | 02:39:48 | 00:00:00 | i |
| BIOWL1-15 | 2026-08-31 13:10:11 | 51.02804 | 5.43766 | 4° | 53km/h | 32674m | 3m/s | -38.1°C | 0% | 8.3hPa | 2.6V | 18:12:15 | 02:39:39 | 00:00:00 | i |
| DM0DOS-11 | 2026-08-31 13:10:10 | 51.02794 | 5.43765 | 5° | 31km/h | 32670m | 4.9m/s | -38.1°C | 1.8% | 8.3hPa | 2.6V | 08:30:00 | 02:39:38 | 00:00:00 | i |
| DL1XH-west | 2026-08-31 13:10:08 | 51.02793 | 5.43765 | 6° | 31km/h | 32670m | 4.9m/s | -38.1°C | 0% | 8.3hPa | 2.6V | 18:12:15 | 02:39:38 | 00:00:00 | i |
| AA1-15 | 2026-08-31 13:10:07 | 51.02788 | 5.43764 | 6° | 11km/h | 32663m | 9.1m/s | -38.3°C | 0% | 8.3hPa | 2.6V | 18:12:15 | 02:39:37 | 00:00:00 | i |
| WPPR-10 | 2026-08-31 13:10:07 | 51.02788 | 5.43764 | 5° | 9km/h | 32663m | 9.1m/s | -38.3°C | 0.3% | 8.3hPa | 2.5V | 00:00:00 | 00:00:00 | 00:00:00 | i |
| GOEST3-10 | 2026-08-31 13:10:04 | 51.02795 | 5.43769 | 235° | 29km/h | 32639m | 4.2m/s | -38.4°C | 1.8% | 8.3hPa | 2.5V | 00:00:00 | 02:39:34 | 00:00:00 | |
| MET0W-2 | 2026-08-31 13:10:03 | 51.02788 | 5.43775 | 352° | 35km/h | 32626m | 9.4m/s | -38.5°C | 0.3% | 8.4hPa | 2.5V | 00:00:00 | 00:00:00 | 00:00:00 | |
| DM0DOS-11 | 2026-08-31 13:10:01 | 51.02741 | 5.43775 | 200° | 20km/h | 32583m | 7.7m/s | -38.6°C | 1.9% | 8.4hPa | 2.5V | 08:30:00 | 02:39:26 | 00:00:00 | i |
| DL1XH-west | 2026-08-31 13:09:57 | 51.02739 | 5.43772 | 268° | 4km/h | 32592m | 9.9m/s | -38.6°C | 0% | 8.4hPa | 2.5V | 18:12:15 | 02:39:27 | 00:00:00 | i |
| AA1-15 | 2026-08-31 13:09:56 | 51.02741 | 5.43775 | 201° | 20km/h | 32583m | 7.7m/s | -38.6°C | 0% | 8.4hPa | 2.5V | 18:12:15 | 02:39:26 | 00:00:00 | i |
| DD1CC9-15 | 2026-08-31 13:09:55 | 51.02741 | 5.43775 | 202° | 20km/h | 32583m | 7.7m/s | -38.6°C | 0.4% | 8.4hPa | 2.6V | 00:00:00 | 00:00:00 | 00:00:00 | |
| GOEST3-10 | 2026-08-31 13:09:54 | 51.02747 | 5.43779 | 304° | 20km/h | 32573m | 5.0m/s | -38.6°C | 1.9% | 8.4hPa | 2.6V | 00:00:00 | 02:39:24 | 00:00:00 | |
| DL8DAS-15 | 2026-08-31 13:09:53 | 51.02747 | 5.43779 | 304° | 2km/h | 32573m | 5.0m/s | -38.7°C | 0.4% | 8.5hPa | 2.6V | 00:00:00 | 00:00:00 | 00:00:00 | |
| DM0DOS-11 | 2026-08-31 13:09:51 | 51.02706 | 5.43757 | 178° | 26km/h | 32511m | 5.8m/s | -39°C | 2% | 8.5hPa | 2.6V | 08:30:00 | 02:39:16 | 00:00:00 | i |
| BIOWL1-15 | 2026-08-31 13:09:49 | 51.02711 | 5.43755 | 156° | 15km/h | 32506m | 4.2m/s | -39°C | 0% | 8.5hPa | 2.6V | 18:12:15 | 02:39:15 | 00:00:00 | i |
| DL1XH-west | 2026-08-31 13:09:47 | 51.02700 | 5.43757 | 178° | 18km/h | 32519m | 10m/s | -39°C | 0% | 8.5hPa | 2.6V | 18:12:15 | 02:39:17 | 00:00:00 | i |
| AA1-15 | 2026-08-31 13:09:46 | 51.02706 | 5.43757 | 179° | 26km/h | 32511m | 5.9m/s | -39°C | 0% | 8.5hPa | 2.6V | 18:12:15 | 02:39:16 | 00:00:00 | i |
| BUE01 | 2026-08-31 13:09:45 | 51.02711 | 5.43755 | 155° | 13km/h | 32506m | 4.2m/s | 0°C | -1.0% | -1.0hPa | 2.5V | 00:00:00 | 00:00:00 | 00:00:00 | |
| DJ2DS-15 | 2026-08-31 13:09:43 | 51.02686 | 5.43736 | 13° | 49km/h | 32479m | 3.2m/s | -38.8°C | 0.3% | 8.6hPa | 2.5V | 00:00:00 | 00:00:00 | 00:00:00 | |
| DM0DOS-11 | 2026-08-31 13:09:41 | 51.02678 | 5.43728 | 156° | 18km/h | 32444m | 3.9m/s | -39°C | 1.9% | 8.6hPa | 2.5V | 08:30:00 | 02:39:06 | 00:00:00 | i |
| DL1XH-west | 2026-08-31 13:09:36 | 51.02678 | 5.43728 | 156° | 18km/h | 32444m | 3.9m/s | -39°C | 0% | 8.6hPa | 2.5V | 18:12:15 | 02:39:06 | 00:00:00 | i |
| AA1-15 | 2026-08-31 13:09:35 | 51.02680 | 5.43724 | 84° | 15km/h | 32439m | 5.6m/s | -39°C | 0% | 8.6hPa | 2.5V | 18:12:15 | 02:39:05 | 00:00:00 | i |
| DD1CC9-15 | 2026-08-31 13:09:34 | 51.02680 | 5.43723 | 85° | 15km/h | 32440m | 5.6m/s | -39.0°C | 0.4% | 8.6hPa | 2.6V | 00:00:00 | 00:00:00 | 00:00:00 | |
| DD1CC1-15 | 2026-08-31 13:09:33 | 51.02677 | 5.43716 | 46° | 31km/h | 32432m | 9.3m/s | -38.9°C | 0.4% | 8.7hPa | 2.6V | 00:00:00 | 00:00:00 | 00:00:00 | |
| DL1XH-15 | 2026-08-31 13:09:32 | 51.02638 | 5.43665 | 161° | 22km/h | 32380m | 5.5m/s | -38.9°C | 2% | 8.7hPa | 2.6V | 08:30:00 | 02:38:57 | 00:00:00 | i |
| MET0W-2 | 2026-08-31 13:09:32 | 51.02644 | 5.43686 | 28° | 47km/h | 32410m | 3.7m/s | -38.6°C | 0.4% | 8.7hPa | 2.6V | 00:00:00 | 00:00:00 | 00:00:00 | i |
| DM0DOS-11 | 2026-08-31 13:09:31 | 51.02641 | 5.43662 | 119° | 11km/h | 32375m | 4.5m/s | -38.9°C | 1.9% | 8.7hPa | 2.6V | 08:30:00 | 02:38:56 | 00:00:00 | i |
| BIOWL1-15 | 2026-08-31 13:09:27 | 51.02638 | 5.43665 | 162° | 22km/h | 32380m | 5.5m/s | -38.9°C | 0% | 8.7hPa | 2.6V | 18:12:15 | 02:38:57 | 00:00:00 | i |
| DL1XH-west | 2026-08-31 13:09:25 | 51.02640 | 5.43657 | 43° | 20km/h | 32369m | 7.2m/s | -39°C | 0% | 8.7hPa | 2.6V | 18:12:15 | 02:38:55 | 00:00:00 | i |
| AA1-15 | 2026-08-31 13:09:24 | 51.02623 | 5.43642 | 25° | 57km/h | 32352m | 7m/s | -38.8°C | 0% | 8.7hPa | 2.5V | 18:12:15 | 02:38:53 | 00:00:00 | i |
| DO1YAY-16 | 2026-08-31 13:09:23 | 51.02623 | 5.43642 | 25° | 57km/h | 32352m | 7.0m/s | -38.8°C | 0.4% | 8.7hPa | 2.5V | 00:00:00 | 00:00:00 | 00:00:00 | |
| GOEST3-10 | 2026-08-31 13:09:21 | 51.02601 | 5.43622 | 41° | 27km/h | 32343m | 5.5m/s | -38.8°C | 1.8% | 8.7hPa | 2.5V | 00:00:00 | 00:00:00 | 00:00:00 | |
| DM0DOS-11 | 2026-08-31 13:09:20 | 51.02610 | 5.43584 | 31° | 26km/h | 32298m | 8.9m/s | -39.2°C | 2% | 8.8hPa | 2.5V | 08:30:00 | 02:38:45 | 00:00:00 | i |
| BIOWL1-15 | 2026-08-31 13:09:18 | 51.02613 | 5.43589 | 85° | 13km/h | 32306m | 5.6m/s | -39.1°C | 0% | 8.8hPa | 2.5V | 18:12:15 | 02:38:46 | 00:00:00 | i |
| DL1XH-west | 2026-08-31 13:09:13 | 51.02578 | 5.43570 | 11° | 38km/h | 32278m | 3.8m/s | -38.9°C | 0% | 8.8hPa | 2.6V | 18:12:15 | 02:38:42 | 00:00:00 | i |
| BIOWL1-15 | 2026-08-31 13:09:09 | 51.02563 | 5.43528 | 21° | 27km/h | 32208m | 5m/s | -38.8°C | 0% | 8.9hPa | 2.6V | 18:12:15 | 02:38:32 | 00:00:00 | i |
| WEDDY | 2026-08-31 13:09:07 | 51.02583 | 5.43557 | 160° | 38km/h | 32246m | 5.8m/s | -39.1°C | 0.4% | 8.9hPa | 2.6V | 00:00:00 | 00:00:00 | 00:00:00 | |
| GOEST3-10 | 2026-08-31 13:09:06 | 51.02592 | 5.43545 | 88° | 18km/h | 32236m | 6.1m/s | -39.0°C | 2.0% | 8.8hPa | 2.6V | 00:00:00 | 02:38:36 | 00:00:00 | |
| WPPR-10 | 2026-08-31 13:09:05 | 51.02589 | 5.43540 | 30° | 24km/h | 32228m | 9.2m/s | -39.1°C | 0.4% | 8.9hPa | 2.6V | 00:00:00 | 00:00:00 | 00:00:00 | |
| DM0DOS-11 | 2026-08-31 13:09:03 | 51.02563 | 5.43528 | 21° | 27km/h | 32208m | 5m/s | -38.8°C | 1.9% | 8.9hPa | 2.6V | 08:30:00 | 02:38:32 | 00:00:00 | i |
| DL1XH-west | 2026-08-31 13:09:01 | 51.02559 | 5.43523 | 66° | 13km/h | 32201m | 7.8m/s | -38.8°C | 0% | 9hPa | 2.6V | 18:12:15 | 02:38:31 | 00:00:00 | i |
| MET0W-2 | 2026-08-31 13:09:01 | 51.02560 | 5.43518 | 139° | 20km/h | 32193m | 9.8m/s | -38.8°C | 0.4% | 8.9hPa | 2.5V | 00:00:00 | 00:00:00 | 00:00:00 | i |
| HTAHTA | 2026-08-31 13:08:57 | 51.02579 | 5.43496 | 50° | 16km/h | 32167m | 9.1m/s | -39.1°C | 0.4% | 9.0hPa | 2.5V | 00:00:00 | 00:00:00 | 00:00:00 | |
| DD1CC3-15 | 2026-08-31 13:08:56 | 51.02579 | 5.43501 | 129° | 16km/h | 32175m | 5.4m/s | -39.0°C | 0.4% | 9.0hPa | 2.5V | 00:00:00 | 00:00:00 | 00:00:00 | |
| DM0DOS-11 | 2026-08-31 13:08:55 | 51.02550 | 5.43471 | 59° | 20km/h | 32139m | 6.6m/s | -38.8°C | 1.9% | 9hPa | 2.5V | 08:30:00 | 02:38:22 | 00:00:00 | i |
| AA1-15 | 2026-08-31 13:08:50 | 51.02555 | 5.43459 | 157° | 31km/h | 32122m | 8.5m/s | -38.9°C | 0% | 9hPa | 2.6V | 18:12:15 | 02:38:20 | 00:00:00 | i |
| DL1XH-west | 2026-08-31 13:08:49 | 51.02562 | 5.43454 | 162° | 31km/h | 32116m | 4.2m/s | -39°C | 0% | 9.1hPa | 2.6V | 18:12:15 | 02:38:19 | 00:00:00 | i |
| DL4BBY-15 | 2026-08-31 13:08:49 | 51.02562 | 5.43454 | 163° | 29km/h | 32116m | 4.2m/s | -38.7°C | 0% | 0hPa | 2.6V | 00:00:00 | 00:00:00 | 00:00:00 | i |
| GOEST3-10 | 2026-08-31 13:08:48 | 51.02568 | 5.43450 | 143° | 29km/h | 32112m | 4.9m/s | -38.9°C | 1.9% | 9.0hPa | 2.6V | 00:00:00 | 00:00:00 | 00:00:00 | |
| DJ2KF-10 | 2026-08-31 13:08:46 | 51.02564 | 5.43439 | 34° | 29km/h | 32096m | 10.1m/s | -38.8°C | 1.9% | 9.0hPa | 2.6V | 00:00:00 | 02:38:16 | 00:00:00 | |
| DM0DOS-11 | 2026-08-31 13:08:45 | 51.02538 | 5.43398 | 104° | 22km/h | 32070m | 9.3m/s | -38.9°C | 1.9% | 9.1hPa | 2.6V | 08:30:00 | 02:38:12 | 00:00:00 | i |
| BIOWL1-15 | 2026-08-31 13:08:42 | 51.02542 | 5.43391 | 154° | 29km/h | 32060m | 9.8m/s | -39°C | 0% | 9.1hPa | 2.6V | 18:12:15 | 02:38:11 | 00:00:00 | i |
| AA1-15 | 2026-08-31 13:08:39 | 51.02556 | 5.43385 | 166° | 20km/h | 32049m | 3.3m/s | -39.1°C | 0% | 9.2hPa | 2.5V | 18:12:15 | 02:38:09 | 00:00:00 | i |
| DL1XH-west | 2026-08-31 13:08:38 | 51.02559 | 5.43382 | 95° | 11km/h | 32044m | 6.9m/s | -39.2°C | 0% | 9.2hPa | 2.5V | 18:12:15 | 02:38:08 | 00:00:00 | i |
| DL1XH-15 | 2026-08-31 13:08:34 | 51.02533 | 5.43339 | 57° | 37km/h | 32013m | 4.8m/s | -38.9°C | 1.9% | 9.2hPa | 2.6V | 08:30:00 | 02:38:04 | 00:00:00 | i |
| BIOWL1-15 | 2026-08-31 13:08:30 | 51.02547 | 5.43323 | 196° | 26km/h | 31984m | 3.4m/s | -39.3°C | 0% | 9.2hPa | 2.6V | 18:12:15 | 02:38:00 | 00:00:00 | i |
| GOEST3-10 | 2026-08-31 13:08:30 | 51.02547 | 5.43323 | 197° | 16km/h | 31984m | 3.4m/s | -39.2°C | 1.9% | 9.2hPa | 2.5V | 00:00:00 | 02:38:00 | 00:00:00 | i |
| DL1XH-15 | 2026-08-31 13:08:29 | 51.02522 | 5.43278 | 70° | 27km/h | 31943m | 5.9m/s | -39°C | 1.9% | 9.3hPa | 2.5V | 08:30:00 | 02:37:54 | 00:00:00 | i |
| AA1-15 | 2026-08-31 13:08:29 | 51.02551 | 5.43325 | 191° | 5km/h | 31980m | 5.4m/s | -39.3°C | 0% | 9.3hPa | 2.6V | 18:12:15 | 02:37:59 | 00:00:00 | i |
| DL1XH-west | 2026-08-31 13:08:28 | 51.02550 | 5.43323 | 34° | 16km/h | 31972m | 9.4m/s | -39.3°C | 0% | 9.3hPa | 2.5V | 18:12:15 | 02:37:58 | 00:00:00 | i |
| DM0DOS-11 | 2026-08-31 13:08:27 | 51.02526 | 5.43268 | 189° | 24km/h | 31926m | 9.4m/s | -39.3°C | 1.9% | 9.3hPa | 2.6V | 08:30:00 | 02:37:52 | 00:00:00 | i |
| DL1XH-west | 2026-08-31 13:08:16 | 51.02517 | 5.43251 | 52° | 47km/h | 31885m | 4m/s | -39.5°C | 0% | 9.4hPa | 2.6V | 18:12:15 | 02:37:46 | 00:00:00 | i |
| DJ2KF-10 | 2026-08-31 13:08:16 | 51.02517 | 5.43251 | 52° | 24km/h | 31885m | 4.0m/s | -39.4°C | 2.0% | 9.3hPa | 2.6V | 00:00:00 | 02:37:46 | 00:00:00 | i |
| GOEST3-10 | 2026-08-31 13:08:15 | 51.02512 | 5.43238 | 63° | 22km/h | 31881m | 4.4m/s | -39.5°C | 1.9% | 9.4hPa | 2.6V | 00:00:00 | 00:00:00 | 00:00:00 | |
| DL1XH-15 | 2026-08-31 13:08:13 | 51.02517 | 5.43232 | 219° | 27km/h | 31856m | 6.5m/s | -39.9°C | 1.9% | 9.4hPa | 2.6V | 08:30:00 | 02:37:42 | 00:00:00 | i |
| BIOWL1-15 | 2026-08-31 13:08:12 | 51.02523 | 5.43241 | 192° | 0km/h | 31846m | 6.2m/s | -39.8°C | 0% | 9.4hPa | 2.6V | 18:12:15 | 02:37:40 | 00:00:00 | i |
| AA1-15 | 2026-08-31 13:08:05 | 51.02503 | 5.43190 | 91° | 18km/h | 31811m | 7.5m/s | -40.1°C | 0% | 9.5hPa | 2.5V | 18:12:15 | 02:37:35 | 00:00:00 | i |
| DL1XH-15 | 2026-08-31 13:08:04 | 51.02515 | 5.43197 | 220° | 26km/h | 31787m | 4.5m/s | -40.5°C | 2.1% | 9.5hPa | 2.6V | 08:30:00 | 02:37:32 | 00:00:00 | i |
| DL1XH-west | 2026-08-31 13:08:04 | 51.02505 | 5.43187 | 182° | 15km/h | 31802m | 10.4m/s | -40.2°C | 0% | 9.5hPa | 2.6V | 18:12:15 | 02:37:34 | 00:00:00 | i |
| BIOWL1-15 | 2026-08-31 13:07:57 | 51.02503 | 5.43157 | 194° | 11km/h | 31741m | 10m/s | -40.8°C | 0% | 9.6hPa | 2.6V | 18:12:15 | 02:37:25 | 00:00:00 | i |
| AA1-15 | 2026-08-31 13:07:54 | 51.02507 | 5.43162 | 222° | 31km/h | 31732m | 8.6m/s | -40.9°C | 0% | 9.6hPa | 2.5V | 18:12:15 | 02:37:24 | 00:00:00 | i |
| DL1XH-15 | 2026-08-31 13:07:53 | 51.02517 | 5.43178 | 228° | 16km/h | 31722m | 4m/s | -41.1°C | 2% | 9.6hPa | 2.6V | 08:30:00 | 02:37:22 | 00:00:00 | i |
| DL1XH-west | 2026-08-31 13:07:53 | 51.02513 | 5.43171 | 227° | 33km/h | 31726m | 3m/s | -41.1°C | 0% | 9.6hPa | 2.5V | 18:12:15 | 02:37:23 | 00:00:00 | i |
| AA1-15 | 2026-08-31 13:07:44 | 51.02507 | 5.43143 | 221° | 37km/h | 31662m | 6m/s | -41.3°C | 0% | 9.7hPa | 2.6V | 18:12:15 | 02:37:14 | 00:00:00 | i |
| DL1XH-west | 2026-08-31 13:07:43 | 51.02514 | 5.43150 | 209° | 26km/h | 31657m | 3.3m/s | -41.3°C | 0% | 9.7hPa | 2.6V | 18:12:15 | 02:37:13 | 00:00:00 | i |
| GOEST3-10 | 2026-08-31 13:07:43 | 51.02514 | 5.43150 | 209° | 29km/h | 31657m | 3.2m/s | -41.3°C | 2.1% | 9.7hPa | 2.6V | 00:00:00 | 02:37:13 | 00:00:00 | i |
| DL1XH-15 | 2026-08-31 13:07:38 | 51.02509 | 5.43100 | 64° | 35km/h | 31621m | 4.4m/s | -41.1°C | 2.1% | 9.8hPa | 2.6V | 08:30:00 | 02:37:08 | 00:00:00 | i |
| AA1-15 | 2026-08-31 13:07:33 | 51.02515 | 5.43104 | 174° | 15km/h | 31590m | 4.8m/s | -41.6°C | 0% | 9.8hPa | 2.5V | 18:12:15 | 02:37:03 | 00:00:00 | i |
| DL1XH-west | 2026-08-31 13:07:32 | 51.02518 | 5.43100 | 110° | 24km/h | 31583m | 8.8m/s | -41.7°C | 0% | 9.8hPa | 2.6V | 18:12:15 | 02:37:02 | 00:00:00 | i |
| DD1CC9-15 | 2026-08-31 13:07:31 | 51.02518 | 5.43100 | 111° | 24km/h | 31583m | 8.8m/s | -41.7°C | 0.5% | 9.8hPa | 2.5V | 00:00:00 | 00:00:00 | 00:00:00 | |
| DM0DOS-11 | 2026-08-31 13:07:30 | 51.02516 | 5.43047 | 81° | 46km/h | 31560m | 3.4m/s | -41.5°C | 2.2% | 9.8hPa | 2.5V | 08:30:00 | 02:36:59 | 00:00:00 | i |
| AA1-15 | 2026-08-31 13:07:23 | 51.02526 | 5.43033 | 101° | 15km/h | 31520m | 7.1m/s | -42.1°C | 0% | 9.9hPa | 2.5V | 18:12:15 | 02:36:53 | 00:00:00 | i |
| GOEST3-10 | 2026-08-31 13:07:23 | 51.02526 | 5.43033 | 101° | 27km/h | 31521m | 7.1m/s | -42.0°C | 2.2% | 9.8hPa | 2.6V | 00:00:00 | 02:36:53 | 00:00:00 | i |
| DM0DOS-11 | 2026-08-31 13:07:20 | 51.02521 | 5.42967 | 89° | 35km/h | 31493m | 5.3m/s | -41.8°C | 2.2% | 9.9hPa | 2.6V | 08:30:00 | 02:36:49 | 00:00:00 | i |
| DL1XH-west | 2026-08-31 13:07:20 | 51.02522 | 5.42985 | 82° | 51km/h | 31497m | 4.1m/s | -41.8°C | 0% | 9.9hPa | 2.6V | 18:12:15 | 02:36:50 | 00:00:00 | i |
| DO1YAY-16 | 2026-08-31 13:07:19 | 51.02522 | 5.42957 | 113° | 18km/h | 31486m | 8.4m/s | -41.9°C | 0.5% | 10.0hPa | 2.5V | 00:00:00 | 00:00:00 | 00:00:00 | |
| DJ2DS-15 | 2026-08-31 13:07:18 | 51.02522 | 5.42957 | 113° | 18km/h | 31486m | 8.4m/s | -41.9°C | 0.5% | 10.0hPa | 2.5V | 00:00:00 | 00:00:00 | 00:00:00 | |
| DL4BBY-15 | 2026-08-31 13:07:17 | 51.02525 | 5.42954 | 190° | 27km/h | 31477m | 9.3m/s | -41.6°C | 0% | 0hPa | 2.5V | 00:00:00 | 00:00:00 | 00:00:00 | |
| GOEST3-10 | 2026-08-31 13:07:16 | 51.02530 | 5.42957 | 211° | 22km/h | 31470m | 5.3m/s | -41.8°C | 2.2% | 9.9hPa | 2.5V | 00:00:00 | 00:00:00 | 00:00:00 | |
| DM0DOS-11 | 2026-08-31 13:07:15 | 51.02531 | 5.42893 | 83° | 11km/h | 31423m | 7.3m/s | -42°C | 2.3% | 10.1hPa | 2.5V | 08:30:00 | 02:36:39 | 00:00:00 | i |
| DJ2KF-10 | 2026-08-31 13:07:15 | 51.02535 | 5.42960 | 191° | 27km/h | 31465m | 3.8m/s | -41.8°C | 2.2% | 9.9hPa | 2.5V | 00:00:00 | 02:36:45 | 00:00:00 | i |
| DL1XH-15 | 2026-08-31 13:07:11 | 51.02532 | 5.42902 | 67° | 31km/h | 31429m | 4.9m/s | -41.9°C | 2.2% | 10hPa | 2.5V | 08:30:00 | 02:36:40 | 00:00:00 | i |
| AA1-15 | 2026-08-31 13:07:10 | 51.02532 | 5.42902 | 68° | 31km/h | 31429m | 4.9m/s | -41.9°C | 0% | 10hPa | 2.5V | 18:12:15 | 02:36:40 | 00:00:00 | i |
| DL1XH-west | 2026-08-31 13:07:09 | 51.02531 | 5.42893 | 84° | 11km/h | 31423m | 7.3m/s | -42°C | 0% | 10.1hPa | 2.5V | 18:12:15 | 02:36:39 | 00:00:00 | i |
| DD1CC1-15 | 2026-08-31 13:07:08 | 51.02531 | 5.42893 | 85° | 11km/h | 31424m | 7.3m/s | -42.0°C | 0.5% | 10.1hPa | 2.6V | 00:00:00 | 00:00:00 | 00:00:00 | |
| DD1CC8 | 2026-08-31 13:07:07 | 51.02537 | 5.42896 | 209° | 31km/h | 31407m | 6.8m/s | -42.1°C | 0.5% | 10.1hPa | 2.6V | 00:00:00 | 00:00:00 | 00:00:00 | |
| GOEST3-10 | 2026-08-31 13:07:06 | 51.02545 | 5.42901 | 198° | 24km/h | 31401m | 3.9m/s | -42.2°C | 2.3% | 10.0hPa | 2.6V | 00:00:00 | 00:00:00 | 00:00:00 | |
| DL1XH-15 | 2026-08-31 13:07:04 | 51.02541 | 5.42860 | 66° | 5km/h | 31364m | 7.1m/s | -42.3°C | 2.2% | 10.1hPa | 2.6V | 08:30:00 | 02:36:30 | 00:00:00 | i |
| DM0DOS-11 | 2026-08-31 13:07:04 | 51.02542 | 5.42860 | 203° | 18km/h | 31355m | 9.7m/s | -42.4°C | 2.2% | 10.1hPa | 2.5V | 08:30:00 | 02:36:29 | 00:00:00 | i |
| AA1-15 | 2026-08-31 13:06:59 | 51.02542 | 5.42860 | 203° | 18km/h | 31355m | 9.7m/s | -42.4°C | 0% | 10.1hPa | 2.5V | 18:12:15 | 02:36:29 | 00:00:00 | i |
| DL1XH-west | 2026-08-31 13:06:58 | 51.02549 | 5.42864 | 199° | 38km/h | 31346m | 8m/s | -42.4°C | 0% | 10.2hPa | 2.5V | 18:12:15 | 02:36:28 | 00:00:00 | i |
| GOEST3-10 | 2026-08-31 13:06:56 | 51.02566 | 5.42867 | 164° | 24km/h | 31337m | 4.6m/s | -42.5°C | 2.3% | 10.1hPa | 2.6V | 00:00:00 | 00:00:00 | 00:00:00 | |
| DL1XH-15 | 2026-08-31 13:06:53 | 51.02544 | 5.42851 | 239° | 13km/h | 31294m | 7.9m/s | -42.5°C | 2.3% | 10.2hPa | 2.5V | 08:30:00 | 02:36:20 | 00:00:00 | i |
| DM0DOS-11 | 2026-08-31 13:06:53 | 51.02557 | 5.42854 | 166° | 38km/h | 31279m | 5.6m/s | -42.7°C | 2.3% | 10.3hPa | 2.6V | 08:30:00 | 02:36:18 | 00:00:00 | i |
| AA1-15 | 2026-08-31 13:06:49 | 51.02548 | 5.42855 | 190° | 29km/h | 31285m | 8.1m/s | -42.6°C | 0% | 10.3hPa | 2.6V | 18:12:15 | 02:36:19 | 00:00:00 | i |
| DL1XH-west | 2026-08-31 13:06:48 | 51.02557 | 5.42854 | 166° | 40km/h | 31279m | 5.6m/s | -42.7°C | 0% | 10.3hPa | 2.6V | 18:12:15 | 02:36:18 | 00:00:00 | i |
| DO1YAY-16 | 2026-08-31 13:06:48 | 51.02565 | 5.42848 | 141° | 33km/h | 31273m | 5.1m/s | -42.7°C | 0.5% | 10.3hPa | 2.6V | 00:00:00 | 00:00:00 | 00:00:00 | i |
| DL4BBY-15 | 2026-08-31 13:06:47 | 51.02565 | 5.42848 | 142° | 29km/h | 31274m | 5.0m/s | -42.4°C | 0% | 0hPa | 2.6V | 00:00:00 | 00:00:00 | 00:00:00 | |
| DD1CC3-15 | 2026-08-31 13:06:46 | 51.02565 | 5.42848 | 143° | 35km/h | 31274m | 5.1m/s | 0°C | 0% | 0hPa | 2.6V | 00:00:00 | 00:00:00 | 00:00:00 | |
| DJ2KF-10 | 2026-08-31 13:06:45 | 51.02568 | 5.42828 | 56° | 29km/h | 31260m | 8.6m/s | -42.5°C | 2.3% | 10.3hPa | 2.6V | 00:00:00 | 02:36:15 | 00:00:00 | |
| GOEST3-10 | 2026-08-31 13:06:43 | 51.02553 | 5.42819 | 354° | 26km/h | 31247m | 4.0m/s | -42.5°C | 2.2% | 10.3hPa | 2.6V | 00:00:00 | 00:00:00 | 00:00:00 | |
| DJ2DS-15 | 2026-08-31 13:06:42 | 51.02548 | 5.42821 | 324° | 13km/h | 31242m | 5.5m/s | -42.5°C | 0.5% | 10.3hPa | 2.6V | 00:00:00 | 00:00:00 | 00:00:00 | |
| DM0DOS-11 | 2026-08-31 13:06:41 | 51.02570 | 5.42808 | 124° | 40km/h | 31212m | 6m/s | -42.7°C | 2.3% | 10.4hPa | 2.6V | 08:30:00 | 02:36:08 | 00:00:00 | i |
| AA1-15 | 2026-08-31 13:06:38 | 51.02570 | 5.42808 | 124° | 40km/h | 31212m | 6.1m/s | -42.7°C | 0% | 10.4hPa | 2.6V | 18:12:15 | 02:36:08 | 00:00:00 | i |
| DL1XH-west | 2026-08-31 13:06:37 | 51.02572 | 5.42794 | 91° | 33km/h | 31205m | 6.8m/s | -42.7°C | 0% | 10.4hPa | 2.6V | 18:12:15 | 02:36:07 | 00:00:00 | i |
| BIOWL1-15 | 2026-08-31 13:06:35 | 51.02551 | 5.42778 | 306° | 9km/h | 31183m | 4.7m/s | -42.5°C | 0% | 10.4hPa | 2.6V | 18:12:15 | 02:36:03 | 00:00:00 | i |
| GOEST3-10 | 2026-08-31 13:06:33 | 51.02551 | 5.42778 | 307° | 29km/h | 31183m | 4.7m/s | -42.5°C | 2.3% | 10.4hPa | 2.5V | 00:00:00 | 00:00:00 | 00:00:00 | |
| SONCRA | 2026-08-31 13:06:30 | 51.02567 | 5.42770 | 144° | 49km/h | 31158m | 6.7m/s | -42.7°C | 0.5% | 10.4hPa | 2.5V | 00:00:00 | 00:00:00 | 00:00:00 | |
| DM0DOS-11 | 2026-08-31 13:06:29 | 51.02579 | 5.42747 | 103° | 24km/h | 31148m | 6m/s | -42.7°C | 2.3% | 10.5hPa | 2.5V | 08:30:00 | 02:35:58 | 00:00:00 | i |
| AA1-15 | 2026-08-31 13:06:27 | 51.02579 | 5.42740 | 35° | 15km/h | 31140m | 8.5m/s | -42.6°C | 0% | 10.5hPa | 2.5V | 18:12:15 | 02:35:57 | 00:00:00 | |
| DL1XH-west | 2026-08-31 13:06:25 | 51.02569 | 5.42749 | 300° | 33km/h | 31125m | 4.5m/s | -42.6°C | 0% | 10.5hPa | 2.6V | 18:12:15 | 02:35:55 | 00:00:00 | i |
| DL1XH-15 | 2026-08-31 13:06:24 | 51.02568 | 5.42760 | 264° | 24km/h | 31121m | 3.7m/s | -42.5°C | 2.3% | 10.5hPa | 2.6V | 08:30:00 | 02:35:54 | 00:00:00 | i |
| BIOWL1-15 | 2026-08-31 13:06:23 | 51.02590 | 5.42709 | 68° | 13km/h | 31080m | 6.8m/s | -42.4°C | 0% | 10.6hPa | 2.6V | 18:12:15 | 02:35:48 | 00:00:00 | i |
| GOEST3-10 | 2026-08-31 13:06:23 | 51.02570 | 5.42766 | 200° | 38km/h | 31116m | 6.6m/s | -42.5°C | 2.3% | 10.5hPa | 2.5V | 00:00:00 | 00:00:00 | 08:30:00 | i |
| HTAHTA | 2026-08-31 13:06:22 | 51.02576 | 5.42764 | 151° | 31km/h | 31108m | 9.9m/s | -42.6°C | 0.5% | 10.6hPa | 2.5V | 00:00:00 | 00:00:00 | 00:00:00 | |
| DL8DAS-14 | 2026-08-31 13:06:21 | 51.02583 | 5.42753 | 126° | 49km/h | 31098m | 9.3m/s | -42.4°C | 0.5% | 10.6hPa | 2.5V | 00:00:00 | 00:00:00 | 00:00:00 | |
| BIOWL9-15 | 2026-08-31 13:06:20 | 51.02590 | 5.42709 | 67° | 13km/h | 31081m | 6.8m/s | -42.4°C | 0.5% | 10.6hPa | 2.5V | 00:00:00 | 00:00:00 | 00:00:00 | |
| DL1XH-15 | 2026-08-31 13:06:19 | 51.02594 | 5.42734 | 202° | 22km/h | 31052m | 4.8m/s | -42.4°C | 2.3% | 10.6hPa | 2.5V | 08:30:00 | 02:35:44 | 00:00:00 | i |
| DM0DOS-11 | 2026-08-31 13:06:19 | 51.02591 | 5.42709 | 67° | 13km/h | 31080m | 6.8m/s | -42.4°C | 2.3% | 10.6hPa | 2.6V | 08:30:00 | 02:35:48 | 00:00:00 | i |
| AA1-15 | 2026-08-31 13:06:16 | 51.02588 | 5.42716 | 268° | 27km/h | 31063m | 8m/s | -42.4°C | 0% | 10.6hPa | 2.5V | 18:12:15 | 02:35:46 | 00:00:00 | i |
| DL1XH-west | 2026-08-31 13:06:14 | 51.02594 | 5.42734 | 202° | 22km/h | 31052m | 4.8m/s | -42.4°C | 0% | 10.6hPa | 2.5V | 18:12:15 | 02:35:44 | 00:00:00 | i |
| BIOWL1-15 | 2026-08-31 13:06:10 | 51.02607 | 5.42683 | 87° | 15km/h | 31019m | 6m/s | -42.2°C | 0% | 10.7hPa | 2.5V | 18:12:15 | 02:35:39 | 00:00:00 | i |
| AA1-15 | 2026-08-31 13:06:06 | 51.02622 | 5.42706 | 202° | 29km/h | 30992m | 4.3m/s | -42.6°C | 0% | 10.7hPa | 2.5V | 18:12:15 | 02:35:35 | 00:00:00 | i |
| DL1XH-15 | 2026-08-31 13:06:05 | 51.02632 | 5.42659 | 88° | 18km/h | 30959m | 4.9m/s | -42.3°C | 2.4% | 10.8hPa | 2.6V | 08:30:00 | 02:35:30 | 00:00:00 | |
| DL1XH-west | 2026-08-31 13:06:04 | 51.02628 | 5.42706 | 160° | 24km/h | 30986m | 7.6m/s | -42.7°C | 0% | 10.7hPa | 2.5V | 18:12:15 | 02:35:34 | 00:00:00 | i |
| BIOWL1-15 | 2026-08-31 13:05:59 | 51.02633 | 5.42655 | 165° | 11km/h | 30952m | 8.1m/s | -42.4°C | 0% | 10.8hPa | 2.6V | 18:12:15 | 02:35:29 | 00:00:00 | i |
| AA1-15 | 2026-08-31 13:05:55 | 51.02662 | 5.42661 | 144° | 24km/h | 30926m | 6.5m/s | -42.3°C | 0% | 10.8hPa | 2.6V | 18:12:15 | 02:35:25 | 00:00:00 | i |
| DL1XH-15 | 2026-08-31 13:05:55 | 51.02652 | 5.42611 | 112° | 5km/h | 30890m | 7.5m/s | -42.3°C | 2.3% | 10.9hPa | 2.6V | 08:30:00 | 02:35:20 | 00:00:00 | i |
| MET0W-2 | 2026-08-31 13:05:54 | 51.02664 | 5.42652 | 96° | 27km/h | 30918m | 9.4m/s | -42.3°C | 0.5% | 10.8hPa | 2.6V | 00:00:00 | 00:00:00 | 00:00:00 | |
| DM0DOS-11 | 2026-08-31 13:05:53 | 51.02662 | 5.42611 | 180° | 37km/h | 30875m | 4.9m/s | -42.4°C | 2.3% | 10.9hPa | 2.6V | 08:30:00 | 02:35:18 | 00:00:00 | i |
| DL1XH-west | 2026-08-31 13:05:52 | 51.02658 | 5.42626 | 54° | 38km/h | 30902m | 5.2m/s | -42.2°C | 0% | 10.9hPa | 2.5V | 18:12:15 | 02:35:22 | 00:00:00 | i |
| HTAHTA | 2026-08-31 13:05:51 | 51.02653 | 5.42616 | 53° | 22km/h | 30897m | 5.4m/s | -42.2°C | 0.5% | 10.9hPa | 2.6V | 00:00:00 | 00:00:00 | 00:00:00 | |
| DL8DAS-14 | 2026-08-31 13:05:50 | 51.02652 | 5.42611 | 112° | 5km/h | 30890m | 7.5m/s | -42.3°C | 0.5% | 10.9hPa | 2.6V | 00:00:00 | 00:00:00 | 00:00:00 | |
| DL1XH-west | 2026-08-31 13:05:42 | 51.02667 | 5.42548 | 59° | 24km/h | 30838m | 5m/s | -42°C | 0% | 10.9hPa | 2.6V | 18:12:15 | 02:35:12 | 00:00:00 | i |
| DL1XH-15 | 2026-08-31 13:05:40 | 51.02688 | 5.42528 | 153° | 38km/h | 30809m | 3.7m/s | -42.3°C | 2.1% | 11hPa | 2.5V | 08:30:00 | 02:35:08 | 00:00:00 | i |
| DL1XH-west | 2026-08-31 13:05:31 | 51.02676 | 5.42458 | 121° | 31km/h | 30763m | 9m/s | -42.8°C | 0% | 11.1hPa | 2.6V | 18:12:15 | 02:35:01 | 00:00:00 | i |
| DL1XH-15 | 2026-08-31 13:05:31 | 51.02698 | 5.42426 | 129° | 29km/h | 30745m | 4.8m/s | -43.2°C | 2.4% | 11.1hPa | 2.5V | 08:30:00 | 02:34:58 | 00:00:00 | i |
| BIOWL1-15 | 2026-08-31 13:05:29 | 51.02698 | 5.42426 | 130° | 29km/h | 30745m | 4.8m/s | -43.2°C | 0% | 11.1hPa | 2.5V | 18:12:15 | 02:34:58 | 00:00:00 | i |
| GOEST3-10 | 2026-08-31 13:05:28 | 51.02698 | 5.42425 | 130° | 27km/h | 30745m | 4.7m/s | -43.2°C | 2.4% | 11.1hPa | 2.5V | 00:00:00 | 00:00:00 | 00:00:00 | |
| DD1CC9-15 | 2026-08-31 13:05:27 | 51.02698 | 5.42425 | 131° | 29km/h | 30745m | 4.8m/s | -43.2°C | 0.5% | 11.1hPa | 2.5V | 00:00:00 | 00:00:00 | 00:00:00 | |
| DD1CC1-15 | 2026-08-31 13:05:25 | 51.02698 | 5.42412 | 26° | 24km/h | 30730m | 10.0m/s | -43.4°C | 0.5% | 11.2hPa | 2.5V | 00:00:00 | 00:00:00 | 00:00:00 | |
| DM0DOS-11 | 2026-08-31 13:05:23 | 51.02703 | 5.42338 | 90° | 37km/h | 30678m | 7.2m/s | -43.8°C | 2.4% | 11.2hPa | 2.5V | 08:30:00 | 02:34:48 | 00:00:00 | i |
| DL1XH-west | 2026-08-31 13:05:21 | 51.02686 | 5.42386 | 133° | 46km/h | 30695m | 9.2m/s | -43.9°C | 0% | 11.2hPa | 2.6V | 18:12:15 | 02:34:51 | 00:00:00 | i |
| HTAHTA | 2026-08-31 13:05:20 | 51.02694 | 5.42371 | 128° | 55km/h | 30688m | 4.8m/s | -43.9°C | 0.5% | 11.2hPa | 2.5V | 00:00:00 | 00:00:00 | 00:00:00 | |
| DL8DAS-14 | 2026-08-31 13:05:19 | 51.02700 | 5.42354 | 113° | 46km/h | 30684m | 4.1m/s | -43.8°C | 0.5% | 11.2hPa | 2.5V | 00:00:00 | 00:00:00 | 00:00:00 | |
| GOEST3-10 | 2026-08-31 13:05:18 | 51.02703 | 5.42338 | 91° | 33km/h | 30678m | 7.2m/s | -43.8°C | 2.4% | 11.2hPa | 2.5V | 00:00:00 | 00:00:00 | 00:00:00 | |
| DL4BBY-15 | 2026-08-31 13:05:17 | 51.02700 | 5.42325 | 56° | 40km/h | 30669m | 9.5m/s | -43.5°C | 0% | 0hPa | 2.6V | 00:00:00 | 00:00:00 | 00:00:00 | |
| DO1YAY-16 | 2026-08-31 13:05:15 | 51.02682 | 5.42306 | 57° | 20km/h | 30650m | 5.2m/s | -43.9°C | 0.5% | 11.3hPa | 2.6V | 00:00:00 | 00:00:00 | 00:00:00 | |
| DM0DOS-11 | 2026-08-31 13:05:13 | 51.02690 | 5.42212 | 43° | 33km/h | 30608m | 9.4m/s | -43.8°C | 2.4% | 11.4hPa | 2.6V | 08:30:00 | 02:34:38 | 00:00:00 | i |
| DL1XH-west | 2026-08-31 13:05:10 | 51.02694 | 5.42242 | 101° | 51km/h | 30621m | 4.5m/s | -43.8°C | 0% | 11.3hPa | 2.5V | 18:12:15 | 02:34:40 | 00:00:00 | i |
| BIOWL1-15 | 2026-08-31 13:05:07 | 51.02666 | 5.42194 | 91° | 26km/h | 30581m | 8.6m/s | -43.7°C | 0% | 11.4hPa | 2.5V | 18:12:15 | 02:34:34 | 00:00:00 | i |
| GOEST3-10 | 2026-08-31 13:05:06 | 51.02674 | 5.42204 | 6° | 37km/h | 30593m | 4.1m/s | -43.6°C | 2.4% | 11.4hPa | 2.5V | 00:00:00 | 00:00:00 | 00:00:00 | |
| BUE01 | 2026-08-31 13:05:05 | 51.02642 | 5.42078 | 32° | 31km/h | 30524m | 4.4m/s | 0°C | -1.0% | -1.0hPa | 2.5V | 00:00:00 | 00:00:00 | 00:00:00 | |
| DM0DOS-11 | 2026-08-31 13:05:03 | 51.02661 | 5.42088 | 20° | 44km/h | 30536m | 9.8m/s | -43.7°C | 2.5% | 11.5hPa | 2.5V | 08:30:00 | 02:34:28 | 00:00:00 | i |
| DL1XH-west | 2026-08-31 13:05:00 | 51.02675 | 5.42114 | 76° | 49km/h | 30554m | 6.5m/s | -43.7°C | 0% | 11.4hPa | 2.5V | 18:12:15 | 02:34:30 | 00:00:00 | i |
| BIOWL1-15 | 2026-08-31 13:04:57 | 51.02642 | 5.42078 | 33° | 31km/h | 30524m | 4.4m/s | -43.7°C | 0% | 11.5hPa | 2.7V | 18:12:15 | 02:34:26 | 00:00:00 | i |
| SONCRA | 2026-08-31 13:04:57 | 51.02650 | 5.42083 | 10° | 40km/h | 30529m | 4.9m/s | -43.7°C | 0.5% | 11.5hPa | 2.5V | 00:00:00 | 00:00:00 | 00:00:00 | i |
| WPPR-10 | 2026-08-31 13:04:56 | 51.02642 | 5.42078 | 32° | 31km/h | 30524m | 4.4m/s | -43.7°C | 0.5% | 11.5hPa | 2.5V | 00:00:00 | 00:00:00 | 00:00:00 | |
| DJ2DS-15 | 2026-08-31 13:04:54 | 51.02636 | 5.42052 | 90° | 47km/h | 30509m | 10.0m/s | -43.9°C | 0.5% | 11.5hPa | 2.5V | 00:00:00 | 00:00:00 | 00:00:00 | |
| MET0W-2 | 2026-08-31 13:04:52 | 51.02638 | 5.42005 | 92° | 60km/h | 30495m | 4.0m/s | -43.7°C | 0.5% | 11.5hPa | 2.5V | 00:00:00 | 00:00:00 | 00:00:00 | |
| GOEST3-10 | 2026-08-31 13:04:51 | 51.02637 | 5.41983 | 78° | 37km/h | 30490m | 5.6m/s | -43.6°C | 2.4% | 11.5hPa | 2.5V | 00:00:00 | 02:34:21 | 00:00:00 | |
| DM0DOS-11 | 2026-08-31 13:04:50 | 51.02617 | 5.41960 | 353° | 37km/h | 30465m | 5.9m/s | -43.7°C | 2.4% | 11.6hPa | 2.5V | 08:30:00 | 02:34:18 | 00:00:00 | i |
| DL1XH-west | 2026-08-31 13:04:50 | 51.02633 | 5.41968 | 51° | 37km/h | 30482m | 9.1m/s | -43.7°C | 0% | 11.6hPa | 2.6V | 18:12:15 | 02:34:20 | 00:00:00 | i |
| HTAHTA | 2026-08-31 13:04:49 | 51.02617 | 5.41960 | 353° | 35km/h | 30465m | 5.9m/s | -43.7°C | 0.5% | 11.6hPa | 2.6V | 00:00:00 | 00:00:00 | 00:00:00 | |
| DL8DAS-14 | 2026-08-31 13:04:48 | 51.02617 | 5.41960 | 353° | 35km/h | 30465m | 5.9m/s | -43.7°C | 0.5% | 11.6hPa | 2.6V | 00:00:00 | 00:00:00 | 00:00:00 | |
| DL4BBY-15 | 2026-08-31 13:04:47 | 51.02609 | 5.41960 | 9° | 35km/h | 30461m | 3.8m/s | -43.4°C | 0% | 0hPa | 2.6V | 00:00:00 | 00:00:00 | 00:00:00 | |
| GOEST3-10 | 2026-08-31 13:04:46 | 51.02604 | 5.41956 | 57° | 40km/h | 30455m | 6.2m/s | -43.7°C | 2.4% | 11.6hPa | 2.6V | 00:00:00 | 00:00:00 | 08:30:00 | |
| DJ2KF-10 | 2026-08-31 13:04:45 | 51.02602 | 5.41944 | 87° | 35km/h | 30447m | 9.7m/s | -43.8°C | 2.5% | 11.6hPa | 2.6V | 00:00:00 | 02:34:15 | 00:00:00 | |
| DL1XH-15 | 2026-08-31 13:04:43 | 51.02579 | 5.41862 | 353° | 26km/h | 30396m | 5.4m/s | -43.7°C | 2.4% | 11.7hPa | 2.6V | 08:30:00 | 02:34:08 | 00:00:00 | i |
| BIOWL1-15 | 2026-08-31 13:04:43 | 51.02600 | 5.41867 | 55° | 33km/h | 30421m | 7.9m/s | -43.7°C | 0% | 11.7hPa | 2.5V | 18:12:15 | 02:34:11 | 00:00:00 | i |
| DL1XH-west | 2026-08-31 13:04:39 | 51.02586 | 5.41860 | 347° | 33km/h | 30403m | 7.3m/s | -43.8°C | 0% | 11.7hPa | 2.6V | 18:12:15 | 02:34:09 | 00:00:00 | i |
| GOEST3-10 | 2026-08-31 13:04:39 | 51.02586 | 5.41860 | 348° | 31km/h | 30403m | 7.3m/s | -43.7°C | 2.4% | 11.7hPa | 2.6V | 00:00:00 | 02:34:09 | 00:00:00 | i |
| DO3DL | 2026-08-31 13:04:35 | 51.02571 | 5.41851 | 79° | 31km/h | 30383m | 8.8m/s | -43.9°C | 0.5% | 11.8hPa | 2.6V | 00:00:00 | 00:00:00 | 00:00:00 | |
| GOEST3-10 | 2026-08-31 13:04:34 | 51.02569 | 5.41814 | 87° | 38km/h | 30367m | 5.0m/s | -43.8°C | 2.4% | 11.7hPa | 2.6V | 00:00:00 | 00:00:00 | 00:00:00 | |
| DM0DOS-11 | 2026-08-31 13:04:32 | 51.02535 | 5.41780 | 19° | 24km/h | 30329m | 5.7m/s | -43.9°C | 2.5% | 11.8hPa | 2.6V | 08:30:00 | 02:33:58 | 00:00:00 | i |
| BIOWL1-15 | 2026-08-31 13:04:31 | 51.02550 | 5.41776 | 341° | 35km/h | 30338m | 6.8m/s | -43.9°C | 0% | 11.9hPa | 2.5V | 18:12:15 | 02:34:00 | 00:00:00 | i |
| DL1XH-west | 2026-08-31 13:04:29 | 51.02542 | 5.41780 | 346° | 31km/h | 30333m | 3.5m/s | -43.9°C | 0% | 11.8hPa | 2.5V | 18:12:15 | 02:33:59 | 00:00:00 | i |
| DO3DL | 2026-08-31 13:04:28 | 51.02542 | 5.41780 | 347° | 31km/h | 30334m | 3.5m/s | -43.9°C | 0.5% | 11.8hPa | 2.6V | 00:00:00 | 00:00:00 | 00:00:00 | |
| SONCRA | 2026-08-31 13:04:26 | 51.02527 | 5.41758 | 79° | 46km/h | 30312m | 9.6m/s | -44.0°C | 0.5% | 11.9hPa | 2.6V | 00:00:00 | 00:00:00 | 00:00:00 | |
| DD1CC1-15 | 2026-08-31 13:04:25 | 51.02527 | 5.41758 | 80° | 47km/h | 30312m | 9.6m/s | 0°C | 0% | 11.9hPa | 2.6V | 00:00:00 | 00:00:00 | 00:00:00 | |
| GOEST3-10 | 2026-08-31 13:04:24 | 51.02523 | 5.41720 | 77° | 33km/h | 30300m | 4.4m/s | -43.8°C | 2.5% | 11.9hPa | 2.6V | 00:00:00 | 00:00:00 | 00:00:00 | |
| DO3DL | 2026-08-31 13:04:22 | 51.02520 | 5.41708 | 54° | 27km/h | 30294m | 6.8m/s | 0°C | 0% | 11.9hPa | 2.6V | 00:00:00 | 00:00:00 | 00:00:00 | |
| DM0DOS-11 | 2026-08-31 13:04:21 | 51.02489 | 5.41682 | 82° | 51km/h | 30243m | 4.6m/s | -44.1°C | 2.4% | 12hPa | 2.6V | 08:30:00 | 02:33:46 | 00:00:00 | i |
| BIOWL1-15 | 2026-08-31 13:04:20 | 51.02502 | 5.41712 | 326° | 29km/h | 30270m | 4.9m/s | -43.8°C | 0% | 12hPa | 2.5V | 18:12:15 | 02:33:50 | 00:00:00 | i |
| DL1XH-15 | 2026-08-31 13:04:20 | 51.02487 | 5.41664 | 72° | 42km/h | 30238m | 3.8m/s | -44°C | 2.4% | 12hPa | 2.6V | 08:30:00 | 02:33:45 | 00:00:00 | i |
| AA1-15 | 2026-08-31 13:04:18 | 51.02493 | 5.41712 | 59° | 22km/h | 30258m | 8.6m/s | -44°C | 0% | 12hPa | 2.5V | 18:12:15 | 02:33:48 | 00:00:00 | i |
| DL1XH-west | 2026-08-31 13:04:15 | 51.02487 | 5.41664 | 73° | 42km/h | 30238m | 3.8m/s | -44°C | 0% | 12hPa | 2.6V | 18:12:15 | 02:33:45 | 00:00:00 | i |
| DJ2KF-10 | 2026-08-31 13:04:14 | 51.02483 | 5.41652 | 51° | 29km/h | 30233m | 6.4m/s | -44.0°C | 2.5% | 12.0hPa | 2.6V | 00:00:00 | 02:33:44 | 00:00:00 | |
| DO1YAY-16 | 2026-08-31 13:04:12 | 51.02474 | 5.41652 | 314° | 29km/h | 30216m | 8.9m/s | -44.3°C | 0.6% | 12.1hPa | 2.6V | 00:00:00 | 00:00:00 | 00:00:00 | |
| DL1XH-15 | 2026-08-31 13:04:10 | 51.02450 | 5.41613 | 48° | 33km/h | 30171m | 6.3m/s | -44°C | 2.5% | 12.1hPa | 2.6V | 08:30:00 | 02:33:35 | 00:00:00 | i |
| DM0DOS-11 | 2026-08-31 13:04:10 | 51.02455 | 5.41625 | 65° | 44km/h | 30176m | 3.7m/s | -44.1°C | 2.5% | 12.1hPa | 2.6V | 08:30:00 | 02:33:36 | 00:00:00 | i |
| BIOWL1-15 | 2026-08-31 13:04:10 | 51.02463 | 5.41668 | 55° | 13km/h | 30197m | 7.7m/s | -44.4°C | 0% | 12.1hPa | 2.5V | 18:12:15 | 02:33:39 | 00:00:00 | i |
| AA1-15 | 2026-08-31 13:04:07 | 51.02459 | 5.41643 | 76° | 49km/h | 30180m | 5.7m/s | -44.3°C | 0% | 12.1hPa | 2.5V | 18:12:15 | 02:33:37 | 00:00:00 | i |
| DL1XH-west | 2026-08-31 13:04:05 | 51.02450 | 5.41613 | 48° | 33km/h | 30171m | 6.4m/s | -44.1°C | 0% | 12.1hPa | 2.6V | 18:12:15 | 02:33:35 | 00:00:00 | i |
| BUE01 | 2026-08-31 13:04:03 | 51.02438 | 5.41609 | 324° | 29km/h | 30154m | 8.9m/s | 0°C | -1.0% | -1.0hPa | 2.5V | 00:00:00 | 00:00:00 | 00:00:00 | |
| GOEST3-10 | 2026-08-31 13:04:02 | 51.02432 | 5.41617 | 315° | 24km/h | 30147m | 4.4m/s | -43.9°C | 2.6% | 12.1hPa | 2.5V | 00:00:00 | 00:00:00 | 00:00:00 | |
| DD1CC8 | 2026-08-31 13:04:01 | 51.02428 | 5.41623 | 339° | 18km/h | 30143m | 4.6m/s | -43.9°C | 0.5% | 12.2hPa | 2.5V | 00:00:00 | 00:00:00 | 00:00:00 | |
| DL1XH-15 | 2026-08-31 13:04:00 | 51.02400 | 5.41561 | 7° | 20km/h | 30102m | 9.3m/s | -43.8°C | 2.4% | 12.3hPa | 2.5V | 08:30:00 | 02:33:25 | 00:00:00 | i |
| DM0DOS-11 | 2026-08-31 13:03:59 | 51.02405 | 5.41566 | 49° | 29km/h | 30110m | 6m/s | -43.8°C | 2.4% | 12.2hPa | 2.5V | 08:30:00 | 02:33:26 | 00:00:00 | i |
| AA1-15 | 2026-08-31 13:03:56 | 51.02405 | 5.41566 | 50° | 29km/h | 30110m | 6m/s | -43.8°C | 0% | 12.2hPa | 2.5V | 18:12:15 | 02:33:26 | 00:00:00 | i |
| BIOWL1-15 | 2026-08-31 13:03:54 | 51.02395 | 5.41564 | 316° | 27km/h | 30093m | 9.5m/s | -43.8°C | 0% | 12.3hPa | 2.6V | 18:12:15 | 02:33:24 | 00:00:00 | i |
| GOEST3-10 | 2026-08-31 13:03:52 | 51.02387 | 5.41580 | 322° | 27km/h | 30081m | 4.6m/s | -43.6°C | 2.4% | 12.3hPa | 2.5V | 00:00:00 | 00:00:00 | 00:00:00 | i |
| DL1XH-west | 2026-08-31 13:03:52 | 51.02387 | 5.41580 | 322° | 18km/h | 30080m | 4.7m/s | -43.7°C | 0% | 12.3hPa | 2.6V | 18:12:15 | 02:33:22 | 00:00:00 | i |
| DL1XH-15 | 2026-08-31 13:03:50 | 51.02361 | 5.41518 | 333° | 26km/h | 30029m | 9.3m/s | -43.6°C | 2.4% | 12.4hPa | 2.5V | 08:30:00 | 02:33:15 | 00:00:00 | i |
| MET0W-2 | 2026-08-31 13:03:50 | 51.02380 | 5.41573 | 69° | 31km/h | 30065m | 10.1m/s | -43.8°C | 0.5% | 12.3hPa | 2.6V | 00:00:00 | 00:00:00 | 00:00:00 | i |
| DO3DL | 2026-08-31 13:03:49 | 51.02380 | 5.41573 | 70° | 33km/h | 30066m | 10.1m/s | 0°C | 0% | 0hPa | 2.6V | 00:00:00 | 00:00:00 | 00:00:00 | |
| DM0DOS-11 | 2026-08-31 13:03:48 | 51.02367 | 5.41517 | 22° | 20km/h | 30038m | 8.6m/s | -43.6°C | 2.4% | 12.4hPa | 2.6V | 08:30:00 | 02:33:16 | 00:00:00 | i |
| AA1-15 | 2026-08-31 13:03:45 | 51.02361 | 5.41518 | 333° | 26km/h | 30029m | 9.3m/s | -43.6°C | 0% | 12.4hPa | 2.5V | 18:12:15 | 02:33:15 | 00:00:00 | i |
| BIOWL1-15 | 2026-08-31 13:03:43 | 51.02349 | 5.41529 | 341° | 24km/h | 30016m | 5.2m/s | -43.6°C | 0% | 12.4hPa | 2.6V | 18:12:15 | 02:33:13 | 00:00:00 | i |
| DJ2DS-15 | 2026-08-31 13:03:42 | 51.02344 | 5.41529 | 28° | 20km/h | 30010m | 6.9m/s | -43.6°C | 0.5% | 12.4hPa | 2.5V | 00:00:00 | 00:00:00 | 00:00:00 | |
| DO1YAY-16 | 2026-08-31 13:03:41 | 51.02340 | 5.41521 | 67° | 31km/h | 30002m | 8.7m/s | -43.7°C | 0.5% | 12.5hPa | 2.5V | 00:00:00 | 00:00:00 | 00:00:00 | |
| GOEST3-10 | 2026-08-31 13:03:40 | 51.02338 | 5.41506 | 82° | 35km/h | 29995m | 6.6m/s | -43.7°C | 2.4% | 12.4hPa | 2.5V | 00:00:00 | 00:00:00 | 00:00:00 | |
| DL1XH-15 | 2026-08-31 13:03:37 | 51.02314 | 5.41470 | 337° | 40km/h | 29962m | 5.4m/s | -43.6°C | 2.3% | 12.5hPa | 2.6V | 08:30:00 | 02:33:05 | 00:00:00 | i |
| AA1-15 | 2026-08-31 13:03:34 | 51.02306 | 5.41474 | 349° | 33km/h | 29957m | 4.5m/s | -43.6°C | 0% | 12.5hPa | 2.5V | 18:12:15 | 02:33:04 | 00:00:00 | i |
| DM0DOS-11 | 2026-08-31 13:03:32 | 51.02263 | 5.41423 | 24° | 31km/h | 29893m | 5.9m/s | -44.9°C | 2.6% | 12.7hPa | 2.6V | 08:30:00 | 02:32:54 | 00:00:00 | i |
| DL1XH-15 | 2026-08-31 13:03:31 | 51.02271 | 5.41425 | 356° | 40km/h | 29898m | 3.2m/s | -44.8°C | 2.6% | 12.7hPa | 2.6V | 08:30:00 | 02:32:55 | 00:00:00 | i |
| DL1XH-west | 2026-08-31 13:03:24 | 51.02263 | 5.41423 | 24° | 31km/h | 29893m | 5.9m/s | -44.9°C | 0% | 12.7hPa | 2.6V | 18:12:15 | 02:32:54 | 00:00:00 | i |
| BIOWL1-15 | 2026-08-31 13:03:22 | 51.02263 | 5.41373 | 106° | 27km/h | 29864m | 3.3m/s | -45.4°C | 0% | 12.7hPa | 2.6V | 18:12:15 | 02:32:50 | 00:00:00 | i |
| GOEST3-10 | 2026-08-31 13:03:20 | 51.02263 | 5.41373 | 107° | 22km/h | 29864m | 3.2m/s | -45.3°C | 2.5% | 12.7hPa | 2.6V | 00:00:00 | 00:00:00 | 00:00:00 | |
| MET0W-2 | 2026-08-31 13:03:19 | 51.02263 | 5.41365 | 58° | 16km/h | 29859m | 5.8m/s | -45.4°C | 0.6% | 12.7hPa | 2.6V | 00:00:00 | 00:00:00 | 00:00:00 | |
| DM0DOS-11 | 2026-08-31 13:03:18 | 51.02218 | 5.41357 | 38° | 27km/h | 29824m | 7.2m/s | -45.4°C | 2.6% | 12.8hPa | 2.6V | 08:30:00 | 02:32:44 | 00:00:00 | i |
| DL1XH-15 | 2026-08-31 13:03:17 | 51.02225 | 5.41362 | 10° | 40km/h | 29831m | 5.4m/s | -45.3°C | 2.6% | 12.8hPa | 2.6V | 08:30:00 | 02:32:45 | 00:00:00 | i |
| DL1XH-west | 2026-08-31 13:03:14 | 51.02218 | 5.41357 | 39° | 27km/h | 29824m | 7.2m/s | -45.4°C | 0% | 12.8hPa | 2.6V | 18:12:15 | 02:32:44 | 00:00:00 | i |
| AA1-15 | 2026-08-31 13:03:13 | 51.02215 | 5.41349 | 87° | 26km/h | 29817m | 8.3m/s | -45.5°C | 0% | 12.8hPa | 2.6V | 18:12:15 | 02:32:43 | 00:00:00 | i |
| BIOWL1-15 | 2026-08-31 13:03:11 | 51.02219 | 5.41331 | 124° | 18km/h | 29806m | 3.2m/s | -45.6°C | 0% | 12.8hPa | 2.5V | 18:12:15 | 02:32:41 | 00:00:00 | i |
| DL1XH-15 | 2026-08-31 13:03:10 | 51.02175 | 5.41324 | 30° | 26km/h | 29768m | 7.2m/s | -45.4°C | 2.6% | 12.9hPa | 2.5V | 08:30:00 | 02:32:35 | 00:00:00 | i |
| GOEST3-10 | 2026-08-31 13:03:10 | 51.02220 | 5.41327 | 43° | 22km/h | 29802m | 5.5m/s | -45.7°C | 2.7% | 12.8hPa | 2.6V | 00:00:00 | 00:00:00 | 08:30:00 | i |
| DM0DOS-11 | 2026-08-31 13:03:08 | 51.02172 | 5.41319 | 90° | 15km/h | 29759m | 10.1m/s | -45.5°C | 2.5% | 12.9hPa | 2.6V | 08:30:00 | 02:32:34 | 00:00:00 | i |
| AA1-15 | 2026-08-31 13:03:03 | 51.02175 | 5.41313 | 145° | 24km/h | 29750m | 8.5m/s | -45.5°C | 0% | 12.9hPa | 2.6V | 18:12:15 | 02:32:33 | 00:00:00 | i |
| DL1XH-west | 2026-08-31 13:02:56 | 51.02136 | 5.41286 | 32° | 37km/h | 29709m | 5.4m/s | -45.7°C | 0% | 13hPa | 2.5V | 18:12:15 | 02:32:26 | 00:00:00 | i |
| DB0ND-19 | 2026-08-31 13:02:56 | 51.02132 | 5.41272 | 6° | 5km/h | 29682m | 4.6m/s | -46.0°C | 0.6% | 13.1hPa | 2.6V | 00:00:00 | 00:00:00 | 00:00:00 | i |
| DL1XH-15 | 2026-08-31 13:02:54 | 51.02132 | 5.41273 | 174° | 9km/h | 29687m | 4.6m/s | -45.9°C | 2.7% | 13.1hPa | 2.6V | 08:30:00 | 02:32:23 | 00:00:00 | i |
| AA1-15 | 2026-08-31 13:02:52 | 51.02132 | 5.41272 | 6° | 7km/h | 29682m | 4.6m/s | -46°C | 0% | 13.1hPa | 2.6V | 18:12:15 | 02:32:22 | 00:00:00 | i |
| GOEST3-10 | 2026-08-31 13:02:52 | 51.02132 | 5.41272 | 7° | 7km/h | 29683m | 4.6m/s | -45.9°C | 2.7% | 13.0hPa | 2.6V | 00:00:00 | 02:32:22 | 00:00:00 | i |
| DM0DOS-11 | 2026-08-31 13:02:48 | 51.02080 | 5.41230 | 217° | 16km/h | 29627m | 6.3m/s | -45.9°C | 2.7% | 13.2hPa | 2.5V | 08:30:00 | 02:32:14 | 00:00:00 | i |
| MET0W-2 | 2026-08-31 13:02:48 | 51.02093 | 5.41248 | 30° | 55km/h | 29656m | 3.9m/s | -45.7°C | 0.6% | 13.1hPa | 2.5V | 00:00:00 | 00:00:00 | 00:00:00 | i |
| HTAHTA | 2026-08-31 13:02:45 | 51.02080 | 5.41230 | 217° | 16km/h | 29627m | 6.3m/s | -45.9°C | 0.6% | 13.2hPa | 2.5V | 00:00:00 | 00:00:00 | 00:00:00 | |
| DL1XH-west | 2026-08-31 13:02:43 | 51.02082 | 5.41234 | 263° | 7km/h | 29621m | 4.3m/s | -45.9°C | 0% | 13.2hPa | 2.5V | 18:12:15 | 02:32:13 | 00:00:00 | i |
| DJ2KF-10 | 2026-08-31 13:02:43 | 51.02082 | 5.41234 | 263° | 26km/h | 29622m | 4.2m/s | -45.8°C | 2.7% | 13.2hPa | 2.5V | 00:00:00 | 02:32:13 | 00:00:00 | i |
| GOEST3-10 | 2026-08-31 13:02:42 | 51.02080 | 5.41235 | 10° | 18km/h | 29617m | 5.7m/s | -45.8°C | 2.7% | 13.2hPa | 2.5V | 00:00:00 | 02:32:12 | 00:00:00 | |
| DO1YAY-16 | 2026-08-31 13:02:39 | 51.02055 | 5.41210 | 38° | 49km/h | 29596m | 4.4m/s | -45.5°C | 0.6% | 13.3hPa | 2.5V | 00:00:00 | 00:00:00 | 00:00:00 | |
| DM0DOS-11 | 2026-08-31 13:02:38 | 51.02041 | 5.41205 | 283° | 15km/h | 29564m | 3.9m/s | -45.8°C | 2.6% | 13.3hPa | 2.5V | 08:30:00 | 02:32:04 | 00:00:00 | i |
| AA1-15 | 2026-08-31 13:02:38 | 51.02047 | 5.41199 | 42° | 35km/h | 29591m | 5.1m/s | -45.5°C | 0% | 13.3hPa | 2.5V | 18:12:15 | 02:32:08 | 00:00:00 | i |
| GOEST3-10 | 2026-08-31 13:02:35 | 51.02041 | 5.41198 | 261° | 20km/h | 29569m | 5.2m/s | -45.8°C | 2.6% | 13.3hPa | 2.6V | 00:00:00 | 00:00:00 | 00:00:00 | |
| DL1XH-15 | 2026-08-31 13:02:34 | 51.02015 | 5.41168 | 56° | 29km/h | 29534m | 4.5m/s | -45.7°C | 2.6% | 13.4hPa | 2.6V | 08:30:00 | 02:31:59 | 00:00:00 | i |
| DL1XH-west | 2026-08-31 13:02:33 | 51.02039 | 5.41208 | 355° | 15km/h | 29559m | 6.2m/s | -45.8°C | 0% | 13.3hPa | 2.5V | 18:12:15 | 02:32:03 | 00:00:00 | i |
| AA1-15 | 2026-08-31 13:02:27 | 51.02011 | 5.41163 | 272° | 16km/h | 29519m | 9.9m/s | -46°C | 0% | 13.4hPa | 2.5V | 18:12:15 | 02:31:57 | 00:00:00 | i |
| BIOWL1-15 | 2026-08-31 13:02:25 | 51.02008 | 5.41184 | 295° | 29km/h | 29505m | 4.8m/s | -46.1°C | 0% | 13.4hPa | 2.6V | 18:12:15 | 02:31:55 | 00:00:00 | |
| DL1XH-west | 2026-08-31 13:02:21 | 51.01981 | 5.41162 | 63° | 20km/h | 29475m | 5.1m/s | -46.1°C | 0% | 13.5hPa | 2.6V | 18:12:15 | 02:31:50 | 00:00:00 | i |
| AA1-15 | 2026-08-31 13:02:17 | 51.01978 | 5.41175 | 280° | 35km/h | 29453m | 5m/s | -46.4°C | 0% | 13.6hPa | 2.5V | 18:12:15 | 02:31:47 | 00:00:00 | i |
| BIOWL1-15 | 2026-08-31 13:02:17 | 51.01973 | 5.41191 | 346° | 18km/h | 29443m | 5.9m/s | -46.4°C | 0% | 13.6hPa | 2.6V | 18:12:15 | 02:31:45 | 00:00:00 | i |
| DL1XH-west | 2026-08-31 13:02:08 | 51.01957 | 5.41171 | 290° | 46km/h | 29394m | 6.1m/s | -46.7°C | 0% | 13.7hPa | 2.6V | 18:12:15 | 02:31:38 | 00:00:00 | i |
| AA1-15 | 2026-08-31 13:02:07 | 51.01952 | 5.41187 | 299° | 40km/h | 29390m | 2.5m/s | -46.6°C | 0% | 13.7hPa | 2.6V | 18:12:15 | 02:31:37 | 00:00:00 | i |
| DM0DOS-11 | 2026-08-31 13:02:03 | 51.01938 | 5.41169 | 82° | 20km/h | 29356m | 4.1m/s | -46.5°C | 2.7% | 13.7hPa | 2.6V | 08:30:00 | 02:31:32 | 00:00:00 | i |
| BIOWL1-15 | 2026-08-31 13:02:02 | 51.01937 | 5.41165 | 12° | 5km/h | 29351m | 5.7m/s | -46.6°C | 0% | 13.8hPa | 2.5V | 18:12:15 | 02:31:31 | 00:00:00 | i |
| DL1XH-west | 2026-08-31 13:01:58 | 51.01924 | 5.41192 | 311° | 44km/h | 29328m | 5.7m/s | -46.6°C | 0% | 13.8hPa | 2.6V | 18:12:15 | 02:31:28 | 00:00:00 | i |
| AA1-15 | 2026-08-31 13:01:56 | 51.01910 | 5.41205 | 1° | 24km/h | 29317m | 6.7m/s | -46.7°C | 0% | 13.8hPa | 2.6V | 18:12:15 | 02:31:26 | 00:00:00 | i |
| DB0ND-19 | 2026-08-31 13:01:54 | 51.01897 | 5.41178 | 23° | 15km/h | 29294m | 6.3m/s | -46.8°C | 0.6% | 13.9hPa | 2.6V | 00:00:00 | 00:00:00 | 00:00:00 | |
| DM0DOS-11 | 2026-08-31 13:01:53 | 51.01897 | 5.41178 | 23° | 16km/h | 29293m | 6.3m/s | -46.8°C | 2.8% | 13.9hPa | 2.6V | 08:30:00 | 02:31:22 | 00:00:00 | i |
| DL1XH-west | 2026-08-31 13:01:48 | 51.01866 | 5.41207 | 341° | 37km/h | 29267m | 4.4m/s | -46.9°C | 0% | 13.9hPa | 2.5V | 18:12:15 | 02:31:18 | 00:00:00 | i |
| AA1-15 | 2026-08-31 13:01:46 | 51.01851 | 5.41191 | 86° | 29km/h | 29246m | 5.6m/s | -47°C | 0% | 14hPa | 2.6V | 18:12:15 | 02:31:15 | 00:00:00 | i |
| DM0DOS-11 | 2026-08-31 13:01:43 | 51.01843 | 5.41180 | 331° | 29km/h | 29227m | 9m/s | -47.3°C | 2.8% | 14hPa | 2.6V | 08:30:00 | 02:31:12 | 00:00:00 | i |
| BIOWL1-15 | 2026-08-31 13:01:37 | 51.01806 | 5.41185 | 4° | 4km/h | 29173m | 6.4m/s | -47.4°C | 0% | 14.2hPa | 2.6V | 18:12:15 | 02:31:04 | 00:00:00 | i |
| DL1XH-west | 2026-08-31 13:01:37 | 51.01803 | 5.41204 | 71° | 20km/h | 29194m | 9.7m/s | -47.4°C | 0% | 14.1hPa | 2.5V | 18:12:15 | 02:31:07 | 00:00:00 | i |
| AA1-15 | 2026-08-31 13:01:35 | 51.01805 | 5.41188 | 116° | 16km/h | 29179m | 5.2m/s | -47.4°C | 0% | 14.1hPa | 2.6V | 18:12:15 | 02:31:05 | 00:00:00 | i |
| DL1XH-west | 2026-08-31 13:01:27 | 51.01770 | 5.41199 | 106° | 29km/h | 29126m | 6.6m/s | -47.4°C | 0% | 14.2hPa | 2.6V | 18:12:15 | 02:30:57 | 00:00:00 | i |
| AA1-15 | 2026-08-31 13:01:24 | 51.01770 | 5.41185 | 323° | 18km/h | 29108m | 8.5m/s | -47.4°C | 0% | 0hPa | 2.5V | 18:12:15 | 02:30:54 | 00:00:00 | |
| DM0DOS-11 | 2026-08-31 13:01:23 | 51.01759 | 5.41205 | 306° | 42km/h | 29093m | 4.3m/s | -47.4°C | 2.8% | 14.3hPa | 2.5V | 08:30:00 | 02:30:52 | 00:00:00 | i |
| BIOWL1-15 | 2026-08-31 13:01:20 | 51.01753 | 5.41226 | 155° | 11km/h | 29075m | 8.9m/s | -47.8°C | 0% | 14.4hPa | 2.6V | 18:12:15 | 02:30:49 | 00:00:00 | i |
| SONCRA | 2026-08-31 13:01:20 | 51.01752 | 5.41225 | 282° | 11km/h | 29083m | 7.6m/s | -47.7°C | 0.7% | 14.3hPa | 2.5V | 00:00:00 | 00:00:00 | 00:00:00 | i |
| DM0DOS-11 | 2026-08-31 13:01:18 | 51.01747 | 5.41253 | 279° | 33km/h | 29029m | 3.8m/s | -48.1°C | 2.9% | 14.4hPa | 2.5V | 08:30:00 | 02:30:42 | 00:00:00 | i |
| DL1XH-west | 2026-08-31 13:01:16 | 51.01760 | 5.41210 | 65° | 4km/h | 29058m | 5.9m/s | -47.8°C | 0% | 14.4hPa | 2.6V | 18:12:15 | 02:30:46 | 00:00:00 | i |
| AA1-15 | 2026-08-31 13:01:13 | 51.01750 | 5.41238 | 289° | 46km/h | 29033m | 5.3m/s | -48°C | 0% | 0hPa | 2.5V | 18:12:15 | 02:30:43 | 00:00:00 | i |
| BIOWL1-15 | 2026-08-31 13:01:03 | 51.01752 | 5.41285 | 247° | 38km/h | 28968m | 4.2m/s | -48.7°C | 0.1% | 14.6hPa | 2.6V | 18:12:15 | 02:30:33 | 00:00:00 | i |
| DM0DOS-11 | 2026-08-31 13:01:02 | 51.01759 | 5.41297 | 144° | 13km/h | 28955m | 8.9m/s | -48.9°C | 3.1% | 14.6hPa | 2.5V | 08:30:00 | 02:30:31 | 00:00:00 | i |
| DL1XH-west | 2026-08-31 13:01:02 | 51.01755 | 5.41295 | 224° | 22km/h | 28963m | 6.5m/s | -48.8°C | 0.1% | 14.6hPa | 2.5V | 18:12:15 | 02:30:32 | 00:00:00 | i |
| BIOWL1-15 | 2026-08-31 13:00:53 | 51.01760 | 5.41312 | 192° | 18km/h | 28903m | 5.2m/s | -48.8°C | 0.2% | 14.8hPa | 2.6V | 18:12:15 | 02:30:23 | 00:00:00 | i |
| DM0DOS-11 | 2026-08-31 13:00:52 | 51.01761 | 5.41303 | 52° | 29km/h | 28887m | 9.2m/s | -48.5°C | 3.2% | 14.8hPa | 2.5V | 08:30:00 | 02:30:21 | 00:00:00 | i |
| DL1XH-west | 2026-08-31 13:00:49 | 51.01747 | 5.41290 | 12° | 27km/h | 28875m | 3.7m/s | -48.4°C | 0% | 14.8hPa | 2.5V | 18:12:15 | 02:30:19 | 00:00:00 | i |
| WPPR-10 | 2026-08-31 13:00:48 | 51.01743 | 5.41290 | 323° | 11km/h | 28871m | 5.2m/s | -48.4°C | 0.7% | 14.8hPa | 2.5V | 00:00:00 | 00:00:00 | 00:00:00 | |
| DL4BBY-15 | 2026-08-31 13:00:47 | 51.01743 | 5.41294 | 233° | 24km/h | 28864m | 8.8m/s | -48.2°C | 0% | 0hPa | 2.5V | 00:00:00 | 00:00:00 | 00:00:00 | |
| MET0W-2 | 2026-08-31 13:00:44 | 51.01768 | 5.41301 | 112° | 9km/h | 28835m | 6.4m/s | -48.3°C | 0.7% | 14.9hPa | 2.5V | 00:00:00 | 00:00:00 | 00:00:00 | |
| DL1XH-15 | 2026-08-31 13:00:43 | 51.01751 | 5.41298 | 345° | 33km/h | 28813m | 5.4m/s | -48°C | 3.1% | 14.9hPa | 2.5V | 08:30:00 | 02:30:10 | 00:00:00 | i |
| DJ2KF-10 | 2026-08-31 13:00:43 | 51.01768 | 5.41301 | 113° | 24km/h | 28835m | 6.3m/s | -48.3°C | 3.1% | 14.8hPa | 2.6V | 00:00:00 | 02:30:13 | 00:00:00 | i |
| DM0DOS-11 | 2026-08-31 13:00:42 | 51.01759 | 5.41296 | 359° | 35km/h | 28819m | 7.2m/s | -48.1°C | 3.1% | 14.9hPa | 2.6V | 08:30:00 | 02:30:11 | 00:00:00 | i |
| DL1XH-west | 2026-08-31 13:00:39 | 51.01745 | 5.41302 | 323° | 18km/h | 28807m | 5.8m/s | -48°C | 0.1% | 14.9hPa | 2.5V | 18:12:15 | 02:30:09 | 00:00:00 | i |
| BIOWL9-15 | 2026-08-31 13:00:38 | 51.01744 | 5.41305 | 238° | 9km/h | 28800m | 8.1m/s | -48.1°C | 0.7% | 15.0hPa | 2.6V | 00:00:00 | 00:00:00 | 00:00:00 | |
| GOEST3-10 | 2026-08-31 13:00:36 | 51.01754 | 5.41304 | 155° | 24km/h | 28784m | 6.6m/s | -47.9°C | 3.1% | 15.0hPa | 2.6V | 00:00:00 | 02:30:06 | 08:30:00 | |
| DO1YAY-16 | 2026-08-31 13:00:35 | 51.01759 | 5.41297 | 132° | 24km/h | 28777m | 6.2m/s | -47.9°C | 0.7% | 15.0hPa | 2.6V | 00:00:00 | 00:00:00 | 00:00:00 | |
| DM0DOS-11 | 2026-08-31 13:00:32 | 51.01746 | 5.41289 | 330° | 27km/h | 28749m | 5.1m/s | -47.8°C | 2.9% | 15.1hPa | 2.6V | 08:30:00 | 02:30:01 | 00:00:00 | i |
| DL1XH-west | 2026-08-31 13:00:29 | 51.01742 | 5.41297 | 197° | 7km/h | 28736m | 7.9m/s | -47.9°C | 0% | 15.1hPa | 2.5V | 18:12:15 | 02:29:59 | 00:00:00 | i |
| BIOWL1-15 | 2026-08-31 13:00:25 | 51.01730 | 5.41282 | 121° | 29km/h | 28669m | 8.8m/s | -47.6°C | 0% | 15.3hPa | 2.5V | 18:12:15 | 02:29:49 | 00:00:00 | i |
| DD1CC8 | 2026-08-31 13:00:24 | 51.01739 | 5.41272 | 332° | 38km/h | 28695m | 7.5m/s | -47.6°C | 0.7% | 15.2hPa | 2.6V | 00:00:00 | 00:00:00 | 00:00:00 | |
| DM0DOS-11 | 2026-08-31 13:00:22 | 51.01727 | 5.41287 | 300° | 13km/h | 28684m | 5m/s | -47.5°C | 3% | 15.2hPa | 2.6V | 08:30:00 | 02:29:51 | 00:00:00 | i |
| DL1XH-west | 2026-08-31 13:00:19 | 51.01733 | 5.41270 | 104° | 38km/h | 28662m | 5.9m/s | -47.6°C | 0% | 15.3hPa | 2.5V | 18:12:15 | 02:29:48 | 00:00:00 | i |
| BIOWL1-15 | 2026-08-31 13:00:05 | 51.01671 | 5.41269 | 305° | 22km/h | 28560m | 5.3m/s | -47.4°C | 0% | 15.5hPa | 2.5V | 18:12:15 | 02:29:33 | 00:00:00 | i |
| DL1XH-west | 2026-08-31 13:00:05 | 51.01676 | 5.41259 | 307° | 38km/h | 28564m | 2.7m/s | -47.3°C | 0% | 15.5hPa | 2.6V | 18:12:15 | 02:29:34 | 00:00:00 | i |
| AA1-15 | 2026-08-31 12:59:55 | 51.01641 | 5.41261 | 290° | 37km/h | 28499m | 5.5m/s | 0°C | 0% | 0hPa | 2.6V | 18:12:15 | 02:29:25 | 00:00:00 | i |
| DL1XH-west | 2026-08-31 12:59:54 | 51.01638 | 5.41272 | 290° | 20km/h | 28494m | 5.7m/s | -47.3°C | 0% | 15.7hPa | 2.6V | 18:12:15 | 02:29:24 | 00:00:00 | i |
| GOEST3-10 | 2026-08-31 12:59:54 | 51.01638 | 5.41271 | 290° | 27km/h | 28494m | 5.7m/s | -47.3°C | 3.0% | 15.7hPa | 2.6V | 00:00:00 | 02:29:24 | 00:00:00 | i |
| DM0DOS-11 | 2026-08-31 12:59:53 | 51.01632 | 5.41259 | 66° | 38km/h | 28469m | 6.9m/s | -47.1°C | 2.9% | 15.8hPa | 2.6V | 08:30:00 | 02:29:21 | 00:00:00 | i |
| BIOWL1-15 | 2026-08-31 12:59:47 | 51.01620 | 5.41254 | 271° | 35km/h | 28439m | 8.7m/s | -47.3°C | 0% | 15.8hPa | 2.5V | 18:12:15 | 02:29:17 | 00:00:00 | i |
| AA1-15 | 2026-08-31 12:59:45 | 51.01621 | 5.41278 | 267° | 20km/h | 28427m | 5m/s | 0°C | 0% | 0hPa | 2.6V | 18:12:15 | 02:29:15 | 00:00:00 | i |
| GOEST3-10 | 2026-08-31 12:59:45 | 51.01621 | 5.41278 | 267° | 22km/h | 28427m | 4.9m/s | -47.2°C | 2.9% | 15.8hPa | 2.6V | 00:00:00 | 00:00:00 | 08:30:00 | i |
| DM0DOS-11 | 2026-08-31 12:59:43 | 51.01609 | 5.41262 | 47° | 24km/h | 28400m | 3.6m/s | -46.8°C | 2.9% | 15.9hPa | 2.5V | 08:30:00 | 02:29:11 | 00:00:00 | i |
| DJ2KF-10 | 2026-08-31 12:59:43 | 51.01618 | 5.41280 | 48° | 24km/h | 28413m | 9.0m/s | -47.0°C | 3.0% | 15.9hPa | 2.6V | 00:00:00 | 02:29:13 | 00:00:00 | i |
| DL1XH-15 | 2026-08-31 12:59:42 | 51.01606 | 5.41258 | 13° | 7km/h | 28395m | 6.3m/s | -46.9°C | 2.8% | 15.9hPa | 2.6V | 08:30:00 | 02:29:10 | 00:00:00 | i |
| DL1XH-west | 2026-08-31 12:59:36 | 51.01618 | 5.41297 | 235° | 26km/h | 28366m | 4.6m/s | -47°C | 0% | 16hPa | 2.5V | 18:12:15 | 02:29:06 | 00:00:00 | i |
| DO1YAY-16 | 2026-08-31 12:59:33 | 51.01614 | 5.41281 | 61° | 24km/h | 28336m | 4.2m/s | -46.8°C | 0.6% | 16.1hPa | 2.5V | 00:00:00 | 00:00:00 | 00:00:00 | i |
| DM0DOS-11 | 2026-08-31 12:59:33 | 51.01612 | 5.41275 | 66° | 7km/h | 28331m | 6.4m/s | -46.8°C | 2.8% | 16.1hPa | 2.5V | 08:30:00 | 02:29:01 | 00:00:00 | i |
| DL1XH-15 | 2026-08-31 12:59:32 | 51.01613 | 5.41276 | 230° | 13km/h | 28323m | 9m/s | -46.9°C | 2.8% | 16.1hPa | 2.5V | 08:30:00 | 02:29:00 | 00:00:00 | i |
| AA1-15 | 2026-08-31 12:59:31 | 51.01612 | 5.41275 | 67° | 7km/h | 28331m | 6.4m/s | 0°C | 0% | 0hPa | 2.5V | 18:12:15 | 02:29:01 | 00:00:00 | i |
| DJ2DS-15 | 2026-08-31 12:59:29 | 51.01616 | 5.41283 | 235° | 31km/h | 28314m | 7.9m/s | -47.0°C | 0.7% | 16.1hPa | 2.5V | 00:00:00 | 00:00:00 | 00:00:00 | |
| GOEST3-10 | 2026-08-31 12:59:27 | 51.01625 | 5.41302 | 230° | 22km/h | 28304m | 4.5m/s | -47.0°C | 2.8% | 16.1hPa | 2.5V | 00:00:00 | 02:28:57 | 00:00:00 | |
| DM0DOS-11 | 2026-08-31 12:59:23 | 51.01610 | 5.41272 | 296° | 11km/h | 28262m | 8.6m/s | -46.9°C | 2.9% | 16.3hPa | 2.5V | 08:30:00 | 02:28:51 | 00:00:00 | i |
| DL1XH-15 | 2026-08-31 12:59:22 | 51.01611 | 5.41292 | 256° | 33km/h | 28247m | 4.7m/s | -47.1°C | 2.9% | 16.3hPa | 2.6V | 08:30:00 | 02:28:49 | 00:00:00 | i |
| AA1-15 | 2026-08-31 12:59:18 | 51.01612 | 5.41302 | 265° | 20km/h | 28242m | 4.7m/s | 0°C | 0% | 0hPa | 2.6V | 18:12:15 | 02:28:48 | 00:00:00 | i |
| GOEST3-10 | 2026-08-31 12:59:18 | 51.01612 | 5.41302 | 266° | 20km/h | 28243m | 4.7m/s | -47.0°C | 2.8% | 16.3hPa | 2.5V | 00:00:00 | 00:00:00 | 00:00:00 | i |
| DL4BBY-15 | 2026-08-31 12:59:17 | 51.01612 | 5.41306 | 339° | 24km/h | 28237m | 6.9m/s | -46.8°C | 0% | 0hPa | 2.5V | 00:00:00 | 00:00:00 | 00:00:00 | |
| SONCRA | 2026-08-31 12:59:16 | 51.01605 | 5.41295 | 53° | 33km/h | 28221m | 6.6m/s | -46.9°C | 0.7% | 16.4hPa | 2.5V | 00:00:00 | 00:00:00 | 00:00:00 | |
| WPPR-10 | 2026-08-31 12:59:15 | 51.01600 | 5.41285 | 52° | 27km/h | 28215m | 4.8m/s | -46.9°C | 0.7% | 16.4hPa | 2.5V | 00:00:00 | 00:00:00 | 00:00:00 | |
| DM0DOS-11 | 2026-08-31 12:59:13 | 51.01595 | 5.41286 | 270° | 26km/h | 28195m | 6.8m/s | -47.1°C | 3% | 16.4hPa | 2.5V | 08:30:00 | 02:28:41 | 00:00:00 | i |
| DJ2KF-10 | 2026-08-31 12:59:13 | 51.01597 | 5.41279 | 40° | 22km/h | 28210m | 6.1m/s | -46.9°C | 2.8% | 16.3hPa | 2.5V | 00:00:00 | 02:28:43 | 00:00:00 | i |
| DL1XH-15 | 2026-08-31 12:59:12 | 51.01593 | 5.41307 | 298° | 18km/h | 28187m | 4.2m/s | -47.2°C | 3% | 16.4hPa | 2.5V | 08:30:00 | 02:28:39 | 00:00:00 | i |
| DL1XH-west | 2026-08-31 12:59:04 | 51.01579 | 5.41275 | 73° | 7km/h | 28152m | 6m/s | -46.9°C | 0% | 16.6hPa | 2.5V | 18:12:15 | 02:28:34 | 00:00:00 | i |
| DM0DOS-11 | 2026-08-31 12:59:03 | 51.01576 | 5.41303 | 285° | 40km/h | 28130m | 4.1m/s | -46.9°C | 2.9% | 16.6hPa | 2.5V | 08:30:00 | 02:28:31 | 00:00:00 | i |
| AA1-15 | 2026-08-31 12:59:00 | 51.01573 | 5.41315 | 302° | 27km/h | 28125m | 4.6m/s | 0°C | 0% | 0hPa | 2.5V | 18:12:15 | 02:28:30 | 00:00:00 | i |
| GOEST3-10 | 2026-08-31 12:59:00 | 51.01573 | 5.41315 | 302° | 24km/h | 28125m | 4.6m/s | -46.9°C | 2.9% | 16.5hPa | 2.6V | 00:00:00 | 02:28:30 | 00:00:00 | i |
| DL1XH-15 | 2026-08-31 12:58:57 | 51.01564 | 5.41323 | 281° | 38km/h | 28070m | 4.3m/s | -46.9°C | 2.9% | 16.7hPa | 2.6V | 08:30:00 | 02:28:22 | 00:00:00 | i |
| GOEST3-10 | 2026-08-31 12:58:55 | 51.01564 | 5.41292 | 150° | 18km/h | 28093m | 6.1m/s | -46.8°C | 2.8% | 16.7hPa | 2.6V | 00:00:00 | 00:00:00 | 00:00:00 | |
| DM0DOS-11 | 2026-08-31 12:58:53 | 51.01562 | 5.41334 | 289° | 24km/h | 28065m | 4.9m/s | -46.9°C | 2.9% | 16.7hPa | 2.6V | 08:30:00 | 02:28:21 | 00:00:00 | i |
| BIOWL1-15 | 2026-08-31 12:58:51 | 51.01562 | 5.41334 | 289° | 24km/h | 28065m | 4.9m/s | -46.9°C | 0% | 16.7hPa | 2.6V | 18:12:15 | 02:28:21 | 00:00:00 | i |
| DL1XH-west | 2026-08-31 12:58:47 | 51.01563 | 5.41315 | 112° | 24km/h | 28036m | 5m/s | -46.7°C | 0% | 16.8hPa | 2.6V | 18:12:15 | 02:28:17 | 00:00:00 | i |
| SONCRA | 2026-08-31 12:58:45 | 51.01566 | 5.41322 | 277° | 33km/h | 28015m | 6.7m/s | -47.0°C | 0.7% | 16.9hPa | 2.5V | 00:00:00 | 00:00:00 | 00:00:00 | |
| WPPR-10 | 2026-08-31 12:58:44 | 51.01564 | 5.41335 | 284° | 33km/h | 28011m | 2.6m/s | -46.9°C | 0.7% | 16.9hPa | 2.5V | 00:00:00 | 00:00:00 | 00:00:00 | |
| DM0DOS-11 | 2026-08-31 12:58:43 | 51.01561 | 5.41348 | 58° | 2km/h | 28001m | 8.3m/s | -47°C | 2.9% | 16.9hPa | 2.5V | 08:30:00 | 02:28:11 | 00:00:00 | i |
| AA1-15 | 2026-08-31 12:58:42 | 51.01562 | 5.41345 | 287° | 18km/h | 28007m | 4.2m/s | 0°C | 0% | 0hPa | 2.6V | 18:12:15 | 02:28:12 | 00:00:00 | i |
| DL1XH-west | 2026-08-31 12:58:29 | 51.01578 | 5.41315 | 93° | 29km/h | 27919m | 3m/s | -46.9°C | 0% | 17.2hPa | 2.5V | 18:12:15 | 02:27:59 | 00:00:00 | i |
| AA1-15 | 2026-08-31 12:58:28 | 51.01577 | 5.41307 | 67° | 13km/h | 27915m | 5.5m/s | 0°C | 0% | 0hPa | 2.6V | 18:12:15 | 02:27:58 | 00:00:00 | i |
| DL1XH-15 | 2026-08-31 12:58:27 | 51.01570 | 5.41328 | 289° | 38km/h | 27890m | 6.2m/s | -47°C | 2.8% | 17.2hPa | 2.6V | 08:30:00 | 02:27:55 | 00:00:00 | i |
| GOEST3-10 | 2026-08-31 12:58:24 | 51.01567 | 5.41339 | 294° | 20km/h | 27885m | 5.0m/s | -46.9°C | 2.8% | 17.2hPa | 2.6V | 00:00:00 | 02:27:54 | 00:00:00 | |
| DM0DOS-11 | 2026-08-31 12:58:23 | 51.01563 | 5.41333 | 81° | 29km/h | 27866m | 4.4m/s | -46.9°C | 2.8% | 17.3hPa | 2.6V | 08:30:00 | 02:27:51 | 00:00:00 | i |
| GOEST3-10 | 2026-08-31 12:58:19 | 51.01560 | 5.41318 | 47° | 20km/h | 27859m | 5.3m/s | -46.9°C | 2.9% | 17.3hPa | 2.5V | 00:00:00 | 00:00:00 | 00:00:00 | |
| DL1XH-15 | 2026-08-31 12:58:17 | 51.01553 | 5.41359 | 298° | 31km/h | 27830m | 4.9m/s | -47.1°C | 2.9% | 17.4hPa | 2.5V | 08:30:00 | 02:27:45 | 00:00:00 | i |
| BIOWL1-15 | 2026-08-31 12:58:15 | 51.01553 | 5.41359 | 299° | 31km/h | 27830m | 4.9m/s | -47.1°C | 0% | 17.4hPa | 2.5V | 18:12:15 | 02:27:45 | 00:00:00 | i |
| AA1-15 | 2026-08-31 12:58:14 | 51.01548 | 5.41366 | 342° | 22km/h | 27825m | 6.8m/s | 0°C | 0% | 0hPa | 2.5V | 18:12:15 | 02:27:44 | 00:00:00 | i |
| DM0DOS-11 | 2026-08-31 12:58:13 | 51.01528 | 5.41347 | 33° | 35km/h | 27805m | 3.4m/s | -46.9°C | 2.8% | 17.5hPa | 2.6V | 08:30:00 | 02:27:41 | 00:00:00 | i |
| DJ2KF-10 | 2026-08-31 12:58:13 | 51.01542 | 5.41364 | 28° | 29km/h | 27817m | 8.7m/s | -47.1°C | 2.9% | 17.3hPa | 2.6V | 00:00:00 | 02:27:43 | 00:00:00 | i |
| GOEST3-10 | 2026-08-31 12:58:11 | 51.01528 | 5.41347 | 34° | 29km/h | 27805m | 3.4m/s | -46.9°C | 2.8% | 17.4hPa | 2.6V | 00:00:00 | 02:27:41 | 00:00:00 | |
| MET0W-2 | 2026-08-31 12:58:08 | 51.01514 | 5.41355 | 282° | 35km/h | 27785m | 8.0m/s | -47.2°C | 0.7% | 17.5hPa | 2.6V | 00:00:00 | 00:00:00 | 00:00:00 | |
| GOEST3-10 | 2026-08-31 12:58:06 | 51.01512 | 5.41381 | 283° | 27km/h | 27774m | 4.4m/s | -47.1°C | 2.8% | 17.5hPa | 2.6V | 00:00:00 | 00:00:00 | 00:00:00 | |
| DL8DAS-14 | 2026-08-31 12:58:05 | 51.01497 | 5.41380 | 28° | 38km/h | 27754m | 5.3m/s | -47.2°C | 0.7% | 17.6hPa | 2.6V | 00:00:00 | 00:00:00 | 00:00:00 | |
| DL1XH-15 | 2026-08-31 12:58:02 | 51.01480 | 5.41373 | 352° | 29km/h | 27744m | 6.3m/s | -47.2°C | 3% | 17.6hPa | 2.6V | 08:30:00 | 02:27:31 | 00:00:00 | i |
| AA1-15 | 2026-08-31 12:58:00 | 51.01474 | 5.41378 | 313° | 29km/h | 27737m | 8.8m/s | 0°C | 0% | 0hPa | 2.5V | 18:12:15 | 02:27:30 | 00:00:00 | i |
| DO1YAY-16 | 2026-08-31 12:58:00 | 51.01474 | 5.41378 | 312° | 29km/h | 27737m | 8.8m/s | -47.4°C | 0.7% | 17.6hPa | 2.6V | 00:00:00 | 00:00:00 | 00:00:00 | i |
| GOEST3-10 | 2026-08-31 12:57:56 | 51.01465 | 5.41419 | 352° | 31km/h | 27711m | 7.3m/s | -47.4°C | 2.9% | 17.6hPa | 2.6V | 00:00:00 | 00:00:00 | 08:30:00 | |
| DL1XH-15 | 2026-08-31 12:57:52 | 51.01430 | 5.41408 | 314° | 33km/h | 27679m | 8.3m/s | -47.3°C | 2.9% | 17.8hPa | 2.6V | 08:30:00 | 02:27:21 | 00:00:00 | i |
| DL1XH-west | 2026-08-31 12:57:51 | 51.01430 | 5.41408 | 314° | 33km/h | 27679m | 8.3m/s | -47.3°C | 0% | 17.8hPa | 2.6V | 18:12:15 | 02:27:21 | 00:00:00 | i |
| BIOWL1-15 | 2026-08-31 12:57:50 | 51.01422 | 5.41434 | 287° | 33km/h | 27666m | 4.5m/s | -47.2°C | 0% | 17.9hPa | 2.5V | 18:12:15 | 02:27:19 | 00:00:00 | i |
| AA1-15 | 2026-08-31 12:57:48 | 51.01420 | 5.41443 | 303° | 18km/h | 27661m | 6.2m/s | 0°C | 0% | 0hPa | 2.6V | 18:12:15 | 02:27:18 | 00:00:00 | i |
| DB0ND-19 | 2026-08-31 12:57:45 | 51.01405 | 5.41424 | 32° | 22km/h | 27634m | 5.4m/s | -47.2°C | 0.7% | 17.9hPa | 2.6V | 00:00:00 | 00:00:00 | 00:00:00 | |
| GOEST3-10 | 2026-08-31 12:57:44 | 51.01405 | 5.41424 | 33° | 26km/h | 27634m | 5.3m/s | -47.2°C | 2.9% | 17.8hPa | 2.6V | 00:00:00 | 00:00:00 | 00:00:00 | |
| DM0DOS-11 | 2026-08-31 12:57:43 | 51.01392 | 5.41441 | 293° | 37km/h | 27613m | 6m/s | -47.4°C | 2.8% | 18hPa | 2.6V | 08:30:00 | 02:27:11 | 00:00:00 | i |
| DL1XH-west | 2026-08-31 12:57:40 | 51.01389 | 5.41452 | 301° | 31km/h | 27607m | 5.1m/s | -47.4°C | 0% | 18hPa | 2.6V | 18:12:15 | 02:27:10 | 00:00:00 | i |
| GOEST3-10 | 2026-08-31 12:57:39 | 51.01385 | 5.41460 | 326° | 22km/h | 27602m | 6.3m/s | -47.4°C | 2.8% | 17.9hPa | 2.5V | 00:00:00 | 02:27:09 | 00:00:00 | |
| DL1XH-15 | 2026-08-31 12:57:37 | 51.01358 | 5.41456 | 310° | 40km/h | 27561m | 7.5m/s | -47.4°C | 2.9% | 18.1hPa | 2.5V | 08:30:00 | 02:27:03 | 00:00:00 | i |
| AA1-15 | 2026-08-31 12:57:34 | 51.01364 | 5.41447 | 327° | 27km/h | 27569m | 7.8m/s | 0°C | 0% | 0hPa | 2.5V | 18:12:15 | 02:27:04 | 00:00:00 | i |
| DL8DAS-14 | 2026-08-31 12:57:34 | 51.01358 | 5.41456 | 310° | 38km/h | 27561m | 7.5m/s | -47.4°C | 0.7% | 18.1hPa | 2.6V | 00:00:00 | 00:00:00 | 00:00:00 | i |
| GOEST3-10 | 2026-08-31 12:57:33 | 51.01358 | 5.41456 | 311° | 31km/h | 27561m | 7.5m/s | -47.3°C | 2.9% | 18.1hPa | 2.6V | 00:00:00 | 00:00:00 | 00:00:00 | |
| DM0DOS-11 | 2026-08-31 12:57:32 | 51.01345 | 5.41480 | 318° | 35km/h | 27549m | 5.8m/s | -47.2°C | 2.9% | 18.1hPa | 2.6V | 08:30:00 | 02:27:01 | 00:00:00 | i |
| DO1YAY-16 | 2026-08-31 12:57:29 | 51.01333 | 5.41486 | 18° | 18km/h | 27536m | 6.1m/s | -47.3°C | 0.7% | 18.2hPa | 2.6V | 00:00:00 | 00:00:00 | 00:00:00 | |
| GOEST3-10 | 2026-08-31 12:57:28 | 51.01330 | 5.41484 | 24° | 15km/h | 27532m | 3.4m/s | -47.2°C | 2.9% | 18.1hPa | 2.6V | 00:00:00 | 02:26:58 | 00:00:00 | |
| DL1XH-15 | 2026-08-31 12:57:27 | 51.01300 | 5.41534 | 316° | 49km/h | 27502m | 3.8m/s | -47.8°C | 2.9% | 18.3hPa | 2.6V | 08:30:00 | 02:26:53 | 00:00:00 | i |
| DL1XH-west | 2026-08-31 12:57:26 | 51.01322 | 5.41489 | 311° | 27km/h | 27523m | 7.4m/s | -47.7°C | 0% | 18.2hPa | 2.5V | 18:12:15 | 02:26:56 | 00:00:00 | i |
| BIOWL1-15 | 2026-08-31 12:57:25 | 51.01301 | 5.41534 | 316° | 49km/h | 27502m | 3.8m/s | -47.8°C | 0% | 18.3hPa | 2.6V | 18:12:15 | 02:26:53 | 00:00:00 | |
| AA1-15 | 2026-08-31 12:57:23 | 51.01292 | 5.41544 | 332° | 37km/h | 27497m | 7.1m/s | 0°C | 0% | 0hPa | 2.5V | 18:12:15 | 02:26:52 | 00:00:00 | |
| GOEST3-10 | 2026-08-31 12:57:23 | 51.01301 | 5.41534 | 317° | 26km/h | 27502m | 3.8m/s | -47.7°C | 2.9% | 18.2hPa | 2.6V | 00:00:00 | 00:00:00 | 00:00:00 | |
| DM0DOS-11 | 2026-08-31 12:57:22 | 51.01285 | 5.41547 | 8° | 26km/h | 27488m | 10m/s | -48.1°C | 2.9% | 18.3hPa | 2.5V | 08:30:00 | 02:26:51 | 00:00:00 | i |
| DL4BBY-15 | 2026-08-31 12:57:17 | 51.01273 | 5.41538 | 303° | 33km/h | 27462m | 7.9m/s | -47.8°C | 0% | 0hPa | 2.5V | 00:00:00 | 00:00:00 | 00:00:00 | |
| DM0DOS-11 | 2026-08-31 12:57:16 | 51.01236 | 5.41603 | 42° | 9km/h | 27418m | 6.3m/s | -48.1°C | 3.1% | 18.5hPa | 2.5V | 08:30:00 | 02:26:41 | 00:00:00 | i |
| BIOWL1-15 | 2026-08-31 12:57:14 | 51.01252 | 5.41585 | 312° | 51km/h | 27438m | 5.6m/s | -48.1°C | 0% | 18.5hPa | 2.6V | 18:12:15 | 02:26:44 | 00:00:00 | i |
| DJ2KF-10 | 2026-08-31 12:57:13 | 51.01244 | 5.41597 | 322° | 29km/h | 27432m | 6.4m/s | -48.0°C | 3.0% | 18.4hPa | 2.6V | 00:00:00 | 02:26:43 | 00:00:00 | |
| SONCRA | 2026-08-31 12:57:12 | 51.01236 | 5.41603 | 42° | 7km/h | 27418m | 6.3m/s | -48.1°C | 0.7% | 18.5hPa | 2.5V | 00:00:00 | 00:00:00 | 00:00:00 | |
| DL1XH-15 | 2026-08-31 12:57:11 | 51.01234 | 5.41603 | 293° | 13km/h | 27409m | 4.9m/s | -48.3°C | 3% | 18.5hPa | 2.5V | 08:30:00 | 02:26:39 | 00:00:00 | i |
| AA1-15 | 2026-08-31 12:57:10 | 51.01235 | 5.41601 | 55° | 4km/h | 27413m | 3.4m/s | 0°C | 0% | 0hPa | 2.5V | 18:12:15 | 02:26:40 | 00:00:00 | i |
| GOEST3-10 | 2026-08-31 12:57:10 | 51.01234 | 5.41601 | 55° | 26km/h | 27413m | 3.4m/s | -48.1°C | 3.0% | 18.5hPa | 2.6V | 00:00:00 | 00:00:00 | 00:00:00 | i |
| DL8DAS-15 | 2026-08-31 12:57:06 | 51.01222 | 5.41645 | 300° | 58km/h | 27387m | 6.0m/s | -48.7°C | 0.8% | 18.6hPa | 2.6V | 00:00:00 | 00:00:00 | 00:00:00 | i |
| DM0DOS-11 | 2026-08-31 12:57:05 | 51.01188 | 5.41672 | 34° | 18km/h | 27356m | 2.3m/s | -48.4°C | 3.1% | 18.7hPa | 2.6V | 08:30:00 | 02:26:31 | 00:00:00 | i |
| DL1XH-west | 2026-08-31 12:57:05 | 51.01207 | 5.41676 | 326° | 37km/h | 27376m | 6.7m/s | -48.7°C | 0% | 18.6hPa | 2.5V | 18:12:15 | 02:26:34 | 00:00:00 | i |
| BIOWL1-15 | 2026-08-31 12:57:01 | 51.01188 | 5.41672 | 34° | 18km/h | 27356m | 2.3m/s | -48.4°C | 0% | 18.7hPa | 2.6V | 18:12:15 | 02:26:31 | 00:00:00 | i |
| AA1-15 | 2026-08-31 12:57:00 | 51.01185 | 5.41671 | 340° | 15km/h | 27353m | 4.1m/s | 0°C | 0% | 0hPa | 2.6V | 18:12:15 | 02:26:30 | 00:00:00 | i |
| DO1YAY-16 | 2026-08-31 12:56:58 | 51.01173 | 5.41714 | 285° | 64km/h | 27328m | 6.4m/s | -48.6°C | 0.8% | 18.8hPa | 2.6V | 00:00:00 | 00:00:00 | 00:00:00 | |
| GOEST3-10 | 2026-08-31 12:56:55 | 51.01165 | 5.41754 | 291° | 20km/h | 27319m | 5.2m/s | -48.6°C | 3.2% | 18.8hPa | 2.6V | 00:00:00 | 02:26:25 | 00:00:00 | |
| DM0DOS-11 | 2026-08-31 12:56:54 | 51.01155 | 5.41755 | 354° | 11km/h | 27289m | 4.9m/s | -48.3°C | 3.1% | 18.9hPa | 2.6V | 08:30:00 | 02:26:21 | 00:00:00 | i |
| AA1-15 | 2026-08-31 12:56:48 | 51.01146 | 5.41790 | 283° | 55km/h | 27267m | 6.6m/s | 0°C | 0% | 0hPa | 2.6V | 18:12:15 | 02:26:18 | 00:00:00 | i |
| DL1XH-west | 2026-08-31 12:56:47 | 51.01143 | 5.41809 | 283° | 46km/h | 27261m | 4.5m/s | -48.4°C | 0% | 19hPa | 2.5V | 18:12:15 | 02:26:17 | 00:00:00 | i |
| DD1CC8 | 2026-08-31 12:56:46 | 51.01141 | 5.41824 | 285° | 29km/h | 27256m | 7.0m/s | -48.4°C | 0.7% | 19.0hPa | 2.5V | 00:00:00 | 00:00:00 | 00:00:00 | |
| GOEST3-10 | 2026-08-31 12:56:45 | 51.01139 | 5.41831 | 309° | 15km/h | 27248m | 8.7m/s | -48.4°C | 3.0% | 19.0hPa | 2.5V | 00:00:00 | 02:26:15 | 00:00:00 | |
| DM0DOS-11 | 2026-08-31 12:56:44 | 51.01133 | 5.41833 | 284° | 27km/h | 27222m | 8.8m/s | -48.3°C | 3.2% | 19.1hPa | 2.5V | 08:30:00 | 02:26:11 | 00:00:00 | i |
| DL1XH-west | 2026-08-31 12:56:37 | 51.01124 | 5.41903 | 284° | 26km/h | 27195m | 7m/s | -48.2°C | 0% | 19.2hPa | 2.6V | 18:12:15 | 02:26:07 | 00:00:00 | i |
| MET0W-2 | 2026-08-31 12:56:35 | 51.01124 | 5.41908 | 122° | 13km/h | 27178m | 8.7m/s | -48.2°C | 0.7% | 19.2hPa | 2.5V | 00:00:00 | 00:00:00 | 00:00:00 | |
| DL1XH-15 | 2026-08-31 12:56:33 | 51.01125 | 5.41935 | 293° | 46km/h | 27146m | 5.5m/s | -48.2°C | 3% | 19.3hPa | 2.5V | 08:30:00 | 02:26:00 | 00:00:00 | |
| DL1XH-west | 2026-08-31 12:56:26 | 51.01115 | 5.41959 | 126° | 15km/h | 27118m | 7.9m/s | -48.2°C | 0.1% | 19.4hPa | 2.6V | 18:12:15 | 02:25:56 | 00:00:00 | i |
| BIOWL1-15 | 2026-08-31 12:56:25 | 51.01117 | 5.41988 | 300° | 37km/h | 27086m | 4m/s | -48°C | 0% | 19.5hPa | 2.6V | 18:12:15 | 02:25:51 | 00:00:00 | |
| AA1-15 | 2026-08-31 12:56:23 | 51.01122 | 5.41963 | 268° | 24km/h | 27099m | 7.5m/s | 0°C | 0% | 0hPa | 2.5V | 18:12:15 | 02:25:53 | 00:00:00 | i |
| DM0DOS-11 | 2026-08-31 12:56:22 | 51.01117 | 5.41988 | 300° | 37km/h | 27086m | 4m/s | -48°C | 3% | 19.5hPa | 2.6V | 08:30:00 | 02:25:51 | 00:00:00 | |
| BIOWL1-15 | 2026-08-31 12:56:15 | 51.01119 | 5.41990 | 234° | 15km/h | 27048m | 7.6m/s | -48°C | 0% | 19.6hPa | 2.6V | 18:12:15 | 02:25:45 | 00:00:00 | i |
| DJ2KF-10 | 2026-08-31 12:56:13 | 51.01119 | 5.42013 | 284° | 22km/h | 27032m | 5.6m/s | -47.9°C | 3.0% | 19.6hPa | 2.5V | 00:00:00 | 02:25:43 | 00:00:00 | |
| DM0DOS-11 | 2026-08-31 12:56:12 | 51.01115 | 5.42038 | 277° | 16km/h | 27023m | 6.5m/s | -47.9°C | 3% | 19.6hPa | 2.5V | 08:30:00 | 02:25:41 | 00:00:00 | i |
| DL1XH-west | 2026-08-31 12:56:04 | 51.01130 | 5.42031 | 287° | 42km/h | 26970m | 6.8m/s | -48.1°C | 0.1% | 19.8hPa | 2.6V | 18:12:15 | 02:25:34 | 00:00:00 | i |
| AA1-15 | 2026-08-31 12:56:02 | 51.01124 | 5.42058 | 291° | 22km/h | 26960m | 4.6m/s | 0°C | 0% | 0hPa | 2.6V | 18:12:15 | 02:25:32 | 00:00:00 | i |
| HTAHTA | 2026-08-31 12:56:02 | 51.01125 | 5.42058 | 117° | 20km/h | 26945m | 10.4m/s | -48.2°C | 0.7% | 19.9hPa | 2.6V | 00:00:00 | 00:00:00 | 00:00:00 | i |
| BIOWL9-15 | 2026-08-31 12:55:59 | 51.01129 | 5.42062 | 289° | 22km/h | 26896m | 5.5m/s | -48.0°C | 0.7% | 20.1hPa | 2.6V | 00:00:00 | 00:00:00 | 00:00:00 | |
| DL1XH-15 | 2026-08-31 12:55:58 | 51.01135 | 5.42031 | 133° | 11km/h | 26925m | 5.9m/s | -48.1°C | 3% | 19.9hPa | 2.6V | 08:30:00 | 02:25:27 | 00:00:00 | i |
| DL1XH-west | 2026-08-31 12:55:53 | 51.01129 | 5.42062 | 290° | 24km/h | 26896m | 5.5m/s | -48°C | 0.1% | 20.1hPa | 2.6V | 18:12:15 | 02:25:23 | 00:00:00 | i |
| AA1-15 | 2026-08-31 12:55:52 | 51.01128 | 5.42068 | 265° | 5km/h | 26889m | 6.8m/s | 0°C | 0% | 0hPa | 2.6V | 18:12:15 | 02:25:22 | 00:00:00 | i |
| DM0DOS-11 | 2026-08-31 12:55:51 | 51.01135 | 5.42053 | 132° | 20km/h | 26869m | 5.2m/s | -47.9°C | 3% | 20.1hPa | 2.5V | 08:30:00 | 02:25:19 | 00:00:00 | i |
| DD1CC8 | 2026-08-31 12:55:44 | 51.01142 | 5.42080 | 237° | 13km/h | 26837m | 6.7m/s | -48.0°C | 0.7% | 20.2hPa | 2.6V | 00:00:00 | 00:00:00 | 00:00:00 | |
| DL1XH-15 | 2026-08-31 12:55:43 | 51.01154 | 5.42058 | 117° | 16km/h | 26810m | 5.6m/s | -47.8°C | 3% | 20.3hPa | 2.6V | 08:30:00 | 02:25:10 | 00:00:00 | i |
| DL1XH-west | 2026-08-31 12:55:43 | 51.01145 | 5.42082 | 154° | 13km/h | 26829m | 8.7m/s | -48.1°C | 0.1% | 20.3hPa | 2.5V | 18:12:15 | 02:25:13 | 00:00:00 | i |
| DJ2KF-10 | 2026-08-31 12:55:43 | 51.01145 | 5.42082 | 154° | 20km/h | 26830m | 8.7m/s | -48.0°C | 3.1% | 20.2hPa | 2.5V | 00:00:00 | 02:25:13 | 00:00:00 | i |
| DM0DOS-11 | 2026-08-31 12:55:41 | 51.01155 | 5.42055 | 205° | 4km/h | 26803m | 8.2m/s | -47.9°C | 3% | 20.3hPa | 2.5V | 08:30:00 | 02:25:09 | 00:00:00 | i |
| AA1-15 | 2026-08-31 12:55:40 | 51.01154 | 5.42058 | 117° | 16km/h | 26810m | 5.6m/s | 0°C | 0% | 0hPa | 2.6V | 18:12:15 | 02:25:10 | 00:00:00 | i |
| BIOWL1-15 | 2026-08-31 12:55:33 | 51.01165 | 5.42064 | 270° | 26km/h | 26729m | 4.3m/s | -47.4°C | 0% | 20.6hPa | 2.6V | 18:12:15 | 02:24:58 | 00:00:00 | i |
| DL1XH-west | 2026-08-31 12:55:32 | 51.01167 | 5.42056 | 101° | 27km/h | 26757m | 3.5m/s | -47.5°C | 0% | 20.5hPa | 2.5V | 18:12:15 | 02:25:02 | 00:00:00 | i |
| GOEST3-10 | 2026-08-31 12:55:32 | 51.01167 | 5.42056 | 102° | 22km/h | 26757m | 3.5m/s | -47.4°C | 3.0% | 20.5hPa | 2.6V | 00:00:00 | 00:00:00 | 00:00:00 | i |
| DM0DOS-11 | 2026-08-31 12:55:31 | 51.01166 | 5.42054 | 280° | 26km/h | 26736m | 7.9m/s | -47.5°C | 3% | 20.6hPa | 2.6V | 08:30:00 | 02:24:59 | 00:00:00 | i |
| DL1XH-15 | 2026-08-31 12:55:31 | 51.01166 | 5.42072 | 249° | 15km/h | 26725m | 5.7m/s | -47.4°C | 2.9% | 20.6hPa | 2.5V | 08:30:00 | 02:24:57 | 00:00:00 | i |
| BIOWL1-15 | 2026-08-31 12:55:22 | 51.01171 | 5.42058 | 266° | 5km/h | 26662m | 7m/s | -47.3°C | 0% | 20.8hPa | 2.5V | 18:12:15 | 02:24:48 | 00:00:00 | i |
| DM0DOS-11 | 2026-08-31 12:55:21 | 51.01171 | 5.42053 | 278° | 20km/h | 26669m | 6m/s | -47.3°C | 2.8% | 20.8hPa | 2.6V | 08:30:00 | 02:24:49 | 00:00:00 | i |
| AA1-15 | 2026-08-31 12:55:21 | 51.01174 | 5.42038 | 298° | 11km/h | 26683m | 8.7m/s | 0°C | 0% | 0hPa | 2.6V | 18:12:15 | 02:24:51 | 00:00:00 | i |
| GOEST3-10 | 2026-08-31 12:55:20 | 51.01173 | 5.42045 | 283° | 16km/h | 26676m | 6.9m/s | -47.3°C | 2.8% | 20.7hPa | 2.6V | 00:00:00 | 00:00:00 | 00:00:00 | |
| DL1XH-15 | 2026-08-31 12:55:18 | 51.01174 | 5.42031 | 97° | 15km/h | 26635m | 5.9m/s | -47.5°C | 3% | 20.9hPa | 2.7V | 08:30:00 | 02:24:44 | 00:00:00 | i |
| AA1-15 | 2026-08-31 12:55:10 | 51.01175 | 5.42044 | 270° | 9km/h | 26610m | 5m/s | 0°C | 0% | 0hPa | 2.6V | 18:12:15 | 02:24:40 | 00:00:00 | i |
| BIOWL1-15 | 2026-08-31 12:55:06 | 51.01164 | 5.42010 | 305° | 16km/h | 26570m | 9.5m/s | -48.2°C | 0% | 21.1hPa | 2.6V | 18:12:15 | 02:24:34 | 00:00:00 | i |
| DL1XH-15 | 2026-08-31 12:55:05 | 51.01163 | 5.42018 | 274° | 27km/h | 26561m | 7.2m/s | -48.2°C | 3% | 21.1hPa | 2.5V | 08:30:00 | 02:24:33 | 00:00:00 | i |
| DL1XH-west | 2026-08-31 12:55:00 | 51.01163 | 5.42030 | 76° | 16km/h | 26541m | 8.4m/s | -48.5°C | 0% | 21.2hPa | 2.6V | 18:12:15 | 02:24:30 | 00:00:00 | i |
| DL8DAS-14 | 2026-08-31 12:54:59 | 51.01151 | 5.41998 | 40° | 24km/h | 26523m | 4.9m/s | -48.3°C | 0.8% | 21.2hPa | 2.6V | 00:00:00 | 00:00:00 | 00:00:00 | |
| DL1XH-15 | 2026-08-31 12:54:58 | 51.01151 | 5.42021 | 244° | 26km/h | 26493m | 5.4m/s | -48.3°C | 3% | 21.3hPa | 2.6V | 08:30:00 | 02:24:23 | 00:00:00 | i |
| AA1-15 | 2026-08-31 12:54:56 | 51.01148 | 5.41995 | 348° | 11km/h | 26516m | 7.8m/s | 0°C | 0% | 0hPa | 2.5V | 18:12:15 | 02:24:26 | 00:00:00 | i |
| BIOWL1-15 | 2026-08-31 12:54:54 | 51.01151 | 5.42021 | 244° | 26km/h | 26493m | 5.4m/s | -48.3°C | 0% | 21.3hPa | 2.6V | 18:12:15 | 02:24:23 | 00:00:00 | i |
| DM0DOS-11 | 2026-08-31 12:54:51 | 51.01135 | 5.42013 | 5° | 20km/h | 26462m | 5.3m/s | -48.3°C | 2.9% | 21.4hPa | 2.6V | 08:30:00 | 02:24:18 | 00:00:00 | i |
| DL1XH-west | 2026-08-31 12:54:49 | 51.01141 | 5.42016 | 29° | 31km/h | 26467m | 4m/s | -48.2°C | 0% | 21.4hPa | 2.6V | 18:12:15 | 02:24:19 | 00:00:00 | i |
| GOEST3-10 | 2026-08-31 12:54:48 | 51.01135 | 5.42013 | 6° | 26km/h | 26463m | 5.3m/s | -48.2°C | 2.9% | 21.4hPa | 2.6V | 00:00:00 | 00:00:00 | 00:00:00 | |
| DL4BBY-15 | 2026-08-31 12:54:47 | 51.01132 | 5.42015 | 302° | 20km/h | 26456m | 8.4m/s | -48.2°C | 0% | 0hPa | 2.5V | 00:00:00 | 00:00:00 | 00:00:00 | |
| DL1XH-15 | 2026-08-31 12:54:44 | 51.01125 | 5.42043 | 336° | 22km/h | 26401m | 6.2m/s | -49°C | 3.2% | 21.6hPa | 2.5V | 08:30:00 | 02:24:09 | 00:00:00 | i |
| AA1-15 | 2026-08-31 12:54:43 | 51.01142 | 5.42051 | 239° | 9km/h | 26429m | 6.9m/s | 0°C | 0% | 0hPa | 2.6V | 18:12:15 | 02:24:13 | 00:00:00 | i |
| BIOWL1-15 | 2026-08-31 12:54:42 | 51.01122 | 5.42077 | 261° | 38km/h | 26381m | 4.9m/s | -49.4°C | 0.2% | 21.7hPa | 2.6V | 18:12:15 | 02:24:06 | 00:00:00 | i |
| DD1CC8 | 2026-08-31 12:54:42 | 51.01141 | 5.42051 | 35° | 11km/h | 26421m | 8.7m/s | -49.0°C | 0.8% | 21.6hPa | 2.5V | 00:00:00 | 00:00:00 | 00:00:00 | i |
| DM0DOS-11 | 2026-08-31 12:54:41 | 51.01122 | 5.42050 | 290° | 27km/h | 26394m | 7.3m/s | -49.2°C | 3.2% | 21.6hPa | 2.5V | 08:30:00 | 02:24:08 | 00:00:00 | i |
| DL1XH-west | 2026-08-31 12:54:38 | 51.01122 | 5.42050 | 290° | 27km/h | 26394m | 7.3m/s | -49.2°C | 0.2% | 21.7hPa | 2.5V | 18:12:15 | 02:24:08 | 00:00:00 | i |
| GOEST3-10 | 2026-08-31 12:54:38 | 51.01121 | 5.42049 | 291° | 27km/h | 26394m | 7.3m/s | -49.1°C | 3.2% | 21.6hPa | 2.5V | 00:00:00 | 00:00:00 | 00:00:00 | i |
| SONCRA | 2026-08-31 12:54:36 | 51.01122 | 5.42077 | 260° | 38km/h | 26381m | 4.9m/s | -49.4°C | 0.8% | 21.7hPa | 2.5V | 00:00:00 | 00:00:00 | 00:00:00 | |
| GOEST3-10 | 2026-08-31 12:54:33 | 51.01120 | 5.42103 | 348° | 15km/h | 26363m | 7.4m/s | -49.5°C | 3.2% | 21.7hPa | 2.5V | 00:00:00 | 02:24:03 | 00:00:00 | |
| DM0DOS-11 | 2026-08-31 12:54:31 | 51.01109 | 5.42118 | 270° | 18km/h | 26333m | 5.3m/s | -49.4°C | 3.1% | 21.9hPa | 2.6V | 08:30:00 | 02:23:58 | 00:00:00 | i |
| BIOWL1-15 | 2026-08-31 12:54:30 | 51.01109 | 5.42110 | 279° | 18km/h | 26338m | 5.4m/s | -49.4°C | 0.1% | 21.9hPa | 2.5V | 18:12:15 | 02:23:59 | 00:00:00 | i |
| AA1-15 | 2026-08-31 12:54:30 | 51.01110 | 5.42105 | 309° | 13km/h | 26344m | 5.7m/s | 0°C | 0% | 0hPa | 2.5V | 18:12:15 | 02:24:00 | 00:00:00 | i |
| DL1XH-west | 2026-08-31 12:54:28 | 51.01109 | 5.42125 | 274° | 16km/h | 26327m | 6.1m/s | -49.4°C | 0.1% | 21.9hPa | 2.6V | 18:12:15 | 02:23:57 | 00:00:00 | i |
| BIOWL9-15 | 2026-08-31 12:54:26 | 51.01107 | 5.42133 | 324° | 7km/h | 26315m | 5.9m/s | -49.3°C | 0.8% | 21.9hPa | 2.6V | 00:00:00 | 00:00:00 | 00:00:00 | |
| DL1XH-15 | 2026-08-31 12:54:24 | 51.01108 | 5.42155 | 243° | 27km/h | 26290m | 5.7m/s | -49.6°C | 3.3% | 22hPa | 2.6V | 08:30:00 | 02:23:51 | 00:00:00 | i |
| DO1YAY-16 | 2026-08-31 12:54:23 | 51.01105 | 5.42146 | 252° | 22km/h | 26297m | 7.6m/s | -49.5°C | 0.8% | 22.0hPa | 2.5V | 00:00:00 | 00:00:00 | 00:00:00 | |
| DM0DOS-11 | 2026-08-31 12:54:21 | 51.01112 | 5.42167 | 56° | 9km/h | 26277m | 9.2m/s | -49.9°C | 3.4% | 22.1hPa | 2.5V | 08:30:00 | 02:23:48 | 00:00:00 | i |
| BIOWL1-15 | 2026-08-31 12:54:20 | 51.01112 | 5.42168 | 240° | 4km/h | 26284m | 3.1m/s | -49.8°C | 0.2% | 22hPa | 2.5V | 18:12:15 | 02:23:49 | 00:00:00 | i |
| DL1XH-west | 2026-08-31 12:54:15 | 51.01099 | 5.42142 | 47° | 20km/h | 26253m | 4.6m/s | -49.4°C | 0.2% | 22.1hPa | 2.6V | 18:12:15 | 02:23:45 | 00:00:00 | i |
| DJ2KF-10 | 2026-08-31 12:54:13 | 51.01098 | 5.42143 | 245° | 22km/h | 26239m | 9.3m/s | -49.7°C | 3.1% | 22.1hPa | 2.5V | 00:00:00 | 02:23:43 | 08:30:00 | |
| DM0DOS-11 | 2026-08-31 12:54:11 | 51.01105 | 5.42171 | 46° | 29km/h | 26206m | 8.6m/s | -49.7°C | 3.3% | 22.3hPa | 2.5V | 08:30:00 | 02:23:38 | 00:00:00 | i |
| GOEST3-10 | 2026-08-31 12:54:11 | 51.01106 | 5.42166 | 243° | 27km/h | 26225m | 4.4m/s | -49.7°C | 3.2% | 22.2hPa | 2.6V | 00:00:00 | 02:23:41 | 00:00:00 | i |
| DB0ND-19 | 2026-08-31 12:54:08 | 51.01100 | 5.42162 | 47° | 35km/h | 26199m | 5.0m/s | -49.6°C | 0.8% | 22.3hPa | 2.6V | 00:00:00 | 00:00:00 | 00:00:00 | |
| DJ2DS-15 | 2026-08-31 12:54:06 | 51.01092 | 5.42150 | 1° | 4km/h | 26189m | 6.8m/s | -49.6°C | 0.8% | 22.4hPa | 2.6V | 00:00:00 | 00:00:00 | 00:00:00 | |
| DL1XH-15 | 2026-08-31 12:54:04 | 51.01105 | 5.42185 | 242° | 16km/h | 26165m | 4.7m/s | -49.7°C | 3.2% | 22.4hPa | 2.6V | 08:30:00 | 02:23:31 | 00:00:00 | i |
| DL1XH-west | 2026-08-31 12:54:04 | 51.01093 | 5.42154 | 241° | 20km/h | 26180m | 8.9m/s | -49.7°C | 0.3% | 22.4hPa | 2.5V | 18:12:15 | 02:23:34 | 00:00:00 | i |
| DM0DOS-11 | 2026-08-31 12:54:01 | 51.01098 | 5.42165 | 66° | 18km/h | 26138m | 4.3m/s | -49.6°C | 3.2% | 22.5hPa | 2.5V | 08:30:00 | 02:23:27 | 00:00:00 | i |
| BIOWL1-15 | 2026-08-31 12:53:58 | 51.01102 | 5.42202 | 11° | 13km/h | 26099m | 7.4m/s | -49.7°C | 0.1% | 22.7hPa | 2.5V | 18:12:15 | 02:23:21 | 00:00:00 | i |
| DL1XH-west | 2026-08-31 12:53:54 | 51.01103 | 5.42189 | 258° | 31km/h | 26111m | 4.8m/s | -49.7°C | 0.2% | 22.6hPa | 2.6V | 18:12:15 | 02:23:23 | 00:00:00 | |
| DO1YAY-16 | 2026-08-31 12:53:52 | 51.01102 | 5.42202 | 11° | 11km/h | 26099m | 7.4m/s | -49.7°C | 0.8% | 22.7hPa | 2.5V | 00:00:00 | 00:00:00 | 00:00:00 | |
| DL1XH-west | 2026-08-31 12:53:43 | 51.01105 | 5.42192 | 227° | 4km/h | 26052m | 6.2m/s | -49.9°C | 0.2% | 22.9hPa | 2.5V | 18:12:15 | 02:23:13 | 00:00:00 | i |
| BIOWL1-15 | 2026-08-31 12:53:31 | 51.01091 | 5.42158 | 329° | 13km/h | 25969m | 7.6m/s | -49.4°C | 0.1% | 23.1hPa | 2.5V | 18:12:15 | 02:23:00 | 00:00:00 | i |
| DL1XH-west | 2026-08-31 12:53:31 | 51.01095 | 5.42158 | 26° | 18km/h | 25976m | 5.9m/s | -49.5°C | 0.2% | 23.1hPa | 2.5V | 18:12:15 | 02:23:01 | 00:00:00 | i |
| DL1XH-west | 2026-08-31 12:53:22 | 51.01077 | 5.42163 | 278° | 18km/h | 25913m | 7.2m/s | -49.7°C | 0.3% | 23.3hPa | 2.5V | 18:12:15 | 02:22:51 | 00:00:00 | i |
| DO1YAY-16 | 2026-08-31 12:53:21 | 51.01077 | 5.42172 | 259° | 24km/h | 25907m | 4.8m/s | -49.6°C | 0.8% | 23.4hPa | 2.5V | 00:00:00 | 00:00:00 | 00:00:00 | |
| DL1XH-15 | 2026-08-31 12:53:20 | 51.01070 | 5.42160 | 64° | 11km/h | 25873m | 6.1m/s | -49.5°C | 3.1% | 23.5hPa | 2.5V | 08:30:00 | 02:22:44 | 00:00:00 | i |
| DM0DOS-11 | 2026-08-31 12:53:19 | 51.01078 | 5.42182 | 56° | 15km/h | 25891m | 8.3m/s | -49.8°C | 3.3% | 23.4hPa | 2.6V | 08:30:00 | 02:22:47 | 00:00:00 | i |
| DL1XH-west | 2026-08-31 12:53:11 | 51.01076 | 5.42173 | 234° | 27km/h | 25851m | 5.6m/s | -49.3°C | 0.2% | 23.6hPa | 2.6V | 18:12:15 | 02:22:41 | 00:00:00 | i |
| BIOWL1-15 | 2026-08-31 12:53:10 | 51.01082 | 5.42181 | 140° | 7km/h | 25838m | 7.2m/s | -49.3°C | 0.2% | 23.6hPa | 2.5V | 18:12:15 | 02:22:39 | 00:00:00 | i |
| DM0DOS-11 | 2026-08-31 12:53:08 | 51.01082 | 5.42166 | 86° | 27km/h | 25825m | 4.4m/s | -49.3°C | 3.3% | 23.6hPa | 2.6V | 08:30:00 | 02:22:37 | 00:00:00 | |
| GOEST3-10 | 2026-08-31 12:53:06 | 51.01082 | 5.42156 | 96° | 20km/h | 25821m | 4.2m/s | -49.1°C | 3.2% | 23.6hPa | 2.6V | 00:00:00 | 02:22:36 | 00:00:00 | |
| DM0DOS-11 | 2026-08-31 12:53:03 | 51.01109 | 5.42128 | 176° | 15km/h | 25760m | 7.8m/s | -49.5°C | 3.2% | 23.9hPa | 2.6V | 08:30:00 | 02:22:26 | 00:00:00 | i |
| DL1XH-west | 2026-08-31 12:53:00 | 51.01105 | 5.42142 | 94° | 31km/h | 25771m | 3.1m/s | -49.4°C | 0.1% | 23.9hPa | 2.6V | 18:12:15 | 02:22:28 | 00:00:00 | i |
| MET0W-2 | 2026-08-31 12:52:58 | 51.01106 | 5.42132 | 112° | 18km/h | 25767m | 5.1m/s | -49.4°C | 0.8% | 23.9hPa | 2.5V | 00:00:00 | 00:00:00 | 00:00:00 | |
| DL1XH-15 | 2026-08-31 12:52:56 | 51.01120 | 5.42141 | 225° | 35km/h | 25746m | 4.2m/s | -49.3°C | 3.2% | 23.9hPa | 2.5V | 08:30:00 | 02:22:24 | 00:00:00 | i |
| DL8DAS-14 | 2026-08-31 12:52:55 | 51.01120 | 5.42141 | 225° | 35km/h | 25746m | 4.2m/s | -49.3°C | 0.8% | 23.9hPa | 2.6V | 00:00:00 | 00:00:00 | 00:00:00 | |
| BIOWL9-15 | 2026-08-31 12:52:53 | 51.01131 | 5.42150 | 164° | 18km/h | 25737m | 7.0m/s | -49.3°C | 0.8% | 24.0hPa | 2.6V | 00:00:00 | 00:00:00 | 00:00:00 | |
| DM0DOS-11 | 2026-08-31 12:52:51 | 51.01153 | 5.42098 | 226° | 26km/h | 25695m | 8.8m/s | -49.3°C | 3.1% | 24.2hPa | 2.6V | 08:30:00 | 02:22:16 | 00:00:00 | i |
| DL1XH-west | 2026-08-31 12:52:48 | 51.01145 | 5.42100 | 121° | 27km/h | 25710m | 5m/s | -49.2°C | 0.1% | 24.1hPa | 2.5V | 18:12:15 | 02:22:18 | 00:00:00 | i |
| BIOWL1-15 | 2026-08-31 12:52:47 | 51.01149 | 5.42094 | 170° | 18km/h | 25704m | 8m/s | -49.2°C | 0.1% | 24.1hPa | 2.6V | 18:12:15 | 02:22:17 | 00:00:00 | i |
| DL1XH-15 | 2026-08-31 12:52:46 | 51.01160 | 5.42115 | 236° | 16km/h | 25682m | 5.1m/s | -49.2°C | 3.1% | 24.2hPa | 2.5V | 08:30:00 | 02:22:14 | 00:00:00 | i |
| DL4BBY-15 | 2026-08-31 12:52:46 | 51.01153 | 5.42097 | 227° | 22km/h | 25696m | 8.8m/s | -49.0°C | 0% | 0hPa | 2.6V | 00:00:00 | 00:00:00 | 00:00:00 | i |
| GOEST3-10 | 2026-08-31 12:52:45 | 51.01157 | 5.42106 | 243° | 18km/h | 25688m | 5.9m/s | -49.2°C | 3.1% | 24.1hPa | 2.6V | 00:00:00 | 02:22:15 | 00:00:00 | |
| DJ2KF-10 | 2026-08-31 12:52:43 | 51.01162 | 5.42116 | 144° | 18km/h | 25677m | 6.5m/s | -49.2°C | 3.2% | 24.2hPa | 2.6V | 00:00:00 | 02:22:13 | 00:00:00 | |
| DM0DOS-11 | 2026-08-31 12:52:40 | 51.01174 | 5.42083 | 256° | 20km/h | 25630m | 4.7m/s | -49.1°C | 3.2% | 24.4hPa | 2.6V | 08:30:00 | 02:22:06 | 00:00:00 | i |
| DL1XH-west | 2026-08-31 12:52:37 | 51.01173 | 5.42075 | 248° | 22km/h | 25636m | 7.3m/s | -49.2°C | 0.1% | 24.4hPa | 2.6V | 18:12:15 | 02:22:07 | 00:00:00 | i |
| BIOWL1-15 | 2026-08-31 12:52:36 | 51.01175 | 5.42065 | 89° | 37km/h | 25603m | 6.4m/s | -49.2°C | 0.1% | 24.5hPa | 2.5V | 18:12:15 | 02:22:02 | 00:00:00 | |
| DL1CLM-18 | 2026-08-31 12:52:36 | 51.01173 | 5.42075 | 249° | 22km/h | 25636m | 7.3m/s | -49.2°C | 0% | 0hPa | 2.6V | 00:00:00 | 00:00:00 | 00:00:00 | |
| DL1XH-15 | 2026-08-31 12:52:30 | 51.01175 | 5.42043 | 98° | 15km/h | 25591m | 6.7m/s | -49.2°C | 3.2% | 24.5hPa | 2.6V | 08:30:00 | 02:22:00 | 00:00:00 | i |
| DL1XH-west | 2026-08-31 12:52:27 | 51.01179 | 5.42047 | 122° | 9km/h | 25569m | 6.2m/s | -49.4°C | 0% | 24.6hPa | 2.6V | 18:12:15 | 02:21:56 | 00:00:00 | i |
| DM0DOS-11 | 2026-08-31 12:52:27 | 51.01179 | 5.42047 | 121° | 9km/h | 25569m | 6.2m/s | -49.4°C | 3.1% | 24.6hPa | 2.6V | 08:30:00 | 02:21:56 | 00:00:00 | i |
| DL1XH-15 | 2026-08-31 12:52:24 | 51.01186 | 5.41989 | 310° | 15km/h | 25528m | 8.3m/s | -49.5°C | 3.3% | 24.8hPa | 2.6V | 08:30:00 | 02:21:50 | 00:00:00 | i |
| BIOWL1-15 | 2026-08-31 12:52:23 | 51.01185 | 5.42008 | 103° | 42km/h | 25548m | 4.3m/s | -49.4°C | 0.2% | 24.7hPa | 2.5V | 18:12:15 | 02:21:53 | 00:00:00 | i |
| DL8DAS-14 | 2026-08-31 12:52:23 | 51.01185 | 5.42008 | 103° | 40km/h | 25549m | 4.3m/s | -49.4°C | 0.8% | 24.7hPa | 2.6V | 00:00:00 | 00:00:00 | 00:00:00 | i |
| DM0DOS-11 | 2026-08-31 12:52:21 | 51.01174 | 5.41985 | 88° | 33km/h | 25504m | 7.6m/s | -49.4°C | 3.2% | 24.9hPa | 2.6V | 08:30:00 | 02:21:46 | 00:00:00 | i |
| DL1XH-west | 2026-08-31 12:52:18 | 51.01176 | 5.41995 | 60° | 18km/h | 25511m | 6.2m/s | -49.4°C | 0.2% | 24.8hPa | 2.5V | 18:12:15 | 02:21:47 | 00:00:00 | i |
| BIOWL1-15 | 2026-08-31 12:52:13 | 51.01180 | 5.41944 | 115° | 20km/h | 25487m | 6.1m/s | -49.5°C | 0.1% | 24.9hPa | 2.5V | 18:12:15 | 02:21:43 | 00:00:00 | i |
| DL1XH-west | 2026-08-31 12:52:06 | 51.01161 | 5.41893 | 95° | 27km/h | 25438m | 4.7m/s | -49.2°C | 0.2% | 25.1hPa | 2.6V | 18:12:15 | 02:21:35 | 00:00:00 | i |
| BIOWL1-15 | 2026-08-31 12:52:02 | 51.01119 | 5.41846 | 65° | 20km/h | 25383m | 6.3m/s | -49.1°C | 0.1% | 25.3hPa | 2.6V | 18:12:15 | 02:21:26 | 00:00:00 | i |
| SONCRA | 2026-08-31 12:52:01 | 51.01144 | 5.41894 | 352° | 33km/h | 25413m | 4.5m/s | 0°C | -1.0% | -1.0hPa | 2.6V | 00:00:00 | 00:00:00 | 00:00:00 | |
| WPPR-10 | 2026-08-31 12:52:00 | 51.01068 | 5.41818 | 9° | 20km/h | 25327m | 7.3m/s | -49.0°C | 0.8% | 25.6hPa | 2.6V | 00:00:00 | 00:00:00 | 00:00:00 | |
| DM0DOS-11 | 2026-08-31 12:51:59 | 51.01116 | 5.41843 | 352° | 13km/h | 25376m | 8.6m/s | -49.2°C | 3.1% | 25.4hPa | 2.6V | 08:30:00 | 02:21:25 | 00:00:00 | i |
| DL1XH-west | 2026-08-31 12:51:55 | 51.01116 | 5.41843 | 353° | 13km/h | 25376m | 8.6m/s | -49.2°C | 0.1% | 25.4hPa | 2.6V | 18:12:15 | 02:21:25 | 00:00:00 | i |
| BIOWL1-15 | 2026-08-31 12:51:49 | 51.01080 | 5.41833 | 50° | 42km/h | 25338m | 4.5m/s | -49.1°C | 0.2% | 25.5hPa | 2.6V | 18:12:15 | 02:21:19 | 00:00:00 | i |
| GOEST3-10 | 2026-08-31 12:51:49 | 51.01080 | 5.41833 | 50° | 29km/h | 25338m | 4.4m/s | -49.0°C | 3.2% | 25.4hPa | 2.6V | 00:00:00 | 00:00:00 | 00:00:00 | i |
| DM0DOS-11 | 2026-08-31 12:51:47 | 51.01058 | 5.41827 | 311° | 29km/h | 25312m | 5.2m/s | -49°C | 3.1% | 25.6hPa | 2.6V | 08:30:00 | 02:21:15 | 00:00:00 | i |
| DL1XH-west | 2026-08-31 12:51:46 | 51.01058 | 5.41827 | 311° | 29km/h | 25313m | 5.2m/s | -49°C | 0.1% | 25.6hPa | 2.6V | 18:12:15 | 02:21:15 | 00:00:00 | i |
| GOEST3-10 | 2026-08-31 12:51:44 | 51.01053 | 5.41834 | 327° | 29km/h | 25308m | 5.3m/s | -48.9°C | 3.1% | 25.6hPa | 2.6V | 00:00:00 | 02:21:14 | 00:00:00 | |
| DJ2KF-10 | 2026-08-31 12:51:43 | 51.01048 | 5.41836 | 4° | 33km/h | 25301m | 7.1m/s | -48.9°C | 3.1% | 25.6hPa | 2.6V | 00:00:00 | 02:21:13 | 00:00:00 | |
| DM0DOS-11 | 2026-08-31 12:51:41 | 51.01001 | 5.41831 | 335° | 26km/h | 25253m | 5.6m/s | -49.1°C | 3% | 25.8hPa | 2.6V | 08:30:00 | 02:21:05 | 00:00:00 | i |
| BIOWL1-15 | 2026-08-31 12:51:38 | 51.01017 | 5.41808 | 333° | 24km/h | 25271m | 8.6m/s | -49°C | 0% | 25.8hPa | 2.5V | 18:12:15 | 02:21:08 | 00:00:00 | |
| DL1XH-west | 2026-08-31 12:51:33 | 51.00988 | 5.41826 | 39° | 35km/h | 25239m | 6.7m/s | -49.3°C | 0.1% | 25.9hPa | 2.5V | 18:12:15 | 02:21:03 | 00:00:00 | i |
| BIOWL1-15 | 2026-08-31 12:51:27 | 51.00933 | 5.41845 | 21° | 29km/h | 25191m | 8.2m/s | -50.1°C | 0.3% | 26.1hPa | 2.6V | 18:12:15 | 02:20:55 | 00:00:00 | i |
| DM0DOS-11 | 2026-08-31 12:51:27 | 51.00933 | 5.41845 | 20° | 29km/h | 25191m | 8.2m/s | -50.1°C | 3.4% | 26.1hPa | 2.6V | 08:30:00 | 02:20:55 | 00:00:00 | i |
| DL1XH-west | 2026-08-31 12:51:22 | 51.00902 | 5.41831 | 331° | 40km/h | 25168m | 8.2m/s | -50.1°C | 0.2% | 26.2hPa | 2.5V | 18:12:15 | 02:20:51 | 00:00:00 | i |
| HTAHTA | 2026-08-31 12:51:22 | 51.00902 | 5.41831 | 330° | 38km/h | 25168m | 8.2m/s | -50.1°C | 0.8% | 26.2hPa | 2.6V | 00:00:00 | 00:00:00 | 00:00:00 | i |
| DM0DOS-11 | 2026-08-31 12:51:21 | 51.00850 | 5.41864 | 15° | 29km/h | 25123m | 5.7m/s | -50°C | 3.4% | 26.3hPa | 2.6V | 08:30:00 | 02:20:44 | 00:00:00 | i |
| BIOWL1-15 | 2026-08-31 12:51:15 | 51.00799 | 5.41913 | 31° | 26km/h | 25075m | 5.3m/s | -50.1°C | 0.2% | 26.6hPa | 2.5V | 18:12:15 | 02:20:36 | 00:00:00 | i |
| DL1XH-west | 2026-08-31 12:51:11 | 51.00829 | 5.41887 | 302° | 51km/h | 25105m | 4.8m/s | -50.3°C | 0.3% | 26.4hPa | 2.6V | 18:12:15 | 02:20:41 | 00:00:00 | i |
| DL1XH-west | 2026-08-31 12:51:01 | 51.00778 | 5.41958 | 293° | 37km/h | 25048m | 2.7m/s | -50.3°C | 0.2% | 26.7hPa | 2.5V | 18:12:15 | 02:20:31 | 00:00:00 | i |
| BIOWL1-15 | 2026-08-31 12:50:58 | 51.00766 | 5.41967 | 51° | 26km/h | 25026m | 8.3m/s | -50.3°C | 0.3% | 26.7hPa | 2.6V | 18:12:15 | 02:20:28 | 00:00:00 | i |
| DL1XH-west | 2026-08-31 12:50:50 | 51.00734 | 5.42014 | 25° | 24km/h | 24972m | 5m/s | -50.5°C | 0.2% | 27hPa | 2.5V | 18:12:15 | 02:20:19 | 00:00:00 | i |
| DM0DOS-11 | 2026-08-31 12:50:49 | 51.00718 | 5.42023 | 292° | 38km/h | 24951m | 9.3m/s | -50.8°C | 3.4% | 27.1hPa | 2.5V | 08:30:00 | 02:20:15 | 00:00:00 | i |
| BIOWL1-15 | 2026-08-31 12:50:48 | 51.00696 | 5.42051 | 60° | 22km/h | 24911m | 5.2m/s | -50.8°C | 0.3% | 27.2hPa | 2.5V | 18:12:15 | 02:20:09 | 00:00:00 | i |
| DL1XH-west | 2026-08-31 12:50:39 | 51.00694 | 5.42046 | 30° | 9km/h | 24906m | 5.5m/s | -50.8°C | 0.3% | 27.2hPa | 2.6V | 18:12:15 | 02:20:08 | 00:00:00 | i |
| DM0DOS-11 | 2026-08-31 12:50:38 | 51.00689 | 5.42067 | 281° | 31km/h | 24888m | 3.7m/s | -50.9°C | 3.5% | 27.3hPa | 2.5V | 08:30:00 | 02:20:05 | 00:00:00 | i |
| BIOWL1-15 | 2026-08-31 12:50:36 | 51.00687 | 5.42077 | 289° | 20km/h | 24884m | 4.9m/s | -50.9°C | 0.3% | 27.3hPa | 2.5V | 18:12:15 | 02:20:04 | 00:00:00 | i |
| DL1XH-west | 2026-08-31 12:50:28 | 51.00671 | 5.42065 | 305° | 20km/h | 24846m | 7.2m/s | -50.9°C | 0.3% | 27.5hPa | 2.5V | 18:12:15 | 02:19:58 | 00:00:00 | i |
| DM0DOS-11 | 2026-08-31 12:50:28 | 51.00665 | 5.42086 | 316° | 5km/h | 24830m | 6.7m/s | -51°C | 3.5% | 27.6hPa | 2.6V | 08:30:00 | 02:19:55 | 00:00:00 | i |
| BIOWL1-15 | 2026-08-31 12:50:25 | 51.00665 | 5.42086 | 316° | 5km/h | 24830m | 6.7m/s | -51°C | 0.4% | 27.6hPa | 2.6V | 18:12:15 | 02:19:55 | 00:00:00 | i |
| DL1XH-west | 2026-08-31 12:50:18 | 51.00639 | 5.42063 | 100° | 27km/h | 24760m | 5.3m/s | -51°C | 0.3% | 27.9hPa | 2.5V | 18:12:15 | 02:19:44 | 00:00:00 | i |
| BIOWL1-15 | 2026-08-31 12:50:14 | 51.00640 | 5.42054 | 95° | 18km/h | 24755m | 4.8m/s | -50.9°C | 0.3% | 27.9hPa | 2.5V | 18:12:15 | 02:19:43 | 00:00:00 | i |
| GOEST3-10 | 2026-08-31 12:50:14 | 51.00639 | 5.42063 | 101° | 20km/h | 24760m | 5.3m/s | -50.9°C | 3.4% | 27.8hPa | 2.6V | 00:00:00 | 02:19:44 | 00:00:00 | i |
| DJ2KF-10 | 2026-08-31 12:50:13 | 51.00640 | 5.42054 | 95° | 18km/h | 24755m | 4.7m/s | -50.9°C | 3.4% | 27.8hPa | 2.6V | 00:00:00 | 02:19:43 | 00:00:00 | |
| DM0DOS-11 | 2026-08-31 12:50:11 | 51.00620 | 5.42045 | 82° | 20km/h | 24707m | 3.7m/s | -51.1°C | 3.4% | 28.1hPa | 2.6V | 08:30:00 | 02:19:35 | 00:00:00 | |
| DL1XH-west | 2026-08-31 12:50:05 | 51.00615 | 5.42048 | 298° | 27km/h | 24687m | 6.2m/s | -51.3°C | 0.4% | 28.2hPa | 2.5V | 18:12:15 | 02:19:32 | 00:00:00 | i |
| BIOWL1-15 | 2026-08-31 12:49:59 | 51.00605 | 5.42062 | 44° | 15km/h | 24670m | 7.5m/s | -51.3°C | 0.3% | 28.3hPa | 2.6V | 18:12:15 | 02:19:29 | 00:00:00 | i |
| GOEST3-10 | 2026-08-31 12:49:59 | 51.00605 | 5.42062 | 45° | 16km/h | 24670m | 7.4m/s | -51.3°C | 3.5% | 28.2hPa | 2.5V | 00:00:00 | 00:00:00 | 00:00:00 | i |
| DM0DOS-11 | 2026-08-31 12:49:57 | 51.00601 | 5.42034 | 10° | 5km/h | 24646m | 6.2m/s | -51.4°C | 3.4% | 28.4hPa | 2.5V | 08:30:00 | 02:19:25 | 00:00:00 | i |
| DL1XH-west | 2026-08-31 12:49:51 | 51.00587 | 5.42039 | 43° | 20km/h | 24622m | 7.4m/s | -51.5°C | 0.5% | 28.5hPa | 2.5V | 18:12:15 | 02:19:21 | 00:00:00 | i |
| DM0DOS-11 | 2026-08-31 12:49:50 | 51.00575 | 5.42015 | 321° | 20km/h | 24585m | 4.1m/s | -51.5°C | 3.5% | 28.6hPa | 2.6V | 08:30:00 | 02:19:15 | 00:00:00 | i |
| BIOWL1-15 | 2026-08-31 12:49:48 | 51.00581 | 5.42011 | 80° | 16km/h | 24604m | 5.6m/s | -51.3°C | 0.3% | 28.6hPa | 2.5V | 18:12:15 | 02:19:18 | 00:00:00 | i |
| BIOWL9-15 | 2026-08-31 12:49:46 | 51.00575 | 5.42015 | 321° | 20km/h | 24586m | 4.1m/s | -51.5°C | 0.9% | 28.6hPa | 2.6V | 00:00:00 | 00:00:00 | 00:00:00 | |
| DL1XH-west | 2026-08-31 12:49:40 | 51.00562 | 5.41982 | 84° | 20km/h | 24557m | 4.9m/s | -51.4°C | 0.3% | 28.8hPa | 2.6V | 18:12:15 | 02:19:10 | 00:00:00 | i |
| BIOWL1-15 | 2026-08-31 12:49:38 | 51.00560 | 5.41980 | 301° | 18km/h | 24542m | 8m/s | -51.5°C | 0.4% | 28.9hPa | 2.6V | 18:12:15 | 02:19:08 | 00:00:00 | i |
| DM0DOS-11 | 2026-08-31 12:49:36 | 51.00547 | 5.41995 | 20° | 18km/h | 24526m | 6.6m/s | -51.5°C | 3.6% | 28.9hPa | 2.5V | 08:30:00 | 02:19:05 | 00:00:00 | i |
| DL1XH-west | 2026-08-31 12:49:30 | 51.00539 | 5.41956 | 318° | 15km/h | 24495m | 8.5m/s | -51.3°C | 0.3% | 29hPa | 2.5V | 18:12:15 | 02:19:00 | 00:00:00 | i |
| BIOWL1-15 | 2026-08-31 12:49:30 | 51.00529 | 5.41973 | 317° | 35km/h | 24480m | 4.8m/s | -51.3°C | 0.3% | 29.1hPa | 2.6V | 18:12:15 | 02:18:58 | 00:00:00 | i |
| DL1XH-west | 2026-08-31 12:49:20 | 51.00499 | 5.41962 | 315° | 44km/h | 24430m | 6.4m/s | -51.4°C | 0.4% | 29.3hPa | 2.6V | 18:12:15 | 02:18:50 | 00:00:00 | i |
| BIOWL1-15 | 2026-08-31 12:49:18 | 51.00484 | 5.41980 | 341° | 29km/h | 24419m | 5.7m/s | -51.4°C | 0.3% | 29.4hPa | 2.5V | 18:12:15 | 02:18:48 | 00:00:00 | i |
| DL8DAS-14 | 2026-08-31 12:49:17 | 51.00478 | 5.41980 | 22° | 20km/h | 24413m | 7.5m/s | -51.4°C | 0.9% | 29.4hPa | 2.6V | 00:00:00 | 00:00:00 | 00:00:00 | |
| DM0DOS-11 | 2026-08-31 12:49:16 | 51.00472 | 5.41966 | 71° | 24km/h | 24398m | 6m/s | -51.3°C | 3.4% | 29.5hPa | 2.6V | 08:30:00 | 02:18:45 | 00:00:00 | i |
| DL4BBY-15 | 2026-08-31 12:49:16 | 51.00474 | 5.41974 | 65° | 22km/h | 24406m | 7.4m/s | -51.1°C | 0% | 0hPa | 2.5V | 00:00:00 | 00:00:00 | 00:00:00 | i |
| BIOWL9-15 | 2026-08-31 12:49:15 | 51.00472 | 5.41966 | 71° | 22km/h | 24398m | 6.0m/s | -51.3°C | 0.9% | 29.5hPa | 2.5V | 00:00:00 | 00:00:00 | 00:00:00 | |
| GOEST3-10 | 2026-08-31 12:49:14 | 51.00470 | 5.41959 | 48° | 24km/h | 24393m | 5.6m/s | -51.2°C | 3.4% | 29.5hPa | 2.5V | 00:00:00 | 02:18:44 | 00:00:00 | |
| DJ2KF-10 | 2026-08-31 12:49:13 | 51.00467 | 5.41958 | 339° | 20km/h | 24387m | 6.4m/s | -51.3°C | 3.5% | 29.5hPa | 2.5V | 00:00:00 | 02:18:43 | 00:00:00 | |
| DO1YAY-16 | 2026-08-31 12:49:12 | 51.00463 | 5.41963 | 314° | 29km/h | 24380m | 6.9m/s | -51.4°C | 0.9% | 29.6hPa | 2.5V | 00:00:00 | 00:00:00 | 00:00:00 | |
| DM0DOS-11 | 2026-08-31 12:49:11 | 51.00431 | 5.41965 | 9° | 18km/h | 24339m | 6.4m/s | -51.3°C | 3.5% | 29.7hPa | 2.5V | 08:30:00 | 02:18:35 | 00:00:00 | i |
| DL1XH-west | 2026-08-31 12:49:09 | 51.00446 | 5.41986 | 349° | 18km/h | 24364m | 6.9m/s | -51.5°C | 0.4% | 29.6hPa | 2.6V | 18:12:15 | 02:18:39 | 00:00:00 | i |
| BIOWL1-15 | 2026-08-31 12:49:06 | 51.00435 | 5.41969 | 48° | 22km/h | 24344m | 4.7m/s | -51.3°C | 0.4% | 29.7hPa | 2.5V | 18:12:15 | 02:18:36 | 00:00:00 | i |
| DL1XH-west | 2026-08-31 12:48:58 | 51.00415 | 5.41984 | 64° | 26km/h | 24295m | 3.3m/s | -51.3°C | 0.4% | 29.9hPa | 2.5V | 18:12:15 | 02:18:28 | 00:00:00 | i |
| DB0ND-19 | 2026-08-31 12:48:58 | 51.00412 | 5.41978 | 34° | 20km/h | 24291m | 5.4m/s | -51.3°C | 0.9% | 30.0hPa | 2.6V | 00:00:00 | 00:00:00 | 00:00:00 | i |
| DM0DOS-11 | 2026-08-31 12:48:56 | 51.00402 | 5.41983 | 307° | 31km/h | 24276m | 8m/s | -51.4°C | 3.5% | 30.1hPa | 2.6V | 08:30:00 | 02:18:25 | 00:00:00 | i |
| BIOWL1-15 | 2026-08-31 12:48:56 | 51.00407 | 5.41977 | 343° | 22km/h | 24284m | 7.7m/s | -51.4°C | 0.3% | 30hPa | 2.6V | 18:12:15 | 02:18:26 | 00:00:00 | i |
| BIOWL7-15 | 2026-08-31 12:48:55 | 51.00407 | 5.41977 | 344° | 22km/h | 24284m | 7.7m/s | -51.4°C | 0.9% | 30.0hPa | 2.6V | 00:00:00 | 00:00:00 | 00:00:00 | |
| GOEST3-10 | 2026-08-31 12:48:54 | 51.00398 | 5.41993 | 293° | 20km/h | 24269m | 5.7m/s | -51.3°C | 3.4% | 30.0hPa | 2.6V | 00:00:00 | 02:18:24 | 08:30:00 | |
| DM0DOS-11 | 2026-08-31 12:48:50 | 51.00381 | 5.41993 | 280° | 13km/h | 24214m | 4.5m/s | -51.3°C | 3.4% | 30.3hPa | 2.5V | 08:30:00 | 02:18:15 | 00:00:00 | i |
| DL1XH-west | 2026-08-31 12:48:47 | 51.00384 | 5.41982 | 327° | 15km/h | 24225m | 6.6m/s | -51.3°C | 0.3% | 30.3hPa | 2.5V | 18:12:15 | 02:18:17 | 00:00:00 | |
| DL4BBY-15 | 2026-08-31 12:48:46 | 51.00382 | 5.41988 | 296° | 18km/h | 24219m | 5.0m/s | -51.0°C | 0% | 0hPa | 2.5V | 00:00:00 | 00:00:00 | 00:00:00 | |
| GOEST3-10 | 2026-08-31 12:48:44 | 51.00380 | 5.41996 | 177° | 16km/h | 24208m | 6.7m/s | -51.3°C | 3.4% | 30.3hPa | 2.5V | 00:00:00 | 02:18:14 | 00:00:00 | |
| DJ2KF-10 | 2026-08-31 12:48:43 | 51.00381 | 5.41992 | 102° | 18km/h | 24202m | 7.1m/s | -51.3°C | 3.4% | 30.3hPa | 2.5V | 00:00:00 | 02:18:13 | 00:00:00 | |
| DO1YAY-16 | 2026-08-31 12:48:41 | 51.00381 | 5.41975 | 73° | 20km/h | 24190m | 4.4m/s | -51.4°C | 0.9% | 30.4hPa | 2.5V | 00:00:00 | 00:00:00 | 00:00:00 | |
| GOEST3-10 | 2026-08-31 12:48:39 | 51.00376 | 5.41969 | 325° | 13km/h | 24178m | 7.4m/s | -51.5°C | 3.5% | 30.4hPa | 2.5V | 00:00:00 | 00:00:00 | 00:00:00 | |
| DM0DOS-11 | 2026-08-31 12:48:38 | 51.00375 | 5.41977 | 110° | 20km/h | 24153m | 8m/s | -51.8°C | 3.6% | 30.6hPa | 2.5V | 08:30:00 | 02:18:05 | 00:00:00 | i |
| DL1XH-west | 2026-08-31 12:48:37 | 51.00374 | 5.41981 | 162° | 4km/h | 24160m | 7m/s | -51.7°C | 0.3% | 30.6hPa | 2.6V | 18:12:15 | 02:18:06 | 00:00:00 | i |
| BIOWL1-15 | 2026-08-31 12:48:32 | 51.00375 | 5.41950 | 47° | 11km/h | 24137m | 6.6m/s | -51.7°C | 0.5% | 30.7hPa | 2.6V | 18:12:15 | 02:18:02 | 00:00:00 | |
| DM0DOS-11 | 2026-08-31 12:48:31 | 51.00359 | 5.41962 | 68° | 27km/h | 24091m | 5m/s | -51.9°C | 3.6% | 30.9hPa | 2.5V | 08:30:00 | 02:17:55 | 00:00:00 | i |
| DL1XH-west | 2026-08-31 12:48:26 | 51.00361 | 5.41972 | 73° | 24km/h | 24097m | 7.1m/s | -51.9°C | 0.5% | 30.9hPa | 2.5V | 18:12:15 | 02:17:56 | 00:00:00 | i |
| BIOWL1-15 | 2026-08-31 12:48:22 | 51.00349 | 5.41974 | 283° | 20km/h | 24062m | 5m/s | -52°C | 0.4% | 31.1hPa | 2.5V | 18:12:15 | 02:17:50 | 00:00:00 | i |
| GOEST3-10 | 2026-08-31 12:48:19 | 51.00347 | 5.41979 | 335° | 15km/h | 24056m | 6.2m/s | -52.0°C | 3.6% | 31.0hPa | 2.6V | 00:00:00 | 00:00:00 | 00:00:00 | |
| DM0DOS-11 | 2026-08-31 12:48:16 | 51.00332 | 5.41952 | 26° | 22km/h | 24032m | 5.6m/s | -51.7°C | 3.6% | 31.2hPa | 2.6V | 08:30:00 | 02:17:45 | 00:00:00 | i |
| DL1XH-west | 2026-08-31 12:48:15 | 51.00332 | 5.41952 | 26° | 22km/h | 24032m | 5.6m/s | -51.7°C | 0.5% | 31.2hPa | 2.6V | 18:12:15 | 02:17:45 | 00:00:00 | i |
| GOEST3-10 | 2026-08-31 12:48:14 | 51.00327 | 5.41951 | 333° | 15km/h | 24026m | 7.0m/s | -51.8°C | 3.6% | 31.2hPa | 2.5V | 00:00:00 | 02:17:44 | 00:00:00 | |
| BIOWL9-15 | 2026-08-31 12:48:13 | 51.00325 | 5.41957 | 286° | 20km/h | 24019m | 6.7m/s | -51.9°C | 0.9% | 31.3hPa | 2.5V | 00:00:00 | 00:00:00 | 00:00:00 | |
| DJ2KF-10 | 2026-08-31 12:48:12 | 51.00324 | 5.41964 | 267° | 24km/h | 24013m | 5.9m/s | -51.9°C | 3.5% | 31.3hPa | 2.5V | 00:00:00 | 02:17:42 | 00:00:00 | |
| DM0DOS-11 | 2026-08-31 12:48:11 | 51.00301 | 5.41946 | 321° | 29km/h | 23970m | 5.3m/s | -51.8°C | 3.5% | 31.5hPa | 2.6V | 08:30:00 | 02:17:35 | 00:00:00 | i |
| BIOWL1-15 | 2026-08-31 12:48:07 | 51.00293 | 5.41957 | 340° | 9km/h | 23961m | 6.1m/s | -51.9°C | 0.3% | 31.6hPa | 2.5V | 18:12:15 | 02:17:33 | 00:00:00 | i |
| DL1XH-west | 2026-08-31 12:48:04 | 51.00296 | 5.41953 | 310° | 20km/h | 23966m | 3.9m/s | -51.8°C | 0.3% | 31.5hPa | 2.5V | 18:12:15 | 02:17:34 | 00:00:00 | i |
| GOEST3-10 | 2026-08-31 12:48:03 | 51.00293 | 5.41957 | 340° | 24km/h | 23961m | 6.0m/s | -51.8°C | 3.5% | 31.5hPa | 2.5V | 00:00:00 | 02:17:33 | 00:00:00 | |
| BUE01 | 2026-08-31 12:48:01 | 51.00241 | 5.41911 | 6° | 24km/h | 23882m | 6.3m/s | -52.1°C | 1.0% | 31.9hPa | 2.5V | 00:00:00 | 00:00:00 | 00:00:00 | |
| DM0DOS-11 | 2026-08-31 12:47:59 | 51.00262 | 5.41938 | 307° | 16km/h | 23910m | 5.1m/s | -51.9°C | 3.5% | 31.8hPa | 2.5V | 08:30:00 | 02:17:25 | 00:00:00 | i |
| BIOWL1-15 | 2026-08-31 12:47:58 | 51.00260 | 5.41939 | 23° | 11km/h | 23905m | 6.7m/s | -52°C | 0.4% | 31.8hPa | 2.5V | 18:12:15 | 02:17:24 | 00:00:00 | i |
| DL1XH-west | 2026-08-31 12:47:53 | 51.00257 | 5.41934 | 59° | 26km/h | 23898m | 7.5m/s | -52.1°C | 0.5% | 31.9hPa | 2.5V | 18:12:15 | 02:17:23 | 00:00:00 | i |
| WPPR-10 | 2026-08-31 12:47:52 | 51.00247 | 5.41915 | 38° | 29km/h | 23887m | 4.1m/s | -52.0°C | 1.0% | 31.9hPa | 2.6V | 00:00:00 | 00:00:00 | 00:00:00 | |
| DM0DOS-11 | 2026-08-31 12:47:49 | 51.00225 | 5.41942 | 75° | 7km/h | 23848m | 7.6m/s | -52.4°C | 3.8% | 32.1hPa | 2.6V | 08:30:00 | 02:17:15 | 00:00:00 | i |
| DL8DAS-14 | 2026-08-31 12:47:44 | 51.00225 | 5.41936 | 85° | 22km/h | 23842m | 6.3m/s | -52.4°C | 1.0% | 32.1hPa | 2.5V | 00:00:00 | 00:00:00 | 00:00:00 | |
| DL1XH-west | 2026-08-31 12:47:42 | 51.00223 | 5.41922 | 52° | 9km/h | 23831m | 5.8m/s | -52.4°C | 0.5% | 32.2hPa | 2.5V | 18:12:15 | 02:17:12 | 00:00:00 | i |
| GOEST3-10 | 2026-08-31 12:47:42 | 51.00223 | 5.41922 | 52° | 20km/h | 23831m | 5.7m/s | -52.3°C | 3.7% | 32.1hPa | 2.5V | 00:00:00 | 02:17:12 | 00:00:00 | i |
| DM0DOS-11 | 2026-08-31 12:47:39 | 51.00214 | 5.41939 | 228° | 5km/h | 23779m | 6.9m/s | -52.6°C | 3.8% | 32.5hPa | 2.5V | 08:30:00 | 02:17:03 | 00:00:00 | i |
| DL1XH-west | 2026-08-31 12:47:31 | 51.00215 | 5.41957 | 273° | 37km/h | 23763m | 6.1m/s | -52.5°C | 0.5% | 32.5hPa | 2.6V | 18:12:15 | 02:17:01 | 00:00:00 | i |
| BUE01 | 2026-08-31 12:47:30 | 51.00210 | 5.41967 | 89° | 4km/h | 23731m | 5.0m/s | -52.4°C | 1.0% | 32.7hPa | 2.5V | 00:00:00 | 00:00:00 | 00:00:00 | |
| DM0DOS-11 | 2026-08-31 12:47:28 | 51.00215 | 5.41993 | 253° | 44km/h | 23709m | 4.1m/s | -52.5°C | 3.8% | 32.8hPa | 2.5V | 08:30:00 | 02:16:52 | 00:00:00 | i |
| BIOWL1-15 | 2026-08-31 12:47:21 | 51.00218 | 5.41999 | 18° | 2km/h | 23675m | 5.6m/s | -52.3°C | 0.5% | 33hPa | 2.5V | 18:12:15 | 02:16:46 | 00:00:00 | |
| DL1XH-west | 2026-08-31 12:47:20 | 51.00220 | 5.42015 | 235° | 13km/h | 23701m | 6m/s | -52.6°C | 0.6% | 32.9hPa | 2.5V | 18:12:15 | 02:16:50 | 00:00:00 | i |
| DM0DOS-11 | 2026-08-31 12:47:17 | 51.00242 | 5.42018 | 95° | 15km/h | 23628m | 4.4m/s | -52°C | 3.8% | 33.2hPa | 2.6V | 08:30:00 | 02:16:38 | 00:00:00 | |
| DL1XH-west | 2026-08-31 12:47:10 | 51.00241 | 5.42035 | 113° | 20km/h | 23640m | 8.5m/s | -52.2°C | 0.6% | 33.2hPa | 2.5V | 18:12:15 | 02:16:40 | 00:00:00 | |
| BIOWL1-15 | 2026-08-31 12:47:06 | 51.00245 | 5.42020 | 234° | 22km/h | 23616m | 7.6m/s | -52.2°C | 0.5% | 33.3hPa | 2.5V | 18:12:15 | 02:16:36 | 00:00:00 | i |
| GOEST3-10 | 2026-08-31 12:47:02 | 51.00258 | 5.42051 | 137° | 11km/h | 23592m | 7.9m/s | -51.9°C | 3.5% | 33.4hPa | 2.5V | 00:00:00 | 00:00:00 | 00:00:00 | |
| DM0DOS-11 | 2026-08-31 12:46:59 | 51.00259 | 5.42034 | 241° | 9km/h | 23567m | 6m/s | -51.6°C | 3.6% | 33.5hPa | 2.6V | 08:30:00 | 02:16:28 | 00:00:00 | i |
| DL1XH-west | 2026-08-31 12:46:59 | 51.00259 | 5.42034 | 102° | 7km/h | 23573m | 5.6m/s | -51.6°C | 0.4% | 33.5hPa | 2.6V | 18:12:15 | 02:16:29 | 00:00:00 | i |
| BIOWL1-15 | 2026-08-31 12:46:53 | 51.00268 | 5.42075 | 258° | 16km/h | 23506m | 4.6m/s | -51.3°C | 0.3% | 33.9hPa | 2.6V | 18:12:15 | 02:16:17 | 00:00:00 | i |
| DM0DOS-11 | 2026-08-31 12:46:53 | 51.00267 | 5.42067 | 247° | 26km/h | 23510m | 3.5m/s | -51.4°C | 3.5% | 33.8hPa | 2.6V | 08:30:00 | 02:16:18 | 00:00:00 | i |
| DL1XH-west | 2026-08-31 12:46:48 | 51.00267 | 5.42067 | 247° | 26km/h | 23510m | 3.5m/s | -51.4°C | 0.3% | 33.8hPa | 2.6V | 18:12:15 | 02:16:18 | 00:00:00 | i |
| BIOWL1-15 | 2026-08-31 12:46:41 | 51.00273 | 5.42063 | 224° | 27km/h | 23469m | 6.7m/s | -51.3°C | 0.4% | 34.1hPa | 2.6V | 18:12:15 | 02:16:11 | 00:00:00 | i |
| GOEST3-10 | 2026-08-31 12:46:40 | 51.00277 | 5.42072 | 244° | 18km/h | 23464m | 4.1m/s | -51.3°C | 3.6% | 34.0hPa | 2.5V | 00:00:00 | 00:00:00 | 00:00:00 | |
| DM0DOS-11 | 2026-08-31 12:46:39 | 51.00280 | 5.42086 | 306° | 5km/h | 23453m | 6.7m/s | -51.2°C | 3.6% | 34.2hPa | 2.5V | 08:30:00 | 02:16:08 | 00:00:00 | i |
| DL1XH-west | 2026-08-31 12:46:38 | 51.00280 | 5.42086 | 307° | 5km/h | 23453m | 6.7m/s | -51.2°C | 0.4% | 34.2hPa | 2.5V | 18:12:15 | 02:16:08 | 00:00:00 | i |
| DO1YAY-16 | 2026-08-31 12:46:37 | 51.00278 | 5.42084 | 59° | 16km/h | 23446m | 8.3m/s | -51.2°C | 1.0% | 34.2hPa | 2.6V | 00:00:00 | 00:00:00 | 00:00:00 | |
| GOEST3-10 | 2026-08-31 12:46:35 | 51.00276 | 5.42065 | 98° | 22km/h | 23434m | 4.5m/s | -51.0°C | 3.4% | 34.2hPa | 2.6V | 00:00:00 | 02:16:05 | 00:00:00 | |
| DM0DOS-11 | 2026-08-31 12:46:32 | 51.00279 | 5.42078 | 62° | 27km/h | 23391m | 6.6m/s | -51.5°C | 3.6% | 34.5hPa | 2.6V | 08:30:00 | 02:15:58 | 00:00:00 | i |
| BIOWL1-15 | 2026-08-31 12:46:30 | 51.00285 | 5.42083 | 298° | 15km/h | 23405m | 5.9m/s | -51.5°C | 0.4% | 34.4hPa | 2.5V | 18:12:15 | 02:16:00 | 00:00:00 | i |
| DL1XH-west | 2026-08-31 12:46:28 | 51.00277 | 5.42068 | 87° | 27km/h | 23385m | 5.1m/s | -51.4°C | 0.4% | 34.5hPa | 2.6V | 18:12:15 | 02:15:57 | 00:00:00 | i |
| DL8DAS-15 | 2026-08-31 12:46:26 | 51.00277 | 5.42068 | 88° | 29km/h | 23386m | 5.1m/s | -51.4°C | 1.0% | 34.5hPa | 2.5V | 00:00:00 | 00:00:00 | 00:00:00 | |
| GOEST3-10 | 2026-08-31 12:46:25 | 51.00282 | 5.42054 | 172° | 22km/h | 23374m | 7.0m/s | -51.4°C | 3.5% | 34.5hPa | 2.5V | 00:00:00 | 02:15:55 | 00:00:00 | |
| DL1ZP-14 | 2026-08-31 12:46:24 | 51.00287 | 5.42057 | 210° | 27km/h | 23367m | 6.7m/s | -51.5°C | 0.9% | 34.6hPa | 2.5V | 00:00:00 | 00:00:00 | 00:00:00 | |
| DB0ND-19 | 2026-08-31 12:46:22 | 51.00296 | 5.42070 | 234° | 15km/h | 23357m | 4.5m/s | -51.4°C | 0.9% | 34.7hPa | 2.5V | 00:00:00 | 00:00:00 | 00:00:00 | |
| GOEST3-10 | 2026-08-31 12:46:20 | 51.00296 | 5.42067 | 70° | 24km/h | 23345m | 8.1m/s | -51.5°C | 3.5% | 34.7hPa | 2.5V | 00:00:00 | 00:00:00 | 00:00:00 | |
| DM0DOS-11 | 2026-08-31 12:46:19 | 51.00293 | 5.42044 | 88° | 27km/h | 23333m | 4.7m/s | -51.5°C | 3.5% | 34.8hPa | 2.5V | 08:30:00 | 02:15:48 | 00:00:00 | i |
| DL1XH-west | 2026-08-31 12:46:17 | 51.00294 | 5.42035 | 117° | 16km/h | 23327m | 6.4m/s | -51.6°C | 0.4% | 34.8hPa | 2.6V | 18:12:15 | 02:15:47 | 00:00:00 | i |
| BIOWL1-15 | 2026-08-31 12:46:16 | 51.00304 | 5.42044 | 229° | 18km/h | 23309m | 4.6m/s | -51.8°C | 0.5% | 34.9hPa | 2.5V | 18:12:15 | 02:15:44 | 00:00:00 | i |
| DL4BBY-15 | 2026-08-31 12:46:16 | 51.00297 | 5.42033 | 195° | 18km/h | 23321m | 7.6m/s | -51.5°C | 0% | 0hPa | 2.6V | 00:00:00 | 00:00:00 | 00:00:00 | i |
| GOEST3-10 | 2026-08-31 12:46:15 | 51.00301 | 5.42038 | 226° | 26km/h | 23314m | 5.3m/s | -51.8°C | 3.6% | 34.8hPa | 2.6V | 00:00:00 | 02:15:45 | 00:00:00 | |
| BIOWL7-15 | 2026-08-31 12:46:13 | 51.00304 | 5.42043 | 230° | 16km/h | 23309m | 4.6m/s | -51.8°C | 1.0% | 34.9hPa | 2.5V | 00:00:00 | 00:00:00 | 00:00:00 | |
| DL8DAS-14 | 2026-08-31 12:46:12 | 51.00306 | 5.42032 | 79° | 33km/h | 23290m | 7.1m/s | -51.9°C | 1.0% | 35.0hPa | 2.5V | 00:00:00 | 00:00:00 | 00:00:00 | |
| DM0DOS-11 | 2026-08-31 12:46:09 | 51.00303 | 5.42001 | 112° | 7km/h | 23273m | 6.6m/s | -51.9°C | 3.6% | 35.1hPa | 2.5V | 08:30:00 | 02:15:38 | 00:00:00 | i |
| DL1XH-west | 2026-08-31 12:46:06 | 51.00305 | 5.42008 | 259° | 18km/h | 23261m | 4.3m/s | -51.9°C | 0.4% | 35.2hPa | 2.6V | 18:12:15 | 02:15:36 | 00:00:00 | i |
| BIOWL1-15 | 2026-08-31 12:45:58 | 51.00307 | 5.41972 | 261° | 13km/h | 23207m | 5.4m/s | -52°C | 0.5% | 35.5hPa | 2.6V | 18:12:15 | 02:15:27 | 00:00:00 | i |
| DL1XH-west | 2026-08-31 12:45:56 | 51.00307 | 5.41975 | 342° | 4km/h | 23202m | 5.6m/s | -52°C | 0.5% | 35.5hPa | 2.6V | 18:12:15 | 02:15:26 | 00:00:00 | i |
| DD1CC8 | 2026-08-31 12:45:54 | 51.00302 | 5.41965 | 63° | 27km/h | 23190m | 5.4m/s | -52.2°C | 1.0% | 35.6hPa | 2.6V | 00:00:00 | 00:00:00 | 00:00:00 | |
| DL1ZP-14 | 2026-08-31 12:45:53 | 51.00297 | 5.41948 | 63° | 15km/h | 23181m | 5.8m/s | -52.1°C | 1.0% | 35.6hPa | 2.6V | 00:00:00 | 00:00:00 | 00:00:00 | |
| DM0DOS-11 | 2026-08-31 12:45:52 | 51.00292 | 5.41962 | 23° | 13km/h | 23150m | 6.3m/s | -52.4°C | 3.7% | 35.8hPa | 2.5V | 08:30:00 | 02:15:17 | 00:00:00 | i |
| DL1XH-west | 2026-08-31 12:45:46 | 51.00285 | 5.41951 | 48° | 22km/h | 23139m | 4.7m/s | -52.2°C | 0.6% | 35.9hPa | 2.6V | 18:12:15 | 02:15:15 | 00:00:00 | i |
| BIOWL1-15 | 2026-08-31 12:45:44 | 51.00277 | 5.41951 | 282° | 18km/h | 23121m | 5.6m/s | -52.3°C | 0.6% | 36hPa | 2.5V | 18:12:15 | 02:15:12 | 00:00:00 | i |
| DM0DOS-11 | 2026-08-31 12:45:42 | 51.00264 | 5.41948 | 45° | 13km/h | 23089m | 5.1m/s | -52.1°C | 3.7% | 36.1hPa | 2.5V | 08:30:00 | 02:15:06 | 00:00:00 | i |
| BIOWL1-15 | 2026-08-31 12:45:35 | 51.00261 | 5.41953 | 285° | 24km/h | 23076m | 6.5m/s | -52.3°C | 0.5% | 36.2hPa | 2.7V | 18:12:15 | 02:15:04 | 00:00:00 | i |
| DL1XH-west | 2026-08-31 12:45:23 | 51.00235 | 5.41975 | 331° | 9km/h | 23014m | 6m/s | -51.9°C | 0.6% | 36.5hPa | 2.5V | 18:12:15 | 02:14:53 | 00:00:00 | i |
| BIOWL1-15 | 2026-08-31 12:45:19 | 51.00214 | 5.41981 | 267° | 9km/h | 22966m | 5.9m/s | -51.7°C | 0.5% | 36.8hPa | 2.6V | 18:12:15 | 02:14:45 | 00:00:00 | i |
| WPPR-10 | 2026-08-31 12:45:17 | 51.00214 | 5.41976 | 267° | 18km/h | 22972m | 5.8m/s | -51.8°C | 1.0% | 36.8hPa | 2.5V | 00:00:00 | 00:00:00 | 00:00:00 | |
| DL4BBY-15 | 2026-08-31 12:45:16 | 51.00214 | 5.41975 | 268° | 13km/h | 22972m | 5.8m/s | -51.5°C | 0% | 0hPa | 2.5V | 00:00:00 | 00:00:00 | 00:00:00 | |
| DL1XH-15 | 2026-08-31 12:45:14 | 51.00209 | 5.41976 | 286° | 11km/h | 22938m | 5.9m/s | -51.5°C | 3.6% | 37hPa | 2.5V | 08:30:00 | 02:14:40 | 00:00:00 | i |
| DL1XH-west | 2026-08-31 12:45:10 | 51.00209 | 5.41976 | 287° | 11km/h | 22938m | 5.9m/s | -51.5°C | 0.4% | 37hPa | 2.5V | 18:12:15 | 02:14:40 | 00:00:00 | i |
| DL8DAS-14 | 2026-08-31 12:45:09 | 51.00208 | 5.41985 | 282° | 7km/h | 22929m | 5.1m/s | -51.5°C | 1.0% | 37.0hPa | 2.5V | 00:00:00 | 00:00:00 | 00:00:00 | |
| DM0DOS-11 | 2026-08-31 12:45:07 | 51.00208 | 5.41983 | 76° | 13km/h | 22915m | 6.1m/s | -51.4°C | 3.5% | 37.1hPa | 2.5V | 08:30:00 | 02:14:36 | 00:00:00 | i |
| BIOWL1-15 | 2026-08-31 12:45:02 | 51.00208 | 5.41989 | 255° | 16km/h | 22888m | 3.9m/s | -51.4°C | 0.5% | 37.3hPa | 2.5V | 18:12:15 | 02:14:31 | 00:00:00 | i |
| DJ2KF-10 | 2026-08-31 12:45:02 | 51.00207 | 5.41983 | 261° | 16km/h | 22893m | 5.1m/s | -51.4°C | 3.7% | 37.2hPa | 2.5V | 00:00:00 | 02:14:32 | 08:30:00 | i |
| DM0DOS-11 | 2026-08-31 12:45:01 | 51.00206 | 5.41974 | 41° | 5km/h | 22859m | 6.2m/s | -51.5°C | 3.6% | 37.4hPa | 2.6V | 08:30:00 | 02:14:26 | 00:00:00 | i |
| DL1XH-west | 2026-08-31 12:45:00 | 51.00209 | 5.41993 | 236° | 5km/h | 22883m | 6.1m/s | -51.5°C | 0.5% | 37.3hPa | 2.6V | 18:12:15 | 02:14:30 | 00:00:00 | i |
| BUE01 | 2026-08-31 12:44:55 | 51.00206 | 5.41983 | 261° | 22km/h | 22847m | 4.9m/s | -51.4°C | 1.0% | 37.5hPa | 2.5V | 00:00:00 | 00:00:00 | 00:00:00 | |
| DM0DOS-11 | 2026-08-31 12:44:51 | 51.00216 | 5.41980 | 259° | 26km/h | 22801m | 5.6m/s | -51.1°C | 3.5% | 37.8hPa | 2.5V | 08:30:00 | 02:14:16 | 00:00:00 | i |
| DL1XH-west | 2026-08-31 12:44:49 | 51.00214 | 5.41980 | 98° | 22km/h | 22819m | 4m/s | -51.2°C | 0.3% | 37.6hPa | 2.6V | 18:12:15 | 02:14:19 | 00:00:00 | i |
| GOEST3-10 | 2026-08-31 12:44:49 | 51.00214 | 5.41980 | 99° | 18km/h | 22820m | 4.0m/s | -51.2°C | 3.5% | 37.6hPa | 2.6V | 00:00:00 | 00:00:00 | 08:30:00 | i |
| DL1XH-15 | 2026-08-31 12:44:48 | 51.00215 | 5.41974 | 261° | 9km/h | 22808m | 7.5m/s | -51.2°C | 3.4% | 37.7hPa | 2.5V | 08:30:00 | 02:14:17 | 00:00:00 | i |
| DD1CC8 | 2026-08-31 12:44:47 | 51.00217 | 5.41990 | 252° | 22km/h | 22796m | 4.0m/s | -51.1°C | 1.0% | 37.8hPa | 2.6V | 00:00:00 | 00:00:00 | 00:00:00 | |
| WPPR-10 | 2026-08-31 12:44:46 | 51.00217 | 5.41990 | 252° | 22km/h | 22796m | 4.0m/s | -51.1°C | 1.0% | 37.8hPa | 2.6V | 00:00:00 | 00:00:00 | 00:00:00 | |
| GOEST3-10 | 2026-08-31 12:44:44 | 51.00219 | 5.41996 | 222° | 20km/h | 22791m | 5.7m/s | -51.0°C | 3.5% | 37.8hPa | 2.6V | 00:00:00 | 02:14:14 | 00:00:00 | |
| DM0DOS-11 | 2026-08-31 12:44:41 | 51.00239 | 5.41985 | 246° | 13km/h | 22743m | 4.8m/s | -51.2°C | 3.5% | 38.1hPa | 2.6V | 08:30:00 | 02:14:06 | 00:00:00 | i |
| DL1XH-west | 2026-08-31 12:44:39 | 51.00234 | 5.41965 | 188° | 9km/h | 22760m | 7m/s | -51.2°C | 0.4% | 38hPa | 2.5V | 18:12:15 | 02:14:09 | 00:00:00 | i |
| BIOWL1-15 | 2026-08-31 12:44:39 | 51.00238 | 5.41978 | 258° | 24km/h | 22748m | 4m/s | -51.2°C | 0.4% | 38.1hPa | 2.6V | 18:12:15 | 02:14:07 | 00:00:00 | i |
| DL8DAS-14 | 2026-08-31 12:44:38 | 51.00238 | 5.41978 | 258° | 24km/h | 22748m | 4.0m/s | -51.2°C | 1.0% | 38.1hPa | 2.5V | 00:00:00 | 00:00:00 | 00:00:00 | |
| DL1XH-15 | 2026-08-31 12:44:36 | 51.00253 | 5.41943 | 129° | 22km/h | 22714m | 5.4m/s | -51.2°C | 3.5% | 38.3hPa | 2.5V | 08:30:00 | 02:14:01 | 00:00:00 | |
| GOEST3-10 | 2026-08-31 12:44:36 | 51.00239 | 5.41985 | 247° | 29km/h | 22744m | 4.7m/s | -51.1°C | 3.5% | 38.1hPa | 2.5V | 00:00:00 | 00:00:00 | 00:00:00 | |
| DJ3KS | 2026-08-31 12:44:35 | 51.00239 | 5.41985 | 248° | 13km/h | 22744m | 4.8m/s | -51.2°C | 1.0% | 38.1hPa | 2.5V | 00:00:00 | 00:00:00 | 00:00:00 | |
| DO1YAY-16 | 2026-08-31 12:44:33 | 51.00246 | 5.41967 | 110° | 38km/h | 22725m | 5.4m/s | -51.3°C | 1.0% | 38.2hPa | 2.5V | 00:00:00 | 00:00:00 | 00:00:00 | |
| DJ2KF-10 | 2026-08-31 12:44:32 | 51.00249 | 5.41953 | 116° | 13km/h | 22719m | 5.0m/s | -51.2°C | 3.5% | 38.2hPa | 2.5V | 00:00:00 | 02:14:02 | 00:00:00 | |
| GOEST3-10 | 2026-08-31 12:44:31 | 51.00253 | 5.41943 | 130° | 13km/h | 22714m | 5.3m/s | -51.2°C | 3.5% | 38.2hPa | 2.5V | 00:00:00 | 02:14:01 | 00:00:00 | |
| DM0DOS-11 | 2026-08-31 12:44:29 | 51.00261 | 5.41945 | 104° | 16km/h | 22686m | 6.7m/s | -51.3°C | 3.4% | 38.5hPa | 2.5V | 08:30:00 | 02:13:56 | 00:00:00 | i |
| BIOWL1-15 | 2026-08-31 12:44:29 | 51.00260 | 5.41949 | 171° | 4km/h | 22692m | 5.8m/s | -51.2°C | 0.3% | 38.4hPa | 2.5V | 18:12:15 | 02:13:57 | 00:00:00 | i |
| DL1XH-west | 2026-08-31 12:44:28 | 51.00260 | 5.41947 | 253° | 11km/h | 22697m | 4.8m/s | -51.2°C | 0.3% | 38.4hPa | 2.6V | 18:12:15 | 02:13:58 | 00:00:00 | i |
| GOEST3-10 | 2026-08-31 12:44:26 | 51.00261 | 5.41945 | 105° | 22km/h | 22686m | 6.6m/s | -51.2°C | 3.4% | 38.4hPa | 2.5V | 00:00:00 | 00:00:00 | 00:00:00 | |
| DL1XH-15 | 2026-08-31 12:44:24 | 51.00265 | 5.41906 | 297° | 7km/h | 22657m | 5.9m/s | -51.4°C | 3.5% | 38.6hPa | 2.5V | 08:30:00 | 02:13:51 | 00:00:00 | i |
| BUE01 | 2026-08-31 12:44:23 | 51.00265 | 5.41906 | 297° | 5km/h | 22657m | 5.9m/s | -51.4°C | 1.0% | 38.6hPa | 2.6V | 00:00:00 | 00:00:00 | 00:00:00 | |
| GOEST3-10 | 2026-08-31 12:44:21 | 51.00265 | 5.41906 | 298° | 18km/h | 22657m | 5.9m/s | -51.3°C | 3.5% | 38.6hPa | 2.6V | 00:00:00 | 02:13:51 | 00:00:00 | |
| DL1ZP-14 | 2026-08-31 12:44:20 | 51.00263 | 5.41909 | 53° | 4km/h | 22648m | 4.7m/s | -51.4°C | 1.0% | 38.7hPa | 2.6V | 00:00:00 | 00:00:00 | 00:00:00 | |
| DM0DOS-11 | 2026-08-31 12:44:19 | 51.00267 | 5.41866 | 107° | 29km/h | 22622m | 5.7m/s | -51.3°C | 3.7% | 38.8hPa | 2.5V | 08:30:00 | 02:13:45 | 00:00:00 | i |
| DL1XH-west | 2026-08-31 12:44:18 | 51.00263 | 5.41905 | 93° | 20km/h | 22642m | 7.2m/s | -51.5°C | 0.5% | 38.7hPa | 2.6V | 18:12:15 | 02:13:48 | 00:00:00 | i |
| BIOWL1-15 | 2026-08-31 12:44:15 | 51.00274 | 5.41802 | 88° | 22km/h | 22571m | 6.3m/s | -51.7°C | 0.3% | 39.1hPa | 2.6V | 18:12:15 | 02:13:36 | 00:00:00 | i |
| DL1XH-west | 2026-08-31 12:44:07 | 51.00274 | 5.41813 | 93° | 37km/h | 22577m | 4.6m/s | -51.7°C | 0.3% | 39.1hPa | 2.6V | 18:12:15 | 02:13:37 | 00:00:00 | i |
| DM0DOS-11 | 2026-08-31 12:44:06 | 51.00273 | 5.41796 | 52° | 7km/h | 22564m | 7.4m/s | -51.8°C | 3.5% | 39.2hPa | 2.6V | 08:30:00 | 02:13:35 | 00:00:00 | i |
| GOEST3-10 | 2026-08-31 12:44:06 | 51.00274 | 5.41801 | 89° | 13km/h | 22572m | 6.2m/s | -51.7°C | 3.4% | 39.1hPa | 2.5V | 00:00:00 | 00:00:00 | 00:00:00 | i |
| DL1XH-15 | 2026-08-31 12:44:04 | 51.00272 | 5.41796 | 332° | 9km/h | 22558m | 5.3m/s | -51.7°C | 3.5% | 39.2hPa | 2.5V | 08:30:00 | 02:13:34 | 00:00:00 | i |
| DJ2KF-10 | 2026-08-31 12:44:02 | 51.00268 | 5.41794 | 57° | 26km/h | 22547m | 5.8m/s | -51.8°C | 3.7% | 39.2hPa | 2.6V | 00:00:00 | 02:13:32 | 00:00:00 | |
| GOEST3-10 | 2026-08-31 12:44:01 | 51.00266 | 5.41786 | 76° | 22km/h | 22541m | 6.0m/s | -51.9°C | 3.8% | 39.3hPa | 2.6V | 00:00:00 | 02:13:31 | 08:30:00 | |
| DM0DOS-11 | 2026-08-31 12:43:59 | 51.00250 | 5.41748 | 342° | 11km/h | 22509m | 4.7m/s | -51.7°C | 3.5% | 39.5hPa | 2.5V | 08:30:00 | 02:13:25 | 00:00:00 | |
| DL1XH-west | 2026-08-31 12:43:57 | 51.00256 | 5.41746 | 18° | 15km/h | 22520m | 7.1m/s | -51.8°C | 0.4% | 39.5hPa | 2.6V | 18:12:15 | 02:13:27 | 00:00:00 | i |
| BIOWL1-15 | 2026-08-31 12:43:57 | 51.00250 | 5.41748 | 343° | 11km/h | 22509m | 4.7m/s | -51.7°C | 0.4% | 39.5hPa | 2.5V | 18:12:15 | 02:13:25 | 00:00:00 | i |
| GOEST3-10 | 2026-08-31 12:43:55 | 51.00250 | 5.41748 | 343° | 22km/h | 22509m | 4.6m/s | -51.7°C | 3.5% | 39.5hPa | 2.6V | 00:00:00 | 00:00:00 | 00:00:00 | |
| DL1XH-15 | 2026-08-31 12:43:53 | 51.00219 | 5.41719 | 331° | 18km/h | 22463m | 4.4m/s | -51.7°C | 3.5% | 39.8hPa | 2.6V | 08:30:00 | 02:13:17 | 00:00:00 | i |
| DJ2DS-15 | 2026-08-31 12:43:53 | 51.00243 | 5.41731 | 67° | 31km/h | 22491m | 4.8m/s | -51.7°C | 0.9% | 39.6hPa | 2.6V | 00:00:00 | 00:00:00 | 00:00:00 | i |
| DL1ZP-14 | 2026-08-31 12:43:49 | 51.00224 | 5.41715 | 326° | 24km/h | 22468m | 5.4m/s | -51.7°C | 1.0% | 39.8hPa | 2.6V | 00:00:00 | 00:00:00 | 00:00:00 | |
| DM0DOS-11 | 2026-08-31 12:43:48 | 51.00213 | 5.41715 | 69° | 22km/h | 22451m | 7.1m/s | -52°C | 3.7% | 39.9hPa | 2.5V | 08:30:00 | 02:13:15 | 00:00:00 | i |
| DL1XH-west | 2026-08-31 12:43:46 | 51.00215 | 5.41720 | 20° | 13km/h | 22457m | 6.1m/s | -51.8°C | 0.5% | 39.9hPa | 2.6V | 18:12:15 | 02:13:16 | 00:00:00 | i |
| DD1CC8 | 2026-08-31 12:43:45 | 51.00210 | 5.41706 | 66° | 29km/h | 22445m | 5.1m/s | -52.0°C | 1.0% | 39.9hPa | 2.6V | 00:00:00 | 00:00:00 | 00:00:00 | |
| WPPR-10 | 2026-08-31 12:43:43 | 51.00207 | 5.41696 | 49° | 27km/h | 22440m | 4.9m/s | -51.9°C | 1.0% | 40.0hPa | 2.6V | 00:00:00 | 00:00:00 | 00:00:00 | |
| GOEST3-10 | 2026-08-31 12:43:39 | 51.00179 | 5.41700 | 341° | 31km/h | 22416m | 5.2m/s | -52.1°C | 3.6% | 40.1hPa | 2.6V | 00:00:00 | 02:13:09 | 00:00:00 | |
| DM0DOS-11 | 2026-08-31 12:43:38 | 51.00153 | 5.41682 | 33° | 33km/h | 22392m | 5.6m/s | -52.2°C | 3.6% | 40.2hPa | 2.6V | 08:30:00 | 02:13:05 | 00:00:00 | i |
| BIOWL1-15 | 2026-08-31 12:43:38 | 51.00171 | 5.41703 | 0° | 27km/h | 22410m | 6.6m/s | -52.3°C | 0.4% | 40.1hPa | 2.5V | 18:12:15 | 02:13:08 | 00:00:00 | i |
| DL1XH-west | 2026-08-31 12:43:35 | 51.00152 | 5.41682 | 34° | 33km/h | 22392m | 5.6m/s | -52.2°C | 0.4% | 40.2hPa | 2.6V | 18:12:15 | 02:13:05 | 00:00:00 | i |
| DL1XH-15 | 2026-08-31 12:43:34 | 51.00137 | 5.41679 | 342° | 38km/h | 22379m | 6.2m/s | -52.2°C | 3.7% | 40.3hPa | 2.5V | 08:30:00 | 02:13:03 | 00:00:00 | i |
| BIOWL9-15 | 2026-08-31 12:43:34 | 51.00136 | 5.41679 | 342° | 38km/h | 22380m | 6.2m/s | -52.2°C | 1.0% | 40.3hPa | 2.5V | 00:00:00 | 00:00:00 | 00:00:00 | i |
| DJ2KF-10 | 2026-08-31 12:43:32 | 51.00127 | 5.41686 | 329° | 31km/h | 22374m | 4.2m/s | -52.3°C | 3.7% | 40.3hPa | 2.5V | 00:00:00 | 02:13:02 | 00:00:00 | |
| DO1YAY-16 | 2026-08-31 12:43:31 | 51.00117 | 5.41695 | 330° | 42km/h | 22370m | 4.2m/s | -52.4°C | 1.0% | 40.4hPa | 2.5V | 00:00:00 | 00:00:00 | 00:00:00 | |
| GOEST3-10 | 2026-08-31 12:43:29 | 51.00100 | 5.41702 | 10° | 31km/h | 22359m | 6.7m/s | -52.5°C | 3.8% | 40.4hPa | 2.5V | 00:00:00 | 02:12:59 | 00:00:00 | |
| DM0DOS-11 | 2026-08-31 12:43:27 | 51.00070 | 5.41689 | 340° | 37km/h | 22336m | 7.2m/s | -52.5°C | 3.9% | 40.6hPa | 2.5V | 08:30:00 | 02:12:55 | 00:00:00 | i |
| BIOWL1-15 | 2026-08-31 12:43:25 | 51.00070 | 5.41689 | 341° | 37km/h | 22336m | 7.2m/s | -52.5°C | 0.6% | 40.6hPa | 2.5V | 18:12:15 | 02:12:55 | 00:00:00 | i |
| DL1XH-west | 2026-08-31 12:43:24 | 51.00061 | 5.41697 | 322° | 46km/h | 22329m | 5.5m/s | -52.5°C | 0.6% | 40.6hPa | 2.5V | 18:12:15 | 02:12:54 | 00:00:00 | i |
| GOEST3-10 | 2026-08-31 12:43:23 | 51.00053 | 5.41708 | 318° | 35km/h | 22325m | 3.7m/s | -52.4°C | 3.9% | 40.6hPa | 2.6V | 00:00:00 | 00:00:00 | 00:00:00 | |
| DL1ZP-14 | 2026-08-31 12:43:18 | 51.00010 | 5.41705 | 346° | 26km/h | 22290m | 6.1m/s | -52.2°C | 1.0% | 40.9hPa | 2.6V | 00:00:00 | 00:00:00 | 00:00:00 | |
| DM0DOS-11 | 2026-08-31 12:43:16 | 50.99999 | 5.41720 | 305° | 31km/h | 22278m | 5.2m/s | -52.2°C | 3.7% | 41hPa | 2.6V | 08:30:00 | 02:12:45 | 00:00:00 | i |
| DL1XH-west | 2026-08-31 12:43:14 | 50.99995 | 5.41729 | 313° | 26km/h | 22273m | 5.7m/s | -52.2°C | 0.5% | 41hPa | 2.5V | 18:12:15 | 02:12:44 | 00:00:00 | i |
| DD1CC8 | 2026-08-31 12:43:14 | 50.99990 | 5.41734 | 343° | 20km/h | 22267m | 6.0m/s | -52.3°C | 1.0% | 41.0hPa | 2.5V | 00:00:00 | 00:00:00 | 00:00:00 | i |
| GOEST3-10 | 2026-08-31 12:43:13 | 50.99990 | 5.41734 | 344° | 26km/h | 22267m | 5.9m/s | -52.2°C | 3.7% | 41.0hPa | 2.5V | 00:00:00 | 00:00:00 | 08:30:00 | |
| BIOWL1-15 | 2026-08-31 12:43:13 | 50.99990 | 5.41734 | 343° | 20km/h | 22267m | 6m/s | -52.3°C | 0.5% | 41hPa | 2.5V | 18:12:15 | 02:12:43 | 00:00:00 | |
| WPPR-10 | 2026-08-31 12:43:12 | 50.99958 | 5.41733 | 315° | 33km/h | 22238m | 6.8m/s | -52.1°C | 1.0% | 41.2hPa | 2.6V | 00:00:00 | 00:00:00 | 00:00:00 | |
| GOEST3-10 | 2026-08-31 12:43:08 | 50.99958 | 5.41733 | 316° | 26km/h | 22238m | 6.8m/s | -52.0°C | 3.7% | 41.2hPa | 2.6V | 00:00:00 | 02:12:38 | 00:00:00 | |
| DM0DOS-11 | 2026-08-31 12:43:06 | 50.99944 | 5.41758 | 338° | 16km/h | 22221m | 6.8m/s | -52°C | 3.7% | 41.3hPa | 2.6V | 08:30:00 | 02:12:35 | 00:00:00 | i |
| DL1XH-west | 2026-08-31 12:43:04 | 50.99936 | 5.41753 | 33° | 24km/h | 22210m | 3.9m/s | -51.9°C | 0.6% | 41.4hPa | 2.6V | 18:12:15 | 02:12:33 | 00:00:00 | i |
| BIOWL1-15 | 2026-08-31 12:43:02 | 50.99931 | 5.41749 | 12° | 22km/h | 22205m | 4.7m/s | -51.8°C | 0.5% | 41.4hPa | 2.5V | 18:12:15 | 02:12:32 | 00:00:00 | i |
| DJ2KF-10 | 2026-08-31 12:43:02 | 50.99931 | 5.41749 | 13° | 26km/h | 22206m | 4.7m/s | -51.8°C | 3.7% | 41.4hPa | 2.6V | 00:00:00 | 02:12:32 | 00:00:00 | i |
| DL1XH-15 | 2026-08-31 12:43:00 | 50.99920 | 5.41758 | 306° | 35km/h | 22192m | 6.9m/s | -51.8°C | 3.8% | 41.5hPa | 2.6V | 08:30:00 | 02:12:30 | 00:00:00 | i |
| DO1YAY-16 | 2026-08-31 12:43:00 | 50.99920 | 5.41758 | 306° | 33km/h | 22193m | 6.9m/s | -51.8°C | 1.0% | 41.5hPa | 2.5V | 00:00:00 | 00:00:00 | 00:00:00 | i |
| GOEST3-10 | 2026-08-31 12:42:57 | 50.99908 | 5.41789 | 325° | 20km/h | 22179m | 6.6m/s | -51.8°C | 3.7% | 41.6hPa | 2.5V | 00:00:00 | 02:12:27 | 00:00:00 | |
| DM0DOS-11 | 2026-08-31 12:42:56 | 50.99900 | 5.41784 | 46° | 24km/h | 22164m | 5.5m/s | -51.6°C | 3.6% | 41.7hPa | 2.6V | 08:30:00 | 02:12:25 | 00:00:00 | i |
| DL1XH-15 | 2026-08-31 12:42:54 | 50.99878 | 5.41808 | 295° | 33km/h | 22135m | 5.8m/s | -51.6°C | 3.6% | 41.9hPa | 2.6V | 08:30:00 | 02:12:20 | 00:00:00 | |
| DL1XH-west | 2026-08-31 12:42:53 | 50.99886 | 5.41783 | 310° | 31km/h | 22147m | 7.4m/s | -51.6°C | 0.4% | 41.8hPa | 2.6V | 18:12:15 | 02:12:22 | 00:00:00 | i |
| BIOWL1-15 | 2026-08-31 12:42:52 | 50.99871 | 5.41821 | 359° | 15km/h | 22123m | 6.2m/s | -51.6°C | 0.5% | 42hPa | 2.5V | 18:12:15 | 02:12:18 | 00:00:00 | i |
| BUE01 | 2026-08-31 12:42:50 | 50.99858 | 5.41813 | 357° | 18km/h | 22107m | 6.2m/s | -51.3°C | 1.0% | 42.1hPa | 2.5V | 00:00:00 | 00:00:00 | 00:00:00 | |
| GOEST3-10 | 2026-08-31 12:42:46 | 50.99862 | 5.41815 | 27° | 27km/h | 22112m | 4.5m/s | -51.2°C | 3.6% | 42.0hPa | 2.5V | 00:00:00 | 02:12:16 | 00:00:00 | |
| DB0ND-19 | 2026-08-31 12:42:45 | 50.99848 | 5.41827 | 300° | 35km/h | 22094m | 5.1m/s | -51.3°C | 1.0% | 42.2hPa | 2.5V | 00:00:00 | 00:00:00 | 00:00:00 | |
| DL1XH-15 | 2026-08-31 12:42:42 | 50.99825 | 5.41833 | 21° | 16km/h | 22062m | 5m/s | -51°C | 3.5% | 42.4hPa | 2.5V | 08:30:00 | 02:12:07 | 00:00:00 | i |
| DL1XH-west | 2026-08-31 12:42:41 | 50.99840 | 5.41847 | 314° | 20km/h | 22085m | 5.1m/s | -51.2°C | 0.4% | 42.2hPa | 2.5V | 18:12:15 | 02:12:11 | 00:00:00 | i |
| DL1XH-west | 2026-08-31 12:42:30 | 50.99806 | 5.41876 | 51° | 22km/h | 22018m | 5.3m/s | -50.9°C | 0.4% | 42.6hPa | 2.5V | 18:12:15 | 02:12:00 | 00:00:00 | i |
| DL1XH-15 | 2026-08-31 12:42:30 | 50.99798 | 5.41871 | 289° | 18km/h | 22002m | 6.7m/s | -50.8°C | 3.5% | 42.8hPa | 2.5V | 08:30:00 | 02:11:57 | 00:00:00 | i |
| BIOWL1-15 | 2026-08-31 12:42:29 | 50.99803 | 5.41870 | 39° | 18km/h | 22013m | 4.8m/s | -50.8°C | 0.4% | 42.7hPa | 2.6V | 18:12:15 | 02:11:59 | 00:00:00 | i |
| DM0DOS-11 | 2026-08-31 12:42:27 | 50.99797 | 5.41890 | 262° | 24km/h | 21990m | 5m/s | -50.8°C | 3.5% | 42.9hPa | 2.6V | 08:30:00 | 02:11:55 | 00:00:00 | i |
| BIOWL1-15 | 2026-08-31 12:42:21 | 50.99780 | 5.41896 | 300° | 20km/h | 21957m | 6.1m/s | -50.8°C | 0.4% | 43.1hPa | 2.6V | 18:12:15 | 02:11:49 | 00:00:00 | i |
| DL1XH-west | 2026-08-31 12:42:20 | 50.99784 | 5.41892 | 351° | 18km/h | 21963m | 5.7m/s | -50.8°C | 0.4% | 43hPa | 2.6V | 18:12:15 | 02:11:50 | 00:00:00 | i |
| GOEST3-10 | 2026-08-31 12:42:20 | 50.99784 | 5.41892 | 351° | 22km/h | 21963m | 5.7m/s | -50.8°C | 3.6% | 42.9hPa | 2.6V | 00:00:00 | 02:11:50 | 08:30:00 | i |
| DL1XH-15 | 2026-08-31 12:42:18 | 50.99780 | 5.41915 | 249° | 26km/h | 21947m | 4.2m/s | -50.7°C | 3.5% | 43.1hPa | 2.5V | 08:30:00 | 02:11:47 | 00:00:00 | i |
| DM0DOS-11 | 2026-08-31 12:42:17 | 50.99783 | 5.41926 | 280° | 4km/h | 21938m | 5.7m/s | -50.8°C | 3.4% | 43.2hPa | 2.6V | 08:30:00 | 02:11:45 | 00:00:00 | i |
| DL1XH-west | 2026-08-31 12:42:10 | 50.99771 | 5.41934 | 255° | 22km/h | 21910m | 6.4m/s | -50.6°C | 0.3% | 43.4hPa | 2.5V | 18:12:15 | 02:11:40 | 00:00:00 | i |
| BIOWL1-15 | 2026-08-31 12:42:08 | 50.99776 | 5.41947 | 219° | 11km/h | 21899m | 5.6m/s | -50.6°C | 0.3% | 43.5hPa | 2.6V | 18:12:15 | 02:11:38 | 00:00:00 | i |
| DM0DOS-11 | 2026-08-31 12:42:06 | 50.99771 | 5.41936 | 42° | 24km/h | 21879m | 5.6m/s | -50.6°C | 3.3% | 43.6hPa | 2.5V | 08:30:00 | 02:11:35 | 00:00:00 | i |
| GOEST3-10 | 2026-08-31 12:42:05 | 50.99771 | 5.41936 | 43° | 16km/h | 21879m | 5.6m/s | -50.5°C | 3.3% | 43.5hPa | 2.5V | 00:00:00 | 00:00:00 | 00:00:00 | |
| DL1XH-15 | 2026-08-31 12:42:04 | 50.99765 | 5.41937 | 254° | 16km/h | 21861m | 4.9m/s | -50.6°C | 3.3% | 43.7hPa | 2.6V | 08:30:00 | 02:11:32 | 00:00:00 | i |
| DL1XH-west | 2026-08-31 12:41:59 | 50.99765 | 5.41939 | 60° | 24km/h | 21839m | 5.8m/s | -50.8°C | 0.3% | 43.8hPa | 2.6V | 18:12:15 | 02:11:28 | 00:00:00 | i |
| BIOWL1-15 | 2026-08-31 12:41:57 | 50.99764 | 5.41929 | 227° | 13km/h | 21813m | 3.3m/s | -51°C | 0.4% | 44.1hPa | 2.6V | 18:12:15 | 02:11:23 | 00:00:00 | i |
| DM0DOS-11 | 2026-08-31 12:41:56 | 50.99760 | 5.41922 | 197° | 4km/h | 21823m | 6.7m/s | -50.9°C | 3.4% | 44hPa | 2.5V | 08:30:00 | 02:11:25 | 00:00:00 | i |
| GOEST3-10 | 2026-08-31 12:41:54 | 50.99761 | 5.41925 | 226° | 13km/h | 21817m | 5.4m/s | -50.9°C | 3.4% | 43.9hPa | 2.5V | 00:00:00 | 00:00:00 | 00:00:00 | |
| DL1XH-15 | 2026-08-31 12:41:53 | 50.99765 | 5.41931 | 176° | 4km/h | 21808m | 5.4m/s | -51°C | 3.4% | 44hPa | 2.5V | 08:30:00 | 02:11:22 | 00:00:00 | i |
| BIOWL1-15 | 2026-08-31 12:41:49 | 50.99756 | 5.41900 | 9° | 16km/h | 21756m | 6.1m/s | -51.2°C | 0.3% | 44.4hPa | 2.6V | 18:12:15 | 02:11:13 | 00:00:00 | i |
| DL1XH-west | 2026-08-31 12:41:47 | 50.99758 | 5.41888 | 108° | 7km/h | 21779m | 6.7m/s | -51.1°C | 0.3% | 44.3hPa | 2.5V | 18:12:15 | 02:11:17 | 00:00:00 | i |
| DM0DOS-11 | 2026-08-31 12:41:46 | 50.99760 | 5.41894 | 265° | 16km/h | 21766m | 5m/s | -51.1°C | 3.4% | 44.3hPa | 2.5V | 08:30:00 | 02:11:15 | 00:00:00 | i |
| DL1ZP-14 | 2026-08-31 12:41:45 | 50.99759 | 5.41899 | 306° | 11km/h | 21762m | 5.3m/s | -51.1°C | 1.0% | 44.4hPa | 2.6V | 00:00:00 | 00:00:00 | 00:00:00 | |
| GOEST3-10 | 2026-08-31 12:41:44 | 50.99759 | 5.41899 | 307° | 16km/h | 21762m | 5.2m/s | -51.1°C | 3.4% | 44.3hPa | 2.5V | 00:00:00 | 00:00:00 | 00:00:00 | |
| DL1XH-15 | 2026-08-31 12:41:43 | 50.99742 | 5.41876 | 96° | 9km/h | 21732m | 5.9m/s | -51.4°C | 3.5% | 44.6hPa | 2.5V | 08:30:00 | 02:11:09 | 00:00:00 | i |
| DL1XH-west | 2026-08-31 12:41:37 | 50.99744 | 5.41876 | 250° | 7km/h | 21722m | 3.8m/s | -51.3°C | 0.4% | 44.6hPa | 2.6V | 18:12:15 | 02:11:07 | 00:00:00 | i |
| DM0DOS-11 | 2026-08-31 12:41:36 | 50.99741 | 5.41878 | 14° | 15km/h | 21712m | 6.1m/s | -51.3°C | 3.5% | 44.7hPa | 2.5V | 08:30:00 | 02:11:05 | 00:00:00 | i |
| BIOWL1-15 | 2026-08-31 12:41:32 | 50.99724 | 5.41866 | 340° | 7km/h | 21690m | 6.1m/s | -51.5°C | 0.4% | 44.9hPa | 2.6V | 18:12:15 | 02:11:01 | 00:00:00 | i |
| HTAHTA | 2026-08-31 12:41:32 | 50.99724 | 5.41866 | 339° | 5km/h | 21690m | 6.1m/s | -51.5°C | 1.0% | 44.9hPa | 2.5V | 00:00:00 | 00:00:00 | 00:00:00 | i |
| DL1XH-15 | 2026-08-31 12:41:30 | 50.99722 | 5.41871 | 311° | 9km/h | 21681m | 4.2m/s | -51.5°C | 3.4% | 44.9hPa | 2.5V | 08:30:00 | 02:10:59 | 00:00:00 | i |
| BIOWL9-15 | 2026-08-31 12:41:29 | 50.99722 | 5.41871 | 311° | 9km/h | 21681m | 4.2m/s | -51.5°C | 1.0% | 44.9hPa | 2.5V | 00:00:00 | 00:00:00 | 00:00:00 | |
| GOEST3-10 | 2026-08-31 12:41:28 | 50.99719 | 5.41873 | 355° | 20km/h | 21676m | 6.2m/s | -51.5°C | 3.5% | 44.9hPa | 2.5V | 00:00:00 | 02:10:58 | 00:00:00 | |
| DM0DOS-11 | 2026-08-31 12:41:26 | 50.99702 | 5.41861 | 30° | 26km/h | 21658m | 5m/s | -51.8°C | 3.5% | 45.1hPa | 2.5V | 08:30:00 | 02:10:55 | 00:00:00 | i |
| DL1XH-west | 2026-08-31 12:41:26 | 50.99708 | 5.41867 | 28° | 31km/h | 21663m | 4.7m/s | -51.8°C | 0.4% | 45.1hPa | 2.6V | 18:12:15 | 02:10:56 | 00:00:00 | i |
| DL1XH-15 | 2026-08-31 12:41:25 | 50.99678 | 5.41844 | 30° | 29km/h | 21621m | 4.2m/s | -52.2°C | 3.7% | 45.4hPa | 2.6V | 08:30:00 | 02:10:48 | 00:00:00 | i |
| BIOWL1-15 | 2026-08-31 12:41:22 | 50.99693 | 5.41856 | 9° | 9km/h | 21638m | 5m/s | -52.1°C | 0.5% | 45.2hPa | 2.5V | 18:12:15 | 02:10:51 | 00:00:00 | i |
| GOEST3-10 | 2026-08-31 12:41:18 | 50.99678 | 5.41844 | 31° | 15km/h | 21622m | 4.1m/s | -52.2°C | 3.7% | 45.3hPa | 2.6V | 00:00:00 | 02:10:48 | 00:00:00 | |
| BUE01 | 2026-08-31 12:41:17 | 50.99673 | 5.41839 | 26° | 20km/h | 21617m | 5.8m/s | -52.2°C | 1.0% | 45.4hPa | 2.5V | 00:00:00 | 00:00:00 | 00:00:00 | |
| DM0DOS-11 | 2026-08-31 12:41:16 | 50.99667 | 5.41838 | 320° | 7km/h | 21605m | 4.5m/s | -52.3°C | 3.7% | 45.5hPa | 2.5V | 08:30:00 | 02:10:45 | 00:00:00 | i |
| DL1XH-west | 2026-08-31 12:41:16 | 50.99669 | 5.41837 | 1° | 11km/h | 21610m | 6.3m/s | -52.3°C | 0.5% | 45.4hPa | 2.5V | 18:12:15 | 02:10:46 | 00:00:00 | i |
| DL4BBY-15 | 2026-08-31 12:41:16 | 50.99669 | 5.41837 | 2° | 20km/h | 21611m | 6.2m/s | -52.0°C | 0% | 0hPa | 2.5V | 00:00:00 | 00:00:00 | 00:00:00 | i |
| GOEST3-10 | 2026-08-31 12:41:14 | 50.99662 | 5.41838 | 17° | 20km/h | 21596m | 6.2m/s | -52.2°C | 3.6% | 45.5hPa | 2.5V | 00:00:00 | 00:00:00 | 00:00:00 | |
| DL1XH-15 | 2026-08-31 12:41:13 | 50.99638 | 5.41820 | 16° | 16km/h | 21574m | 6.4m/s | -52.3°C | 3.6% | 45.7hPa | 2.5V | 08:30:00 | 02:10:39 | 00:00:00 | i |
| DL1XH-west | 2026-08-31 12:41:06 | 50.99631 | 5.41824 | 356° | 13km/h | 21559m | 5.3m/s | -52.4°C | 0.5% | 45.8hPa | 2.6V | 18:12:15 | 02:10:36 | 00:00:00 | i |
| DL1XH-15 | 2026-08-31 12:41:02 | 50.99601 | 5.41805 | 306° | 13km/h | 21523m | 3.3m/s | -52.9°C | 3.8% | 46hPa | 2.6V | 08:30:00 | 02:10:29 | 00:00:00 | i |
| DL1XH-west | 2026-08-31 12:40:56 | 50.99578 | 5.41788 | 43° | 38km/h | 21500m | 4.7m/s | -52.9°C | 0.5% | 46.2hPa | 2.6V | 18:12:15 | 02:10:25 | 00:00:00 | i |
| BIOWL1-15 | 2026-08-31 12:40:53 | 50.99558 | 5.41780 | 9° | 24km/h | 21467m | 5.7m/s | -52.8°C | 0.6% | 46.4hPa | 2.5V | 18:12:15 | 02:10:19 | 00:00:00 | i |
| DJ2DS-15 | 2026-08-31 12:40:52 | 50.99565 | 5.41777 | 301° | 11km/h | 21478m | 4.9m/s | -52.9°C | 1.1% | 46.4hPa | 2.6V | 00:00:00 | 00:00:00 | 00:00:00 | |
| GOEST3-10 | 2026-08-31 12:40:51 | 50.99565 | 5.41777 | 302° | 20km/h | 21478m | 4.8m/s | -52.9°C | 3.7% | 46.3hPa | 2.6V | 00:00:00 | 00:00:00 | 00:00:00 | |
| DM0DOS-11 | 2026-08-31 12:40:50 | 50.99524 | 5.41766 | 350° | 18km/h | 21441m | 4.2m/s | -52.8°C | 3.8% | 46.6hPa | 2.6V | 08:30:00 | 02:10:14 | 00:00:00 | i |
| DL4BBY-15 | 2026-08-31 12:40:46 | 50.99536 | 5.41768 | 17° | 24km/h | 21452m | 5.4m/s | -52.5°C | 0% | 0hPa | 2.6V | 00:00:00 | 00:00:00 | 00:00:00 | |
| DL1XH-15 | 2026-08-31 12:40:44 | 50.99495 | 5.41763 | 2° | 24km/h | 21417m | 4.8m/s | -52.9°C | 3.7% | 46.8hPa | 2.6V | 08:30:00 | 02:10:09 | 00:00:00 | i |
| DL1XH-west | 2026-08-31 12:40:44 | 50.99524 | 5.41766 | 351° | 18km/h | 21442m | 4.2m/s | -52.8°C | 0.6% | 46.6hPa | 2.6V | 18:12:15 | 02:10:14 | 00:00:00 | i |
| BIOWL1-15 | 2026-08-31 12:40:39 | 50.99495 | 5.41763 | 2° | 24km/h | 21417m | 4.8m/s | -52.9°C | 0.5% | 46.8hPa | 2.6V | 18:12:15 | 02:10:09 | 00:00:00 | i |
| DM0DOS-11 | 2026-08-31 12:40:39 | 50.99471 | 5.41764 | 19° | 29km/h | 21390m | 5.4m/s | -53.3°C | 3.9% | 47hPa | 2.6V | 08:30:00 | 02:10:04 | 00:00:00 | i |
| DL1XH-west | 2026-08-31 12:40:34 | 50.99464 | 5.41760 | 14° | 31km/h | 21386m | 4m/s | -53.3°C | 0.6% | 47.1hPa | 2.6V | 18:12:15 | 02:10:03 | 00:00:00 | i |
| DL1XH-15 | 2026-08-31 12:40:33 | 50.99442 | 5.41775 | 309° | 26km/h | 21363m | 4.2m/s | -53.3°C | 4% | 47.2hPa | 2.6V | 08:30:00 | 02:09:59 | 00:00:00 | i |
| BIOWL1-15 | 2026-08-31 12:40:28 | 50.99437 | 5.41781 | 331° | 24km/h | 21359m | 5.9m/s | -53.3°C | 0.7% | 47.2hPa | 2.6V | 18:12:15 | 02:09:58 | 00:00:00 | i |
| DM0DOS-11 | 2026-08-31 12:40:27 | 50.99409 | 5.41778 | 349° | 26km/h | 21338m | 6.2m/s | -53°C | 4% | 47.4hPa | 2.6V | 08:30:00 | 02:09:54 | 00:00:00 | i |
| GOEST3-10 | 2026-08-31 12:40:26 | 50.99423 | 5.41781 | 17° | 29km/h | 21347m | 4.1m/s | -53.2°C | 4.1% | 47.3hPa | 2.6V | 00:00:00 | 02:09:56 | 00:00:00 | |
| DO1YAY-16 | 2026-08-31 12:40:25 | 50.99409 | 5.41778 | 349° | 24km/h | 21338m | 6.2m/s | -53.0°C | 1.1% | 47.4hPa | 2.6V | 00:00:00 | 00:00:00 | 00:00:00 | |
| DL1XH-15 | 2026-08-31 12:40:24 | 50.99392 | 5.41810 | 16° | 20km/h | 21309m | 6.7m/s | -53°C | 3.9% | 47.6hPa | 2.6V | 08:30:00 | 02:09:49 | 00:00:00 | i |
| DL1XH-west | 2026-08-31 12:40:22 | 50.99401 | 5.41792 | 288° | 29km/h | 21325m | 4.6m/s | -53.1°C | 0.6% | 47.5hPa | 2.5V | 18:12:15 | 02:09:52 | 00:00:00 | i |
| BIOWL1-15 | 2026-08-31 12:40:18 | 50.99374 | 5.41798 | 2° | 22km/h | 21292m | 6.1m/s | -52.7°C | 0.6% | 47.7hPa | 2.5V | 18:12:15 | 02:09:46 | 00:00:00 | i |
| DM0DOS-11 | 2026-08-31 12:40:16 | 50.99366 | 5.41809 | 291° | 26km/h | 21280m | 4.5m/s | -52.7°C | 3.9% | 47.8hPa | 2.6V | 08:30:00 | 02:09:44 | 00:00:00 | i |
| DJ2DS-15 | 2026-08-31 12:40:16 | 50.99369 | 5.41801 | 315° | 20km/h | 21286m | 6.3m/s | -52.8°C | 1.1% | 47.8hPa | 2.6V | 00:00:00 | 00:00:00 | 00:00:00 | i |
| BUE01 | 2026-08-31 12:40:15 | 50.99364 | 5.41818 | 291° | 24km/h | 21276m | 4.6m/s | 0°C | -1.0% | 47.9hPa | 2.6V | 00:00:00 | 00:00:00 | 00:00:00 | |
| DL1XH-15 | 2026-08-31 12:40:12 | 50.99346 | 5.41821 | 19° | 26km/h | 21255m | 3.6m/s | -52.5°C | 3.8% | 48hPa | 2.6V | 08:30:00 | 02:09:39 | 00:00:00 | i |
| DL1XH-west | 2026-08-31 12:40:11 | 50.99357 | 5.41827 | 3° | 18km/h | 21265m | 6m/s | -52.7°C | 0.6% | 47.9hPa | 2.5V | 18:12:15 | 02:09:41 | 00:00:00 | |
| BIOWL1-15 | 2026-08-31 12:40:06 | 50.99334 | 5.41839 | 262° | 18km/h | 21234m | 4.6m/s | -52.4°C | 0.5% | 48.2hPa | 2.5V | 18:12:15 | 02:09:35 | 00:00:00 | i |
| WPPR-10 | 2026-08-31 12:40:06 | 50.99334 | 5.41830 | 278° | 22km/h | 21239m | 5.4m/s | -52.5°C | 1.1% | 48.1hPa | 2.5V | 00:00:00 | 00:00:00 | 00:00:00 | i |
| DM0DOS-11 | 2026-08-31 12:40:05 | 50.99334 | 5.41844 | 256° | 9km/h | 21229m | 5.7m/s | -52.4°C | 3.7% | 48.2hPa | 2.5V | 08:30:00 | 02:09:34 | 00:00:00 | i |
| GOEST3-10 | 2026-08-31 12:40:05 | 50.99334 | 5.41838 | 263° | 15km/h | 21234m | 4.6m/s | -52.3°C | 3.7% | 48.1hPa | 2.5V | 00:00:00 | 02:09:35 | 00:00:00 | i |
| DJ2KF-10 | 2026-08-31 12:40:02 | 50.99332 | 5.41842 | 30° | 15km/h | 21218m | 4.6m/s | -52.2°C | 3.8% | 48.2hPa | 2.5V | 00:00:00 | 02:09:32 | 00:00:00 | |
| DL1XH-15 | 2026-08-31 12:40:01 | 50.99316 | 5.41847 | 316° | 29km/h | 21201m | 4.8m/s | -52.3°C | 3.8% | 48.4hPa | 2.5V | 08:30:00 | 02:09:29 | 00:00:00 | i |
| DL1XH-west | 2026-08-31 12:40:01 | 50.99327 | 5.41840 | 8° | 22km/h | 21213m | 5.4m/s | -52.3°C | 0.6% | 48.3hPa | 2.6V | 18:12:15 | 02:09:31 | 00:00:00 | i |
| HTAHTA | 2026-08-31 12:39:58 | 50.99309 | 5.41864 | 220° | 0km/h | 21186m | 7.3m/s | -52.2°C | 1.0% | 48.5hPa | 2.6V | 00:00:00 | 00:00:00 | 00:00:00 | |
| BIOWL9-15 | 2026-08-31 12:39:56 | 50.99311 | 5.41858 | 242° | 2km/h | 21170m | 6.0m/s | -52.4°C | 1.1% | 48.6hPa | 2.6V | 00:00:00 | 00:00:00 | 00:00:00 | |
| DM0DOS-11 | 2026-08-31 12:39:55 | 50.99310 | 5.41859 | 117° | 7km/h | 21175m | 4.2m/s | -52.3°C | 3.7% | 48.6hPa | 2.6V | 08:30:00 | 02:09:24 | 00:00:00 | i |
| GOEST3-10 | 2026-08-31 12:39:55 | 50.99309 | 5.41862 | 113° | 13km/h | 21180m | 5.7m/s | -52.2°C | 3.7% | 48.5hPa | 2.5V | 00:00:00 | 02:09:25 | 00:00:00 | i |
| DL1XH-15 | 2026-08-31 12:39:54 | 50.99306 | 5.41882 | 307° | 7km/h | 21148m | 5.9m/s | -52.4°C | 3.8% | 48.8hPa | 2.5V | 08:30:00 | 02:09:19 | 00:00:00 | i |
| DL1XH-west | 2026-08-31 12:39:51 | 50.99306 | 5.41882 | 307° | 7km/h | 21148m | 5.9m/s | -52.4°C | 0.6% | 48.8hPa | 2.5V | 18:12:15 | 02:09:19 | 00:00:00 | i |
| BIOWL1-15 | 2026-08-31 12:39:50 | 50.99307 | 5.41871 | 294° | 13km/h | 21120m | 5.7m/s | -52.5°C | 0.6% | 49hPa | 2.5V | 18:12:15 | 02:09:14 | 00:00:00 | i |
| GOEST3-10 | 2026-08-31 12:39:50 | 50.99307 | 5.41877 | 292° | 13km/h | 21153m | 4.8m/s | -52.4°C | 3.7% | 48.7hPa | 2.5V | 00:00:00 | 00:00:00 | 00:00:00 | i |
| DL4BBY-15 | 2026-08-31 12:39:46 | 50.99307 | 5.41871 | 107° | 13km/h | 21132m | 4.5m/s | -52.1°C | 0% | 0hPa | 2.5V | 00:00:00 | 00:00:00 | 00:00:00 | |
| GOEST3-10 | 2026-08-31 12:39:45 | 50.99307 | 5.41869 | 124° | 9km/h | 21126m | 6.2m/s | -52.3°C | 3.8% | 48.9hPa | 2.5V | 00:00:00 | 02:09:15 | 00:00:00 | |
| BUE01 | 2026-08-31 12:39:44 | 50.99305 | 5.41876 | 297° | 16km/h | 21115m | 4.0m/s | 0°C | -1.0% | 49.1hPa | 2.5V | 00:00:00 | 00:00:00 | 00:00:00 | |
| DL1XH-15 | 2026-08-31 12:39:42 | 50.99301 | 5.41871 | 90° | 22km/h | 21094m | 4.5m/s | -52.3°C | 3.8% | 49.2hPa | 2.5V | 08:30:00 | 02:09:09 | 00:00:00 | |
| DL1XH-west | 2026-08-31 12:39:39 | 50.99301 | 5.41871 | 91° | 22km/h | 21094m | 4.5m/s | -52.3°C | 0.6% | 49.2hPa | 2.5V | 18:12:15 | 02:09:09 | 00:00:00 | i |
| BIOWL1-15 | 2026-08-31 12:39:37 | 50.99302 | 5.41863 | 253° | 13km/h | 21078m | 5.4m/s | -52.3°C | 0.6% | 49.3hPa | 2.6V | 18:12:15 | 02:09:06 | 00:00:00 | i |
| DD1CC8 | 2026-08-31 12:39:36 | 50.99302 | 5.41863 | 253° | 13km/h | 21079m | 5.4m/s | -52.3°C | 1.1% | 49.3hPa | 2.5V | 00:00:00 | 00:00:00 | 00:00:00 | |
| DL1XH-15 | 2026-08-31 12:39:35 | 50.99311 | 5.41862 | 359° | 9km/h | 21042m | 6m/s | -52.1°C | 3.7% | 49.6hPa | 2.5V | 08:30:00 | 02:08:59 | 00:00:00 | i |
| DJ2KF-10 | 2026-08-31 12:39:32 | 50.99312 | 5.41874 | 128° | 15km/h | 21058m | 5.2m/s | -52.2°C | 3.8% | 49.5hPa | 2.6V | 00:00:00 | 02:09:02 | 00:00:00 | |
| GOEST3-10 | 2026-08-31 12:39:30 | 50.99313 | 5.41864 | 65° | 9km/h | 21048m | 5.2m/s | -52.1°C | 3.7% | 49.5hPa | 2.6V | 00:00:00 | 00:00:00 | 00:00:00 | |
| DM0DOS-11 | 2026-08-31 12:39:29 | 50.99319 | 5.41853 | 129° | 22km/h | 21011m | 4.2m/s | -51.9°C | 3.6% | 49.9hPa | 2.6V | 08:30:00 | 02:08:53 | 00:00:00 | i |
| DL1XH-west | 2026-08-31 12:39:28 | 50.99309 | 5.41864 | 304° | 13km/h | 21037m | 4.3m/s | -52.1°C | 0.5% | 49.7hPa | 2.5V | 18:12:15 | 02:08:58 | 00:00:00 | |
| BIOWL1-15 | 2026-08-31 12:39:27 | 50.99308 | 5.41867 | 275° | 9km/h | 21033m | 3.9m/s | -52°C | 0.5% | 49.7hPa | 2.6V | 18:12:15 | 02:08:57 | 00:00:00 | i |
| GOEST3-10 | 2026-08-31 12:39:25 | 50.99311 | 5.41867 | 141° | 16km/h | 21021m | 7.0m/s | -52.1°C | 3.7% | 49.7hPa | 2.5V | 00:00:00 | 02:08:55 | 00:00:00 | |
| DL1XH-15 | 2026-08-31 12:39:23 | 50.99319 | 5.41856 | 320° | 13km/h | 20989m | 4.5m/s | -51.9°C | 3.6% | 50hPa | 2.5V | 08:30:00 | 02:08:49 | 00:00:00 | i |
| DL1XH-west | 2026-08-31 12:39:18 | 50.99318 | 5.41857 | 35° | 7km/h | 20984m | 5.6m/s | -51.9°C | 0.5% | 50hPa | 2.5V | 18:12:15 | 02:08:48 | 00:00:00 | i |
| DM0DOS-11 | 2026-08-31 12:39:18 | 50.99324 | 5.41830 | 269° | 7km/h | 20958m | 6.1m/s | -51.9°C | 3.7% | 50.3hPa | 2.5V | 08:30:00 | 02:08:43 | 00:00:00 | i |
| DL4BBY-15 | 2026-08-31 12:39:16 | 50.99319 | 5.41843 | 111° | 15km/h | 20973m | 4.2m/s | -51.5°C | 0% | 0hPa | 2.6V | 00:00:00 | 00:00:00 | 00:00:00 | |
| GOEST3-10 | 2026-08-31 12:39:15 | 50.99321 | 5.41835 | 120° | 13km/h | 20969m | 3.8m/s | -51.7°C | 3.6% | 50.1hPa | 2.6V | 00:00:00 | 02:08:45 | 08:30:00 | |
| DL1XH-15 | 2026-08-31 12:39:14 | 50.99319 | 5.41817 | 98° | 37km/h | 20932m | 4.5m/s | -51.8°C | 3.7% | 50.5hPa | 2.5V | 08:30:00 | 02:08:38 | 00:00:00 | i |
| BIOWL1-15 | 2026-08-31 12:39:11 | 50.99322 | 5.41796 | 109° | 16km/h | 20923m | 5.6m/s | -51.7°C | 0.4% | 50.5hPa | 2.5V | 18:12:15 | 02:08:36 | 00:00:00 | i |
| DL1XH-west | 2026-08-31 12:39:08 | 50.99320 | 5.41804 | 103° | 29km/h | 20928m | 4.5m/s | -51.7°C | 0.4% | 50.5hPa | 2.5V | 18:12:15 | 02:08:37 | 00:00:00 | i |
| GOEST3-10 | 2026-08-31 12:39:05 | 50.99322 | 5.41793 | 304° | 11km/h | 20918m | 5.9m/s | -51.7°C | 3.6% | 50.5hPa | 2.6V | 00:00:00 | 02:08:35 | 00:00:00 | |
| DM0DOS-11 | 2026-08-31 12:39:04 | 50.99319 | 5.41799 | 324° | 11km/h | 20908m | 3.3m/s | -51.7°C | 3.6% | 50.6hPa | 2.6V | 08:30:00 | 02:08:33 | 00:00:00 | i |
| WPPR-10 | 2026-08-31 12:39:04 | 50.99321 | 5.41796 | 301° | 13km/h | 20912m | 3.9m/s | -51.8°C | 1.0% | 50.6hPa | 2.6V | 00:00:00 | 00:00:00 | 00:00:00 | i |
| DL1XH-15 | 2026-08-31 12:39:03 | 50.99315 | 5.41770 | 94° | 29km/h | 20887m | 4.8m/s | -51.5°C | 3.6% | 50.8hPa | 2.6V | 08:30:00 | 02:08:29 | 00:00:00 | |
| DJ2KF-10 | 2026-08-31 12:39:02 | 50.99317 | 5.41799 | 36° | 15km/h | 20904m | 5.3m/s | -51.7°C | 3.7% | 50.7hPa | 2.5V | 00:00:00 | 02:08:32 | 00:00:00 | |
| GOEST3-10 | 2026-08-31 12:39:00 | 50.99315 | 5.41783 | 90° | 18km/h | 20893m | 5.2m/s | -51.5°C | 3.7% | 50.7hPa | 2.6V | 00:00:00 | 00:00:00 | 00:00:00 | |
| DM0DOS-11 | 2026-08-31 12:38:56 | 50.99320 | 5.41762 | 80° | 11km/h | 20855m | 4.6m/s | -51.4°C | 3.6% | 51.1hPa | 2.5V | 08:30:00 | 02:08:23 | 00:00:00 | i |
| DL1XH-west | 2026-08-31 12:38:56 | 50.99318 | 5.41758 | 244° | 11km/h | 20871m | 5.6m/s | -51.5°C | 0.5% | 51hPa | 2.6V | 18:12:15 | 02:08:26 | 00:00:00 | i |
| HTAHTA | 2026-08-31 12:38:56 | 50.99318 | 5.41758 | 244° | 9km/h | 20871m | 5.6m/s | -51.5°C | 1.0% | 51.0hPa | 2.5V | 00:00:00 | 00:00:00 | 00:00:00 | i |
| BIOWL9-15 | 2026-08-31 12:38:54 | 50.99320 | 5.41762 | 80° | 9km/h | 20855m | 4.6m/s | -51.4°C | 1.0% | 51.1hPa | 2.5V | 00:00:00 | 00:00:00 | 00:00:00 | |
| DL1XH-15 | 2026-08-31 12:38:53 | 50.99314 | 5.41743 | 328° | 4km/h | 20836m | 5.8m/s | -51.3°C | 3.4% | 51.2hPa | 2.5V | 08:30:00 | 02:08:19 | 00:00:00 | i |
| BIOWL1-15 | 2026-08-31 12:38:51 | 50.99314 | 5.41745 | 238° | 11km/h | 20831m | 5.2m/s | -51.3°C | 0.3% | 51.3hPa | 2.5V | 18:12:15 | 02:08:18 | 00:00:00 | i |
| DL1XH-west | 2026-08-31 12:38:46 | 50.99320 | 5.41748 | 165° | 16km/h | 20820m | 6.1m/s | -51.4°C | 0.4% | 51.3hPa | 2.6V | 18:12:15 | 02:08:16 | 00:00:00 | i |
| DL4BBY-15 | 2026-08-31 12:38:46 | 50.99320 | 5.41748 | 166° | 15km/h | 20820m | 6.1m/s | -51.1°C | 0% | 0hPa | 2.5V | 00:00:00 | 00:00:00 | 00:00:00 | i |
| DM0DOS-11 | 2026-08-31 12:38:45 | 50.99329 | 5.41732 | 101° | 9km/h | 20805m | 5.1m/s | -51.2°C | 3.5% | 51.5hPa | 2.5V | 08:30:00 | 02:08:13 | 00:00:00 | i |
| DL1XH-15 | 2026-08-31 12:38:42 | 50.99328 | 5.41742 | 208° | 7km/h | 20785m | 5.1m/s | -51.4°C | 3.6% | 51.6hPa | 2.6V | 08:30:00 | 02:08:09 | 00:00:00 | i |
| BIOWL1-15 | 2026-08-31 12:38:39 | 50.99328 | 5.41742 | 208° | 7km/h | 20785m | 5.1m/s | -51.4°C | 0.5% | 51.6hPa | 2.6V | 18:12:15 | 02:08:09 | 00:00:00 | i |
| DL1XH-west | 2026-08-31 12:38:36 | 50.99335 | 5.41716 | 79° | 15km/h | 20764m | 5.5m/s | -51.3°C | 0.4% | 51.8hPa | 2.5V | 18:12:15 | 02:08:05 | 00:00:00 | i |
| GOEST3-10 | 2026-08-31 12:38:35 | 50.99335 | 5.41716 | 80° | 13km/h | 20764m | 5.5m/s | -51.3°C | 3.5% | 51.8hPa | 2.6V | 00:00:00 | 02:08:05 | 00:00:00 | |
| DM0DOS-11 | 2026-08-31 12:38:34 | 50.99331 | 5.41715 | 313° | 18km/h | 20752m | 5.3m/s | -51.4°C | 3.5% | 51.9hPa | 2.6V | 08:30:00 | 02:08:03 | 00:00:00 | i |
| DD1CC8 | 2026-08-31 12:38:34 | 50.99333 | 5.41713 | 0° | 9km/h | 20758m | 6.0m/s | -51.4°C | 1.0% | 51.9hPa | 2.5V | 00:00:00 | 00:00:00 | 00:00:00 | i |
| WPPR-10 | 2026-08-31 12:38:33 | 50.99331 | 5.41715 | 313° | 16km/h | 20752m | 5.3m/s | -51.4°C | 1.0% | 51.9hPa | 2.5V | 00:00:00 | 00:00:00 | 00:00:00 | |
| DJ2KF-10 | 2026-08-31 12:38:32 | 50.99328 | 5.41721 | 294° | 15km/h | 20747m | 5.3m/s | -51.3°C | 3.5% | 51.9hPa | 2.5V | 00:00:00 | 02:08:02 | 00:00:00 | |
| GOEST3-10 | 2026-08-31 12:38:30 | 50.99330 | 5.41726 | 167° | 15km/h | 20736m | 5.2m/s | -51.3°C | 3.6% | 52.0hPa | 2.5V | 00:00:00 | 00:00:00 | 08:30:00 | |
| DM0DOS-11 | 2026-08-31 12:38:29 | 50.99341 | 5.41721 | 215° | 5km/h | 20700m | 5.8m/s | -51.1°C | 3.6% | 52.3hPa | 2.5V | 08:30:00 | 02:07:53 | 00:00:00 | i |
| DL1XH-west | 2026-08-31 12:38:25 | 50.99341 | 5.41718 | 291° | 11km/h | 20705m | 4.6m/s | -51.1°C | 0.4% | 52.3hPa | 2.6V | 18:12:15 | 02:07:54 | 00:00:00 | i |
| BIOWL1-15 | 2026-08-31 12:38:23 | 50.99344 | 5.41720 | 158° | 16km/h | 20694m | 5.7m/s | -51.1°C | 0.4% | 52.4hPa | 2.5V | 18:12:15 | 02:07:52 | 00:00:00 | i |
| BIOWL9-15 | 2026-08-31 12:38:23 | 50.99344 | 5.41720 | 157° | 15km/h | 20695m | 5.7m/s | -51.1°C | 1.0% | 52.4hPa | 2.6V | 00:00:00 | 00:00:00 | 00:00:00 | i |
| DL1XH-15 | 2026-08-31 12:38:22 | 50.99356 | 5.41707 | 140° | 11km/h | 20681m | 5.5m/s | -51°C | 3.4% | 52.5hPa | 2.6V | 08:30:00 | 02:07:49 | 00:00:00 | |
| DO1YAY-16 | 2026-08-31 12:38:21 | 50.99353 | 5.41711 | 143° | 20km/h | 20686m | 3.4m/s | -51.0°C | 1.0% | 52.4hPa | 2.6V | 00:00:00 | 00:00:00 | 00:00:00 | |
| GOEST3-10 | 2026-08-31 12:38:20 | 50.99353 | 5.41711 | 144° | 11km/h | 20686m | 3.3m/s | -51.0°C | 3.5% | 52.4hPa | 2.6V | 00:00:00 | 00:00:00 | 00:00:00 | |
| DM0DOS-11 | 2026-08-31 12:38:18 | 50.99361 | 5.41707 | 146° | 24km/h | 20649m | 4.3m/s | -51.1°C | 3.4% | 52.8hPa | 2.6V | 08:30:00 | 02:07:43 | 00:00:00 | i |
| DL1XH-west | 2026-08-31 12:38:13 | 50.99361 | 5.41707 | 146° | 24km/h | 20649m | 4.3m/s | -51.1°C | 0.3% | 52.8hPa | 2.6V | 18:12:15 | 02:07:43 | 00:00:00 | i |
| DL1XH-15 | 2026-08-31 12:38:12 | 50.99361 | 5.41690 | 355° | 7km/h | 20624m | 4.7m/s | -51.4°C | 3.5% | 52.9hPa | 2.6V | 08:30:00 | 02:07:38 | 00:00:00 | i |
| GOEST3-10 | 2026-08-31 12:38:10 | 50.99367 | 5.41692 | 39° | 13km/h | 20635m | 6.1m/s | -51.2°C | 3.4% | 52.8hPa | 2.6V | 00:00:00 | 00:00:00 | 00:00:00 | |
| DM0DOS-11 | 2026-08-31 12:38:08 | 50.99374 | 5.41664 | 86° | 22km/h | 20598m | 5.6m/s | -51.7°C | 3.6% | 53.2hPa | 2.6V | 08:30:00 | 02:07:33 | 00:00:00 | i |
| DL1XH-west | 2026-08-31 12:38:02 | 50.99372 | 5.41656 | 56° | 22km/h | 20593m | 5.1m/s | -51.7°C | 0.5% | 53.2hPa | 2.6V | 18:12:15 | 02:07:32 | 00:00:00 | i |
| DL1XH-15 | 2026-08-31 12:38:02 | 50.99371 | 5.41630 | 135° | 26km/h | 20572m | 5.4m/s | -51.9°C | 3.6% | 53.3hPa | 2.6V | 08:30:00 | 02:07:28 | 00:00:00 | i |
| DJ2KF-10 | 2026-08-31 12:38:02 | 50.99372 | 5.41656 | 57° | 22km/h | 20593m | 5.1m/s | -51.6°C | 3.6% | 53.2hPa | 2.5V | 00:00:00 | 02:07:32 | 00:00:00 | i |
| GOEST3-10 | 2026-08-31 12:38:00 | 50.99367 | 5.41643 | 72° | 20km/h | 20584m | 4.4m/s | -51.7°C | 3.5% | 53.2hPa | 2.5V | 00:00:00 | 00:00:00 | 00:00:00 | |
| DM0DOS-11 | 2026-08-31 12:37:57 | 50.99366 | 5.41596 | 25° | 26km/h | 20546m | 5.2m/s | -51.8°C | 3.6% | 53.6hPa | 2.6V | 08:30:00 | 02:07:23 | 00:00:00 | i |
| HTAHTA | 2026-08-31 12:37:54 | 50.99361 | 5.41592 | 39° | 15km/h | 20540m | 5.9m/s | -51.9°C | 1.1% | 53.6hPa | 2.6V | 00:00:00 | 00:00:00 | 00:00:00 | |
| DL1XH-15 | 2026-08-31 12:37:52 | 50.99363 | 5.41565 | 82° | 22km/h | 20522m | 5.5m/s | -51.8°C | 3.5% | 53.8hPa | 2.6V | 08:30:00 | 02:07:18 | 00:00:00 | i |
| DL1XH-west | 2026-08-31 12:37:52 | 50.99360 | 5.41587 | 93° | 13km/h | 20535m | 5.1m/s | -52°C | 0.5% | 53.7hPa | 2.5V | 18:12:15 | 02:07:21 | 00:00:00 | i |
| BIOWL1-15 | 2026-08-31 12:37:50 | 50.99350 | 5.41540 | 38° | 27km/h | 20505m | 5.4m/s | -51.7°C | 0.3% | 53.9hPa | 2.5V | 18:12:15 | 02:07:15 | 00:00:00 | i |
| DO1YAY-16 | 2026-08-31 12:37:49 | 50.99363 | 5.41574 | 106° | 20km/h | 20526m | 3.0m/s | -51.9°C | 1.0% | 53.7hPa | 2.6V | 00:00:00 | 00:00:00 | 00:00:00 | |
| DL8DAS-15 | 2026-08-31 12:37:48 | 50.99362 | 5.41574 | 108° | 22km/h | 20526m | 3.0m/s | -51.9°C | 0% | 0hPa | 2.6V | 00:00:00 | 00:00:00 | 00:00:00 | |
| DL4BBY-15 | 2026-08-31 12:37:46 | 50.99355 | 5.41548 | 40° | 22km/h | 20510m | 5.4m/s | -51.5°C | 0% | 0hPa | 2.6V | 00:00:00 | 00:00:00 | 00:00:00 | |
| DM0DOS-11 | 2026-08-31 12:37:45 | 50.99343 | 5.41527 | 70° | 16km/h | 20494m | 5.1m/s | -51.8°C | 3.5% | 54hPa | 2.6V | 08:30:00 | 02:07:13 | 00:00:00 | i |
| GOEST3-10 | 2026-08-31 12:37:45 | 50.99350 | 5.41540 | 38° | 20km/h | 20505m | 5.4m/s | -51.6°C | 3.4% | 53.9hPa | 2.5V | 00:00:00 | 02:07:15 | 08:30:00 | i |
| DL1XH-15 | 2026-08-31 12:37:41 | 50.99327 | 5.41494 | 34° | 31km/h | 20469m | 4.4m/s | -52.4°C | 3.7% | 54.3hPa | 2.6V | 08:30:00 | 02:07:08 | 00:00:00 | i |
| DL1XH-west | 2026-08-31 12:37:40 | 50.99338 | 5.41508 | 47° | 22km/h | 20480m | 6.5m/s | -52.2°C | 0.5% | 54.1hPa | 2.5V | 18:12:15 | 02:07:10 | 00:00:00 | i |
| BIOWL1-15 | 2026-08-31 12:37:38 | 50.99279 | 5.41449 | 120° | 9km/h | 20416m | 7.2m/s | -52.9°C | 0.6% | 54.7hPa | 2.5V | 18:12:15 | 02:06:58 | 00:00:00 | i |
| DL1ZP-14 | 2026-08-31 12:37:36 | 50.99317 | 5.41481 | 56° | 18km/h | 20459m | 6.6m/s | -52.5°C | 1.0% | 54.3hPa | 2.6V | 00:00:00 | 00:00:00 | 00:00:00 | |
| GOEST3-10 | 2026-08-31 12:37:35 | 50.99315 | 5.41476 | 76° | 24km/h | 20454m | 3.7m/s | -52.5°C | 3.6% | 54.3hPa | 2.5V | 00:00:00 | 02:07:05 | 00:00:00 | |
| DM0DOS-11 | 2026-08-31 12:37:34 | 50.99311 | 5.41468 | 25° | 18km/h | 20444m | 6m/s | -52.6°C | 3.7% | 54.4hPa | 2.5V | 08:30:00 | 02:07:03 | 00:00:00 | i |
| DL1XH-west | 2026-08-31 12:37:30 | 50.99287 | 5.41457 | 19° | 33km/h | 20429m | 4.1m/s | -52.4°C | 0.5% | 54.6hPa | 2.6V | 18:12:15 | 02:07:00 | 00:00:00 | i |
| GOEST3-10 | 2026-08-31 12:37:30 | 50.99287 | 5.41457 | 19° | 18km/h | 20429m | 4.0m/s | -52.4°C | 3.7% | 54.5hPa | 2.6V | 00:00:00 | 00:00:00 | 00:00:00 | i |
| DM0DOS-11 | 2026-08-31 12:37:28 | 50.99274 | 5.41449 | 6° | 38km/h | 20388m | 5.9m/s | -53.1°C | 3.9% | 54.9hPa | 2.6V | 08:30:00 | 02:06:53 | 00:00:00 | i |
| DL1XH-west | 2026-08-31 12:37:20 | 50.99258 | 5.41433 | 172° | 16km/h | 20361m | 5m/s | -53.1°C | 0.5% | 55.2hPa | 2.5V | 18:12:15 | 02:06:48 | 00:00:00 | i |
| BIOWL1-15 | 2026-08-31 12:37:18 | 50.99244 | 5.41417 | 57° | 13km/h | 20331m | 5.6m/s | -53.1°C | 0.6% | 55.4hPa | 2.5V | 18:12:15 | 02:06:42 | 00:00:00 | i |
| GOEST3-10 | 2026-08-31 12:37:18 | 50.99258 | 5.41433 | 172° | 16km/h | 20362m | 4.9m/s | -53.0°C | 3.7% | 55.1hPa | 2.5V | 00:00:00 | 00:00:00 | 00:00:00 | i |
| DL4BBY-15 | 2026-08-31 12:37:16 | 50.99261 | 5.41431 | 36° | 15km/h | 20352m | 5.0m/s | -52.7°C | 0% | 0hPa | 2.5V | 00:00:00 | 00:00:00 | 00:00:00 | |
| DJ2DS-15 | 2026-08-31 12:37:15 | 50.99258 | 5.41429 | 18° | 20km/h | 20346m | 5.8m/s | -53.0°C | 1.1% | 55.3hPa | 2.5V | 00:00:00 | 00:00:00 | 00:00:00 | |
| DM0DOS-11 | 2026-08-31 12:37:13 | 50.99247 | 5.41421 | 31° | 22km/h | 20336m | 5.1m/s | -53°C | 3.8% | 55.4hPa | 2.5V | 08:30:00 | 02:06:43 | 00:00:00 | i |
| DL1XH-15 | 2026-08-31 12:37:11 | 50.99247 | 5.41405 | 47° | 11km/h | 20311m | 5.8m/s | -53.1°C | 4% | 55.6hPa | 2.5V | 08:30:00 | 02:06:38 | 00:00:00 | i |
| DL1XH-west | 2026-08-31 12:37:09 | 50.99247 | 5.41405 | 47° | 11km/h | 20311m | 5.8m/s | -53.1°C | 0.7% | 55.6hPa | 2.5V | 18:12:15 | 02:06:38 | 00:00:00 | i |
| BIOWL1-15 | 2026-08-31 12:37:04 | 50.99235 | 5.41376 | 132° | 7km/h | 20280m | 3.9m/s | -53.2°C | 0.7% | 55.9hPa | 2.5V | 18:12:15 | 02:06:32 | 00:00:00 | i |
| GOEST3-10 | 2026-08-31 12:37:03 | 50.99234 | 5.41379 | 127° | 13km/h | 20285m | 4.8m/s | -53.1°C | 4.1% | 55.7hPa | 2.5V | 00:00:00 | 02:06:33 | 00:00:00 | |
| DJ2KF-10 | 2026-08-31 12:37:02 | 50.99235 | 5.41376 | 132° | 13km/h | 20281m | 3.8m/s | -53.1°C | 4.0% | 55.8hPa | 2.5V | 00:00:00 | 02:06:32 | 00:00:00 | |
| DL1XH-15 | 2026-08-31 12:37:01 | 50.99223 | 5.41366 | 23° | 20km/h | 20261m | 4.1m/s | -53°C | 3.9% | 56hPa | 2.5V | 08:30:00 | 02:06:28 | 00:00:00 | i |
| DL1XH-west | 2026-08-31 12:36:59 | 50.99228 | 5.41369 | 18° | 24km/h | 20265m | 4.3m/s | -53°C | 0.7% | 56hPa | 2.6V | 18:12:15 | 02:06:29 | 00:00:00 | i |
| GOEST3-10 | 2026-08-31 12:36:58 | 50.99223 | 5.41366 | 24° | 13km/h | 20261m | 4.1m/s | -52.9°C | 3.9% | 56.0hPa | 2.5V | 00:00:00 | 00:00:00 | 08:30:00 | |
| DM0DOS-11 | 2026-08-31 12:36:55 | 50.99223 | 5.41349 | 49° | 13km/h | 20234m | 5.9m/s | -52.8°C | 3.8% | 56.3hPa | 2.5V | 08:30:00 | 02:06:23 | 00:00:00 | i |
| WEDDY | 2026-08-31 12:36:54 | 50.99222 | 5.41356 | 139° | 13km/h | 20245m | 4.5m/s | -52.9°C | 1.1% | 56.2hPa | 2.5V | 00:00:00 | 00:00:00 | 00:00:00 | i |
| DL1XH-15 | 2026-08-31 12:36:53 | 50.99207 | 5.41338 | 120° | 7km/h | 20209m | 4.5m/s | -52.8°C | 3.9% | 56.5hPa | 2.5V | 08:30:00 | 02:06:18 | 00:00:00 | |
| DL1XH-west | 2026-08-31 12:36:48 | 50.99208 | 5.41335 | 99° | 9km/h | 20204m | 4.1m/s | -52.8°C | 0.6% | 56.5hPa | 2.5V | 18:12:15 | 02:06:17 | 00:00:00 | i |
| GOEST3-10 | 2026-08-31 12:36:48 | 50.99207 | 5.41338 | 121° | 15km/h | 20209m | 4.5m/s | -52.7°C | 3.9% | 56.4hPa | 2.5V | 00:00:00 | 00:00:00 | 00:00:00 | i |
| DM0DOS-11 | 2026-08-31 12:36:47 | 50.99194 | 5.41320 | 11° | 18km/h | 20184m | 4.5m/s | -52.5°C | 3.8% | 56.7hPa | 2.5V | 08:30:00 | 02:06:13 | 00:00:00 | i |
| DJ3KS | 2026-08-31 12:36:47 | 50.99207 | 5.41338 | 121° | 7km/h | 20209m | 4.6m/s | -52.8°C | 1.2% | 56.5hPa | 2.5V | 00:00:00 | 00:00:00 | 00:00:00 | i |
| DL4BBY-15 | 2026-08-31 12:36:46 | 50.99207 | 5.41331 | 60° | 15km/h | 20199m | 5.9m/s | -52.5°C | 0% | 0hPa | 2.5V | 00:00:00 | 00:00:00 | 00:00:00 | |
| GOEST3-10 | 2026-08-31 12:36:43 | 50.99193 | 5.41320 | 12° | 9km/h | 20184m | 4.5m/s | -52.4°C | 3.8% | 56.7hPa | 2.5V | 00:00:00 | 02:06:13 | 00:00:00 | |
| DL1XH-15 | 2026-08-31 12:36:39 | 50.99189 | 5.41313 | 42° | 18km/h | 20158m | 6.1m/s | -52.3°C | 3.7% | 57hPa | 2.6V | 08:30:00 | 02:06:08 | 00:00:00 | i |
| DL1XH-west | 2026-08-31 12:36:36 | 50.99173 | 5.41305 | 357° | 15km/h | 20142m | 5.6m/s | -52.1°C | 0.5% | 57.1hPa | 2.6V | 18:12:15 | 02:06:05 | 00:00:00 | i |
| DL1ZP-14 | 2026-08-31 12:36:34 | 50.99172 | 5.41308 | 199° | 5km/h | 20131m | 4.3m/s | -52.2°C | 1.1% | 57.2hPa | 2.5V | 00:00:00 | 00:00:00 | 00:00:00 | |
| GOEST3-10 | 2026-08-31 12:36:33 | 50.99172 | 5.41308 | 200° | 16km/h | 20131m | 4.2m/s | -52.1°C | 3.7% | 57.1hPa | 2.6V | 00:00:00 | 02:06:03 | 00:00:00 | |
| DJ2KF-10 | 2026-08-31 12:36:32 | 50.99173 | 5.41307 | 120° | 15km/h | 20127m | 5.0m/s | -52.1°C | 3.7% | 57.2hPa | 2.6V | 00:00:00 | 02:06:02 | 00:00:00 | |
| WEDDY | 2026-08-31 12:36:31 | 50.99173 | 5.41307 | 120° | 7km/h | 20127m | 5.0m/s | -52.1°C | 1.1% | 57.2hPa | 2.6V | 00:00:00 | 00:00:00 | 00:00:00 | |
| DD1CC8 | 2026-08-31 12:36:30 | 50.99171 | 5.41295 | 58° | 26km/h | 20115m | 5.6m/s | -52.0°C | 1.1% | 57.3hPa | 2.6V | 00:00:00 | 00:00:00 | 00:00:00 | |
| DL1XH-15 | 2026-08-31 12:36:28 | 50.99160 | 5.41278 | 346° | 7km/h | 20100m | 6.6m/s | -52°C | 3.7% | 57.4hPa | 2.6V | 08:30:00 | 02:05:57 | 00:00:00 | i |
| DJ3KS | 2026-08-31 12:36:27 | 50.99163 | 5.41280 | 36° | 18km/h | 20106m | 5.2m/s | -51.9°C | 1.1% | 57.4hPa | 2.5V | 00:00:00 | 00:00:00 | 00:00:00 | |
| DM0DOS-11 | 2026-08-31 12:36:25 | 50.99156 | 5.41291 | 19° | 15km/h | 20079m | 5.9m/s | -52°C | 3.7% | 57.6hPa | 2.5V | 08:30:00 | 02:05:53 | 00:00:00 | i |
| DL1XH-west | 2026-08-31 12:36:25 | 50.99159 | 5.41287 | 269° | 15km/h | 20088m | 3.6m/s | -52°C | 0.5% | 57.6hPa | 2.6V | 18:12:15 | 02:05:55 | 00:00:00 | i |
| BIOWL1-15 | 2026-08-31 12:36:25 | 50.99146 | 5.41266 | 237° | 11km/h | 20048m | 4.4m/s | -51.8°C | 0.4% | 57.9hPa | 2.5V | 18:12:15 | 02:05:47 | 00:00:00 | i |
| GOEST3-10 | 2026-08-31 12:36:23 | 50.99156 | 5.41291 | 20° | 20km/h | 20079m | 5.9m/s | -52.0°C | 3.7% | 57.6hPa | 2.5V | 00:00:00 | 02:05:53 | 00:00:00 | |
| DL1XH-15 | 2026-08-31 12:36:21 | 50.99147 | 5.41266 | 236° | 11km/h | 20048m | 4.4m/s | -51.8°C | 3.5% | 57.9hPa | 2.5V | 08:30:00 | 02:05:47 | 00:00:00 | |
| HTAHTA | 2026-08-31 12:36:21 | 50.99147 | 5.41278 | 53° | 27km/h | 20069m | 3.5m/s | -51.8°C | 1.1% | 57.7hPa | 2.6V | 00:00:00 | 00:00:00 | 00:00:00 | |
| DM0DOS-11 | 2026-08-31 12:36:18 | 50.99139 | 5.41251 | 70° | 29km/h | 20027m | 5.3m/s | -51.9°C | 3.6% | 58.1hPa | 2.6V | 08:30:00 | 02:05:43 | 00:00:00 | i |
| DL1XH-west | 2026-08-31 12:36:15 | 50.99142 | 5.41261 | 56° | 26km/h | 20033m | 5.4m/s | -51.9°C | 0.4% | 58hPa | 2.6V | 18:12:15 | 02:05:44 | 00:00:00 | i |
| GOEST3-10 | 2026-08-31 12:36:13 | 50.99139 | 5.41251 | 71° | 22km/h | 20027m | 5.3m/s | -51.9°C | 3.6% | 58.0hPa | 2.6V | 00:00:00 | 02:05:43 | 08:30:00 | |
| DL1XH-15 | 2026-08-31 12:36:11 | 50.99141 | 5.41223 | 30° | 11km/h | 19996m | 5.3m/s | -52.1°C | 3.6% | 58.4hPa | 2.5V | 08:30:00 | 02:05:37 | 00:00:00 | i |
| BIOWL1-15 | 2026-08-31 12:36:09 | 50.99138 | 5.41220 | 45° | 11km/h | 19991m | 4.4m/s | -52°C | 0.5% | 58.4hPa | 2.6V | 18:12:15 | 02:05:36 | 00:00:00 | i |
| GOEST3-10 | 2026-08-31 12:36:08 | 50.99142 | 5.41224 | 30° | 9km/h | 20002m | 6.2m/s | -52.1°C | 3.6% | 58.3hPa | 2.5V | 00:00:00 | 00:00:00 | 00:00:00 | |
| DM0DOS-11 | 2026-08-31 12:36:07 | 50.99141 | 5.41209 | 144° | 16km/h | 19974m | 4.8m/s | -52.2°C | 3.7% | 58.6hPa | 2.5V | 08:30:00 | 02:05:33 | 00:00:00 | i |
| DL1XH-west | 2026-08-31 12:36:04 | 50.99141 | 5.41209 | 144° | 16km/h | 19974m | 4.8m/s | -52.2°C | 0.5% | 58.6hPa | 2.5V | 18:12:15 | 02:05:33 | 00:00:00 | i |
| BIOWL1-15 | 2026-08-31 12:35:59 | 50.99143 | 5.41180 | 53° | 24km/h | 19953m | 4m/s | -52.2°C | 0.5% | 58.8hPa | 2.6V | 18:12:15 | 02:05:29 | 00:00:00 | i |
| WPPR-10 | 2026-08-31 12:35:59 | 50.99139 | 5.41172 | 130° | 4km/h | 19943m | 7.3m/s | -52.1°C | 1.1% | 58.9hPa | 2.5V | 00:00:00 | 00:00:00 | 00:00:00 | i |
| DM0DOS-11 | 2026-08-31 12:35:55 | 50.99162 | 5.41151 | 112° | 33km/h | 19920m | 6.3m/s | -52.4°C | 3.7% | 59hPa | 2.5V | 08:30:00 | 02:05:23 | 00:00:00 | i |
| DL1XH-west | 2026-08-31 12:35:53 | 50.99162 | 5.41151 | 113° | 33km/h | 19920m | 6.3m/s | -52.4°C | 0.6% | 59hPa | 2.5V | 18:12:15 | 02:05:23 | 00:00:00 | i |
| BIOWL1-15 | 2026-08-31 12:35:49 | 50.99172 | 5.41073 | 89° | 38km/h | 19870m | 6.2m/s | -52.5°C | 0.5% | 59.5hPa | 2.6V | 18:12:15 | 02:05:14 | 00:00:00 | i |
| BIOWL9-15 | 2026-08-31 12:35:48 | 50.99162 | 5.41105 | 151° | 24km/h | 19887m | 4.9m/s | -52.3°C | 1.1% | 59.4hPa | 2.5V | 00:00:00 | 00:00:00 | 00:00:00 | |
| DO1YAY-16 | 2026-08-31 12:35:46 | 50.99171 | 5.41087 | 108° | 33km/h | 19876m | 6.8m/s | -52.4°C | 1.1% | 59.5hPa | 2.5V | 00:00:00 | 00:00:00 | 00:00:00 | |
| DM0DOS-11 | 2026-08-31 12:35:44 | 50.99170 | 5.41045 | 85° | 27km/h | 19860m | 4.7m/s | -52.3°C | 3.7% | 59.6hPa | 2.5V | 08:30:00 | 02:05:12 | 00:00:00 | i |
| DL1XH-west | 2026-08-31 12:35:42 | 50.99171 | 5.41036 | 113° | 20km/h | 19854m | 6.9m/s | -52.3°C | 0.5% | 59.7hPa | 2.6V | 18:12:15 | 02:05:11 | 00:00:00 | |
| DL1XH-15 | 2026-08-31 12:35:41 | 50.99189 | 5.41003 | 102° | 37km/h | 19832m | 5.8m/s | -52.3°C | 0% | 59.9hPa | 2.6V | 08:30:00 | 02:05:07 | 00:00:00 | i |
| GOEST3-10 | 2026-08-31 12:35:41 | 50.99171 | 5.41036 | 113° | 29km/h | 19854m | 6.9m/s | -52.3°C | 3.7% | 59.6hPa | 2.6V | 00:00:00 | 02:05:11 | 00:00:00 | i |
| GOEST3-10 | 2026-08-31 12:35:36 | 50.99190 | 5.40987 | 89° | 31km/h | 19826m | 4.9m/s | -52.3°C | 3.7% | 59.9hPa | 2.5V | 00:00:00 | 00:00:00 | 00:00:00 | |
| DM0DOS-11 | 2026-08-31 12:35:33 | 50.99194 | 5.40935 | 126° | 26km/h | 19805m | 4.9m/s | -52.4°C | 3.7% | 60.1hPa | 2.5V | 08:30:00 | 02:05:02 | 00:00:00 | i |
| DL1XH-west | 2026-08-31 12:35:31 | 50.99197 | 5.40926 | 118° | 27km/h | 19800m | 4.5m/s | -52.3°C | 0.5% | 60.2hPa | 2.6V | 18:12:15 | 02:05:01 | 00:00:00 | i |
| DL1XH-15 | 2026-08-31 12:35:31 | 50.99202 | 5.40834 | 112° | 31km/h | 19767m | 5.2m/s | -52.4°C | 0% | 60.5hPa | 2.6V | 08:30:00 | 02:04:55 | 00:00:00 | i |
| GOEST3-10 | 2026-08-31 12:35:30 | 50.99200 | 5.40915 | 101° | 40km/h | 19795m | 6.3m/s | -52.3°C | 3.7% | 60.2hPa | 2.6V | 00:00:00 | 02:05:00 | 00:00:00 | |
| DD1CC8 | 2026-08-31 12:35:28 | 50.99199 | 5.40864 | 90° | 44km/h | 19778m | 5.4m/s | -52.3°C | 1.1% | 60.4hPa | 2.6V | 00:00:00 | 00:00:00 | 00:00:00 | |
| WEDDY | 2026-08-31 12:35:27 | 50.99199 | 5.40864 | 91° | 46km/h | 19778m | 5.4m/s | -52.3°C | 1.1% | 60.4hPa | 2.6V | 00:00:00 | 00:00:00 | 00:00:00 | |
| GOEST3-10 | 2026-08-31 12:35:25 | 50.99202 | 5.40834 | 113° | 33km/h | 19767m | 5.2m/s | -52.3°C | 3.7% | 60.5hPa | 2.6V | 00:00:00 | 00:00:00 | 08:30:00 | |
| DM0DOS-11 | 2026-08-31 12:35:23 | 50.99208 | 5.40798 | 87° | 38km/h | 19752m | 5.8m/s | -52.5°C | 3.7% | 60.6hPa | 2.5V | 08:30:00 | 02:04:52 | 00:00:00 | i |
| DL1XH-west | 2026-08-31 12:35:21 | 50.99205 | 5.40764 | 79° | 42km/h | 19742m | 4.1m/s | -52.5°C | 0.5% | 60.7hPa | 2.6V | 18:12:15 | 02:04:50 | 00:00:00 | i |
| DL1XH-15 | 2026-08-31 12:35:20 | 50.99207 | 5.40714 | 101° | 35km/h | 19721m | 4.2m/s | -52.4°C | 0% | 0hPa | 2.6V | 08:30:00 | 02:04:46 | 00:00:00 | |
| GOEST3-10 | 2026-08-31 12:35:20 | 50.99205 | 5.40764 | 80° | 33km/h | 19742m | 4.1m/s | -52.5°C | 3.7% | 60.7hPa | 2.5V | 00:00:00 | 02:04:50 | 00:00:00 | |
| HTAHTA | 2026-08-31 12:35:19 | 50.99207 | 5.40714 | 101° | 35km/h | 19722m | 4.2m/s | -52.4°C | 1.1% | 61.0hPa | 2.5V | 00:00:00 | 00:00:00 | 00:00:00 | |
| BIOWL9-15 | 2026-08-31 12:35:17 | 50.99207 | 5.40714 | 101° | 35km/h | 19722m | 4.2m/s | -52.4°C | 1.1% | 61.0hPa | 2.5V | 00:00:00 | 00:00:00 | 00:00:00 | |
| DL4BBY-15 | 2026-08-31 12:35:16 | 50.99207 | 5.40714 | 102° | 46km/h | 19722m | 4.2m/s | -52.2°C | 0% | 0hPa | 2.5V | 00:00:00 | 00:00:00 | 00:00:00 | |
| GOEST3-10 | 2026-08-31 12:35:15 | 50.99208 | 5.40698 | 92° | 46km/h | 19716m | 7.0m/s | -52.4°C | 3.8% | 60.9hPa | 2.5V | 00:00:00 | 00:00:00 | 00:00:00 | |
| DO1YAY-16 | 2026-08-31 12:35:14 | 50.99207 | 5.40677 | 81° | 58km/h | 19709m | 6.8m/s | -52.5°C | 1.1% | 61.0hPa | 2.5V | 00:00:00 | 00:00:00 | 00:00:00 | |
| DM0DOS-11 | 2026-08-31 12:35:13 | 50.99200 | 5.40631 | 72° | 53km/h | 19698m | 5m/s | -52.4°C | 3.7% | 61.1hPa | 2.5V | 08:30:00 | 02:04:42 | 00:00:00 | i |
| DL1XH-west | 2026-08-31 12:35:10 | 50.99197 | 5.40589 | 105° | 29km/h | 19682m | 4.6m/s | -52.7°C | 0.5% | 61.3hPa | 2.6V | 18:12:15 | 02:04:39 | 00:00:00 | i |
| BIOWL1-15 | 2026-08-31 12:35:08 | 50.99169 | 5.40376 | 75° | 58km/h | 19621m | 4.5m/s | -52.4°C | 0.6% | 61.9hPa | 2.5V | 18:12:15 | 02:04:27 | 00:00:00 | i |
| DM0DOS-11 | 2026-08-31 12:35:07 | 50.99183 | 5.40459 | 66° | 31km/h | 19646m | 5.5m/s | -52.5°C | 3.8% | 61.6hPa | 2.6V | 08:30:00 | 02:04:32 | 00:00:00 | i |
| DL1XH-west | 2026-08-31 12:34:59 | 50.99173 | 5.40399 | 76° | 58km/h | 19626m | 5.2m/s | -52.5°C | 0.6% | 61.8hPa | 2.6V | 18:12:15 | 02:04:28 | 00:00:00 | i |
| BIOWL1-15 | 2026-08-31 12:34:58 | 50.99146 | 5.40262 | 68° | 60km/h | 19583m | 3.5m/s | -52.5°C | 0.5% | 62.2hPa | 2.6V | 18:12:15 | 02:04:20 | 00:00:00 | i |
| DM0DOS-11 | 2026-08-31 12:34:57 | 50.99155 | 5.40301 | 71° | 40km/h | 19594m | 6.6m/s | -52.4°C | 3.7% | 62.1hPa | 2.5V | 08:30:00 | 02:04:22 | 00:00:00 | i |
| DL1XH-west | 2026-08-31 12:34:49 | 50.99135 | 5.40224 | 60° | 44km/h | 19573m | 6.8m/s | -52.3°C | 0.4% | 62.3hPa | 2.5V | 18:12:15 | 02:04:18 | 00:00:00 | i |
| BIOWL1-15 | 2026-08-31 12:34:45 | 50.99122 | 5.40194 | 61° | 31km/h | 19556m | 5.8m/s | -52.2°C | 0.5% | 62.5hPa | 2.6V | 18:12:15 | 02:04:15 | 00:00:00 | i |
| DM0DOS-11 | 2026-08-31 12:34:45 | 50.99112 | 5.40140 | 78° | 58km/h | 19540m | 3.1m/s | -52.2°C | 3.8% | 62.6hPa | 2.5V | 08:30:00 | 02:04:12 | 00:00:00 | i |
| DL1XH-west | 2026-08-31 12:34:39 | 50.99098 | 5.40081 | 50° | 26km/h | 19518m | 4.3m/s | -52°C | 0.5% | 62.9hPa | 2.6V | 18:12:15 | 02:04:08 | 00:00:00 | i |
| DL1XH-15 | 2026-08-31 12:34:38 | 50.99084 | 5.40021 | 76° | 53km/h | 19498m | 3.6m/s | 0°C | 0% | 0hPa | 2.6V | 00:00:00 | 02:04:04 | 00:00:00 | i |
| BIOWL1-15 | 2026-08-31 12:34:34 | 50.99077 | 5.39987 | 66° | 35km/h | 19489m | 6m/s | -52°C | 0.5% | 63.1hPa | 2.5V | 18:12:15 | 02:04:02 | 00:00:00 | i |
| DM0DOS-11 | 2026-08-31 12:34:33 | 50.99077 | 5.39987 | 65° | 35km/h | 19489m | 6m/s | -52°C | 3.6% | 63.1hPa | 2.5V | 08:30:00 | 02:04:02 | 00:00:00 | i |
| DL1XH-west | 2026-08-31 12:34:28 | 50.99060 | 5.39948 | 69° | 40km/h | 19468m | 6.2m/s | -52.1°C | 0.5% | 63.3hPa | 2.6V | 18:12:15 | 02:03:58 | 00:00:00 | i |
| DL1XH-15 | 2026-08-31 12:34:26 | 50.99049 | 5.39880 | 57° | 31km/h | 19446m | 5.6m/s | 0°C | 0% | 0hPa | 2.7V | 00:00:00 | 02:03:54 | 00:00:00 | i |
| BIOWL1-15 | 2026-08-31 12:34:21 | 50.99029 | 5.39853 | 45° | 44km/h | 19431m | 5.9m/s | -52.1°C | 0.6% | 63.7hPa | 2.5V | 18:12:15 | 02:03:51 | 00:00:00 | i |
| DL1XH-west | 2026-08-31 12:34:18 | 50.99006 | 5.39788 | 63° | 35km/h | 19410m | 6.3m/s | -52°C | 0.6% | 63.9hPa | 2.6V | 18:12:15 | 02:03:47 | 00:00:00 | i |
| DM0DOS-11 | 2026-08-31 12:34:17 | 50.98983 | 5.39741 | 54° | 47km/h | 19383m | 4.4m/s | -52°C | 3.7% | 64.2hPa | 2.6V | 08:30:00 | 02:03:42 | 00:00:00 | i |
| HTAHTA | 2026-08-31 12:34:17 | 50.99002 | 5.39778 | 49° | 22km/h | 19404m | 6.2m/s | -52.0°C | 1.1% | 64.0hPa | 2.5V | 00:00:00 | 00:00:00 | 00:00:00 | i |
| DL4BBY-15 | 2026-08-31 12:34:16 | 50.99002 | 5.39778 | 50° | 33km/h | 19404m | 6.1m/s | -51.7°C | 0% | 0hPa | 2.5V | 00:00:00 | 00:00:00 | 00:00:00 | |
| DL1XH-15 | 2026-08-31 12:34:15 | 50.98994 | 5.39765 | 48° | 26km/h | 19393m | 5.5m/s | 0°C | 0% | 0hPa | 2.5V | 00:00:00 | 02:03:44 | 00:00:00 | i |
| DL1XH-west | 2026-08-31 12:34:07 | 50.98950 | 5.39669 | 80° | 29km/h | 19349m | 6.5m/s | -51.5°C | 0.5% | 64.5hPa | 2.5V | 18:12:15 | 02:03:36 | 00:00:00 | i |
| DL1XH-15 | 2026-08-31 12:34:05 | 50.98938 | 5.39630 | 42° | 27km/h | 19326m | 4.7m/s | 0°C | 0% | 0hPa | 2.6V | 00:00:00 | 02:03:32 | 00:00:00 | i |
| BIOWL1-15 | 2026-08-31 12:33:56 | 50.98918 | 5.39551 | 24° | 24km/h | 19288m | 5.3m/s | -51.2°C | 0.5% | 65.1hPa | 2.6V | 18:12:15 | 02:03:25 | 00:00:00 | i |
| DD1CC8 | 2026-08-31 12:33:55 | 50.98912 | 5.39546 | 29° | 27km/h | 19283m | 4.7m/s | -51.1°C | -1.0% | 65.2hPa | 2.6V | 00:00:00 | 00:00:00 | 00:00:00 | |
| DL1XH-15 | 2026-08-31 12:33:53 | 50.98903 | 5.39527 | 70° | 38km/h | 19272m | 6.1m/s | 0°C | 0% | 0hPa | 2.6V | 00:00:00 | 02:03:22 | 00:00:00 | |
| WPPR-10 | 2026-08-31 12:33:53 | 50.98902 | 5.39527 | 70° | 38km/h | 19272m | 6.1m/s | -51.1°C | 1.1% | 65.3hPa | 2.6V | 00:00:00 | 00:00:00 | 00:00:00 | |
| GOEST3-10 | 2026-08-31 12:33:52 | 50.98902 | 5.39527 | 71° | 37km/h | 19272m | 6.1m/s | -51.0°C | 3.5% | 65.3hPa | 2.6V | 00:00:00 | 02:03:22 | 00:00:00 | |
| GOEST3-10 | 2026-08-31 12:33:47 | 50.98892 | 5.39461 | 43° | 27km/h | 19245m | 5.0m/s | -51.2°C | 3.4% | 65.5hPa | 2.6V | 00:00:00 | 00:00:00 | 08:30:00 | |
| DL1XH-15 | 2026-08-31 12:33:46 | 50.98885 | 5.39402 | 81° | 18km/h | 19212m | 5.6m/s | 0°C | 0% | 0hPa | 2.6V | 00:00:00 | 02:03:11 | 00:00:00 | i |
| DM0DOS-11 | 2026-08-31 12:33:45 | 50.98885 | 5.39411 | 92° | 27km/h | 19217m | 5.6m/s | -51.5°C | 3.5% | 65.8hPa | 2.6V | 08:30:00 | 02:03:12 | 00:00:00 | i |
| DL1XH-west | 2026-08-31 12:33:45 | 50.98886 | 5.39447 | 73° | 26km/h | 19234m | 6.3m/s | -51.2°C | 0.3% | 65.7hPa | 2.5V | 18:12:15 | 02:03:15 | 00:00:00 | i |
| BIOWL9-15 | 2026-08-31 12:33:43 | 50.98885 | 5.39411 | 92° | 26km/h | 19218m | 5.6m/s | -51.5°C | 1.0% | 65.8hPa | 2.5V | 00:00:00 | 00:00:00 | 00:00:00 | |
| GOEST3-10 | 2026-08-31 12:33:42 | 50.98885 | 5.39411 | 93° | 20km/h | 19218m | 5.6m/s | -51.5°C | 3.5% | 65.8hPa | 2.5V | 00:00:00 | 02:03:12 | 00:00:00 | |
| DO1YAY-16 | 2026-08-31 12:33:41 | 50.98885 | 5.39402 | 81° | 16km/h | 19212m | 5.6m/s | -51.5°C | 1.1% | 65.9hPa | 2.5V | 00:00:00 | 00:00:00 | 00:00:00 | |
| DJ2DS-15 | 2026-08-31 12:33:39 | 50.98878 | 5.39384 | 62° | 24km/h | 19198m | 5.7m/s | -51.5°C | 1.1% | 66.0hPa | 2.5V | 00:00:00 | 00:00:00 | 00:00:00 | |
| GOEST3-10 | 2026-08-31 12:33:37 | 50.98875 | 5.39372 | 72° | 33km/h | 19192m | 6.1m/s | -51.5°C | 3.5% | 66.1hPa | 2.5V | 00:00:00 | 00:00:00 | 00:00:00 | |
| DM0DOS-11 | 2026-08-31 12:33:35 | 50.98862 | 5.39315 | 45° | 18km/h | 19166m | 3.4m/s | -51.8°C | 3.7% | 66.4hPa | 2.5V | 08:30:00 | 02:03:02 | 00:00:00 | i |
| BIOWL1-15 | 2026-08-31 12:33:35 | 50.98862 | 5.39315 | 46° | 18km/h | 19166m | 3.4m/s | -51.8°C | 0.5% | 66.4hPa | 2.5V | 18:12:15 | 02:03:02 | 00:00:00 | i |
| DL1XH-west | 2026-08-31 12:33:35 | 50.98868 | 5.39329 | 68° | 29km/h | 19176m | 6.3m/s | -51.7°C | 0.4% | 66.2hPa | 2.6V | 18:12:15 | 02:03:04 | 00:00:00 | i |
| BIOWL7-15 | 2026-08-31 12:33:33 | 50.98867 | 5.39329 | 69° | 29km/h | 19177m | 6.3m/s | -51.7°C | 1.1% | 66.2hPa | 2.5V | 00:00:00 | 00:00:00 | 00:00:00 | |
| DJ2KF-10 | 2026-08-31 12:33:32 | 50.98862 | 5.39315 | 46° | 38km/h | 19166m | 3.4m/s | -51.8°C | 3.7% | 66.4hPa | 2.5V | 00:00:00 | 02:03:02 | 00:00:00 | |
| DM0DOS-11 | 2026-08-31 12:33:27 | 50.98825 | 5.39195 | 77° | 38km/h | 19115m | 5.2m/s | -51.6°C | 3.5% | 66.9hPa | 2.5V | 08:30:00 | 02:02:52 | 00:00:00 | i |
| DL1XH-west | 2026-08-31 12:33:24 | 50.98828 | 5.39208 | 71° | 29km/h | 19120m | 5.7m/s | -51.6°C | 0.4% | 66.9hPa | 2.5V | 18:12:15 | 02:02:53 | 00:00:00 | i |
| BIOWL1-15 | 2026-08-31 12:33:23 | 50.98826 | 5.39195 | 77° | 38km/h | 19115m | 5.2m/s | -51.6°C | 0.4% | 66.9hPa | 2.5V | 18:12:15 | 02:02:52 | 00:00:00 | i |
| WPPR-10 | 2026-08-31 12:33:22 | 50.98826 | 5.39195 | 77° | 37km/h | 19115m | 5.2m/s | -51.6°C | 1.0% | 66.9hPa | 2.5V | 00:00:00 | 00:00:00 | 00:00:00 | |
| GOEST3-10 | 2026-08-31 12:33:20 | 50.98821 | 5.39164 | 72° | 38km/h | 19105m | 5.1m/s | -51.6°C | 3.6% | 66.9hPa | 2.5V | 00:00:00 | 02:02:50 | 00:00:00 | |
| DL4BBY-15 | 2026-08-31 12:33:16 | 50.98804 | 5.39111 | 66° | 47km/h | 19086m | 6.4m/s | -51.7°C | 0% | 0hPa | 2.5V | 00:00:00 | 00:00:00 | 00:00:00 | |
| DM0DOS-11 | 2026-08-31 12:33:15 | 50.98785 | 5.39041 | 55° | 38km/h | 19063m | 6.2m/s | -51.9°C | 3.6% | 67.4hPa | 2.5V | 08:30:00 | 02:02:42 | 00:00:00 | i |
| DL1XH-west | 2026-08-31 12:33:13 | 50.98785 | 5.39041 | 56° | 38km/h | 19063m | 6.2m/s | -51.9°C | 0.5% | 67.4hPa | 2.5V | 18:12:15 | 02:02:42 | 00:00:00 | i |
| BIOWL1-15 | 2026-08-31 12:33:11 | 50.98755 | 5.38971 | 63° | 57km/h | 19038m | 4m/s | -51.7°C | 0.4% | 67.7hPa | 2.5V | 18:12:15 | 02:02:37 | 00:00:00 | |
| DO1YAY-16 | 2026-08-31 12:33:10 | 50.98774 | 5.39020 | 49° | 35km/h | 19053m | 4.3m/s | -51.8°C | 1.1% | 67.5hPa | 2.5V | 00:00:00 | 00:00:00 | 00:00:00 | |
| GOEST3-10 | 2026-08-31 12:33:09 | 50.98768 | 5.39007 | 57° | 51km/h | 19048m | 6.1m/s | -51.6°C | 3.6% | 67.6hPa | 2.5V | 00:00:00 | 02:02:39 | 00:00:00 | |
| DM0DOS-11 | 2026-08-31 12:33:07 | 50.98722 | 5.38900 | 57° | 40km/h | 19013m | 5.5m/s | -51.9°C | 3.6% | 67.9hPa | 2.5V | 08:30:00 | 02:02:32 | 00:00:00 | i |
| DL1XH-west | 2026-08-31 12:33:01 | 50.98717 | 5.38883 | 67° | 51km/h | 19008m | 6.2m/s | -52.1°C | 0.5% | 68hPa | 2.5V | 18:12:15 | 02:02:31 | 00:00:00 | i |
| DJ3KS | 2026-08-31 12:33:01 | 50.98722 | 5.38899 | 59° | 40km/h | 19014m | 5.5m/s | -51.9°C | 1.1% | 67.9hPa | 2.5V | 00:00:00 | 00:00:00 | 00:00:00 | i |
| DL1ZP-14 | 2026-08-31 12:32:56 | 50.98675 | 5.38793 | 38° | 51km/h | 18981m | 4.0m/s | -51.9°C | 1.1% | 68.3hPa | 2.5V | 00:00:00 | 00:00:00 | 00:00:00 | i |
| BIOWL1-15 | 2026-08-31 12:32:56 | 50.98645 | 5.38723 | 66° | 55km/h | 18961m | 3.9m/s | -51.9°C | 0.5% | 68.5hPa | 2.6V | 18:12:15 | 02:02:22 | 00:00:00 | i |
| DM0DOS-11 | 2026-08-31 12:32:55 | 50.98645 | 5.38723 | 66° | 55km/h | 18961m | 3.9m/s | -51.9°C | 3.6% | 68.5hPa | 2.6V | 08:30:00 | 02:02:22 | 00:00:00 | i |
| DL1XH-west | 2026-08-31 12:32:51 | 50.98604 | 5.38662 | 44° | 46km/h | 18935m | 5.6m/s | -51.8°C | 0.5% | 68.8hPa | 2.5V | 18:12:15 | 02:02:17 | 00:00:00 | i |
| BIOWL1-15 | 2026-08-31 12:32:46 | 50.98586 | 5.38607 | 68° | 53km/h | 18919m | 4.8m/s | -51.8°C | 0.5% | 69hPa | 2.6V | 18:12:15 | 02:02:14 | 00:00:00 | i |
| DM0DOS-11 | 2026-08-31 12:32:44 | 50.98575 | 5.38576 | 44° | 38km/h | 18908m | 6.1m/s | -51.7°C | 3.6% | 69.1hPa | 2.5V | 08:30:00 | 02:02:12 | 00:00:00 | i |
| DL1XH-west | 2026-08-31 12:32:40 | 50.98560 | 5.38556 | 43° | 42km/h | 18898m | 5.1m/s | -51.7°C | 0.4% | 69.2hPa | 2.5V | 18:12:15 | 02:02:10 | 00:00:00 | i |
| GOEST3-10 | 2026-08-31 12:32:39 | 50.98552 | 5.38543 | 55° | 49km/h | 18893m | 5.8m/s | -51.7°C | 3.5% | 69.2hPa | 2.6V | 00:00:00 | 02:02:09 | 00:00:00 | |
| DM0DOS-11 | 2026-08-31 12:32:37 | 50.98512 | 5.38436 | 51° | 42km/h | 18857m | 5.6m/s | -52.2°C | 3.7% | 69.6hPa | 2.6V | 08:30:00 | 02:02:02 | 00:00:00 | i |
| DL1XH-west | 2026-08-31 12:32:30 | 50.98497 | 5.38402 | 58° | 57km/h | 18846m | 4.3m/s | -52.2°C | 0.6% | 69.8hPa | 2.5V | 18:12:15 | 02:02:00 | 00:00:00 | i |
| GOEST3-10 | 2026-08-31 12:32:29 | 50.98490 | 5.38384 | 56° | 44km/h | 18842m | 4.6m/s | -52.0°C | 3.8% | 69.8hPa | 2.5V | 00:00:00 | 02:01:59 | 00:00:00 | |
| DJ2DS-15 | 2026-08-31 12:32:27 | 50.98467 | 5.38345 | 40° | 37km/h | 18827m | 4.5m/s | -52.1°C | 1.1% | 70.0hPa | 2.6V | 00:00:00 | 00:00:00 | 00:00:00 | |
| DM0DOS-11 | 2026-08-31 12:32:26 | 50.98443 | 5.38289 | 60° | 42km/h | 18806m | 3.8m/s | -52.2°C | 3.7% | 70.2hPa | 2.6V | 08:30:00 | 02:01:52 | 00:00:00 | i |
| BIOWL1-15 | 2026-08-31 12:32:22 | 50.98438 | 5.38276 | 52° | 37km/h | 18802m | 6.2m/s | -52.2°C | 0.5% | 70.2hPa | 2.5V | 18:12:15 | 02:01:51 | 00:00:00 | i |
| DL1XH-west | 2026-08-31 12:32:19 | 50.98425 | 5.38262 | 25° | 31km/h | 18790m | 4.4m/s | -52.2°C | 0.5% | 70.4hPa | 2.5V | 18:12:15 | 02:01:49 | 00:00:00 | i |
| DL1XH-west | 2026-08-31 12:32:08 | 50.98342 | 5.38150 | 51° | 44km/h | 18732m | 4.1m/s | -52°C | 0.5% | 71hPa | 2.5V | 18:12:15 | 02:01:38 | 00:00:00 | i |
| DO1YAY-16 | 2026-08-31 12:32:08 | 50.98342 | 5.38150 | 50° | 44km/h | 18732m | 4.1m/s | -52.0°C | 1.1% | 71.0hPa | 2.6V | 00:00:00 | 00:00:00 | 00:00:00 | i |
| DM0DOS-11 | 2026-08-31 12:32:04 | 50.98296 | 5.38094 | 39° | 44km/h | 18700m | 6.8m/s | -51.8°C | 3.7% | 71.3hPa | 2.6V | 08:30:00 | 02:01:32 | 00:00:00 | i |
| DL1XH-west | 2026-08-31 12:31:58 | 50.98244 | 5.38038 | 18° | 42km/h | 18671m | 4.3m/s | -51.5°C | 0.4% | 71.7hPa | 2.6V | 18:12:15 | 02:01:26 | 00:00:00 | i |
| BIOWL1-15 | 2026-08-31 12:31:58 | 50.98206 | 5.37985 | 56° | 46km/h | 18651m | 4.5m/s | -51.9°C | 0.5% | 71.9hPa | 2.6V | 18:12:15 | 02:01:22 | 00:00:00 | i |
| GOEST3-10 | 2026-08-31 12:31:58 | 50.98262 | 5.38047 | 26° | 40km/h | 18680m | 5.6m/s | 0°C | 0% | 0hPa | 2.6V | 00:00:00 | 02:01:28 | 00:00:00 | i |
| DM0DOS-11 | 2026-08-31 12:31:54 | 50.98206 | 5.37985 | 56° | 46km/h | 18651m | 4.5m/s | -51.9°C | 3.7% | 71.9hPa | 2.6V | 08:30:00 | 02:01:22 | 00:00:00 | i |
| BIOWL1-15 | 2026-08-31 12:31:47 | 50.98130 | 5.37926 | 46° | 38km/h | 18610m | 6.1m/s | -51.9°C | 0.4% | 72.4hPa | 2.5V | 18:12:15 | 02:01:14 | 00:00:00 | i |
| DL1XH-west | 2026-08-31 12:31:45 | 50.98138 | 5.37938 | 41° | 51km/h | 18615m | 5.1m/s | -51.9°C | 0.4% | 72.3hPa | 2.5V | 18:12:15 | 02:01:15 | 00:00:00 | i |
| DM0DOS-11 | 2026-08-31 12:31:44 | 50.98119 | 5.37916 | 0° | 26km/h | 18599m | 4.3m/s | -51.9°C | 3.6% | 72.5hPa | 2.6V | 08:30:00 | 02:01:12 | 00:00:00 | i |
| BIOWL1-15 | 2026-08-31 12:31:39 | 50.98022 | 5.37866 | 4° | 38km/h | 18538m | 4.5m/s | -51.2°C | 0.4% | 73.2hPa | 2.6V | 18:12:15 | 02:01:01 | 00:00:00 | i |
| DL1XH-west | 2026-08-31 12:31:35 | 50.98046 | 5.37868 | 24° | 22km/h | 18553m | 6.2m/s | -51.4°C | 0.5% | 73hPa | 2.6V | 18:12:15 | 02:01:04 | 00:00:00 | i |
| GOEST3-10 | 2026-08-31 12:31:34 | 50.98046 | 5.37868 | 24° | 29km/h | 18553m | 6.1m/s | 0°C | 0% | 0hPa | 2.5V | 00:00:00 | 02:01:04 | 00:00:00 | |
| DM0DOS-11 | 2026-08-31 12:31:33 | 50.98031 | 5.37867 | 357° | 37km/h | 18543m | 4.2m/s | -51.2°C | 3.7% | 73.1hPa | 2.5V | 08:30:00 | 02:01:02 | 00:00:00 | i |
| DL1XH-west | 2026-08-31 12:31:24 | 50.97961 | 5.37828 | 5° | 38km/h | 18500m | 4m/s | -51°C | 0.4% | 73.6hPa | 2.5V | 18:12:15 | 02:00:54 | 00:00:00 | i |
| GOEST3-10 | 2026-08-31 12:31:24 | 50.97961 | 5.37827 | 5° | 35km/h | 18500m | 3.9m/s | 0°C | 0% | 0hPa | 2.5V | 00:00:00 | 02:00:54 | 08:30:00 | i |
| DM0DOS-11 | 2026-08-31 12:31:23 | 50.97945 | 5.37820 | 35° | 31km/h | 18490m | 6.6m/s | -51°C | 3.6% | 73.7hPa | 2.5V | 08:30:00 | 02:00:52 | 00:00:00 | i |
| BIOWL1-15 | 2026-08-31 12:31:21 | 50.97929 | 5.37790 | 40° | 35km/h | 18473m | 5.8m/s | -50.8°C | 0.4% | 73.9hPa | 2.6V | 18:12:15 | 02:00:49 | 00:00:00 | i |
| DL1XH-west | 2026-08-31 12:31:13 | 50.97887 | 5.37761 | 57° | 37km/h | 18442m | 5.2m/s | -50.7°C | 0.4% | 74.3hPa | 2.5V | 18:12:15 | 02:00:43 | 00:00:00 | i |
| DM0DOS-11 | 2026-08-31 12:31:13 | 50.97881 | 5.37748 | 50° | 42km/h | 18436m | 5.3m/s | -50.7°C | 3.5% | 74.3hPa | 2.6V | 08:30:00 | 02:00:42 | 00:00:00 | i |
| BIOWL1-15 | 2026-08-31 12:31:07 | 50.97844 | 5.37715 | 46° | 16km/h | 18410m | 6.6m/s | -50.6°C | 0.3% | 74.6hPa | 2.5V | 18:12:15 | 02:00:37 | 00:00:00 | i |
| DL1XH-west | 2026-08-31 12:31:03 | 50.97827 | 5.37687 | 28° | 42km/h | 18389m | 5.7m/s | -50.6°C | 0.4% | 74.9hPa | 2.5V | 18:12:15 | 02:00:33 | 00:00:00 | i |
| GOEST3-10 | 2026-08-31 12:31:03 | 50.97827 | 5.37687 | 28° | 35km/h | 18389m | 5.7m/s | 0°C | 0% | 0hPa | 2.5V | 00:00:00 | 02:00:33 | 00:00:00 | i |
| DJ2KF-10 | 2026-08-31 12:31:02 | 50.97818 | 5.37679 | 30° | 33km/h | 18384m | 4.2m/s | -50.6°C | 3.4% | 74.9hPa | 2.5V | 00:00:00 | 02:00:32 | 00:00:00 | |
| DM0DOS-11 | 2026-08-31 12:30:58 | 50.97760 | 5.37574 | 56° | 35km/h | 18327m | 3.9m/s | -50.2°C | 3.5% | 75.6hPa | 2.5V | 08:30:00 | 02:00:21 | 00:00:00 | i |
| BIOWL1-15 | 2026-08-31 12:30:56 | 50.97754 | 5.37563 | 44° | 37km/h | 18323m | 4.9m/s | -50.2°C | 0.4% | 75.6hPa | 2.5V | 18:12:15 | 02:00:20 | 00:00:00 | i |
| DL1XH-west | 2026-08-31 12:30:53 | 50.97770 | 5.37598 | 55° | 35km/h | 18337m | 6.2m/s | -50.3°C | 0.4% | 75.5hPa | 2.6V | 18:12:15 | 02:00:23 | 00:00:00 | i |
| BIOWL1-15 | 2026-08-31 12:30:48 | 50.97727 | 5.37526 | 60° | 27km/h | 18302m | 6.8m/s | -50.1°C | 0.3% | 75.9hPa | 2.5V | 18:12:15 | 02:00:16 | 00:00:00 | i |
| GOEST3-10 | 2026-08-31 12:30:47 | 50.97732 | 5.37535 | 42° | 27km/h | 18308m | 4.5m/s | 0°C | 0% | 0hPa | 2.6V | 00:00:00 | 00:00:00 | 00:00:00 | |
| DM0DOS-11 | 2026-08-31 12:30:46 | 50.97706 | 5.37484 | 25° | 42km/h | 18274m | 3.8m/s | -49.9°C | 3.3% | 76.2hPa | 2.6V | 08:30:00 | 02:00:11 | 00:00:00 | i |
| DL1XH-west | 2026-08-31 12:30:42 | 50.97714 | 5.37491 | 30° | 37km/h | 18279m | 6.1m/s | -50°C | 0.3% | 76.1hPa | 2.6V | 18:12:15 | 02:00:12 | 00:00:00 | i |
| BIOWL1-15 | 2026-08-31 12:30:35 | 50.97678 | 5.37423 | 51° | 27km/h | 18243m | 5.6m/s | -49.7°C | 0.3% | 76.6hPa | 2.5V | 18:12:15 | 02:00:05 | 00:00:00 | i |
| DO1YAY-16 | 2026-08-31 12:30:35 | 50.97678 | 5.37423 | 51° | 27km/h | 18243m | 5.6m/s | -49.7°C | 1.0% | 76.6hPa | 2.6V | 00:00:00 | 00:00:00 | 00:00:00 | i |
| DM0DOS-11 | 2026-08-31 12:30:34 | 50.97654 | 5.37394 | 50° | 24km/h | 18222m | 6.7m/s | -49.7°C | 3.4% | 76.8hPa | 2.6V | 08:30:00 | 02:00:01 | 00:00:00 | i |
| DL1XH-west | 2026-08-31 12:30:32 | 50.97654 | 5.37394 | 51° | 24km/h | 18222m | 6.7m/s | -49.7°C | 0.3% | 76.8hPa | 2.6V | 18:12:15 | 02:00:01 | 00:00:00 | i |
| BIOWL1-15 | 2026-08-31 12:30:24 | 50.97618 | 5.37345 | 33° | 26km/h | 18186m | 5.9m/s | -49.8°C | 0.2% | 77.2hPa | 2.6V | 18:12:15 | 01:59:54 | 00:00:00 | i |
| DM0DOS-11 | 2026-08-31 12:30:22 | 50.97604 | 5.37321 | 43° | 35km/h | 18172m | 5.8m/s | -49.9°C | 3.3% | 77.4hPa | 2.6V | 08:30:00 | 01:59:51 | 00:00:00 | i |
| DL1XH-west | 2026-08-31 12:30:21 | 50.97596 | 5.37312 | 36° | 42km/h | 18166m | 5.9m/s | -49.9°C | 0.3% | 77.5hPa | 2.6V | 18:12:15 | 01:59:50 | 00:00:00 | i |
| DL1ZP-14 | 2026-08-31 12:30:21 | 50.97603 | 5.37321 | 43° | 33km/h | 18172m | 5.8m/s | -49.9°C | 1.0% | 77.4hPa | 2.6V | 00:00:00 | 00:00:00 | 00:00:00 | i |
| DB0ND-19 | 2026-08-31 12:30:20 | 50.97596 | 5.37312 | 35° | 40km/h | 18166m | 5.9m/s | -49.9°C | 1.0% | 77.5hPa | 2.5V | 00:00:00 | 00:00:00 | 00:00:00 | |
| DM0DOS-11 | 2026-08-31 12:30:17 | 50.97529 | 5.37246 | 23° | 42km/h | 18123m | 3.8m/s | -49.8°C | 3.2% | 78hPa | 2.5V | 08:30:00 | 01:59:41 | 00:00:00 | i |
| BIOWL1-15 | 2026-08-31 12:30:14 | 50.97506 | 5.37207 | 44° | 31km/h | 18097m | 4.7m/s | -50.2°C | 0.3% | 78.3hPa | 2.5V | 18:12:15 | 01:59:36 | 00:00:00 | i |
| DL1XH-west | 2026-08-31 12:30:09 | 50.97513 | 5.37224 | 70° | 22km/h | 18107m | 4.5m/s | -50.1°C | 0.3% | 78.2hPa | 2.6V | 18:12:15 | 01:59:38 | 00:00:00 | |
| DJ3KS | 2026-08-31 12:30:08 | 50.97513 | 5.37224 | 71° | 22km/h | 18107m | 4.5m/s | -50.1°C | 1.1% | 78.2hPa | 2.5V | 00:00:00 | 00:00:00 | 00:00:00 | |
| DM0DOS-11 | 2026-08-31 12:30:06 | 50.97472 | 5.37160 | 70° | 22km/h | 18073m | 4.5m/s | -50.3°C | 3.4% | 78.6hPa | 2.5V | 08:30:00 | 01:59:31 | 00:00:00 | i |
| DL1XH-west | 2026-08-31 12:29:59 | 50.97463 | 5.37140 | 32° | 31km/h | 18059m | 5.7m/s | -50.3°C | 0.3% | 78.7hPa | 2.6V | 18:12:15 | 01:59:28 | 00:00:00 | i |
| BIOWL1-15 | 2026-08-31 12:29:57 | 50.97437 | 5.37099 | 72° | 33km/h | 18039m | 4.8m/s | -50.2°C | 0.3% | 79hPa | 2.5V | 18:12:15 | 01:59:24 | 00:00:00 | i |
| GOEST3-10 | 2026-08-31 12:29:56 | 50.97447 | 5.37123 | 42° | 35km/h | 18050m | 4.4m/s | 0°C | 0% | 0hPa | 2.6V | 00:00:00 | 00:00:00 | 00:00:00 | |
| DM0DOS-11 | 2026-08-31 12:29:54 | 50.97428 | 5.37071 | 37° | 29km/h | 18026m | 6m/s | -50.3°C | 3.5% | 79.2hPa | 2.6V | 08:30:00 | 01:59:21 | 00:00:00 | i |
| DL1XH-west | 2026-08-31 12:29:48 | 50.97396 | 5.37038 | 56° | 35km/h | 18006m | 5.5m/s | -50.2°C | 0.3% | 79.4hPa | 2.6V | 18:12:15 | 01:59:17 | 00:00:00 | i |
| DL4BBY-15 | 2026-08-31 12:29:46 | 50.97392 | 5.37025 | 75° | 33km/h | 18001m | 4.5m/s | -50.0°C | 0% | 0hPa | 2.7V | 00:00:00 | 00:00:00 | 00:00:00 | |
| GOEST3-10 | 2026-08-31 12:29:45 | 50.97390 | 5.37011 | 78° | 27km/h | 17998m | 3.5m/s | 0°C | 0% | 0hPa | 2.7V | 00:00:00 | 00:00:00 | 00:00:00 | |
| DM0DOS-11 | 2026-08-31 12:29:43 | 50.97365 | 5.36969 | 18° | 35km/h | 17980m | 3.7m/s | -50.3°C | 3.4% | 79.7hPa | 2.7V | 08:30:00 | 01:59:11 | 00:00:00 | i |
| DL1XH-west | 2026-08-31 12:29:38 | 50.97348 | 5.36941 | 70° | 35km/h | 17961m | 5.3m/s | -50.5°C | 0.4% | 79.9hPa | 2.5V | 18:12:15 | 01:59:07 | 00:00:00 | i |
| GOEST3-10 | 2026-08-31 12:29:38 | 50.97350 | 5.36953 | 73° | 31km/h | 17966m | 4.7m/s | 0°C | 0% | 0hPa | 2.5V | 00:00:00 | 01:59:08 | 00:00:00 | i |
| HTAHTA | 2026-08-31 12:29:37 | 50.97344 | 5.36928 | 57° | 42km/h | 17955m | 5.1m/s | -50.5°C | 1.1% | 80.0hPa | 2.5V | 00:00:00 | 00:00:00 | 00:00:00 | |
| BIOWL9-15 | 2026-08-31 12:29:35 | 50.97328 | 5.36904 | 31° | 38km/h | 17947m | 4.2m/s | -50.3°C | 1.1% | 80.1hPa | 2.5V | 00:00:00 | 00:00:00 | 00:00:00 | |
| DM0DOS-11 | 2026-08-31 12:29:33 | 50.97314 | 5.36891 | 83° | 13km/h | 17930m | 4.3m/s | -50.3°C | 3.5% | 80.3hPa | 2.5V | 08:30:00 | 01:59:01 | 00:00:00 | i |
| BIOWL1-15 | 2026-08-31 12:29:33 | 50.97292 | 5.36830 | 37° | 38km/h | 17905m | 4.9m/s | -50.1°C | 0.3% | 80.6hPa | 2.6V | 18:12:15 | 01:58:56 | 00:00:00 | i |
| DL1XH-west | 2026-08-31 12:29:28 | 50.97300 | 5.36841 | 46° | 47km/h | 17910m | 4.6m/s | -50.2°C | 0.3% | 80.6hPa | 2.5V | 18:12:15 | 01:58:57 | 00:00:00 | i |
| DM0DOS-11 | 2026-08-31 12:29:23 | 50.97279 | 5.36795 | 85° | 35km/h | 17880m | 4.2m/s | -50.1°C | 3.4% | 80.9hPa | 2.5V | 08:30:00 | 01:58:51 | 00:00:00 | i |
| BIOWL1-15 | 2026-08-31 12:29:20 | 50.97268 | 5.36756 | 38° | 35km/h | 17866m | 5.3m/s | -50.1°C | 0.3% | 81.1hPa | 2.6V | 18:12:15 | 01:58:48 | 00:00:00 | i |
| DL1XH-west | 2026-08-31 12:29:17 | 50.97261 | 5.36749 | 21° | 33km/h | 17862m | 4.3m/s | -50°C | 0.3% | 81.2hPa | 2.5V | 18:12:15 | 01:58:47 | 00:00:00 | i |
| DL4BBY-15 | 2026-08-31 12:29:16 | 50.97253 | 5.36745 | 17° | 31km/h | 17858m | 3.8m/s | -49.6°C | 0% | 0hPa | 2.5V | 00:00:00 | 00:00:00 | 00:00:00 | |
| DM0DOS-11 | 2026-08-31 12:29:13 | 50.97236 | 5.36698 | 70° | 27km/h | 17832m | 5.6m/s | -49.8°C | 3.3% | 81.5hPa | 2.5V | 08:30:00 | 01:58:41 | 00:00:00 | |
| BIOWL1-15 | 2026-08-31 12:29:07 | 50.97215 | 5.36665 | 56° | 29km/h | 17813m | 6m/s | -49.7°C | 0.3% | 81.8hPa | 2.6V | 18:12:15 | 01:58:37 | 00:00:00 | i |
| DL1XH-west | 2026-08-31 12:28:57 | 50.97187 | 5.36554 | 66° | 44km/h | 17758m | 5.7m/s | -50°C | 0.3% | 82.5hPa | 2.6V | 18:12:15 | 01:58:26 | 00:00:00 | i |
| DM0DOS-11 | 2026-08-31 12:28:56 | 50.97160 | 5.36497 | 90° | 37km/h | 17728m | 4.1m/s | -50°C | 3.3% | 82.8hPa | 2.6V | 08:30:00 | 01:58:20 | 00:00:00 | i |
| DL1XH-west | 2026-08-31 12:28:46 | 50.97136 | 5.36447 | 25° | 20km/h | 17705m | 4.6m/s | -49.9°C | 0.3% | 83.1hPa | 2.6V | 18:12:15 | 01:58:15 | 00:00:00 | i |
| BIOWL1-15 | 2026-08-31 12:28:46 | 50.97132 | 5.36435 | 88° | 27km/h | 17695m | 4.4m/s | -49.9°C | 0.4% | 83.3hPa | 2.5V | 18:12:15 | 01:58:13 | 00:00:00 | i |
| DL1XH-west | 2026-08-31 12:28:34 | 50.97094 | 5.36340 | 78° | 35km/h | 17652m | 5.1m/s | -49.9°C | 0.3% | 83.8hPa | 2.5V | 18:12:15 | 01:58:04 | 00:00:00 | i |
| BIOWL1-15 | 2026-08-31 12:28:31 | 50.97054 | 5.36281 | 52° | 15km/h | 17622m | 4.7m/s | -49.6°C | 0.3% | 84.2hPa | 2.5V | 18:12:15 | 01:57:58 | 00:00:00 | i |
| DL1XH-west | 2026-08-31 12:28:24 | 50.97044 | 5.36236 | 61° | 44km/h | 17604m | 4.4m/s | -49.5°C | 0.3% | 84.4hPa | 2.5V | 18:12:15 | 01:57:54 | 00:00:00 | i |
| DM0DOS-11 | 2026-08-31 12:28:22 | 50.97022 | 5.36196 | 48° | 24km/h | 17585m | 3.6m/s | -49.2°C | 3.2% | 84.7hPa | 2.6V | 08:30:00 | 01:57:50 | 00:00:00 | i |
| BIOWL1-15 | 2026-08-31 12:28:18 | 50.97014 | 5.36176 | 67° | 35km/h | 17575m | 5.3m/s | -49.4°C | 0.2% | 84.8hPa | 2.5V | 18:12:15 | 01:57:48 | 00:00:00 | |
| DL1XH-west | 2026-08-31 12:28:14 | 50.96999 | 5.36131 | 48° | 20km/h | 17554m | 4.7m/s | -49.5°C | 0.3% | 85.1hPa | 2.6V | 18:12:15 | 01:57:44 | 00:00:00 | i |
| BIOWL1-15 | 2026-08-31 12:28:07 | 50.96973 | 5.36039 | 44° | 27km/h | 17516m | 3.6m/s | -49.8°C | 0.3% | 85.6hPa | 2.7V | 18:12:15 | 01:57:36 | 00:00:00 | i |
| DL1XH-west | 2026-08-31 12:28:03 | 50.96965 | 5.35991 | 94° | 42km/h | 17497m | 4.2m/s | -49.9°C | 0.3% | 85.8hPa | 2.5V | 18:12:15 | 01:57:32 | 00:00:00 | i |
| BIOWL1-15 | 2026-08-31 12:27:54 | 50.96938 | 5.35864 | 97° | 44km/h | 17457m | 5m/s | -49.8°C | 0.2% | 86.3hPa | 2.5V | 18:12:15 | 01:57:24 | 00:00:00 | i |
| DL1XH-west | 2026-08-31 12:27:52 | 50.96938 | 5.35834 | 73° | 33km/h | 17447m | 5.2m/s | -50°C | 0.3% | 86.5hPa | 2.6V | 18:12:15 | 01:57:22 | 00:00:00 | i |
| DM0DOS-11 | 2026-08-31 12:27:52 | 50.96930 | 5.35808 | 64° | 40km/h | 17438m | 5.1m/s | -49.9°C | 3.3% | 86.6hPa | 2.6V | 08:30:00 | 01:57:20 | 00:00:00 | i |
| BIOWL1-15 | 2026-08-31 12:27:44 | 50.96916 | 5.35692 | 63° | 38km/h | 17407m | 5.5m/s | -50°C | 0.3% | 87hPa | 2.6V | 18:12:15 | 01:57:14 | 00:00:00 | i |
| DM0DOS-11 | 2026-08-31 12:27:42 | 50.96903 | 5.35629 | 88° | 49km/h | 17389m | 4m/s | -50.2°C | 3.2% | 87.3hPa | 2.6V | 08:30:00 | 01:57:10 | 00:00:00 | i |
| DL1XH-west | 2026-08-31 12:27:42 | 50.96907 | 5.35664 | 69° | 42km/h | 17398m | 4.9m/s | -50.1°C | 0.2% | 87.2hPa | 2.5V | 18:12:15 | 01:57:12 | 00:00:00 | i |
| BIOWL1-15 | 2026-08-31 12:27:33 | 50.96854 | 5.35382 | 84° | 51km/h | 17324m | 4.2m/s | -51.1°C | 0.4% | 88.2hPa | 2.6V | 18:12:15 | 01:56:56 | 00:00:00 | i |
| DL1XH-west | 2026-08-31 12:27:32 | 50.96871 | 5.35449 | 59° | 51km/h | 17343m | 5.3m/s | -50.5°C | 0.4% | 87.9hPa | 2.6V | 18:12:15 | 01:57:00 | 00:00:00 | i |
| DM0DOS-11 | 2026-08-31 12:27:32 | 50.96872 | 5.35449 | 58° | 51km/h | 17343m | 5.3m/s | -50.5°C | 3.4% | 87.9hPa | 2.6V | 08:30:00 | 01:57:00 | 00:00:00 | i |
| DL1XH-west | 2026-08-31 12:27:22 | 50.96835 | 5.35304 | 55° | 49km/h | 17304m | 4.2m/s | -51.3°C | 0.4% | 88.4hPa | 2.6V | 18:12:15 | 01:56:52 | 00:00:00 | i |
| DM0DOS-11 | 2026-08-31 12:27:21 | 50.96824 | 5.35273 | 68° | 40km/h | 17294m | 5.2m/s | -51.3°C | 3.5% | 88.6hPa | 2.6V | 08:30:00 | 01:56:50 | 00:00:00 | i |
| BIOWL1-15 | 2026-08-31 12:27:19 | 50.96815 | 5.35220 | 71° | 55km/h | 17280m | 6.1m/s | -51.3°C | 0.5% | 88.7hPa | 2.5V | 18:12:15 | 01:56:47 | 00:00:00 | i |
| DL1XH-west | 2026-08-31 12:27:11 | 50.96791 | 5.35104 | 73° | 38km/h | 17250m | 4.5m/s | -51.5°C | 0.5% | 89.1hPa | 2.6V | 18:12:15 | 01:56:41 | 00:00:00 | i |
| DM0DOS-11 | 2026-08-31 12:27:11 | 50.96788 | 5.35089 | 63° | 42km/h | 17245m | 5.6m/s | -51.5°C | 3.7% | 89.2hPa | 2.6V | 08:30:00 | 01:56:40 | 00:00:00 | i |
| BIOWL1-15 | 2026-08-31 12:27:06 | 50.96770 | 5.35014 | 89° | 51km/h | 17225m | 5.3m/s | -51.5°C | 0.5% | 89.5hPa | 2.6V | 18:12:15 | 01:56:36 | 00:00:00 | i |
| DM0DOS-11 | 2026-08-31 12:27:06 | 50.96751 | 5.34911 | 63° | 38km/h | 17196m | 5.2m/s | -51.2°C | 3.5% | 89.9hPa | 2.6V | 08:30:00 | 01:56:30 | 00:00:00 | i |
| DL1XH-west | 2026-08-31 12:27:01 | 50.96751 | 5.34911 | 64° | 38km/h | 17196m | 5.3m/s | -51.3°C | 0.5% | 89.9hPa | 2.6V | 18:12:15 | 01:56:30 | 00:00:00 | i |
| BIOWL9-15 | 2026-08-31 12:26:59 | 50.96749 | 5.34897 | 83° | 37km/h | 17191m | 5.2m/s | -51.3°C | 1.2% | 90.0hPa | 2.6V | 00:00:00 | 00:00:00 | 00:00:00 | |
| DO1YAY-16 | 2026-08-31 12:26:58 | 50.96750 | 5.34861 | 94° | 49km/h | 17181m | 4.7m/s | -51.2°C | 1.1% | 90.1hPa | 2.6V | 00:00:00 | 00:00:00 | 00:00:00 | |
| DM0DOS-11 | 2026-08-31 12:26:55 | 50.96732 | 5.34746 | 91° | 46km/h | 17148m | 4.4m/s | -51.2°C | 3.5% | 90.5hPa | 2.6V | 08:30:00 | 01:56:20 | 00:00:00 | i |
| DL1XH-west | 2026-08-31 12:26:49 | 50.96732 | 5.34726 | 87° | 55km/h | 17143m | 6.1m/s | -51.3°C | 0.5% | 90.6hPa | 2.5V | 18:12:15 | 01:56:19 | 00:00:00 | i |
| DL4BBY-15 | 2026-08-31 12:26:46 | 50.96723 | 5.34662 | 75° | 47km/h | 17128m | 5.3m/s | -51.4°C | 0% | 0hPa | 2.6V | 00:00:00 | 00:00:00 | 00:00:00 | |
| DM0DOS-11 | 2026-08-31 12:26:45 | 50.96715 | 5.34550 | 70° | 64km/h | 17098m | 3.7m/s | -51.6°C | 3.7% | 91.3hPa | 2.6V | 08:30:00 | 01:56:10 | 00:00:00 | i |
| BIOWL1-15 | 2026-08-31 12:26:42 | 50.96702 | 5.34465 | 92° | 42km/h | 17072m | 5.7m/s | -51.5°C | 0.4% | 91.6hPa | 2.6V | 18:12:15 | 01:56:05 | 00:00:00 | i |
| DL1XH-west | 2026-08-31 12:26:39 | 50.96705 | 5.34509 | 71° | 44km/h | 17088m | 5.8m/s | -51.5°C | 0.5% | 91.4hPa | 2.5V | 18:12:15 | 01:56:08 | 00:00:00 | i |
| WPPR-10 | 2026-08-31 12:26:39 | 50.96705 | 5.34509 | 70° | 44km/h | 17088m | 5.8m/s | -51.5°C | -1.0% | 91.4hPa | 2.6V | 00:00:00 | 00:00:00 | 00:00:00 | i |
| DM0DOS-11 | 2026-08-31 12:26:35 | 50.96687 | 5.34366 | 67° | 40km/h | 17048m | 5.1m/s | -51.5°C | 3.6% | 92hPa | 2.6V | 08:30:00 | 01:56:00 | 00:00:00 | i |
| DL1XH-west | 2026-08-31 12:26:29 | 50.96682 | 5.34321 | 87° | 47km/h | 17035m | 5.3m/s | -51.7°C | 0.6% | 92.2hPa | 2.5V | 18:12:15 | 01:55:57 | 00:00:00 | i |
| BIOWL1-15 | 2026-08-31 12:26:27 | 50.96680 | 5.34300 | 82° | 57km/h | 17030m | 4.8m/s | -51.7°C | 0.5% | 92.2hPa | 2.6V | 18:12:15 | 01:55:56 | 00:00:00 | |
| DO1YAY-16 | 2026-08-31 12:26:27 | 50.96680 | 5.34300 | 81° | 57km/h | 17030m | 4.8m/s | -51.7°C | 1.2% | 92.2hPa | 2.6V | 00:00:00 | 00:00:00 | 00:00:00 | |
| DJ2DS-15 | 2026-08-31 12:26:26 | 50.96677 | 5.34278 | 72° | 57km/h | 17025m | 4.3m/s | -51.6°C | 1.2% | 92.3hPa | 2.6V | 00:00:00 | 00:00:00 | 00:00:00 | |
| DM0DOS-11 | 2026-08-31 12:26:25 | 50.96656 | 5.34204 | 88° | 40km/h | 17000m | 5.9m/s | -51.9°C | 3.6% | 92.7hPa | 2.6V | 08:30:00 | 01:55:50 | 00:00:00 | i |
| DL1XH-west | 2026-08-31 12:26:17 | 50.96640 | 5.34120 | 47° | 58km/h | 16979m | 5.6m/s | -51.8°C | 0.5% | 92.9hPa | 2.5V | 18:12:15 | 01:55:46 | 00:00:00 | i |
| BIOWL1-15 | 2026-08-31 12:26:17 | 50.96613 | 5.34082 | 58° | 37km/h | 16964m | 5.6m/s | -51.9°C | 0.6% | 93.2hPa | 2.5V | 18:12:15 | 01:55:43 | 00:00:00 | i |
| DL4BBY-15 | 2026-08-31 12:26:16 | 50.96640 | 5.34120 | 48° | 46km/h | 16979m | 5.6m/s | -51.5°C | 0% | 0hPa | 2.6V | 00:00:00 | 00:00:00 | 00:00:00 | |
| DM0DOS-11 | 2026-08-31 12:26:12 | 50.96610 | 5.34032 | 84° | 49km/h | 16948m | 4.3m/s | -52°C | 3.7% | 93.4hPa | 2.6V | 08:30:00 | 01:55:40 | 00:00:00 | i |
| DL1XH-west | 2026-08-31 12:26:07 | 50.96582 | 5.33969 | 42° | 46km/h | 16929m | 4.6m/s | -51.9°C | 0.5% | 93.7hPa | 2.5V | 18:12:15 | 01:55:36 | 00:00:00 | i |
| BIOWL1-15 | 2026-08-31 12:26:03 | 50.96571 | 5.33930 | 90° | 42km/h | 16913m | 4.3m/s | -52.1°C | 0.6% | 93.9hPa | 2.6V | 18:12:15 | 01:55:33 | 00:00:00 | i |
| DJ2KF-10 | 2026-08-31 12:26:02 | 50.96571 | 5.33912 | 87° | 42km/h | 16909m | 4.6m/s | -52.1°C | 3.7% | 93.9hPa | 2.6V | 00:00:00 | 01:55:32 | 00:00:00 | |
| DM0DOS-11 | 2026-08-31 12:26:01 | 50.96564 | 5.33875 | 59° | 53km/h | 16898m | 5.6m/s | -52.1°C | 3.8% | 94.1hPa | 2.6V | 08:30:00 | 01:55:30 | 00:00:00 | i |
| DL1XH-west | 2026-08-31 12:25:56 | 50.96525 | 5.33759 | 64° | 42km/h | 16863m | 5.9m/s | -51.9°C | 0.6% | 94.6hPa | 2.6V | 18:12:15 | 01:55:23 | 00:00:00 | i |
| BIOWL1-15 | 2026-08-31 12:25:54 | 50.96502 | 5.33707 | 72° | 42km/h | 16843m | 5.7m/s | -51.7°C | 0.6% | 94.9hPa | 2.6V | 18:12:15 | 01:55:19 | 00:00:00 | i |
| DL1XH-west | 2026-08-31 12:25:45 | 50.96489 | 5.33639 | 52° | 42km/h | 16821m | 5.6m/s | -51.6°C | 0.6% | 95.2hPa | 2.6V | 18:12:15 | 01:55:15 | 00:00:00 | i |
| DM0DOS-11 | 2026-08-31 12:25:45 | 50.96472 | 5.33560 | 77° | 44km/h | 16791m | 6m/s | -51.5°C | 3.7% | 95.7hPa | 2.6V | 08:30:00 | 01:55:09 | 00:00:00 | i |
| BIOWL1-15 | 2026-08-31 12:25:40 | 50.96472 | 5.33560 | 77° | 44km/h | 16791m | 6.1m/s | -51.5°C | 0.5% | 95.7hPa | 2.6V | 18:12:15 | 01:55:09 | 00:00:00 | i |
| DL1XH-west | 2026-08-31 12:25:35 | 50.96450 | 5.33498 | 88° | 24km/h | 16766m | 5m/s | -51.4°C | 0.5% | 96hPa | 2.6V | 18:12:15 | 01:55:04 | 00:00:00 | i |
| DM0DOS-11 | 2026-08-31 12:25:32 | 50.96442 | 5.33441 | 58° | 49km/h | 16745m | 5.2m/s | -51.2°C | 3.7% | 96.3hPa | 2.5V | 08:30:00 | 01:55:00 | 00:00:00 | i |
| DJ2KF-10 | 2026-08-31 12:25:32 | 50.96449 | 5.33474 | 83° | 37km/h | 16757m | 5.6m/s | -51.4°C | 3.6% | 96.2hPa | 2.6V | 00:00:00 | 01:55:02 | 00:00:00 | i |
| BIOWL1-15 | 2026-08-31 12:25:31 | 50.96398 | 5.33167 | 93° | 40km/h | 16641m | 5.6m/s | -50.8°C | 0.5% | 97.9hPa | 2.5V | 18:12:15 | 01:54:39 | 00:00:00 | i |
| HTAHTA | 2026-08-31 12:25:29 | 50.96430 | 5.33410 | 60° | 37km/h | 16736m | 6.1m/s | -51.1°C | 1.2% | 96.5hPa | 2.5V | 00:00:00 | 00:00:00 | 00:00:00 | |
| BIOWL9-15 | 2026-08-31 12:25:26 | 50.96427 | 5.33390 | 99° | 20km/h | 16725m | 4.4m/s | -51.1°C | 1.2% | 96.6hPa | 2.5V | 00:00:00 | 00:00:00 | 00:00:00 | |
| DM0DOS-11 | 2026-08-31 12:25:25 | 50.96413 | 5.33307 | 73° | 38km/h | 16696m | 5.1m/s | -50.9°C | 3.5% | 97.1hPa | 2.5V | 08:30:00 | 01:54:50 | 00:00:00 | i |
| DL1XH-west | 2026-08-31 12:25:24 | 50.96424 | 5.33356 | 71° | 42km/h | 16710m | 5.1m/s | -51.1°C | 0.5% | 96.9hPa | 2.6V | 18:12:15 | 01:54:53 | 00:00:00 | i |
| BIOWL1-15 | 2026-08-31 12:25:22 | 50.96388 | 5.33055 | 105° | 42km/h | 16605m | 5.5m/s | -50.8°C | 0.4% | 98.5hPa | 2.7V | 18:12:15 | 01:54:32 | 00:00:00 | |
| DL1XH-west | 2026-08-31 12:25:13 | 50.96396 | 5.33217 | 75° | 37km/h | 16661m | 5.6m/s | -50.7°C | 0.4% | 97.6hPa | 2.6V | 18:12:15 | 01:54:43 | 00:00:00 | i |
| DM0DOS-11 | 2026-08-31 12:25:12 | 50.96397 | 5.33181 | 102° | 33km/h | 16646m | 3.2m/s | -50.8°C | 3.6% | 97.8hPa | 2.5V | 08:30:00 | 01:54:40 | 00:00:00 | i |
| BIOWL1-15 | 2026-08-31 12:25:10 | 50.96390 | 5.33037 | 95° | 51km/h | 16600m | 4.7m/s | -50.7°C | 0.4% | 98.5hPa | 2.6V | 18:12:15 | 01:54:31 | 00:00:00 | i |
| DM0DOS-11 | 2026-08-31 12:25:05 | 50.96389 | 5.33016 | 81° | 55km/h | 16595m | 4m/s | -50.6°C | 3.5% | 98.6hPa | 2.6V | 08:30:00 | 01:54:30 | 00:00:00 | i |
| DL1XH-west | 2026-08-31 12:25:03 | 50.96386 | 5.33070 | 104° | 31km/h | 16610m | 4.6m/s | -50.8°C | 0.4% | 98.4hPa | 2.5V | 18:12:15 | 01:54:33 | 00:00:00 | i |
| BIOWL1-15 | 2026-08-31 12:24:56 | 50.96374 | 5.32955 | 72° | 29km/h | 16575m | 4.2m/s | -50.4°C | 0.3% | 98.9hPa | 2.6V | 18:12:15 | 01:54:26 | 00:00:00 | i |
| DL1XH-west | 2026-08-31 12:24:53 | 50.96371 | 5.32883 | 80° | 55km/h | 16557m | 4.5m/s | -50.5°C | 0.4% | 99.2hPa | 2.5V | 18:12:15 | 01:54:22 | 00:00:00 | i |
| DM0DOS-11 | 2026-08-31 12:24:52 | 50.96362 | 5.32848 | 53° | 38km/h | 16546m | 5.2m/s | -50.4°C | 3.4% | 99.3hPa | 2.7V | 08:30:00 | 01:54:20 | 00:00:00 | |
| BIOWL1-15 | 2026-08-31 12:24:46 | 50.96328 | 5.32682 | 72° | 44km/h | 16487m | 6.3m/s | -50.4°C | 0.5% | 100.2hPa | 2.6V | 18:12:15 | 01:54:08 | 00:00:00 | i |
| DM0DOS-11 | 2026-08-31 12:24:45 | 50.96333 | 5.32707 | 75° | 24km/h | 16496m | 3.4m/s | -50.4°C | 3.5% | 100.1hPa | 2.7V | 08:30:00 | 01:54:10 | 00:00:00 | i |
| DL1XH-west | 2026-08-31 12:24:42 | 50.96338 | 5.32727 | 61° | 35km/h | 16507m | 6.2m/s | -50.4°C | 0.5% | 100hPa | 2.5V | 18:12:15 | 01:54:12 | 00:00:00 | i |
| BIOWL1-15 | 2026-08-31 12:24:33 | 50.96309 | 5.32584 | 79° | 24km/h | 16460m | 6.1m/s | -50.2°C | 0.4% | 100.7hPa | 2.5V | 18:12:15 | 01:54:03 | 00:00:00 | i |
| DL1XH-west | 2026-08-31 12:24:33 | 50.96307 | 5.32576 | 73° | 15km/h | 16456m | 3.5m/s | -50.1°C | 0.4% | 100.7hPa | 2.5V | 18:12:15 | 01:54:02 | 00:00:00 | i |
| DM0DOS-11 | 2026-08-31 12:24:32 | 50.96302 | 5.32557 | 66° | 40km/h | 16448m | 5.1m/s | -49.9°C | 3.4% | 100.9hPa | 2.6V | 08:30:00 | 01:54:00 | 00:00:00 | i |
| DJ2KF-10 | 2026-08-31 12:24:32 | 50.96307 | 5.32576 | 73° | 47km/h | 16456m | 3.4m/s | -50.0°C | 3.5% | 100.7hPa | 2.6V | 00:00:00 | 01:54:02 | 00:00:00 | i |
| HTAHTA | 2026-08-31 12:24:27 | 50.96285 | 5.32465 | 74° | 51km/h | 16426m | 4.3m/s | -49.8°C | 1.0% | 101.2hPa | 2.6V | 00:00:00 | 00:00:00 | 00:00:00 | |
| DM0DOS-11 | 2026-08-31 12:24:25 | 50.96274 | 5.32362 | 85° | 64km/h | 16389m | 5.1m/s | -50.1°C | 3.5% | 101.8hPa | 2.6V | 08:30:00 | 01:53:49 | 00:00:00 | i |
| BIOWL1-15 | 2026-08-31 12:24:23 | 50.96276 | 5.32427 | 70° | 22km/h | 16411m | 4.4m/s | -50°C | 0.3% | 101.5hPa | 2.6V | 18:12:15 | 01:53:53 | 00:00:00 | i |
| DL1XH-west | 2026-08-31 12:24:22 | 50.96274 | 5.32385 | 91° | 55km/h | 16395m | 6.9m/s | -50.2°C | 0.4% | 101.7hPa | 2.7V | 18:12:15 | 01:53:50 | 00:00:00 | i |
| BIOWL1-15 | 2026-08-31 12:24:12 | 50.96197 | 5.32060 | 64° | 64km/h | 16309m | 3.1m/s | -50°C | 0.3% | 103hPa | 2.7V | 18:12:15 | 01:53:33 | 00:00:00 | i |
| DM0DOS-11 | 2026-08-31 12:24:12 | 50.96236 | 5.32180 | 72° | 57km/h | 16343m | 5.1m/s | -50°C | 3.3% | 102.5hPa | 2.5V | 08:30:00 | 01:53:40 | 00:00:00 | i |
| DL1XH-west | 2026-08-31 12:24:11 | 50.96240 | 5.32204 | 78° | 64km/h | 16347m | 3.5m/s | -50.1°C | 0.4% | 102.4hPa | 2.5V | 18:12:15 | 01:53:41 | 00:00:00 | i |
| BIOWL1-15 | 2026-08-31 12:24:05 | 50.96189 | 5.32039 | 57° | 60km/h | 16304m | 5m/s | -49.9°C | 0.3% | 103.1hPa | 2.7V | 18:12:15 | 01:53:32 | 00:00:00 | i |
| DM0DOS-11 | 2026-08-31 12:24:05 | 50.96173 | 5.32007 | 46° | 40km/h | 16294m | 5m/s | -50°C | 3.3% | 103.3hPa | 2.5V | 08:30:00 | 01:53:30 | 00:00:00 | i |
| DL1XH-west | 2026-08-31 12:24:00 | 50.96173 | 5.32007 | 46° | 40km/h | 16294m | 5m/s | -50°C | 0.3% | 103.3hPa | 2.5V | 18:12:15 | 01:53:30 | 00:00:00 | i |
| HTAHTA | 2026-08-31 12:23:56 | 50.96149 | 5.31923 | 61° | 58km/h | 16270m | 3.5m/s | -49.8°C | 1.1% | 103.6hPa | 2.6V | 00:00:00 | 00:00:00 | 00:00:00 | |
| BIOWL9-15 | 2026-08-31 12:23:53 | 50.96129 | 5.31881 | 49° | 27km/h | 16256m | 4.3m/s | -49.9°C | 1.1% | 103.9hPa | 2.6V | 00:00:00 | 00:00:00 | 00:00:00 | |
| DM0DOS-11 | 2026-08-31 12:23:52 | 50.96123 | 5.31859 | 75° | 38km/h | 16246m | 5.3m/s | -50°C | 3.4% | 104hPa | 2.6V | 08:30:00 | 01:53:20 | 00:00:00 | i |
| BIOWL1-15 | 2026-08-31 12:23:52 | 50.96115 | 5.31821 | 67° | 57km/h | 16236m | 4.3m/s | -49.9°C | 0.4% | 104.2hPa | 2.5V | 18:12:15 | 01:53:18 | 00:00:00 | i |
| DL1XH-west | 2026-08-31 12:23:50 | 50.96120 | 5.31842 | 75° | 51km/h | 16241m | 5m/s | -50°C | 0.4% | 104.1hPa | 2.5V | 18:12:15 | 01:53:19 | 00:00:00 | i |
| DL4BBY-15 | 2026-08-31 12:23:46 | 50.96100 | 5.31786 | 45° | 42km/h | 16226m | 5.4m/s | -49.7°C | 0% | 0hPa | 2.7V | 00:00:00 | 00:00:00 | 00:00:00 | |
| DL1CLM-18 | 2026-08-31 12:23:44 | 50.96092 | 5.31775 | 39° | 35km/h | 16221m | 4.5m/s | 0°C | 0% | 0hPa | 2.7V | 00:00:00 | 00:00:00 | 00:00:00 | |
| DM0DOS-11 | 2026-08-31 12:23:41 | 50.96078 | 5.31707 | 72° | 51km/h | 16197m | 4.6m/s | -50°C | 3.4% | 104.8hPa | 2.7V | 08:30:00 | 01:53:10 | 00:00:00 | i |
| DL1XH-west | 2026-08-31 12:23:40 | 50.96078 | 5.31707 | 73° | 51km/h | 16197m | 4.6m/s | -50°C | 0.4% | 104.8hPa | 2.7V | 18:12:15 | 01:53:10 | 00:00:00 | i |
| BIOWL1-15 | 2026-08-31 12:23:39 | 50.96073 | 5.31690 | 57° | 47km/h | 16192m | 5.6m/s | -50°C | 0.4% | 104.8hPa | 2.7V | 18:12:15 | 01:53:09 | 00:00:00 | i |
| DL1ZP-14 | 2026-08-31 12:23:37 | 50.96057 | 5.31664 | 37° | 38km/h | 16183m | 4.1m/s | -49.8°C | 1.1% | 105.0hPa | 2.5V | 00:00:00 | 00:00:00 | 00:00:00 | |
| DJ3KS | 2026-08-31 12:23:35 | 50.96050 | 5.31654 | 48° | 37km/h | 16178m | 5.5m/s | -49.7°C | 0% | 0hPa | 2.7V | 00:00:00 | 00:00:00 | 00:00:00 | |
| WEDDY | 2026-08-31 12:23:34 | 50.96045 | 5.31642 | 67° | 35km/h | 16173m | 5.2m/s | -49.7°C | 1.2% | 105.2hPa | 2.7V | 00:00:00 | 00:00:00 | 00:00:00 | |
| DJ2KF-10 | 2026-08-31 12:23:32 | 50.96036 | 5.31594 | 68° | 49km/h | 16159m | 5.8m/s | -49.6°C | 3.4% | 105.4hPa | 2.7V | 00:00:00 | 01:53:02 | 00:00:00 | |
| DM0DOS-11 | 2026-08-31 12:23:31 | 50.96024 | 5.31563 | 48° | 42km/h | 16148m | 4.2m/s | -49.8°C | 3.3% | 105.6hPa | 2.7V | 08:30:00 | 01:53:00 | 00:00:00 | i |
| DL1XH-west | 2026-08-31 12:23:30 | 50.96024 | 5.31563 | 49° | 42km/h | 16148m | 4.3m/s | -49.8°C | 0.3% | 105.6hPa | 2.7V | 18:12:15 | 01:53:00 | 00:00:00 | i |
| BIOWL1-15 | 2026-08-31 12:23:27 | 50.96011 | 5.31528 | 80° | 37km/h | 16133m | 3.8m/s | -49.9°C | 0.3% | 105.8hPa | 2.5V | 18:12:15 | 01:52:57 | 00:00:00 | i |
| DL1XH-west | 2026-08-31 12:23:19 | 50.95960 | 5.31332 | 62° | 68km/h | 16076m | 4.1m/s | -49.8°C | 0.4% | 106.7hPa | 2.5V | 18:12:15 | 01:52:46 | 00:00:00 | i |
| BIOWL1-15 | 2026-08-31 12:23:16 | 50.95938 | 5.31237 | 83° | 44km/h | 16054m | 4.6m/s | -49.8°C | 0.4% | 107.1hPa | 2.5V | 18:12:15 | 01:52:41 | 00:00:00 | i |
| DL1XH-west | 2026-08-31 12:23:09 | 50.95933 | 5.31197 | 72° | 58km/h | 16044m | 4.5m/s | -49.8°C | 0.4% | 107.3hPa | 2.5V | 18:12:15 | 01:52:39 | 00:00:00 | i |
| BIOWL1-15 | 2026-08-31 12:23:05 | 50.95899 | 5.31081 | 78° | 55km/h | 16014m | 6.4m/s | -49.6°C | 0.3% | 107.7hPa | 2.7V | 18:12:15 | 01:52:33 | 00:00:00 | i |
| DJ2KF-10 | 2026-08-31 12:23:02 | 50.95896 | 5.31058 | 78° | 58km/h | 16008m | 4.8m/s | -49.5°C | 3.3% | 107.8hPa | 2.5V | 00:00:00 | 01:52:32 | 00:00:00 | |
| WPPR-10 | 2026-08-31 12:23:01 | 50.95842 | 5.30783 | 85° | 57km/h | 15941m | 5.2m/s | -49.5°C | -1.0% | 109.0hPa | 2.5V | 00:00:00 | 00:00:00 | 00:00:00 | |
| DM0DOS-11 | 2026-08-31 12:23:00 | 50.95882 | 5.30994 | 61° | 49km/h | 15991m | 5.2m/s | -49.3°C | 3.3% | 108.1hPa | 2.5V | 08:30:00 | 01:52:29 | 00:00:00 | i |
| DL1XH-west | 2026-08-31 12:22:59 | 50.95882 | 5.30994 | 62° | 49km/h | 15991m | 5.2m/s | -49.4°C | 0.3% | 108.1hPa | 2.5V | 18:12:15 | 01:52:29 | 00:00:00 | i |
| BIOWL1-15 | 2026-08-31 12:22:53 | 50.95860 | 5.30872 | 72° | 58km/h | 15960m | 5.8m/s | -49.4°C | 0.3% | 108.7hPa | 2.5V | 18:12:15 | 01:52:23 | 00:00:00 | i |
| BIOWL9-15 | 2026-08-31 12:22:51 | 50.95844 | 5.30807 | 75° | 58km/h | 15947m | 5.5m/s | -49.4°C | 1.1% | 108.9hPa | 2.5V | 00:00:00 | 00:00:00 | 00:00:00 | |
| DM0DOS-11 | 2026-08-31 12:22:50 | 50.95841 | 5.30761 | 89° | 57km/h | 15937m | 3.5m/s | -49.4°C | 3.3% | 109hPa | 2.5V | 08:30:00 | 01:52:18 | 00:00:00 | i |
| DL1XH-west | 2026-08-31 12:22:48 | 50.95841 | 5.30761 | 90° | 57km/h | 15937m | 3.5m/s | -49.4°C | 0.3% | 109hPa | 2.5V | 18:12:15 | 01:52:18 | 00:00:00 | i |
| DL4BBY-15 | 2026-08-31 12:22:46 | 50.95838 | 5.30717 | 78° | 60km/h | 15929m | 5.6m/s | -49.2°C | 0% | 0hPa | 2.5V | 00:00:00 | 00:00:00 | 00:00:00 | |
| DM0DOS-11 | 2026-08-31 12:22:45 | 50.95808 | 5.30543 | 65° | 51km/h | 15889m | 3.7m/s | -49.5°C | 3.3% | 109.8hPa | 2.5V | 08:30:00 | 01:52:08 | 00:00:00 | i |
| DL1XH-west | 2026-08-31 12:22:37 | 50.95802 | 5.30523 | 67° | 62km/h | 15886m | 3m/s | -49.4°C | 0.3% | 109.9hPa | 2.5V | 18:12:15 | 01:52:07 | 00:00:00 | i |
| DL1ZP-14 | 2026-08-31 12:22:35 | 50.95791 | 5.30439 | 88° | 73km/h | 15871m | 4.5m/s | 0°C | -1.0% | 110.2hPa | 2.7V | 00:00:00 | 00:00:00 | 00:00:00 | |
| DM0DOS-11 | 2026-08-31 12:22:33 | 50.95767 | 5.30313 | 70° | 64km/h | 15844m | 4.4m/s | -49.3°C | 3.2% | 110.6hPa | 2.6V | 08:30:00 | 01:51:58 | 00:00:00 | i |
| BIOWL1-15 | 2026-08-31 12:22:33 | 50.95774 | 5.30335 | 61° | 57km/h | 15848m | 4m/s | -49.2°C | 0.2% | 110.6hPa | 2.6V | 18:12:15 | 01:51:59 | 00:00:00 | i |
| DL1XH-west | 2026-08-31 12:22:27 | 50.95761 | 5.30262 | 85° | 68km/h | 15834m | 5.3m/s | -49.4°C | 0.3% | 110.8hPa | 2.5V | 18:12:15 | 01:51:56 | 00:00:00 | i |
| DM0DOS-11 | 2026-08-31 12:22:23 | 50.95726 | 5.30064 | 84° | 60km/h | 15795m | 4.4m/s | -49.4°C | 3.4% | 111.4hPa | 2.7V | 08:30:00 | 01:51:48 | 00:00:00 | i |
| BIOWL1-15 | 2026-08-31 12:22:20 | 50.95724 | 5.30041 | 82° | 57km/h | 15790m | 6.1m/s | -49.4°C | 0.4% | 111.5hPa | 2.6V | 18:12:15 | 01:51:47 | 00:00:00 | i |
| DL1XH-west | 2026-08-31 12:22:16 | 50.95721 | 5.30020 | 74° | 53km/h | 15785m | 5m/s | -49.4°C | 0.3% | 111.6hPa | 2.5V | 18:12:15 | 01:51:46 | 00:00:00 | i |
| DL4BBY-15 | 2026-08-31 12:22:16 | 50.95721 | 5.30020 | 75° | 64km/h | 15785m | 4.9m/s | -49.1°C | 0% | 0hPa | 2.5V | 00:00:00 | 00:00:00 | 00:00:00 | i |
| DM0DOS-11 | 2026-08-31 12:22:13 | 50.95690 | 5.29821 | 65° | 55km/h | 15742m | 4.3m/s | -49.3°C | 3.3% | 112.4hPa | 2.5V | 08:30:00 | 01:51:37 | 00:00:00 | i |
| DL1XH-west | 2026-08-31 12:22:05 | 50.95679 | 5.29770 | 80° | 82km/h | 15731m | 5.8m/s | -49.6°C | 0.4% | 112.5hPa | 2.7V | 18:12:15 | 01:51:35 | 00:00:00 | i |
| DL1ZP-14 | 2026-08-31 12:22:04 | 50.95677 | 5.29703 | 91° | 78km/h | 15723m | 3.6m/s | 0°C | -1.0% | 112.7hPa | 2.5V | 00:00:00 | 00:00:00 | 00:00:00 | |
| DM0DOS-11 | 2026-08-31 12:22:02 | 50.95654 | 5.29582 | 56° | 84km/h | 15694m | 6.3m/s | -50°C | 3.4% | 113.2hPa | 2.5V | 08:30:00 | 01:51:27 | 00:00:00 | i |
| DL1XH-west | 2026-08-31 12:21:54 | 50.95629 | 5.29477 | 85° | 91km/h | 15671m | 7.4m/s | -49.9°C | 0.4% | 113.6hPa | 2.7V | 18:12:15 | 01:51:24 | 00:00:00 | i |
| BIOWL1-15 | 2026-08-31 12:21:52 | 50.95630 | 5.29418 | 91° | 53km/h | 15656m | 7.1m/s | -49.8°C | 0.3% | 113.8hPa | 2.5V | 18:12:15 | 01:51:22 | 00:00:00 | i |
| DL1XH-west | 2026-08-31 12:21:44 | 50.95584 | 5.29224 | 82° | 64km/h | 15609m | 3.2m/s | -49.7°C | 0.4% | 114.7hPa | 2.7V | 18:12:15 | 01:51:14 | 00:00:00 | i |
| DM0DOS-11 | 2026-08-31 12:21:42 | 50.95531 | 5.29044 | 80° | 78km/h | 15569m | 4.8m/s | -50°C | 3.5% | 115.4hPa | 2.7V | 08:30:00 | 01:51:07 | 00:00:00 | i |
| DL1XH-west | 2026-08-31 12:21:34 | 50.95504 | 5.28920 | 50° | 80km/h | 15549m | 6.5m/s | -50.1°C | 0.4% | 115.7hPa | 2.5V | 18:12:15 | 01:51:03 | 00:00:00 | i |
| DL1ZP-14 | 2026-08-31 12:21:33 | 50.95490 | 5.28898 | 43° | 71km/h | 15543m | 5.6m/s | 0°C | -1.0% | -1.0hPa | 2.6V | 00:00:00 | 00:00:00 | 00:00:00 | |
| DM0DOS-11 | 2026-08-31 12:21:32 | 50.95449 | 5.28782 | 72° | 82km/h | 15520m | 7.1m/s | -50.5°C | 3.5% | 116.2hPa | 2.5V | 08:30:00 | 01:50:57 | 00:00:00 | i |
| BIOWL1-15 | 2026-08-31 12:21:31 | 50.95478 | 5.28879 | 45° | 64km/h | 15538m | 4.5m/s | -50.3°C | 0.5% | 115.9hPa | 2.7V | 18:12:15 | 01:51:01 | 00:00:00 | i |
| DL1XH-west | 2026-08-31 12:21:24 | 50.95412 | 5.28672 | 50° | 66km/h | 15492m | 5.9m/s | -50.2°C | 0.5% | 116.7hPa | 2.5V | 18:12:15 | 01:50:53 | 00:00:00 | i |
| BIOWL1-15 | 2026-08-31 12:21:17 | 50.95341 | 5.28519 | 61° | 47km/h | 15455m | 5.7m/s | -50.1°C | 0.6% | 117.4hPa | 2.5V | 18:12:15 | 01:50:46 | 00:00:00 | i |
| DL1XH-west | 2026-08-31 12:21:13 | 50.95306 | 5.28434 | 63° | 82km/h | 15431m | 4.1m/s | -50°C | 0.5% | 117.8hPa | 2.6V | 18:12:15 | 01:50:42 | 00:00:00 | i |
| DM0DOS-11 | 2026-08-31 12:21:09 | 50.95274 | 5.28334 | 38° | 49km/h | 15405m | 5.2m/s | -49.9°C | 3.5% | 118.2hPa | 2.7V | 08:30:00 | 01:50:37 | 00:00:00 | |
| BIOWL1-15 | 2026-08-31 12:21:05 | 50.95253 | 5.28298 | 54° | 71km/h | 15396m | 4.7m/s | -49.7°C | 0.4% | 118.4hPa | 2.5V | 18:12:15 | 01:50:35 | 00:00:00 | i |
| DL1XH-west | 2026-08-31 12:21:01 | 50.95231 | 5.28203 | 70° | 51km/h | 15373m | 5.8m/s | -49.6°C | 0.4% | 118.8hPa | 2.7V | 18:12:15 | 01:50:31 | 00:00:00 | i |
| DJ2DS-15 | 2026-08-31 12:21:01 | 50.95231 | 5.28203 | 69° | 49km/h | 15373m | 5.8m/s | -49.6°C | 1.2% | 118.8hPa | 2.7V | 00:00:00 | 00:00:00 | 00:00:00 | i |
| DM0DOS-11 | 2026-08-31 12:20:59 | 50.95194 | 5.28129 | 59° | 69km/h | 15354m | 5.6m/s | -49.5°C | 3.5% | 119.2hPa | 2.7V | 08:30:00 | 01:50:27 | 00:00:00 | i |
| BIOWL1-15 | 2026-08-31 12:20:57 | 50.95182 | 5.28081 | 76° | 58km/h | 15342m | 5.2m/s | -49.4°C | 0.4% | 119.4hPa | 2.7V | 18:12:15 | 01:50:25 | 00:00:00 | i |
| DL1XH-west | 2026-08-31 12:20:50 | 50.95151 | 5.27986 | 60° | 68km/h | 15317m | 5.8m/s | -49.3°C | 0.4% | 119.9hPa | 2.7V | 18:12:15 | 01:50:20 | 00:00:00 | i |
| HTAHTA | 2026-08-31 12:20:49 | 50.95138 | 5.27937 | 75° | 60km/h | 15307m | 5.9m/s | -49.3°C | 1.2% | 120.0hPa | 2.5V | 00:00:00 | 00:00:00 | 00:00:00 | |
| DM0DOS-11 | 2026-08-31 12:20:47 | 50.95135 | 5.27916 | 77° | 49km/h | 15301m | 5.8m/s | -49.2°C | 3.3% | 120.2hPa | 2.5V | 08:30:00 | 01:50:17 | 00:00:00 | i |
| DO1YAY-16 | 2026-08-31 12:20:45 | 50.95128 | 5.27883 | 62° | 42km/h | 15291m | 5.1m/s | -49.3°C | 1.2% | 120.3hPa | 2.7V | 00:00:00 | 00:00:00 | 00:00:00 | |
| DM0DOS-11 | 2026-08-31 12:20:42 | 50.95082 | 5.27741 | 50° | 37km/h | 15253m | 4.8m/s | -49°C | 3.4% | 121.1hPa | 2.7V | 08:30:00 | 01:50:07 | 00:00:00 | i |
| BIOWL1-15 | 2026-08-31 12:20:42 | 50.95082 | 5.27741 | 50° | 37km/h | 15253m | 4.8m/s | -49.1°C | 0.4% | 121.1hPa | 2.7V | 18:12:15 | 01:50:07 | 00:00:00 | i |
| DL1XH-west | 2026-08-31 12:20:39 | 50.95087 | 5.27752 | 63° | 33km/h | 15258m | 4.6m/s | -49.1°C | 0.4% | 121hPa | 2.7V | 18:12:15 | 01:50:08 | 00:00:00 | i |
| DM0DOS-11 | 2026-08-31 12:20:32 | 50.95031 | 5.27571 | 70° | 38km/h | 15207m | 5.7m/s | -48.8°C | 3.2% | 121.9hPa | 2.7V | 08:30:00 | 01:49:57 | 00:00:00 | i |
| BIOWL1-15 | 2026-08-31 12:20:27 | 50.95030 | 5.27571 | 71° | 38km/h | 15207m | 5.7m/s | -48.8°C | 0.3% | 121.9hPa | 2.7V | 18:12:15 | 01:49:57 | 00:00:00 | i |
| WPPR-10 | 2026-08-31 12:20:26 | 50.94998 | 5.27436 | 63° | 37km/h | 15175m | 5.4m/s | -48.8°C | -1.0% | 122.5hPa | 2.6V | 00:00:00 | 00:00:00 | 00:00:00 | |
| DM0DOS-11 | 2026-08-31 12:20:22 | 50.94996 | 5.27394 | 92° | 40km/h | 15162m | 3.4m/s | -48.8°C | 3.3% | 122.8hPa | 2.6V | 08:30:00 | 01:49:47 | 00:00:00 | i |
| DL1XH-west | 2026-08-31 12:20:17 | 50.94996 | 5.27394 | 93° | 40km/h | 15162m | 3.4m/s | -48.8°C | 0.4% | 122.8hPa | 2.6V | 18:12:15 | 01:49:47 | 00:00:00 | i |
| DL4BBY-15 | 2026-08-31 12:20:16 | 50.94995 | 5.27378 | 82° | 64km/h | 15158m | 4.1m/s | -48.4°C | 0% | 0hPa | 2.7V | 00:00:00 | 00:00:00 | 00:00:00 | |
| DO1YAY-16 | 2026-08-31 12:20:15 | 50.94988 | 5.27339 | 64° | 58km/h | 15149m | 4.1m/s | -48.8°C | 1.2% | 123.0hPa | 2.7V | 00:00:00 | 00:00:00 | 00:00:00 | |
| DM0DOS-11 | 2026-08-31 12:20:12 | 50.94968 | 5.27211 | 61° | 53km/h | 15115m | 4.5m/s | -48.8°C | 3.3% | 123.6hPa | 2.7V | 08:30:00 | 01:49:37 | 00:00:00 | i |
| DL1XH-west | 2026-08-31 12:20:08 | 50.94961 | 5.27190 | 63° | 66km/h | 15111m | 3.9m/s | -48.7°C | 0.3% | 123.7hPa | 2.5V | 18:12:15 | 01:49:36 | 00:00:00 | i |
| DM0DOS-11 | 2026-08-31 12:20:02 | 50.94922 | 5.26982 | 68° | 75km/h | 15066m | 4.2m/s | -49°C | 3.3% | 124.5hPa | 2.7V | 08:30:00 | 01:49:27 | 00:00:00 | i |
| DL1XH-west | 2026-08-31 12:19:55 | 50.94912 | 5.26929 | 76° | 64km/h | 15058m | 5.6m/s | -49°C | 0.3% | 124.7hPa | 2.5V | 18:12:15 | 01:49:25 | 00:00:00 | i |
| DM0DOS-11 | 2026-08-31 12:19:52 | 50.94876 | 5.26727 | 74° | 60km/h | 15016m | 5.9m/s | -49.3°C | 3.3% | 125.5hPa | 2.7V | 08:30:00 | 01:49:17 | 00:00:00 | i |
| DL1XH-west | 2026-08-31 12:19:44 | 50.94860 | 5.26672 | 61° | 55km/h | 15001m | 4.8m/s | -49.4°C | 0.4% | 125.8hPa | 2.7V | 18:12:15 | 01:49:14 | 00:00:00 | i |
| DO1YAY-16 | 2026-08-31 12:19:43 | 50.94853 | 5.26651 | 67° | 66km/h | 14996m | 4.9m/s | -49.5°C | 1.2% | 125.9hPa | 2.5V | 00:00:00 | 00:00:00 | 00:00:00 | |
| DJ3KS | 2026-08-31 12:19:41 | 50.94847 | 5.26623 | 76° | 77km/h | 14992m | 4.8m/s | -49.5°C | 0% | 0hPa | 2.5V | 00:00:00 | 00:00:00 | 00:00:00 | |
| DM0DOS-11 | 2026-08-31 12:19:38 | 50.94828 | 5.26495 | 57° | 57km/h | 14968m | 5.5m/s | -49.5°C | 3.4% | 126.4hPa | 2.5V | 08:30:00 | 01:49:07 | 00:00:00 | i |
| BIOWL1-15 | 2026-08-31 12:19:37 | 50.94795 | 5.26376 | 84° | 60km/h | 14943m | 5m/s | -49.6°C | 0.4% | 126.9hPa | 2.5V | 18:12:15 | 01:49:02 | 00:00:00 | i |
| DL1XH-west | 2026-08-31 12:19:34 | 50.94798 | 5.26401 | 77° | 66km/h | 14949m | 6.6m/s | -49.6°C | 0.4% | 126.8hPa | 2.7V | 18:12:15 | 01:49:03 | 00:00:00 | i |
| DM0DOS-11 | 2026-08-31 12:19:33 | 50.94760 | 5.26257 | 59° | 80km/h | 14918m | 4.6m/s | -49.3°C | 3.3% | 127.4hPa | 2.7V | 08:30:00 | 01:48:57 | 00:00:00 | i |
| BIOWL1-15 | 2026-08-31 12:19:22 | 50.94734 | 5.26133 | 70° | 55km/h | 14894m | 3.8m/s | -49.4°C | 0.4% | 127.9hPa | 2.7V | 18:12:15 | 01:48:52 | 00:00:00 | i |
| DM0DOS-11 | 2026-08-31 12:19:22 | 50.94698 | 5.26009 | 62° | 69km/h | 14869m | 5.3m/s | -49.4°C | 3.3% | 128.4hPa | 2.7V | 08:30:00 | 01:48:47 | 00:00:00 | i |
| DL1XH-west | 2026-08-31 12:19:13 | 50.94671 | 5.25889 | 77° | 80km/h | 14844m | 4.4m/s | -49.7°C | 0.4% | 128.9hPa | 2.5V | 18:12:15 | 01:48:42 | 00:00:00 | i |
| DM0DOS-11 | 2026-08-31 12:19:12 | 50.94634 | 5.25757 | 69° | 57km/h | 14820m | 5.1m/s | -49.7°C | 3.5% | 129.3hPa | 2.5V | 08:30:00 | 01:48:37 | 00:00:00 | i |
| BIOWL1-15 | 2026-08-31 12:19:08 | 50.94629 | 5.25707 | 86° | 75km/h | 14809m | 5.1m/s | -49.8°C | 0.5% | 129.5hPa | 2.5V | 18:12:15 | 01:48:35 | 00:00:00 | i |
| DL1XH-west | 2026-08-31 12:19:00 | 50.94596 | 5.25569 | 59° | 57km/h | 14784m | 5.4m/s | -49.8°C | 0.5% | 130hPa | 2.5V | 18:12:15 | 01:48:30 | 00:00:00 | i |
| BIOWL1-15 | 2026-08-31 12:18:57 | 50.94584 | 5.25504 | 79° | 68km/h | 14771m | 5.4m/s | -49.9°C | 0.4% | 130.3hPa | 2.7V | 18:12:15 | 01:48:27 | 00:00:00 | i |
| DM0DOS-11 | 2026-08-31 12:18:56 | 50.94580 | 5.25476 | 73° | 78km/h | 14766m | 5.6m/s | -49.9°C | 3.3% | 130.4hPa | 2.7V | 08:30:00 | 01:48:26 | 00:00:00 | i |
| DL1XH-west | 2026-08-31 12:18:49 | 50.94532 | 5.25293 | 68° | 68km/h | 14728m | 5.9m/s | -49.6°C | 0.5% | 131.2hPa | 2.5V | 18:12:15 | 01:48:19 | 00:00:00 | i |
| DL8DAS-14 | 2026-08-31 12:18:46 | 50.94505 | 5.25193 | 70° | 58km/h | 14707m | 5.2m/s | -49.8°C | 1.3% | 131.6hPa | 2.7V | 00:00:00 | 00:00:00 | 00:00:00 | |
| HTAHTA | 2026-08-31 12:18:45 | 50.94505 | 5.25193 | 70° | 58km/h | 14707m | 5.2m/s | -49.8°C | 1.3% | 131.6hPa | 2.7V | 00:00:00 | 00:00:00 | 00:00:00 | |
| DL1XH-west | 2026-08-31 12:18:39 | 50.94467 | 5.25039 | 66° | 64km/h | 14677m | 5.7m/s | -49.8°C | 0.4% | 132.2hPa | 2.7V | 18:12:15 | 01:48:09 | 00:00:00 | i |
| BIOWL1-15 | 2026-08-31 12:18:35 | 50.94430 | 5.24842 | 74° | 60km/h | 14638m | 4.9m/s | -49.6°C | 0.4% | 133hPa | 2.5V | 18:12:15 | 01:48:01 | 00:00:00 | |
| DM0DOS-11 | 2026-08-31 12:18:34 | 50.94421 | 5.24796 | 69° | 64km/h | 14629m | 5m/s | -49.5°C | 3.4% | 133.1hPa | 2.7V | 08:30:00 | 01:47:59 | 00:00:00 | i |
| DL1XH-west | 2026-08-31 12:18:29 | 50.94421 | 5.24796 | 70° | 64km/h | 14629m | 5m/s | -49.6°C | 0% | 133.2hPa | 2.7V | 18:12:15 | 01:47:59 | 00:00:00 | i |
| DJ2KF-10 | 2026-08-31 12:18:24 | 50.94397 | 5.24664 | 78° | 60km/h | 14603m | 4.8m/s | -49.6°C | 3.5% | 133.7hPa | 2.5V | 00:00:00 | 01:47:54 | 00:00:00 | |
| DM0DOS-11 | 2026-08-31 12:18:23 | 50.94369 | 5.24538 | 67° | 73km/h | 14579m | 4.2m/s | -49.7°C | 3.5% | 134.1hPa | 2.5V | 08:30:00 | 01:47:49 | 00:00:00 | i |
| BIOWL1-15 | 2026-08-31 12:18:22 | 50.94376 | 5.24566 | 67° | 78km/h | 14583m | 4.6m/s | -49.8°C | 0.5% | 134.1hPa | 2.7V | 18:12:15 | 01:47:50 | 00:00:00 | i |
| DL1XH-west | 2026-08-31 12:18:18 | 50.94363 | 5.24512 | 70° | 64km/h | 14573m | 6.2m/s | -49.8°C | 0% | 0hPa | 2.5V | 18:12:15 | 01:47:48 | 00:00:00 | i |
| HTAHTA | 2026-08-31 12:18:14 | 50.94354 | 5.24424 | 79° | 66km/h | 14554m | 5.1m/s | -49.9°C | 1.3% | 134.7hPa | 2.5V | 00:00:00 | 00:00:00 | 00:00:00 | |
| DM0DOS-11 | 2026-08-31 12:18:12 | 50.94306 | 5.24256 | 79° | 64km/h | 14518m | 5.6m/s | -49.6°C | 3.5% | 135.4hPa | 2.5V | 08:30:00 | 01:47:37 | 00:00:00 | i |
| BIOWL1-15 | 2026-08-31 12:18:12 | 50.94323 | 5.24321 | 56° | 62km/h | 14533m | 4.7m/s | -49.8°C | 0.4% | 135.1hPa | 2.7V | 18:12:15 | 01:47:40 | 00:00:00 | i |
| DL1XH-west | 2026-08-31 12:18:07 | 50.94306 | 5.24256 | 79° | 64km/h | 14518m | 5.6m/s | -49.6°C | 0% | 0hPa | 2.5V | 18:12:15 | 01:47:37 | 00:00:00 | i |
| DL1XH-west | 2026-08-31 12:17:56 | 50.94255 | 5.24001 | 65° | 51km/h | 14463m | 4.5m/s | -49.3°C | 0% | 0hPa | 2.5V | 18:12:15 | 01:47:26 | 00:00:00 | i |
| BIOWL1-15 | 2026-08-31 12:17:52 | 50.94207 | 5.23829 | 54° | 42km/h | 14425m | 4.7m/s | -49°C | 0.4% | 137.4hPa | 2.5V | 18:12:15 | 01:47:18 | 00:00:00 | i |
| DB0ND-19 | 2026-08-31 12:17:52 | 50.94212 | 5.23844 | 75° | 42km/h | 14430m | 5.1m/s | -49.1°C | 1.3% | 137.3hPa | 2.7V | 00:00:00 | 00:00:00 | 00:00:00 | i |
| DM0DOS-11 | 2026-08-31 12:17:51 | 50.94189 | 5.23794 | 53° | 69km/h | 14415m | 5.3m/s | -48.9°C | 3.4% | 137.6hPa | 2.7V | 08:30:00 | 01:47:16 | 00:00:00 | i |
| DL1XH-west | 2026-08-31 12:17:46 | 50.94189 | 5.23794 | 53° | 69km/h | 14415m | 5.3m/s | -48.9°C | 0% | 0hPa | 2.7V | 18:12:15 | 01:47:16 | 00:00:00 | i |
| DL8DAS-14 | 2026-08-31 12:17:44 | 50.94169 | 5.23710 | 83° | 69km/h | 14401m | 5.2m/s | -48.8°C | 1.3% | 137.9hPa | 2.7V | 00:00:00 | 00:00:00 | 00:00:00 | |
| HTAHTA | 2026-08-31 12:17:43 | 50.94169 | 5.23710 | 83° | 69km/h | 14401m | 5.2m/s | -48.8°C | 1.3% | 137.9hPa | 2.7V | 00:00:00 | 00:00:00 | 00:00:00 | |
| DM0DOS-11 | 2026-08-31 12:17:41 | 50.94123 | 5.23567 | 70° | 77km/h | 14367m | 5.3m/s | -48.5°C | 3.3% | 138.6hPa | 2.7V | 08:30:00 | 01:47:06 | 00:00:00 | i |
| BIOWL1-15 | 2026-08-31 12:17:40 | 50.94161 | 5.23654 | 55° | 42km/h | 14387m | 5.2m/s | -48.8°C | 0.3% | 138.2hPa | 2.7V | 18:12:15 | 01:47:10 | 00:00:00 | i |
| DL1XH-west | 2026-08-31 12:17:34 | 50.94117 | 5.23514 | 88° | 57km/h | 14356m | 5.2m/s | 0°C | 0% | 0hPa | 2.7V | 18:12:15 | 01:47:04 | 00:00:00 | i |
| BIOWL1-15 | 2026-08-31 12:17:33 | 50.94091 | 5.23418 | 63° | 69km/h | 14334m | 5.2m/s | -48.5°C | 0.3% | 139.3hPa | 2.7V | 18:12:15 | 01:46:59 | 00:00:00 | i |
| DM0DOS-11 | 2026-08-31 12:17:31 | 50.94075 | 5.23338 | 76° | 64km/h | 14320m | 3.6m/s | -48.3°C | 3.2% | 139.6hPa | 2.5V | 08:30:00 | 01:46:56 | 00:00:00 | i |
| DL1XH-west | 2026-08-31 12:17:24 | 50.94066 | 5.23294 | 63° | 55km/h | 14312m | 4.1m/s | 0°C | 0% | 0hPa | 2.5V | 18:12:15 | 01:46:54 | 00:00:00 | i |
| BIOWL1-15 | 2026-08-31 12:17:22 | 50.94029 | 5.23125 | 70° | 47km/h | 14277m | 4.4m/s | -48.3°C | 0.4% | 140.5hPa | 2.7V | 18:12:15 | 01:46:46 | 00:00:00 | i |
| DL4BBY-15 | 2026-08-31 12:17:22 | 50.94051 | 5.23253 | 63° | 58km/h | 14305m | 4.5m/s | -48.1°C | 0% | 0hPa | 2.7V | 00:00:00 | 00:00:00 | 00:00:00 | i |
| DM0DOS-11 | 2026-08-31 12:17:21 | 50.94028 | 5.23125 | 69° | 47km/h | 14277m | 4.4m/s | -48.3°C | 3.3% | 140.5hPa | 2.7V | 08:30:00 | 01:46:46 | 00:00:00 | i |
| DL1XH-west | 2026-08-31 12:17:11 | 50.94007 | 5.23011 | 84° | 49km/h | 14251m | 5.4m/s | 0°C | 0% | 0hPa | 2.6V | 18:12:15 | 01:46:41 | 00:00:00 | i |
| DM0DOS-11 | 2026-08-31 12:17:09 | 50.93972 | 5.22865 | 68° | 57km/h | 14220m | 4.4m/s | -48.7°C | 3.4% | 141.7hPa | 2.5V | 08:30:00 | 01:46:34 | 00:00:00 | i |
| BIOWL1-15 | 2026-08-31 12:17:08 | 50.93978 | 5.22887 | 62° | 66km/h | 14225m | 3.9m/s | -48.5°C | 0.5% | 141.6hPa | 2.5V | 18:12:15 | 01:46:35 | 00:00:00 | i |
| DL1XH-west | 2026-08-31 12:17:01 | 50.93968 | 5.22803 | 92° | 57km/h | 14206m | 4.5m/s | 0°C | 0% | 0hPa | 2.7V | 18:12:15 | 01:46:31 | 00:00:00 | i |
| DM0DOS-11 | 2026-08-31 12:16:59 | 50.93940 | 5.22640 | 78° | 57km/h | 14177m | 4.4m/s | -48.8°C | 3.4% | 142.6hPa | 2.7V | 08:30:00 | 01:46:24 | 00:00:00 | i |
| BIOWL1-15 | 2026-08-31 12:16:54 | 50.93939 | 5.22640 | 78° | 57km/h | 14177m | 4.4m/s | -48.8°C | 0.6% | 142.6hPa | 2.7V | 18:12:15 | 01:46:24 | 00:00:00 | i |
| DJ2KF-10 | 2026-08-31 12:16:50 | 50.93926 | 5.22533 | 72° | 64km/h | 14160m | 5.5m/s | -48.5°C | 3.4% | 143.0hPa | 2.5V | 00:00:00 | 01:46:20 | 00:00:00 | |
| DM0DOS-11 | 2026-08-31 12:16:49 | 50.93907 | 5.22384 | 82° | 68km/h | 14133m | 4.6m/s | -48.4°C | 3.3% | 143.6hPa | 2.5V | 08:30:00 | 01:46:14 | 00:00:00 | i |
| WPPR-10 | 2026-08-31 12:16:49 | 50.93916 | 5.22487 | 73° | 57km/h | 14151m | 3.3m/s | 0°C | -1.0% | 143.2hPa | 2.7V | 00:00:00 | 00:00:00 | 00:00:00 | i |
| DL1XH-west | 2026-08-31 12:16:40 | 50.93897 | 5.22296 | 86° | 55km/h | 14114m | 5.5m/s | 0°C | 0% | 0hPa | 2.7V | 18:12:15 | 01:46:10 | 00:00:00 | i |
| DM0DOS-11 | 2026-08-31 12:16:37 | 50.93887 | 5.22152 | 75° | 66km/h | 14087m | 4.5m/s | -48.5°C | 3.3% | 144.6hPa | 2.7V | 08:30:00 | 01:46:04 | 00:00:00 | i |
| BIOWL1-15 | 2026-08-31 12:16:29 | 50.93878 | 5.22029 | 82° | 49km/h | 14065m | 4.1m/s | -48.8°C | 0.5% | 145.2hPa | 2.5V | 18:12:15 | 01:45:59 | 00:00:00 | i |
| DM0DOS-11 | 2026-08-31 12:16:24 | 50.93850 | 5.21779 | 80° | 68km/h | 14020m | 3.7m/s | -48.8°C | 3.5% | 146.1hPa | 2.7V | 08:30:00 | 01:45:49 | 00:00:00 | |
| BIOWL1-15 | 2026-08-31 12:16:15 | 50.93827 | 5.21626 | 93° | 69km/h | 13990m | 4.6m/s | -48.9°C | 0.5% | 146.7hPa | 2.7V | 18:12:15 | 01:45:43 | 00:00:00 | i |
| DJ2DS-15 | 2026-08-31 12:16:13 | 50.93828 | 5.21598 | 87° | 73km/h | 13987m | 2.5m/s | -48.9°C | 1.4% | 146.9hPa | 2.7V | 00:00:00 | 00:00:00 | 00:00:00 | |
| DL4BBY-15 | 2026-08-31 12:16:12 | 50.93828 | 5.21597 | 88° | 71km/h | 13986m | 2.5m/s | -48.6°C | 0% | 0hPa | 2.7V | 00:00:00 | 00:00:00 | 00:00:00 | |
| DM0DOS-11 | 2026-08-31 12:16:07 | 50.93798 | 5.21365 | 88° | 75km/h | 13943m | 4m/s | -48.6°C | 3.5% | 147.8hPa | 2.7V | 08:30:00 | 01:45:33 | 00:00:00 | i |
| DO1YAY-16 | 2026-08-31 12:16:06 | 50.93794 | 5.21446 | 89° | 58km/h | 13958m | 5.9m/s | -48.7°C | 1.4% | 147.5hPa | 2.5V | 00:00:00 | 00:00:00 | 00:00:00 | |
| DM0DOS-11 | 2026-08-31 12:15:55 | 50.93765 | 5.21108 | 76° | 77km/h | 13894m | 3.7m/s | -48.4°C | 3.4% | 148.9hPa | 2.5V | 08:30:00 | 01:45:23 | 00:00:00 | i |
| DL1XH-west | 2026-08-31 12:15:49 | 50.93762 | 5.21010 | 98° | 66km/h | 13876m | 4.7m/s | 0°C | 0% | 0hPa | 2.7V | 18:12:15 | 01:45:19 | 00:00:00 | i |
| DJ2KF-10 | 2026-08-31 12:15:48 | 50.93763 | 5.20982 | 93° | 75km/h | 13871m | 4.8m/s | -48.3°C | 3.4% | 149.4hPa | 2.7V | 00:00:00 | 01:45:18 | 00:00:00 | |
| DM0DOS-11 | 2026-08-31 12:15:44 | 50.93751 | 5.20830 | 81° | 62km/h | 13847m | 4.3m/s | -48.3°C | 3.5% | 149.9hPa | 2.7V | 08:30:00 | 01:45:13 | 00:00:00 | i |
| DL1XH-west | 2026-08-31 12:15:34 | 50.93731 | 5.20587 | 87° | 77km/h | 13806m | 6.5m/s | 0°C | 0% | 0hPa | 2.5V | 18:12:15 | 01:45:04 | 00:00:00 | i |
| BIOWL1-15 | 2026-08-31 12:15:34 | 50.93710 | 5.20341 | 92° | 77km/h | 13764m | 5.3m/s | -48°C | 0.5% | 151.9hPa | 2.5V | 18:12:15 | 01:44:55 | 00:00:00 | i |
| WEDDY | 2026-08-31 12:15:33 | 50.93731 | 5.20587 | 88° | 77km/h | 13806m | 6.5m/s | -48.2°C | 1.4% | 150.9hPa | 2.7V | 00:00:00 | 00:00:00 | 00:00:00 | |
| DL4BBY-15 | 2026-08-31 12:15:28 | 50.93712 | 5.20417 | 76° | 71km/h | 13776m | 4.2m/s | -47.8°C | 0% | 0hPa | 2.7V | 00:00:00 | 00:00:00 | 00:00:00 | i |
| DM0DOS-11 | 2026-08-31 12:15:27 | 50.93709 | 5.20277 | 83° | 80km/h | 13755m | 3.4m/s | -48°C | 3.4% | 152.1hPa | 2.7V | 08:30:00 | 01:44:53 | 00:00:00 | |
| BIOWL1-15 | 2026-08-31 12:15:26 | 50.93694 | 5.20165 | 73° | 68km/h | 13737m | 3.3m/s | -47.8°C | 0.6% | 152.5hPa | 2.5V | 18:12:15 | 01:44:49 | 00:00:00 | i |
| DL1XH-west | 2026-08-31 12:15:18 | 50.93675 | 5.20024 | 79° | 58km/h | 13714m | 5.7m/s | 0°C | 0% | 0hPa | 2.7V | 18:12:15 | 01:44:44 | 00:00:00 | i |
| DM0DOS-11 | 2026-08-31 12:15:16 | 50.93671 | 5.20003 | 71° | 57km/h | 13709m | 3.8m/s | -47.8°C | 3.4% | 153.2hPa | 2.5V | 08:30:00 | 01:44:43 | 00:00:00 | |
| WPPR-10 | 2026-08-31 12:15:15 | 50.93678 | 5.20049 | 80° | 66km/h | 13719m | 5.3m/s | 0°C | -1.0% | -1.0hPa | 2.7V | 00:00:00 | 00:00:00 | 00:00:00 | |
| WEDDY | 2026-08-31 12:15:12 | 50.93671 | 5.20003 | 72° | 57km/h | 13709m | 3.8m/s | -47.8°C | 1.4% | 153.2hPa | 2.7V | 00:00:00 | 00:00:00 | 00:00:00 | |
| DL8DAS-14 | 2026-08-31 12:15:08 | 50.93650 | 5.19855 | 87° | 78km/h | 13685m | 4.6m/s | -47.7°C | 1.4% | 153.7hPa | 2.7V | 00:00:00 | 00:00:00 | 00:00:00 | |
| DM0DOS-11 | 2026-08-31 12:15:04 | 50.93628 | 5.19738 | 67° | 77km/h | 13662m | 4.5m/s | -47.7°C | 3.3% | 154.3hPa | 2.7V | 08:30:00 | 01:44:33 | 00:00:00 | i |
| DO1YAY-16 | 2026-08-31 12:15:04 | 50.93635 | 5.19763 | 61° | 64km/h | 13667m | 4.4m/s | -47.6°C | 1.3% | 154.2hPa | 2.5V | 00:00:00 | 00:00:00 | 00:00:00 | i |
| DJ2DS-15 | 2026-08-31 12:15:01 | 50.93614 | 5.19644 | 85° | 75km/h | 13648m | 3.8m/s | -47.7°C | 1.4% | 154.7hPa | 2.5V | 00:00:00 | 00:00:00 | 00:00:00 | |
| DL4BBY-15 | 2026-08-31 12:14:58 | 50.93609 | 5.19590 | 75° | 69km/h | 13639m | 6.1m/s | -47.4°C | 0% | 0hPa | 2.5V | 00:00:00 | 00:00:00 | 00:00:00 | |
| DM0DOS-11 | 2026-08-31 12:14:54 | 50.93575 | 5.19453 | 81° | 84km/h | 13616m | 4.4m/s | -47.6°C | 3.4% | 155.4hPa | 2.5V | 08:30:00 | 01:44:23 | 00:00:00 | i |
| DB0ND-19 | 2026-08-31 12:14:46 | 50.93537 | 5.19193 | 91° | 73km/h | 13575m | 5.8m/s | -47.5°C | 1.3% | 156.3hPa | 2.7V | 00:00:00 | 00:00:00 | 00:00:00 | |
| DM0DOS-11 | 2026-08-31 12:14:44 | 50.93537 | 5.19144 | 83° | 55km/h | 13565m | 4.6m/s | -47.5°C | 3.3% | 156.6hPa | 2.7V | 08:30:00 | 01:44:12 | 00:00:00 | i |
| BIOWL1-15 | 2026-08-31 12:14:36 | 50.93503 | 5.18912 | 82° | 66km/h | 13526m | 5.6m/s | -47.5°C | 0.4% | 157.5hPa | 2.7V | 18:12:15 | 01:44:04 | 00:00:00 | i |
| DM0DOS-11 | 2026-08-31 12:14:34 | 50.93494 | 5.18859 | 72° | 73km/h | 13518m | 3.6m/s | -47.5°C | 3.4% | 157.7hPa | 2.7V | 08:30:00 | 01:44:02 | 00:00:00 | i |
| DL1XH-west | 2026-08-31 12:14:28 | 50.93481 | 5.18731 | 87° | 78km/h | 13498m | 5.6m/s | 0°C | 0% | 0hPa | 2.7V | 18:12:15 | 01:43:58 | 00:00:00 | i |
| DL4BBY-15 | 2026-08-31 12:14:28 | 50.93481 | 5.18730 | 88° | 77km/h | 13499m | 5.6m/s | -47.1°C | 0% | 0hPa | 2.7V | 00:00:00 | 00:00:00 | 00:00:00 | i |
| DM0DOS-11 | 2026-08-31 12:14:24 | 50.93446 | 5.18551 | 77° | 88km/h | 13470m | 3.8m/s | -47.4°C | 3.2% | 158.8hPa | 2.7V | 08:30:00 | 01:43:52 | 00:00:00 | i |
| BIOWL1-15 | 2026-08-31 12:14:21 | 50.93442 | 5.18518 | 84° | 80km/h | 13465m | 5m/s | -47.4°C | 0.4% | 159hPa | 2.6V | 18:12:15 | 01:43:51 | 00:00:00 | i |
| DM0DOS-11 | 2026-08-31 12:14:17 | 50.93400 | 5.18273 | 81° | 75km/h | 13425m | 4.2m/s | -47.4°C | 3.2% | 159.9hPa | 2.7V | 08:30:00 | 01:43:42 | 00:00:00 | i |
| BIOWL1-15 | 2026-08-31 12:14:13 | 50.93397 | 5.18243 | 80° | 75km/h | 13421m | 4m/s | -47.4°C | 0.4% | 160hPa | 2.7V | 18:12:15 | 01:43:41 | 00:00:00 | i |
| WEDDY | 2026-08-31 12:14:11 | 50.93400 | 5.18273 | 83° | 75km/h | 13425m | 4.2m/s | -47.4°C | 1.3% | 160.0hPa | 2.6V | 00:00:00 | 00:00:00 | 00:00:00 | |
| DM0DOS-11 | 2026-08-31 12:14:07 | 50.93342 | 5.17971 | 64° | 88km/h | 13374m | 5.6m/s | -47.8°C | 3.3% | 161.2hPa | 2.6V | 08:30:00 | 01:43:32 | 00:00:00 | i |
| HTAHTA | 2026-08-31 12:14:06 | 50.93361 | 5.18060 | 78° | 75km/h | 13391m | 3.1m/s | -47.7°C | 1.3% | 160.8hPa | 2.7V | 00:00:00 | 00:00:00 | 00:00:00 | |
| DO1YAY-16 | 2026-08-31 12:14:02 | 50.93333 | 5.17939 | 65° | 93km/h | 13369m | 4.0m/s | -47.8°C | 1.4% | 161.3hPa | 2.7V | 00:00:00 | 00:00:00 | 00:00:00 | |
| DL4BBY-15 | 2026-08-31 12:13:58 | 50.93314 | 5.17838 | 83° | 73km/h | 13355m | 4.2m/s | -47.4°C | 0% | 0hPa | 2.7V | 00:00:00 | 00:00:00 | 00:00:00 | |
| DM0DOS-11 | 2026-08-31 12:13:54 | 50.93278 | 5.17683 | 74° | 88km/h | 13326m | 4.2m/s | -47.5°C | 3.2% | 162.3hPa | 2.7V | 08:30:00 | 01:43:22 | 00:00:00 | i |
| DJ2DS-15 | 2026-08-31 12:13:49 | 50.93258 | 5.17569 | 65° | 60km/h | 13307m | 3.9m/s | -47.3°C | 1.3% | 162.8hPa | 2.7V | 00:00:00 | 00:00:00 | 00:00:00 | |
| DJ2KF-10 | 2026-08-31 12:13:47 | 50.93251 | 5.17545 | 63° | 66km/h | 13303m | 4.7m/s | 0°C | 0% | 0hPa | 2.7V | 00:00:00 | 01:43:17 | 00:00:00 | |
| DM0DOS-11 | 2026-08-31 12:13:43 | 50.93211 | 5.17402 | 74° | 68km/h | 13280m | 5.2m/s | -47.2°C | 3.1% | 163.5hPa | 2.7V | 08:30:00 | 01:43:12 | 00:00:00 | i |
| DL8DAS-14 | 2026-08-31 12:13:35 | 50.93171 | 5.17213 | 73° | 69km/h | 13247m | 5.2m/s | -47.1°C | 1.3% | 164.3hPa | 2.6V | 00:00:00 | 00:00:00 | 00:00:00 | |
| DM0DOS-11 | 2026-08-31 12:13:33 | 50.93155 | 5.17146 | 62° | 58km/h | 13232m | 4.8m/s | -47.2°C | 3.2% | 164.6hPa | 2.6V | 08:30:00 | 01:43:02 | 00:00:00 | i |
| BIOWL1-15 | 2026-08-31 12:13:33 | 50.93161 | 5.17167 | 68° | 55km/h | 13237m | 4.8m/s | -47.2°C | 0.3% | 164.6hPa | 2.5V | 18:12:15 | 01:43:03 | 00:00:00 | i |
| DO1YAY-16 | 2026-08-31 12:13:31 | 50.93141 | 5.17096 | 69° | 75km/h | 13225m | 3.7m/s | -47.2°C | 1.3% | 164.8hPa | 2.7V | 00:00:00 | 00:00:00 | 00:00:00 | |
| WEDDY | 2026-08-31 12:13:29 | 50.93141 | 5.17096 | 71° | 77km/h | 13225m | 3.7m/s | -47.2°C | 1.3% | 164.8hPa | 2.7V | 00:00:00 | 00:00:00 | 00:00:00 | |
| DL4BBY-15 | 2026-08-31 12:13:28 | 50.93132 | 5.17036 | 84° | 73km/h | 13215m | 4.5m/s | -47.2°C | 0% | 0hPa | 2.7V | 00:00:00 | 00:00:00 | 00:00:00 | |
| DM0DOS-11 | 2026-08-31 12:13:23 | 50.93095 | 5.16876 | 70° | 78km/h | 13187m | 4.5m/s | -47.5°C | 3.1% | 165.8hPa | 2.7V | 08:30:00 | 01:42:52 | 00:00:00 | i |
| DM0DOS-11 | 2026-08-31 12:13:18 | 50.93052 | 5.16603 | 79° | 60km/h | 13140m | 4.9m/s | -47.5°C | 3.3% | 167hPa | 2.7V | 08:30:00 | 01:42:42 | 00:00:00 | i |
| DJ2KF-10 | 2026-08-31 12:13:17 | 50.93077 | 5.16741 | 74° | 71km/h | 13166m | 5.5m/s | 0°C | 0% | 0hPa | 2.6V | 00:00:00 | 01:42:47 | 08:30:00 | |
| DB0ND-19 | 2026-08-31 12:13:13 | 50.93055 | 5.16629 | 76° | 69km/h | 13146m | 5.8m/s | 0°C | -1.0% | -1.0hPa | 2.6V | 00:00:00 | 00:00:00 | 00:00:00 | |
| WEDDY | 2026-08-31 12:13:09 | 50.93045 | 5.16557 | 75° | 62km/h | 13134m | 4.3m/s | -47.4°C | 1.4% | 167.1hPa | 2.6V | 00:00:00 | 00:00:00 | 00:00:00 | |
| DM0DOS-11 | 2026-08-31 12:13:07 | 50.93011 | 5.16321 | 69° | 62km/h | 13097m | 4.8m/s | -47.4°C | 3.2% | 168.1hPa | 2.6V | 08:30:00 | 01:42:32 | 00:00:00 | i |
| DL8DAS-14 | 2026-08-31 12:13:04 | 50.93018 | 5.16368 | 83° | 64km/h | 13108m | 5.0m/s | -47.6°C | -1.0% | 167.8hPa | 2.6V | 00:00:00 | 00:00:00 | 00:00:00 | |
| HTAHTA | 2026-08-31 12:13:03 | 50.93015 | 5.16344 | 77° | 58km/h | 13102m | 5.7m/s | -47.5°C | 1.4% | 167.9hPa | 2.6V | 00:00:00 | 00:00:00 | 00:00:00 | |
| DO1YAY-16 | 2026-08-31 12:13:00 | 50.92991 | 5.16239 | 72° | 80km/h | 13083m | 5.1m/s | -47.3°C | 1.4% | 168.4hPa | 2.6V | 00:00:00 | 00:00:00 | 00:00:00 | |
| DL4BBY-15 | 2026-08-31 12:12:58 | 50.92985 | 5.16208 | 76° | 78km/h | 13078m | 4.1m/s | -47.0°C | 0% | 0hPa | 2.6V | 00:00:00 | 00:00:00 | 00:00:00 | |
| DM0DOS-11 | 2026-08-31 12:12:57 | 50.92951 | 5.16044 | 72° | 88km/h | 13050m | 4.8m/s | -47.2°C | 3.1% | 169.3hPa | 2.6V | 08:30:00 | 01:42:22 | 00:00:00 | i |
| BIOWL1-15 | 2026-08-31 12:12:48 | 50.92920 | 5.15922 | 61° | 68km/h | 13034m | 3.6m/s | -47.1°C | 0.4% | 169.7hPa | 2.7V | 18:12:15 | 01:42:18 | 00:00:00 | i |
| DM0DOS-11 | 2026-08-31 12:12:47 | 50.92883 | 5.15751 | 78° | 78km/h | 13010m | 4.7m/s | -47.2°C | 3.3% | 170.3hPa | 2.7V | 08:30:00 | 01:42:12 | 00:00:00 | i |
| BIOWL1-15 | 2026-08-31 12:12:38 | 50.92836 | 5.15535 | 70° | 95km/h | 12982m | 2m/s | -47.2°C | 0.4% | 171.1hPa | 2.6V | 18:12:15 | 01:42:05 | 00:00:00 | i |
| DJ2DS-15 | 2026-08-31 12:12:36 | 50.92845 | 5.15571 | 67° | 100km/h | 12985m | 3.2m/s | -47.3°C | 1.4% | 170.9hPa | 2.7V | 00:00:00 | 00:00:00 | 00:00:00 | |
| DM0DOS-11 | 2026-08-31 12:12:32 | 50.92820 | 5.15446 | 81° | 64km/h | 12971m | 4.4m/s | -47.3°C | 3.2% | 171.3hPa | 2.7V | 08:30:00 | 01:42:02 | 00:00:00 | |
| BIOWL1-15 | 2026-08-31 12:12:24 | 50.92772 | 5.15197 | 77° | 66km/h | 12937m | 6m/s | -47.2°C | 0.3% | 172.2hPa | 2.6V | 18:12:15 | 01:41:54 | 00:00:00 | i |
| DM0DOS-11 | 2026-08-31 12:12:21 | 50.92755 | 5.15097 | 65° | 71km/h | 12921m | 5m/s | -47°C | 3.2% | 172.6hPa | 2.7V | 08:30:00 | 01:41:50 | 00:00:00 | |
| DM0DOS-11 | 2026-08-31 12:12:11 | 50.92677 | 5.14645 | 71° | 73km/h | 12860m | 4.1m/s | -47.2°C | 3.2% | 174.3hPa | 2.7V | 08:30:00 | 01:41:35 | 00:00:00 | i |
| WEDDY | 2026-08-31 12:12:06 | 50.92685 | 5.14700 | 82° | 75km/h | 12868m | 4.4m/s | -47.1°C | 1.3% | 174.1hPa | 2.7V | 00:00:00 | 00:00:00 | 00:00:00 | |
| HTAHTA | 2026-08-31 12:12:01 | 50.92655 | 5.14514 | 84° | 84km/h | 12842m | 5.4m/s | -47.0°C | 1.3% | 174.8hPa | 2.7V | 00:00:00 | 00:00:00 | 00:00:00 | |
| DM0DOS-11 | 2026-08-31 12:12:00 | 50.92630 | 5.14336 | 75° | 91km/h | 12816m | 5.4m/s | -46.8°C | 3.2% | 175.4hPa | 2.7V | 08:30:00 | 01:41:25 | 00:00:00 | i |
| DJ2DS-15 | 2026-08-31 12:12:00 | 50.92654 | 5.14483 | 88° | 73km/h | 12837m | 4.2m/s | -47.0°C | 1.3% | 174.9hPa | 2.7V | 00:00:00 | 00:00:00 | 00:00:00 | i |
| DO1YAY-16 | 2026-08-31 12:11:57 | 50.92644 | 5.14401 | 68° | 77km/h | 12824m | 4.0m/s | -46.9°C | 1.3% | 175.2hPa | 2.7V | 00:00:00 | 00:00:00 | 00:00:00 | |
| DM0DOS-11 | 2026-08-31 12:11:50 | 50.92595 | 5.13980 | 85° | 75km/h | 12763m | 4m/s | -46.8°C | 3.2% | 176.8hPa | 2.7V | 08:30:00 | 01:41:14 | 00:00:00 | i |
| WEDDY | 2026-08-31 12:11:46 | 50.92602 | 5.14080 | 80° | 91km/h | 12778m | 4.3m/s | -46.8°C | 1.3% | 176.5hPa | 2.7V | 00:00:00 | 00:00:00 | 00:00:00 | |
| DB0UT-7 | 2026-08-31 12:11:43 | 50.92593 | 5.13949 | 83° | 80km/h | 12760m | 3.5m/s | 0°C | 0% | 0hPa | 2.7V | 00:00:00 | 01:41:13 | 00:00:00 | |
| DJ3KS | 2026-08-31 12:11:39 | 50.92581 | 5.13845 | 80° | 95km/h | 12747m | 3.2m/s | -46.8°C | 0% | 0hPa | 2.7V | 00:00:00 | 00:00:00 | 00:00:00 | i |
| DM0DOS-11 | 2026-08-31 12:11:38 | 50.92568 | 5.13679 | 79° | 71km/h | 12726m | 3.8m/s | -46.6°C | 3.1% | 177.8hPa | 2.7V | 08:30:00 | 01:41:05 | 00:00:00 | i |
| BIOWL1-15 | 2026-08-31 12:11:38 | 50.92574 | 5.13772 | 85° | 86km/h | 12738m | 4.3m/s | -46.7°C | 0.4% | 177.5hPa | 2.7V | 18:12:15 | 01:41:08 | 00:00:00 | i |
| HTAHTA | 2026-08-31 12:11:30 | 50.92547 | 5.13540 | 76° | 80km/h | 12705m | 4.7m/s | -46.4°C | 1.3% | 178.4hPa | 2.7V | 00:00:00 | 00:00:00 | 00:00:00 | |
| DL4BBY-15 | 2026-08-31 12:11:28 | 50.92535 | 5.13475 | 73° | 77km/h | 12696m | 5.3m/s | -46.1°C | 0% | 0hPa | 2.7V | 00:00:00 | 00:00:00 | 00:00:00 | |
| DM0DOS-11 | 2026-08-31 12:11:27 | 50.92517 | 5.13350 | 84° | 80km/h | 12677m | 4.5m/s | -46.5°C | 3.2% | 179.2hPa | 2.7V | 08:30:00 | 01:40:54 | 00:00:00 | i |
| BIOWL1-15 | 2026-08-31 12:11:27 | 50.92515 | 5.13318 | 83° | 80km/h | 12674m | 2m/s | -46.4°C | 0.4% | 179.3hPa | 2.7V | 18:12:15 | 01:40:53 | 00:00:00 | i |
| WEDDY | 2026-08-31 12:11:26 | 50.92529 | 5.13443 | 74° | 82km/h | 12691m | 4.8m/s | -46.4°C | 1.4% | 178.8hPa | 2.7V | 00:00:00 | 00:00:00 | 00:00:00 | |
| DJ2KF-10 | 2026-08-31 12:11:21 | 50.92508 | 5.13259 | 74° | 73km/h | 12666m | 5.5m/s | 0°C | 0% | 0hPa | 2.7V | 00:00:00 | 01:40:51 | 00:00:00 | |
| DM0DOS-11 | 2026-08-31 12:11:17 | 50.92484 | 5.13062 | 76° | 86km/h | 12636m | 4.7m/s | -46.3°C | 3.1% | 180.3hPa | 2.7V | 08:30:00 | 01:40:44 | 00:00:00 | i |
| BIOWL1-15 | 2026-08-31 12:11:16 | 50.92473 | 5.13001 | 73° | 73km/h | 12628m | 5.2m/s | -46.2°C | 0.3% | 180.5hPa | 2.6V | 18:12:15 | 01:40:42 | 00:00:00 | i |
| DM0DOS-11 | 2026-08-31 12:11:05 | 50.92439 | 5.12766 | 77° | 62km/h | 12588m | 4.8m/s | -46.4°C | 3.1% | 181.6hPa | 2.7V | 08:30:00 | 01:40:34 | 00:00:00 | i |
| BIOWL1-15 | 2026-08-31 12:10:56 | 50.92390 | 5.12401 | 84° | 80km/h | 12530m | 3.7m/s | -46.2°C | 0.4% | 183.2hPa | 2.6V | 18:12:15 | 01:40:22 | 00:00:00 | |
| DM0DOS-11 | 2026-08-31 12:10:55 | 50.92395 | 5.12466 | 78° | 80km/h | 12541m | 7m/s | -46.3°C | 3.1% | 182.9hPa | 2.7V | 08:30:00 | 01:40:24 | 00:00:00 | i |
| DJ2KF-10 | 2026-08-31 12:10:51 | 50.92388 | 5.12370 | 82° | 77km/h | 12526m | 5.2m/s | 0°C | 0% | 0hPa | 2.7V | 00:00:00 | 01:40:21 | 00:00:00 | |
| DM0DOS-11 | 2026-08-31 12:10:45 | 50.92361 | 5.12159 | 78° | 84km/h | 12493m | 5.8m/s | -46.2°C | 3.1% | 184.2hPa | 2.7V | 08:30:00 | 01:40:14 | 00:00:00 | i |
| BIOWL1-15 | 2026-08-31 12:10:42 | 50.92346 | 5.12069 | 77° | 75km/h | 12477m | 5.9m/s | -46.3°C | 0.3% | 184.7hPa | 2.6V | 18:12:15 | 01:40:11 | 00:00:00 | i |
| DM0DOS-11 | 2026-08-31 12:10:34 | 50.92319 | 5.11854 | 70° | 86km/h | 12442m | 4.7m/s | -46.3°C | 3.2% | 185.6hPa | 2.7V | 08:30:00 | 01:40:04 | 00:00:00 | i |
| BIOWL1-15 | 2026-08-31 12:10:32 | 50.92306 | 5.11747 | 89° | 88km/h | 12427m | 3.8m/s | -46.4°C | 0.5% | 186.1hPa | 2.6V | 18:12:15 | 01:40:01 | 00:00:00 | i |
| DM0DOS-11 | 2026-08-31 12:10:29 | 50.92279 | 5.11529 | 87° | 97km/h | 12393m | 4.7m/s | -46.4°C | 3.2% | 187.1hPa | 2.7V | 08:30:00 | 01:39:54 | 00:00:00 | i |
| BIOWL1-15 | 2026-08-31 12:10:21 | 50.92279 | 5.11436 | 80° | 58km/h | 12378m | 4.6m/s | -46.4°C | 0.4% | 187.4hPa | 2.6V | 18:12:15 | 01:39:51 | 00:00:00 | i |
| DJ2KF-10 | 2026-08-31 12:10:21 | 50.92279 | 5.11436 | 80° | 73km/h | 12378m | 4.6m/s | 0°C | 0% | 0hPa | 2.7V | 00:00:00 | 01:39:51 | 00:00:00 | i |
| DM0DOS-11 | 2026-08-31 12:10:19 | 50.92256 | 5.11211 | 93° | 69km/h | 12344m | 4.2m/s | -46.2°C | 3.2% | 188.4hPa | 2.7V | 08:30:00 | 01:39:44 | 00:00:00 | i |
| DJ2DS-15 | 2026-08-31 12:10:12 | 50.92247 | 5.11133 | 70° | 75km/h | 12330m | 4.3m/s | -46.0°C | 1.4% | 188.8hPa | 2.7V | 00:00:00 | 00:00:00 | 00:00:00 | |
| DM0DOS-11 | 2026-08-31 12:10:09 | 50.92225 | 5.10913 | 73° | 73km/h | 12297m | 5.3m/s | -46°C | 3.1% | 189.7hPa | 2.7V | 08:30:00 | 01:39:34 | 00:00:00 | i |
| BIOWL1-15 | 2026-08-31 12:10:00 | 50.92197 | 5.10663 | 81° | 88km/h | 12256m | 5m/s | -45.7°C | 0.3% | 190.9hPa | 2.6V | 18:12:15 | 01:39:26 | 00:00:00 | i |
| BIOWL1-15 | 2026-08-31 12:09:48 | 50.92172 | 5.10341 | 91° | 77km/h | 12208m | 5.2m/s | -46.2°C | 0.5% | 192.2hPa | 2.6V | 18:12:15 | 01:39:16 | 00:00:00 | i |
| DM0DOS-11 | 2026-08-31 12:09:47 | 50.92173 | 5.10246 | 86° | 88km/h | 12194m | 4.8m/s | -46.2°C | 3.3% | 192.7hPa | 2.7V | 08:30:00 | 01:39:13 | 00:00:00 | i |
| BIOWL1-15 | 2026-08-31 12:09:38 | 50.92151 | 5.10040 | 83° | 84km/h | 12165m | 3.9m/s | -46.2°C | 0.6% | 193.5hPa | 2.6V | 18:12:15 | 01:39:07 | 00:00:00 | i |
| BIOWL1-15 | 2026-08-31 12:09:28 | 50.92138 | 5.09739 | 77° | 93km/h | 12126m | 4m/s | -46.1°C | 0.4% | 194.7hPa | 2.7V | 18:12:15 | 01:38:58 | 00:00:00 | |
| DM0DOS-11 | 2026-08-31 12:09:27 | 50.92119 | 5.09570 | 82° | 78km/h | 12102m | 3.9m/s | -46.3°C | 3.2% | 195.4hPa | 2.7V | 08:30:00 | 01:38:53 | 00:00:00 | i |
| BIOWL1-15 | 2026-08-31 12:09:19 | 50.92093 | 5.09346 | 80° | 104km/h | 12072m | 5.5m/s | -46.2°C | 0.5% | 196.2hPa | 2.6V | 18:12:15 | 01:38:47 | 00:00:00 | i |
| DM0DOS-11 | 2026-08-31 12:09:15 | 50.92066 | 5.09189 | 76° | 93km/h | 12048m | 4.8m/s | -46.1°C | 3.2% | 197hPa | 2.7V | 08:30:00 | 01:38:43 | 00:00:00 | |
| BIOWL1-15 | 2026-08-31 12:09:09 | 50.92000 | 5.08799 | 75° | 88km/h | 11995m | 4.2m/s | -46.4°C | 0.5% | 198.6hPa | 2.6V | 18:12:15 | 01:38:32 | 00:00:00 | i |
| DM0DOS-11 | 2026-08-31 12:09:05 | 50.92005 | 5.08831 | 74° | 80km/h | 12000m | 4.5m/s | -46.4°C | 3.2% | 198.4hPa | 2.7V | 08:30:00 | 01:38:33 | 00:00:00 | i |
| WEDDY | 2026-08-31 12:09:01 | 50.92000 | 5.08799 | 76° | 86km/h | 11996m | 4.2m/s | -46.4°C | 1.5% | 198.6hPa | 2.7V | 00:00:00 | 00:00:00 | 00:00:00 | |
| DJ2DS-15 | 2026-08-31 12:09:00 | 50.91975 | 5.08698 | 63° | 88km/h | 11982m | 3.2m/s | -46.3°C | 1.5% | 199.0hPa | 2.7V | 00:00:00 | 00:00:00 | 00:00:00 | |
| DL8DAS-14 | 2026-08-31 12:08:56 | 50.91952 | 5.08609 | 76° | 78km/h | 11968m | 5.1m/s | -46.3°C | -1.0% | -1.0hPa | 2.7V | 00:00:00 | 00:00:00 | 00:00:00 | |
| DM0DOS-11 | 2026-08-31 12:08:55 | 50.91938 | 5.08505 | 75° | 93km/h | 11953m | 4.2m/s | -46.2°C | 3.4% | 199.8hPa | 2.7V | 08:30:00 | 01:38:23 | 00:00:00 | i |
| BIOWL1-15 | 2026-08-31 12:08:46 | 50.91885 | 5.08268 | 67° | 95km/h | 11921m | 3.7m/s | -46.4°C | 0.7% | 200.8hPa | 2.6V | 18:12:15 | 01:38:16 | 00:00:00 | i |
| DM0DOS-11 | 2026-08-31 12:08:45 | 50.91862 | 5.08177 | 74° | 73km/h | 11906m | 5m/s | -46.4°C | 3.3% | 201.2hPa | 2.7V | 08:30:00 | 01:38:13 | 00:00:00 | i |
| BIOWL1-15 | 2026-08-31 12:08:36 | 50.91801 | 5.07829 | 66° | 77km/h | 11856m | 5.4m/s | -46.1°C | 0.7% | 202.8hPa | 2.6V | 18:12:15 | 01:38:02 | 00:00:00 | i |
| DM0DOS-11 | 2026-08-31 12:08:35 | 50.91808 | 5.07857 | 75° | 71km/h | 11861m | 5m/s | -46.1°C | 3.3% | 202.6hPa | 2.7V | 08:30:00 | 01:38:03 | 00:00:00 | i |
| DM0DOS-11 | 2026-08-31 12:08:25 | 50.91750 | 5.07535 | 69° | 91km/h | 11816m | 4.9m/s | -46.3°C | 3.3% | 204hPa | 2.7V | 08:30:00 | 01:37:53 | 00:00:00 | i |
| BIOWL1-15 | 2026-08-31 12:08:24 | 50.91757 | 5.07570 | 75° | 91km/h | 11820m | 4.8m/s | -46.3°C | 0.6% | 203.8hPa | 2.7V | 18:12:15 | 01:37:54 | 00:00:00 | i |
| DJ2DS-15 | 2026-08-31 12:08:24 | 50.91750 | 5.07535 | 69° | 91km/h | 11816m | 4.9m/s | -46.3°C | 1.6% | 204.0hPa | 2.6V | 00:00:00 | 00:00:00 | 00:00:00 | i |
| BIOWL9-15 | 2026-08-31 12:08:21 | 50.91734 | 5.07470 | 69° | 84km/h | 11806m | 3.8m/s | -46.1°C | 1.7% | 204.3hPa | 2.6V | 00:00:00 | 00:00:00 | 00:00:00 | |
| WEDDY | 2026-08-31 12:08:20 | 50.91734 | 5.07469 | 71° | 84km/h | 11806m | 3.8m/s | -46.1°C | 1.7% | 204.3hPa | 2.6V | 00:00:00 | 00:00:00 | 00:00:00 | |
| DJ2KF-10 | 2026-08-31 12:08:17 | 50.91713 | 5.07339 | 79° | 82km/h | 11791m | 3.9m/s | 0°C | 0% | 0hPa | 2.6V | 00:00:00 | 01:37:47 | 08:30:00 | |
| DM0DOS-11 | 2026-08-31 12:08:15 | 50.91698 | 5.07207 | 77° | 78km/h | 11771m | 5.4m/s | -46°C | 3.4% | 205.3hPa | 2.6V | 08:30:00 | 01:37:43 | 00:00:00 | i |
| BIOWL1-15 | 2026-08-31 12:08:14 | 50.91676 | 5.07085 | 74° | 78km/h | 11749m | 6.5m/s | -46°C | 0.8% | 205.9hPa | 2.6V | 18:12:15 | 01:37:39 | 00:00:00 | i |
| DM0DOS-11 | 2026-08-31 12:08:04 | 50.91631 | 5.06893 | 72° | 84km/h | 11719m | 6m/s | -45.9°C | 3.3% | 206.9hPa | 2.6V | 08:30:00 | 01:37:33 | 00:00:00 | i |
| BIOWL1-15 | 2026-08-31 12:08:01 | 50.91623 | 5.06836 | 83° | 64km/h | 11709m | 2.6m/s | -46°C | 0.8% | 207.2hPa | 2.7V | 18:12:15 | 01:37:31 | 00:00:00 | i |
| WEDDY | 2026-08-31 12:08:01 | 50.91623 | 5.06836 | 84° | 64km/h | 11709m | 2.6m/s | -46.0°C | 1.7% | 207.3hPa | 2.6V | 00:00:00 | 00:00:00 | 00:00:00 | i |
| DM0DOS-11 | 2026-08-31 12:07:59 | 50.91555 | 5.06612 | 72° | 62km/h | 11676m | 5.6m/s | -45.7°C | 3.4% | 208.3hPa | 2.6V | 08:30:00 | 01:37:23 | 00:00:00 | i |
| BIOWL1-15 | 2026-08-31 12:07:51 | 50.91507 | 5.06393 | 77° | 55km/h | 11638m | 4.1m/s | -45.9°C | 0.8% | 209.5hPa | 2.6V | 18:12:15 | 01:37:15 | 00:00:00 | i |
| DO1YAY-16 | 2026-08-31 12:07:49 | 50.91534 | 5.06503 | 65° | 84km/h | 11656m | 5.4m/s | -45.8°C | 1.6% | 208.9hPa | 2.7V | 00:00:00 | 00:00:00 | 00:00:00 | |
| DJ2DS-15 | 2026-08-31 12:07:48 | 50.91517 | 5.06443 | 68° | 77km/h | 11647m | 5.1m/s | -45.7°C | 1.6% | 209.2hPa | 2.7V | 00:00:00 | 00:00:00 | 00:00:00 | |
| DM0DOS-11 | 2026-08-31 12:07:47 | 50.91499 | 5.06353 | 68° | 55km/h | 11629m | 3.9m/s | -45.9°C | 3.4% | 209.7hPa | 2.7V | 08:30:00 | 01:37:13 | 00:00:00 | i |
| BIOWL1-15 | 2026-08-31 12:07:42 | 50.91480 | 5.06271 | 73° | 88km/h | 11613m | 6m/s | -45.9°C | 0.8% | 210.3hPa | 2.6V | 18:12:15 | 01:37:10 | 00:00:00 | i |
| WEDDY | 2026-08-31 12:07:40 | 50.91486 | 5.06303 | 71° | 78km/h | 11620m | 6.7m/s | -45.9°C | 1.7% | 210.0hPa | 2.7V | 00:00:00 | 00:00:00 | 00:00:00 | |
| DM0DOS-11 | 2026-08-31 12:07:35 | 50.91437 | 5.06077 | 71° | 82km/h | 11581m | 4m/s | -46°C | 3.6% | 211.3hPa | 2.7V | 08:30:00 | 01:37:03 | 00:00:00 | i |
| BIOWL1-15 | 2026-08-31 12:07:30 | 50.91424 | 5.05977 | 83° | 84km/h | 11567m | 3.7m/s | -46°C | 1% | 211.8hPa | 2.6V | 18:12:15 | 01:37:00 | 00:00:00 | i |
| DM0DOS-11 | 2026-08-31 12:07:25 | 50.91383 | 5.05785 | 91° | 62km/h | 11534m | 4.6m/s | -45.8°C | 3.5% | 212.8hPa | 2.6V | 08:30:00 | 01:36:53 | 00:00:00 | i |
| BIOWL1-15 | 2026-08-31 12:07:20 | 50.91324 | 5.05397 | 69° | 97km/h | 11467m | 5.4m/s | -45.2°C | 0.8% | 215hPa | 2.6V | 18:12:15 | 01:36:40 | 00:00:00 | i |
| BIOWL9-15 | 2026-08-31 12:07:19 | 50.91359 | 5.05642 | 60° | 89km/h | 11507m | 3.8m/s | -45.4°C | 1.7% | 213.7hPa | 2.7V | 00:00:00 | 00:00:00 | 00:00:00 | |
| DO1YAY-16 | 2026-08-31 12:07:18 | 50.91359 | 5.05642 | 60° | 89km/h | 11507m | 3.8m/s | -45.4°C | 1.7% | 213.7hPa | 2.7V | 00:00:00 | 00:00:00 | 00:00:00 | |
| DM0DOS-11 | 2026-08-31 12:07:15 | 50.91343 | 5.05490 | 85° | 68km/h | 11482m | 3.3m/s | -45.2°C | 3.4% | 214.6hPa | 2.7V | 08:30:00 | 01:36:43 | 00:00:00 | i |
| DB0UT-7 | 2026-08-31 12:07:12 | 50.91339 | 5.05462 | 75° | 77km/h | 11478m | 4.6m/s | 0°C | 0% | 0hPa | 2.7V | 00:00:00 | 01:36:42 | 00:00:00 | |
| DM0DOS-11 | 2026-08-31 12:07:05 | 50.91305 | 5.05185 | 70° | 69km/h | 11428m | 5.2m/s | -45.1°C | 3.3% | 216.2hPa | 2.7V | 08:30:00 | 01:36:33 | 00:00:00 | i |
| BIOWL1-15 | 2026-08-31 12:07:04 | 50.91289 | 5.05090 | 83° | 89km/h | 11413m | 5.2m/s | -45°C | 0.8% | 216.8hPa | 2.6V | 18:12:15 | 01:36:30 | 00:00:00 | i |
| WEDDY | 2026-08-31 12:06:58 | 50.91288 | 5.05055 | 89° | 88km/h | 11409m | 4.7m/s | -45.0°C | 1.7% | 217.0hPa | 2.6V | 00:00:00 | 00:00:00 | 00:00:00 | |
| DM0DOS-11 | 2026-08-31 12:06:55 | 50.91256 | 5.04789 | 83° | 64km/h | 11364m | 5m/s | -44.7°C | 3.5% | 218.3hPa | 2.6V | 08:30:00 | 01:36:20 | 00:00:00 | |
| HTAHTA | 2026-08-31 12:06:51 | 50.91256 | 5.04789 | 83° | 62km/h | 11364m | 5.0m/s | -44.7°C | 1.8% | 218.3hPa | 2.7V | 00:00:00 | 00:00:00 | 00:00:00 | |
| BIOWL1-15 | 2026-08-31 12:06:50 | 50.91236 | 5.04567 | 71° | 62km/h | 11324m | 5m/s | -44.8°C | 1% | 219.7hPa | 2.7V | 18:12:15 | 01:36:12 | 00:00:00 | i |
| BIOWL9-15 | 2026-08-31 12:06:48 | 50.91248 | 5.04710 | 81° | 75km/h | 11349m | 5.4m/s | -44.7°C | 1.8% | 218.8hPa | 2.7V | 00:00:00 | 00:00:00 | 00:00:00 | |
| DO1YAY-16 | 2026-08-31 12:06:47 | 50.91248 | 5.04710 | 81° | 75km/h | 11349m | 5.4m/s | -44.7°C | 1.8% | 218.8hPa | 2.7V | 00:00:00 | 00:00:00 | 00:00:00 | |
| DM0DOS-11 | 2026-08-31 12:06:45 | 50.91222 | 5.04517 | 66° | 75km/h | 11314m | 3.5m/s | -44.7°C | 3.5% | 219.9hPa | 2.7V | 08:30:00 | 01:36:10 | 00:00:00 | i |
| WEDDY | 2026-08-31 12:06:38 | 50.91216 | 5.04489 | 73° | 75km/h | 11311m | 3.4m/s | -44.5°C | 1.8% | 220.1hPa | 2.7V | 00:00:00 | 00:00:00 | 00:00:00 | |
| DM0DOS-11 | 2026-08-31 12:06:35 | 50.91192 | 5.04215 | 76° | 69km/h | 11269m | 4.3m/s | -44.5°C | 3.4% | 221.4hPa | 2.7V | 08:30:00 | 01:36:00 | 00:00:00 | i |
| BIOWL1-15 | 2026-08-31 12:06:29 | 50.91189 | 5.04189 | 83° | 64km/h | 11265m | 4.5m/s | -44.5°C | 1% | 221.6hPa | 2.6V | 18:12:15 | 01:35:59 | 00:00:00 | i |
| DM0DOS-11 | 2026-08-31 12:06:25 | 50.91164 | 5.03928 | 99° | 68km/h | 11221m | 4.4m/s | -44.6°C | 3.6% | 223.1hPa | 2.7V | 08:30:00 | 01:35:50 | 00:00:00 | i |
| BIOWL1-15 | 2026-08-31 12:06:18 | 50.91158 | 5.03821 | 72° | 78km/h | 11198m | 6.6m/s | -44.7°C | 1.2% | 223.8hPa | 2.7V | 18:12:15 | 01:35:46 | 00:00:00 | i |
| BIOWL9-15 | 2026-08-31 12:06:17 | 50.91158 | 5.03821 | 72° | 78km/h | 11198m | 6.6m/s | -44.7°C | 1.9% | 223.8hPa | 2.7V | 00:00:00 | 00:00:00 | 00:00:00 | |
| DO1YAY-16 | 2026-08-31 12:06:16 | 50.91158 | 5.03821 | 72° | 78km/h | 11198m | 6.6m/s | -44.7°C | 1.9% | 223.8hPa | 2.7V | 00:00:00 | 00:00:00 | 00:00:00 | |
| DM0DOS-11 | 2026-08-31 12:06:15 | 50.91127 | 5.03621 | 89° | 77km/h | 11166m | 7.5m/s | -44.6°C | 3.5% | 224.8hPa | 2.7V | 08:30:00 | 01:35:40 | 00:00:00 | i |
| BIOWL1-15 | 2026-08-31 12:06:08 | 50.91127 | 5.03561 | 91° | 73km/h | 11151m | 6.5m/s | -44.7°C | 1.4% | 225.3hPa | 2.6V | 18:12:15 | 01:35:38 | 00:00:00 | i |
| BIOWL7-15 | 2026-08-31 12:06:02 | 50.91133 | 5.03418 | 95° | 66km/h | 11127m | 4.4m/s | -44.9°C | 0% | 0hPa | 2.7V | 00:00:00 | 00:00:00 | 00:00:00 | |
| DM0DOS-11 | 2026-08-31 12:06:00 | 50.91127 | 5.03342 | 75° | 71km/h | 11113m | 4.1m/s | -44.9°C | 3.9% | 226.6hPa | 2.7V | 08:30:00 | 01:35:30 | 00:00:00 | i |
| BIOWL1-15 | 2026-08-31 12:05:57 | 50.91120 | 5.03243 | 94° | 95km/h | 11096m | 6.1m/s | -45.2°C | 1.9% | 227.2hPa | 2.6V | 18:12:15 | 01:35:27 | 00:00:00 | i |
| DM0DOS-11 | 2026-08-31 12:05:49 | 50.91100 | 5.02921 | 90° | 86km/h | 11054m | 5m/s | -45.4°C | 3.9% | 228.7hPa | 2.7V | 08:30:00 | 01:35:18 | 00:00:00 | i |
| BIOWL1-15 | 2026-08-31 12:05:46 | 50.91097 | 5.02849 | 80° | 93km/h | 11045m | 4m/s | -45.3°C | 1.8% | 229hPa | 2.6V | 18:12:15 | 01:35:16 | 00:00:00 | i |
| BIOWL9-15 | 2026-08-31 12:05:46 | 50.91093 | 5.02813 | 76° | 89km/h | 11040m | 6.2m/s | -45.5°C | 2.3% | 229.2hPa | 2.7V | 00:00:00 | 00:00:00 | 00:00:00 | i |
| DO1YAY-16 | 2026-08-31 12:05:45 | 50.91093 | 5.02813 | 76° | 89km/h | 11040m | 6.2m/s | -45.5°C | 2.3% | 229.2hPa | 2.7V | 00:00:00 | 00:00:00 | 00:00:00 | |
| DM0DOS-11 | 2026-08-31 12:05:39 | 50.91057 | 5.02550 | 85° | 82km/h | 11006m | 5.8m/s | -45.6°C | 4.1% | 230.3hPa | 2.7V | 08:30:00 | 01:35:08 | 00:00:00 | i |
| BIOWL1-15 | 2026-08-31 12:05:36 | 50.91025 | 5.02272 | 85° | 82km/h | 10965m | 4.2m/s | -45.6°C | 2% | 231.8hPa | 2.6V | 18:12:15 | 01:35:00 | 00:00:00 | i |
| DM0DOS-11 | 2026-08-31 12:05:29 | 50.91016 | 5.02211 | 70° | 80km/h | 10957m | 6m/s | -45.6°C | 4.1% | 232.1hPa | 2.7V | 08:30:00 | 01:34:58 | 00:00:00 | i |
| BIOWL1-15 | 2026-08-31 12:05:24 | 50.90991 | 5.01967 | 72° | 73km/h | 10921m | 4.8m/s | -45.4°C | 2.1% | 233.4hPa | 2.7V | 18:12:15 | 01:34:51 | 00:00:00 | i |
| BIOWL1-15 | 2026-08-31 12:05:13 | 50.90965 | 5.01696 | 81° | 84km/h | 10884m | 5.4m/s | -45.6°C | 2.6% | 234.6hPa | 2.6V | 18:12:15 | 01:34:43 | 00:00:00 | |
| BIOWL1-15 | 2026-08-31 12:05:07 | 50.90931 | 5.01306 | 69° | 78km/h | 10834m | 4.4m/s | -46.2°C | 3.5% | 236.3hPa | 2.6V | 18:12:15 | 01:34:32 | 00:00:00 | i |
| DM0DOS-11 | 2026-08-31 12:04:58 | 50.90919 | 5.01181 | 87° | 95km/h | 10816m | 4.9m/s | -46.3°C | 5.6% | 237hPa | 2.6V | 08:30:00 | 01:34:28 | 00:00:00 | i |
| BIOWL1-15 | 2026-08-31 12:04:52 | 50.90900 | 5.00978 | 93° | 75km/h | 10791m | 4.7m/s | -46.4°C | 5.5% | 237.9hPa | 2.6V | 18:12:15 | 01:34:22 | 00:00:00 | i |
| DM0DOS-11 | 2026-08-31 12:04:48 | 50.90890 | 5.00801 | 74° | 95km/h | 10768m | 3.8m/s | -46.8°C | 7.4% | 238.7hPa | 2.6V | 08:30:00 | 01:34:17 | 00:00:00 | i |
| BIOWL1-15 | 2026-08-31 12:04:44 | 50.90862 | 5.00546 | 70° | 78km/h | 10734m | 3.1m/s | -46.8°C | 6.1% | 239.9hPa | 2.7V | 18:12:15 | 01:34:09 | 00:00:00 | i |
| BIOWL9-15 | 2026-08-31 12:04:44 | 50.90873 | 5.00656 | 89° | 82km/h | 10750m | 3.9m/s | -46.8°C | 5.2% | 239.4hPa | 2.7V | 00:00:00 | 00:00:00 | 00:00:00 | i |
| DO1YAY-16 | 2026-08-31 12:04:43 | 50.90873 | 5.00625 | 89° | 71km/h | 10746m | 3.7m/s | -46.8°C | 5.1% | 239.6hPa | 2.7V | 00:00:00 | 00:00:00 | 00:00:00 | |
| WEDDY | 2026-08-31 12:04:34 | 50.90848 | 5.00393 | 90° | 99km/h | 10709m | 6.0m/s | -46.6°C | 4.8% | 240.8hPa | 2.7V | 00:00:00 | 00:00:00 | 00:00:00 | |
| DM0DOS-11 | 2026-08-31 12:04:33 | 50.90835 | 5.00140 | 85° | 102km/h | 10670m | 3.2m/s | -46.4°C | 6.6% | 242.2hPa | 2.7V | 08:30:00 | 01:33:58 | 00:00:00 | i |
| BIOWL1-15 | 2026-08-31 12:04:28 | 50.90830 | 5.00067 | 81° | 78km/h | 10662m | 4.9m/s | -46.5°C | 5.9% | 242.6hPa | 2.7V | 18:12:15 | 01:33:56 | 00:00:00 | i |
| BIOWL1-15 | 2026-08-31 12:04:16 | 50.90769 | 4.99578 | 86° | 111km/h | 10608m | 4.5m/s | -46.4°C | 7.1% | 244.6hPa | 2.6V | 18:12:15 | 01:33:43 | 00:00:00 | i |
| WEDDY | 2026-08-31 12:04:14 | 50.90779 | 4.99665 | 75° | 106km/h | 10617m | 3.9m/s | -46.5°C | 5.6% | 244.2hPa | 2.6V | 00:00:00 | 00:00:00 | 00:00:00 | |
| BIOWL9-15 | 2026-08-31 12:04:13 | 50.90769 | 4.99535 | 92° | 104km/h | 10604m | 3.9m/s | -46.5°C | 5.5% | 244.7hPa | 2.6V | 00:00:00 | 00:00:00 | 00:00:00 | |
| DO1YAY-16 | 2026-08-31 12:04:12 | 50.90770 | 4.99496 | 94° | 91km/h | 10600m | 3.3m/s | -46.6°C | 5.6% | 244.9hPa | 2.6V | 00:00:00 | 00:00:00 | 00:00:00 | |
| DM0DOS-11 | 2026-08-31 12:04:03 | 50.90717 | 4.99006 | 74° | 115km/h | 10543m | 4.4m/s | -46.9°C | 8.4% | 246.9hPa | 2.6V | 08:30:00 | 01:33:28 | 00:00:00 | i |
| BIOWL1-15 | 2026-08-31 12:04:02 | 50.90740 | 4.99156 | 88° | 82km/h | 10561m | 3.8m/s | -46.9°C | 8% | 246.2hPa | 2.6V | 18:12:15 | 01:33:32 | 00:00:00 | i |
| DM0DOS-11 | 2026-08-31 12:03:53 | 50.90670 | 4.98594 | 77° | 115km/h | 10501m | 4.5m/s | -47°C | 8.6% | 248.5hPa | 2.7V | 08:30:00 | 01:33:18 | 00:00:00 | |
| BIOWL1-15 | 2026-08-31 12:03:52 | 50.90686 | 4.98761 | 80° | 89km/h | 10519m | 3.3m/s | -47°C | 8.1% | 247.9hPa | 2.6V | 18:12:15 | 01:33:22 | 00:00:00 | i |
| HTAHTA | 2026-08-31 12:03:45 | 50.90644 | 4.98443 | 81° | 88km/h | 10485m | 4.9m/s | -47.0°C | 6.7% | 249.1hPa | 2.7V | 00:00:00 | 00:00:00 | 00:00:00 | |
| DM0DOS-11 | 2026-08-31 12:03:43 | 50.90621 | 4.98203 | 72° | 97km/h | 10460m | 2.7m/s | -46.7°C | 9.2% | 250.1hPa | 2.7V | 08:30:00 | 01:33:08 | 00:00:00 | i |
| BIOWL1-15 | 2026-08-31 12:03:42 | 50.90628 | 4.98241 | 74° | 102km/h | 10464m | 3.8m/s | -46.8°C | 8.9% | 249.9hPa | 2.7V | 18:12:15 | 01:33:09 | 00:00:00 | i |
| DO1YAY-16 | 2026-08-31 12:03:41 | 50.90634 | 4.98281 | 78° | 104km/h | 10468m | 4.4m/s | -46.9°C | 7.1% | 249.8hPa | 2.8V | 00:00:00 | 00:00:00 | 00:00:00 | |
| DJ2DS-15 | 2026-08-31 12:03:35 | 50.90609 | 4.98094 | 90° | 88km/h | 10447m | 3.4m/s | -46.9°C | 7.1% | 250.6hPa | 2.8V | 00:00:00 | 00:00:00 | 00:00:00 | |
| DM0DOS-11 | 2026-08-31 12:03:33 | 50.90577 | 4.97836 | 84° | 104km/h | 10420m | 5.4m/s | -46.6°C | 9.3% | 251.6hPa | 2.8V | 08:30:00 | 01:32:58 | 00:00:00 | i |
| BIOWL1-15 | 2026-08-31 12:03:28 | 50.90577 | 4.97836 | 84° | 104km/h | 10421m | 5.4m/s | -46.6°C | 9.6% | 251.6hPa | 2.8V | 18:12:15 | 01:32:58 | 00:00:00 | i |
| DM0DOS-11 | 2026-08-31 12:03:23 | 50.90543 | 4.97434 | 85° | 99km/h | 10371m | 4.8m/s | -46.9°C | 11.2% | 253.4hPa | 2.6V | 08:30:00 | 01:32:48 | 00:00:00 | i |
| BIOWL1-15 | 2026-08-31 12:03:18 | 50.90541 | 4.97395 | 83° | 97km/h | 10367m | 4.4m/s | -46.9°C | 11.2% | 253.6hPa | 2.6V | 18:12:15 | 01:32:47 | 00:00:00 | i |
| WEDDY | 2026-08-31 12:03:11 | 50.90516 | 4.97216 | 86° | 88km/h | 10345m | 4.7m/s | -47.0°C | 8.7% | 254.4hPa | 2.6V | 00:00:00 | 00:00:00 | 00:00:00 | |
| DO1YAY-16 | 2026-08-31 12:03:10 | 50.90514 | 4.97118 | 81° | 75km/h | 10334m | 4.4m/s | -47.0°C | 8.4% | 254.9hPa | 2.6V | 00:00:00 | 00:00:00 | 00:00:00 | |
| DM0DOS-11 | 2026-08-31 12:03:07 | 50.90495 | 4.97031 | 69° | 82km/h | 10321m | 3.6m/s | -46.8°C | 10.7% | 255.4hPa | 2.6V | 08:30:00 | 01:32:36 | 00:00:00 | i |
| BIOWL1-15 | 2026-08-31 12:03:06 | 50.90455 | 4.96690 | 84° | 93km/h | 10275m | 2.8m/s | -46.7°C | 10.9% | 257.1hPa | 2.6V | 18:12:15 | 01:32:26 | 00:00:00 | i |
| BIOWL1-15 | 2026-08-31 12:02:52 | 50.90429 | 4.96550 | 67° | 97km/h | 10260m | 3.3m/s | -46.7°C | 11.1% | 257.8hPa | 2.8V | 18:12:15 | 01:32:22 | 00:00:00 | i |
| BIOWL1-15 | 2026-08-31 12:02:42 | 50.90388 | 4.96199 | 77° | 100km/h | 10215m | 6.6m/s | -46.4°C | 11% | 259.5hPa | 2.8V | 18:12:15 | 01:32:12 | 00:00:00 | i |
| BIOWL1-15 | 2026-08-31 12:02:31 | 50.90316 | 4.95782 | 69° | 88km/h | 10164m | 5.6m/s | -46.5°C | 11.2% | 261.4hPa | 2.8V | 18:12:15 | 01:32:01 | 00:00:00 | i |
| WEDDY | 2026-08-31 12:02:30 | 50.90316 | 4.95782 | 70° | 88km/h | 10165m | 5.6m/s | -46.5°C | 8.6% | 261.4hPa | 2.8V | 00:00:00 | 00:00:00 | 00:00:00 | |
| DM0DOS-11 | 2026-08-31 12:02:27 | 50.90279 | 4.95550 | 90° | 106km/h | 10125m | 3.1m/s | -46.3°C | 11% | 263.1hPa | 2.8V | 08:30:00 | 01:31:54 | 00:00:00 | i |
| BIOWL1-15 | 2026-08-31 12:02:22 | 50.90285 | 4.95416 | 84° | 68km/h | 10108m | 5.1m/s | -46.3°C | 10.4% | 263.7hPa | 2.6V | 18:12:15 | 01:31:50 | 00:00:00 | i |
| BIOWL1-15 | 2026-08-31 12:02:11 | 50.90233 | 4.95012 | 77° | 104km/h | 10053m | 4.3m/s | -46.1°C | 9.4% | 265.9hPa | 2.6V | 18:12:15 | 01:31:39 | 00:00:00 | i |
| WEDDY | 2026-08-31 12:02:10 | 50.90247 | 4.95086 | 74° | 88km/h | 10061m | 4.4m/s | -46.2°C | 7.7% | 265.6hPa | 2.8V | 00:00:00 | 00:00:00 | 00:00:00 | |
| BIOWL1-15 | 2026-08-31 12:01:59 | 50.90188 | 4.94346 | 86° | 120km/h | 9970m | 6.7m/s | -46.1°C | 9.6% | 269.3hPa | 2.8V | 18:12:15 | 01:31:22 | 00:00:00 | i |
| BIOWL1-15 | 2026-08-31 12:01:47 | 50.90182 | 4.94154 | 76° | 89km/h | 9942m | 5.5m/s | -45.9°C | 10.5% | 270.4hPa | 2.8V | 18:12:15 | 01:31:17 | 00:00:00 | i |
| BIOWL1-15 | 2026-08-31 12:01:36 | 50.90165 | 4.93749 | 95° | 104km/h | 9889m | 4.4m/s | -45.9°C | 11.8% | 272.5hPa | 2.8V | 18:12:15 | 01:31:06 | 00:00:00 | i |
| BIOWL1-15 | 2026-08-31 12:01:26 | 50.90161 | 4.93384 | 96° | 84km/h | 9844m | 2.7m/s | -46.1°C | 14.3% | 274.4hPa | 2.6V | 18:12:15 | 01:30:56 | 00:00:00 | i |
| BIOWL1-15 | 2026-08-31 12:01:16 | 50.90127 | 4.92803 | 89° | 88km/h | 9773m | 6.5m/s | -47°C | 21.1% | 277.3hPa | 2.8V | 18:12:15 | 01:30:41 | 00:00:00 | i |
| BIOWL1-15 | 2026-08-31 12:01:02 | 50.90072 | 4.92048 | 80° | 84km/h | 9680m | 6.6m/s | -47.6°C | 26.2% | 281.1hPa | 2.8V | 18:12:15 | 01:30:23 | 00:00:00 | i |
| DM0DOS-11 | 2026-08-31 12:00:48 | 50.90024 | 4.91701 | 83° | 82km/h | 9630m | 4.9m/s | -47.4°C | 24.9% | 283.4hPa | 2.8V | 08:30:00 | 01:30:14 | 00:00:00 | i |
| BIOWL1-15 | 2026-08-31 12:00:44 | 50.90024 | 4.91701 | 84° | 82km/h | 9630m | 4.9m/s | -47.4°C | 26.6% | 283.4hPa | 2.8V | 18:12:15 | 01:30:14 | 00:00:00 | i |
| BIOWL1-15 | 2026-08-31 12:00:33 | 50.89934 | 4.91260 | 62° | 120km/h | 9551m | 6.6m/s | -47.1°C | 26.4% | 286.8hPa | 2.8V | 18:12:15 | 01:30:03 | 00:00:00 | i |
| BIOWL1-15 | 2026-08-31 12:00:24 | 50.89837 | 4.90808 | 76° | 110km/h | 9489m | 4.9m/s | -46.8°C | 26.3% | 289.5hPa | 2.8V | 18:12:15 | 01:29:52 | 00:00:00 | i |
| DM0DOS-11 | 2026-08-31 12:00:22 | 50.89815 | 4.90706 | 61° | 80km/h | 9472m | 4.6m/s | -46.8°C | 25.5% | 290.2hPa | 2.8V | 08:30:00 | 01:29:49 | 00:00:00 | i |
| DM0DOS-11 | 2026-08-31 12:00:14 | 50.89709 | 4.90291 | 73° | 115km/h | 9417m | 4.5m/s | -46.6°C | 25% | 292.6hPa | 2.8V | 08:30:00 | 01:29:38 | 00:00:00 | i |
| BIOWL1-15 | 2026-08-31 12:00:13 | 50.89729 | 4.90405 | 71° | 86km/h | 9431m | 3.9m/s | -46.6°C | 27.4% | 292.1hPa | 2.6V | 18:12:15 | 01:29:41 | 00:00:00 | i |
| BIOWL1-15 | 2026-08-31 12:00:01 | 50.89607 | 4.89915 | 70° | 108km/h | 9369m | 4.8m/s | -46.1°C | 26.8% | 294.8hPa | 2.6V | 18:12:15 | 01:29:28 | 00:00:00 | i |
| DM0DOS-11 | 2026-08-31 11:59:52 | 50.89523 | 4.89608 | 60° | 84km/h | 9328m | 4.6m/s | -46°C | 26.9% | 296.6hPa | 2.8V | 08:30:00 | 01:29:19 | 00:00:00 | |
| BIOWL1-15 | 2026-08-31 11:59:48 | 50.89512 | 4.89581 | 55° | 77km/h | 9324m | 4.3m/s | -46°C | 27.6% | 297hPa | 2.8V | 18:12:15 | 01:29:18 | 00:00:00 | i |
| BIOWL1-15 | 2026-08-31 11:59:37 | 50.89378 | 4.89124 | 71° | 115km/h | 9239m | 6.1m/s | -45.4°C | 30.4% | 300.7hPa | 2.8V | 18:12:15 | 01:29:04 | 00:00:00 | i |
| BIOWL9-15 | 2026-08-31 11:59:33 | 50.89371 | 4.89081 | 79° | 106km/h | 9233m | 5.5m/s | -45.4°C | 25.3% | 301.0hPa | 2.8V | 00:00:00 | 00:00:00 | 00:00:00 | |
| DM0DOS-11 | 2026-08-31 11:59:32 | 50.89344 | 4.88954 | 51° | 82km/h | 9210m | 6.3m/s | -45.4°C | 29.4% | 302hPa | 2.8V | 08:30:00 | 01:28:59 | 00:00:00 | i |
| BIOWL1-15 | 2026-08-31 11:59:24 | 50.89296 | 4.88781 | 79° | 88km/h | 9176m | 7.5m/s | -45.3°C | 34.6% | 303.4hPa | 2.6V | 18:12:15 | 01:28:54 | 00:00:00 | |
| BIOWL1-15 | 2026-08-31 11:59:14 | 50.89232 | 4.88358 | 71° | 95km/h | 9102m | 6.4m/s | -45.8°C | 40.2% | 306.9hPa | 2.8V | 18:12:15 | 01:28:41 | 00:00:00 | i |
| DM0DOS-11 | 2026-08-31 11:59:09 | 50.89220 | 4.88264 | 83° | 75km/h | 9085m | 3.9m/s | -45.8°C | 38% | 307.7hPa | 2.8V | 08:30:00 | 01:28:38 | 00:00:00 | i |
| WEDDY | 2026-08-31 11:59:04 | 50.89195 | 4.88116 | 75° | 108km/h | 9064m | 5.5m/s | -45.7°C | 35.1% | 308.6hPa | 2.8V | 00:00:00 | 00:00:00 | 00:00:00 | |
| DM0DOS-11 | 2026-08-31 11:59:03 | 50.89169 | 4.87898 | 81° | 95km/h | 9036m | 4.8m/s | -45.7°C | 41.8% | 310hPa | 2.8V | 08:30:00 | 01:28:28 | 00:00:00 | i |
| BIOWL1-15 | 2026-08-31 11:59:02 | 50.89183 | 4.88039 | 78° | 91km/h | 9053m | 5.1m/s | -45.7°C | 39.8% | 309.1hPa | 2.7V | 18:12:15 | 01:28:32 | 00:00:00 | i |
| BIOWL1-15 | 2026-08-31 11:58:51 | 50.89117 | 4.87573 | 77° | 117km/h | 8999m | 5m/s | -45.7°C | 43% | 311.8hPa | 2.8V | 18:12:15 | 01:28:20 | 00:00:00 | i |
| DM0DOS-11 | 2026-08-31 11:58:51 | 50.89109 | 4.87485 | 85° | 102km/h | 8989m | 5.1m/s | -45.6°C | 43.5% | 312.1hPa | 2.6V | 08:30:00 | 01:28:18 | 00:00:00 | i |
| DJ2DS-15 | 2026-08-31 11:58:47 | 50.89105 | 4.87416 | 80° | 71km/h | 8977m | 6.5m/s | -45.6°C | 39.8% | 312.6hPa | 2.8V | 00:00:00 | 00:00:00 | 00:00:00 | |
| BIOWL1-15 | 2026-08-31 11:58:40 | 50.89048 | 4.87128 | 78° | 82km/h | 8925m | 7.4m/s | -45.2°C | 41.6% | 315hPa | 2.8V | 18:12:15 | 01:28:08 | 00:00:00 | i |
| DM0DOS-11 | 2026-08-31 11:58:39 | 50.89048 | 4.87128 | 78° | 82km/h | 8925m | 7.4m/s | -45.1°C | 38.8% | 315hPa | 2.8V | 08:30:00 | 01:28:08 | 00:00:00 | i |
| DM0DOS-11 | 2026-08-31 11:58:34 | 50.88979 | 4.86812 | 64° | 73km/h | 8862m | 3m/s | -44.7°C | 40.7% | 318.1hPa | 2.8V | 08:30:00 | 01:27:58 | 00:00:00 | i |
| BIOWL1-15 | 2026-08-31 11:58:29 | 50.88979 | 4.86812 | 65° | 73km/h | 8862m | 3m/s | -44.7°C | 39.8% | 318.1hPa | 2.8V | 18:12:15 | 01:27:58 | 00:00:00 | |
| WEDDY | 2026-08-31 11:58:22 | 50.88902 | 4.86632 | 64° | 91km/h | 8838m | 5.5m/s | -44.4°C | 36.6% | 319.2hPa | 2.8V | 00:00:00 | 00:00:00 | 00:00:00 | |
| DM0DOS-11 | 2026-08-31 11:58:21 | 50.88882 | 4.86505 | 78° | 89km/h | 8810m | 6.3m/s | -44.3°C | 37.9% | 320.6hPa | 2.8V | 08:30:00 | 01:27:48 | 00:00:00 | i |
| BIOWL1-15 | 2026-08-31 11:58:17 | 50.88831 | 4.86283 | 67° | 69km/h | 8766m | 3.6m/s | -44°C | 40.7% | 322.7hPa | 2.7V | 18:12:15 | 01:27:41 | 00:00:00 | i |
| DM0DOS-11 | 2026-08-31 11:58:09 | 50.88800 | 4.86210 | 50° | 77km/h | 8754m | 3.8m/s | -43.9°C | 39.5% | 323.3hPa | 2.8V | 08:30:00 | 01:27:38 | 00:00:00 | i |
| BIOWL1-15 | 2026-08-31 11:58:06 | 50.88780 | 4.86161 | 64° | 69km/h | 8746m | 4.9m/s | -43.8°C | 39.3% | 323.7hPa | 2.8V | 18:12:15 | 01:27:36 | 00:00:00 | i |
| DM0DOS-11 | 2026-08-31 11:58:03 | 50.88733 | 4.85953 | 59° | 88km/h | 8700m | 6.3m/s | -43.4°C | 37.2% | 325.9hPa | 2.8V | 08:30:00 | 01:27:28 | 00:00:00 | i |
| BIOWL1-15 | 2026-08-31 11:57:56 | 50.88713 | 4.85889 | 68° | 91km/h | 8690m | 3.6m/s | -43.4°C | 37.2% | 326.4hPa | 2.8V | 18:12:15 | 01:27:26 | 00:00:00 | i |
| DM0DOS-11 | 2026-08-31 11:57:52 | 50.88634 | 4.85601 | 66° | 84km/h | 8651m | 6.6m/s | -43°C | 36.9% | 328.2hPa | 2.8V | 08:30:00 | 01:27:18 | 00:00:00 | i |
| BIOWL1-15 | 2026-08-31 11:57:48 | 50.88619 | 4.85547 | 65° | 68km/h | 8640m | 4m/s | -43°C | 37.5% | 328.9hPa | 2.7V | 18:12:15 | 01:27:16 | 00:00:00 | i |
| DM0DOS-11 | 2026-08-31 11:57:41 | 50.88537 | 4.85326 | 69° | 68km/h | 8603m | 5.2m/s | -42.6°C | 37.1% | 330.7hPa | 2.7V | 08:30:00 | 01:27:08 | 00:00:00 | i |
| BIOWL1-15 | 2026-08-31 11:57:36 | 50.88474 | 4.85100 | 87° | 77km/h | 8556m | 6m/s | -42.3°C | 36.8% | 333hPa | 2.7V | 18:12:15 | 01:26:59 | 00:00:00 | i |
| DM0DOS-11 | 2026-08-31 11:57:29 | 50.88473 | 4.85069 | 88° | 78km/h | 8551m | 4.5m/s | -42.3°C | 35.7% | 333.2hPa | 2.8V | 08:30:00 | 01:26:58 | 00:00:00 | i |
| BIOWL9-15 | 2026-08-31 11:57:29 | 50.88473 | 4.85069 | 88° | 78km/h | 8551m | 4.5m/s | -42.3°C | 32.6% | 333.3hPa | 2.8V | 00:00:00 | 00:00:00 | 00:00:00 | i |
| DO1YAY-16 | 2026-08-31 11:57:28 | 50.88473 | 4.85069 | 88° | 78km/h | 8551m | 4.5m/s | -42.3°C | 32.6% | 333.3hPa | 2.8V | 00:00:00 | 00:00:00 | 00:00:00 | |
| DM0DOS-11 | 2026-08-31 11:57:23 | 50.88398 | 4.84747 | 72° | 68km/h | 8497m | 4.7m/s | -41.8°C | 37.3% | 335.9hPa | 2.8V | 08:30:00 | 01:26:48 | 00:00:00 | i |
| BIOWL1-15 | 2026-08-31 11:57:22 | 50.88414 | 4.84831 | 68° | 86km/h | 8513m | 6m/s | -41.8°C | 36.7% | 335hPa | 2.7V | 18:12:15 | 01:26:51 | 00:00:00 | i |
| WEDDY | 2026-08-31 11:57:21 | 50.88414 | 4.84831 | 69° | 86km/h | 8513m | 6.0m/s | -41.8°C | 33.5% | 335.0hPa | 2.8V | 00:00:00 | 00:00:00 | 00:00:00 | |
| DM0DOS-11 | 2026-08-31 11:57:11 | 50.88341 | 4.84478 | 75° | 73km/h | 8448m | 5.3m/s | -41.5°C | 39.4% | 338.2hPa | 2.8V | 08:30:00 | 01:26:38 | 00:00:00 | i |
| BIOWL1-15 | 2026-08-31 11:57:11 | 50.88344 | 4.84565 | 89° | 73km/h | 8462m | 5.3m/s | -41.6°C | 38.1% | 337.4hPa | 2.8V | 18:12:15 | 01:26:41 | 00:00:00 | i |
| BIOWL1-15 | 2026-08-31 11:57:01 | 50.88280 | 4.84277 | 87° | 80km/h | 8406m | 7.5m/s | -41.3°C | 38.8% | 340.3hPa | 2.8V | 18:12:15 | 01:26:31 | 00:00:00 | i |
| HTAHTA | 2026-08-31 11:57:01 | 50.88279 | 4.84243 | 85° | 86km/h | 8398m | 6.5m/s | -41.2°C | 34.0% | 340.7hPa | 2.8V | 00:00:00 | 00:00:00 | 00:00:00 | i |
| WEDDY | 2026-08-31 11:57:00 | 50.88280 | 4.84277 | 88° | 80km/h | 8406m | 7.5m/s | -41.3°C | 34.3% | 340.3hPa | 2.8V | 00:00:00 | 00:00:00 | 00:00:00 | i |
| DM0DOS-11 | 2026-08-31 11:56:59 | 50.88254 | 4.84091 | 73° | 106km/h | 8375m | 5.3m/s | -41°C | 35.1% | 341.9hPa | 2.8V | 08:30:00 | 01:26:26 | 00:00:00 | |
| BIOWL1-15 | 2026-08-31 11:56:52 | 50.88205 | 4.83772 | 69° | 88km/h | 8330m | 3.4m/s | -40.6°C | 35.1% | 344.2hPa | 2.8V | 18:12:15 | 01:26:17 | 00:00:00 | i |
| DM0DOS-11 | 2026-08-31 11:56:41 | 50.88133 | 4.83536 | 78° | 106km/h | 8297m | 6.8m/s | -40.3°C | 32.9% | 345.7hPa | 2.7V | 08:30:00 | 01:26:10 | 00:00:00 | i |
| BIOWL1-15 | 2026-08-31 11:56:39 | 50.88094 | 4.83210 | 92° | 78km/h | 8245m | 3.2m/s | -39.9°C | 32.6% | 348.5hPa | 2.8V | 18:12:15 | 01:26:00 | 00:00:00 | |
| DM0DOS-11 | 2026-08-31 11:56:35 | 50.88094 | 4.83210 | 91° | 78km/h | 8245m | 3.2m/s | -39.9°C | 31.9% | 348.5hPa | 2.8V | 08:30:00 | 01:26:00 | 00:00:00 | i |
| BIOWL1-15 | 2026-08-31 11:56:30 | 50.88090 | 4.83148 | 74° | 80km/h | 8236m | 6.7m/s | -39.8°C | 32.3% | 348.9hPa | 2.8V | 18:12:15 | 01:25:58 | 00:00:00 | i |
| HTAHTA | 2026-08-31 11:56:30 | 50.88094 | 4.83179 | 84° | 75km/h | 8241m | 4.6m/s | -39.8°C | -1.0% | -1.0hPa | 2.8V | 00:00:00 | 00:00:00 | 00:00:00 | i |
| DB0UT-7 | 2026-08-31 11:56:28 | 50.88090 | 4.83148 | 74° | 86km/h | 8236m | 6.6m/s | 0°C | 0% | 0hPa | 2.8V | 00:00:00 | 01:25:58 | 08:30:00 | |
| BIOWL9-15 | 2026-08-31 11:56:27 | 50.88072 | 4.83083 | 63° | 97km/h | 8222m | 5.4m/s | -39.6°C | 28.9% | 349.7hPa | 2.8V | 00:00:00 | 00:00:00 | 00:00:00 | |
| DO1YAY-16 | 2026-08-31 11:56:26 | 50.88072 | 4.83083 | 63° | 97km/h | 8222m | 5.4m/s | -39.6°C | 28.9% | 349.7hPa | 2.8V | 00:00:00 | 00:00:00 | 00:00:00 | |
| DM0DOS-11 | 2026-08-31 11:56:23 | 50.88041 | 4.82850 | 75° | 102km/h | 8195m | 4.9m/s | -39.4°C | 31.2% | 351.1hPa | 2.8V | 08:30:00 | 01:25:50 | 00:00:00 | i |
| BIOWL1-15 | 2026-08-31 11:56:17 | 50.87997 | 4.82661 | 79° | 93km/h | 8169m | 5.7m/s | -39.1°C | 31.7% | 352.4hPa | 2.7V | 18:12:15 | 01:25:45 | 00:00:00 | |
| DM0DOS-11 | 2026-08-31 11:56:11 | 50.87975 | 4.82468 | 73° | 97km/h | 8140m | 5.7m/s | -38.8°C | 30.4% | 353.8hPa | 2.8V | 08:30:00 | 01:25:40 | 00:00:00 | i |
| BIOWL1-15 | 2026-08-31 11:56:07 | 50.87932 | 4.82303 | 61° | 82km/h | 8116m | 4.4m/s | -38.7°C | 30.8% | 355.1hPa | 2.8V | 18:12:15 | 01:25:35 | 00:00:00 | i |
| DM0DOS-11 | 2026-08-31 11:56:05 | 50.87896 | 4.82154 | 80° | 89km/h | 8091m | 6.1m/s | -38.4°C | 29.6% | 356.5hPa | 2.8V | 08:30:00 | 01:25:30 | 00:00:00 | i |
| BIOWL1-15 | 2026-08-31 11:55:56 | 50.87883 | 4.82015 | 82° | 86km/h | 8072m | 4.2m/s | -38.3°C | 30.8% | 357.4hPa | 2.8V | 18:12:15 | 01:25:26 | 00:00:00 | i |
| DM0DOS-11 | 2026-08-31 11:55:53 | 50.87870 | 4.81806 | 78° | 75km/h | 8046m | 4.9m/s | -38.1°C | 30.4% | 358.8hPa | 2.8V | 08:30:00 | 01:25:20 | 00:00:00 | |
| BIOWL1-15 | 2026-08-31 11:55:47 | 50.87848 | 4.81665 | 77° | 89km/h | 8019m | 6.9m/s | -37.9°C | 31.8% | 360.1hPa | 2.8V | 18:12:15 | 01:25:15 | 00:00:00 | i |
| DM0DOS-11 | 2026-08-31 11:55:39 | 50.87785 | 4.81406 | 74° | 97km/h | 7985m | 5.8m/s | -37.6°C | 31.1% | 361.9hPa | 2.8V | 08:30:00 | 01:25:08 | 00:00:00 | i |
| BIOWL1-15 | 2026-08-31 11:55:34 | 50.87747 | 4.81140 | 70° | 106km/h | 7950m | 5m/s | -37.3°C | 32.9% | 363.8hPa | 2.8V | 18:12:15 | 01:25:01 | 00:00:00 | i |
| DM0DOS-11 | 2026-08-31 11:55:33 | 50.87729 | 4.81019 | 84° | 100km/h | 7936m | 5.3m/s | -37.3°C | 32.7% | 364.6hPa | 2.8V | 08:30:00 | 01:24:58 | 00:00:00 | i |
| BIOWL1-15 | 2026-08-31 11:55:25 | 50.87660 | 4.80538 | 68° | 84km/h | 7870m | 5.6m/s | -36.7°C | 31.1% | 368hPa | 2.8V | 18:12:15 | 01:24:45 | 00:00:00 | i |
| DO1YAY-16 | 2026-08-31 11:55:25 | 50.87718 | 4.80874 | 75° | 84km/h | 7916m | 5.5m/s | -37.0°C | 30.2% | 365.6hPa | 2.8V | 00:00:00 | 00:00:00 | 00:00:00 | i |
| DM0DOS-11 | 2026-08-31 11:55:19 | 50.87681 | 4.80646 | 76° | 106km/h | 7885m | 3.7m/s | -36.8°C | 31% | 367.2hPa | 2.8V | 08:30:00 | 01:24:48 | 00:00:00 | i |
| WEDDY | 2026-08-31 11:55:17 | 50.87681 | 4.80646 | 78° | 106km/h | 7885m | 3.7m/s | -36.8°C | 28.7% | 367.2hPa | 2.7V | 00:00:00 | 00:00:00 | 00:00:00 | |
| DJ2DS-15 | 2026-08-31 11:55:10 | 50.87612 | 4.80369 | 64° | 102km/h | 7849m | 4.5m/s | -36.5°C | 29.3% | 369.2hPa | 2.7V | 00:00:00 | 00:00:00 | 00:00:00 | |
| DM0DOS-11 | 2026-08-31 11:55:07 | 50.87555 | 4.80186 | 75° | 66km/h | 7813m | 7.3m/s | -36.2°C | 30% | 371.1hPa | 2.7V | 08:30:00 | 01:24:34 | 00:00:00 | i |
| BIOWL1-15 | 2026-08-31 11:55:06 | 50.87555 | 4.80186 | 75° | 66km/h | 7813m | 7.3m/s | -36.2°C | 32% | 371.1hPa | 2.7V | 18:12:15 | 01:24:34 | 00:00:00 | i |
| DM0DOS-11 | 2026-08-31 11:54:59 | 50.87496 | 4.79853 | 77° | 91km/h | 7748m | 7.1m/s | -35.5°C | 27.8% | 374.4hPa | 2.8V | 08:30:00 | 01:24:23 | 00:00:00 | i |
| BIOWL1-15 | 2026-08-31 11:54:55 | 50.87474 | 4.79702 | 82° | 89km/h | 7725m | 5.8m/s | -35.3°C | 29% | 375.7hPa | 2.8V | 18:12:15 | 01:24:19 | 00:00:00 | i |
| DO1YAY-16 | 2026-08-31 11:54:53 | 50.87496 | 4.79853 | 77° | 91km/h | 7748m | 7.1m/s | -35.5°C | 25.7% | 374.4hPa | 2.8V | 00:00:00 | 00:00:00 | 00:00:00 | |
| DM0DOS-11 | 2026-08-31 11:54:48 | 50.87448 | 4.79485 | 70° | 113km/h | 7696m | 5.7m/s | -35°C | 26.8% | 377.5hPa | 2.8V | 08:30:00 | 01:24:13 | 00:00:00 | i |
| BIOWL1-15 | 2026-08-31 11:54:40 | 50.87393 | 4.79222 | 63° | 82km/h | 7647m | 6.1m/s | -34.5°C | 26.6% | 380hPa | 2.8V | 18:12:15 | 01:24:05 | 00:00:00 | i |
| WEDDY | 2026-08-31 11:54:35 | 50.87402 | 4.79251 | 63° | 78km/h | 7653m | 4.7m/s | -34.6°C | 23.8% | 379.7hPa | 2.8V | 00:00:00 | 00:00:00 | 00:00:00 | |
| DJ2DS-15 | 2026-08-31 11:54:34 | 50.87384 | 4.79192 | 65° | 86km/h | 7641m | 6.6m/s | -34.4°C | -1.0% | 380.3hPa | 2.8V | 00:00:00 | 00:00:00 | 00:00:00 | |
| DM0DOS-11 | 2026-08-31 11:54:32 | 50.87320 | 4.78937 | 69° | 110km/h | 7607m | 2.7m/s | -34.2°C | 25.9% | 382.3hPa | 2.8V | 08:30:00 | 01:23:57 | 00:00:00 | i |
| BIOWL1-15 | 2026-08-31 11:54:29 | 50.87341 | 4.79017 | 67° | 106km/h | 7615m | 5.5m/s | -34.3°C | 26.9% | 381.8hPa | 2.7V | 18:12:15 | 01:23:59 | 00:00:00 | i |
| BIOWL1-15 | 2026-08-31 11:54:18 | 50.87258 | 4.78587 | 90° | 84km/h | 7550m | 4.6m/s | -33.8°C | 28.7% | 385.3hPa | 2.8V | 18:12:15 | 01:23:46 | 00:00:00 | |
| BIOWL1-15 | 2026-08-31 11:54:10 | 50.87220 | 4.78344 | 90° | 88km/h | 7506m | 6.2m/s | -33.4°C | 28.4% | 387.7hPa | 2.8V | 18:12:15 | 01:23:38 | 00:00:00 | i |
| DM0DOS-11 | 2026-08-31 11:54:06 | 50.87197 | 4.78151 | 76° | 64km/h | 7478m | 4.5m/s | -33.2°C | 26.9% | 389.4hPa | 2.8V | 08:30:00 | 01:23:32 | 00:00:00 | i |
| BIOWL1-15 | 2026-08-31 11:53:58 | 50.87190 | 4.78032 | 84° | 89km/h | 7460m | 6.6m/s | -33°C | 28.9% | 390.3hPa | 2.8V | 18:12:15 | 01:23:28 | 00:00:00 | i |
| BIOWL1-15 | 2026-08-31 11:53:48 | 50.87131 | 4.77558 | 73° | 88km/h | 7387m | 4.3m/s | -32.3°C | 28.3% | 394.4hPa | 2.8V | 18:12:15 | 01:23:15 | 00:00:00 | i |
| DM0DOS-11 | 2026-08-31 11:53:46 | 50.87137 | 4.77590 | 76° | 82km/h | 7392m | 4.8m/s | -32.3°C | 26.9% | 394.1hPa | 2.8V | 08:30:00 | 01:23:16 | 00:00:00 | i |
| DM0DOS-11 | 2026-08-31 11:53:36 | 50.87056 | 4.77266 | 65° | 80km/h | 7351m | 4.2m/s | -32°C | 25.1% | 396.4hPa | 2.7V | 08:30:00 | 01:23:06 | 00:00:00 | i |
| BIOWL1-15 | 2026-08-31 11:53:35 | 50.87033 | 4.77017 | 69° | 97km/h | 7315m | 6m/s | -31.8°C | 27.4% | 398.4hPa | 2.8V | 18:12:15 | 01:22:58 | 00:00:00 | i |
| WEDDY | 2026-08-31 11:53:34 | 50.87043 | 4.77208 | 79° | 73km/h | 7341m | 5.6m/s | -31.9°C | 23.2% | 397.0hPa | 2.7V | 00:00:00 | 00:00:00 | 00:00:00 | |
| DM0DOS-11 | 2026-08-31 11:53:31 | 50.87013 | 4.76949 | 64° | 88km/h | 7305m | 5.1m/s | -31.6°C | 24.9% | 398.9hPa | 2.7V | 08:30:00 | 01:22:56 | 00:00:00 | i |
| BIOWL1-15 | 2026-08-31 11:53:24 | 50.87001 | 4.76832 | 86° | 77km/h | 7284m | 4.1m/s | -31.5°C | 24.9% | 400.2hPa | 2.8V | 18:12:15 | 01:22:52 | 00:00:00 | i |
| BIOWL1-15 | 2026-08-31 11:53:13 | 50.86952 | 4.76492 | 80° | 99km/h | 7236m | 3.8m/s | -31°C | 24.8% | 403hPa | 2.8V | 18:12:15 | 01:22:43 | 00:00:00 | i |
| WEDDY | 2026-08-31 11:53:13 | 50.86952 | 4.76492 | 81° | 99km/h | 7236m | 3.8m/s | -31.0°C | 21.7% | 403.0hPa | 2.7V | 00:00:00 | 00:00:00 | 00:00:00 | i |
| DM0DOS-11 | 2026-08-31 11:53:01 | 50.86897 | 4.75995 | 80° | 84km/h | 7181m | 3.9m/s | -30.6°C | 28.6% | 406.1hPa | 2.7V | 08:30:00 | 01:22:30 | 00:00:00 | i |
| BIOWL1-15 | 2026-08-31 11:53:01 | 50.86897 | 4.75995 | 80° | 84km/h | 7181m | 3.9m/s | -30.6°C | 29.7% | 406.1hPa | 2.7V | 18:12:15 | 01:22:30 | 00:00:00 | i |
| HTAHTA | 2026-08-31 11:52:52 | 50.86847 | 4.75659 | 67° | 71km/h | 7135m | 5.4m/s | 0°C | -1.0% | -1.0hPa | 2.8V | 00:00:00 | 00:00:00 | 00:00:00 | |
| DM0DOS-11 | 2026-08-31 11:52:51 | 50.86855 | 4.75686 | 64° | 78km/h | 7140m | 4.3m/s | -30.2°C | 27.4% | 408.4hPa | 2.8V | 08:30:00 | 01:22:20 | 00:00:00 | i |
| BIOWL1-15 | 2026-08-31 11:52:48 | 50.86835 | 4.75577 | 82° | 75km/h | 7121m | 4.8m/s | -30.1°C | 30% | 409.4hPa | 2.8V | 18:12:15 | 01:22:16 | 00:00:00 | i |
| DM0DOS-11 | 2026-08-31 11:52:45 | 50.86805 | 4.75363 | 79° | 99km/h | 7084m | 3.7m/s | -29.6°C | 27.3% | 411.6hPa | 2.7V | 08:30:00 | 01:22:10 | 00:00:00 | |
| BIOWL1-15 | 2026-08-31 11:52:37 | 50.86787 | 4.75246 | 73° | 100km/h | 7070m | 4.7m/s | -29.6°C | 27.6% | 412.5hPa | 2.8V | 18:12:15 | 01:22:07 | 00:00:00 | i |
| BIOWL1-15 | 2026-08-31 11:52:26 | 50.86716 | 4.74816 | 70° | 69km/h | 7018m | 3.7m/s | -29°C | 28.7% | 415.4hPa | 2.8V | 18:12:15 | 01:21:55 | 00:00:00 | i |
| DM0DOS-11 | 2026-08-31 11:52:24 | 50.86695 | 4.74639 | 76° | 89km/h | 6989m | 4.9m/s | -28.7°C | 26.1% | 417hPa | 2.7V | 08:30:00 | 01:21:50 | 00:00:00 | |
| BIOWL1-15 | 2026-08-31 11:52:15 | 50.86678 | 4.74467 | 83° | 86km/h | 6964m | 5.6m/s | -28.5°C | 27.9% | 418.5hPa | 2.8V | 18:12:15 | 01:21:44 | 00:00:00 | i |
| DM0DOS-11 | 2026-08-31 11:52:13 | 50.86641 | 4.74288 | 66° | 91km/h | 6930m | 5.3m/s | -28.2°C | 26.4% | 420.5hPa | 2.8V | 08:30:00 | 01:21:39 | 00:00:00 | i |
| BIOWL1-15 | 2026-08-31 11:52:04 | 50.86603 | 4.74051 | 71° | 113km/h | 6908m | 2.4m/s | -28.1°C | 29.1% | 421.9hPa | 2.8V | 18:12:15 | 01:21:33 | 00:00:00 | i |
| DM0DOS-11 | 2026-08-31 11:52:03 | 50.86566 | 4.73925 | 65° | 62km/h | 6887m | 5.9m/s | -28°C | 25.8% | 423.1hPa | 2.7V | 08:30:00 | 01:21:29 | 00:00:00 | i |
| BIOWL1-15 | 2026-08-31 11:51:54 | 50.86515 | 4.73569 | 76° | 106km/h | 6829m | 5.3m/s | -27.5°C | 26.7% | 426.6hPa | 2.8V | 18:12:15 | 01:21:18 | 00:00:00 | i |
| DM0DOS-11 | 2026-08-31 11:51:53 | 50.86521 | 4.73607 | 73° | 91km/h | 6835m | 6.6m/s | -27.5°C | 25% | 426.2hPa | 2.8V | 08:30:00 | 01:21:19 | 00:00:00 | i |
| DO1YAY-16 | 2026-08-31 11:51:47 | 50.86504 | 4.73489 | 80° | 93km/h | 6817m | 6.1m/s | -27.3°C | 24.3% | 427.1hPa | 2.8V | 00:00:00 | 00:00:00 | 00:00:00 | |
| BIOWL1-15 | 2026-08-31 11:51:44 | 50.86494 | 4.73361 | 85° | 89km/h | 6798m | 5.3m/s | -27.2°C | 27.6% | 428.4hPa | 2.8V | 18:12:15 | 01:21:12 | 00:00:00 | |
| DM0DOS-11 | 2026-08-31 11:51:41 | 50.86484 | 4.73237 | 81° | 106km/h | 6785m | 2.6m/s | -27.1°C | 26% | 429hPa | 2.8V | 08:30:00 | 01:21:09 | 00:00:00 | |
| DM0DOS-11 | 2026-08-31 11:51:34 | 50.86414 | 4.72907 | 77° | 93km/h | 6729m | 7m/s | -26.5°C | 27.4% | 432.3hPa | 2.7V | 08:30:00 | 01:20:59 | 00:00:00 | i |
| BIOWL1-15 | 2026-08-31 11:51:25 | 50.86406 | 4.72780 | 87° | 84km/h | 6705m | 3.5m/s | -26.5°C | 25.9% | 434hPa | 2.8V | 18:12:15 | 01:20:55 | 00:00:00 | i |
| DM0DOS-11 | 2026-08-31 11:51:24 | 50.86386 | 4.72557 | 83° | 82km/h | 6681m | 4.8m/s | -26.4°C | 20% | 435.3hPa | 2.8V | 08:30:00 | 01:20:49 | 00:00:00 | i |
| BIOWL1-15 | 2026-08-31 11:51:15 | 50.86344 | 4.72254 | 63° | 88km/h | 6637m | 3.3m/s | -26.4°C | 26.7% | 438hPa | 2.8V | 18:12:15 | 01:20:40 | 00:00:00 | i |
| DM0DOS-11 | 2026-08-31 11:51:11 | 50.86334 | 4.72224 | 61° | 82km/h | 6633m | 3.5m/s | -26.4°C | 26.3% | 438.3hPa | 2.8V | 08:30:00 | 01:20:39 | 00:00:00 | i |
| WEDDY | 2026-08-31 11:51:09 | 50.86334 | 4.72224 | 63° | 82km/h | 6633m | 3.5m/s | -26.4°C | 25.0% | 438.3hPa | 2.8V | 00:00:00 | 00:00:00 | 00:00:00 | |
| DM0DOS-11 | 2026-08-31 11:51:04 | 50.86292 | 4.71931 | 85° | 78km/h | 6592m | 3.7m/s | -26.1°C | 25.9% | 440.7hPa | 2.8V | 08:30:00 | 01:20:29 | 00:00:00 | i |
| BIOWL1-15 | 2026-08-31 11:51:02 | 50.86296 | 4.71997 | 85° | 88km/h | 6599m | 3.4m/s | -26.2°C | 27.1% | 440.4hPa | 2.8V | 18:12:15 | 01:20:31 | 00:00:00 | i |
| DM0DOS-11 | 2026-08-31 11:50:51 | 50.86263 | 4.71619 | 70° | 86km/h | 6539m | 7.7m/s | -25.6°C | 25.3% | 444hPa | 2.8V | 08:30:00 | 01:20:19 | 00:00:00 | i |
| BIOWL1-15 | 2026-08-31 11:50:51 | 50.86236 | 4.71543 | 62° | 58km/h | 6518m | 4.4m/s | -25.4°C | 27.7% | 445.2hPa | 2.8V | 18:12:15 | 01:20:16 | 00:00:00 | i |
| DO1YAY-16 | 2026-08-31 11:50:45 | 50.86228 | 4.71492 | 84° | 77km/h | 6508m | 6.4m/s | -25.4°C | 25.5% | 445.9hPa | 2.7V | 00:00:00 | 00:00:00 | 00:00:00 | |
| DM0DOS-11 | 2026-08-31 11:50:44 | 50.86198 | 4.71301 | 64° | 89km/h | 6480m | 5.3m/s | -25°C | 25.3% | 447.5hPa | 2.7V | 08:30:00 | 01:20:09 | 00:00:00 | |
| BIOWL1-15 | 2026-08-31 11:50:35 | 50.86182 | 4.71188 | 92° | 71km/h | 6454m | 5m/s | -24.9°C | 29.5% | 449.3hPa | 2.8V | 18:12:15 | 01:20:05 | 00:00:00 | i |
| BIOWL1-15 | 2026-08-31 11:50:25 | 50.86076 | 4.70509 | 75° | 68km/h | 6356m | 3.9m/s | -24.3°C | 29.8% | 455.4hPa | 2.8V | 18:12:15 | 01:19:45 | 00:00:00 | i |
| DM0DOS-11 | 2026-08-31 11:50:19 | 50.86084 | 4.70564 | 78° | 75km/h | 6365m | 4.6m/s | -24.3°C | 28.1% | 454.8hPa | 2.8V | 08:30:00 | 01:19:47 | 00:00:00 | i |
| BIOWL1-15 | 2026-08-31 11:50:17 | 50.86063 | 4.70458 | 64° | 71km/h | 6348m | 4.2m/s | -24.3°C | 31.3% | 455.9hPa | 2.8V | 18:12:15 | 01:19:43 | 00:00:00 | i |
| DO1YAY-16 | 2026-08-31 11:50:14 | 50.86063 | 4.70458 | 63° | 69km/h | 6348m | 4.2m/s | -24.3°C | 28.2% | 455.9hPa | 2.8V | 00:00:00 | 00:00:00 | 00:00:00 | |
| DM0DOS-11 | 2026-08-31 11:50:07 | 50.86005 | 4.70211 | 82° | 91km/h | 6314m | 6.3m/s | -24°C | 28.6% | 457.9hPa | 2.8V | 08:30:00 | 01:19:36 | 00:00:00 | i |
| WEDDY | 2026-08-31 11:50:07 | 50.86009 | 4.70249 | 81° | 102km/h | 6320m | 5.1m/s | 0°C | 0% | 0hPa | 2.8V | 00:00:00 | 00:00:00 | 00:00:00 | i |
| DM0DOS-11 | 2026-08-31 11:49:57 | 50.85972 | 4.69862 | 75° | 89km/h | 6267m | 6.2m/s | -23.6°C | 27.9% | 460.8hPa | 2.8V | 08:30:00 | 01:19:26 | 00:00:00 | i |
| BIOWL1-15 | 2026-08-31 11:49:53 | 50.85954 | 4.69780 | 64° | 66km/h | 6245m | 6.4m/s | -23.5°C | 30.8% | 462.1hPa | 2.8V | 18:12:15 | 01:19:23 | 00:00:00 | i |
| DM0DOS-11 | 2026-08-31 11:49:47 | 50.85915 | 4.69541 | 76° | 102km/h | 6203m | 4.5m/s | -23.1°C | 28.9% | 464.9hPa | 2.8V | 08:30:00 | 01:19:16 | 00:00:00 | i |
| BIOWL1-15 | 2026-08-31 11:49:41 | 50.85872 | 4.69352 | 65° | 89km/h | 6179m | 5.5m/s | -22.8°C | 28.6% | 466.5hPa | 2.8V | 18:12:15 | 01:19:11 | 00:00:00 | i |
| DM0DOS-11 | 2026-08-31 11:49:37 | 50.85839 | 4.69214 | 65° | 68km/h | 6155m | 4.5m/s | -22.7°C | 25.8% | 468.1hPa | 2.8V | 08:30:00 | 01:19:06 | 00:00:00 | i |
| BIOWL1-15 | 2026-08-31 11:49:31 | 50.85776 | 4.68939 | 84° | 82km/h | 6116m | 5.9m/s | -22.3°C | 25.9% | 470.5hPa | 2.8V | 18:12:15 | 01:18:58 | 00:00:00 | i |
| WEDDY | 2026-08-31 11:49:26 | 50.85770 | 4.68879 | 78° | 73km/h | 6103m | 6.4m/s | 0°C | 0% | 0hPa | 2.8V | 00:00:00 | 00:00:00 | 00:00:00 | |
| DM0DOS-11 | 2026-08-31 11:49:21 | 50.85723 | 4.68677 | 64° | 80km/h | 6070m | 4.3m/s | -21.9°C | 22.4% | 473.5hPa | 2.8V | 08:30:00 | 01:18:49 | 00:00:00 | i |
| BIOWL1-15 | 2026-08-31 11:49:19 | 50.85703 | 4.68617 | 60° | 88km/h | 6062m | 3.7m/s | -21.9°C | 23.6% | 474.1hPa | 2.8V | 18:12:15 | 01:18:47 | 00:00:00 | i |
| DM0DOS-11 | 2026-08-31 11:49:14 | 50.85649 | 4.68328 | 80° | 104km/h | 6024m | 4.6m/s | -21.6°C | 21.7% | 476.5hPa | 2.7V | 08:30:00 | 01:18:39 | 00:00:00 | i |
| BIOWL1-15 | 2026-08-31 11:49:06 | 50.85602 | 4.68154 | 65° | 75km/h | 6001m | 4.4m/s | -21.3°C | 22.9% | 477.8hPa | 2.8V | 18:12:15 | 01:18:34 | 00:00:00 | i |
| DM0DOS-11 | 2026-08-31 11:49:02 | 50.85587 | 4.67985 | 78° | 91km/h | 5971m | 5.2m/s | -20.9°C | 0% | 479.8hPa | 2.8V | 08:30:00 | 01:18:29 | 00:00:00 | i |
| BIOWL1-15 | 2026-08-31 11:48:54 | 50.85522 | 4.67736 | 66° | 95km/h | 5925m | 4.3m/s | -20.8°C | 23% | 482.9hPa | 2.8V | 18:12:15 | 01:18:21 | 00:00:00 | i |
| BIOWL1-15 | 2026-08-31 11:48:43 | 50.85479 | 4.67406 | 62° | 73km/h | 5874m | 5.9m/s | -20.4°C | 24.5% | 485.9hPa | 2.8V | 18:12:15 | 01:18:11 | 00:00:00 | i |
| DM0DOS-11 | 2026-08-31 11:48:42 | 50.85460 | 4.67344 | 68° | 99km/h | 5862m | 5.7m/s | -20.2°C | 0% | 486.8hPa | 2.8V | 08:30:00 | 01:18:09 | 00:00:00 | i |
| BIOWL1-15 | 2026-08-31 11:48:33 | 50.85425 | 4.67139 | 72° | 62km/h | 5831m | 3.8m/s | -20°C | 25.1% | 489hPa | 2.8V | 18:12:15 | 01:18:03 | 00:00:00 | |
| DM0DOS-11 | 2026-08-31 11:48:32 | 50.85420 | 4.67012 | 85° | 106km/h | 5808m | 4.8m/s | -19.9°C | 0% | 490.6hPa | 2.8V | 08:30:00 | 01:17:59 | 00:00:00 | i |
| BIOWL1-15 | 2026-08-31 11:48:22 | 50.85357 | 4.66606 | 61° | 78km/h | 5738m | 5.8m/s | -19.3°C | 24.6% | 495.1hPa | 2.8V | 18:12:15 | 01:17:47 | 00:00:00 | i |
| DM0DOS-11 | 2026-08-31 11:48:22 | 50.85376 | 4.66671 | 72° | 100km/h | 5749m | 5.2m/s | -19.3°C | 0% | 0hPa | 2.7V | 08:30:00 | 01:17:49 | 00:00:00 | i |
| BIOWL1-15 | 2026-08-31 11:48:08 | 50.85329 | 4.66329 | 77° | 75km/h | 5689m | 7.1m/s | -18.7°C | 24.5% | 498.4hPa | 2.8V | 18:12:15 | 01:17:38 | 00:00:00 | |
| DM0DOS-11 | 2026-08-31 11:48:06 | 50.85302 | 4.66149 | 80° | 66km/h | 5654m | 5.7m/s | -18.5°C | 0% | 0hPa | 2.8V | 08:30:00 | 01:17:32 | 00:00:00 | i |
| BIOWL1-15 | 2026-08-31 11:47:57 | 50.85280 | 4.65969 | 64° | 95km/h | 5622m | 5.8m/s | -18.3°C | 26.7% | 502.9hPa | 2.8V | 18:12:15 | 01:17:27 | 00:00:00 | i |
| BIOWL1-15 | 2026-08-31 11:47:46 | 50.85220 | 4.65570 | 89° | 82km/h | 5555m | 5.2m/s | -17.7°C | 26.7% | 507.5hPa | 2.8V | 18:12:15 | 01:17:14 | 00:00:00 | |
| DM0DOS-11 | 2026-08-31 11:47:44 | 50.85209 | 4.65454 | 71° | 100km/h | 5539m | 4.9m/s | 0°C | 0% | 0hPa | 2.8V | 08:30:00 | 01:17:11 | 00:00:00 | i |
| BIOWL1-15 | 2026-08-31 11:47:35 | 50.85186 | 4.65270 | 77° | 91km/h | 5505m | 5.4m/s | -17.4°C | 28.2% | 510.8hPa | 2.8V | 18:12:15 | 01:17:05 | 00:00:00 | i |
| DM0DOS-11 | 2026-08-31 11:47:33 | 50.85154 | 4.65148 | 77° | 64km/h | 5482m | 5.9m/s | 0°C | 0% | 0hPa | 2.8V | 08:30:00 | 01:17:01 | 00:00:00 | i |
| BIOWL1-15 | 2026-08-31 11:47:23 | 50.85108 | 4.64840 | 88° | 97km/h | 5426m | 6.4m/s | -16.9°C | 32% | 516hPa | 2.8V | 18:12:15 | 01:16:51 | 00:00:00 | i |
| BIOWL1-15 | 2026-08-31 11:47:15 | 50.85070 | 4.64569 | 78° | 97km/h | 5381m | 5.2m/s | -16.5°C | 32.5% | 519.4hPa | 2.8V | 18:12:15 | 01:16:43 | 00:00:00 | i |
| DM0DOS-11 | 2026-08-31 11:47:09 | 50.85023 | 4.64330 | 84° | 97km/h | 5342m | 4.9m/s | 0°C | 0% | 0hPa | 2.8V | 08:30:00 | 01:16:36 | 00:00:00 | i |
| BIOWL1-15 | 2026-08-31 11:47:03 | 50.84992 | 4.64187 | 62° | 77km/h | 5317m | 6.7m/s | -15.9°C | 30.5% | 523.7hPa | 2.8V | 18:12:15 | 01:16:32 | 00:00:00 | i |
| DM0DOS-11 | 2026-08-31 11:46:55 | 50.84942 | 4.63917 | 69° | 77km/h | 5274m | 5.8m/s | 0°C | 0% | 0hPa | 2.7V | 08:30:00 | 01:16:24 | 00:00:00 | i |
| BIOWL1-15 | 2026-08-31 11:46:52 | 50.84934 | 4.63854 | 84° | 93km/h | 5262m | 6.7m/s | -15.6°C | 33.2% | 527.6hPa | 2.8V | 18:12:15 | 01:16:22 | 00:00:00 | i |
| BIOWL1-15 | 2026-08-31 11:46:42 | 50.84873 | 4.63479 | 71° | 115km/h | 5201m | 6.2m/s | -15.1°C | 29% | 531.9hPa | 2.8V | 18:12:15 | 01:16:12 | 00:00:00 | i |
| DM0DOS-11 | 2026-08-31 11:46:40 | 50.84834 | 4.63313 | 87° | 86km/h | 5172m | 5.5m/s | 0°C | 0% | 0hPa | 2.8V | 08:30:00 | 01:16:07 | 00:00:00 | i |
| BIOWL1-15 | 2026-08-31 11:46:31 | 50.84792 | 4.63098 | 70° | 73km/h | 5138m | 5.5m/s | -14.6°C | 27.9% | 536.3hPa | 2.7V | 18:12:15 | 01:16:01 | 00:00:00 | i |
| BIOWL1-15 | 2026-08-31 11:46:20 | 50.84743 | 4.62709 | 81° | 111km/h | 5074m | 6m/s | -14.5°C | 33.9% | 541hPa | 2.8V | 18:12:15 | 01:15:50 | 00:00:00 | i |
| DM0DOS-11 | 2026-08-31 11:46:18 | 50.84710 | 4.62533 | 89° | 77km/h | 5045m | 6.4m/s | 0°C | 0% | 0hPa | 2.8V | 08:30:00 | 01:15:45 | 00:00:00 | i |
| BIOWL1-15 | 2026-08-31 11:46:09 | 50.84687 | 4.62306 | 71° | 75km/h | 5012m | 6.2m/s | -13.8°C | 33.7% | 545.3hPa | 2.8V | 18:12:15 | 01:15:39 | 00:00:00 | i |
| BIOWL9-15 | 2026-08-31 11:46:06 | 50.84678 | 4.62174 | 81° | 106km/h | 4989m | 5.5m/s | -13.7°C | 30.4% | 547.0hPa | 2.8V | 00:00:00 | 00:00:00 | 00:00:00 | |
| DM0DOS-11 | 2026-08-31 11:46:05 | 50.84658 | 4.62057 | 72° | 86km/h | 4972m | 5.2m/s | 0°C | 0% | 0hPa | 2.8V | 00:00:00 | 01:15:32 | 00:00:00 | i |
| BIOWL1-15 | 2026-08-31 11:45:59 | 50.84637 | 4.61841 | 72° | 102km/h | 4940m | 5m/s | -13.1°C | 32.3% | 550.6hPa | 2.8V | 18:12:15 | 01:15:26 | 00:00:00 | i |
| BIOWL1-15 | 2026-08-31 11:45:47 | 50.84593 | 4.61460 | 80° | 86km/h | 4876m | 5.2m/s | -12.6°C | 33.5% | 555.1hPa | 2.8V | 18:12:15 | 01:15:15 | 00:00:00 | i |
| BIOWL1-15 | 2026-08-31 11:45:35 | 50.84543 | 4.61108 | 70° | 88km/h | 4818m | 5.3m/s | -12.4°C | 36.2% | 559.4hPa | 2.8V | 18:12:15 | 01:15:05 | 00:00:00 | i |
| BIOWL1-15 | 2026-08-31 11:45:25 | 50.84458 | 4.60574 | 78° | 73km/h | 4734m | 5.7m/s | -11.6°C | 37.1% | 565.4hPa | 2.8V | 18:12:15 | 01:14:49 | 00:00:00 | i |
| BIOWL1-15 | 2026-08-31 11:45:11 | 50.84415 | 4.60140 | 87° | 64km/h | 4661m | 5.7m/s | -10.9°C | 36.2% | 571.4hPa | 2.8V | 18:12:15 | 01:14:36 | 00:00:00 | i |
| BIOWL1-15 | 2026-08-31 11:45:00 | 50.84384 | 4.59897 | 72° | 68km/h | 4625m | 5m/s | -10.7°C | 34.7% | 573.7hPa | 2.8V | 18:12:15 | 01:14:29 | 00:00:00 | i |
| BIOWL1-15 | 2026-08-31 11:44:49 | 50.84339 | 4.59531 | 80° | 102km/h | 4567m | 5.8m/s | -10.2°C | 35% | 577.9hPa | 2.8V | 18:12:15 | 01:14:18 | 00:00:00 | i |
| DM0DOS-11 | 2026-08-31 11:44:48 | 50.84311 | 4.59394 | 79° | 73km/h | 4546m | 5.8m/s | 0°C | 0% | 0hPa | 2.8V | 00:00:00 | 01:14:14 | 00:00:00 | i |
| BIOWL1-15 | 2026-08-31 11:44:38 | 50.84273 | 4.59101 | 85° | 84km/h | 4495m | 6.1m/s | -9.7°C | 41.3% | 583.5hPa | 2.8V | 18:12:15 | 01:14:05 | 00:00:00 | |
| BIOWL1-15 | 2026-08-31 11:44:26 | 50.84215 | 4.58805 | 67° | 89km/h | 4445m | 5.7m/s | -9.1°C | 41.1% | 587.1hPa | 2.8V | 18:12:15 | 01:13:56 | 00:00:00 | i |
| BIOWL1-15 | 2026-08-31 11:44:16 | 50.84124 | 4.58317 | 61° | 78km/h | 4361m | 4.9m/s | -8.4°C | 47.4% | 593.7hPa | 2.8V | 18:12:15 | 01:13:41 | 00:00:00 | i |
| BIOWL1-15 | 2026-08-31 11:44:05 | 50.84092 | 4.58123 | 68° | 95km/h | 4329m | 4.8m/s | -8.2°C | 59.1% | 596hPa | 2.8V | 18:12:15 | 01:13:35 | 00:00:00 | i |
| BIOWL1-15 | 2026-08-31 11:43:55 | 50.83986 | 4.57594 | 72° | 78km/h | 4235m | 5.1m/s | -7.7°C | 51.4% | 603.3hPa | 2.8V | 18:12:15 | 01:13:18 | 00:00:00 | i |
| BIOWL1-15 | 2026-08-31 11:43:43 | 50.83957 | 4.57425 | 61° | 91km/h | 4210m | 4.9m/s | -7.6°C | 0% | 605.3hPa | 2.8V | 18:12:15 | 01:13:13 | 00:00:00 | i |
| BIOWL1-15 | 2026-08-31 11:43:33 | 50.83840 | 4.56917 | 70° | 69km/h | 4113m | 5.7m/s | 0°C | 0% | 0hPa | 2.8V | 18:12:15 | 01:12:56 | 00:00:00 | i |
| BIOWL1-15 | 2026-08-31 11:43:18 | 50.83748 | 4.56537 | 72° | 60km/h | 4039m | 5.3m/s | 0°C | 0% | 0hPa | 2.8V | 18:12:15 | 01:12:43 | 00:00:00 | i |
| BIOWL1-15 | 2026-08-31 11:43:07 | 50.83697 | 4.56320 | 79° | 68km/h | 3995m | 6m/s | 0°C | 0% | 0hPa | 2.8V | 18:12:15 | 01:12:35 | 00:00:00 | i |
| BIOWL1-15 | 2026-08-31 11:42:55 | 50.83620 | 4.56011 | 58° | 80km/h | 3936m | 5m/s | 0°C | 0% | 0hPa | 2.8V | 18:12:15 | 01:12:24 | 00:00:00 | i |